<?xml version="1.0" encoding="UTF-8" standalone="no" ?>
<gpx xmlns="http://www.topografix.com/GPX/1/1" xmlns:xsi="http://www.w3.org/2001/XMLSchema-instance" xsi:schemaLocation="http://www.topografix.com/GPX/1/1 http://www.topografix.com/GPX/1/1/gpx.xsd" version="1.1" creator="VisuGPX - https://www.visugpx.com">
  <metadata>
    <name>Soultz via GB</name>
  </metadata>
  <trk>
    <name><![CDATA[Soultz-Haut-Rhin Cyclisme]]></name>
    <trkseg>
      <trkpt lat="47.89089" lon="7.22287">
        <ele>274.39999389648</ele>
        <time>2021-07-11T06:16:44.000Z</time>
      </trkpt>
      <trkpt lat="47.89089" lon="7.22287">
        <ele>274.39999389648</ele>
        <time>2021-07-11T06:16:45.000Z</time>
      </trkpt>
      <trkpt lat="47.89095" lon="7.22276">
        <ele>273.39999389648</ele>
        <time>2021-07-11T06:20:40.000Z</time>
      </trkpt>
      <trkpt lat="47.89097" lon="7.22275">
        <ele>273.39999389648</ele>
        <time>2021-07-11T06:20:42.000Z</time>
      </trkpt>
      <trkpt lat="47.89097" lon="7.22275">
        <ele>273.39999389648</ele>
        <time>2021-07-11T06:20:43.000Z</time>
      </trkpt>
      <trkpt lat="47.89098" lon="7.22275">
        <ele>273.39999389648</ele>
        <time>2021-07-11T06:20:44.000Z</time>
      </trkpt>
      <trkpt lat="47.89098" lon="7.22272">
        <ele>273.39999389648</ele>
        <time>2021-07-11T06:22:27.000Z</time>
      </trkpt>
      <trkpt lat="47.89099" lon="7.22266">
        <ele>273.39999389648</ele>
        <time>2021-07-11T06:22:29.000Z</time>
      </trkpt>
      <trkpt lat="47.89099" lon="7.22245">
        <ele>273.79998779297</ele>
        <time>2021-07-11T06:22:36.000Z</time>
      </trkpt>
      <trkpt lat="47.89099" lon="7.22241">
        <ele>274.20001220703</ele>
        <time>2021-07-11T06:22:37.000Z</time>
      </trkpt>
      <trkpt lat="47.89099" lon="7.22238">
        <ele>274.79998779297</ele>
        <time>2021-07-11T06:22:38.000Z</time>
      </trkpt>
      <trkpt lat="47.89098" lon="7.22235">
        <ele>275.20001220703</ele>
        <time>2021-07-11T06:22:39.000Z</time>
      </trkpt>
      <trkpt lat="47.89098" lon="7.22232">
        <ele>275.60000610352</ele>
        <time>2021-07-11T06:22:40.000Z</time>
      </trkpt>
      <trkpt lat="47.89097" lon="7.22227">
        <ele>275.60000610352</ele>
        <time>2021-07-11T06:22:42.000Z</time>
      </trkpt>
      <trkpt lat="47.89098" lon="7.22207">
        <ele>275.60000610352</ele>
        <time>2021-07-11T06:22:47.000Z</time>
      </trkpt>
      <trkpt lat="47.89097" lon="7.22203">
        <ele>276</ele>
        <time>2021-07-11T06:22:48.000Z</time>
      </trkpt>
      <trkpt lat="47.89097" lon="7.222">
        <ele>276.39999389648</ele>
        <time>2021-07-11T06:22:49.000Z</time>
      </trkpt>
      <trkpt lat="47.89097" lon="7.22196">
        <ele>276.79998779297</ele>
        <time>2021-07-11T06:22:50.000Z</time>
      </trkpt>
      <trkpt lat="47.89096" lon="7.22192">
        <ele>277.20001220703</ele>
        <time>2021-07-11T06:22:51.000Z</time>
      </trkpt>
      <trkpt lat="47.89096" lon="7.22189">
        <ele>277.60000610352</ele>
        <time>2021-07-11T06:22:52.000Z</time>
      </trkpt>
      <trkpt lat="47.89096" lon="7.22186">
        <ele>277.60000610352</ele>
        <time>2021-07-11T06:22:53.000Z</time>
      </trkpt>
      <trkpt lat="47.89093" lon="7.22167">
        <ele>277.60000610352</ele>
        <time>2021-07-11T06:23:00.000Z</time>
      </trkpt>
      <trkpt lat="47.89093" lon="7.22166">
        <ele>278</ele>
        <time>2021-07-11T06:23:01.000Z</time>
      </trkpt>
      <trkpt lat="47.89093" lon="7.22165">
        <ele>278.39999389648</ele>
        <time>2021-07-11T06:23:02.000Z</time>
      </trkpt>
      <trkpt lat="47.89094" lon="7.22163">
        <ele>278.79998779297</ele>
        <time>2021-07-11T06:23:03.000Z</time>
      </trkpt>
      <trkpt lat="47.89094" lon="7.22162">
        <ele>279.20001220703</ele>
        <time>2021-07-11T06:23:04.000Z</time>
      </trkpt>
      <trkpt lat="47.89094" lon="7.2216">
        <ele>279.60000610352</ele>
        <time>2021-07-11T06:23:05.000Z</time>
      </trkpt>
      <trkpt lat="47.89094" lon="7.22159">
        <ele>279.60000610352</ele>
        <time>2021-07-11T06:23:07.000Z</time>
      </trkpt>
      <trkpt lat="47.8909" lon="7.22155">
        <ele>279.60000610352</ele>
        <time>2021-07-11T06:23:38.000Z</time>
      </trkpt>
      <trkpt lat="47.8909" lon="7.22151">
        <ele>279.60000610352</ele>
        <time>2021-07-11T06:23:39.000Z</time>
      </trkpt>
      <trkpt lat="47.89089" lon="7.22141">
        <ele>279.60000610352</ele>
        <time>2021-07-11T06:23:45.000Z</time>
      </trkpt>
      <trkpt lat="47.8909" lon="7.22128">
        <ele>279.60000610352</ele>
        <time>2021-07-11T06:23:51.000Z</time>
      </trkpt>
      <trkpt lat="47.8909" lon="7.22119">
        <ele>280</ele>
        <time>2021-07-11T06:23:55.000Z</time>
      </trkpt>
      <trkpt lat="47.8909" lon="7.22117">
        <ele>280.79998779297</ele>
        <time>2021-07-11T06:23:56.000Z</time>
      </trkpt>
      <trkpt lat="47.89091" lon="7.22114">
        <ele>281.20001220703</ele>
        <time>2021-07-11T06:23:57.000Z</time>
      </trkpt>
      <trkpt lat="47.89091" lon="7.22112">
        <ele>281.60000610352</ele>
        <time>2021-07-11T06:23:58.000Z</time>
      </trkpt>
      <trkpt lat="47.89094" lon="7.22101">
        <ele>281.60000610352</ele>
        <time>2021-07-11T06:24:03.000Z</time>
      </trkpt>
      <trkpt lat="47.89097" lon="7.22089">
        <ele>281.60000610352</ele>
        <time>2021-07-11T06:24:09.000Z</time>
      </trkpt>
      <trkpt lat="47.89097" lon="7.22086">
        <ele>282</ele>
        <time>2021-07-11T06:24:10.000Z</time>
      </trkpt>
      <trkpt lat="47.89097" lon="7.22084">
        <ele>282.39999389648</ele>
        <time>2021-07-11T06:24:11.000Z</time>
      </trkpt>
      <trkpt lat="47.89098" lon="7.22082">
        <ele>282.79998779297</ele>
        <time>2021-07-11T06:24:12.000Z</time>
      </trkpt>
      <trkpt lat="47.89098" lon="7.2208">
        <ele>283.20001220703</ele>
        <time>2021-07-11T06:24:13.000Z</time>
      </trkpt>
      <trkpt lat="47.89099" lon="7.22079">
        <ele>283.60000610352</ele>
        <time>2021-07-11T06:24:14.000Z</time>
      </trkpt>
      <trkpt lat="47.89099" lon="7.22078">
        <ele>283.60000610352</ele>
        <time>2021-07-11T06:24:15.000Z</time>
      </trkpt>
      <trkpt lat="47.891" lon="7.22076">
        <ele>283.60000610352</ele>
        <time>2021-07-11T06:24:20.000Z</time>
      </trkpt>
      <trkpt lat="47.89101" lon="7.22071">
        <ele>283.60000610352</ele>
        <time>2021-07-11T06:24:22.000Z</time>
      </trkpt>
      <trkpt lat="47.89104" lon="7.22059">
        <ele>283.60000610352</ele>
        <time>2021-07-11T06:24:28.000Z</time>
      </trkpt>
      <trkpt lat="47.89105" lon="7.22057">
        <ele>284</ele>
        <time>2021-07-11T06:24:29.000Z</time>
      </trkpt>
      <trkpt lat="47.89105" lon="7.22055">
        <ele>284.60000610352</ele>
        <time>2021-07-11T06:24:30.000Z</time>
      </trkpt>
      <trkpt lat="47.89106" lon="7.22053">
        <ele>285</ele>
        <time>2021-07-11T06:24:31.000Z</time>
      </trkpt>
      <trkpt lat="47.89107" lon="7.22051">
        <ele>285.39999389648</ele>
        <time>2021-07-11T06:24:32.000Z</time>
      </trkpt>
      <trkpt lat="47.89107" lon="7.22048">
        <ele>285.79998779297</ele>
        <time>2021-07-11T06:24:33.000Z</time>
      </trkpt>
      <trkpt lat="47.89112" lon="7.22038">
        <ele>285.79998779297</ele>
        <time>2021-07-11T06:24:38.000Z</time>
      </trkpt>
      <trkpt lat="47.89113" lon="7.22037">
        <ele>286.20001220703</ele>
        <time>2021-07-11T06:24:39.000Z</time>
      </trkpt>
      <trkpt lat="47.89114" lon="7.22035">
        <ele>286.60000610352</ele>
        <time>2021-07-11T06:24:40.000Z</time>
      </trkpt>
      <trkpt lat="47.89115" lon="7.22033">
        <ele>287</ele>
        <time>2021-07-11T06:24:41.000Z</time>
      </trkpt>
      <trkpt lat="47.89116" lon="7.22031">
        <ele>287.39999389648</ele>
        <time>2021-07-11T06:24:42.000Z</time>
      </trkpt>
      <trkpt lat="47.89117" lon="7.22029">
        <ele>287.79998779297</ele>
        <time>2021-07-11T06:24:43.000Z</time>
      </trkpt>
      <trkpt lat="47.8912" lon="7.22023">
        <ele>287.79998779297</ele>
        <time>2021-07-11T06:24:46.000Z</time>
      </trkpt>
      <trkpt lat="47.89125" lon="7.22012">
        <ele>288.20001220703</ele>
        <time>2021-07-11T06:24:52.000Z</time>
      </trkpt>
      <trkpt lat="47.89126" lon="7.2201">
        <ele>288.60000610352</ele>
        <time>2021-07-11T06:24:53.000Z</time>
      </trkpt>
      <trkpt lat="47.89128" lon="7.22008">
        <ele>289</ele>
        <time>2021-07-11T06:24:54.000Z</time>
      </trkpt>
      <trkpt lat="47.89129" lon="7.22006">
        <ele>289.60000610352</ele>
        <time>2021-07-11T06:24:55.000Z</time>
      </trkpt>
      <trkpt lat="47.89129" lon="7.22004">
        <ele>290</ele>
        <time>2021-07-11T06:24:56.000Z</time>
      </trkpt>
      <trkpt lat="47.89137" lon="7.21993">
        <ele>290</ele>
        <time>2021-07-11T06:25:02.000Z</time>
      </trkpt>
      <trkpt lat="47.89145" lon="7.21984">
        <ele>290.39999389648</ele>
        <time>2021-07-11T06:25:08.000Z</time>
      </trkpt>
      <trkpt lat="47.89146" lon="7.21982">
        <ele>290.79998779297</ele>
        <time>2021-07-11T06:25:09.000Z</time>
      </trkpt>
      <trkpt lat="47.89148" lon="7.21981">
        <ele>291.60000610352</ele>
        <time>2021-07-11T06:25:10.000Z</time>
      </trkpt>
      <trkpt lat="47.89149" lon="7.2198">
        <ele>292.20001220703</ele>
        <time>2021-07-11T06:25:11.000Z</time>
      </trkpt>
      <trkpt lat="47.8916" lon="7.2197">
        <ele>292.20001220703</ele>
        <time>2021-07-11T06:25:18.000Z</time>
      </trkpt>
      <trkpt lat="47.89161" lon="7.21968">
        <ele>292.60000610352</ele>
        <time>2021-07-11T06:25:19.000Z</time>
      </trkpt>
      <trkpt lat="47.89163" lon="7.21967">
        <ele>293</ele>
        <time>2021-07-11T06:25:20.000Z</time>
      </trkpt>
      <trkpt lat="47.89164" lon="7.21966">
        <ele>293.39999389648</ele>
        <time>2021-07-11T06:25:21.000Z</time>
      </trkpt>
      <trkpt lat="47.89166" lon="7.21965">
        <ele>293.79998779297</ele>
        <time>2021-07-11T06:25:22.000Z</time>
      </trkpt>
      <trkpt lat="47.89168" lon="7.21964">
        <ele>294.20001220703</ele>
        <time>2021-07-11T06:25:23.000Z</time>
      </trkpt>
      <trkpt lat="47.89169" lon="7.21963">
        <ele>294.20001220703</ele>
        <time>2021-07-11T06:25:24.000Z</time>
      </trkpt>
      <trkpt lat="47.8918" lon="7.21953">
        <ele>294.60000610352</ele>
        <time>2021-07-11T06:25:32.000Z</time>
      </trkpt>
      <trkpt lat="47.89182" lon="7.21952">
        <ele>295</ele>
        <time>2021-07-11T06:25:33.000Z</time>
      </trkpt>
      <trkpt lat="47.89183" lon="7.21951">
        <ele>295.79998779297</ele>
        <time>2021-07-11T06:25:34.000Z</time>
      </trkpt>
      <trkpt lat="47.89185" lon="7.21949">
        <ele>296.20001220703</ele>
        <time>2021-07-11T06:25:35.000Z</time>
      </trkpt>
      <trkpt lat="47.89191" lon="7.21944">
        <ele>296.20001220703</ele>
        <time>2021-07-11T06:25:39.000Z</time>
      </trkpt>
      <trkpt lat="47.89195" lon="7.21941">
        <ele>296.60000610352</ele>
        <time>2021-07-11T06:25:41.000Z</time>
      </trkpt>
      <trkpt lat="47.89196" lon="7.2194">
        <ele>297</ele>
        <time>2021-07-11T06:25:42.000Z</time>
      </trkpt>
      <trkpt lat="47.89198" lon="7.21939">
        <ele>297.39999389648</ele>
        <time>2021-07-11T06:25:43.000Z</time>
      </trkpt>
      <trkpt lat="47.89199" lon="7.21937">
        <ele>298</ele>
        <time>2021-07-11T06:25:44.000Z</time>
      </trkpt>
      <trkpt lat="47.89201" lon="7.21936">
        <ele>298.39999389648</ele>
        <time>2021-07-11T06:25:45.000Z</time>
      </trkpt>
      <trkpt lat="47.89202" lon="7.21935">
        <ele>298.39999389648</ele>
        <time>2021-07-11T06:25:46.000Z</time>
      </trkpt>
      <trkpt lat="47.89212" lon="7.21929">
        <ele>298.79998779297</ele>
        <time>2021-07-11T06:25:52.000Z</time>
      </trkpt>
      <trkpt lat="47.89213" lon="7.21928">
        <ele>299.20001220703</ele>
        <time>2021-07-11T06:25:53.000Z</time>
      </trkpt>
      <trkpt lat="47.89215" lon="7.21926">
        <ele>299.60000610352</ele>
        <time>2021-07-11T06:25:54.000Z</time>
      </trkpt>
      <trkpt lat="47.89216" lon="7.21925">
        <ele>300</ele>
        <time>2021-07-11T06:25:55.000Z</time>
      </trkpt>
      <trkpt lat="47.89218" lon="7.21924">
        <ele>300.39999389648</ele>
        <time>2021-07-11T06:25:56.000Z</time>
      </trkpt>
      <trkpt lat="47.89224" lon="7.21919">
        <ele>300.79998779297</ele>
        <time>2021-07-11T06:26:00.000Z</time>
      </trkpt>
      <trkpt lat="47.89225" lon="7.21918">
        <ele>301.20001220703</ele>
        <time>2021-07-11T06:26:01.000Z</time>
      </trkpt>
      <trkpt lat="47.89227" lon="7.21917">
        <ele>301.60000610352</ele>
        <time>2021-07-11T06:26:02.000Z</time>
      </trkpt>
      <trkpt lat="47.89228" lon="7.21916">
        <ele>302</ele>
        <time>2021-07-11T06:26:03.000Z</time>
      </trkpt>
      <trkpt lat="47.8923" lon="7.21914">
        <ele>302.39999389648</ele>
        <time>2021-07-11T06:26:04.000Z</time>
      </trkpt>
      <trkpt lat="47.89234" lon="7.21911">
        <ele>302.39999389648</ele>
        <time>2021-07-11T06:26:07.000Z</time>
      </trkpt>
      <trkpt lat="47.89243" lon="7.21905">
        <ele>302.79998779297</ele>
        <time>2021-07-11T06:26:12.000Z</time>
      </trkpt>
      <trkpt lat="47.89245" lon="7.21904">
        <ele>303.39999389648</ele>
        <time>2021-07-11T06:26:13.000Z</time>
      </trkpt>
      <trkpt lat="47.89247" lon="7.21903">
        <ele>303.79998779297</ele>
        <time>2021-07-11T06:26:14.000Z</time>
      </trkpt>
      <trkpt lat="47.89248" lon="7.21902">
        <ele>304.20001220703</ele>
        <time>2021-07-11T06:26:15.000Z</time>
      </trkpt>
      <trkpt lat="47.8925" lon="7.21902">
        <ele>304.60000610352</ele>
        <time>2021-07-11T06:26:16.000Z</time>
      </trkpt>
      <trkpt lat="47.89258" lon="7.21897">
        <ele>304.60000610352</ele>
        <time>2021-07-11T06:26:21.000Z</time>
      </trkpt>
      <trkpt lat="47.89263" lon="7.21894">
        <ele>305</ele>
        <time>2021-07-11T06:26:24.000Z</time>
      </trkpt>
      <trkpt lat="47.89265" lon="7.21893">
        <ele>305.39999389648</ele>
        <time>2021-07-11T06:26:25.000Z</time>
      </trkpt>
      <trkpt lat="47.89267" lon="7.21892">
        <ele>305.79998779297</ele>
        <time>2021-07-11T06:26:26.000Z</time>
      </trkpt>
      <trkpt lat="47.89269" lon="7.21891">
        <ele>306.39999389648</ele>
        <time>2021-07-11T06:26:27.000Z</time>
      </trkpt>
      <trkpt lat="47.89271" lon="7.21889">
        <ele>306.79998779297</ele>
        <time>2021-07-11T06:26:28.000Z</time>
      </trkpt>
      <trkpt lat="47.89272" lon="7.21888">
        <ele>306.79998779297</ele>
        <time>2021-07-11T06:26:29.000Z</time>
      </trkpt>
      <trkpt lat="47.89284" lon="7.21882">
        <ele>307.20001220703</ele>
        <time>2021-07-11T06:26:36.000Z</time>
      </trkpt>
      <trkpt lat="47.89285" lon="7.21881">
        <ele>307.60000610352</ele>
        <time>2021-07-11T06:26:37.000Z</time>
      </trkpt>
      <trkpt lat="47.89287" lon="7.2188">
        <ele>308</ele>
        <time>2021-07-11T06:26:38.000Z</time>
      </trkpt>
      <trkpt lat="47.89288" lon="7.21879">
        <ele>308.39999389648</ele>
        <time>2021-07-11T06:26:39.000Z</time>
      </trkpt>
      <trkpt lat="47.8929" lon="7.21878">
        <ele>309</ele>
        <time>2021-07-11T06:26:40.000Z</time>
      </trkpt>
      <trkpt lat="47.893" lon="7.21871">
        <ele>309</ele>
        <time>2021-07-11T06:26:46.000Z</time>
      </trkpt>
      <trkpt lat="47.89302" lon="7.21867">
        <ele>309.79998779297</ele>
        <time>2021-07-11T06:26:48.000Z</time>
      </trkpt>
      <trkpt lat="47.89304" lon="7.21865">
        <ele>310.20001220703</ele>
        <time>2021-07-11T06:26:49.000Z</time>
      </trkpt>
      <trkpt lat="47.89305" lon="7.21864">
        <ele>310.60000610352</ele>
        <time>2021-07-11T06:26:50.000Z</time>
      </trkpt>
      <trkpt lat="47.89307" lon="7.21863">
        <ele>311.20001220703</ele>
        <time>2021-07-11T06:26:51.000Z</time>
      </trkpt>
      <trkpt lat="47.89312" lon="7.21861">
        <ele>311.20001220703</ele>
        <time>2021-07-11T06:26:54.000Z</time>
      </trkpt>
      <trkpt lat="47.89323" lon="7.21855">
        <ele>311.60000610352</ele>
        <time>2021-07-11T06:27:00.000Z</time>
      </trkpt>
      <trkpt lat="47.89325" lon="7.21855">
        <ele>312</ele>
        <time>2021-07-11T06:27:01.000Z</time>
      </trkpt>
      <trkpt lat="47.89327" lon="7.21854">
        <ele>312.39999389648</ele>
        <time>2021-07-11T06:27:02.000Z</time>
      </trkpt>
      <trkpt lat="47.89329" lon="7.21854">
        <ele>312.79998779297</ele>
        <time>2021-07-11T06:27:03.000Z</time>
      </trkpt>
      <trkpt lat="47.8933" lon="7.21854">
        <ele>313.20001220703</ele>
        <time>2021-07-11T06:27:04.000Z</time>
      </trkpt>
      <trkpt lat="47.89338" lon="7.21853">
        <ele>313.20001220703</ele>
        <time>2021-07-11T06:27:08.000Z</time>
      </trkpt>
      <trkpt lat="47.89351" lon="7.21853">
        <ele>313.20001220703</ele>
        <time>2021-07-11T06:27:15.000Z</time>
      </trkpt>
      <trkpt lat="47.89353" lon="7.21853">
        <ele>313.60000610352</ele>
        <time>2021-07-11T06:27:16.000Z</time>
      </trkpt>
      <trkpt lat="47.89355" lon="7.21853">
        <ele>314</ele>
        <time>2021-07-11T06:27:17.000Z</time>
      </trkpt>
      <trkpt lat="47.89357" lon="7.21852">
        <ele>314.39999389648</ele>
        <time>2021-07-11T06:27:18.000Z</time>
      </trkpt>
      <trkpt lat="47.89359" lon="7.21852">
        <ele>314.79998779297</ele>
        <time>2021-07-11T06:27:19.000Z</time>
      </trkpt>
      <trkpt lat="47.8936" lon="7.21852">
        <ele>315.20001220703</ele>
        <time>2021-07-11T06:27:20.000Z</time>
      </trkpt>
      <trkpt lat="47.89367" lon="7.21852">
        <ele>315.20001220703</ele>
        <time>2021-07-11T06:27:23.000Z</time>
      </trkpt>
      <trkpt lat="47.89382" lon="7.21853">
        <ele>315.20001220703</ele>
        <time>2021-07-11T06:27:31.000Z</time>
      </trkpt>
      <trkpt lat="47.89387" lon="7.21854">
        <ele>315.60000610352</ele>
        <time>2021-07-11T06:27:33.000Z</time>
      </trkpt>
      <trkpt lat="47.89389" lon="7.21854">
        <ele>316.20001220703</ele>
        <time>2021-07-11T06:27:34.000Z</time>
      </trkpt>
      <trkpt lat="47.89391" lon="7.21855">
        <ele>316.60000610352</ele>
        <time>2021-07-11T06:27:35.000Z</time>
      </trkpt>
      <trkpt lat="47.89393" lon="7.21855">
        <ele>317</ele>
        <time>2021-07-11T06:27:36.000Z</time>
      </trkpt>
      <trkpt lat="47.89395" lon="7.21855">
        <ele>317.39999389648</ele>
        <time>2021-07-11T06:27:37.000Z</time>
      </trkpt>
      <trkpt lat="47.8941" lon="7.21853">
        <ele>317.39999389648</ele>
        <time>2021-07-11T06:27:45.000Z</time>
      </trkpt>
      <trkpt lat="47.89413" lon="7.21852">
        <ele>317.39999389648</ele>
        <time>2021-07-11T06:27:47.000Z</time>
      </trkpt>
      <trkpt lat="47.89419" lon="7.21847">
        <ele>317.39999389648</ele>
        <time>2021-07-11T06:27:51.000Z</time>
      </trkpt>
      <trkpt lat="47.89423" lon="7.21842">
        <ele>317.79998779297</ele>
        <time>2021-07-11T06:27:54.000Z</time>
      </trkpt>
      <trkpt lat="47.89424" lon="7.2184">
        <ele>318.20001220703</ele>
        <time>2021-07-11T06:27:55.000Z</time>
      </trkpt>
      <trkpt lat="47.89426" lon="7.21838">
        <ele>318.79998779297</ele>
        <time>2021-07-11T06:27:56.000Z</time>
      </trkpt>
      <trkpt lat="47.89427" lon="7.21836">
        <ele>319.20001220703</ele>
        <time>2021-07-11T06:27:57.000Z</time>
      </trkpt>
      <trkpt lat="47.89428" lon="7.21834">
        <ele>319.60000610352</ele>
        <time>2021-07-11T06:27:58.000Z</time>
      </trkpt>
      <trkpt lat="47.89434" lon="7.21824">
        <ele>319.60000610352</ele>
        <time>2021-07-11T06:28:05.000Z</time>
      </trkpt>
      <trkpt lat="47.89438" lon="7.21819">
        <ele>319.60000610352</ele>
        <time>2021-07-11T06:28:10.000Z</time>
      </trkpt>
      <trkpt lat="47.89441" lon="7.21813">
        <ele>321.60000610352</ele>
        <time>2021-07-11T06:28:27.000Z</time>
      </trkpt>
      <trkpt lat="47.89442" lon="7.21811">
        <ele>321.60000610352</ele>
        <time>2021-07-11T06:28:28.000Z</time>
      </trkpt>
      <trkpt lat="47.89448" lon="7.21795">
        <ele>321.60000610352</ele>
        <time>2021-07-11T06:28:35.000Z</time>
      </trkpt>
      <trkpt lat="47.89454" lon="7.21774">
        <ele>322</ele>
        <time>2021-07-11T06:28:42.000Z</time>
      </trkpt>
      <trkpt lat="47.89455" lon="7.21772">
        <ele>322.39999389648</ele>
        <time>2021-07-11T06:28:43.000Z</time>
      </trkpt>
      <trkpt lat="47.89455" lon="7.21769">
        <ele>322.79998779297</ele>
        <time>2021-07-11T06:28:44.000Z</time>
      </trkpt>
      <trkpt lat="47.89457" lon="7.21767">
        <ele>323.39999389648</ele>
        <time>2021-07-11T06:28:45.000Z</time>
      </trkpt>
      <trkpt lat="47.89457" lon="7.21765">
        <ele>323.79998779297</ele>
        <time>2021-07-11T06:28:46.000Z</time>
      </trkpt>
      <trkpt lat="47.89463" lon="7.21756">
        <ele>323.79998779297</ele>
        <time>2021-07-11T06:28:51.000Z</time>
      </trkpt>
      <trkpt lat="47.89464" lon="7.21754">
        <ele>324.60000610352</ele>
        <time>2021-07-11T06:28:52.000Z</time>
      </trkpt>
      <trkpt lat="47.89465" lon="7.21753">
        <ele>325</ele>
        <time>2021-07-11T06:28:53.000Z</time>
      </trkpt>
      <trkpt lat="47.89467" lon="7.21752">
        <ele>325.39999389648</ele>
        <time>2021-07-11T06:28:54.000Z</time>
      </trkpt>
      <trkpt lat="47.89469" lon="7.2175">
        <ele>325.79998779297</ele>
        <time>2021-07-11T06:28:55.000Z</time>
      </trkpt>
      <trkpt lat="47.89474" lon="7.21737">
        <ele>325.79998779297</ele>
        <time>2021-07-11T06:28:59.000Z</time>
      </trkpt>
      <trkpt lat="47.89478" lon="7.21732">
        <ele>326.20001220703</ele>
        <time>2021-07-11T06:29:01.000Z</time>
      </trkpt>
      <trkpt lat="47.8948" lon="7.2173">
        <ele>326.60000610352</ele>
        <time>2021-07-11T06:29:02.000Z</time>
      </trkpt>
      <trkpt lat="47.89481" lon="7.21727">
        <ele>327</ele>
        <time>2021-07-11T06:29:03.000Z</time>
      </trkpt>
      <trkpt lat="47.89482" lon="7.21725">
        <ele>327.39999389648</ele>
        <time>2021-07-11T06:29:04.000Z</time>
      </trkpt>
      <trkpt lat="47.89484" lon="7.21723">
        <ele>327.79998779297</ele>
        <time>2021-07-11T06:29:05.000Z</time>
      </trkpt>
      <trkpt lat="47.89485" lon="7.21719">
        <ele>327.79998779297</ele>
        <time>2021-07-11T06:29:07.000Z</time>
      </trkpt>
      <trkpt lat="47.89489" lon="7.21708">
        <ele>328.20001220703</ele>
        <time>2021-07-11T06:29:11.000Z</time>
      </trkpt>
      <trkpt lat="47.8949" lon="7.21705">
        <ele>328.60000610352</ele>
        <time>2021-07-11T06:29:12.000Z</time>
      </trkpt>
      <trkpt lat="47.89491" lon="7.21703">
        <ele>329</ele>
        <time>2021-07-11T06:29:13.000Z</time>
      </trkpt>
      <trkpt lat="47.89492" lon="7.217">
        <ele>329.60000610352</ele>
        <time>2021-07-11T06:29:14.000Z</time>
      </trkpt>
      <trkpt lat="47.89493" lon="7.21698">
        <ele>330</ele>
        <time>2021-07-11T06:29:15.000Z</time>
      </trkpt>
      <trkpt lat="47.89494" lon="7.21692">
        <ele>330.39999389648</ele>
        <time>2021-07-11T06:29:19.000Z</time>
      </trkpt>
      <trkpt lat="47.89494" lon="7.2169">
        <ele>330.79998779297</ele>
        <time>2021-07-11T06:29:20.000Z</time>
      </trkpt>
      <trkpt lat="47.89494" lon="7.21688">
        <ele>331.20001220703</ele>
        <time>2021-07-11T06:29:21.000Z</time>
      </trkpt>
      <trkpt lat="47.89494" lon="7.21686">
        <ele>331.60000610352</ele>
        <time>2021-07-11T06:29:22.000Z</time>
      </trkpt>
      <trkpt lat="47.89494" lon="7.21684">
        <ele>332</ele>
        <time>2021-07-11T06:29:23.000Z</time>
      </trkpt>
      <trkpt lat="47.89494" lon="7.21676">
        <ele>332.39999389648</ele>
        <time>2021-07-11T06:29:27.000Z</time>
      </trkpt>
      <trkpt lat="47.89494" lon="7.21673">
        <ele>332.79998779297</ele>
        <time>2021-07-11T06:29:28.000Z</time>
      </trkpt>
      <trkpt lat="47.89494" lon="7.21671">
        <ele>333.20001220703</ele>
        <time>2021-07-11T06:29:29.000Z</time>
      </trkpt>
      <trkpt lat="47.89494" lon="7.21669">
        <ele>333.60000610352</ele>
        <time>2021-07-11T06:29:30.000Z</time>
      </trkpt>
      <trkpt lat="47.89494" lon="7.21666">
        <ele>334</ele>
        <time>2021-07-11T06:29:31.000Z</time>
      </trkpt>
      <trkpt lat="47.89497" lon="7.21655">
        <ele>334</ele>
        <time>2021-07-11T06:29:36.000Z</time>
      </trkpt>
      <trkpt lat="47.89501" lon="7.21646">
        <ele>334.39999389648</ele>
        <time>2021-07-11T06:29:40.000Z</time>
      </trkpt>
      <trkpt lat="47.89502" lon="7.21643">
        <ele>335</ele>
        <time>2021-07-11T06:29:41.000Z</time>
      </trkpt>
      <trkpt lat="47.89504" lon="7.2164">
        <ele>335.79998779297</ele>
        <time>2021-07-11T06:29:42.000Z</time>
      </trkpt>
      <trkpt lat="47.89506" lon="7.21638">
        <ele>336.39999389648</ele>
        <time>2021-07-11T06:29:43.000Z</time>
      </trkpt>
      <trkpt lat="47.8951" lon="7.21625">
        <ele>336.79998779297</ele>
        <time>2021-07-11T06:29:49.000Z</time>
      </trkpt>
      <trkpt lat="47.8951" lon="7.21623">
        <ele>337.20001220703</ele>
        <time>2021-07-11T06:29:50.000Z</time>
      </trkpt>
      <trkpt lat="47.89511" lon="7.2162">
        <ele>337.60000610352</ele>
        <time>2021-07-11T06:29:51.000Z</time>
      </trkpt>
      <trkpt lat="47.89511" lon="7.21619">
        <ele>338</ele>
        <time>2021-07-11T06:29:52.000Z</time>
      </trkpt>
      <trkpt lat="47.89512" lon="7.21617">
        <ele>338.60000610352</ele>
        <time>2021-07-11T06:29:53.000Z</time>
      </trkpt>
      <trkpt lat="47.89515" lon="7.21611">
        <ele>338.60000610352</ele>
        <time>2021-07-11T06:29:57.000Z</time>
      </trkpt>
      <trkpt lat="47.89516" lon="7.21609">
        <ele>339</ele>
        <time>2021-07-11T06:29:58.000Z</time>
      </trkpt>
      <trkpt lat="47.89518" lon="7.21608">
        <ele>339.39999389648</ele>
        <time>2021-07-11T06:29:59.000Z</time>
      </trkpt>
      <trkpt lat="47.8952" lon="7.21607">
        <ele>339.79998779297</ele>
        <time>2021-07-11T06:30:00.000Z</time>
      </trkpt>
      <trkpt lat="47.8952" lon="7.21606">
        <ele>340.20001220703</ele>
        <time>2021-07-11T06:30:01.000Z</time>
      </trkpt>
      <trkpt lat="47.89521" lon="7.21605">
        <ele>340.79998779297</ele>
        <time>2021-07-11T06:30:02.000Z</time>
      </trkpt>
      <trkpt lat="47.89521" lon="7.21605">
        <ele>340.79998779297</ele>
        <time>2021-07-11T06:30:05.000Z</time>
      </trkpt>
      <trkpt lat="47.89521" lon="7.21605">
        <ele>340.79998779297</ele>
        <time>2021-07-11T06:30:06.000Z</time>
      </trkpt>
      <trkpt lat="47.89523" lon="7.21596">
        <ele>340.79998779297</ele>
        <time>2021-07-11T06:30:28.000Z</time>
      </trkpt>
      <trkpt lat="47.89523" lon="7.21593">
        <ele>340.79998779297</ele>
        <time>2021-07-11T06:30:30.000Z</time>
      </trkpt>
      <trkpt lat="47.89523" lon="7.21588">
        <ele>341.20001220703</ele>
        <time>2021-07-11T06:30:32.000Z</time>
      </trkpt>
      <trkpt lat="47.89522" lon="7.21585">
        <ele>341.60000610352</ele>
        <time>2021-07-11T06:30:33.000Z</time>
      </trkpt>
      <trkpt lat="47.89521" lon="7.21583">
        <ele>342</ele>
        <time>2021-07-11T06:30:34.000Z</time>
      </trkpt>
      <trkpt lat="47.89521" lon="7.2158">
        <ele>342.39999389648</ele>
        <time>2021-07-11T06:30:35.000Z</time>
      </trkpt>
      <trkpt lat="47.89521" lon="7.21578">
        <ele>342.79998779297</ele>
        <time>2021-07-11T06:30:36.000Z</time>
      </trkpt>
      <trkpt lat="47.89523" lon="7.21565">
        <ele>342.79998779297</ele>
        <time>2021-07-11T06:30:40.000Z</time>
      </trkpt>
      <trkpt lat="47.89523" lon="7.21562">
        <ele>343.20001220703</ele>
        <time>2021-07-11T06:30:41.000Z</time>
      </trkpt>
      <trkpt lat="47.89524" lon="7.21559">
        <ele>343.60000610352</ele>
        <time>2021-07-11T06:30:42.000Z</time>
      </trkpt>
      <trkpt lat="47.89524" lon="7.21557">
        <ele>344</ele>
        <time>2021-07-11T06:30:43.000Z</time>
      </trkpt>
      <trkpt lat="47.89525" lon="7.21556">
        <ele>344.60000610352</ele>
        <time>2021-07-11T06:30:44.000Z</time>
      </trkpt>
      <trkpt lat="47.89525" lon="7.21554">
        <ele>345</ele>
        <time>2021-07-11T06:30:45.000Z</time>
      </trkpt>
      <trkpt lat="47.89525" lon="7.2155">
        <ele>345</ele>
        <time>2021-07-11T06:30:47.000Z</time>
      </trkpt>
      <trkpt lat="47.89525" lon="7.21546">
        <ele>345.39999389648</ele>
        <time>2021-07-11T06:30:49.000Z</time>
      </trkpt>
      <trkpt lat="47.89525" lon="7.21544">
        <ele>345.79998779297</ele>
        <time>2021-07-11T06:30:50.000Z</time>
      </trkpt>
      <trkpt lat="47.89525" lon="7.21542">
        <ele>346.20001220703</ele>
        <time>2021-07-11T06:30:51.000Z</time>
      </trkpt>
      <trkpt lat="47.89525" lon="7.2154">
        <ele>346.60000610352</ele>
        <time>2021-07-11T06:30:52.000Z</time>
      </trkpt>
      <trkpt lat="47.89525" lon="7.21538">
        <ele>347</ele>
        <time>2021-07-11T06:30:53.000Z</time>
      </trkpt>
      <trkpt lat="47.89525" lon="7.21536">
        <ele>347</ele>
        <time>2021-07-11T06:30:54.000Z</time>
      </trkpt>
      <trkpt lat="47.89526" lon="7.21533">
        <ele>347</ele>
        <time>2021-07-11T06:30:55.000Z</time>
      </trkpt>
      <trkpt lat="47.89527" lon="7.2153">
        <ele>347.39999389648</ele>
        <time>2021-07-11T06:30:56.000Z</time>
      </trkpt>
      <trkpt lat="47.89527" lon="7.21527">
        <ele>347.79998779297</ele>
        <time>2021-07-11T06:30:57.000Z</time>
      </trkpt>
      <trkpt lat="47.89527" lon="7.21524">
        <ele>348.39999389648</ele>
        <time>2021-07-11T06:30:58.000Z</time>
      </trkpt>
      <trkpt lat="47.89526" lon="7.21522">
        <ele>348.79998779297</ele>
        <time>2021-07-11T06:30:59.000Z</time>
      </trkpt>
      <trkpt lat="47.89527" lon="7.21519">
        <ele>349.20001220703</ele>
        <time>2021-07-11T06:31:00.000Z</time>
      </trkpt>
      <trkpt lat="47.89526" lon="7.21517">
        <ele>349.20001220703</ele>
        <time>2021-07-11T06:31:01.000Z</time>
      </trkpt>
      <trkpt lat="47.89526" lon="7.2151">
        <ele>349.60000610352</ele>
        <time>2021-07-11T06:31:04.000Z</time>
      </trkpt>
      <trkpt lat="47.89526" lon="7.21507">
        <ele>350</ele>
        <time>2021-07-11T06:31:05.000Z</time>
      </trkpt>
      <trkpt lat="47.89526" lon="7.21504">
        <ele>350.39999389648</ele>
        <time>2021-07-11T06:31:06.000Z</time>
      </trkpt>
      <trkpt lat="47.89526" lon="7.21501">
        <ele>350.79998779297</ele>
        <time>2021-07-11T06:31:07.000Z</time>
      </trkpt>
      <trkpt lat="47.89526" lon="7.21499">
        <ele>351.20001220703</ele>
        <time>2021-07-11T06:31:08.000Z</time>
      </trkpt>
      <trkpt lat="47.89525" lon="7.21492">
        <ele>351.60000610352</ele>
        <time>2021-07-11T06:31:12.000Z</time>
      </trkpt>
      <trkpt lat="47.89525" lon="7.21489">
        <ele>352</ele>
        <time>2021-07-11T06:31:13.000Z</time>
      </trkpt>
      <trkpt lat="47.89525" lon="7.21486">
        <ele>352.39999389648</ele>
        <time>2021-07-11T06:31:14.000Z</time>
      </trkpt>
      <trkpt lat="47.89525" lon="7.21484">
        <ele>352.79998779297</ele>
        <time>2021-07-11T06:31:15.000Z</time>
      </trkpt>
      <trkpt lat="47.89525" lon="7.21482">
        <ele>353.39999389648</ele>
        <time>2021-07-11T06:31:16.000Z</time>
      </trkpt>
      <trkpt lat="47.89525" lon="7.21478">
        <ele>353.39999389648</ele>
        <time>2021-07-11T06:31:18.000Z</time>
      </trkpt>
      <trkpt lat="47.89525" lon="7.21476">
        <ele>353.79998779297</ele>
        <time>2021-07-11T06:31:19.000Z</time>
      </trkpt>
      <trkpt lat="47.89525" lon="7.21475">
        <ele>354.20001220703</ele>
        <time>2021-07-11T06:31:20.000Z</time>
      </trkpt>
      <trkpt lat="47.89525" lon="7.21474">
        <ele>354.60000610352</ele>
        <time>2021-07-11T06:31:21.000Z</time>
      </trkpt>
      <trkpt lat="47.89525" lon="7.21472">
        <ele>355</ele>
        <time>2021-07-11T06:31:22.000Z</time>
      </trkpt>
      <trkpt lat="47.89524" lon="7.21469">
        <ele>355.39999389648</ele>
        <time>2021-07-11T06:31:23.000Z</time>
      </trkpt>
      <trkpt lat="47.89525" lon="7.21467">
        <ele>355.39999389648</ele>
        <time>2021-07-11T06:31:24.000Z</time>
      </trkpt>
      <trkpt lat="47.89525" lon="7.21462">
        <ele>355.79998779297</ele>
        <time>2021-07-11T06:31:27.000Z</time>
      </trkpt>
      <trkpt lat="47.89525" lon="7.2146">
        <ele>356.20001220703</ele>
        <time>2021-07-11T06:31:28.000Z</time>
      </trkpt>
      <trkpt lat="47.89525" lon="7.21458">
        <ele>356.60000610352</ele>
        <time>2021-07-11T06:31:29.000Z</time>
      </trkpt>
      <trkpt lat="47.89524" lon="7.21456">
        <ele>357</ele>
        <time>2021-07-11T06:31:30.000Z</time>
      </trkpt>
      <trkpt lat="47.89523" lon="7.21455">
        <ele>357.39999389648</ele>
        <time>2021-07-11T06:31:31.000Z</time>
      </trkpt>
      <trkpt lat="47.89522" lon="7.21332">
        <ele>372.20001220703</ele>
        <time>2021-07-11T06:34:30.000Z</time>
      </trkpt>
      <trkpt lat="47.89523" lon="7.2133">
        <ele>372.60000610352</ele>
        <time>2021-07-11T06:34:31.000Z</time>
      </trkpt>
      <trkpt lat="47.89524" lon="7.21326">
        <ele>372.60000610352</ele>
        <time>2021-07-11T06:34:33.000Z</time>
      </trkpt>
      <trkpt lat="47.89527" lon="7.21318">
        <ele>373.20001220703</ele>
        <time>2021-07-11T06:34:37.000Z</time>
      </trkpt>
      <trkpt lat="47.89529" lon="7.21317">
        <ele>373.60000610352</ele>
        <time>2021-07-11T06:34:38.000Z</time>
      </trkpt>
      <trkpt lat="47.89529" lon="7.21315">
        <ele>374</ele>
        <time>2021-07-11T06:34:39.000Z</time>
      </trkpt>
      <trkpt lat="47.8953" lon="7.21313">
        <ele>374.39999389648</ele>
        <time>2021-07-11T06:34:40.000Z</time>
      </trkpt>
      <trkpt lat="47.89531" lon="7.2131">
        <ele>375</ele>
        <time>2021-07-11T06:34:41.000Z</time>
      </trkpt>
      <trkpt lat="47.89533" lon="7.21302">
        <ele>375.39999389648</ele>
        <time>2021-07-11T06:34:45.000Z</time>
      </trkpt>
      <trkpt lat="47.89533" lon="7.213">
        <ele>375.79998779297</ele>
        <time>2021-07-11T06:34:46.000Z</time>
      </trkpt>
      <trkpt lat="47.89534" lon="7.21297">
        <ele>376.20001220703</ele>
        <time>2021-07-11T06:34:47.000Z</time>
      </trkpt>
      <trkpt lat="47.89534" lon="7.21295">
        <ele>376.60000610352</ele>
        <time>2021-07-11T06:34:48.000Z</time>
      </trkpt>
      <trkpt lat="47.89534" lon="7.21293">
        <ele>377</ele>
        <time>2021-07-11T06:34:49.000Z</time>
      </trkpt>
      <trkpt lat="47.89534" lon="7.21288">
        <ele>377</ele>
        <time>2021-07-11T06:34:51.000Z</time>
      </trkpt>
      <trkpt lat="47.89535" lon="7.21282">
        <ele>377.39999389648</ele>
        <time>2021-07-11T06:34:53.000Z</time>
      </trkpt>
      <trkpt lat="47.89535" lon="7.21279">
        <ele>377.79998779297</ele>
        <time>2021-07-11T06:34:54.000Z</time>
      </trkpt>
      <trkpt lat="47.89534" lon="7.21277">
        <ele>378.20001220703</ele>
        <time>2021-07-11T06:34:55.000Z</time>
      </trkpt>
      <trkpt lat="47.89533" lon="7.21274">
        <ele>378.60000610352</ele>
        <time>2021-07-11T06:34:56.000Z</time>
      </trkpt>
      <trkpt lat="47.89532" lon="7.21272">
        <ele>379</ele>
        <time>2021-07-11T06:34:57.000Z</time>
      </trkpt>
      <trkpt lat="47.89528" lon="7.21259">
        <ele>379.39999389648</ele>
        <time>2021-07-11T06:35:02.000Z</time>
      </trkpt>
      <trkpt lat="47.89527" lon="7.21257">
        <ele>379.79998779297</ele>
        <time>2021-07-11T06:35:03.000Z</time>
      </trkpt>
      <trkpt lat="47.89527" lon="7.21254">
        <ele>380.20001220703</ele>
        <time>2021-07-11T06:35:04.000Z</time>
      </trkpt>
      <trkpt lat="47.89526" lon="7.21251">
        <ele>380.60000610352</ele>
        <time>2021-07-11T06:35:05.000Z</time>
      </trkpt>
      <trkpt lat="47.89526" lon="7.21249">
        <ele>381</ele>
        <time>2021-07-11T06:35:06.000Z</time>
      </trkpt>
      <trkpt lat="47.89527" lon="7.21242">
        <ele>381</ele>
        <time>2021-07-11T06:35:09.000Z</time>
      </trkpt>
      <trkpt lat="47.89529" lon="7.21226">
        <ele>381</ele>
        <time>2021-07-11T06:35:14.000Z</time>
      </trkpt>
      <trkpt lat="47.89527" lon="7.21212">
        <ele>381</ele>
        <time>2021-07-11T06:35:19.000Z</time>
      </trkpt>
      <trkpt lat="47.89527" lon="7.21196">
        <ele>381.60000610352</ele>
        <time>2021-07-11T06:35:24.000Z</time>
      </trkpt>
      <trkpt lat="47.89527" lon="7.21194">
        <ele>382</ele>
        <time>2021-07-11T06:35:25.000Z</time>
      </trkpt>
      <trkpt lat="47.89527" lon="7.21191">
        <ele>382.39999389648</ele>
        <time>2021-07-11T06:35:26.000Z</time>
      </trkpt>
      <trkpt lat="47.89526" lon="7.21189">
        <ele>383.20001220703</ele>
        <time>2021-07-11T06:35:27.000Z</time>
      </trkpt>
      <trkpt lat="47.89529" lon="7.21173">
        <ele>383.20001220703</ele>
        <time>2021-07-11T06:35:32.000Z</time>
      </trkpt>
      <trkpt lat="47.89529" lon="7.21157">
        <ele>383.60000610352</ele>
        <time>2021-07-11T06:35:37.000Z</time>
      </trkpt>
      <trkpt lat="47.89529" lon="7.21153">
        <ele>384.20001220703</ele>
        <time>2021-07-11T06:35:38.000Z</time>
      </trkpt>
      <trkpt lat="47.89529" lon="7.2115">
        <ele>384.60000610352</ele>
        <time>2021-07-11T06:35:39.000Z</time>
      </trkpt>
      <trkpt lat="47.8953" lon="7.21148">
        <ele>385</ele>
        <time>2021-07-11T06:35:40.000Z</time>
      </trkpt>
      <trkpt lat="47.8953" lon="7.21145">
        <ele>385.39999389648</ele>
        <time>2021-07-11T06:35:41.000Z</time>
      </trkpt>
      <trkpt lat="47.89532" lon="7.21139">
        <ele>385.39999389648</ele>
        <time>2021-07-11T06:35:44.000Z</time>
      </trkpt>
      <trkpt lat="47.89532" lon="7.21136">
        <ele>385.39999389648</ele>
        <time>2021-07-11T06:35:45.000Z</time>
      </trkpt>
      <trkpt lat="47.89532" lon="7.21124">
        <ele>385.79998779297</ele>
        <time>2021-07-11T06:35:50.000Z</time>
      </trkpt>
      <trkpt lat="47.89531" lon="7.21122">
        <ele>386.20001220703</ele>
        <time>2021-07-11T06:35:51.000Z</time>
      </trkpt>
      <trkpt lat="47.89531" lon="7.2112">
        <ele>387.20001220703</ele>
        <time>2021-07-11T06:35:52.000Z</time>
      </trkpt>
      <trkpt lat="47.89532" lon="7.21117">
        <ele>387.60000610352</ele>
        <time>2021-07-11T06:35:53.000Z</time>
      </trkpt>
      <trkpt lat="47.89528" lon="7.21101">
        <ele>387.60000610352</ele>
        <time>2021-07-11T06:35:58.000Z</time>
      </trkpt>
      <trkpt lat="47.89526" lon="7.21096">
        <ele>388</ele>
        <time>2021-07-11T06:36:00.000Z</time>
      </trkpt>
      <trkpt lat="47.89525" lon="7.21093">
        <ele>388.39999389648</ele>
        <time>2021-07-11T06:36:01.000Z</time>
      </trkpt>
      <trkpt lat="47.89524" lon="7.21091">
        <ele>388.79998779297</ele>
        <time>2021-07-11T06:36:02.000Z</time>
      </trkpt>
      <trkpt lat="47.89523" lon="7.21089">
        <ele>389.20001220703</ele>
        <time>2021-07-11T06:36:03.000Z</time>
      </trkpt>
      <trkpt lat="47.89522" lon="7.21087">
        <ele>389.60000610352</ele>
        <time>2021-07-11T06:36:04.000Z</time>
      </trkpt>
      <trkpt lat="47.89521" lon="7.21084">
        <ele>389.60000610352</ele>
        <time>2021-07-11T06:36:05.000Z</time>
      </trkpt>
      <trkpt lat="47.89519" lon="7.21073">
        <ele>390</ele>
        <time>2021-07-11T06:36:09.000Z</time>
      </trkpt>
      <trkpt lat="47.89518" lon="7.21071">
        <ele>390.60000610352</ele>
        <time>2021-07-11T06:36:10.000Z</time>
      </trkpt>
      <trkpt lat="47.89517" lon="7.21069">
        <ele>391</ele>
        <time>2021-07-11T06:36:11.000Z</time>
      </trkpt>
      <trkpt lat="47.89517" lon="7.21067">
        <ele>391.39999389648</ele>
        <time>2021-07-11T06:36:12.000Z</time>
      </trkpt>
      <trkpt lat="47.89518" lon="7.21065">
        <ele>391.79998779297</ele>
        <time>2021-07-11T06:36:13.000Z</time>
      </trkpt>
      <trkpt lat="47.89516" lon="7.21058">
        <ele>391.79998779297</ele>
        <time>2021-07-11T06:36:16.000Z</time>
      </trkpt>
      <trkpt lat="47.89515" lon="7.21056">
        <ele>391.79998779297</ele>
        <time>2021-07-11T06:36:17.000Z</time>
      </trkpt>
      <trkpt lat="47.89513" lon="7.21051">
        <ele>392.20001220703</ele>
        <time>2021-07-11T06:36:19.000Z</time>
      </trkpt>
      <trkpt lat="47.89512" lon="7.21048">
        <ele>392.79998779297</ele>
        <time>2021-07-11T06:36:20.000Z</time>
      </trkpt>
      <trkpt lat="47.8951" lon="7.21046">
        <ele>393.20001220703</ele>
        <time>2021-07-11T06:36:21.000Z</time>
      </trkpt>
      <trkpt lat="47.8951" lon="7.21045">
        <ele>393.60000610352</ele>
        <time>2021-07-11T06:36:22.000Z</time>
      </trkpt>
      <trkpt lat="47.89509" lon="7.21042">
        <ele>394</ele>
        <time>2021-07-11T06:36:23.000Z</time>
      </trkpt>
      <trkpt lat="47.89507" lon="7.21032">
        <ele>394</ele>
        <time>2021-07-11T06:36:27.000Z</time>
      </trkpt>
      <trkpt lat="47.89506" lon="7.21027">
        <ele>394.39999389648</ele>
        <time>2021-07-11T06:36:29.000Z</time>
      </trkpt>
      <trkpt lat="47.89506" lon="7.21024">
        <ele>394.79998779297</ele>
        <time>2021-07-11T06:36:30.000Z</time>
      </trkpt>
      <trkpt lat="47.89505" lon="7.21022">
        <ele>395.39999389648</ele>
        <time>2021-07-11T06:36:31.000Z</time>
      </trkpt>
      <trkpt lat="47.89504" lon="7.21021">
        <ele>395.79998779297</ele>
        <time>2021-07-11T06:36:32.000Z</time>
      </trkpt>
      <trkpt lat="47.89503" lon="7.21019">
        <ele>396.20001220703</ele>
        <time>2021-07-11T06:36:33.000Z</time>
      </trkpt>
      <trkpt lat="47.89503" lon="7.21013">
        <ele>396.20001220703</ele>
        <time>2021-07-11T06:36:35.000Z</time>
      </trkpt>
      <trkpt lat="47.89503" lon="7.20999">
        <ele>397</ele>
        <time>2021-07-11T06:36:41.000Z</time>
      </trkpt>
      <trkpt lat="47.89503" lon="7.20997">
        <ele>397.39999389648</ele>
        <time>2021-07-11T06:36:42.000Z</time>
      </trkpt>
      <trkpt lat="47.89502" lon="7.20995">
        <ele>397.79998779297</ele>
        <time>2021-07-11T06:36:43.000Z</time>
      </trkpt>
      <trkpt lat="47.89501" lon="7.20992">
        <ele>398.39999389648</ele>
        <time>2021-07-11T06:36:44.000Z</time>
      </trkpt>
      <trkpt lat="47.895" lon="7.20984">
        <ele>398.39999389648</ele>
        <time>2021-07-11T06:36:47.000Z</time>
      </trkpt>
      <trkpt lat="47.895" lon="7.20974">
        <ele>398.79998779297</ele>
        <time>2021-07-11T06:36:51.000Z</time>
      </trkpt>
      <trkpt lat="47.895" lon="7.20971">
        <ele>399.20001220703</ele>
        <time>2021-07-11T06:36:52.000Z</time>
      </trkpt>
      <trkpt lat="47.895" lon="7.20968">
        <ele>399.60000610352</ele>
        <time>2021-07-11T06:36:53.000Z</time>
      </trkpt>
      <trkpt lat="47.895" lon="7.20964">
        <ele>400</ele>
        <time>2021-07-11T06:36:54.000Z</time>
      </trkpt>
      <trkpt lat="47.895" lon="7.20962">
        <ele>400.60000610352</ele>
        <time>2021-07-11T06:36:55.000Z</time>
      </trkpt>
      <trkpt lat="47.89498" lon="7.20952">
        <ele>400.60000610352</ele>
        <time>2021-07-11T06:37:00.000Z</time>
      </trkpt>
      <trkpt lat="47.89497" lon="7.20948">
        <ele>401</ele>
        <time>2021-07-11T06:37:02.000Z</time>
      </trkpt>
      <trkpt lat="47.89497" lon="7.20945">
        <ele>401.39999389648</ele>
        <time>2021-07-11T06:37:03.000Z</time>
      </trkpt>
      <trkpt lat="47.89496" lon="7.20943">
        <ele>401.79998779297</ele>
        <time>2021-07-11T06:37:04.000Z</time>
      </trkpt>
      <trkpt lat="47.89495" lon="7.2094">
        <ele>402.79998779297</ele>
        <time>2021-07-11T06:37:05.000Z</time>
      </trkpt>
      <trkpt lat="47.89494" lon="7.20936">
        <ele>402.79998779297</ele>
        <time>2021-07-11T06:37:07.000Z</time>
      </trkpt>
      <trkpt lat="47.8949" lon="7.20928">
        <ele>403.20001220703</ele>
        <time>2021-07-11T06:37:11.000Z</time>
      </trkpt>
      <trkpt lat="47.89489" lon="7.20926">
        <ele>403.60000610352</ele>
        <time>2021-07-11T06:37:12.000Z</time>
      </trkpt>
      <trkpt lat="47.89488" lon="7.20923">
        <ele>404</ele>
        <time>2021-07-11T06:37:13.000Z</time>
      </trkpt>
      <trkpt lat="47.89487" lon="7.20921">
        <ele>404.39999389648</ele>
        <time>2021-07-11T06:37:14.000Z</time>
      </trkpt>
      <trkpt lat="47.89487" lon="7.20918">
        <ele>404.79998779297</ele>
        <time>2021-07-11T06:37:15.000Z</time>
      </trkpt>
      <trkpt lat="47.89485" lon="7.20904">
        <ele>404.79998779297</ele>
        <time>2021-07-11T06:37:20.000Z</time>
      </trkpt>
      <trkpt lat="47.89485" lon="7.20901">
        <ele>405.20001220703</ele>
        <time>2021-07-11T06:37:21.000Z</time>
      </trkpt>
      <trkpt lat="47.89485" lon="7.20898">
        <ele>405.60000610352</ele>
        <time>2021-07-11T06:37:22.000Z</time>
      </trkpt>
      <trkpt lat="47.89486" lon="7.20895">
        <ele>406</ele>
        <time>2021-07-11T06:37:23.000Z</time>
      </trkpt>
      <trkpt lat="47.89486" lon="7.20895">
        <ele>406.60000610352</ele>
        <time>2021-07-11T06:37:24.000Z</time>
      </trkpt>
      <trkpt lat="47.89486" lon="7.20891">
        <ele>407</ele>
        <time>2021-07-11T06:37:25.000Z</time>
      </trkpt>
      <trkpt lat="47.89486" lon="7.20888">
        <ele>407</ele>
        <time>2021-07-11T06:37:26.000Z</time>
      </trkpt>
      <trkpt lat="47.89486" lon="7.20886">
        <ele>407</ele>
        <time>2021-07-11T06:37:27.000Z</time>
      </trkpt>
      <trkpt lat="47.89485" lon="7.20874">
        <ele>407.39999389648</ele>
        <time>2021-07-11T06:37:32.000Z</time>
      </trkpt>
      <trkpt lat="47.89484" lon="7.20873">
        <ele>407.79998779297</ele>
        <time>2021-07-11T06:37:33.000Z</time>
      </trkpt>
      <trkpt lat="47.89483" lon="7.20871">
        <ele>408.20001220703</ele>
        <time>2021-07-11T06:37:34.000Z</time>
      </trkpt>
      <trkpt lat="47.89483" lon="7.20868">
        <ele>408.79998779297</ele>
        <time>2021-07-11T06:37:35.000Z</time>
      </trkpt>
      <trkpt lat="47.89483" lon="7.20865">
        <ele>409.20001220703</ele>
        <time>2021-07-11T06:37:36.000Z</time>
      </trkpt>
      <trkpt lat="47.89483" lon="7.20856">
        <ele>409.20001220703</ele>
        <time>2021-07-11T06:37:39.000Z</time>
      </trkpt>
      <trkpt lat="47.89487" lon="7.20844">
        <ele>409.60000610352</ele>
        <time>2021-07-11T06:37:44.000Z</time>
      </trkpt>
      <trkpt lat="47.89487" lon="7.20842">
        <ele>410</ele>
        <time>2021-07-11T06:37:45.000Z</time>
      </trkpt>
      <trkpt lat="47.89488" lon="7.2084">
        <ele>410.39999389648</ele>
        <time>2021-07-11T06:37:46.000Z</time>
      </trkpt>
      <trkpt lat="47.89488" lon="7.20838">
        <ele>410.79998779297</ele>
        <time>2021-07-11T06:37:47.000Z</time>
      </trkpt>
      <trkpt lat="47.89488" lon="7.20836">
        <ele>411.39999389648</ele>
        <time>2021-07-11T06:37:48.000Z</time>
      </trkpt>
      <trkpt lat="47.89494" lon="7.2082">
        <ele>411.79998779297</ele>
        <time>2021-07-11T06:37:56.000Z</time>
      </trkpt>
      <trkpt lat="47.89494" lon="7.20819">
        <ele>412.20001220703</ele>
        <time>2021-07-11T06:37:57.000Z</time>
      </trkpt>
      <trkpt lat="47.89494" lon="7.20818">
        <ele>412.60000610352</ele>
        <time>2021-07-11T06:37:58.000Z</time>
      </trkpt>
      <trkpt lat="47.89495" lon="7.20817">
        <ele>413</ele>
        <time>2021-07-11T06:37:59.000Z</time>
      </trkpt>
      <trkpt lat="47.89496" lon="7.20816">
        <ele>413.39999389648</ele>
        <time>2021-07-11T06:38:00.000Z</time>
      </trkpt>
      <trkpt lat="47.89497" lon="7.20813">
        <ele>413.39999389648</ele>
        <time>2021-07-11T06:38:02.000Z</time>
      </trkpt>
      <trkpt lat="47.89513" lon="7.20787">
        <ele>413.39999389648</ele>
        <time>2021-07-11T06:38:18.000Z</time>
      </trkpt>
      <trkpt lat="47.89529" lon="7.20773">
        <ele>413.39999389648</ele>
        <time>2021-07-11T06:38:25.000Z</time>
      </trkpt>
      <trkpt lat="47.89537" lon="7.20765">
        <ele>413.79998779297</ele>
        <time>2021-07-11T06:38:29.000Z</time>
      </trkpt>
      <trkpt lat="47.8954" lon="7.2076">
        <ele>414.20001220703</ele>
        <time>2021-07-11T06:38:30.000Z</time>
      </trkpt>
      <trkpt lat="47.89542" lon="7.20757">
        <ele>414.60000610352</ele>
        <time>2021-07-11T06:38:31.000Z</time>
      </trkpt>
      <trkpt lat="47.89543" lon="7.20754">
        <ele>415.20001220703</ele>
        <time>2021-07-11T06:38:32.000Z</time>
      </trkpt>
      <trkpt lat="47.89545" lon="7.20751">
        <ele>415.60000610352</ele>
        <time>2021-07-11T06:38:33.000Z</time>
      </trkpt>
      <trkpt lat="47.89552" lon="7.2074">
        <ele>415.60000610352</ele>
        <time>2021-07-11T06:38:39.000Z</time>
      </trkpt>
      <trkpt lat="47.89555" lon="7.20737">
        <ele>416</ele>
        <time>2021-07-11T06:38:41.000Z</time>
      </trkpt>
      <trkpt lat="47.89557" lon="7.20736">
        <ele>416.39999389648</ele>
        <time>2021-07-11T06:38:42.000Z</time>
      </trkpt>
      <trkpt lat="47.89559" lon="7.20735">
        <ele>416.79998779297</ele>
        <time>2021-07-11T06:38:43.000Z</time>
      </trkpt>
      <trkpt lat="47.8956" lon="7.20735">
        <ele>417.60000610352</ele>
        <time>2021-07-11T06:38:44.000Z</time>
      </trkpt>
      <trkpt lat="47.89564" lon="7.20733">
        <ele>417.60000610352</ele>
        <time>2021-07-11T06:38:46.000Z</time>
      </trkpt>
      <trkpt lat="47.89567" lon="7.20732">
        <ele>418</ele>
        <time>2021-07-11T06:38:48.000Z</time>
      </trkpt>
      <trkpt lat="47.89568" lon="7.20731">
        <ele>418.39999389648</ele>
        <time>2021-07-11T06:38:49.000Z</time>
      </trkpt>
      <trkpt lat="47.89569" lon="7.2073">
        <ele>418.79998779297</ele>
        <time>2021-07-11T06:38:50.000Z</time>
      </trkpt>
      <trkpt lat="47.89571" lon="7.20728">
        <ele>419.39999389648</ele>
        <time>2021-07-11T06:38:51.000Z</time>
      </trkpt>
      <trkpt lat="47.89572" lon="7.20727">
        <ele>419.79998779297</ele>
        <time>2021-07-11T06:38:52.000Z</time>
      </trkpt>
      <trkpt lat="47.89573" lon="7.20727">
        <ele>419.79998779297</ele>
        <time>2021-07-11T06:38:53.000Z</time>
      </trkpt>
      <trkpt lat="47.89574" lon="7.20726">
        <ele>420.20001220703</ele>
        <time>2021-07-11T06:38:54.000Z</time>
      </trkpt>
      <trkpt lat="47.89577" lon="7.20725">
        <ele>420.60000610352</ele>
        <time>2021-07-11T06:38:55.000Z</time>
      </trkpt>
      <trkpt lat="47.8958" lon="7.20723">
        <ele>421</ele>
        <time>2021-07-11T06:38:56.000Z</time>
      </trkpt>
      <trkpt lat="47.89582" lon="7.20721">
        <ele>421.39999389648</ele>
        <time>2021-07-11T06:38:57.000Z</time>
      </trkpt>
      <trkpt lat="47.89584" lon="7.2072">
        <ele>421.79998779297</ele>
        <time>2021-07-11T06:38:58.000Z</time>
      </trkpt>
      <trkpt lat="47.89589" lon="7.20716">
        <ele>422.20001220703</ele>
        <time>2021-07-11T06:39:00.000Z</time>
      </trkpt>
      <trkpt lat="47.89592" lon="7.20715">
        <ele>422.60000610352</ele>
        <time>2021-07-11T06:39:01.000Z</time>
      </trkpt>
      <trkpt lat="47.89596" lon="7.20713">
        <ele>423</ele>
        <time>2021-07-11T06:39:02.000Z</time>
      </trkpt>
      <trkpt lat="47.896" lon="7.2071">
        <ele>423.39999389648</ele>
        <time>2021-07-11T06:39:03.000Z</time>
      </trkpt>
      <trkpt lat="47.89603" lon="7.20709">
        <ele>423.79998779297</ele>
        <time>2021-07-11T06:39:04.000Z</time>
      </trkpt>
      <trkpt lat="47.89612" lon="7.20704">
        <ele>424.20001220703</ele>
        <time>2021-07-11T06:39:06.000Z</time>
      </trkpt>
      <trkpt lat="47.89615" lon="7.20702">
        <ele>424.60000610352</ele>
        <time>2021-07-11T06:39:07.000Z</time>
      </trkpt>
      <trkpt lat="47.89616" lon="7.20701">
        <ele>425</ele>
        <time>2021-07-11T06:39:08.000Z</time>
      </trkpt>
      <trkpt lat="47.89618" lon="7.20701">
        <ele>426</ele>
        <time>2021-07-11T06:39:09.000Z</time>
      </trkpt>
      <trkpt lat="47.89619" lon="7.20699">
        <ele>426.39999389648</ele>
        <time>2021-07-11T06:39:10.000Z</time>
      </trkpt>
      <trkpt lat="47.89623" lon="7.20698">
        <ele>427</ele>
        <time>2021-07-11T06:39:11.000Z</time>
      </trkpt>
      <trkpt lat="47.89625" lon="7.20697">
        <ele>427.39999389648</ele>
        <time>2021-07-11T06:39:12.000Z</time>
      </trkpt>
      <trkpt lat="47.89627" lon="7.20696">
        <ele>427.79998779297</ele>
        <time>2021-07-11T06:39:13.000Z</time>
      </trkpt>
      <trkpt lat="47.8963" lon="7.20696">
        <ele>428.39999389648</ele>
        <time>2021-07-11T06:39:14.000Z</time>
      </trkpt>
      <trkpt lat="47.89632" lon="7.20696">
        <ele>428.39999389648</ele>
        <time>2021-07-11T06:39:15.000Z</time>
      </trkpt>
      <trkpt lat="47.89634" lon="7.20697">
        <ele>428.79998779297</ele>
        <time>2021-07-11T06:39:16.000Z</time>
      </trkpt>
      <trkpt lat="47.89636" lon="7.20696">
        <ele>429.20001220703</ele>
        <time>2021-07-11T06:39:17.000Z</time>
      </trkpt>
      <trkpt lat="47.89637" lon="7.20697">
        <ele>429.79998779297</ele>
        <time>2021-07-11T06:39:18.000Z</time>
      </trkpt>
      <trkpt lat="47.89638" lon="7.20697">
        <ele>430.20001220703</ele>
        <time>2021-07-11T06:39:19.000Z</time>
      </trkpt>
      <trkpt lat="47.8964" lon="7.20697">
        <ele>430.60000610352</ele>
        <time>2021-07-11T06:39:20.000Z</time>
      </trkpt>
      <trkpt lat="47.89642" lon="7.20697">
        <ele>431</ele>
        <time>2021-07-11T06:39:22.000Z</time>
      </trkpt>
      <trkpt lat="47.8966" lon="7.20702">
        <ele>435.20001220703</ele>
        <time>2021-07-11T06:39:32.000Z</time>
      </trkpt>
      <trkpt lat="47.89668" lon="7.20704">
        <ele>435.20001220703</ele>
        <time>2021-07-11T06:39:35.000Z</time>
      </trkpt>
      <trkpt lat="47.89671" lon="7.20705">
        <ele>435.20001220703</ele>
        <time>2021-07-11T06:39:37.000Z</time>
      </trkpt>
      <trkpt lat="47.89678" lon="7.20706">
        <ele>435.20001220703</ele>
        <time>2021-07-11T06:39:40.000Z</time>
      </trkpt>
      <trkpt lat="47.89681" lon="7.20707">
        <ele>435.20001220703</ele>
        <time>2021-07-11T06:39:42.000Z</time>
      </trkpt>
      <trkpt lat="47.89747" lon="7.20681">
        <ele>445.60000610352</ele>
        <time>2021-07-11T06:43:45.000Z</time>
      </trkpt>
      <trkpt lat="47.89753" lon="7.20684">
        <ele>445.60000610352</ele>
        <time>2021-07-11T06:43:47.000Z</time>
      </trkpt>
      <trkpt lat="47.8977" lon="7.20687">
        <ele>445.60000610352</ele>
        <time>2021-07-11T06:43:52.000Z</time>
      </trkpt>
      <trkpt lat="47.89781" lon="7.20686">
        <ele>445.60000610352</ele>
        <time>2021-07-11T06:43:54.000Z</time>
      </trkpt>
      <trkpt lat="47.89787" lon="7.20685">
        <ele>445</ele>
        <time>2021-07-11T06:43:55.000Z</time>
      </trkpt>
      <trkpt lat="47.89793" lon="7.20684">
        <ele>444.60000610352</ele>
        <time>2021-07-11T06:43:56.000Z</time>
      </trkpt>
      <trkpt lat="47.89799" lon="7.20684">
        <ele>444</ele>
        <time>2021-07-11T06:43:57.000Z</time>
      </trkpt>
      <trkpt lat="47.89808" lon="7.20682">
        <ele>443.20001220703</ele>
        <time>2021-07-11T06:43:58.000Z</time>
      </trkpt>
      <trkpt lat="47.89817" lon="7.2068">
        <ele>442.39999389648</ele>
        <time>2021-07-11T06:43:59.000Z</time>
      </trkpt>
      <trkpt lat="47.89826" lon="7.20678">
        <ele>441.39999389648</ele>
        <time>2021-07-11T06:44:00.000Z</time>
      </trkpt>
      <trkpt lat="47.89834" lon="7.20676">
        <ele>440.39999389648</ele>
        <time>2021-07-11T06:44:01.000Z</time>
      </trkpt>
      <trkpt lat="47.89842" lon="7.20673">
        <ele>439.39999389648</ele>
        <time>2021-07-11T06:44:02.000Z</time>
      </trkpt>
      <trkpt lat="47.8985" lon="7.20671">
        <ele>438.20001220703</ele>
        <time>2021-07-11T06:44:03.000Z</time>
      </trkpt>
      <trkpt lat="47.89857" lon="7.20669">
        <ele>437.20001220703</ele>
        <time>2021-07-11T06:44:04.000Z</time>
      </trkpt>
      <trkpt lat="47.89866" lon="7.20665">
        <ele>436</ele>
        <time>2021-07-11T06:44:05.000Z</time>
      </trkpt>
      <trkpt lat="47.89874" lon="7.20661">
        <ele>433.79998779297</ele>
        <time>2021-07-11T06:44:06.000Z</time>
      </trkpt>
      <trkpt lat="47.89881" lon="7.20656">
        <ele>432.60000610352</ele>
        <time>2021-07-11T06:44:07.000Z</time>
      </trkpt>
      <trkpt lat="47.89887" lon="7.20651">
        <ele>431.39999389648</ele>
        <time>2021-07-11T06:44:08.000Z</time>
      </trkpt>
      <trkpt lat="47.89892" lon="7.20647">
        <ele>430.20001220703</ele>
        <time>2021-07-11T06:44:09.000Z</time>
      </trkpt>
      <trkpt lat="47.89897" lon="7.20644">
        <ele>429.39999389648</ele>
        <time>2021-07-11T06:44:10.000Z</time>
      </trkpt>
      <trkpt lat="47.89899" lon="7.20642">
        <ele>428.39999389648</ele>
        <time>2021-07-11T06:44:11.000Z</time>
      </trkpt>
      <trkpt lat="47.899" lon="7.20641">
        <ele>427.60000610352</ele>
        <time>2021-07-11T06:44:12.000Z</time>
      </trkpt>
      <trkpt lat="47.899" lon="7.20641">
        <ele>426.60000610352</ele>
        <time>2021-07-11T06:44:13.000Z</time>
      </trkpt>
      <trkpt lat="47.89901" lon="7.2064">
        <ele>425.79998779297</ele>
        <time>2021-07-11T06:44:14.000Z</time>
      </trkpt>
      <trkpt lat="47.89901" lon="7.2064">
        <ele>425.79998779297</ele>
        <time>2021-07-11T06:44:15.000Z</time>
      </trkpt>
      <trkpt lat="47.89885" lon="7.20653">
        <ele>427.39999389648</ele>
        <time>2021-07-11T06:45:03.000Z</time>
      </trkpt>
      <trkpt lat="47.89884" lon="7.20654">
        <ele>427.79998779297</ele>
        <time>2021-07-11T06:45:04.000Z</time>
      </trkpt>
      <trkpt lat="47.89876" lon="7.20657">
        <ele>428.20001220703</ele>
        <time>2021-07-11T06:45:09.000Z</time>
      </trkpt>
      <trkpt lat="47.89875" lon="7.20657">
        <ele>428.60000610352</ele>
        <time>2021-07-11T06:45:10.000Z</time>
      </trkpt>
      <trkpt lat="47.89873" lon="7.20658">
        <ele>429</ele>
        <time>2021-07-11T06:45:11.000Z</time>
      </trkpt>
      <trkpt lat="47.89871" lon="7.20658">
        <ele>429.60000610352</ele>
        <time>2021-07-11T06:45:12.000Z</time>
      </trkpt>
      <trkpt lat="47.8987" lon="7.20659">
        <ele>430</ele>
        <time>2021-07-11T06:45:13.000Z</time>
      </trkpt>
      <trkpt lat="47.89866" lon="7.2066">
        <ele>430.39999389648</ele>
        <time>2021-07-11T06:45:16.000Z</time>
      </trkpt>
      <trkpt lat="47.89865" lon="7.2066">
        <ele>430.79998779297</ele>
        <time>2021-07-11T06:45:17.000Z</time>
      </trkpt>
      <trkpt lat="47.89864" lon="7.2066">
        <ele>431.20001220703</ele>
        <time>2021-07-11T06:45:18.000Z</time>
      </trkpt>
      <trkpt lat="47.89862" lon="7.20661">
        <ele>431.60000610352</ele>
        <time>2021-07-11T06:45:19.000Z</time>
      </trkpt>
      <trkpt lat="47.89861" lon="7.20662">
        <ele>432</ele>
        <time>2021-07-11T06:45:20.000Z</time>
      </trkpt>
      <trkpt lat="47.89853" lon="7.20664">
        <ele>432.39999389648</ele>
        <time>2021-07-11T06:45:25.000Z</time>
      </trkpt>
      <trkpt lat="47.89852" lon="7.20664">
        <ele>433</ele>
        <time>2021-07-11T06:45:26.000Z</time>
      </trkpt>
      <trkpt lat="47.89851" lon="7.20665">
        <ele>433.39999389648</ele>
        <time>2021-07-11T06:45:27.000Z</time>
      </trkpt>
      <trkpt lat="47.89849" lon="7.20665">
        <ele>433.79998779297</ele>
        <time>2021-07-11T06:45:28.000Z</time>
      </trkpt>
      <trkpt lat="47.89848" lon="7.20665">
        <ele>434.20001220703</ele>
        <time>2021-07-11T06:45:29.000Z</time>
      </trkpt>
      <trkpt lat="47.8984" lon="7.20669">
        <ele>434.79998779297</ele>
        <time>2021-07-11T06:45:35.000Z</time>
      </trkpt>
      <trkpt lat="47.89838" lon="7.20669">
        <ele>435.20001220703</ele>
        <time>2021-07-11T06:45:36.000Z</time>
      </trkpt>
      <trkpt lat="47.89837" lon="7.2067">
        <ele>435.60000610352</ele>
        <time>2021-07-11T06:45:37.000Z</time>
      </trkpt>
      <trkpt lat="47.89835" lon="7.20671">
        <ele>436</ele>
        <time>2021-07-11T06:45:38.000Z</time>
      </trkpt>
      <trkpt lat="47.89833" lon="7.20671">
        <ele>436.39999389648</ele>
        <time>2021-07-11T06:45:39.000Z</time>
      </trkpt>
      <trkpt lat="47.89827" lon="7.20672">
        <ele>436.39999389648</ele>
        <time>2021-07-11T06:45:42.000Z</time>
      </trkpt>
      <trkpt lat="47.89824" lon="7.20674">
        <ele>436.79998779297</ele>
        <time>2021-07-11T06:45:43.000Z</time>
      </trkpt>
      <trkpt lat="47.89822" lon="7.20675">
        <ele>437.20001220703</ele>
        <time>2021-07-11T06:45:44.000Z</time>
      </trkpt>
      <trkpt lat="47.8982" lon="7.20675">
        <ele>437.60000610352</ele>
        <time>2021-07-11T06:45:45.000Z</time>
      </trkpt>
      <trkpt lat="47.89819" lon="7.20675">
        <ele>438.60000610352</ele>
        <time>2021-07-11T06:45:46.000Z</time>
      </trkpt>
      <trkpt lat="47.89813" lon="7.20676">
        <ele>438.60000610352</ele>
        <time>2021-07-11T06:45:49.000Z</time>
      </trkpt>
      <trkpt lat="47.89813" lon="7.20676">
        <ele>439</ele>
        <time>2021-07-11T06:45:51.000Z</time>
      </trkpt>
      <trkpt lat="47.89818" lon="7.20675">
        <ele>440.60000610352</ele>
        <time>2021-07-11T06:45:55.000Z</time>
      </trkpt>
      <trkpt lat="47.89822" lon="7.20674">
        <ele>440.60000610352</ele>
        <time>2021-07-11T06:45:57.000Z</time>
      </trkpt>
      <trkpt lat="47.89832" lon="7.20663">
        <ele>440.60000610352</ele>
        <time>2021-07-11T06:46:04.000Z</time>
      </trkpt>
      <trkpt lat="47.89839" lon="7.2065">
        <ele>440.60000610352</ele>
        <time>2021-07-11T06:46:10.000Z</time>
      </trkpt>
      <trkpt lat="47.89843" lon="7.20644">
        <ele>441</ele>
        <time>2021-07-11T06:46:13.000Z</time>
      </trkpt>
      <trkpt lat="47.89844" lon="7.20641">
        <ele>441.39999389648</ele>
        <time>2021-07-11T06:46:14.000Z</time>
      </trkpt>
      <trkpt lat="47.89845" lon="7.2064">
        <ele>442</ele>
        <time>2021-07-11T06:46:15.000Z</time>
      </trkpt>
      <trkpt lat="47.89845" lon="7.20637">
        <ele>442.39999389648</ele>
        <time>2021-07-11T06:46:16.000Z</time>
      </trkpt>
      <trkpt lat="47.89846" lon="7.20635">
        <ele>442.79998779297</ele>
        <time>2021-07-11T06:46:17.000Z</time>
      </trkpt>
      <trkpt lat="47.89852" lon="7.20623">
        <ele>443.20001220703</ele>
        <time>2021-07-11T06:46:23.000Z</time>
      </trkpt>
      <trkpt lat="47.89853" lon="7.20621">
        <ele>443.60000610352</ele>
        <time>2021-07-11T06:46:24.000Z</time>
      </trkpt>
      <trkpt lat="47.89854" lon="7.20618">
        <ele>444</ele>
        <time>2021-07-11T06:46:25.000Z</time>
      </trkpt>
      <trkpt lat="47.89855" lon="7.20615">
        <ele>444.60000610352</ele>
        <time>2021-07-11T06:46:26.000Z</time>
      </trkpt>
      <trkpt lat="47.89856" lon="7.20613">
        <ele>445</ele>
        <time>2021-07-11T06:46:27.000Z</time>
      </trkpt>
      <trkpt lat="47.89862" lon="7.20603">
        <ele>445</ele>
        <time>2021-07-11T06:46:32.000Z</time>
      </trkpt>
      <trkpt lat="47.89873" lon="7.20575">
        <ele>445</ele>
        <time>2021-07-11T06:46:40.000Z</time>
      </trkpt>
      <trkpt lat="47.89882" lon="7.20558">
        <ele>445.39999389648</ele>
        <time>2021-07-11T06:46:45.000Z</time>
      </trkpt>
      <trkpt lat="47.89884" lon="7.20554">
        <ele>445.79998779297</ele>
        <time>2021-07-11T06:46:46.000Z</time>
      </trkpt>
      <trkpt lat="47.89884" lon="7.20551">
        <ele>446.20001220703</ele>
        <time>2021-07-11T06:46:47.000Z</time>
      </trkpt>
      <trkpt lat="47.89885" lon="7.20549">
        <ele>446.60000610352</ele>
        <time>2021-07-11T06:46:48.000Z</time>
      </trkpt>
      <trkpt lat="47.89887" lon="7.20545">
        <ele>447</ele>
        <time>2021-07-11T06:46:49.000Z</time>
      </trkpt>
      <trkpt lat="47.89891" lon="7.2053">
        <ele>447</ele>
        <time>2021-07-11T06:46:54.000Z</time>
      </trkpt>
      <trkpt lat="47.89896" lon="7.20513">
        <ele>447.39999389648</ele>
        <time>2021-07-11T06:46:59.000Z</time>
      </trkpt>
      <trkpt lat="47.89897" lon="7.2051">
        <ele>447.79998779297</ele>
        <time>2021-07-11T06:47:00.000Z</time>
      </trkpt>
      <trkpt lat="47.89898" lon="7.20508">
        <ele>448.20001220703</ele>
        <time>2021-07-11T06:47:01.000Z</time>
      </trkpt>
      <trkpt lat="47.899" lon="7.20505">
        <ele>448.60000610352</ele>
        <time>2021-07-11T06:47:02.000Z</time>
      </trkpt>
      <trkpt lat="47.89901" lon="7.20503">
        <ele>449</ele>
        <time>2021-07-11T06:47:03.000Z</time>
      </trkpt>
      <trkpt lat="47.89907" lon="7.20486">
        <ele>449</ele>
        <time>2021-07-11T06:47:08.000Z</time>
      </trkpt>
      <trkpt lat="47.89909" lon="7.20478">
        <ele>449.39999389648</ele>
        <time>2021-07-11T06:47:11.000Z</time>
      </trkpt>
      <trkpt lat="47.89911" lon="7.20472">
        <ele>449.79998779297</ele>
        <time>2021-07-11T06:47:12.000Z</time>
      </trkpt>
      <trkpt lat="47.89912" lon="7.20468">
        <ele>450.20001220703</ele>
        <time>2021-07-11T06:47:13.000Z</time>
      </trkpt>
      <trkpt lat="47.89913" lon="7.20465">
        <ele>450.79998779297</ele>
        <time>2021-07-11T06:47:14.000Z</time>
      </trkpt>
      <trkpt lat="47.89913" lon="7.20461">
        <ele>451.20001220703</ele>
        <time>2021-07-11T06:47:15.000Z</time>
      </trkpt>
      <trkpt lat="47.89915" lon="7.20452">
        <ele>451.60000610352</ele>
        <time>2021-07-11T06:47:18.000Z</time>
      </trkpt>
      <trkpt lat="47.89915" lon="7.20449">
        <ele>452</ele>
        <time>2021-07-11T06:47:19.000Z</time>
      </trkpt>
      <trkpt lat="47.89917" lon="7.20445">
        <ele>452.60000610352</ele>
        <time>2021-07-11T06:47:20.000Z</time>
      </trkpt>
      <trkpt lat="47.89916" lon="7.20442">
        <ele>453</ele>
        <time>2021-07-11T06:47:21.000Z</time>
      </trkpt>
      <trkpt lat="47.89917" lon="7.20439">
        <ele>453.60000610352</ele>
        <time>2021-07-11T06:47:22.000Z</time>
      </trkpt>
      <trkpt lat="47.89917" lon="7.20435">
        <ele>454</ele>
        <time>2021-07-11T06:47:23.000Z</time>
      </trkpt>
      <trkpt lat="47.89918" lon="7.20432">
        <ele>454.79998779297</ele>
        <time>2021-07-11T06:47:24.000Z</time>
      </trkpt>
      <trkpt lat="47.89917" lon="7.20429">
        <ele>455.20001220703</ele>
        <time>2021-07-11T06:47:25.000Z</time>
      </trkpt>
      <trkpt lat="47.89918" lon="7.20424">
        <ele>455.60000610352</ele>
        <time>2021-07-11T06:47:26.000Z</time>
      </trkpt>
      <trkpt lat="47.89918" lon="7.20421">
        <ele>455.60000610352</ele>
        <time>2021-07-11T06:47:27.000Z</time>
      </trkpt>
      <trkpt lat="47.89919" lon="7.20414">
        <ele>456</ele>
        <time>2021-07-11T06:47:29.000Z</time>
      </trkpt>
      <trkpt lat="47.89919" lon="7.2041">
        <ele>456.39999389648</ele>
        <time>2021-07-11T06:47:30.000Z</time>
      </trkpt>
      <trkpt lat="47.8992" lon="7.20407">
        <ele>456.79998779297</ele>
        <time>2021-07-11T06:47:31.000Z</time>
      </trkpt>
      <trkpt lat="47.8992" lon="7.20403">
        <ele>457.20001220703</ele>
        <time>2021-07-11T06:47:32.000Z</time>
      </trkpt>
      <trkpt lat="47.89921" lon="7.204">
        <ele>457.79998779297</ele>
        <time>2021-07-11T06:47:33.000Z</time>
      </trkpt>
      <trkpt lat="47.89922" lon="7.20393">
        <ele>457.79998779297</ele>
        <time>2021-07-11T06:47:35.000Z</time>
      </trkpt>
      <trkpt lat="47.89922" lon="7.2038">
        <ele>458.20001220703</ele>
        <time>2021-07-11T06:47:39.000Z</time>
      </trkpt>
      <trkpt lat="47.89923" lon="7.20377">
        <ele>458.60000610352</ele>
        <time>2021-07-11T06:47:40.000Z</time>
      </trkpt>
      <trkpt lat="47.89923" lon="7.20376">
        <ele>459</ele>
        <time>2021-07-11T06:47:41.000Z</time>
      </trkpt>
      <trkpt lat="47.89923" lon="7.20373">
        <ele>459.39999389648</ele>
        <time>2021-07-11T06:47:42.000Z</time>
      </trkpt>
      <trkpt lat="47.89924" lon="7.20369">
        <ele>459.79998779297</ele>
        <time>2021-07-11T06:47:43.000Z</time>
      </trkpt>
      <trkpt lat="47.89924" lon="7.20362">
        <ele>460.20001220703</ele>
        <time>2021-07-11T06:47:45.000Z</time>
      </trkpt>
      <trkpt lat="47.89924" lon="7.20359">
        <ele>460.60000610352</ele>
        <time>2021-07-11T06:47:46.000Z</time>
      </trkpt>
      <trkpt lat="47.89924" lon="7.20355">
        <ele>461</ele>
        <time>2021-07-11T06:47:47.000Z</time>
      </trkpt>
      <trkpt lat="47.89924" lon="7.20352">
        <ele>461.79998779297</ele>
        <time>2021-07-11T06:47:48.000Z</time>
      </trkpt>
      <trkpt lat="47.89925" lon="7.20344">
        <ele>462.20001220703</ele>
        <time>2021-07-11T06:47:51.000Z</time>
      </trkpt>
      <trkpt lat="47.89926" lon="7.20342">
        <ele>462.79998779297</ele>
        <time>2021-07-11T06:47:52.000Z</time>
      </trkpt>
      <trkpt lat="47.89926" lon="7.2034">
        <ele>463.20001220703</ele>
        <time>2021-07-11T06:47:53.000Z</time>
      </trkpt>
      <trkpt lat="47.89927" lon="7.20338">
        <ele>463.60000610352</ele>
        <time>2021-07-11T06:47:54.000Z</time>
      </trkpt>
      <trkpt lat="47.89928" lon="7.20336">
        <ele>464</ele>
        <time>2021-07-11T06:47:55.000Z</time>
      </trkpt>
      <trkpt lat="47.89927" lon="7.20335">
        <ele>464</ele>
        <time>2021-07-11T06:47:56.000Z</time>
      </trkpt>
      <trkpt lat="47.89928" lon="7.20333">
        <ele>464</ele>
        <time>2021-07-11T06:49:43.000Z</time>
      </trkpt>
      <trkpt lat="47.89929" lon="7.20331">
        <ele>464</ele>
        <time>2021-07-11T06:49:44.000Z</time>
      </trkpt>
      <trkpt lat="47.89931" lon="7.20317">
        <ele>464</ele>
        <time>2021-07-11T06:49:47.000Z</time>
      </trkpt>
      <trkpt lat="47.89932" lon="7.2031">
        <ele>464</ele>
        <time>2021-07-11T06:49:48.000Z</time>
      </trkpt>
      <trkpt lat="47.89938" lon="7.20288">
        <ele>463.60000610352</ele>
        <time>2021-07-11T06:49:51.000Z</time>
      </trkpt>
      <trkpt lat="47.89941" lon="7.20279">
        <ele>463.20001220703</ele>
        <time>2021-07-11T06:49:52.000Z</time>
      </trkpt>
      <trkpt lat="47.89943" lon="7.20271">
        <ele>462.39999389648</ele>
        <time>2021-07-11T06:49:53.000Z</time>
      </trkpt>
      <trkpt lat="47.89944" lon="7.20262">
        <ele>461.79998779297</ele>
        <time>2021-07-11T06:49:54.000Z</time>
      </trkpt>
      <trkpt lat="47.89946" lon="7.20252">
        <ele>461.39999389648</ele>
        <time>2021-07-11T06:49:55.000Z</time>
      </trkpt>
      <trkpt lat="47.89947" lon="7.20242">
        <ele>460.79998779297</ele>
        <time>2021-07-11T06:49:56.000Z</time>
      </trkpt>
      <trkpt lat="47.89949" lon="7.20231">
        <ele>460.20001220703</ele>
        <time>2021-07-11T06:49:57.000Z</time>
      </trkpt>
      <trkpt lat="47.89951" lon="7.20219">
        <ele>459.60000610352</ele>
        <time>2021-07-11T06:49:58.000Z</time>
      </trkpt>
      <trkpt lat="47.89953" lon="7.20207">
        <ele>459</ele>
        <time>2021-07-11T06:49:59.000Z</time>
      </trkpt>
      <trkpt lat="47.89956" lon="7.20194">
        <ele>458.20001220703</ele>
        <time>2021-07-11T06:50:00.000Z</time>
      </trkpt>
      <trkpt lat="47.89958" lon="7.20183">
        <ele>457.20001220703</ele>
        <time>2021-07-11T06:50:01.000Z</time>
      </trkpt>
      <trkpt lat="47.89961" lon="7.20171">
        <ele>456.39999389648</ele>
        <time>2021-07-11T06:50:02.000Z</time>
      </trkpt>
      <trkpt lat="47.89962" lon="7.20159">
        <ele>455.79998779297</ele>
        <time>2021-07-11T06:50:03.000Z</time>
      </trkpt>
      <trkpt lat="47.89963" lon="7.20147">
        <ele>455</ele>
        <time>2021-07-11T06:50:04.000Z</time>
      </trkpt>
      <trkpt lat="47.89963" lon="7.20135">
        <ele>454.20001220703</ele>
        <time>2021-07-11T06:50:05.000Z</time>
      </trkpt>
      <trkpt lat="47.89963" lon="7.20123">
        <ele>453.60000610352</ele>
        <time>2021-07-11T06:50:06.000Z</time>
      </trkpt>
      <trkpt lat="47.89963" lon="7.20112">
        <ele>453</ele>
        <time>2021-07-11T06:50:07.000Z</time>
      </trkpt>
      <trkpt lat="47.89963" lon="7.201">
        <ele>452.39999389648</ele>
        <time>2021-07-11T06:50:08.000Z</time>
      </trkpt>
      <trkpt lat="47.89963" lon="7.20089">
        <ele>451.79998779297</ele>
        <time>2021-07-11T06:50:09.000Z</time>
      </trkpt>
      <trkpt lat="47.89962" lon="7.20078">
        <ele>451.20001220703</ele>
        <time>2021-07-11T06:50:10.000Z</time>
      </trkpt>
      <trkpt lat="47.89962" lon="7.20068">
        <ele>450.60000610352</ele>
        <time>2021-07-11T06:50:11.000Z</time>
      </trkpt>
      <trkpt lat="47.89961" lon="7.20058">
        <ele>450.20001220703</ele>
        <time>2021-07-11T06:50:12.000Z</time>
      </trkpt>
      <trkpt lat="47.89961" lon="7.20049">
        <ele>449.39999389648</ele>
        <time>2021-07-11T06:50:13.000Z</time>
      </trkpt>
      <trkpt lat="47.89961" lon="7.20041">
        <ele>448.60000610352</ele>
        <time>2021-07-11T06:50:14.000Z</time>
      </trkpt>
      <trkpt lat="47.89963" lon="7.20034">
        <ele>447.79998779297</ele>
        <time>2021-07-11T06:50:15.000Z</time>
      </trkpt>
      <trkpt lat="47.89965" lon="7.20028">
        <ele>447</ele>
        <time>2021-07-11T06:50:16.000Z</time>
      </trkpt>
      <trkpt lat="47.89968" lon="7.20022">
        <ele>446.39999389648</ele>
        <time>2021-07-11T06:50:17.000Z</time>
      </trkpt>
      <trkpt lat="47.8997" lon="7.20016">
        <ele>445</ele>
        <time>2021-07-11T06:50:18.000Z</time>
      </trkpt>
      <trkpt lat="47.89974" lon="7.2001">
        <ele>444.39999389648</ele>
        <time>2021-07-11T06:50:19.000Z</time>
      </trkpt>
      <trkpt lat="47.89977" lon="7.20005">
        <ele>443.79998779297</ele>
        <time>2021-07-11T06:50:20.000Z</time>
      </trkpt>
      <trkpt lat="47.89981" lon="7.2">
        <ele>443.20001220703</ele>
        <time>2021-07-11T06:50:21.000Z</time>
      </trkpt>
      <trkpt lat="47.89984" lon="7.19996">
        <ele>442.39999389648</ele>
        <time>2021-07-11T06:50:22.000Z</time>
      </trkpt>
      <trkpt lat="47.89987" lon="7.19992">
        <ele>441.79998779297</ele>
        <time>2021-07-11T06:50:23.000Z</time>
      </trkpt>
      <trkpt lat="47.89988" lon="7.19991">
        <ele>441.20001220703</ele>
        <time>2021-07-11T06:50:24.000Z</time>
      </trkpt>
      <trkpt lat="47.89989" lon="7.1999">
        <ele>440.39999389648</ele>
        <time>2021-07-11T06:50:25.000Z</time>
      </trkpt>
      <trkpt lat="47.89991" lon="7.19985">
        <ele>438.20001220703</ele>
        <time>2021-07-11T06:51:31.000Z</time>
      </trkpt>
      <trkpt lat="47.89994" lon="7.19981">
        <ele>437.60000610352</ele>
        <time>2021-07-11T06:51:32.000Z</time>
      </trkpt>
      <trkpt lat="47.89997" lon="7.19976">
        <ele>437.20001220703</ele>
        <time>2021-07-11T06:51:33.000Z</time>
      </trkpt>
      <trkpt lat="47.90001" lon="7.1997">
        <ele>436.79998779297</ele>
        <time>2021-07-11T06:51:34.000Z</time>
      </trkpt>
      <trkpt lat="47.90004" lon="7.19963">
        <ele>436.20001220703</ele>
        <time>2021-07-11T06:51:35.000Z</time>
      </trkpt>
      <trkpt lat="47.90008" lon="7.19955">
        <ele>435.79998779297</ele>
        <time>2021-07-11T06:51:36.000Z</time>
      </trkpt>
      <trkpt lat="47.90015" lon="7.19939">
        <ele>434.60000610352</ele>
        <time>2021-07-11T06:51:38.000Z</time>
      </trkpt>
      <trkpt lat="47.90019" lon="7.1993">
        <ele>434.20001220703</ele>
        <time>2021-07-11T06:51:39.000Z</time>
      </trkpt>
      <trkpt lat="47.90022" lon="7.19921">
        <ele>433.39999389648</ele>
        <time>2021-07-11T06:51:40.000Z</time>
      </trkpt>
      <trkpt lat="47.90027" lon="7.19912">
        <ele>432.79998779297</ele>
        <time>2021-07-11T06:51:41.000Z</time>
      </trkpt>
      <trkpt lat="47.90031" lon="7.19904">
        <ele>432</ele>
        <time>2021-07-11T06:51:42.000Z</time>
      </trkpt>
      <trkpt lat="47.90035" lon="7.19896">
        <ele>431.20001220703</ele>
        <time>2021-07-11T06:51:43.000Z</time>
      </trkpt>
      <trkpt lat="47.90039" lon="7.19887">
        <ele>430.60000610352</ele>
        <time>2021-07-11T06:51:44.000Z</time>
      </trkpt>
      <trkpt lat="47.90043" lon="7.19878">
        <ele>429.79998779297</ele>
        <time>2021-07-11T06:51:45.000Z</time>
      </trkpt>
      <trkpt lat="47.90047" lon="7.19869">
        <ele>429</ele>
        <time>2021-07-11T06:51:46.000Z</time>
      </trkpt>
      <trkpt lat="47.90051" lon="7.19861">
        <ele>428.20001220703</ele>
        <time>2021-07-11T06:51:47.000Z</time>
      </trkpt>
      <trkpt lat="47.90054" lon="7.19855">
        <ele>427.39999389648</ele>
        <time>2021-07-11T06:51:48.000Z</time>
      </trkpt>
      <trkpt lat="47.90058" lon="7.19851">
        <ele>426.39999389648</ele>
        <time>2021-07-11T06:51:49.000Z</time>
      </trkpt>
      <trkpt lat="47.90062" lon="7.19848">
        <ele>425.79998779297</ele>
        <time>2021-07-11T06:51:50.000Z</time>
      </trkpt>
      <trkpt lat="47.90063" lon="7.19847">
        <ele>425.20001220703</ele>
        <time>2021-07-11T06:51:51.000Z</time>
      </trkpt>
      <trkpt lat="47.90064" lon="7.19847">
        <ele>424.60000610352</ele>
        <time>2021-07-11T06:51:52.000Z</time>
      </trkpt>
      <trkpt lat="47.90065" lon="7.19847">
        <ele>424</ele>
        <time>2021-07-11T06:51:53.000Z</time>
      </trkpt>
      <trkpt lat="47.90072" lon="7.19854">
        <ele>423.39999389648</ele>
        <time>2021-07-11T06:52:25.000Z</time>
      </trkpt>
      <trkpt lat="47.90069" lon="7.1986">
        <ele>423.39999389648</ele>
        <time>2021-07-11T06:52:28.000Z</time>
      </trkpt>
      <trkpt lat="47.90067" lon="7.19865">
        <ele>423.79998779297</ele>
        <time>2021-07-11T06:52:30.000Z</time>
      </trkpt>
      <trkpt lat="47.90065" lon="7.19866">
        <ele>424.20001220703</ele>
        <time>2021-07-11T06:52:31.000Z</time>
      </trkpt>
      <trkpt lat="47.90064" lon="7.19868">
        <ele>424.60000610352</ele>
        <time>2021-07-11T06:52:32.000Z</time>
      </trkpt>
      <trkpt lat="47.90062" lon="7.1987">
        <ele>425</ele>
        <time>2021-07-11T06:52:33.000Z</time>
      </trkpt>
      <trkpt lat="47.90061" lon="7.19872">
        <ele>425.39999389648</ele>
        <time>2021-07-11T06:52:34.000Z</time>
      </trkpt>
      <trkpt lat="47.90058" lon="7.19876">
        <ele>425.39999389648</ele>
        <time>2021-07-11T06:52:36.000Z</time>
      </trkpt>
      <trkpt lat="47.90054" lon="7.19883">
        <ele>425.79998779297</ele>
        <time>2021-07-11T06:52:41.000Z</time>
      </trkpt>
      <trkpt lat="47.90053" lon="7.19885">
        <ele>426.39999389648</ele>
        <time>2021-07-11T06:52:42.000Z</time>
      </trkpt>
      <trkpt lat="47.90052" lon="7.19886">
        <ele>426.79998779297</ele>
        <time>2021-07-11T06:52:43.000Z</time>
      </trkpt>
      <trkpt lat="47.90052" lon="7.19888">
        <ele>427.20001220703</ele>
        <time>2021-07-11T06:52:44.000Z</time>
      </trkpt>
      <trkpt lat="47.90051" lon="7.1989">
        <ele>427.60000610352</ele>
        <time>2021-07-11T06:52:45.000Z</time>
      </trkpt>
      <trkpt lat="47.90046" lon="7.199">
        <ele>428</ele>
        <time>2021-07-11T06:52:50.000Z</time>
      </trkpt>
      <trkpt lat="47.90045" lon="7.19902">
        <ele>428.39999389648</ele>
        <time>2021-07-11T06:52:51.000Z</time>
      </trkpt>
      <trkpt lat="47.90044" lon="7.19904">
        <ele>429.20001220703</ele>
        <time>2021-07-11T06:52:52.000Z</time>
      </trkpt>
      <trkpt lat="47.90044" lon="7.19905">
        <ele>429.60000610352</ele>
        <time>2021-07-11T06:52:53.000Z</time>
      </trkpt>
      <trkpt lat="47.9004" lon="7.19915">
        <ele>430</ele>
        <time>2021-07-11T06:52:58.000Z</time>
      </trkpt>
      <trkpt lat="47.90039" lon="7.19917">
        <ele>430.39999389648</ele>
        <time>2021-07-11T06:52:59.000Z</time>
      </trkpt>
      <trkpt lat="47.90039" lon="7.19919">
        <ele>430.79998779297</ele>
        <time>2021-07-11T06:53:00.000Z</time>
      </trkpt>
      <trkpt lat="47.90038" lon="7.1992">
        <ele>431.20001220703</ele>
        <time>2021-07-11T06:53:01.000Z</time>
      </trkpt>
      <trkpt lat="47.90037" lon="7.19922">
        <ele>431.60000610352</ele>
        <time>2021-07-11T06:53:02.000Z</time>
      </trkpt>
      <trkpt lat="47.90034" lon="7.19926">
        <ele>431.60000610352</ele>
        <time>2021-07-11T06:53:06.000Z</time>
      </trkpt>
      <trkpt lat="47.90032" lon="7.19934">
        <ele>432.20001220703</ele>
        <time>2021-07-11T06:53:10.000Z</time>
      </trkpt>
      <trkpt lat="47.9003" lon="7.19937">
        <ele>432.60000610352</ele>
        <time>2021-07-11T06:53:11.000Z</time>
      </trkpt>
      <trkpt lat="47.9003" lon="7.19939">
        <ele>433</ele>
        <time>2021-07-11T06:53:12.000Z</time>
      </trkpt>
      <trkpt lat="47.90025" lon="7.19946">
        <ele>433.39999389648</ele>
        <time>2021-07-11T06:53:13.000Z</time>
      </trkpt>
      <trkpt lat="47.90023" lon="7.19949">
        <ele>433.79998779297</ele>
        <time>2021-07-11T06:53:14.000Z</time>
      </trkpt>
      <trkpt lat="47.90015" lon="7.1996">
        <ele>434.20001220703</ele>
        <time>2021-07-11T06:53:19.000Z</time>
      </trkpt>
      <trkpt lat="47.90014" lon="7.19962">
        <ele>434.60000610352</ele>
        <time>2021-07-11T06:53:20.000Z</time>
      </trkpt>
      <trkpt lat="47.90012" lon="7.19964">
        <ele>435</ele>
        <time>2021-07-11T06:53:21.000Z</time>
      </trkpt>
      <trkpt lat="47.90011" lon="7.19965">
        <ele>435.39999389648</ele>
        <time>2021-07-11T06:53:22.000Z</time>
      </trkpt>
      <trkpt lat="47.90009" lon="7.19967">
        <ele>435.79998779297</ele>
        <time>2021-07-11T06:53:23.000Z</time>
      </trkpt>
      <trkpt lat="47.90006" lon="7.19971">
        <ele>435.79998779297</ele>
        <time>2021-07-11T06:53:25.000Z</time>
      </trkpt>
      <trkpt lat="47.9" lon="7.19979">
        <ele>435.79998779297</ele>
        <time>2021-07-11T06:53:30.000Z</time>
      </trkpt>
      <trkpt lat="47.89998" lon="7.19981">
        <ele>436.20001220703</ele>
        <time>2021-07-11T06:53:31.000Z</time>
      </trkpt>
      <trkpt lat="47.89997" lon="7.19983">
        <ele>436.60000610352</ele>
        <time>2021-07-11T06:53:32.000Z</time>
      </trkpt>
      <trkpt lat="47.89996" lon="7.19985">
        <ele>437</ele>
        <time>2021-07-11T06:53:33.000Z</time>
      </trkpt>
      <trkpt lat="47.89994" lon="7.19987">
        <ele>437.39999389648</ele>
        <time>2021-07-11T06:53:34.000Z</time>
      </trkpt>
      <trkpt lat="47.89993" lon="7.19988">
        <ele>437.79998779297</ele>
        <time>2021-07-11T06:53:35.000Z</time>
      </trkpt>
      <trkpt lat="47.89989" lon="7.19992">
        <ele>437.79998779297</ele>
        <time>2021-07-11T06:53:38.000Z</time>
      </trkpt>
      <trkpt lat="47.89984" lon="7.19997">
        <ele>438.39999389648</ele>
        <time>2021-07-11T06:53:41.000Z</time>
      </trkpt>
      <trkpt lat="47.89982" lon="7.19999">
        <ele>439.20001220703</ele>
        <time>2021-07-11T06:53:42.000Z</time>
      </trkpt>
      <trkpt lat="47.8998" lon="7.20001">
        <ele>439.60000610352</ele>
        <time>2021-07-11T06:53:43.000Z</time>
      </trkpt>
      <trkpt lat="47.89979" lon="7.20003">
        <ele>440</ele>
        <time>2021-07-11T06:53:44.000Z</time>
      </trkpt>
      <trkpt lat="47.89977" lon="7.20006">
        <ele>440</ele>
        <time>2021-07-11T06:53:46.000Z</time>
      </trkpt>
      <trkpt lat="47.89974" lon="7.20011">
        <ele>440</ele>
        <time>2021-07-11T06:53:49.000Z</time>
      </trkpt>
      <trkpt lat="47.89971" lon="7.20015">
        <ele>440</ele>
        <time>2021-07-11T06:53:51.000Z</time>
      </trkpt>
      <trkpt lat="47.89969" lon="7.20017">
        <ele>440.39999389648</ele>
        <time>2021-07-11T06:53:52.000Z</time>
      </trkpt>
      <trkpt lat="47.89967" lon="7.20019">
        <ele>440.79998779297</ele>
        <time>2021-07-11T06:53:53.000Z</time>
      </trkpt>
      <trkpt lat="47.89965" lon="7.20021">
        <ele>441.20001220703</ele>
        <time>2021-07-11T06:53:54.000Z</time>
      </trkpt>
      <trkpt lat="47.89963" lon="7.20023">
        <ele>441.79998779297</ele>
        <time>2021-07-11T06:53:55.000Z</time>
      </trkpt>
      <trkpt lat="47.89962" lon="7.20025">
        <ele>442.20001220703</ele>
        <time>2021-07-11T06:53:56.000Z</time>
      </trkpt>
      <trkpt lat="47.89959" lon="7.20028">
        <ele>442.20001220703</ele>
        <time>2021-07-11T06:53:58.000Z</time>
      </trkpt>
      <trkpt lat="47.89958" lon="7.20041">
        <ele>442.60000610352</ele>
        <time>2021-07-11T06:54:04.000Z</time>
      </trkpt>
      <trkpt lat="47.89957" lon="7.20044">
        <ele>443</ele>
        <time>2021-07-11T06:54:05.000Z</time>
      </trkpt>
      <trkpt lat="47.89956" lon="7.20046">
        <ele>443.39999389648</ele>
        <time>2021-07-11T06:54:06.000Z</time>
      </trkpt>
      <trkpt lat="47.89955" lon="7.20047">
        <ele>444.20001220703</ele>
        <time>2021-07-11T06:54:07.000Z</time>
      </trkpt>
      <trkpt lat="47.89953" lon="7.20047">
        <ele>444.20001220703</ele>
        <time>2021-07-11T06:54:09.000Z</time>
      </trkpt>
      <trkpt lat="47.89952" lon="7.20047">
        <ele>444.20001220703</ele>
        <time>2021-07-11T06:54:10.000Z</time>
      </trkpt>
      <trkpt lat="47.8995" lon="7.20047">
        <ele>444.60000610352</ele>
        <time>2021-07-11T06:54:11.000Z</time>
      </trkpt>
      <trkpt lat="47.89949" lon="7.20047">
        <ele>445</ele>
        <time>2021-07-11T06:54:12.000Z</time>
      </trkpt>
      <trkpt lat="47.89948" lon="7.20046">
        <ele>445.60000610352</ele>
        <time>2021-07-11T06:54:13.000Z</time>
      </trkpt>
      <trkpt lat="47.89947" lon="7.20045">
        <ele>446</ele>
        <time>2021-07-11T06:54:14.000Z</time>
      </trkpt>
      <trkpt lat="47.89946" lon="7.20043">
        <ele>446.39999389648</ele>
        <time>2021-07-11T06:54:15.000Z</time>
      </trkpt>
      <trkpt lat="47.89944" lon="7.2004">
        <ele>446.39999389648</ele>
        <time>2021-07-11T06:54:17.000Z</time>
      </trkpt>
      <trkpt lat="47.89942" lon="7.20036">
        <ele>446.79998779297</ele>
        <time>2021-07-11T06:54:19.000Z</time>
      </trkpt>
      <trkpt lat="47.89941" lon="7.20033">
        <ele>447.20001220703</ele>
        <time>2021-07-11T06:54:20.000Z</time>
      </trkpt>
      <trkpt lat="47.89941" lon="7.2003">
        <ele>447.60000610352</ele>
        <time>2021-07-11T06:54:21.000Z</time>
      </trkpt>
      <trkpt lat="47.8994" lon="7.20028">
        <ele>448.20001220703</ele>
        <time>2021-07-11T06:54:22.000Z</time>
      </trkpt>
      <trkpt lat="47.89939" lon="7.20025">
        <ele>448.60000610352</ele>
        <time>2021-07-11T06:54:23.000Z</time>
      </trkpt>
      <trkpt lat="47.89936" lon="7.20015">
        <ele>448.60000610352</ele>
        <time>2021-07-11T06:54:27.000Z</time>
      </trkpt>
      <trkpt lat="47.89936" lon="7.20013">
        <ele>449</ele>
        <time>2021-07-11T06:54:28.000Z</time>
      </trkpt>
      <trkpt lat="47.89937" lon="7.20011">
        <ele>449.60000610352</ele>
        <time>2021-07-11T06:54:29.000Z</time>
      </trkpt>
      <trkpt lat="47.89937" lon="7.20009">
        <ele>450</ele>
        <time>2021-07-11T06:54:30.000Z</time>
      </trkpt>
      <trkpt lat="47.89936" lon="7.20007">
        <ele>450.79998779297</ele>
        <time>2021-07-11T06:54:31.000Z</time>
      </trkpt>
      <trkpt lat="47.89936" lon="7.20004">
        <ele>450.79998779297</ele>
        <time>2021-07-11T06:54:32.000Z</time>
      </trkpt>
      <trkpt lat="47.89936" lon="7.20001">
        <ele>450.79998779297</ele>
        <time>2021-07-11T06:54:33.000Z</time>
      </trkpt>
      <trkpt lat="47.89935" lon="7.19994">
        <ele>451.20001220703</ele>
        <time>2021-07-11T06:54:36.000Z</time>
      </trkpt>
      <trkpt lat="47.89935" lon="7.19991">
        <ele>451.60000610352</ele>
        <time>2021-07-11T06:54:37.000Z</time>
      </trkpt>
      <trkpt lat="47.89936" lon="7.19988">
        <ele>452</ele>
        <time>2021-07-11T06:54:38.000Z</time>
      </trkpt>
      <trkpt lat="47.89937" lon="7.19985">
        <ele>452.60000610352</ele>
        <time>2021-07-11T06:54:39.000Z</time>
      </trkpt>
      <trkpt lat="47.89938" lon="7.19983">
        <ele>453</ele>
        <time>2021-07-11T06:54:40.000Z</time>
      </trkpt>
      <trkpt lat="47.89939" lon="7.19973">
        <ele>453</ele>
        <time>2021-07-11T06:54:45.000Z</time>
      </trkpt>
      <trkpt lat="47.89938" lon="7.19968">
        <ele>453.39999389648</ele>
        <time>2021-07-11T06:54:47.000Z</time>
      </trkpt>
      <trkpt lat="47.89937" lon="7.19964">
        <ele>453.79998779297</ele>
        <time>2021-07-11T06:54:48.000Z</time>
      </trkpt>
      <trkpt lat="47.89937" lon="7.1996">
        <ele>454.20001220703</ele>
        <time>2021-07-11T06:54:49.000Z</time>
      </trkpt>
      <trkpt lat="47.89936" lon="7.19957">
        <ele>454.60000610352</ele>
        <time>2021-07-11T06:54:50.000Z</time>
      </trkpt>
      <trkpt lat="47.89938" lon="7.19952">
        <ele>455</ele>
        <time>2021-07-11T06:54:51.000Z</time>
      </trkpt>
      <trkpt lat="47.89939" lon="7.19936">
        <ele>455</ele>
        <time>2021-07-11T06:54:56.000Z</time>
      </trkpt>
      <trkpt lat="47.89938" lon="7.19933">
        <ele>455</ele>
        <time>2021-07-11T06:54:57.000Z</time>
      </trkpt>
      <trkpt lat="47.89935" lon="7.19926">
        <ele>455</ele>
        <time>2021-07-11T06:55:02.000Z</time>
      </trkpt>
      <trkpt lat="47.89934" lon="7.19919">
        <ele>455.39999389648</ele>
        <time>2021-07-11T06:55:06.000Z</time>
      </trkpt>
      <trkpt lat="47.89934" lon="7.19917">
        <ele>455.79998779297</ele>
        <time>2021-07-11T06:55:07.000Z</time>
      </trkpt>
      <trkpt lat="47.89934" lon="7.19915">
        <ele>456.20001220703</ele>
        <time>2021-07-11T06:55:08.000Z</time>
      </trkpt>
      <trkpt lat="47.89934" lon="7.19913">
        <ele>456.60000610352</ele>
        <time>2021-07-11T06:55:09.000Z</time>
      </trkpt>
      <trkpt lat="47.89934" lon="7.19911">
        <ele>457</ele>
        <time>2021-07-11T06:55:10.000Z</time>
      </trkpt>
      <trkpt lat="47.89935" lon="7.199">
        <ele>457</ele>
        <time>2021-07-11T06:55:15.000Z</time>
      </trkpt>
      <trkpt lat="47.89936" lon="7.19889">
        <ele>457.60000610352</ele>
        <time>2021-07-11T06:55:21.000Z</time>
      </trkpt>
      <trkpt lat="47.89936" lon="7.19887">
        <ele>458</ele>
        <time>2021-07-11T06:55:22.000Z</time>
      </trkpt>
      <trkpt lat="47.89936" lon="7.19885">
        <ele>458.39999389648</ele>
        <time>2021-07-11T06:55:23.000Z</time>
      </trkpt>
      <trkpt lat="47.89936" lon="7.19883">
        <ele>458.79998779297</ele>
        <time>2021-07-11T06:55:24.000Z</time>
      </trkpt>
      <trkpt lat="47.89937" lon="7.19881">
        <ele>459.20001220703</ele>
        <time>2021-07-11T06:55:25.000Z</time>
      </trkpt>
      <trkpt lat="47.8994" lon="7.1987">
        <ele>459.20001220703</ele>
        <time>2021-07-11T06:55:29.000Z</time>
      </trkpt>
      <trkpt lat="47.89948" lon="7.19845">
        <ele>459.20001220703</ele>
        <time>2021-07-11T06:55:36.000Z</time>
      </trkpt>
      <trkpt lat="47.89957" lon="7.19827">
        <ele>459.60000610352</ele>
        <time>2021-07-11T06:55:43.000Z</time>
      </trkpt>
      <trkpt lat="47.89958" lon="7.19825">
        <ele>460</ele>
        <time>2021-07-11T06:55:44.000Z</time>
      </trkpt>
      <trkpt lat="47.89958" lon="7.19822">
        <ele>460.79998779297</ele>
        <time>2021-07-11T06:55:45.000Z</time>
      </trkpt>
      <trkpt lat="47.89959" lon="7.19821">
        <ele>461.20001220703</ele>
        <time>2021-07-11T06:55:46.000Z</time>
      </trkpt>
      <trkpt lat="47.89961" lon="7.19814">
        <ele>461.20001220703</ele>
        <time>2021-07-11T06:55:50.000Z</time>
      </trkpt>
      <trkpt lat="47.89969" lon="7.19802">
        <ele>461.20001220703</ele>
        <time>2021-07-11T06:55:57.000Z</time>
      </trkpt>
      <trkpt lat="47.89976" lon="7.19783">
        <ele>459.39999389648</ele>
        <time>2021-07-11T06:56:17.000Z</time>
      </trkpt>
      <trkpt lat="47.89978" lon="7.19779">
        <ele>459</ele>
        <time>2021-07-11T06:56:18.000Z</time>
      </trkpt>
      <trkpt lat="47.89981" lon="7.19769">
        <ele>459</ele>
        <time>2021-07-11T06:56:20.000Z</time>
      </trkpt>
      <trkpt lat="47.89989" lon="7.19743">
        <ele>458.60000610352</ele>
        <time>2021-07-11T06:56:25.000Z</time>
      </trkpt>
      <trkpt lat="47.89991" lon="7.19736">
        <ele>458.20001220703</ele>
        <time>2021-07-11T06:56:26.000Z</time>
      </trkpt>
      <trkpt lat="47.89992" lon="7.19728">
        <ele>457.79998779297</ele>
        <time>2021-07-11T06:56:27.000Z</time>
      </trkpt>
      <trkpt lat="47.89993" lon="7.19721">
        <ele>457.39999389648</ele>
        <time>2021-07-11T06:56:28.000Z</time>
      </trkpt>
      <trkpt lat="47.89994" lon="7.19714">
        <ele>457</ele>
        <time>2021-07-11T06:56:29.000Z</time>
      </trkpt>
      <trkpt lat="47.89996" lon="7.19708">
        <ele>456.60000610352</ele>
        <time>2021-07-11T06:56:30.000Z</time>
      </trkpt>
      <trkpt lat="47.89998" lon="7.19701">
        <ele>456.20001220703</ele>
        <time>2021-07-11T06:56:31.000Z</time>
      </trkpt>
      <trkpt lat="47.90001" lon="7.19696">
        <ele>455.60000610352</ele>
        <time>2021-07-11T06:56:32.000Z</time>
      </trkpt>
      <trkpt lat="47.90004" lon="7.19692">
        <ele>455.20001220703</ele>
        <time>2021-07-11T06:56:33.000Z</time>
      </trkpt>
      <trkpt lat="47.90006" lon="7.19688">
        <ele>454.79998779297</ele>
        <time>2021-07-11T06:56:34.000Z</time>
      </trkpt>
      <trkpt lat="47.90008" lon="7.19684">
        <ele>454.79998779297</ele>
        <time>2021-07-11T06:56:35.000Z</time>
      </trkpt>
      <trkpt lat="47.90016" lon="7.19668">
        <ele>454.79998779297</ele>
        <time>2021-07-11T06:56:39.000Z</time>
      </trkpt>
      <trkpt lat="47.9002" lon="7.19652">
        <ele>454.39999389648</ele>
        <time>2021-07-11T06:56:42.000Z</time>
      </trkpt>
      <trkpt lat="47.90021" lon="7.19647">
        <ele>454</ele>
        <time>2021-07-11T06:56:43.000Z</time>
      </trkpt>
      <trkpt lat="47.90022" lon="7.19641">
        <ele>453.60000610352</ele>
        <time>2021-07-11T06:56:44.000Z</time>
      </trkpt>
      <trkpt lat="47.90024" lon="7.19635">
        <ele>453.20001220703</ele>
        <time>2021-07-11T06:56:45.000Z</time>
      </trkpt>
      <trkpt lat="47.90027" lon="7.19628">
        <ele>452.79998779297</ele>
        <time>2021-07-11T06:56:46.000Z</time>
      </trkpt>
      <trkpt lat="47.90029" lon="7.19621">
        <ele>452.79998779297</ele>
        <time>2021-07-11T06:56:47.000Z</time>
      </trkpt>
      <trkpt lat="47.90035" lon="7.19606">
        <ele>452.20001220703</ele>
        <time>2021-07-11T06:56:49.000Z</time>
      </trkpt>
      <trkpt lat="47.90038" lon="7.19599">
        <ele>451.79998779297</ele>
        <time>2021-07-11T06:56:50.000Z</time>
      </trkpt>
      <trkpt lat="47.90041" lon="7.19592">
        <ele>451.39999389648</ele>
        <time>2021-07-11T06:56:51.000Z</time>
      </trkpt>
      <trkpt lat="47.90044" lon="7.19585">
        <ele>450.79998779297</ele>
        <time>2021-07-11T06:56:52.000Z</time>
      </trkpt>
      <trkpt lat="47.90047" lon="7.19578">
        <ele>450.39999389648</ele>
        <time>2021-07-11T06:56:53.000Z</time>
      </trkpt>
      <trkpt lat="47.90049" lon="7.1957">
        <ele>449.79998779297</ele>
        <time>2021-07-11T06:56:54.000Z</time>
      </trkpt>
      <trkpt lat="47.90052" lon="7.19563">
        <ele>449.39999389648</ele>
        <time>2021-07-11T06:56:55.000Z</time>
      </trkpt>
      <trkpt lat="47.90055" lon="7.19555">
        <ele>448.79998779297</ele>
        <time>2021-07-11T06:56:56.000Z</time>
      </trkpt>
      <trkpt lat="47.90058" lon="7.19546">
        <ele>448.20001220703</ele>
        <time>2021-07-11T06:56:57.000Z</time>
      </trkpt>
      <trkpt lat="47.9006" lon="7.19538">
        <ele>447</ele>
        <time>2021-07-11T06:56:58.000Z</time>
      </trkpt>
      <trkpt lat="47.90063" lon="7.19531">
        <ele>446.39999389648</ele>
        <time>2021-07-11T06:56:59.000Z</time>
      </trkpt>
      <trkpt lat="47.90065" lon="7.19524">
        <ele>445.79998779297</ele>
        <time>2021-07-11T06:57:00.000Z</time>
      </trkpt>
      <trkpt lat="47.90067" lon="7.19518">
        <ele>445</ele>
        <time>2021-07-11T06:57:01.000Z</time>
      </trkpt>
      <trkpt lat="47.90069" lon="7.19511">
        <ele>444.20001220703</ele>
        <time>2021-07-11T06:57:02.000Z</time>
      </trkpt>
      <trkpt lat="47.90071" lon="7.19504">
        <ele>443.39999389648</ele>
        <time>2021-07-11T06:57:03.000Z</time>
      </trkpt>
      <trkpt lat="47.90072" lon="7.19495">
        <ele>442.60000610352</ele>
        <time>2021-07-11T06:57:04.000Z</time>
      </trkpt>
      <trkpt lat="47.90073" lon="7.19486">
        <ele>441.79998779297</ele>
        <time>2021-07-11T06:57:05.000Z</time>
      </trkpt>
      <trkpt lat="47.90074" lon="7.19477">
        <ele>441.20001220703</ele>
        <time>2021-07-11T06:57:06.000Z</time>
      </trkpt>
      <trkpt lat="47.90075" lon="7.19467">
        <ele>440.60000610352</ele>
        <time>2021-07-11T06:57:07.000Z</time>
      </trkpt>
      <trkpt lat="47.90076" lon="7.19458">
        <ele>440</ele>
        <time>2021-07-11T06:57:08.000Z</time>
      </trkpt>
      <trkpt lat="47.90077" lon="7.19448">
        <ele>439.39999389648</ele>
        <time>2021-07-11T06:57:09.000Z</time>
      </trkpt>
      <trkpt lat="47.90077" lon="7.1944">
        <ele>438.79998779297</ele>
        <time>2021-07-11T06:57:10.000Z</time>
      </trkpt>
      <trkpt lat="47.90078" lon="7.19431">
        <ele>438.20001220703</ele>
        <time>2021-07-11T06:57:11.000Z</time>
      </trkpt>
      <trkpt lat="47.90079" lon="7.19423">
        <ele>437.60000610352</ele>
        <time>2021-07-11T06:57:12.000Z</time>
      </trkpt>
      <trkpt lat="47.9008" lon="7.19416">
        <ele>437</ele>
        <time>2021-07-11T06:57:13.000Z</time>
      </trkpt>
      <trkpt lat="47.90081" lon="7.19409">
        <ele>436.39999389648</ele>
        <time>2021-07-11T06:57:14.000Z</time>
      </trkpt>
      <trkpt lat="47.90082" lon="7.19405">
        <ele>435.79998779297</ele>
        <time>2021-07-11T06:57:15.000Z</time>
      </trkpt>
      <trkpt lat="47.90083" lon="7.19402">
        <ele>435.20001220703</ele>
        <time>2021-07-11T06:57:16.000Z</time>
      </trkpt>
      <trkpt lat="47.90083" lon="7.194">
        <ele>434.79998779297</ele>
        <time>2021-07-11T06:57:17.000Z</time>
      </trkpt>
      <trkpt lat="47.90084" lon="7.19398">
        <ele>434.20001220703</ele>
        <time>2021-07-11T06:57:18.000Z</time>
      </trkpt>
      <trkpt lat="47.90087" lon="7.19392">
        <ele>433.60000610352</ele>
        <time>2021-07-11T06:57:20.000Z</time>
      </trkpt>
      <trkpt lat="47.90088" lon="7.19389">
        <ele>433.20001220703</ele>
        <time>2021-07-11T06:57:21.000Z</time>
      </trkpt>
      <trkpt lat="47.90089" lon="7.19386">
        <ele>432.79998779297</ele>
        <time>2021-07-11T06:57:22.000Z</time>
      </trkpt>
      <trkpt lat="47.90091" lon="7.19383">
        <ele>432</ele>
        <time>2021-07-11T06:57:23.000Z</time>
      </trkpt>
      <trkpt lat="47.90089" lon="7.19371">
        <ele>432</ele>
        <time>2021-07-11T06:57:29.000Z</time>
      </trkpt>
      <trkpt lat="47.90087" lon="7.19368">
        <ele>432.39999389648</ele>
        <time>2021-07-11T06:57:31.000Z</time>
      </trkpt>
      <trkpt lat="47.90086" lon="7.19366">
        <ele>432.79998779297</ele>
        <time>2021-07-11T06:57:32.000Z</time>
      </trkpt>
      <trkpt lat="47.90085" lon="7.19365">
        <ele>433.20001220703</ele>
        <time>2021-07-11T06:57:33.000Z</time>
      </trkpt>
      <trkpt lat="47.90085" lon="7.19365">
        <ele>433.60000610352</ele>
        <time>2021-07-11T06:57:34.000Z</time>
      </trkpt>
      <trkpt lat="47.90084" lon="7.19363">
        <ele>434</ele>
        <time>2021-07-11T06:57:35.000Z</time>
      </trkpt>
      <trkpt lat="47.90083" lon="7.19362">
        <ele>434</ele>
        <time>2021-07-11T06:57:36.000Z</time>
      </trkpt>
      <trkpt lat="47.90082" lon="7.19361">
        <ele>434.39999389648</ele>
        <time>2021-07-11T06:57:37.000Z</time>
      </trkpt>
      <trkpt lat="47.9008" lon="7.19359">
        <ele>434.79998779297</ele>
        <time>2021-07-11T06:57:38.000Z</time>
      </trkpt>
      <trkpt lat="47.90078" lon="7.19356">
        <ele>435.20001220703</ele>
        <time>2021-07-11T06:57:39.000Z</time>
      </trkpt>
      <trkpt lat="47.90077" lon="7.19353">
        <ele>435.79998779297</ele>
        <time>2021-07-11T06:57:40.000Z</time>
      </trkpt>
      <trkpt lat="47.90075" lon="7.1935">
        <ele>436.20001220703</ele>
        <time>2021-07-11T06:57:41.000Z</time>
      </trkpt>
      <trkpt lat="47.90072" lon="7.19347">
        <ele>436.20001220703</ele>
        <time>2021-07-11T06:57:43.000Z</time>
      </trkpt>
      <trkpt lat="47.90071" lon="7.19345">
        <ele>436.60000610352</ele>
        <time>2021-07-11T06:57:44.000Z</time>
      </trkpt>
      <trkpt lat="47.90069" lon="7.19343">
        <ele>437</ele>
        <time>2021-07-11T06:57:45.000Z</time>
      </trkpt>
      <trkpt lat="47.90067" lon="7.19341">
        <ele>437.39999389648</ele>
        <time>2021-07-11T06:57:46.000Z</time>
      </trkpt>
      <trkpt lat="47.90065" lon="7.1934">
        <ele>438.20001220703</ele>
        <time>2021-07-11T06:57:47.000Z</time>
      </trkpt>
      <trkpt lat="47.90062" lon="7.19336">
        <ele>438.60000610352</ele>
        <time>2021-07-11T06:57:50.000Z</time>
      </trkpt>
      <trkpt lat="47.90061" lon="7.19335">
        <ele>439</ele>
        <time>2021-07-11T06:57:51.000Z</time>
      </trkpt>
      <trkpt lat="47.9006" lon="7.19335">
        <ele>439.39999389648</ele>
        <time>2021-07-11T06:57:52.000Z</time>
      </trkpt>
      <trkpt lat="47.90059" lon="7.19334">
        <ele>440</ele>
        <time>2021-07-11T06:57:53.000Z</time>
      </trkpt>
      <trkpt lat="47.90057" lon="7.19334">
        <ele>440.39999389648</ele>
        <time>2021-07-11T06:57:54.000Z</time>
      </trkpt>
      <trkpt lat="47.90055" lon="7.19331">
        <ele>440.39999389648</ele>
        <time>2021-07-11T06:57:56.000Z</time>
      </trkpt>
      <trkpt lat="47.90053" lon="7.1933">
        <ele>440.79998779297</ele>
        <time>2021-07-11T06:57:57.000Z</time>
      </trkpt>
      <trkpt lat="47.90052" lon="7.19329">
        <ele>441.20001220703</ele>
        <time>2021-07-11T06:57:58.000Z</time>
      </trkpt>
      <trkpt lat="47.90051" lon="7.19328">
        <ele>441.60000610352</ele>
        <time>2021-07-11T06:57:59.000Z</time>
      </trkpt>
      <trkpt lat="47.90049" lon="7.19326">
        <ele>442</ele>
        <time>2021-07-11T06:58:00.000Z</time>
      </trkpt>
      <trkpt lat="47.90048" lon="7.19325">
        <ele>442.60000610352</ele>
        <time>2021-07-11T06:58:01.000Z</time>
      </trkpt>
      <trkpt lat="47.90044" lon="7.19323">
        <ele>443</ele>
        <time>2021-07-11T06:58:03.000Z</time>
      </trkpt>
      <trkpt lat="47.90043" lon="7.19322">
        <ele>443.39999389648</ele>
        <time>2021-07-11T06:58:04.000Z</time>
      </trkpt>
      <trkpt lat="47.90037" lon="7.19312">
        <ele>444.60000610352</ele>
        <time>2021-07-11T06:58:16.000Z</time>
      </trkpt>
      <trkpt lat="47.90034" lon="7.19308">
        <ele>444.60000610352</ele>
        <time>2021-07-11T06:58:18.000Z</time>
      </trkpt>
      <trkpt lat="47.9003" lon="7.19301">
        <ele>445</ele>
        <time>2021-07-11T06:58:22.000Z</time>
      </trkpt>
      <trkpt lat="47.90029" lon="7.19299">
        <ele>445.39999389648</ele>
        <time>2021-07-11T06:58:23.000Z</time>
      </trkpt>
      <trkpt lat="47.90027" lon="7.19298">
        <ele>445.79998779297</ele>
        <time>2021-07-11T06:58:24.000Z</time>
      </trkpt>
      <trkpt lat="47.90025" lon="7.19297">
        <ele>446.20001220703</ele>
        <time>2021-07-11T06:58:25.000Z</time>
      </trkpt>
      <trkpt lat="47.90024" lon="7.19296">
        <ele>446.60000610352</ele>
        <time>2021-07-11T06:58:26.000Z</time>
      </trkpt>
      <trkpt lat="47.9002" lon="7.19293">
        <ele>446.60000610352</ele>
        <time>2021-07-11T06:58:29.000Z</time>
      </trkpt>
      <trkpt lat="47.90014" lon="7.19288">
        <ele>447</ele>
        <time>2021-07-11T06:58:34.000Z</time>
      </trkpt>
      <trkpt lat="47.90014" lon="7.19288">
        <ele>447.39999389648</ele>
        <time>2021-07-11T06:58:35.000Z</time>
      </trkpt>
      <trkpt lat="47.90013" lon="7.19287">
        <ele>447.79998779297</ele>
        <time>2021-07-11T06:58:36.000Z</time>
      </trkpt>
      <trkpt lat="47.90013" lon="7.19287">
        <ele>448.39999389648</ele>
        <time>2021-07-11T06:58:37.000Z</time>
      </trkpt>
      <trkpt lat="47.90012" lon="7.19287">
        <ele>448.79998779297</ele>
        <time>2021-07-11T06:58:38.000Z</time>
      </trkpt>
      <trkpt lat="47.90012" lon="7.19287">
        <ele>448.79998779297</ele>
        <time>2021-07-11T06:58:39.000Z</time>
      </trkpt>
      <trkpt lat="47.90016" lon="7.19291">
        <ele>448.79998779297</ele>
        <time>2021-07-11T06:58:52.000Z</time>
      </trkpt>
      <trkpt lat="47.90021" lon="7.19292">
        <ele>448.79998779297</ele>
        <time>2021-07-11T06:58:56.000Z</time>
      </trkpt>
      <trkpt lat="47.9002" lon="7.19286">
        <ele>448.79998779297</ele>
        <time>2021-07-11T06:59:26.000Z</time>
      </trkpt>
      <trkpt lat="47.90021" lon="7.19285">
        <ele>448.39999389648</ele>
        <time>2021-07-11T06:59:27.000Z</time>
      </trkpt>
      <trkpt lat="47.90021" lon="7.19284">
        <ele>447.79998779297</ele>
        <time>2021-07-11T06:59:28.000Z</time>
      </trkpt>
      <trkpt lat="47.90021" lon="7.19281">
        <ele>447.39999389648</ele>
        <time>2021-07-11T06:59:29.000Z</time>
      </trkpt>
      <trkpt lat="47.90022" lon="7.19279">
        <ele>447</ele>
        <time>2021-07-11T06:59:30.000Z</time>
      </trkpt>
      <trkpt lat="47.90022" lon="7.19278">
        <ele>446.60000610352</ele>
        <time>2021-07-11T06:59:31.000Z</time>
      </trkpt>
      <trkpt lat="47.90022" lon="7.19278">
        <ele>446.60000610352</ele>
        <time>2021-07-11T06:59:32.000Z</time>
      </trkpt>
      <trkpt lat="47.90021" lon="7.19243">
        <ele>447</ele>
        <time>2021-07-11T07:00:32.000Z</time>
      </trkpt>
      <trkpt lat="47.90023" lon="7.19241">
        <ele>447.60000610352</ele>
        <time>2021-07-11T07:00:33.000Z</time>
      </trkpt>
      <trkpt lat="47.90025" lon="7.19239">
        <ele>448</ele>
        <time>2021-07-11T07:00:34.000Z</time>
      </trkpt>
      <trkpt lat="47.90026" lon="7.19237">
        <ele>448.39999389648</ele>
        <time>2021-07-11T07:00:35.000Z</time>
      </trkpt>
      <trkpt lat="47.90028" lon="7.19235">
        <ele>448.79998779297</ele>
        <time>2021-07-11T07:00:36.000Z</time>
      </trkpt>
      <trkpt lat="47.90037" lon="7.19226">
        <ele>448.79998779297</ele>
        <time>2021-07-11T07:00:40.000Z</time>
      </trkpt>
      <trkpt lat="47.90039" lon="7.19224">
        <ele>449.79998779297</ele>
        <time>2021-07-11T07:00:41.000Z</time>
      </trkpt>
      <trkpt lat="47.9004" lon="7.19222">
        <ele>450.20001220703</ele>
        <time>2021-07-11T07:00:42.000Z</time>
      </trkpt>
      <trkpt lat="47.90042" lon="7.1922">
        <ele>450.60000610352</ele>
        <time>2021-07-11T07:00:43.000Z</time>
      </trkpt>
      <trkpt lat="47.90043" lon="7.19219">
        <ele>451</ele>
        <time>2021-07-11T07:00:44.000Z</time>
      </trkpt>
      <trkpt lat="47.90049" lon="7.19215">
        <ele>451</ele>
        <time>2021-07-11T07:00:47.000Z</time>
      </trkpt>
      <trkpt lat="47.90051" lon="7.19214">
        <ele>451</ele>
        <time>2021-07-11T07:00:48.000Z</time>
      </trkpt>
      <trkpt lat="47.90054" lon="7.19211">
        <ele>451.39999389648</ele>
        <time>2021-07-11T07:00:50.000Z</time>
      </trkpt>
      <trkpt lat="47.90056" lon="7.1921">
        <ele>451.79998779297</ele>
        <time>2021-07-11T07:00:51.000Z</time>
      </trkpt>
      <trkpt lat="47.90058" lon="7.19209">
        <ele>452.39999389648</ele>
        <time>2021-07-11T07:00:52.000Z</time>
      </trkpt>
      <trkpt lat="47.90059" lon="7.19207">
        <ele>452.79998779297</ele>
        <time>2021-07-11T07:00:53.000Z</time>
      </trkpt>
      <trkpt lat="47.90061" lon="7.19205">
        <ele>453.20001220703</ele>
        <time>2021-07-11T07:00:54.000Z</time>
      </trkpt>
      <trkpt lat="47.90063" lon="7.19204">
        <ele>453.20001220703</ele>
        <time>2021-07-11T07:00:55.000Z</time>
      </trkpt>
      <trkpt lat="47.90074" lon="7.19196">
        <ele>453.60000610352</ele>
        <time>2021-07-11T07:01:00.000Z</time>
      </trkpt>
      <trkpt lat="47.90077" lon="7.19194">
        <ele>454</ele>
        <time>2021-07-11T07:01:01.000Z</time>
      </trkpt>
      <trkpt lat="47.90079" lon="7.19191">
        <ele>454.39999389648</ele>
        <time>2021-07-11T07:01:02.000Z</time>
      </trkpt>
      <trkpt lat="47.90081" lon="7.19188">
        <ele>455</ele>
        <time>2021-07-11T07:01:03.000Z</time>
      </trkpt>
      <trkpt lat="47.90082" lon="7.19186">
        <ele>455.39999389648</ele>
        <time>2021-07-11T07:01:04.000Z</time>
      </trkpt>
      <trkpt lat="47.90086" lon="7.19177">
        <ele>455.39999389648</ele>
        <time>2021-07-11T07:01:08.000Z</time>
      </trkpt>
      <trkpt lat="47.90087" lon="7.19174">
        <ele>455.79998779297</ele>
        <time>2021-07-11T07:01:09.000Z</time>
      </trkpt>
      <trkpt lat="47.90087" lon="7.19171">
        <ele>456.20001220703</ele>
        <time>2021-07-11T07:01:10.000Z</time>
      </trkpt>
      <trkpt lat="47.90088" lon="7.19168">
        <ele>456.60000610352</ele>
        <time>2021-07-11T07:01:11.000Z</time>
      </trkpt>
      <trkpt lat="47.90088" lon="7.19164">
        <ele>457</ele>
        <time>2021-07-11T07:01:12.000Z</time>
      </trkpt>
      <trkpt lat="47.90088" lon="7.19161">
        <ele>457.39999389648</ele>
        <time>2021-07-11T07:01:13.000Z</time>
      </trkpt>
      <trkpt lat="47.90088" lon="7.19158">
        <ele>457.39999389648</ele>
        <time>2021-07-11T07:01:14.000Z</time>
      </trkpt>
      <trkpt lat="47.9009" lon="7.19134">
        <ele>457.79998779297</ele>
        <time>2021-07-11T07:01:21.000Z</time>
      </trkpt>
      <trkpt lat="47.90091" lon="7.1913">
        <ele>458.20001220703</ele>
        <time>2021-07-11T07:01:22.000Z</time>
      </trkpt>
      <trkpt lat="47.90091" lon="7.19127">
        <ele>458.60000610352</ele>
        <time>2021-07-11T07:01:23.000Z</time>
      </trkpt>
      <trkpt lat="47.90091" lon="7.19124">
        <ele>459</ele>
        <time>2021-07-11T07:01:24.000Z</time>
      </trkpt>
      <trkpt lat="47.90092" lon="7.19121">
        <ele>459.39999389648</ele>
        <time>2021-07-11T07:01:25.000Z</time>
      </trkpt>
      <trkpt lat="47.90094" lon="7.19113">
        <ele>459.39999389648</ele>
        <time>2021-07-11T07:01:28.000Z</time>
      </trkpt>
      <trkpt lat="47.90095" lon="7.19111">
        <ele>459.39999389648</ele>
        <time>2021-07-11T07:01:29.000Z</time>
      </trkpt>
      <trkpt lat="47.90096" lon="7.19108">
        <ele>459.79998779297</ele>
        <time>2021-07-11T07:01:30.000Z</time>
      </trkpt>
      <trkpt lat="47.90096" lon="7.19106">
        <ele>460.60000610352</ele>
        <time>2021-07-11T07:01:31.000Z</time>
      </trkpt>
      <trkpt lat="47.90097" lon="7.19103">
        <ele>461</ele>
        <time>2021-07-11T07:01:32.000Z</time>
      </trkpt>
      <trkpt lat="47.90097" lon="7.19099">
        <ele>461.39999389648</ele>
        <time>2021-07-11T07:01:33.000Z</time>
      </trkpt>
      <trkpt lat="47.90098" lon="7.19093">
        <ele>461.39999389648</ele>
        <time>2021-07-11T07:01:35.000Z</time>
      </trkpt>
      <trkpt lat="47.901" lon="7.19081">
        <ele>461.79998779297</ele>
        <time>2021-07-11T07:01:39.000Z</time>
      </trkpt>
      <trkpt lat="47.90101" lon="7.19078">
        <ele>462.39999389648</ele>
        <time>2021-07-11T07:01:40.000Z</time>
      </trkpt>
      <trkpt lat="47.90101" lon="7.19075">
        <ele>462.79998779297</ele>
        <time>2021-07-11T07:01:41.000Z</time>
      </trkpt>
      <trkpt lat="47.90102" lon="7.19072">
        <ele>463.20001220703</ele>
        <time>2021-07-11T07:01:42.000Z</time>
      </trkpt>
      <trkpt lat="47.90103" lon="7.19069">
        <ele>463.60000610352</ele>
        <time>2021-07-11T07:01:43.000Z</time>
      </trkpt>
      <trkpt lat="47.90106" lon="7.19051">
        <ele>463.60000610352</ele>
        <time>2021-07-11T07:01:48.000Z</time>
      </trkpt>
      <trkpt lat="47.90108" lon="7.19042">
        <ele>464</ele>
        <time>2021-07-11T07:01:51.000Z</time>
      </trkpt>
      <trkpt lat="47.90109" lon="7.19038">
        <ele>464.39999389648</ele>
        <time>2021-07-11T07:01:52.000Z</time>
      </trkpt>
      <trkpt lat="47.90109" lon="7.19035">
        <ele>464.79998779297</ele>
        <time>2021-07-11T07:01:53.000Z</time>
      </trkpt>
      <trkpt lat="47.9011" lon="7.19032">
        <ele>465.39999389648</ele>
        <time>2021-07-11T07:01:54.000Z</time>
      </trkpt>
      <trkpt lat="47.9011" lon="7.19028">
        <ele>465.79998779297</ele>
        <time>2021-07-11T07:01:55.000Z</time>
      </trkpt>
      <trkpt lat="47.90116" lon="7.19006">
        <ele>465.79998779297</ele>
        <time>2021-07-11T07:02:01.000Z</time>
      </trkpt>
      <trkpt lat="47.90118" lon="7.19001">
        <ele>466.20001220703</ele>
        <time>2021-07-11T07:02:03.000Z</time>
      </trkpt>
      <trkpt lat="47.90119" lon="7.18998">
        <ele>466.60000610352</ele>
        <time>2021-07-11T07:02:04.000Z</time>
      </trkpt>
      <trkpt lat="47.9012" lon="7.18995">
        <ele>467</ele>
        <time>2021-07-11T07:02:05.000Z</time>
      </trkpt>
      <trkpt lat="47.9012" lon="7.18993">
        <ele>467.39999389648</ele>
        <time>2021-07-11T07:02:06.000Z</time>
      </trkpt>
      <trkpt lat="47.90121" lon="7.18991">
        <ele>468</ele>
        <time>2021-07-11T07:02:07.000Z</time>
      </trkpt>
      <trkpt lat="47.90121" lon="7.18988">
        <ele>468</ele>
        <time>2021-07-11T07:02:08.000Z</time>
      </trkpt>
      <trkpt lat="47.90126" lon="7.18979">
        <ele>468</ele>
        <time>2021-07-11T07:02:13.000Z</time>
      </trkpt>
      <trkpt lat="47.9013" lon="7.18973">
        <ele>468.39999389648</ele>
        <time>2021-07-11T07:02:15.000Z</time>
      </trkpt>
      <trkpt lat="47.90132" lon="7.18972">
        <ele>468.79998779297</ele>
        <time>2021-07-11T07:02:16.000Z</time>
      </trkpt>
      <trkpt lat="47.90133" lon="7.1897">
        <ele>469.20001220703</ele>
        <time>2021-07-11T07:02:17.000Z</time>
      </trkpt>
      <trkpt lat="47.90135" lon="7.18969">
        <ele>469.60000610352</ele>
        <time>2021-07-11T07:02:18.000Z</time>
      </trkpt>
      <trkpt lat="47.90137" lon="7.18968">
        <ele>470</ele>
        <time>2021-07-11T07:02:19.000Z</time>
      </trkpt>
      <trkpt lat="47.9014" lon="7.18965">
        <ele>470</ele>
        <time>2021-07-11T07:02:21.000Z</time>
      </trkpt>
      <trkpt lat="47.90144" lon="7.18963">
        <ele>470.39999389648</ele>
        <time>2021-07-11T07:02:23.000Z</time>
      </trkpt>
      <trkpt lat="47.90146" lon="7.18962">
        <ele>470.79998779297</ele>
        <time>2021-07-11T07:02:24.000Z</time>
      </trkpt>
      <trkpt lat="47.90148" lon="7.18961">
        <ele>471.20001220703</ele>
        <time>2021-07-11T07:02:25.000Z</time>
      </trkpt>
      <trkpt lat="47.90151" lon="7.1896">
        <ele>471.60000610352</ele>
        <time>2021-07-11T07:02:26.000Z</time>
      </trkpt>
      <trkpt lat="47.90153" lon="7.18958">
        <ele>472</ele>
        <time>2021-07-11T07:02:27.000Z</time>
      </trkpt>
      <trkpt lat="47.90154" lon="7.18957">
        <ele>472</ele>
        <time>2021-07-11T07:02:28.000Z</time>
      </trkpt>
      <trkpt lat="47.90167" lon="7.18949">
        <ele>472</ele>
        <time>2021-07-11T07:02:34.000Z</time>
      </trkpt>
      <trkpt lat="47.90171" lon="7.18946">
        <ele>472.39999389648</ele>
        <time>2021-07-11T07:02:36.000Z</time>
      </trkpt>
      <trkpt lat="47.90173" lon="7.18945">
        <ele>472.79998779297</ele>
        <time>2021-07-11T07:02:37.000Z</time>
      </trkpt>
      <trkpt lat="47.90175" lon="7.18943">
        <ele>473.20001220703</ele>
        <time>2021-07-11T07:02:38.000Z</time>
      </trkpt>
      <trkpt lat="47.90176" lon="7.18941">
        <ele>473.79998779297</ele>
        <time>2021-07-11T07:02:39.000Z</time>
      </trkpt>
      <trkpt lat="47.90178" lon="7.18938">
        <ele>474.20001220703</ele>
        <time>2021-07-11T07:02:40.000Z</time>
      </trkpt>
      <trkpt lat="47.9019" lon="7.18923">
        <ele>474.60000610352</ele>
        <time>2021-07-11T07:02:47.000Z</time>
      </trkpt>
      <trkpt lat="47.90192" lon="7.18921">
        <ele>475</ele>
        <time>2021-07-11T07:02:48.000Z</time>
      </trkpt>
      <trkpt lat="47.90193" lon="7.18918">
        <ele>475.39999389648</ele>
        <time>2021-07-11T07:02:49.000Z</time>
      </trkpt>
      <trkpt lat="47.90194" lon="7.18916">
        <ele>475.79998779297</ele>
        <time>2021-07-11T07:02:50.000Z</time>
      </trkpt>
      <trkpt lat="47.90195" lon="7.18914">
        <ele>476.20001220703</ele>
        <time>2021-07-11T07:02:51.000Z</time>
      </trkpt>
      <trkpt lat="47.90197" lon="7.18909">
        <ele>476.20001220703</ele>
        <time>2021-07-11T07:02:54.000Z</time>
      </trkpt>
      <trkpt lat="47.90202" lon="7.18899">
        <ele>476.60000610352</ele>
        <time>2021-07-11T07:02:59.000Z</time>
      </trkpt>
      <trkpt lat="47.90203" lon="7.18897">
        <ele>477</ele>
        <time>2021-07-11T07:03:00.000Z</time>
      </trkpt>
      <trkpt lat="47.90204" lon="7.18894">
        <ele>477.39999389648</ele>
        <time>2021-07-11T07:03:01.000Z</time>
      </trkpt>
      <trkpt lat="47.90206" lon="7.18892">
        <ele>477.79998779297</ele>
        <time>2021-07-11T07:03:02.000Z</time>
      </trkpt>
      <trkpt lat="47.90208" lon="7.1889">
        <ele>478.20001220703</ele>
        <time>2021-07-11T07:03:03.000Z</time>
      </trkpt>
      <trkpt lat="47.90211" lon="7.18886">
        <ele>478.20001220703</ele>
        <time>2021-07-11T07:03:05.000Z</time>
      </trkpt>
      <trkpt lat="47.90215" lon="7.18881">
        <ele>478.20001220703</ele>
        <time>2021-07-11T07:03:08.000Z</time>
      </trkpt>
      <trkpt lat="47.9022" lon="7.18878">
        <ele>478.60000610352</ele>
        <time>2021-07-11T07:03:10.000Z</time>
      </trkpt>
      <trkpt lat="47.90222" lon="7.18876">
        <ele>479</ele>
        <time>2021-07-11T07:03:11.000Z</time>
      </trkpt>
      <trkpt lat="47.90224" lon="7.18874">
        <ele>479.39999389648</ele>
        <time>2021-07-11T07:03:12.000Z</time>
      </trkpt>
      <trkpt lat="47.90226" lon="7.18873">
        <ele>479.79998779297</ele>
        <time>2021-07-11T07:03:13.000Z</time>
      </trkpt>
      <trkpt lat="47.90228" lon="7.18871">
        <ele>480.20001220703</ele>
        <time>2021-07-11T07:03:14.000Z</time>
      </trkpt>
      <trkpt lat="47.90231" lon="7.18869">
        <ele>480.20001220703</ele>
        <time>2021-07-11T07:03:16.000Z</time>
      </trkpt>
      <trkpt lat="47.90238" lon="7.18866">
        <ele>480.60000610352</ele>
        <time>2021-07-11T07:03:21.000Z</time>
      </trkpt>
      <trkpt lat="47.90239" lon="7.18865">
        <ele>481.20001220703</ele>
        <time>2021-07-11T07:03:22.000Z</time>
      </trkpt>
      <trkpt lat="47.90241" lon="7.18864">
        <ele>481.60000610352</ele>
        <time>2021-07-11T07:03:23.000Z</time>
      </trkpt>
      <trkpt lat="47.90242" lon="7.18863">
        <ele>482</ele>
        <time>2021-07-11T07:03:24.000Z</time>
      </trkpt>
      <trkpt lat="47.90244" lon="7.18862">
        <ele>482.39999389648</ele>
        <time>2021-07-11T07:03:25.000Z</time>
      </trkpt>
      <trkpt lat="47.90253" lon="7.18857">
        <ele>482.79998779297</ele>
        <time>2021-07-11T07:03:31.000Z</time>
      </trkpt>
      <trkpt lat="47.90255" lon="7.18857">
        <ele>483.20001220703</ele>
        <time>2021-07-11T07:03:32.000Z</time>
      </trkpt>
      <trkpt lat="47.90256" lon="7.18856">
        <ele>484</ele>
        <time>2021-07-11T07:03:33.000Z</time>
      </trkpt>
      <trkpt lat="47.90257" lon="7.18856">
        <ele>484.39999389648</ele>
        <time>2021-07-11T07:03:34.000Z</time>
      </trkpt>
      <trkpt lat="47.90266" lon="7.18851">
        <ele>484.39999389648</ele>
        <time>2021-07-11T07:03:39.000Z</time>
      </trkpt>
      <trkpt lat="47.90269" lon="7.18849">
        <ele>484.39999389648</ele>
        <time>2021-07-11T07:03:41.000Z</time>
      </trkpt>
      <trkpt lat="47.90273" lon="7.18847">
        <ele>484.79998779297</ele>
        <time>2021-07-11T07:03:43.000Z</time>
      </trkpt>
      <trkpt lat="47.90275" lon="7.18845">
        <ele>485.39999389648</ele>
        <time>2021-07-11T07:03:44.000Z</time>
      </trkpt>
      <trkpt lat="47.90277" lon="7.18844">
        <ele>485.79998779297</ele>
        <time>2021-07-11T07:03:45.000Z</time>
      </trkpt>
      <trkpt lat="47.90279" lon="7.18843">
        <ele>486.20001220703</ele>
        <time>2021-07-11T07:03:46.000Z</time>
      </trkpt>
      <trkpt lat="47.90282" lon="7.1884">
        <ele>486.60000610352</ele>
        <time>2021-07-11T07:03:47.000Z</time>
      </trkpt>
      <trkpt lat="47.90283" lon="7.18838">
        <ele>486.60000610352</ele>
        <time>2021-07-11T07:03:48.000Z</time>
      </trkpt>
      <trkpt lat="47.90294" lon="7.18818">
        <ele>487</ele>
        <time>2021-07-11T07:03:55.000Z</time>
      </trkpt>
      <trkpt lat="47.90295" lon="7.18816">
        <ele>487.39999389648</ele>
        <time>2021-07-11T07:03:56.000Z</time>
      </trkpt>
      <trkpt lat="47.90296" lon="7.18813">
        <ele>487.79998779297</ele>
        <time>2021-07-11T07:03:57.000Z</time>
      </trkpt>
      <trkpt lat="47.90296" lon="7.18811">
        <ele>488.60000610352</ele>
        <time>2021-07-11T07:03:58.000Z</time>
      </trkpt>
      <trkpt lat="47.903" lon="7.18799">
        <ele>489.20001220703</ele>
        <time>2021-07-11T07:04:04.000Z</time>
      </trkpt>
      <trkpt lat="47.903" lon="7.18797">
        <ele>489.60000610352</ele>
        <time>2021-07-11T07:04:05.000Z</time>
      </trkpt>
      <trkpt lat="47.90301" lon="7.18794">
        <ele>490</ele>
        <time>2021-07-11T07:04:06.000Z</time>
      </trkpt>
      <trkpt lat="47.90301" lon="7.18791">
        <ele>490.39999389648</ele>
        <time>2021-07-11T07:04:07.000Z</time>
      </trkpt>
      <trkpt lat="47.90302" lon="7.18788">
        <ele>490.79998779297</ele>
        <time>2021-07-11T07:04:08.000Z</time>
      </trkpt>
      <trkpt lat="47.90303" lon="7.18771">
        <ele>490.79998779297</ele>
        <time>2021-07-11T07:04:14.000Z</time>
      </trkpt>
      <trkpt lat="47.90303" lon="7.18768">
        <ele>491.20001220703</ele>
        <time>2021-07-11T07:04:16.000Z</time>
      </trkpt>
      <trkpt lat="47.90302" lon="7.18766">
        <ele>491.60000610352</ele>
        <time>2021-07-11T07:04:17.000Z</time>
      </trkpt>
      <trkpt lat="47.90302" lon="7.18763">
        <ele>492</ele>
        <time>2021-07-11T07:04:18.000Z</time>
      </trkpt>
      <trkpt lat="47.90302" lon="7.1876">
        <ele>492.39999389648</ele>
        <time>2021-07-11T07:04:19.000Z</time>
      </trkpt>
      <trkpt lat="47.90302" lon="7.18757">
        <ele>492.79998779297</ele>
        <time>2021-07-11T07:04:20.000Z</time>
      </trkpt>
      <trkpt lat="47.903" lon="7.18751">
        <ele>492.79998779297</ele>
        <time>2021-07-11T07:04:22.000Z</time>
      </trkpt>
      <trkpt lat="47.90301" lon="7.18739">
        <ele>493.20001220703</ele>
        <time>2021-07-11T07:04:27.000Z</time>
      </trkpt>
      <trkpt lat="47.90302" lon="7.18736">
        <ele>493.79998779297</ele>
        <time>2021-07-11T07:04:28.000Z</time>
      </trkpt>
      <trkpt lat="47.90302" lon="7.18733">
        <ele>494.20001220703</ele>
        <time>2021-07-11T07:04:29.000Z</time>
      </trkpt>
      <trkpt lat="47.90303" lon="7.1873">
        <ele>494.60000610352</ele>
        <time>2021-07-11T07:04:30.000Z</time>
      </trkpt>
      <trkpt lat="47.90303" lon="7.18727">
        <ele>495</ele>
        <time>2021-07-11T07:04:31.000Z</time>
      </trkpt>
      <trkpt lat="47.90306" lon="7.18709">
        <ele>495</ele>
        <time>2021-07-11T07:04:37.000Z</time>
      </trkpt>
      <trkpt lat="47.90306" lon="7.18702">
        <ele>495.39999389648</ele>
        <time>2021-07-11T07:04:40.000Z</time>
      </trkpt>
      <trkpt lat="47.90307" lon="7.18699">
        <ele>496</ele>
        <time>2021-07-11T07:04:41.000Z</time>
      </trkpt>
      <trkpt lat="47.90307" lon="7.18697">
        <ele>496.39999389648</ele>
        <time>2021-07-11T07:04:42.000Z</time>
      </trkpt>
      <trkpt lat="47.90307" lon="7.18696">
        <ele>496.79998779297</ele>
        <time>2021-07-11T07:04:43.000Z</time>
      </trkpt>
      <trkpt lat="47.90308" lon="7.18694">
        <ele>497.20001220703</ele>
        <time>2021-07-11T07:04:44.000Z</time>
      </trkpt>
      <trkpt lat="47.90312" lon="7.18689">
        <ele>497.20001220703</ele>
        <time>2021-07-11T07:04:48.000Z</time>
      </trkpt>
      <trkpt lat="47.90314" lon="7.18686">
        <ele>497.20001220703</ele>
        <time>2021-07-11T07:04:50.000Z</time>
      </trkpt>
      <trkpt lat="47.90315" lon="7.18685">
        <ele>497.60000610352</ele>
        <time>2021-07-11T07:04:51.000Z</time>
      </trkpt>
      <trkpt lat="47.90316" lon="7.18684">
        <ele>498</ele>
        <time>2021-07-11T07:04:52.000Z</time>
      </trkpt>
      <trkpt lat="47.90317" lon="7.18683">
        <ele>498.39999389648</ele>
        <time>2021-07-11T07:04:53.000Z</time>
      </trkpt>
      <trkpt lat="47.90318" lon="7.18682">
        <ele>499</ele>
        <time>2021-07-11T07:04:54.000Z</time>
      </trkpt>
      <trkpt lat="47.90319" lon="7.18681">
        <ele>499.39999389648</ele>
        <time>2021-07-11T07:04:55.000Z</time>
      </trkpt>
      <trkpt lat="47.9032" lon="7.18681">
        <ele>499.39999389648</ele>
        <time>2021-07-11T07:04:56.000Z</time>
      </trkpt>
      <trkpt lat="47.90322" lon="7.1868">
        <ele>499.39999389648</ele>
        <time>2021-07-11T07:04:57.000Z</time>
      </trkpt>
      <trkpt lat="47.90336" lon="7.18672">
        <ele>499.39999389648</ele>
        <time>2021-07-11T07:05:04.000Z</time>
      </trkpt>
      <trkpt lat="47.90342" lon="7.18671">
        <ele>499.79998779297</ele>
        <time>2021-07-11T07:05:07.000Z</time>
      </trkpt>
      <trkpt lat="47.90344" lon="7.1867">
        <ele>500.20001220703</ele>
        <time>2021-07-11T07:05:08.000Z</time>
      </trkpt>
      <trkpt lat="47.90346" lon="7.1867">
        <ele>500.60000610352</ele>
        <time>2021-07-11T07:05:09.000Z</time>
      </trkpt>
      <trkpt lat="47.90348" lon="7.18669">
        <ele>501</ele>
        <time>2021-07-11T07:05:10.000Z</time>
      </trkpt>
      <trkpt lat="47.9035" lon="7.18669">
        <ele>501.39999389648</ele>
        <time>2021-07-11T07:05:11.000Z</time>
      </trkpt>
      <trkpt lat="47.90352" lon="7.18668">
        <ele>501.39999389648</ele>
        <time>2021-07-11T07:05:12.000Z</time>
      </trkpt>
      <trkpt lat="47.90359" lon="7.18666">
        <ele>501.39999389648</ele>
        <time>2021-07-11T07:05:17.000Z</time>
      </trkpt>
      <trkpt lat="47.9036" lon="7.18666">
        <ele>501.79998779297</ele>
        <time>2021-07-11T07:05:18.000Z</time>
      </trkpt>
      <trkpt lat="47.90361" lon="7.18665">
        <ele>502.39999389648</ele>
        <time>2021-07-11T07:05:19.000Z</time>
      </trkpt>
      <trkpt lat="47.90363" lon="7.18664">
        <ele>502.79998779297</ele>
        <time>2021-07-11T07:05:20.000Z</time>
      </trkpt>
      <trkpt lat="47.90365" lon="7.18662">
        <ele>503.20001220703</ele>
        <time>2021-07-11T07:05:21.000Z</time>
      </trkpt>
      <trkpt lat="47.90367" lon="7.18661">
        <ele>503.60000610352</ele>
        <time>2021-07-11T07:05:22.000Z</time>
      </trkpt>
      <trkpt lat="47.9037" lon="7.18659">
        <ele>503.60000610352</ele>
        <time>2021-07-11T07:05:24.000Z</time>
      </trkpt>
      <trkpt lat="47.90379" lon="7.18656">
        <ele>504</ele>
        <time>2021-07-11T07:05:30.000Z</time>
      </trkpt>
      <trkpt lat="47.9038" lon="7.18655">
        <ele>504.39999389648</ele>
        <time>2021-07-11T07:05:31.000Z</time>
      </trkpt>
      <trkpt lat="47.90382" lon="7.18655">
        <ele>504.79998779297</ele>
        <time>2021-07-11T07:05:32.000Z</time>
      </trkpt>
      <trkpt lat="47.90383" lon="7.18654">
        <ele>505.20001220703</ele>
        <time>2021-07-11T07:05:33.000Z</time>
      </trkpt>
      <trkpt lat="47.90385" lon="7.18654">
        <ele>505.79998779297</ele>
        <time>2021-07-11T07:05:34.000Z</time>
      </trkpt>
      <trkpt lat="47.90391" lon="7.18653">
        <ele>505.79998779297</ele>
        <time>2021-07-11T07:05:38.000Z</time>
      </trkpt>
      <trkpt lat="47.90393" lon="7.18652">
        <ele>506.20001220703</ele>
        <time>2021-07-11T07:05:39.000Z</time>
      </trkpt>
      <trkpt lat="47.90395" lon="7.18651">
        <ele>506.60000610352</ele>
        <time>2021-07-11T07:05:40.000Z</time>
      </trkpt>
      <trkpt lat="47.90397" lon="7.1865">
        <ele>507</ele>
        <time>2021-07-11T07:05:41.000Z</time>
      </trkpt>
      <trkpt lat="47.90399" lon="7.1865">
        <ele>507.39999389648</ele>
        <time>2021-07-11T07:05:42.000Z</time>
      </trkpt>
      <trkpt lat="47.90401" lon="7.18649">
        <ele>507.79998779297</ele>
        <time>2021-07-11T07:05:43.000Z</time>
      </trkpt>
      <trkpt lat="47.90402" lon="7.18649">
        <ele>507.79998779297</ele>
        <time>2021-07-11T07:05:44.000Z</time>
      </trkpt>
      <trkpt lat="47.90412" lon="7.18646">
        <ele>507.79998779297</ele>
        <time>2021-07-11T07:05:50.000Z</time>
      </trkpt>
      <trkpt lat="47.90413" lon="7.18646">
        <ele>508.20001220703</ele>
        <time>2021-07-11T07:05:51.000Z</time>
      </trkpt>
      <trkpt lat="47.90415" lon="7.18646">
        <ele>508.60000610352</ele>
        <time>2021-07-11T07:05:52.000Z</time>
      </trkpt>
      <trkpt lat="47.90416" lon="7.18645">
        <ele>509</ele>
        <time>2021-07-11T07:05:53.000Z</time>
      </trkpt>
      <trkpt lat="47.90418" lon="7.18645">
        <ele>509.60000610352</ele>
        <time>2021-07-11T07:05:54.000Z</time>
      </trkpt>
      <trkpt lat="47.9042" lon="7.18644">
        <ele>510</ele>
        <time>2021-07-11T07:05:55.000Z</time>
      </trkpt>
      <trkpt lat="47.90423" lon="7.18643">
        <ele>510</ele>
        <time>2021-07-11T07:05:57.000Z</time>
      </trkpt>
      <trkpt lat="47.9043" lon="7.18644">
        <ele>510.39999389648</ele>
        <time>2021-07-11T07:06:01.000Z</time>
      </trkpt>
      <trkpt lat="47.90432" lon="7.18644">
        <ele>511.20001220703</ele>
        <time>2021-07-11T07:06:02.000Z</time>
      </trkpt>
      <trkpt lat="47.90433" lon="7.18644">
        <ele>511.60000610352</ele>
        <time>2021-07-11T07:06:03.000Z</time>
      </trkpt>
      <trkpt lat="47.90435" lon="7.18644">
        <ele>512.20001220703</ele>
        <time>2021-07-11T07:06:04.000Z</time>
      </trkpt>
      <trkpt lat="47.90446" lon="7.18643">
        <ele>512.20001220703</ele>
        <time>2021-07-11T07:06:11.000Z</time>
      </trkpt>
      <trkpt lat="47.9045" lon="7.18643">
        <ele>512.59997558594</ele>
        <time>2021-07-11T07:06:13.000Z</time>
      </trkpt>
      <trkpt lat="47.90452" lon="7.18642">
        <ele>513</ele>
        <time>2021-07-11T07:06:14.000Z</time>
      </trkpt>
      <trkpt lat="47.90454" lon="7.18642">
        <ele>513.40002441406</ele>
        <time>2021-07-11T07:06:15.000Z</time>
      </trkpt>
      <trkpt lat="47.90457" lon="7.18642">
        <ele>513.79998779297</ele>
        <time>2021-07-11T07:06:16.000Z</time>
      </trkpt>
      <trkpt lat="47.90459" lon="7.18642">
        <ele>514.20001220703</ele>
        <time>2021-07-11T07:06:17.000Z</time>
      </trkpt>
      <trkpt lat="47.90461" lon="7.18641">
        <ele>514.20001220703</ele>
        <time>2021-07-11T07:06:18.000Z</time>
      </trkpt>
      <trkpt lat="47.90473" lon="7.1864">
        <ele>514.59997558594</ele>
        <time>2021-07-11T07:06:24.000Z</time>
      </trkpt>
      <trkpt lat="47.90475" lon="7.1864">
        <ele>515</ele>
        <time>2021-07-11T07:06:25.000Z</time>
      </trkpt>
      <trkpt lat="47.90476" lon="7.1864">
        <ele>515.40002441406</ele>
        <time>2021-07-11T07:06:26.000Z</time>
      </trkpt>
      <trkpt lat="47.90477" lon="7.1864">
        <ele>516.40002441406</ele>
        <time>2021-07-11T07:06:27.000Z</time>
      </trkpt>
      <trkpt lat="47.90486" lon="7.18639">
        <ele>516.40002441406</ele>
        <time>2021-07-11T07:06:32.000Z</time>
      </trkpt>
      <trkpt lat="47.90492" lon="7.18639">
        <ele>516.79998779297</ele>
        <time>2021-07-11T07:06:35.000Z</time>
      </trkpt>
      <trkpt lat="47.90493" lon="7.18639">
        <ele>517.20001220703</ele>
        <time>2021-07-11T07:06:36.000Z</time>
      </trkpt>
      <trkpt lat="47.90495" lon="7.18639">
        <ele>517.59997558594</ele>
        <time>2021-07-11T07:06:37.000Z</time>
      </trkpt>
      <trkpt lat="47.90496" lon="7.18639">
        <ele>518</ele>
        <time>2021-07-11T07:06:38.000Z</time>
      </trkpt>
      <trkpt lat="47.90498" lon="7.18639">
        <ele>518.40002441406</ele>
        <time>2021-07-11T07:06:39.000Z</time>
      </trkpt>
      <trkpt lat="47.90512" lon="7.18638">
        <ele>518.79998779297</ele>
        <time>2021-07-11T07:06:46.000Z</time>
      </trkpt>
      <trkpt lat="47.90514" lon="7.18638">
        <ele>519.20001220703</ele>
        <time>2021-07-11T07:06:47.000Z</time>
      </trkpt>
      <trkpt lat="47.90516" lon="7.18637">
        <ele>519.59997558594</ele>
        <time>2021-07-11T07:06:48.000Z</time>
      </trkpt>
      <trkpt lat="47.90518" lon="7.18637">
        <ele>520</ele>
        <time>2021-07-11T07:06:49.000Z</time>
      </trkpt>
      <trkpt lat="47.90519" lon="7.18636">
        <ele>520.40002441406</ele>
        <time>2021-07-11T07:06:50.000Z</time>
      </trkpt>
      <trkpt lat="47.90526" lon="7.18634">
        <ele>520.40002441406</ele>
        <time>2021-07-11T07:06:53.000Z</time>
      </trkpt>
      <trkpt lat="47.90536" lon="7.18632">
        <ele>521</ele>
        <time>2021-07-11T07:06:57.000Z</time>
      </trkpt>
      <trkpt lat="47.90538" lon="7.18632">
        <ele>521.40002441406</ele>
        <time>2021-07-11T07:06:58.000Z</time>
      </trkpt>
      <trkpt lat="47.90541" lon="7.18632">
        <ele>521.79998779297</ele>
        <time>2021-07-11T07:06:59.000Z</time>
      </trkpt>
      <trkpt lat="47.90543" lon="7.18633">
        <ele>522.20001220703</ele>
        <time>2021-07-11T07:07:00.000Z</time>
      </trkpt>
      <trkpt lat="47.90544" lon="7.18633">
        <ele>522.79998779297</ele>
        <time>2021-07-11T07:07:01.000Z</time>
      </trkpt>
      <trkpt lat="47.9055" lon="7.18635">
        <ele>523.20001220703</ele>
        <time>2021-07-11T07:07:05.000Z</time>
      </trkpt>
      <trkpt lat="47.90552" lon="7.18635">
        <ele>523.59997558594</ele>
        <time>2021-07-11T07:07:06.000Z</time>
      </trkpt>
      <trkpt lat="47.90553" lon="7.18635">
        <ele>524</ele>
        <time>2021-07-11T07:07:07.000Z</time>
      </trkpt>
      <trkpt lat="47.90555" lon="7.18635">
        <ele>524.40002441406</ele>
        <time>2021-07-11T07:07:08.000Z</time>
      </trkpt>
      <trkpt lat="47.90558" lon="7.18636">
        <ele>524.79998779297</ele>
        <time>2021-07-11T07:07:09.000Z</time>
      </trkpt>
      <trkpt lat="47.90566" lon="7.18638">
        <ele>524.79998779297</ele>
        <time>2021-07-11T07:07:12.000Z</time>
      </trkpt>
      <trkpt lat="47.90572" lon="7.18642">
        <ele>525.20001220703</ele>
        <time>2021-07-11T07:07:15.000Z</time>
      </trkpt>
      <trkpt lat="47.90574" lon="7.18642">
        <ele>526</ele>
        <time>2021-07-11T07:07:16.000Z</time>
      </trkpt>
      <trkpt lat="47.90576" lon="7.18643">
        <ele>526.40002441406</ele>
        <time>2021-07-11T07:07:17.000Z</time>
      </trkpt>
      <trkpt lat="47.90578" lon="7.18643">
        <ele>526.79998779297</ele>
        <time>2021-07-11T07:07:18.000Z</time>
      </trkpt>
      <trkpt lat="47.9058" lon="7.18643">
        <ele>526.79998779297</ele>
        <time>2021-07-11T07:07:19.000Z</time>
      </trkpt>
      <trkpt lat="47.90592" lon="7.18646">
        <ele>527.20001220703</ele>
        <time>2021-07-11T07:07:25.000Z</time>
      </trkpt>
      <trkpt lat="47.90595" lon="7.18646">
        <ele>527.59997558594</ele>
        <time>2021-07-11T07:07:26.000Z</time>
      </trkpt>
      <trkpt lat="47.90597" lon="7.18646">
        <ele>528</ele>
        <time>2021-07-11T07:07:27.000Z</time>
      </trkpt>
      <trkpt lat="47.90599" lon="7.18647">
        <ele>528.40002441406</ele>
        <time>2021-07-11T07:07:28.000Z</time>
      </trkpt>
      <trkpt lat="47.90601" lon="7.18646">
        <ele>528.79998779297</ele>
        <time>2021-07-11T07:07:29.000Z</time>
      </trkpt>
      <trkpt lat="47.90606" lon="7.18647">
        <ele>528.79998779297</ele>
        <time>2021-07-11T07:07:32.000Z</time>
      </trkpt>
      <trkpt lat="47.90618" lon="7.18647">
        <ele>529.20001220703</ele>
        <time>2021-07-11T07:07:38.000Z</time>
      </trkpt>
      <trkpt lat="47.90619" lon="7.18647">
        <ele>529.59997558594</ele>
        <time>2021-07-11T07:07:39.000Z</time>
      </trkpt>
      <trkpt lat="47.90621" lon="7.18646">
        <ele>530.20001220703</ele>
        <time>2021-07-11T07:07:40.000Z</time>
      </trkpt>
      <trkpt lat="47.90622" lon="7.18646">
        <ele>531</ele>
        <time>2021-07-11T07:07:41.000Z</time>
      </trkpt>
      <trkpt lat="47.90632" lon="7.18645">
        <ele>531</ele>
        <time>2021-07-11T07:07:47.000Z</time>
      </trkpt>
      <trkpt lat="47.90638" lon="7.18645">
        <ele>531.40002441406</ele>
        <time>2021-07-11T07:07:50.000Z</time>
      </trkpt>
      <trkpt lat="47.9064" lon="7.18645">
        <ele>531.79998779297</ele>
        <time>2021-07-11T07:07:51.000Z</time>
      </trkpt>
      <trkpt lat="47.90642" lon="7.18644">
        <ele>532.20001220703</ele>
        <time>2021-07-11T07:07:52.000Z</time>
      </trkpt>
      <trkpt lat="47.90644" lon="7.18644">
        <ele>532.59997558594</ele>
        <time>2021-07-11T07:07:53.000Z</time>
      </trkpt>
      <trkpt lat="47.90646" lon="7.18644">
        <ele>533</ele>
        <time>2021-07-11T07:07:54.000Z</time>
      </trkpt>
      <trkpt lat="47.90657" lon="7.18644">
        <ele>533</ele>
        <time>2021-07-11T07:08:00.000Z</time>
      </trkpt>
      <trkpt lat="47.90659" lon="7.18644">
        <ele>533.40002441406</ele>
        <time>2021-07-11T07:08:02.000Z</time>
      </trkpt>
      <trkpt lat="47.9066" lon="7.18644">
        <ele>533.79998779297</ele>
        <time>2021-07-11T07:08:03.000Z</time>
      </trkpt>
      <trkpt lat="47.90661" lon="7.18643">
        <ele>534.20001220703</ele>
        <time>2021-07-11T07:08:04.000Z</time>
      </trkpt>
      <trkpt lat="47.90662" lon="7.18643">
        <ele>534.59997558594</ele>
        <time>2021-07-11T07:08:05.000Z</time>
      </trkpt>
      <trkpt lat="47.90662" lon="7.18642">
        <ele>535</ele>
        <time>2021-07-11T07:08:06.000Z</time>
      </trkpt>
      <trkpt lat="47.90663" lon="7.18642">
        <ele>535</ele>
        <time>2021-07-11T07:08:07.000Z</time>
      </trkpt>
      <trkpt lat="47.90664" lon="7.18641">
        <ele>535</ele>
        <time>2021-07-11T07:08:08.000Z</time>
      </trkpt>
      <trkpt lat="47.90674" lon="7.18632">
        <ele>536.59997558594</ele>
        <time>2021-07-11T07:09:22.000Z</time>
      </trkpt>
      <trkpt lat="47.90676" lon="7.18631">
        <ele>537</ele>
        <time>2021-07-11T07:09:23.000Z</time>
      </trkpt>
      <trkpt lat="47.9068" lon="7.18628">
        <ele>537</ele>
        <time>2021-07-11T07:09:25.000Z</time>
      </trkpt>
      <trkpt lat="47.90694" lon="7.18617">
        <ele>537</ele>
        <time>2021-07-11T07:09:32.000Z</time>
      </trkpt>
      <trkpt lat="47.907" lon="7.18611">
        <ele>537.40002441406</ele>
        <time>2021-07-11T07:09:36.000Z</time>
      </trkpt>
      <trkpt lat="47.90702" lon="7.1861">
        <ele>537.79998779297</ele>
        <time>2021-07-11T07:09:37.000Z</time>
      </trkpt>
      <trkpt lat="47.90704" lon="7.18608">
        <ele>538.20001220703</ele>
        <time>2021-07-11T07:09:38.000Z</time>
      </trkpt>
      <trkpt lat="47.90705" lon="7.18606">
        <ele>538.59997558594</ele>
        <time>2021-07-11T07:09:39.000Z</time>
      </trkpt>
      <trkpt lat="47.90706" lon="7.18604">
        <ele>539</ele>
        <time>2021-07-11T07:09:40.000Z</time>
      </trkpt>
      <trkpt lat="47.90715" lon="7.18591">
        <ele>539</ele>
        <time>2021-07-11T07:09:45.000Z</time>
      </trkpt>
      <trkpt lat="47.9072" lon="7.18582">
        <ele>539</ele>
        <time>2021-07-11T07:09:48.000Z</time>
      </trkpt>
      <trkpt lat="47.90723" lon="7.18576">
        <ele>539.40002441406</ele>
        <time>2021-07-11T07:09:50.000Z</time>
      </trkpt>
      <trkpt lat="47.90724" lon="7.18574">
        <ele>539.79998779297</ele>
        <time>2021-07-11T07:09:51.000Z</time>
      </trkpt>
      <trkpt lat="47.90725" lon="7.18571">
        <ele>540.20001220703</ele>
        <time>2021-07-11T07:09:52.000Z</time>
      </trkpt>
      <trkpt lat="47.90726" lon="7.18567">
        <ele>540.59997558594</ele>
        <time>2021-07-11T07:09:53.000Z</time>
      </trkpt>
      <trkpt lat="47.90727" lon="7.18564">
        <ele>541.20001220703</ele>
        <time>2021-07-11T07:09:54.000Z</time>
      </trkpt>
      <trkpt lat="47.90729" lon="7.18555">
        <ele>541.20001220703</ele>
        <time>2021-07-11T07:09:56.000Z</time>
      </trkpt>
      <trkpt lat="47.90736" lon="7.18531">
        <ele>541.20001220703</ele>
        <time>2021-07-11T07:10:02.000Z</time>
      </trkpt>
      <trkpt lat="47.90745" lon="7.18511">
        <ele>541.20001220703</ele>
        <time>2021-07-11T07:10:09.000Z</time>
      </trkpt>
      <trkpt lat="47.90759" lon="7.18498">
        <ele>541.20001220703</ele>
        <time>2021-07-11T07:10:17.000Z</time>
      </trkpt>
      <trkpt lat="47.90764" lon="7.18492">
        <ele>541.59997558594</ele>
        <time>2021-07-11T07:10:19.000Z</time>
      </trkpt>
      <trkpt lat="47.90766" lon="7.1849">
        <ele>542</ele>
        <time>2021-07-11T07:10:20.000Z</time>
      </trkpt>
      <trkpt lat="47.90769" lon="7.18488">
        <ele>542.40002441406</ele>
        <time>2021-07-11T07:10:21.000Z</time>
      </trkpt>
      <trkpt lat="47.90772" lon="7.18486">
        <ele>542.79998779297</ele>
        <time>2021-07-11T07:10:22.000Z</time>
      </trkpt>
      <trkpt lat="47.90775" lon="7.18484">
        <ele>543.20001220703</ele>
        <time>2021-07-11T07:10:23.000Z</time>
      </trkpt>
      <trkpt lat="47.90777" lon="7.18483">
        <ele>543.20001220703</ele>
        <time>2021-07-11T07:10:24.000Z</time>
      </trkpt>
      <trkpt lat="47.90797" lon="7.18474">
        <ele>543.20001220703</ele>
        <time>2021-07-11T07:10:31.000Z</time>
      </trkpt>
      <trkpt lat="47.90817" lon="7.18467">
        <ele>543.20001220703</ele>
        <time>2021-07-11T07:10:37.000Z</time>
      </trkpt>
      <trkpt lat="47.90834" lon="7.18461">
        <ele>543.59997558594</ele>
        <time>2021-07-11T07:10:44.000Z</time>
      </trkpt>
      <trkpt lat="47.90837" lon="7.1846">
        <ele>544</ele>
        <time>2021-07-11T07:10:45.000Z</time>
      </trkpt>
      <trkpt lat="47.90839" lon="7.18459">
        <ele>544.40002441406</ele>
        <time>2021-07-11T07:10:46.000Z</time>
      </trkpt>
      <trkpt lat="47.90842" lon="7.18458">
        <ele>544.79998779297</ele>
        <time>2021-07-11T07:10:47.000Z</time>
      </trkpt>
      <trkpt lat="47.90845" lon="7.18458">
        <ele>545.20001220703</ele>
        <time>2021-07-11T07:10:48.000Z</time>
      </trkpt>
      <trkpt lat="47.90852" lon="7.18456">
        <ele>545.20001220703</ele>
        <time>2021-07-11T07:10:51.000Z</time>
      </trkpt>
      <trkpt lat="47.90866" lon="7.18453">
        <ele>545.20001220703</ele>
        <time>2021-07-11T07:10:56.000Z</time>
      </trkpt>
      <trkpt lat="47.90881" lon="7.18459">
        <ele>545.20001220703</ele>
        <time>2021-07-11T07:11:02.000Z</time>
      </trkpt>
      <trkpt lat="47.90888" lon="7.1847">
        <ele>545.59997558594</ele>
        <time>2021-07-11T07:11:06.000Z</time>
      </trkpt>
      <trkpt lat="47.90889" lon="7.18474">
        <ele>546</ele>
        <time>2021-07-11T07:11:07.000Z</time>
      </trkpt>
      <trkpt lat="47.90891" lon="7.18477">
        <ele>546.40002441406</ele>
        <time>2021-07-11T07:11:08.000Z</time>
      </trkpt>
      <trkpt lat="47.90893" lon="7.18481">
        <ele>547</ele>
        <time>2021-07-11T07:11:09.000Z</time>
      </trkpt>
      <trkpt lat="47.90895" lon="7.18484">
        <ele>547.40002441406</ele>
        <time>2021-07-11T07:11:10.000Z</time>
      </trkpt>
      <trkpt lat="47.90903" lon="7.18495">
        <ele>547.40002441406</ele>
        <time>2021-07-11T07:11:13.000Z</time>
      </trkpt>
      <trkpt lat="47.90919" lon="7.1851">
        <ele>547.40002441406</ele>
        <time>2021-07-11T07:11:19.000Z</time>
      </trkpt>
      <trkpt lat="47.90946" lon="7.18526">
        <ele>547.40002441406</ele>
        <time>2021-07-11T07:11:26.000Z</time>
      </trkpt>
      <trkpt lat="47.90967" lon="7.18532">
        <ele>547.40002441406</ele>
        <time>2021-07-11T07:11:32.000Z</time>
      </trkpt>
      <trkpt lat="47.9099" lon="7.18539">
        <ele>547.40002441406</ele>
        <time>2021-07-11T07:11:39.000Z</time>
      </trkpt>
      <trkpt lat="47.91007" lon="7.18542">
        <ele>547.40002441406</ele>
        <time>2021-07-11T07:11:45.000Z</time>
      </trkpt>
      <trkpt lat="47.91031" lon="7.18531">
        <ele>547.40002441406</ele>
        <time>2021-07-11T07:11:52.000Z</time>
      </trkpt>
      <trkpt lat="47.9104" lon="7.18522">
        <ele>547.40002441406</ele>
        <time>2021-07-11T07:11:55.000Z</time>
      </trkpt>
      <trkpt lat="47.91042" lon="7.18518">
        <ele>547.40002441406</ele>
        <time>2021-07-11T07:11:56.000Z</time>
      </trkpt>
      <trkpt lat="47.91043" lon="7.18505">
        <ele>547.40002441406</ele>
        <time>2021-07-11T07:12:00.000Z</time>
      </trkpt>
      <trkpt lat="47.91041" lon="7.18494">
        <ele>547.40002441406</ele>
        <time>2021-07-11T07:12:03.000Z</time>
      </trkpt>
      <trkpt lat="47.91037" lon="7.18479">
        <ele>547.40002441406</ele>
        <time>2021-07-11T07:12:07.000Z</time>
      </trkpt>
      <trkpt lat="47.9103" lon="7.18452">
        <ele>547.40002441406</ele>
        <time>2021-07-11T07:12:13.000Z</time>
      </trkpt>
      <trkpt lat="47.91028" lon="7.18446">
        <ele>546.40002441406</ele>
        <time>2021-07-11T07:12:14.000Z</time>
      </trkpt>
      <trkpt lat="47.91026" lon="7.18441">
        <ele>546</ele>
        <time>2021-07-11T07:12:15.000Z</time>
      </trkpt>
      <trkpt lat="47.91025" lon="7.18436">
        <ele>545.40002441406</ele>
        <time>2021-07-11T07:12:16.000Z</time>
      </trkpt>
      <trkpt lat="47.91023" lon="7.18432">
        <ele>545</ele>
        <time>2021-07-11T07:12:17.000Z</time>
      </trkpt>
      <trkpt lat="47.91019" lon="7.18422">
        <ele>545</ele>
        <time>2021-07-11T07:12:19.000Z</time>
      </trkpt>
      <trkpt lat="47.91015" lon="7.18393">
        <ele>545</ele>
        <time>2021-07-11T07:12:25.000Z</time>
      </trkpt>
      <trkpt lat="47.91019" lon="7.18355">
        <ele>545</ele>
        <time>2021-07-11T07:12:32.000Z</time>
      </trkpt>
      <trkpt lat="47.91028" lon="7.18325">
        <ele>545</ele>
        <time>2021-07-11T07:12:39.000Z</time>
      </trkpt>
      <trkpt lat="47.91039" lon="7.18302">
        <ele>545</ele>
        <time>2021-07-11T07:12:46.000Z</time>
      </trkpt>
      <trkpt lat="47.91054" lon="7.18286">
        <ele>545</ele>
        <time>2021-07-11T07:12:51.000Z</time>
      </trkpt>
      <trkpt lat="47.9107" lon="7.18258">
        <ele>545</ele>
        <time>2021-07-11T07:12:58.000Z</time>
      </trkpt>
      <trkpt lat="47.91077" lon="7.18233">
        <ele>545</ele>
        <time>2021-07-11T07:13:04.000Z</time>
      </trkpt>
      <trkpt lat="47.91089" lon="7.18198">
        <ele>545</ele>
        <time>2021-07-11T07:13:11.000Z</time>
      </trkpt>
      <trkpt lat="47.91101" lon="7.18169">
        <ele>545</ele>
        <time>2021-07-11T07:13:17.000Z</time>
      </trkpt>
      <trkpt lat="47.91113" lon="7.18155">
        <ele>545</ele>
        <time>2021-07-11T07:13:23.000Z</time>
      </trkpt>
      <trkpt lat="47.9113" lon="7.18134">
        <ele>545</ele>
        <time>2021-07-11T07:13:31.000Z</time>
      </trkpt>
      <trkpt lat="47.91148" lon="7.18112">
        <ele>545</ele>
        <time>2021-07-11T07:13:38.000Z</time>
      </trkpt>
      <trkpt lat="47.91164" lon="7.1808">
        <ele>545</ele>
        <time>2021-07-11T07:13:46.000Z</time>
      </trkpt>
      <trkpt lat="47.91169" lon="7.18058">
        <ele>545</ele>
        <time>2021-07-11T07:13:51.000Z</time>
      </trkpt>
      <trkpt lat="47.9117" lon="7.1804">
        <ele>545.40002441406</ele>
        <time>2021-07-11T07:13:56.000Z</time>
      </trkpt>
      <trkpt lat="47.9117" lon="7.18036">
        <ele>545.79998779297</ele>
        <time>2021-07-11T07:13:57.000Z</time>
      </trkpt>
      <trkpt lat="47.9117" lon="7.18033">
        <ele>546.20001220703</ele>
        <time>2021-07-11T07:13:58.000Z</time>
      </trkpt>
      <trkpt lat="47.9117" lon="7.1803">
        <ele>546.59997558594</ele>
        <time>2021-07-11T07:13:59.000Z</time>
      </trkpt>
      <trkpt lat="47.91171" lon="7.18025">
        <ele>547</ele>
        <time>2021-07-11T07:14:00.000Z</time>
      </trkpt>
      <trkpt lat="47.91171" lon="7.18015">
        <ele>547</ele>
        <time>2021-07-11T07:14:02.000Z</time>
      </trkpt>
      <trkpt lat="47.91166" lon="7.17993">
        <ele>547</ele>
        <time>2021-07-11T07:14:07.000Z</time>
      </trkpt>
      <trkpt lat="47.91155" lon="7.17978">
        <ele>547</ele>
        <time>2021-07-11T07:14:13.000Z</time>
      </trkpt>
      <trkpt lat="47.91143" lon="7.17966">
        <ele>547</ele>
        <time>2021-07-11T07:14:19.000Z</time>
      </trkpt>
      <trkpt lat="47.9113" lon="7.17953">
        <ele>547</ele>
        <time>2021-07-11T07:14:24.000Z</time>
      </trkpt>
      <trkpt lat="47.91128" lon="7.1795">
        <ele>547.40002441406</ele>
        <time>2021-07-11T07:14:25.000Z</time>
      </trkpt>
      <trkpt lat="47.91125" lon="7.17947">
        <ele>548</ele>
        <time>2021-07-11T07:14:26.000Z</time>
      </trkpt>
      <trkpt lat="47.91123" lon="7.17944">
        <ele>548.40002441406</ele>
        <time>2021-07-11T07:14:27.000Z</time>
      </trkpt>
      <trkpt lat="47.91121" lon="7.17941">
        <ele>548.79998779297</ele>
        <time>2021-07-11T07:14:28.000Z</time>
      </trkpt>
      <trkpt lat="47.91119" lon="7.17938">
        <ele>549.20001220703</ele>
        <time>2021-07-11T07:14:29.000Z</time>
      </trkpt>
      <trkpt lat="47.91114" lon="7.17931">
        <ele>549.20001220703</ele>
        <time>2021-07-11T07:14:32.000Z</time>
      </trkpt>
      <trkpt lat="47.91109" lon="7.17923">
        <ele>549.59997558594</ele>
        <time>2021-07-11T07:14:35.000Z</time>
      </trkpt>
      <trkpt lat="47.91107" lon="7.17921">
        <ele>550</ele>
        <time>2021-07-11T07:14:36.000Z</time>
      </trkpt>
      <trkpt lat="47.91106" lon="7.17919">
        <ele>550.40002441406</ele>
        <time>2021-07-11T07:14:37.000Z</time>
      </trkpt>
      <trkpt lat="47.91104" lon="7.17917">
        <ele>550.79998779297</ele>
        <time>2021-07-11T07:14:38.000Z</time>
      </trkpt>
      <trkpt lat="47.91102" lon="7.17915">
        <ele>551.40002441406</ele>
        <time>2021-07-11T07:14:39.000Z</time>
      </trkpt>
      <trkpt lat="47.91094" lon="7.17904">
        <ele>551.40002441406</ele>
        <time>2021-07-11T07:14:43.000Z</time>
      </trkpt>
      <trkpt lat="47.91092" lon="7.17903">
        <ele>551.40002441406</ele>
        <time>2021-07-11T07:14:44.000Z</time>
      </trkpt>
      <trkpt lat="47.91085" lon="7.17901">
        <ele>551.40002441406</ele>
        <time>2021-07-11T07:14:47.000Z</time>
      </trkpt>
      <trkpt lat="47.91082" lon="7.17899">
        <ele>551.79998779297</ele>
        <time>2021-07-11T07:14:48.000Z</time>
      </trkpt>
      <trkpt lat="47.91081" lon="7.17897">
        <ele>552.20001220703</ele>
        <time>2021-07-11T07:14:49.000Z</time>
      </trkpt>
      <trkpt lat="47.91079" lon="7.17895">
        <ele>552.59997558594</ele>
        <time>2021-07-11T07:14:50.000Z</time>
      </trkpt>
      <trkpt lat="47.91077" lon="7.17893">
        <ele>553</ele>
        <time>2021-07-11T07:14:51.000Z</time>
      </trkpt>
      <trkpt lat="47.91074" lon="7.1789">
        <ele>553.40002441406</ele>
        <time>2021-07-11T07:14:52.000Z</time>
      </trkpt>
      <trkpt lat="47.91072" lon="7.17887">
        <ele>553.40002441406</ele>
        <time>2021-07-11T07:14:53.000Z</time>
      </trkpt>
      <trkpt lat="47.91057" lon="7.17871">
        <ele>553.40002441406</ele>
        <time>2021-07-11T07:15:00.000Z</time>
      </trkpt>
      <trkpt lat="47.91047" lon="7.17852">
        <ele>553.40002441406</ele>
        <time>2021-07-11T07:15:06.000Z</time>
      </trkpt>
      <trkpt lat="47.91038" lon="7.17837">
        <ele>553.79998779297</ele>
        <time>2021-07-11T07:15:10.000Z</time>
      </trkpt>
      <trkpt lat="47.91036" lon="7.17834">
        <ele>554.20001220703</ele>
        <time>2021-07-11T07:15:11.000Z</time>
      </trkpt>
      <trkpt lat="47.91035" lon="7.1783">
        <ele>554.59997558594</ele>
        <time>2021-07-11T07:15:12.000Z</time>
      </trkpt>
      <trkpt lat="47.91033" lon="7.17827">
        <ele>555.20001220703</ele>
        <time>2021-07-11T07:15:13.000Z</time>
      </trkpt>
      <trkpt lat="47.91032" lon="7.17823">
        <ele>555.59997558594</ele>
        <time>2021-07-11T07:15:14.000Z</time>
      </trkpt>
      <trkpt lat="47.91028" lon="7.17809">
        <ele>555.59997558594</ele>
        <time>2021-07-11T07:15:18.000Z</time>
      </trkpt>
      <trkpt lat="47.91015" lon="7.17777">
        <ele>555.59997558594</ele>
        <time>2021-07-11T07:15:26.000Z</time>
      </trkpt>
      <trkpt lat="47.91002" lon="7.17754">
        <ele>555.59997558594</ele>
        <time>2021-07-11T07:15:33.000Z</time>
      </trkpt>
      <trkpt lat="47.90986" lon="7.17731">
        <ele>556</ele>
        <time>2021-07-11T07:15:40.000Z</time>
      </trkpt>
      <trkpt lat="47.90983" lon="7.17728">
        <ele>556.40002441406</ele>
        <time>2021-07-11T07:15:41.000Z</time>
      </trkpt>
      <trkpt lat="47.90981" lon="7.17726">
        <ele>556.79998779297</ele>
        <time>2021-07-11T07:15:42.000Z</time>
      </trkpt>
      <trkpt lat="47.90979" lon="7.17723">
        <ele>557.20001220703</ele>
        <time>2021-07-11T07:15:43.000Z</time>
      </trkpt>
      <trkpt lat="47.90977" lon="7.17721">
        <ele>557.59997558594</ele>
        <time>2021-07-11T07:15:44.000Z</time>
      </trkpt>
      <trkpt lat="47.90972" lon="7.17717">
        <ele>557.59997558594</ele>
        <time>2021-07-11T07:15:46.000Z</time>
      </trkpt>
      <trkpt lat="47.90959" lon="7.17708">
        <ele>557.59997558594</ele>
        <time>2021-07-11T07:15:52.000Z</time>
      </trkpt>
      <trkpt lat="47.90949" lon="7.17696">
        <ele>557.59997558594</ele>
        <time>2021-07-11T07:15:57.000Z</time>
      </trkpt>
      <trkpt lat="47.90942" lon="7.17675">
        <ele>557.59997558594</ele>
        <time>2021-07-11T07:16:03.000Z</time>
      </trkpt>
      <trkpt lat="47.90941" lon="7.17673">
        <ele>558</ele>
        <time>2021-07-11T07:16:04.000Z</time>
      </trkpt>
      <trkpt lat="47.90941" lon="7.1767">
        <ele>558.40002441406</ele>
        <time>2021-07-11T07:16:05.000Z</time>
      </trkpt>
      <trkpt lat="47.90941" lon="7.17668">
        <ele>558.79998779297</ele>
        <time>2021-07-11T07:16:06.000Z</time>
      </trkpt>
      <trkpt lat="47.90941" lon="7.17665">
        <ele>559.20001220703</ele>
        <time>2021-07-11T07:16:07.000Z</time>
      </trkpt>
      <trkpt lat="47.90941" lon="7.17663">
        <ele>559.59997558594</ele>
        <time>2021-07-11T07:16:08.000Z</time>
      </trkpt>
      <trkpt lat="47.90941" lon="7.17658">
        <ele>559.59997558594</ele>
        <time>2021-07-11T07:16:10.000Z</time>
      </trkpt>
      <trkpt lat="47.90946" lon="7.17652">
        <ele>559.59997558594</ele>
        <time>2021-07-11T07:16:38.000Z</time>
      </trkpt>
      <trkpt lat="47.90947" lon="7.1765">
        <ele>559.59997558594</ele>
        <time>2021-07-11T07:16:39.000Z</time>
      </trkpt>
      <trkpt lat="47.9095" lon="7.17641">
        <ele>559.59997558594</ele>
        <time>2021-07-11T07:16:42.000Z</time>
      </trkpt>
      <trkpt lat="47.90952" lon="7.17627">
        <ele>559.59997558594</ele>
        <time>2021-07-11T07:16:45.000Z</time>
      </trkpt>
      <trkpt lat="47.90951" lon="7.17608">
        <ele>559.59997558594</ele>
        <time>2021-07-11T07:16:51.000Z</time>
      </trkpt>
      <trkpt lat="47.90951" lon="7.17585">
        <ele>559.59997558594</ele>
        <time>2021-07-11T07:16:57.000Z</time>
      </trkpt>
      <trkpt lat="47.90959" lon="7.17555">
        <ele>559.59997558594</ele>
        <time>2021-07-11T07:17:04.000Z</time>
      </trkpt>
      <trkpt lat="47.9096" lon="7.17552">
        <ele>560</ele>
        <time>2021-07-11T07:17:05.000Z</time>
      </trkpt>
      <trkpt lat="47.90961" lon="7.17547">
        <ele>560.40002441406</ele>
        <time>2021-07-11T07:17:06.000Z</time>
      </trkpt>
      <trkpt lat="47.90963" lon="7.17543">
        <ele>560.79998779297</ele>
        <time>2021-07-11T07:17:07.000Z</time>
      </trkpt>
      <trkpt lat="47.90963" lon="7.17539">
        <ele>561.20001220703</ele>
        <time>2021-07-11T07:17:08.000Z</time>
      </trkpt>
      <trkpt lat="47.90964" lon="7.17535">
        <ele>561.59997558594</ele>
        <time>2021-07-11T07:17:09.000Z</time>
      </trkpt>
      <trkpt lat="47.90965" lon="7.17531">
        <ele>561.59997558594</ele>
        <time>2021-07-11T07:17:10.000Z</time>
      </trkpt>
      <trkpt lat="47.90969" lon="7.17497">
        <ele>561.59997558594</ele>
        <time>2021-07-11T07:17:17.000Z</time>
      </trkpt>
      <trkpt lat="47.90966" lon="7.17474">
        <ele>561.59997558594</ele>
        <time>2021-07-11T07:17:23.000Z</time>
      </trkpt>
      <trkpt lat="47.90966" lon="7.1747">
        <ele>562</ele>
        <time>2021-07-11T07:17:24.000Z</time>
      </trkpt>
      <trkpt lat="47.90965" lon="7.17467">
        <ele>562.40002441406</ele>
        <time>2021-07-11T07:17:25.000Z</time>
      </trkpt>
      <trkpt lat="47.90965" lon="7.17464">
        <ele>562.79998779297</ele>
        <time>2021-07-11T07:17:26.000Z</time>
      </trkpt>
      <trkpt lat="47.90965" lon="7.1746">
        <ele>563.40002441406</ele>
        <time>2021-07-11T07:17:27.000Z</time>
      </trkpt>
      <trkpt lat="47.90965" lon="7.17457">
        <ele>563.79998779297</ele>
        <time>2021-07-11T07:17:28.000Z</time>
      </trkpt>
      <trkpt lat="47.90966" lon="7.1745">
        <ele>563.79998779297</ele>
        <time>2021-07-11T07:17:30.000Z</time>
      </trkpt>
      <trkpt lat="47.90974" lon="7.17435">
        <ele>564.20001220703</ele>
        <time>2021-07-11T07:17:35.000Z</time>
      </trkpt>
      <trkpt lat="47.90976" lon="7.17432">
        <ele>564.59997558594</ele>
        <time>2021-07-11T07:17:36.000Z</time>
      </trkpt>
      <trkpt lat="47.90977" lon="7.1743">
        <ele>565</ele>
        <time>2021-07-11T07:17:37.000Z</time>
      </trkpt>
      <trkpt lat="47.9098" lon="7.17427">
        <ele>565.59997558594</ele>
        <time>2021-07-11T07:17:38.000Z</time>
      </trkpt>
      <trkpt lat="47.90982" lon="7.17424">
        <ele>566</ele>
        <time>2021-07-11T07:17:39.000Z</time>
      </trkpt>
      <trkpt lat="47.90986" lon="7.17417">
        <ele>566</ele>
        <time>2021-07-11T07:17:41.000Z</time>
      </trkpt>
      <trkpt lat="47.90989" lon="7.17412">
        <ele>566.40002441406</ele>
        <time>2021-07-11T07:17:43.000Z</time>
      </trkpt>
      <trkpt lat="47.9099" lon="7.17408">
        <ele>566.79998779297</ele>
        <time>2021-07-11T07:17:44.000Z</time>
      </trkpt>
      <trkpt lat="47.90991" lon="7.17405">
        <ele>567.20001220703</ele>
        <time>2021-07-11T07:17:45.000Z</time>
      </trkpt>
      <trkpt lat="47.90993" lon="7.17401">
        <ele>567.59997558594</ele>
        <time>2021-07-11T07:17:46.000Z</time>
      </trkpt>
      <trkpt lat="47.90994" lon="7.17398">
        <ele>568</ele>
        <time>2021-07-11T07:17:47.000Z</time>
      </trkpt>
      <trkpt lat="47.91005" lon="7.17389">
        <ele>568</ele>
        <time>2021-07-11T07:17:52.000Z</time>
      </trkpt>
      <trkpt lat="47.91008" lon="7.17387">
        <ele>568.40002441406</ele>
        <time>2021-07-11T07:17:53.000Z</time>
      </trkpt>
      <trkpt lat="47.91009" lon="7.17387">
        <ele>568.79998779297</ele>
        <time>2021-07-11T07:17:54.000Z</time>
      </trkpt>
      <trkpt lat="47.91011" lon="7.17387">
        <ele>569.20001220703</ele>
        <time>2021-07-11T07:17:55.000Z</time>
      </trkpt>
      <trkpt lat="47.91013" lon="7.17388">
        <ele>569.59997558594</ele>
        <time>2021-07-11T07:17:56.000Z</time>
      </trkpt>
      <trkpt lat="47.91016" lon="7.17388">
        <ele>570</ele>
        <time>2021-07-11T07:17:57.000Z</time>
      </trkpt>
      <trkpt lat="47.91035" lon="7.17396">
        <ele>570</ele>
        <time>2021-07-11T07:18:04.000Z</time>
      </trkpt>
      <trkpt lat="47.9104" lon="7.17399">
        <ele>570.40002441406</ele>
        <time>2021-07-11T07:18:06.000Z</time>
      </trkpt>
      <trkpt lat="47.91043" lon="7.174">
        <ele>570.79998779297</ele>
        <time>2021-07-11T07:18:07.000Z</time>
      </trkpt>
      <trkpt lat="47.91045" lon="7.17401">
        <ele>571.40002441406</ele>
        <time>2021-07-11T07:18:08.000Z</time>
      </trkpt>
      <trkpt lat="47.91048" lon="7.17403">
        <ele>571.79998779297</ele>
        <time>2021-07-11T07:18:09.000Z</time>
      </trkpt>
      <trkpt lat="47.9105" lon="7.17405">
        <ele>572.20001220703</ele>
        <time>2021-07-11T07:18:10.000Z</time>
      </trkpt>
      <trkpt lat="47.91059" lon="7.17412">
        <ele>572.59997558594</ele>
        <time>2021-07-11T07:18:15.000Z</time>
      </trkpt>
      <trkpt lat="47.91061" lon="7.17414">
        <ele>573.20001220703</ele>
        <time>2021-07-11T07:18:16.000Z</time>
      </trkpt>
      <trkpt lat="47.91062" lon="7.17416">
        <ele>573.59997558594</ele>
        <time>2021-07-11T07:18:17.000Z</time>
      </trkpt>
      <trkpt lat="47.91064" lon="7.17418">
        <ele>574</ele>
        <time>2021-07-11T07:18:18.000Z</time>
      </trkpt>
      <trkpt lat="47.91065" lon="7.1742">
        <ele>574.40002441406</ele>
        <time>2021-07-11T07:18:19.000Z</time>
      </trkpt>
      <trkpt lat="47.91071" lon="7.1743">
        <ele>574.40002441406</ele>
        <time>2021-07-11T07:18:22.000Z</time>
      </trkpt>
      <trkpt lat="47.9108" lon="7.1744">
        <ele>574.79998779297</ele>
        <time>2021-07-11T07:18:26.000Z</time>
      </trkpt>
      <trkpt lat="47.91082" lon="7.17442">
        <ele>575.20001220703</ele>
        <time>2021-07-11T07:18:27.000Z</time>
      </trkpt>
      <trkpt lat="47.91085" lon="7.17444">
        <ele>575.59997558594</ele>
        <time>2021-07-11T07:18:28.000Z</time>
      </trkpt>
      <trkpt lat="47.91087" lon="7.17446">
        <ele>576</ele>
        <time>2021-07-11T07:18:29.000Z</time>
      </trkpt>
      <trkpt lat="47.91089" lon="7.17447">
        <ele>576.40002441406</ele>
        <time>2021-07-11T07:18:30.000Z</time>
      </trkpt>
      <trkpt lat="47.91101" lon="7.1745">
        <ele>576.40002441406</ele>
        <time>2021-07-11T07:18:35.000Z</time>
      </trkpt>
      <trkpt lat="47.91114" lon="7.17448">
        <ele>577</ele>
        <time>2021-07-11T07:18:41.000Z</time>
      </trkpt>
      <trkpt lat="47.91117" lon="7.17447">
        <ele>577.40002441406</ele>
        <time>2021-07-11T07:18:42.000Z</time>
      </trkpt>
      <trkpt lat="47.91119" lon="7.17447">
        <ele>577.79998779297</ele>
        <time>2021-07-11T07:18:43.000Z</time>
      </trkpt>
      <trkpt lat="47.91122" lon="7.17447">
        <ele>578.20001220703</ele>
        <time>2021-07-11T07:18:44.000Z</time>
      </trkpt>
      <trkpt lat="47.91124" lon="7.17447">
        <ele>578.59997558594</ele>
        <time>2021-07-11T07:18:45.000Z</time>
      </trkpt>
      <trkpt lat="47.91131" lon="7.17447">
        <ele>578.59997558594</ele>
        <time>2021-07-11T07:18:48.000Z</time>
      </trkpt>
      <trkpt lat="47.91146" lon="7.17447">
        <ele>579</ele>
        <time>2021-07-11T07:18:54.000Z</time>
      </trkpt>
      <trkpt lat="47.91148" lon="7.17446">
        <ele>579.40002441406</ele>
        <time>2021-07-11T07:18:55.000Z</time>
      </trkpt>
      <trkpt lat="47.91151" lon="7.17445">
        <ele>579.79998779297</ele>
        <time>2021-07-11T07:18:56.000Z</time>
      </trkpt>
      <trkpt lat="47.91155" lon="7.17445">
        <ele>580.20001220703</ele>
        <time>2021-07-11T07:18:57.000Z</time>
      </trkpt>
      <trkpt lat="47.91157" lon="7.17444">
        <ele>580.79998779297</ele>
        <time>2021-07-11T07:18:58.000Z</time>
      </trkpt>
      <trkpt lat="47.91168" lon="7.17444">
        <ele>580.79998779297</ele>
        <time>2021-07-11T07:19:02.000Z</time>
      </trkpt>
      <trkpt lat="47.91184" lon="7.17441">
        <ele>581.20001220703</ele>
        <time>2021-07-11T07:19:07.000Z</time>
      </trkpt>
      <trkpt lat="47.91187" lon="7.1744">
        <ele>581.59997558594</ele>
        <time>2021-07-11T07:19:08.000Z</time>
      </trkpt>
      <trkpt lat="47.9119" lon="7.1744">
        <ele>582</ele>
        <time>2021-07-11T07:19:09.000Z</time>
      </trkpt>
      <trkpt lat="47.91193" lon="7.17439">
        <ele>582.40002441406</ele>
        <time>2021-07-11T07:19:10.000Z</time>
      </trkpt>
      <trkpt lat="47.91195" lon="7.17439">
        <ele>582.79998779297</ele>
        <time>2021-07-11T07:19:11.000Z</time>
      </trkpt>
      <trkpt lat="47.91207" lon="7.17435">
        <ele>582.79998779297</ele>
        <time>2021-07-11T07:19:15.000Z</time>
      </trkpt>
      <trkpt lat="47.91211" lon="7.17434">
        <ele>583.20001220703</ele>
        <time>2021-07-11T07:19:17.000Z</time>
      </trkpt>
      <trkpt lat="47.91212" lon="7.17433">
        <ele>583.59997558594</ele>
        <time>2021-07-11T07:19:18.000Z</time>
      </trkpt>
      <trkpt lat="47.91214" lon="7.17432">
        <ele>584</ele>
        <time>2021-07-11T07:19:19.000Z</time>
      </trkpt>
      <trkpt lat="47.91217" lon="7.1743">
        <ele>584.40002441406</ele>
        <time>2021-07-11T07:19:20.000Z</time>
      </trkpt>
      <trkpt lat="47.91219" lon="7.17427">
        <ele>584.79998779297</ele>
        <time>2021-07-11T07:19:21.000Z</time>
      </trkpt>
      <trkpt lat="47.91225" lon="7.17418">
        <ele>584.79998779297</ele>
        <time>2021-07-11T07:19:24.000Z</time>
      </trkpt>
      <trkpt lat="47.9123" lon="7.17397">
        <ele>584.79998779297</ele>
        <time>2021-07-11T07:19:29.000Z</time>
      </trkpt>
      <trkpt lat="47.91229" lon="7.17385">
        <ele>585.20001220703</ele>
        <time>2021-07-11T07:19:32.000Z</time>
      </trkpt>
      <trkpt lat="47.91228" lon="7.1738">
        <ele>585.59997558594</ele>
        <time>2021-07-11T07:19:33.000Z</time>
      </trkpt>
      <trkpt lat="47.91227" lon="7.17376">
        <ele>586</ele>
        <time>2021-07-11T07:19:34.000Z</time>
      </trkpt>
      <trkpt lat="47.91226" lon="7.17372">
        <ele>586.40002441406</ele>
        <time>2021-07-11T07:19:35.000Z</time>
      </trkpt>
      <trkpt lat="47.91225" lon="7.17368">
        <ele>587</ele>
        <time>2021-07-11T07:19:36.000Z</time>
      </trkpt>
      <trkpt lat="47.91217" lon="7.17346">
        <ele>587</ele>
        <time>2021-07-11T07:19:42.000Z</time>
      </trkpt>
      <trkpt lat="47.91214" lon="7.17335">
        <ele>587.40002441406</ele>
        <time>2021-07-11T07:19:45.000Z</time>
      </trkpt>
      <trkpt lat="47.91213" lon="7.17332">
        <ele>587.79998779297</ele>
        <time>2021-07-11T07:19:46.000Z</time>
      </trkpt>
      <trkpt lat="47.91212" lon="7.17328">
        <ele>588.20001220703</ele>
        <time>2021-07-11T07:19:47.000Z</time>
      </trkpt>
      <trkpt lat="47.91212" lon="7.17325">
        <ele>588.59997558594</ele>
        <time>2021-07-11T07:19:48.000Z</time>
      </trkpt>
      <trkpt lat="47.91211" lon="7.17321">
        <ele>589</ele>
        <time>2021-07-11T07:19:49.000Z</time>
      </trkpt>
      <trkpt lat="47.91212" lon="7.17298">
        <ele>589</ele>
        <time>2021-07-11T07:19:55.000Z</time>
      </trkpt>
      <trkpt lat="47.91209" lon="7.17273">
        <ele>589.40002441406</ele>
        <time>2021-07-11T07:20:01.000Z</time>
      </trkpt>
      <trkpt lat="47.91209" lon="7.17269">
        <ele>590.20001220703</ele>
        <time>2021-07-11T07:20:02.000Z</time>
      </trkpt>
      <trkpt lat="47.91208" lon="7.17265">
        <ele>590.59997558594</ele>
        <time>2021-07-11T07:20:03.000Z</time>
      </trkpt>
      <trkpt lat="47.91207" lon="7.1726">
        <ele>591</ele>
        <time>2021-07-11T07:20:04.000Z</time>
      </trkpt>
      <trkpt lat="47.91203" lon="7.17242">
        <ele>591</ele>
        <time>2021-07-11T07:20:08.000Z</time>
      </trkpt>
      <trkpt lat="47.91197" lon="7.17221">
        <ele>591</ele>
        <time>2021-07-11T07:20:14.000Z</time>
      </trkpt>
      <trkpt lat="47.91199" lon="7.17204">
        <ele>591.40002441406</ele>
        <time>2021-07-11T07:20:18.000Z</time>
      </trkpt>
      <trkpt lat="47.912" lon="7.17199">
        <ele>592</ele>
        <time>2021-07-11T07:20:19.000Z</time>
      </trkpt>
      <trkpt lat="47.91201" lon="7.17196">
        <ele>592.40002441406</ele>
        <time>2021-07-11T07:20:20.000Z</time>
      </trkpt>
      <trkpt lat="47.91202" lon="7.17193">
        <ele>592.79998779297</ele>
        <time>2021-07-11T07:20:21.000Z</time>
      </trkpt>
      <trkpt lat="47.91203" lon="7.1719">
        <ele>593.20001220703</ele>
        <time>2021-07-11T07:20:22.000Z</time>
      </trkpt>
      <trkpt lat="47.9121" lon="7.17176">
        <ele>593.20001220703</ele>
        <time>2021-07-11T07:20:26.000Z</time>
      </trkpt>
      <trkpt lat="47.91216" lon="7.17166">
        <ele>593.59997558594</ele>
        <time>2021-07-11T07:20:29.000Z</time>
      </trkpt>
      <trkpt lat="47.91217" lon="7.17163">
        <ele>594</ele>
        <time>2021-07-11T07:20:30.000Z</time>
      </trkpt>
      <trkpt lat="47.91219" lon="7.17161">
        <ele>594.40002441406</ele>
        <time>2021-07-11T07:20:31.000Z</time>
      </trkpt>
      <trkpt lat="47.91221" lon="7.17157">
        <ele>594.79998779297</ele>
        <time>2021-07-11T07:20:32.000Z</time>
      </trkpt>
      <trkpt lat="47.91222" lon="7.17154">
        <ele>595.20001220703</ele>
        <time>2021-07-11T07:20:33.000Z</time>
      </trkpt>
      <trkpt lat="47.91234" lon="7.17138">
        <ele>595.20001220703</ele>
        <time>2021-07-11T07:20:39.000Z</time>
      </trkpt>
      <trkpt lat="47.91245" lon="7.17124">
        <ele>595.59997558594</ele>
        <time>2021-07-11T07:20:44.000Z</time>
      </trkpt>
      <trkpt lat="47.91247" lon="7.17123">
        <ele>596</ele>
        <time>2021-07-11T07:20:45.000Z</time>
      </trkpt>
      <trkpt lat="47.91248" lon="7.17121">
        <ele>596.59997558594</ele>
        <time>2021-07-11T07:20:46.000Z</time>
      </trkpt>
      <trkpt lat="47.9125" lon="7.17119">
        <ele>597</ele>
        <time>2021-07-11T07:20:47.000Z</time>
      </trkpt>
      <trkpt lat="47.91251" lon="7.17118">
        <ele>597.40002441406</ele>
        <time>2021-07-11T07:20:48.000Z</time>
      </trkpt>
      <trkpt lat="47.9126" lon="7.17109">
        <ele>597.79998779297</ele>
        <time>2021-07-11T07:20:53.000Z</time>
      </trkpt>
      <trkpt lat="47.91262" lon="7.17108">
        <ele>598.20001220703</ele>
        <time>2021-07-11T07:20:54.000Z</time>
      </trkpt>
      <trkpt lat="47.91265" lon="7.17106">
        <ele>598.59997558594</ele>
        <time>2021-07-11T07:20:55.000Z</time>
      </trkpt>
      <trkpt lat="47.91267" lon="7.17105">
        <ele>599</ele>
        <time>2021-07-11T07:20:56.000Z</time>
      </trkpt>
      <trkpt lat="47.91269" lon="7.17104">
        <ele>599.59997558594</ele>
        <time>2021-07-11T07:20:57.000Z</time>
      </trkpt>
      <trkpt lat="47.91281" lon="7.17099">
        <ele>600</ele>
        <time>2021-07-11T07:21:02.000Z</time>
      </trkpt>
      <trkpt lat="47.91283" lon="7.17098">
        <ele>600.40002441406</ele>
        <time>2021-07-11T07:21:03.000Z</time>
      </trkpt>
      <trkpt lat="47.91286" lon="7.17097">
        <ele>600.79998779297</ele>
        <time>2021-07-11T07:21:04.000Z</time>
      </trkpt>
      <trkpt lat="47.91289" lon="7.17096">
        <ele>601.20001220703</ele>
        <time>2021-07-11T07:21:05.000Z</time>
      </trkpt>
      <trkpt lat="47.91291" lon="7.17094">
        <ele>601.59997558594</ele>
        <time>2021-07-11T07:21:06.000Z</time>
      </trkpt>
      <trkpt lat="47.91303" lon="7.17092">
        <ele>601.59997558594</ele>
        <time>2021-07-11T07:21:11.000Z</time>
      </trkpt>
      <trkpt lat="47.9131" lon="7.17091">
        <ele>602</ele>
        <time>2021-07-11T07:21:14.000Z</time>
      </trkpt>
      <trkpt lat="47.91312" lon="7.17091">
        <ele>602.40002441406</ele>
        <time>2021-07-11T07:21:15.000Z</time>
      </trkpt>
      <trkpt lat="47.91315" lon="7.1709">
        <ele>603.40002441406</ele>
        <time>2021-07-11T07:21:16.000Z</time>
      </trkpt>
      <trkpt lat="47.91318" lon="7.17089">
        <ele>603.79998779297</ele>
        <time>2021-07-11T07:21:17.000Z</time>
      </trkpt>
      <trkpt lat="47.9132" lon="7.17087">
        <ele>603.79998779297</ele>
        <time>2021-07-11T07:21:18.000Z</time>
      </trkpt>
      <trkpt lat="47.91338" lon="7.17077">
        <ele>603.79998779297</ele>
        <time>2021-07-11T07:21:24.000Z</time>
      </trkpt>
      <trkpt lat="47.91343" lon="7.17073">
        <ele>604.20001220703</ele>
        <time>2021-07-11T07:21:26.000Z</time>
      </trkpt>
      <trkpt lat="47.91344" lon="7.17071">
        <ele>604.59997558594</ele>
        <time>2021-07-11T07:21:27.000Z</time>
      </trkpt>
      <trkpt lat="47.91346" lon="7.1707">
        <ele>605</ele>
        <time>2021-07-11T07:21:28.000Z</time>
      </trkpt>
      <trkpt lat="47.91348" lon="7.17067">
        <ele>605.40002441406</ele>
        <time>2021-07-11T07:21:29.000Z</time>
      </trkpt>
      <trkpt lat="47.9135" lon="7.17064">
        <ele>605.79998779297</ele>
        <time>2021-07-11T07:21:30.000Z</time>
      </trkpt>
      <trkpt lat="47.91352" lon="7.17062">
        <ele>605.79998779297</ele>
        <time>2021-07-11T07:21:31.000Z</time>
      </trkpt>
      <trkpt lat="47.91367" lon="7.17045">
        <ele>605.79998779297</ele>
        <time>2021-07-11T07:21:36.000Z</time>
      </trkpt>
      <trkpt lat="47.9137" lon="7.17042">
        <ele>606.20001220703</ele>
        <time>2021-07-11T07:21:37.000Z</time>
      </trkpt>
      <trkpt lat="47.91372" lon="7.1704">
        <ele>606.59997558594</ele>
        <time>2021-07-11T07:21:38.000Z</time>
      </trkpt>
      <trkpt lat="47.91375" lon="7.17038">
        <ele>607</ele>
        <time>2021-07-11T07:21:39.000Z</time>
      </trkpt>
      <trkpt lat="47.91378" lon="7.17035">
        <ele>607.40002441406</ele>
        <time>2021-07-11T07:21:40.000Z</time>
      </trkpt>
      <trkpt lat="47.9138" lon="7.17034">
        <ele>607.79998779297</ele>
        <time>2021-07-11T07:21:41.000Z</time>
      </trkpt>
      <trkpt lat="47.91383" lon="7.17032">
        <ele>607.79998779297</ele>
        <time>2021-07-11T07:21:42.000Z</time>
      </trkpt>
      <trkpt lat="47.91391" lon="7.1702">
        <ele>608.40002441406</ele>
        <time>2021-07-11T07:21:47.000Z</time>
      </trkpt>
      <trkpt lat="47.91393" lon="7.17016">
        <ele>608.79998779297</ele>
        <time>2021-07-11T07:21:48.000Z</time>
      </trkpt>
      <trkpt lat="47.91393" lon="7.17015">
        <ele>609.20001220703</ele>
        <time>2021-07-11T07:21:49.000Z</time>
      </trkpt>
      <trkpt lat="47.91394" lon="7.17012">
        <ele>609.59997558594</ele>
        <time>2021-07-11T07:21:50.000Z</time>
      </trkpt>
      <trkpt lat="47.91395" lon="7.1701">
        <ele>610</ele>
        <time>2021-07-11T07:21:51.000Z</time>
      </trkpt>
      <trkpt lat="47.91396" lon="7.17009">
        <ele>610</ele>
        <time>2021-07-11T07:21:53.000Z</time>
      </trkpt>
      <trkpt lat="47.91398" lon="7.17003">
        <ele>610</ele>
        <time>2021-07-11T07:22:41.000Z</time>
      </trkpt>
      <trkpt lat="47.91399" lon="7.16999">
        <ele>610</ele>
        <time>2021-07-11T07:22:42.000Z</time>
      </trkpt>
      <trkpt lat="47.91413" lon="7.16976">
        <ele>610</ele>
        <time>2021-07-11T07:22:50.000Z</time>
      </trkpt>
      <trkpt lat="47.91432" lon="7.16957">
        <ele>610</ele>
        <time>2021-07-11T07:22:58.000Z</time>
      </trkpt>
      <trkpt lat="47.91451" lon="7.16939">
        <ele>610</ele>
        <time>2021-07-11T07:23:05.000Z</time>
      </trkpt>
      <trkpt lat="47.91474" lon="7.16923">
        <ele>610</ele>
        <time>2021-07-11T07:23:13.000Z</time>
      </trkpt>
      <trkpt lat="47.91497" lon="7.16912">
        <ele>610</ele>
        <time>2021-07-11T07:23:20.000Z</time>
      </trkpt>
      <trkpt lat="47.91501" lon="7.1691">
        <ele>610.40002441406</ele>
        <time>2021-07-11T07:23:21.000Z</time>
      </trkpt>
      <trkpt lat="47.91504" lon="7.16908">
        <ele>610.79998779297</ele>
        <time>2021-07-11T07:23:22.000Z</time>
      </trkpt>
      <trkpt lat="47.91507" lon="7.16906">
        <ele>611.40002441406</ele>
        <time>2021-07-11T07:23:23.000Z</time>
      </trkpt>
      <trkpt lat="47.9151" lon="7.16904">
        <ele>611.79998779297</ele>
        <time>2021-07-11T07:23:24.000Z</time>
      </trkpt>
      <trkpt lat="47.91513" lon="7.16901">
        <ele>612.20001220703</ele>
        <time>2021-07-11T07:23:25.000Z</time>
      </trkpt>
      <trkpt lat="47.91522" lon="7.16891">
        <ele>612.20001220703</ele>
        <time>2021-07-11T07:23:28.000Z</time>
      </trkpt>
      <trkpt lat="47.91532" lon="7.16867">
        <ele>612.20001220703</ele>
        <time>2021-07-11T07:23:34.000Z</time>
      </trkpt>
      <trkpt lat="47.91531" lon="7.16846">
        <ele>612.20001220703</ele>
        <time>2021-07-11T07:23:39.000Z</time>
      </trkpt>
      <trkpt lat="47.91526" lon="7.16825">
        <ele>612.20001220703</ele>
        <time>2021-07-11T07:23:45.000Z</time>
      </trkpt>
      <trkpt lat="47.91516" lon="7.16811">
        <ele>612.20001220703</ele>
        <time>2021-07-11T07:23:49.000Z</time>
      </trkpt>
      <trkpt lat="47.91503" lon="7.16797">
        <ele>612.20001220703</ele>
        <time>2021-07-11T07:23:54.000Z</time>
      </trkpt>
      <trkpt lat="47.91488" lon="7.16787">
        <ele>612.20001220703</ele>
        <time>2021-07-11T07:23:59.000Z</time>
      </trkpt>
      <trkpt lat="47.91468" lon="7.16774">
        <ele>612.20001220703</ele>
        <time>2021-07-11T07:24:06.000Z</time>
      </trkpt>
      <trkpt lat="47.91446" lon="7.16769">
        <ele>612.20001220703</ele>
        <time>2021-07-11T07:24:13.000Z</time>
      </trkpt>
      <trkpt lat="47.91432" lon="7.16763">
        <ele>612.20001220703</ele>
        <time>2021-07-11T07:24:18.000Z</time>
      </trkpt>
      <trkpt lat="47.91416" lon="7.16754">
        <ele>612.20001220703</ele>
        <time>2021-07-11T07:24:24.000Z</time>
      </trkpt>
      <trkpt lat="47.91398" lon="7.16746">
        <ele>612.20001220703</ele>
        <time>2021-07-11T07:24:31.000Z</time>
      </trkpt>
      <trkpt lat="47.91394" lon="7.16744">
        <ele>612.20001220703</ele>
        <time>2021-07-11T07:24:34.000Z</time>
      </trkpt>
      <trkpt lat="47.91389" lon="7.1674">
        <ele>612.20001220703</ele>
        <time>2021-07-11T07:24:36.000Z</time>
      </trkpt>
      <trkpt lat="47.9137" lon="7.16723">
        <ele>612.20001220703</ele>
        <time>2021-07-11T07:24:42.000Z</time>
      </trkpt>
      <trkpt lat="47.91343" lon="7.16699">
        <ele>612.20001220703</ele>
        <time>2021-07-11T07:24:50.000Z</time>
      </trkpt>
      <trkpt lat="47.91321" lon="7.16686">
        <ele>612.20001220703</ele>
        <time>2021-07-11T07:24:57.000Z</time>
      </trkpt>
      <trkpt lat="47.91305" lon="7.16673">
        <ele>612.20001220703</ele>
        <time>2021-07-11T07:25:03.000Z</time>
      </trkpt>
      <trkpt lat="47.91297" lon="7.16657">
        <ele>612.20001220703</ele>
        <time>2021-07-11T07:25:08.000Z</time>
      </trkpt>
      <trkpt lat="47.91288" lon="7.16643">
        <ele>612.20001220703</ele>
        <time>2021-07-11T07:25:13.000Z</time>
      </trkpt>
      <trkpt lat="47.91286" lon="7.1664">
        <ele>612.59997558594</ele>
        <time>2021-07-11T07:25:14.000Z</time>
      </trkpt>
      <trkpt lat="47.91286" lon="7.16635">
        <ele>613</ele>
        <time>2021-07-11T07:25:15.000Z</time>
      </trkpt>
      <trkpt lat="47.91285" lon="7.1663">
        <ele>613.40002441406</ele>
        <time>2021-07-11T07:25:16.000Z</time>
      </trkpt>
      <trkpt lat="47.91285" lon="7.16626">
        <ele>613.79998779297</ele>
        <time>2021-07-11T07:25:17.000Z</time>
      </trkpt>
      <trkpt lat="47.91284" lon="7.16622">
        <ele>614.20001220703</ele>
        <time>2021-07-11T07:25:18.000Z</time>
      </trkpt>
      <trkpt lat="47.91287" lon="7.16604">
        <ele>614.20001220703</ele>
        <time>2021-07-11T07:25:22.000Z</time>
      </trkpt>
      <trkpt lat="47.91288" lon="7.16601">
        <ele>614.20001220703</ele>
        <time>2021-07-11T07:25:23.000Z</time>
      </trkpt>
      <trkpt lat="47.91292" lon="7.16593">
        <ele>614.20001220703</ele>
        <time>2021-07-11T07:25:26.000Z</time>
      </trkpt>
      <trkpt lat="47.91294" lon="7.16586">
        <ele>614.20001220703</ele>
        <time>2021-07-11T07:25:28.000Z</time>
      </trkpt>
      <trkpt lat="47.91302" lon="7.16566">
        <ele>614.20001220703</ele>
        <time>2021-07-11T07:25:33.000Z</time>
      </trkpt>
      <trkpt lat="47.91307" lon="7.16544">
        <ele>614.20001220703</ele>
        <time>2021-07-11T07:25:38.000Z</time>
      </trkpt>
      <trkpt lat="47.91321" lon="7.16501">
        <ele>614.20001220703</ele>
        <time>2021-07-11T07:25:47.000Z</time>
      </trkpt>
      <trkpt lat="47.91326" lon="7.16491">
        <ele>613.79998779297</ele>
        <time>2021-07-11T07:25:49.000Z</time>
      </trkpt>
      <trkpt lat="47.91329" lon="7.16485">
        <ele>613.40002441406</ele>
        <time>2021-07-11T07:25:50.000Z</time>
      </trkpt>
      <trkpt lat="47.91331" lon="7.16478">
        <ele>613</ele>
        <time>2021-07-11T07:25:51.000Z</time>
      </trkpt>
      <trkpt lat="47.91333" lon="7.16471">
        <ele>612.40002441406</ele>
        <time>2021-07-11T07:25:52.000Z</time>
      </trkpt>
      <trkpt lat="47.91335" lon="7.16464">
        <ele>612</ele>
        <time>2021-07-11T07:25:53.000Z</time>
      </trkpt>
      <trkpt lat="47.91336" lon="7.16457">
        <ele>611.59997558594</ele>
        <time>2021-07-11T07:25:54.000Z</time>
      </trkpt>
      <trkpt lat="47.91336" lon="7.16449">
        <ele>611</ele>
        <time>2021-07-11T07:25:55.000Z</time>
      </trkpt>
      <trkpt lat="47.91335" lon="7.16441">
        <ele>610.59997558594</ele>
        <time>2021-07-11T07:25:56.000Z</time>
      </trkpt>
      <trkpt lat="47.91333" lon="7.16434">
        <ele>610</ele>
        <time>2021-07-11T07:25:57.000Z</time>
      </trkpt>
      <trkpt lat="47.91331" lon="7.16428">
        <ele>609.59997558594</ele>
        <time>2021-07-11T07:25:58.000Z</time>
      </trkpt>
      <trkpt lat="47.91327" lon="7.16418">
        <ele>609.59997558594</ele>
        <time>2021-07-11T07:26:00.000Z</time>
      </trkpt>
      <trkpt lat="47.91323" lon="7.16412">
        <ele>609.59997558594</ele>
        <time>2021-07-11T07:26:02.000Z</time>
      </trkpt>
      <trkpt lat="47.91318" lon="7.164">
        <ele>609.59997558594</ele>
        <time>2021-07-11T07:26:06.000Z</time>
      </trkpt>
      <trkpt lat="47.91315" lon="7.16393">
        <ele>610</ele>
        <time>2021-07-11T07:26:08.000Z</time>
      </trkpt>
      <trkpt lat="47.91314" lon="7.1639">
        <ele>610.40002441406</ele>
        <time>2021-07-11T07:26:09.000Z</time>
      </trkpt>
      <trkpt lat="47.91312" lon="7.16387">
        <ele>610.79998779297</ele>
        <time>2021-07-11T07:26:10.000Z</time>
      </trkpt>
      <trkpt lat="47.91311" lon="7.16384">
        <ele>611.20001220703</ele>
        <time>2021-07-11T07:26:11.000Z</time>
      </trkpt>
      <trkpt lat="47.91309" lon="7.1638">
        <ele>611.59997558594</ele>
        <time>2021-07-11T07:26:12.000Z</time>
      </trkpt>
      <trkpt lat="47.91301" lon="7.16362">
        <ele>612</ele>
        <time>2021-07-11T07:26:17.000Z</time>
      </trkpt>
      <trkpt lat="47.91299" lon="7.16359">
        <ele>612.59997558594</ele>
        <time>2021-07-11T07:26:18.000Z</time>
      </trkpt>
      <trkpt lat="47.91297" lon="7.16356">
        <ele>613</ele>
        <time>2021-07-11T07:26:19.000Z</time>
      </trkpt>
      <trkpt lat="47.91295" lon="7.16353">
        <ele>613.40002441406</ele>
        <time>2021-07-11T07:26:20.000Z</time>
      </trkpt>
      <trkpt lat="47.91293" lon="7.1635">
        <ele>613.79998779297</ele>
        <time>2021-07-11T07:26:21.000Z</time>
      </trkpt>
      <trkpt lat="47.91288" lon="7.1634">
        <ele>613.79998779297</ele>
        <time>2021-07-11T07:26:24.000Z</time>
      </trkpt>
      <trkpt lat="47.91286" lon="7.16334">
        <ele>614.20001220703</ele>
        <time>2021-07-11T07:26:26.000Z</time>
      </trkpt>
      <trkpt lat="47.91285" lon="7.16331">
        <ele>614.59997558594</ele>
        <time>2021-07-11T07:26:27.000Z</time>
      </trkpt>
      <trkpt lat="47.91283" lon="7.16328">
        <ele>615</ele>
        <time>2021-07-11T07:26:28.000Z</time>
      </trkpt>
      <trkpt lat="47.91282" lon="7.16325">
        <ele>615.40002441406</ele>
        <time>2021-07-11T07:26:29.000Z</time>
      </trkpt>
      <trkpt lat="47.91281" lon="7.16321">
        <ele>615.79998779297</ele>
        <time>2021-07-11T07:26:30.000Z</time>
      </trkpt>
      <trkpt lat="47.9128" lon="7.16318">
        <ele>615.79998779297</ele>
        <time>2021-07-11T07:26:31.000Z</time>
      </trkpt>
      <trkpt lat="47.91275" lon="7.16303">
        <ele>616.20001220703</ele>
        <time>2021-07-11T07:26:35.000Z</time>
      </trkpt>
      <trkpt lat="47.91274" lon="7.163">
        <ele>616.59997558594</ele>
        <time>2021-07-11T07:26:36.000Z</time>
      </trkpt>
      <trkpt lat="47.91273" lon="7.16296">
        <ele>617.20001220703</ele>
        <time>2021-07-11T07:26:37.000Z</time>
      </trkpt>
      <trkpt lat="47.91273" lon="7.16293">
        <ele>617.59997558594</ele>
        <time>2021-07-11T07:26:38.000Z</time>
      </trkpt>
      <trkpt lat="47.91272" lon="7.1629">
        <ele>618</ele>
        <time>2021-07-11T07:26:39.000Z</time>
      </trkpt>
      <trkpt lat="47.9127" lon="7.16282">
        <ele>618</ele>
        <time>2021-07-11T07:26:42.000Z</time>
      </trkpt>
      <trkpt lat="47.91266" lon="7.16273">
        <ele>618.40002441406</ele>
        <time>2021-07-11T07:26:45.000Z</time>
      </trkpt>
      <trkpt lat="47.91264" lon="7.1627">
        <ele>618.79998779297</ele>
        <time>2021-07-11T07:26:46.000Z</time>
      </trkpt>
      <trkpt lat="47.91263" lon="7.16267">
        <ele>619.20001220703</ele>
        <time>2021-07-11T07:26:47.000Z</time>
      </trkpt>
      <trkpt lat="47.91261" lon="7.16263">
        <ele>619.79998779297</ele>
        <time>2021-07-11T07:26:48.000Z</time>
      </trkpt>
      <trkpt lat="47.9126" lon="7.1626">
        <ele>620.20001220703</ele>
        <time>2021-07-11T07:26:49.000Z</time>
      </trkpt>
      <trkpt lat="47.91254" lon="7.16248">
        <ele>620.20001220703</ele>
        <time>2021-07-11T07:26:53.000Z</time>
      </trkpt>
      <trkpt lat="47.91253" lon="7.16245">
        <ele>620.59997558594</ele>
        <time>2021-07-11T07:26:54.000Z</time>
      </trkpt>
      <trkpt lat="47.91251" lon="7.16242">
        <ele>621</ele>
        <time>2021-07-11T07:26:55.000Z</time>
      </trkpt>
      <trkpt lat="47.9125" lon="7.16239">
        <ele>621.40002441406</ele>
        <time>2021-07-11T07:26:56.000Z</time>
      </trkpt>
      <trkpt lat="47.91246" lon="7.16234">
        <ele>621.79998779297</ele>
        <time>2021-07-11T07:26:57.000Z</time>
      </trkpt>
      <trkpt lat="47.91244" lon="7.1623">
        <ele>622.20001220703</ele>
        <time>2021-07-11T07:26:58.000Z</time>
      </trkpt>
      <trkpt lat="47.9124" lon="7.16223">
        <ele>622.20001220703</ele>
        <time>2021-07-11T07:27:00.000Z</time>
      </trkpt>
      <trkpt lat="47.91233" lon="7.1621">
        <ele>622.59997558594</ele>
        <time>2021-07-11T07:27:04.000Z</time>
      </trkpt>
      <trkpt lat="47.91232" lon="7.16206">
        <ele>623</ele>
        <time>2021-07-11T07:27:05.000Z</time>
      </trkpt>
      <trkpt lat="47.9123" lon="7.16204">
        <ele>623.40002441406</ele>
        <time>2021-07-11T07:27:06.000Z</time>
      </trkpt>
      <trkpt lat="47.91229" lon="7.16201">
        <ele>624</ele>
        <time>2021-07-11T07:27:07.000Z</time>
      </trkpt>
      <trkpt lat="47.91228" lon="7.16199">
        <ele>624.40002441406</ele>
        <time>2021-07-11T07:27:08.000Z</time>
      </trkpt>
      <trkpt lat="47.91217" lon="7.1619">
        <ele>624.40002441406</ele>
        <time>2021-07-11T07:27:14.000Z</time>
      </trkpt>
      <trkpt lat="47.91214" lon="7.16188">
        <ele>624.79998779297</ele>
        <time>2021-07-11T07:27:15.000Z</time>
      </trkpt>
      <trkpt lat="47.91212" lon="7.16187">
        <ele>625.20001220703</ele>
        <time>2021-07-11T07:27:16.000Z</time>
      </trkpt>
      <trkpt lat="47.9121" lon="7.16184">
        <ele>625.59997558594</ele>
        <time>2021-07-11T07:27:17.000Z</time>
      </trkpt>
      <trkpt lat="47.91208" lon="7.16183">
        <ele>626</ele>
        <time>2021-07-11T07:27:18.000Z</time>
      </trkpt>
      <trkpt lat="47.91206" lon="7.16181">
        <ele>626.40002441406</ele>
        <time>2021-07-11T07:27:19.000Z</time>
      </trkpt>
      <trkpt lat="47.91193" lon="7.16175">
        <ele>626.79998779297</ele>
        <time>2021-07-11T07:27:25.000Z</time>
      </trkpt>
      <trkpt lat="47.9119" lon="7.16174">
        <ele>627.20001220703</ele>
        <time>2021-07-11T07:27:26.000Z</time>
      </trkpt>
      <trkpt lat="47.91188" lon="7.16172">
        <ele>627.79998779297</ele>
        <time>2021-07-11T07:27:27.000Z</time>
      </trkpt>
      <trkpt lat="47.91186" lon="7.16171">
        <ele>628.59997558594</ele>
        <time>2021-07-11T07:27:28.000Z</time>
      </trkpt>
      <trkpt lat="47.91176" lon="7.16165">
        <ele>628.59997558594</ele>
        <time>2021-07-11T07:27:32.000Z</time>
      </trkpt>
      <trkpt lat="47.91172" lon="7.16161">
        <ele>629</ele>
        <time>2021-07-11T07:27:34.000Z</time>
      </trkpt>
      <trkpt lat="47.9117" lon="7.16159">
        <ele>629.40002441406</ele>
        <time>2021-07-11T07:27:35.000Z</time>
      </trkpt>
      <trkpt lat="47.91168" lon="7.16156">
        <ele>629.79998779297</ele>
        <time>2021-07-11T07:27:36.000Z</time>
      </trkpt>
      <trkpt lat="47.91167" lon="7.16153">
        <ele>630.20001220703</ele>
        <time>2021-07-11T07:27:37.000Z</time>
      </trkpt>
      <trkpt lat="47.91165" lon="7.16151">
        <ele>630.59997558594</ele>
        <time>2021-07-11T07:27:38.000Z</time>
      </trkpt>
      <trkpt lat="47.91163" lon="7.16148">
        <ele>630.59997558594</ele>
        <time>2021-07-11T07:27:39.000Z</time>
      </trkpt>
      <trkpt lat="47.91156" lon="7.16133">
        <ele>631</ele>
        <time>2021-07-11T07:27:44.000Z</time>
      </trkpt>
      <trkpt lat="47.91154" lon="7.16131">
        <ele>631.40002441406</ele>
        <time>2021-07-11T07:27:45.000Z</time>
      </trkpt>
      <trkpt lat="47.91153" lon="7.16128">
        <ele>631.79998779297</ele>
        <time>2021-07-11T07:27:46.000Z</time>
      </trkpt>
      <trkpt lat="47.91152" lon="7.16125">
        <ele>632.20001220703</ele>
        <time>2021-07-11T07:27:47.000Z</time>
      </trkpt>
      <trkpt lat="47.91151" lon="7.16123">
        <ele>632.59997558594</ele>
        <time>2021-07-11T07:27:48.000Z</time>
      </trkpt>
      <trkpt lat="47.91148" lon="7.16118">
        <ele>632.59997558594</ele>
        <time>2021-07-11T07:27:50.000Z</time>
      </trkpt>
      <trkpt lat="47.91142" lon="7.16105">
        <ele>633.20001220703</ele>
        <time>2021-07-11T07:27:55.000Z</time>
      </trkpt>
      <trkpt lat="47.91141" lon="7.16102">
        <ele>633.59997558594</ele>
        <time>2021-07-11T07:27:56.000Z</time>
      </trkpt>
      <trkpt lat="47.9114" lon="7.161">
        <ele>634</ele>
        <time>2021-07-11T07:27:57.000Z</time>
      </trkpt>
      <trkpt lat="47.91139" lon="7.16097">
        <ele>634.40002441406</ele>
        <time>2021-07-11T07:27:58.000Z</time>
      </trkpt>
      <trkpt lat="47.91138" lon="7.16095">
        <ele>634.79998779297</ele>
        <time>2021-07-11T07:27:59.000Z</time>
      </trkpt>
      <trkpt lat="47.91131" lon="7.16079">
        <ele>634.79998779297</ele>
        <time>2021-07-11T07:28:04.000Z</time>
      </trkpt>
      <trkpt lat="47.9113" lon="7.16076">
        <ele>635.40002441406</ele>
        <time>2021-07-11T07:28:05.000Z</time>
      </trkpt>
      <trkpt lat="47.91129" lon="7.16073">
        <ele>635.79998779297</ele>
        <time>2021-07-11T07:28:06.000Z</time>
      </trkpt>
      <trkpt lat="47.91128" lon="7.1607">
        <ele>636.20001220703</ele>
        <time>2021-07-11T07:28:07.000Z</time>
      </trkpt>
      <trkpt lat="47.91127" lon="7.16067">
        <ele>636.59997558594</ele>
        <time>2021-07-11T07:28:08.000Z</time>
      </trkpt>
      <trkpt lat="47.91127" lon="7.16064">
        <ele>637</ele>
        <time>2021-07-11T07:28:09.000Z</time>
      </trkpt>
      <trkpt lat="47.91121" lon="7.16047">
        <ele>637.40002441406</ele>
        <time>2021-07-11T07:28:15.000Z</time>
      </trkpt>
      <trkpt lat="47.9112" lon="7.16045">
        <ele>637.79998779297</ele>
        <time>2021-07-11T07:28:16.000Z</time>
      </trkpt>
      <trkpt lat="47.91119" lon="7.16041">
        <ele>638.59997558594</ele>
        <time>2021-07-11T07:28:17.000Z</time>
      </trkpt>
      <trkpt lat="47.91119" lon="7.16038">
        <ele>639</ele>
        <time>2021-07-11T07:28:18.000Z</time>
      </trkpt>
      <trkpt lat="47.91111" lon="7.16021">
        <ele>639</ele>
        <time>2021-07-11T07:28:24.000Z</time>
      </trkpt>
      <trkpt lat="47.91109" lon="7.16018">
        <ele>639.59997558594</ele>
        <time>2021-07-11T07:28:25.000Z</time>
      </trkpt>
      <trkpt lat="47.91108" lon="7.16016">
        <ele>640.20001220703</ele>
        <time>2021-07-11T07:28:26.000Z</time>
      </trkpt>
      <trkpt lat="47.91106" lon="7.16014">
        <ele>640.59997558594</ele>
        <time>2021-07-11T07:28:27.000Z</time>
      </trkpt>
      <trkpt lat="47.91105" lon="7.16011">
        <ele>641.20001220703</ele>
        <time>2021-07-11T07:28:28.000Z</time>
      </trkpt>
      <trkpt lat="47.91104" lon="7.16008">
        <ele>641.59997558594</ele>
        <time>2021-07-11T07:28:29.000Z</time>
      </trkpt>
      <trkpt lat="47.911" lon="7.15997">
        <ele>641.59997558594</ele>
        <time>2021-07-11T07:28:33.000Z</time>
      </trkpt>
      <trkpt lat="47.91094" lon="7.15987">
        <ele>642</ele>
        <time>2021-07-11T07:28:37.000Z</time>
      </trkpt>
      <trkpt lat="47.91093" lon="7.15984">
        <ele>642.59997558594</ele>
        <time>2021-07-11T07:28:38.000Z</time>
      </trkpt>
      <trkpt lat="47.91092" lon="7.15982">
        <ele>643</ele>
        <time>2021-07-11T07:28:39.000Z</time>
      </trkpt>
      <trkpt lat="47.91091" lon="7.1598">
        <ele>643.40002441406</ele>
        <time>2021-07-11T07:28:40.000Z</time>
      </trkpt>
      <trkpt lat="47.91091" lon="7.15978">
        <ele>643.79998779297</ele>
        <time>2021-07-11T07:28:41.000Z</time>
      </trkpt>
      <trkpt lat="47.91086" lon="7.15966">
        <ele>644.20001220703</ele>
        <time>2021-07-11T07:28:45.000Z</time>
      </trkpt>
      <trkpt lat="47.91084" lon="7.15964">
        <ele>644.59997558594</ele>
        <time>2021-07-11T07:28:46.000Z</time>
      </trkpt>
      <trkpt lat="47.91084" lon="7.1596">
        <ele>645.20001220703</ele>
        <time>2021-07-11T07:28:47.000Z</time>
      </trkpt>
      <trkpt lat="47.91083" lon="7.15957">
        <ele>645.59997558594</ele>
        <time>2021-07-11T07:28:48.000Z</time>
      </trkpt>
      <trkpt lat="47.91081" lon="7.15954">
        <ele>646</ele>
        <time>2021-07-11T07:28:49.000Z</time>
      </trkpt>
      <trkpt lat="47.91077" lon="7.15943">
        <ele>646</ele>
        <time>2021-07-11T07:28:53.000Z</time>
      </trkpt>
      <trkpt lat="47.91076" lon="7.1594">
        <ele>646.40002441406</ele>
        <time>2021-07-11T07:28:54.000Z</time>
      </trkpt>
      <trkpt lat="47.91075" lon="7.15937">
        <ele>646.79998779297</ele>
        <time>2021-07-11T07:28:55.000Z</time>
      </trkpt>
      <trkpt lat="47.91074" lon="7.15935">
        <ele>647.20001220703</ele>
        <time>2021-07-11T07:28:56.000Z</time>
      </trkpt>
      <trkpt lat="47.91072" lon="7.15932">
        <ele>647.59997558594</ele>
        <time>2021-07-11T07:28:57.000Z</time>
      </trkpt>
      <trkpt lat="47.91071" lon="7.15931">
        <ele>648</ele>
        <time>2021-07-11T07:28:58.000Z</time>
      </trkpt>
      <trkpt lat="47.91071" lon="7.15929">
        <ele>648</ele>
        <time>2021-07-11T07:28:59.000Z</time>
      </trkpt>
      <trkpt lat="47.91068" lon="7.15918">
        <ele>648.40002441406</ele>
        <time>2021-07-11T07:29:03.000Z</time>
      </trkpt>
      <trkpt lat="47.91066" lon="7.15915">
        <ele>648.79998779297</ele>
        <time>2021-07-11T07:29:04.000Z</time>
      </trkpt>
      <trkpt lat="47.91065" lon="7.15912">
        <ele>649.40002441406</ele>
        <time>2021-07-11T07:29:05.000Z</time>
      </trkpt>
      <trkpt lat="47.91064" lon="7.15909">
        <ele>649.79998779297</ele>
        <time>2021-07-11T07:29:06.000Z</time>
      </trkpt>
      <trkpt lat="47.91063" lon="7.15907">
        <ele>650.20001220703</ele>
        <time>2021-07-11T07:29:07.000Z</time>
      </trkpt>
      <trkpt lat="47.91057" lon="7.15895">
        <ele>650.59997558594</ele>
        <time>2021-07-11T07:29:12.000Z</time>
      </trkpt>
      <trkpt lat="47.91055" lon="7.15893">
        <ele>651</ele>
        <time>2021-07-11T07:29:13.000Z</time>
      </trkpt>
      <trkpt lat="47.91053" lon="7.1589">
        <ele>651.40002441406</ele>
        <time>2021-07-11T07:29:14.000Z</time>
      </trkpt>
      <trkpt lat="47.91052" lon="7.15888">
        <ele>651.79998779297</ele>
        <time>2021-07-11T07:29:15.000Z</time>
      </trkpt>
      <trkpt lat="47.91051" lon="7.15886">
        <ele>652.40002441406</ele>
        <time>2021-07-11T07:29:16.000Z</time>
      </trkpt>
      <trkpt lat="47.91049" lon="7.15882">
        <ele>652.40002441406</ele>
        <time>2021-07-11T07:29:18.000Z</time>
      </trkpt>
      <trkpt lat="47.91047" lon="7.15878">
        <ele>652.40002441406</ele>
        <time>2021-07-11T07:29:20.000Z</time>
      </trkpt>
      <trkpt lat="47.91047" lon="7.15873">
        <ele>652.79998779297</ele>
        <time>2021-07-11T07:29:22.000Z</time>
      </trkpt>
      <trkpt lat="47.91046" lon="7.15872">
        <ele>653.20001220703</ele>
        <time>2021-07-11T07:29:23.000Z</time>
      </trkpt>
      <trkpt lat="47.9104" lon="7.15872">
        <ele>654.40002441406</ele>
        <time>2021-07-11T07:31:27.000Z</time>
      </trkpt>
      <trkpt lat="47.91038" lon="7.15872">
        <ele>654.40002441406</ele>
        <time>2021-07-11T07:31:29.000Z</time>
      </trkpt>
      <trkpt lat="47.91038" lon="7.15871">
        <ele>654.40002441406</ele>
        <time>2021-07-11T07:32:23.000Z</time>
      </trkpt>
      <trkpt lat="47.91037" lon="7.1587">
        <ele>654.40002441406</ele>
        <time>2021-07-11T07:32:24.000Z</time>
      </trkpt>
      <trkpt lat="47.91036" lon="7.15869">
        <ele>654.40002441406</ele>
        <time>2021-07-11T07:32:25.000Z</time>
      </trkpt>
      <trkpt lat="47.91032" lon="7.1586">
        <ele>654.40002441406</ele>
        <time>2021-07-11T07:32:32.000Z</time>
      </trkpt>
      <trkpt lat="47.91031" lon="7.15856">
        <ele>654.79998779297</ele>
        <time>2021-07-11T07:32:34.000Z</time>
      </trkpt>
      <trkpt lat="47.9103" lon="7.15855">
        <ele>655.20001220703</ele>
        <time>2021-07-11T07:32:35.000Z</time>
      </trkpt>
      <trkpt lat="47.91029" lon="7.15853">
        <ele>655.59997558594</ele>
        <time>2021-07-11T07:32:36.000Z</time>
      </trkpt>
      <trkpt lat="47.91028" lon="7.15851">
        <ele>656.20001220703</ele>
        <time>2021-07-11T07:32:37.000Z</time>
      </trkpt>
      <trkpt lat="47.91027" lon="7.15849">
        <ele>656.59997558594</ele>
        <time>2021-07-11T07:32:38.000Z</time>
      </trkpt>
      <trkpt lat="47.91026" lon="7.15847">
        <ele>656.59997558594</ele>
        <time>2021-07-11T07:32:39.000Z</time>
      </trkpt>
      <trkpt lat="47.91025" lon="7.1584">
        <ele>657</ele>
        <time>2021-07-11T07:32:43.000Z</time>
      </trkpt>
      <trkpt lat="47.91025" lon="7.15838">
        <ele>657.40002441406</ele>
        <time>2021-07-11T07:32:44.000Z</time>
      </trkpt>
      <trkpt lat="47.91024" lon="7.15835">
        <ele>658</ele>
        <time>2021-07-11T07:32:45.000Z</time>
      </trkpt>
      <trkpt lat="47.91024" lon="7.15832">
        <ele>658.40002441406</ele>
        <time>2021-07-11T07:32:46.000Z</time>
      </trkpt>
      <trkpt lat="47.91023" lon="7.1583">
        <ele>658.79998779297</ele>
        <time>2021-07-11T07:32:47.000Z</time>
      </trkpt>
      <trkpt lat="47.91021" lon="7.15827">
        <ele>659.20001220703</ele>
        <time>2021-07-11T07:32:49.000Z</time>
      </trkpt>
      <trkpt lat="47.91021" lon="7.15825">
        <ele>659.59997558594</ele>
        <time>2021-07-11T07:32:50.000Z</time>
      </trkpt>
      <trkpt lat="47.9102" lon="7.15823">
        <ele>660</ele>
        <time>2021-07-11T07:32:51.000Z</time>
      </trkpt>
      <trkpt lat="47.91021" lon="7.1582">
        <ele>660.40002441406</ele>
        <time>2021-07-11T07:32:52.000Z</time>
      </trkpt>
      <trkpt lat="47.91021" lon="7.15816">
        <ele>660.79998779297</ele>
        <time>2021-07-11T07:32:53.000Z</time>
      </trkpt>
      <trkpt lat="47.91018" lon="7.15808">
        <ele>661.20001220703</ele>
        <time>2021-07-11T07:32:56.000Z</time>
      </trkpt>
      <trkpt lat="47.91017" lon="7.15805">
        <ele>661.79998779297</ele>
        <time>2021-07-11T07:32:57.000Z</time>
      </trkpt>
      <trkpt lat="47.91015" lon="7.15802">
        <ele>662.20001220703</ele>
        <time>2021-07-11T07:32:58.000Z</time>
      </trkpt>
      <trkpt lat="47.91015" lon="7.158">
        <ele>662.59997558594</ele>
        <time>2021-07-11T07:32:59.000Z</time>
      </trkpt>
      <trkpt lat="47.91015" lon="7.15797">
        <ele>663</ele>
        <time>2021-07-11T07:33:00.000Z</time>
      </trkpt>
      <trkpt lat="47.91013" lon="7.15793">
        <ele>663</ele>
        <time>2021-07-11T07:33:02.000Z</time>
      </trkpt>
      <trkpt lat="47.91012" lon="7.15791">
        <ele>663.40002441406</ele>
        <time>2021-07-11T07:33:03.000Z</time>
      </trkpt>
      <trkpt lat="47.9101" lon="7.15789">
        <ele>663.79998779297</ele>
        <time>2021-07-11T07:33:04.000Z</time>
      </trkpt>
      <trkpt lat="47.91009" lon="7.15787">
        <ele>664.20001220703</ele>
        <time>2021-07-11T07:33:05.000Z</time>
      </trkpt>
      <trkpt lat="47.91008" lon="7.15786">
        <ele>664.59997558594</ele>
        <time>2021-07-11T07:33:06.000Z</time>
      </trkpt>
      <trkpt lat="47.91006" lon="7.15784">
        <ele>665.20001220703</ele>
        <time>2021-07-11T07:33:07.000Z</time>
      </trkpt>
      <trkpt lat="47.91005" lon="7.15782">
        <ele>665.20001220703</ele>
        <time>2021-07-11T07:33:08.000Z</time>
      </trkpt>
      <trkpt lat="47.91" lon="7.15772">
        <ele>665.59997558594</ele>
        <time>2021-07-11T07:33:13.000Z</time>
      </trkpt>
      <trkpt lat="47.90999" lon="7.1577">
        <ele>666</ele>
        <time>2021-07-11T07:33:14.000Z</time>
      </trkpt>
      <trkpt lat="47.90997" lon="7.15767">
        <ele>666.40002441406</ele>
        <time>2021-07-11T07:33:15.000Z</time>
      </trkpt>
      <trkpt lat="47.90996" lon="7.15765">
        <ele>666.79998779297</ele>
        <time>2021-07-11T07:33:16.000Z</time>
      </trkpt>
      <trkpt lat="47.90995" lon="7.15763">
        <ele>667.40002441406</ele>
        <time>2021-07-11T07:33:17.000Z</time>
      </trkpt>
      <trkpt lat="47.90992" lon="7.15752">
        <ele>667.79998779297</ele>
        <time>2021-07-11T07:33:22.000Z</time>
      </trkpt>
      <trkpt lat="47.90992" lon="7.15749">
        <ele>668.20001220703</ele>
        <time>2021-07-11T07:33:23.000Z</time>
      </trkpt>
      <trkpt lat="47.90991" lon="7.15746">
        <ele>668.59997558594</ele>
        <time>2021-07-11T07:33:24.000Z</time>
      </trkpt>
      <trkpt lat="47.9099" lon="7.15743">
        <ele>669</ele>
        <time>2021-07-11T07:33:25.000Z</time>
      </trkpt>
      <trkpt lat="47.9099" lon="7.15739">
        <ele>669.59997558594</ele>
        <time>2021-07-11T07:33:26.000Z</time>
      </trkpt>
      <trkpt lat="47.90989" lon="7.15734">
        <ele>669.59997558594</ele>
        <time>2021-07-11T07:33:28.000Z</time>
      </trkpt>
      <trkpt lat="47.90989" lon="7.15732">
        <ele>670</ele>
        <time>2021-07-11T07:33:29.000Z</time>
      </trkpt>
      <trkpt lat="47.90989" lon="7.15732">
        <ele>670.40002441406</ele>
        <time>2021-07-11T07:33:30.000Z</time>
      </trkpt>
      <trkpt lat="47.90986" lon="7.15723">
        <ele>671.79998779297</ele>
        <time>2021-07-11T07:34:11.000Z</time>
      </trkpt>
      <trkpt lat="47.90985" lon="7.15718">
        <ele>671.79998779297</ele>
        <time>2021-07-11T07:34:13.000Z</time>
      </trkpt>
      <trkpt lat="47.90985" lon="7.15715">
        <ele>672.20001220703</ele>
        <time>2021-07-11T07:34:14.000Z</time>
      </trkpt>
      <trkpt lat="47.90985" lon="7.15713">
        <ele>672.59997558594</ele>
        <time>2021-07-11T07:34:15.000Z</time>
      </trkpt>
      <trkpt lat="47.90985" lon="7.15711">
        <ele>673</ele>
        <time>2021-07-11T07:34:16.000Z</time>
      </trkpt>
      <trkpt lat="47.90985" lon="7.1571">
        <ele>673.40002441406</ele>
        <time>2021-07-11T07:34:17.000Z</time>
      </trkpt>
      <trkpt lat="47.90985" lon="7.15708">
        <ele>673.79998779297</ele>
        <time>2021-07-11T07:34:18.000Z</time>
      </trkpt>
      <trkpt lat="47.90985" lon="7.15706">
        <ele>673.79998779297</ele>
        <time>2021-07-11T07:34:19.000Z</time>
      </trkpt>
      <trkpt lat="47.90986" lon="7.157">
        <ele>674.20001220703</ele>
        <time>2021-07-11T07:34:22.000Z</time>
      </trkpt>
      <trkpt lat="47.90985" lon="7.15698">
        <ele>674.59997558594</ele>
        <time>2021-07-11T07:34:23.000Z</time>
      </trkpt>
      <trkpt lat="47.90985" lon="7.15696">
        <ele>675</ele>
        <time>2021-07-11T07:34:24.000Z</time>
      </trkpt>
      <trkpt lat="47.90984" lon="7.15693">
        <ele>675.40002441406</ele>
        <time>2021-07-11T07:34:25.000Z</time>
      </trkpt>
      <trkpt lat="47.90983" lon="7.15691">
        <ele>675.79998779297</ele>
        <time>2021-07-11T07:34:26.000Z</time>
      </trkpt>
      <trkpt lat="47.90981" lon="7.15686">
        <ele>675.79998779297</ele>
        <time>2021-07-11T07:34:28.000Z</time>
      </trkpt>
      <trkpt lat="47.9098" lon="7.15682">
        <ele>676.20001220703</ele>
        <time>2021-07-11T07:34:30.000Z</time>
      </trkpt>
      <trkpt lat="47.90979" lon="7.1568">
        <ele>676.59997558594</ele>
        <time>2021-07-11T07:34:31.000Z</time>
      </trkpt>
      <trkpt lat="47.90979" lon="7.15677">
        <ele>677.20001220703</ele>
        <time>2021-07-11T07:34:32.000Z</time>
      </trkpt>
      <trkpt lat="47.90979" lon="7.15675">
        <ele>677.59997558594</ele>
        <time>2021-07-11T07:34:33.000Z</time>
      </trkpt>
      <trkpt lat="47.90978" lon="7.15671">
        <ele>678</ele>
        <time>2021-07-11T07:34:34.000Z</time>
      </trkpt>
      <trkpt lat="47.90977" lon="7.15666">
        <ele>678</ele>
        <time>2021-07-11T07:34:37.000Z</time>
      </trkpt>
      <trkpt lat="47.90976" lon="7.15662">
        <ele>678.40002441406</ele>
        <time>2021-07-11T07:34:39.000Z</time>
      </trkpt>
      <trkpt lat="47.90975" lon="7.1566">
        <ele>678.79998779297</ele>
        <time>2021-07-11T07:34:40.000Z</time>
      </trkpt>
      <trkpt lat="47.90975" lon="7.15657">
        <ele>679.40002441406</ele>
        <time>2021-07-11T07:34:41.000Z</time>
      </trkpt>
      <trkpt lat="47.90974" lon="7.15654">
        <ele>679.79998779297</ele>
        <time>2021-07-11T07:34:42.000Z</time>
      </trkpt>
      <trkpt lat="47.90974" lon="7.1565">
        <ele>680.20001220703</ele>
        <time>2021-07-11T07:34:43.000Z</time>
      </trkpt>
      <trkpt lat="47.90974" lon="7.15646">
        <ele>680.20001220703</ele>
        <time>2021-07-11T07:34:44.000Z</time>
      </trkpt>
      <trkpt lat="47.90972" lon="7.15637">
        <ele>680.20001220703</ele>
        <time>2021-07-11T07:34:47.000Z</time>
      </trkpt>
      <trkpt lat="47.90971" lon="7.15634">
        <ele>680.59997558594</ele>
        <time>2021-07-11T07:34:48.000Z</time>
      </trkpt>
      <trkpt lat="47.90971" lon="7.15632">
        <ele>681</ele>
        <time>2021-07-11T07:34:49.000Z</time>
      </trkpt>
      <trkpt lat="47.9097" lon="7.15629">
        <ele>681.40002441406</ele>
        <time>2021-07-11T07:34:50.000Z</time>
      </trkpt>
      <trkpt lat="47.9097" lon="7.15626">
        <ele>682.40002441406</ele>
        <time>2021-07-11T07:34:51.000Z</time>
      </trkpt>
      <trkpt lat="47.90967" lon="7.15617">
        <ele>682.79998779297</ele>
        <time>2021-07-11T07:34:55.000Z</time>
      </trkpt>
      <trkpt lat="47.90966" lon="7.15615">
        <ele>683.20001220703</ele>
        <time>2021-07-11T07:34:56.000Z</time>
      </trkpt>
      <trkpt lat="47.90965" lon="7.15613">
        <ele>683.59997558594</ele>
        <time>2021-07-11T07:34:57.000Z</time>
      </trkpt>
      <trkpt lat="47.90964" lon="7.15611">
        <ele>684.20001220703</ele>
        <time>2021-07-11T07:34:58.000Z</time>
      </trkpt>
      <trkpt lat="47.90964" lon="7.1561">
        <ele>684.59997558594</ele>
        <time>2021-07-11T07:34:59.000Z</time>
      </trkpt>
      <trkpt lat="47.90962" lon="7.15604">
        <ele>685</ele>
        <time>2021-07-11T07:35:02.000Z</time>
      </trkpt>
      <trkpt lat="47.90961" lon="7.15602">
        <ele>685.40002441406</ele>
        <time>2021-07-11T07:35:03.000Z</time>
      </trkpt>
      <trkpt lat="47.9096" lon="7.156">
        <ele>685.79998779297</ele>
        <time>2021-07-11T07:35:04.000Z</time>
      </trkpt>
      <trkpt lat="47.90959" lon="7.15598">
        <ele>686.20001220703</ele>
        <time>2021-07-11T07:35:05.000Z</time>
      </trkpt>
      <trkpt lat="47.90959" lon="7.15597">
        <ele>686.59997558594</ele>
        <time>2021-07-11T07:35:06.000Z</time>
      </trkpt>
      <trkpt lat="47.90958" lon="7.15592">
        <ele>687</ele>
        <time>2021-07-11T07:35:08.000Z</time>
      </trkpt>
      <trkpt lat="47.90958" lon="7.15591">
        <ele>687.40002441406</ele>
        <time>2021-07-11T07:35:09.000Z</time>
      </trkpt>
      <trkpt lat="47.90957" lon="7.15589">
        <ele>687.79998779297</ele>
        <time>2021-07-11T07:35:10.000Z</time>
      </trkpt>
      <trkpt lat="47.90956" lon="7.15585">
        <ele>688.20001220703</ele>
        <time>2021-07-11T07:35:11.000Z</time>
      </trkpt>
      <trkpt lat="47.90955" lon="7.15583">
        <ele>688.79998779297</ele>
        <time>2021-07-11T07:35:12.000Z</time>
      </trkpt>
      <trkpt lat="47.90955" lon="7.15579">
        <ele>689.20001220703</ele>
        <time>2021-07-11T07:35:14.000Z</time>
      </trkpt>
      <trkpt lat="47.90955" lon="7.15578">
        <ele>689.59997558594</ele>
        <time>2021-07-11T07:35:15.000Z</time>
      </trkpt>
      <trkpt lat="47.90929" lon="7.15472">
        <ele>709.40002441406</ele>
        <time>2021-07-11T07:39:36.000Z</time>
      </trkpt>
      <trkpt lat="47.90929" lon="7.1547">
        <ele>709.79998779297</ele>
        <time>2021-07-11T07:39:37.000Z</time>
      </trkpt>
      <trkpt lat="47.90929" lon="7.15468">
        <ele>710.40002441406</ele>
        <time>2021-07-11T07:39:38.000Z</time>
      </trkpt>
      <trkpt lat="47.90929" lon="7.15466">
        <ele>710.79998779297</ele>
        <time>2021-07-11T07:39:39.000Z</time>
      </trkpt>
      <trkpt lat="47.90929" lon="7.15466">
        <ele>711.20001220703</ele>
        <time>2021-07-11T07:39:40.000Z</time>
      </trkpt>
      <trkpt lat="47.90929" lon="7.15464">
        <ele>711.79998779297</ele>
        <time>2021-07-11T07:39:41.000Z</time>
      </trkpt>
      <trkpt lat="47.90927" lon="7.15429">
        <ele>719</ele>
        <time>2021-07-11T07:41:38.000Z</time>
      </trkpt>
      <trkpt lat="47.90927" lon="7.15427">
        <ele>720</ele>
        <time>2021-07-11T07:41:39.000Z</time>
      </trkpt>
      <trkpt lat="47.90927" lon="7.15425">
        <ele>720.40002441406</ele>
        <time>2021-07-11T07:41:40.000Z</time>
      </trkpt>
      <trkpt lat="47.90927" lon="7.15421">
        <ele>720.79998779297</ele>
        <time>2021-07-11T07:41:42.000Z</time>
      </trkpt>
      <trkpt lat="47.90927" lon="7.15418">
        <ele>721.20001220703</ele>
        <time>2021-07-11T07:41:43.000Z</time>
      </trkpt>
      <trkpt lat="47.90927" lon="7.15415">
        <ele>721.79998779297</ele>
        <time>2021-07-11T07:41:44.000Z</time>
      </trkpt>
      <trkpt lat="47.90927" lon="7.15412">
        <ele>722.20001220703</ele>
        <time>2021-07-11T07:41:45.000Z</time>
      </trkpt>
      <trkpt lat="47.90927" lon="7.15409">
        <ele>722.59997558594</ele>
        <time>2021-07-11T07:41:46.000Z</time>
      </trkpt>
      <trkpt lat="47.90927" lon="7.15406">
        <ele>723</ele>
        <time>2021-07-11T07:41:47.000Z</time>
      </trkpt>
      <trkpt lat="47.90926" lon="7.15403">
        <ele>723.40002441406</ele>
        <time>2021-07-11T07:41:48.000Z</time>
      </trkpt>
      <trkpt lat="47.90926" lon="7.15401">
        <ele>723.79998779297</ele>
        <time>2021-07-11T07:41:49.000Z</time>
      </trkpt>
      <trkpt lat="47.90926" lon="7.15398">
        <ele>724.40002441406</ele>
        <time>2021-07-11T07:41:50.000Z</time>
      </trkpt>
      <trkpt lat="47.90925" lon="7.15396">
        <ele>724.79998779297</ele>
        <time>2021-07-11T07:41:51.000Z</time>
      </trkpt>
      <trkpt lat="47.90925" lon="7.15393">
        <ele>725.20001220703</ele>
        <time>2021-07-11T07:41:52.000Z</time>
      </trkpt>
      <trkpt lat="47.90925" lon="7.1539">
        <ele>725.59997558594</ele>
        <time>2021-07-11T07:41:53.000Z</time>
      </trkpt>
      <trkpt lat="47.90925" lon="7.15388">
        <ele>726</ele>
        <time>2021-07-11T07:41:54.000Z</time>
      </trkpt>
      <trkpt lat="47.90925" lon="7.15385">
        <ele>726.40002441406</ele>
        <time>2021-07-11T07:41:55.000Z</time>
      </trkpt>
      <trkpt lat="47.90925" lon="7.15383">
        <ele>726.79998779297</ele>
        <time>2021-07-11T07:41:56.000Z</time>
      </trkpt>
      <trkpt lat="47.90925" lon="7.15381">
        <ele>727.20001220703</ele>
        <time>2021-07-11T07:41:57.000Z</time>
      </trkpt>
      <trkpt lat="47.90924" lon="7.15379">
        <ele>727.59997558594</ele>
        <time>2021-07-11T07:41:58.000Z</time>
      </trkpt>
      <trkpt lat="47.90923" lon="7.15375">
        <ele>728.20001220703</ele>
        <time>2021-07-11T07:41:59.000Z</time>
      </trkpt>
      <trkpt lat="47.90922" lon="7.15372">
        <ele>728.59997558594</ele>
        <time>2021-07-11T07:42:00.000Z</time>
      </trkpt>
      <trkpt lat="47.90921" lon="7.15369">
        <ele>729</ele>
        <time>2021-07-11T07:42:01.000Z</time>
      </trkpt>
      <trkpt lat="47.90921" lon="7.15362">
        <ele>730</ele>
        <time>2021-07-11T07:42:03.000Z</time>
      </trkpt>
      <trkpt lat="47.90921" lon="7.1536">
        <ele>730.59997558594</ele>
        <time>2021-07-11T07:42:04.000Z</time>
      </trkpt>
      <trkpt lat="47.90921" lon="7.15357">
        <ele>731</ele>
        <time>2021-07-11T07:42:05.000Z</time>
      </trkpt>
      <trkpt lat="47.90921" lon="7.15355">
        <ele>731.59997558594</ele>
        <time>2021-07-11T07:42:06.000Z</time>
      </trkpt>
      <trkpt lat="47.90921" lon="7.15353">
        <ele>732</ele>
        <time>2021-07-11T07:42:07.000Z</time>
      </trkpt>
      <trkpt lat="47.90922" lon="7.15349">
        <ele>732.40002441406</ele>
        <time>2021-07-11T07:42:08.000Z</time>
      </trkpt>
      <trkpt lat="47.90922" lon="7.15345">
        <ele>732.79998779297</ele>
        <time>2021-07-11T07:42:09.000Z</time>
      </trkpt>
      <trkpt lat="47.90922" lon="7.15342">
        <ele>733.20001220703</ele>
        <time>2021-07-11T07:42:10.000Z</time>
      </trkpt>
      <trkpt lat="47.90923" lon="7.15339">
        <ele>733.59997558594</ele>
        <time>2021-07-11T07:42:11.000Z</time>
      </trkpt>
      <trkpt lat="47.90923" lon="7.15336">
        <ele>734</ele>
        <time>2021-07-11T07:42:12.000Z</time>
      </trkpt>
      <trkpt lat="47.90922" lon="7.15335">
        <ele>734.59997558594</ele>
        <time>2021-07-11T07:42:13.000Z</time>
      </trkpt>
      <trkpt lat="47.90923" lon="7.15333">
        <ele>735</ele>
        <time>2021-07-11T07:42:14.000Z</time>
      </trkpt>
      <trkpt lat="47.90923" lon="7.15332">
        <ele>735.40002441406</ele>
        <time>2021-07-11T07:42:15.000Z</time>
      </trkpt>
      <trkpt lat="47.90898" lon="7.15289">
        <ele>747.59997558594</ele>
        <time>2021-07-11T07:42:41.000Z</time>
      </trkpt>
      <trkpt lat="47.90896" lon="7.15288">
        <ele>748</ele>
        <time>2021-07-11T07:42:42.000Z</time>
      </trkpt>
      <trkpt lat="47.90895" lon="7.15287">
        <ele>748.40002441406</ele>
        <time>2021-07-11T07:42:43.000Z</time>
      </trkpt>
      <trkpt lat="47.90894" lon="7.15286">
        <ele>749</ele>
        <time>2021-07-11T07:42:44.000Z</time>
      </trkpt>
      <trkpt lat="47.90893" lon="7.15285">
        <ele>749.40002441406</ele>
        <time>2021-07-11T07:42:45.000Z</time>
      </trkpt>
      <trkpt lat="47.90891" lon="7.15285">
        <ele>749.79998779297</ele>
        <time>2021-07-11T07:42:46.000Z</time>
      </trkpt>
      <trkpt lat="47.90889" lon="7.15284">
        <ele>750.20001220703</ele>
        <time>2021-07-11T07:42:47.000Z</time>
      </trkpt>
      <trkpt lat="47.90887" lon="7.15284">
        <ele>750.79998779297</ele>
        <time>2021-07-11T07:42:48.000Z</time>
      </trkpt>
      <trkpt lat="47.90885" lon="7.15283">
        <ele>751.20001220703</ele>
        <time>2021-07-11T07:42:49.000Z</time>
      </trkpt>
      <trkpt lat="47.90883" lon="7.15282">
        <ele>751.59997558594</ele>
        <time>2021-07-11T07:42:50.000Z</time>
      </trkpt>
      <trkpt lat="47.90882" lon="7.15282">
        <ele>752.20001220703</ele>
        <time>2021-07-11T07:42:51.000Z</time>
      </trkpt>
      <trkpt lat="47.9088" lon="7.15282">
        <ele>752.59997558594</ele>
        <time>2021-07-11T07:42:52.000Z</time>
      </trkpt>
      <trkpt lat="47.90879" lon="7.15282">
        <ele>753.59997558594</ele>
        <time>2021-07-11T07:42:53.000Z</time>
      </trkpt>
      <trkpt lat="47.90877" lon="7.15281">
        <ele>754.20001220703</ele>
        <time>2021-07-11T07:42:54.000Z</time>
      </trkpt>
      <trkpt lat="47.90875" lon="7.15281">
        <ele>754.59997558594</ele>
        <time>2021-07-11T07:42:55.000Z</time>
      </trkpt>
      <trkpt lat="47.90873" lon="7.15281">
        <ele>755.20001220703</ele>
        <time>2021-07-11T07:42:56.000Z</time>
      </trkpt>
      <trkpt lat="47.90871" lon="7.1528">
        <ele>755.79998779297</ele>
        <time>2021-07-11T07:42:57.000Z</time>
      </trkpt>
      <trkpt lat="47.90869" lon="7.1528">
        <ele>756.20001220703</ele>
        <time>2021-07-11T07:42:58.000Z</time>
      </trkpt>
      <trkpt lat="47.90868" lon="7.15279">
        <ele>756.79998779297</ele>
        <time>2021-07-11T07:42:59.000Z</time>
      </trkpt>
      <trkpt lat="47.90866" lon="7.15278">
        <ele>757.20001220703</ele>
        <time>2021-07-11T07:43:00.000Z</time>
      </trkpt>
      <trkpt lat="47.90864" lon="7.15277">
        <ele>757.79998779297</ele>
        <time>2021-07-11T07:43:01.000Z</time>
      </trkpt>
      <trkpt lat="47.90862" lon="7.15276">
        <ele>758.20001220703</ele>
        <time>2021-07-11T07:43:02.000Z</time>
      </trkpt>
      <trkpt lat="47.9086" lon="7.15276">
        <ele>758.79998779297</ele>
        <time>2021-07-11T07:43:03.000Z</time>
      </trkpt>
      <trkpt lat="47.90859" lon="7.15275">
        <ele>759.20001220703</ele>
        <time>2021-07-11T07:43:04.000Z</time>
      </trkpt>
      <trkpt lat="47.90857" lon="7.15275">
        <ele>759.59997558594</ele>
        <time>2021-07-11T07:43:05.000Z</time>
      </trkpt>
      <trkpt lat="47.90856" lon="7.15274">
        <ele>760.20001220703</ele>
        <time>2021-07-11T07:43:06.000Z</time>
      </trkpt>
      <trkpt lat="47.90854" lon="7.15273">
        <ele>760.59997558594</ele>
        <time>2021-07-11T07:43:07.000Z</time>
      </trkpt>
      <trkpt lat="47.90853" lon="7.15272">
        <ele>761</ele>
        <time>2021-07-11T07:43:08.000Z</time>
      </trkpt>
      <trkpt lat="47.90851" lon="7.1527">
        <ele>761.40002441406</ele>
        <time>2021-07-11T07:43:10.000Z</time>
      </trkpt>
      <trkpt lat="47.9085" lon="7.15269">
        <ele>762</ele>
        <time>2021-07-11T07:43:11.000Z</time>
      </trkpt>
      <trkpt lat="47.90849" lon="7.15268">
        <ele>762.40002441406</ele>
        <time>2021-07-11T07:43:12.000Z</time>
      </trkpt>
      <trkpt lat="47.90847" lon="7.15267">
        <ele>762.79998779297</ele>
        <time>2021-07-11T07:43:13.000Z</time>
      </trkpt>
      <trkpt lat="47.90846" lon="7.15266">
        <ele>763.40002441406</ele>
        <time>2021-07-11T07:43:14.000Z</time>
      </trkpt>
      <trkpt lat="47.90841" lon="7.15263">
        <ele>764.20001220703</ele>
        <time>2021-07-11T07:43:17.000Z</time>
      </trkpt>
      <trkpt lat="47.9084" lon="7.15262">
        <ele>764.59997558594</ele>
        <time>2021-07-11T07:43:18.000Z</time>
      </trkpt>
      <trkpt lat="47.90839" lon="7.1526">
        <ele>765</ele>
        <time>2021-07-11T07:43:19.000Z</time>
      </trkpt>
      <trkpt lat="47.90837" lon="7.15259">
        <ele>765.40002441406</ele>
        <time>2021-07-11T07:43:20.000Z</time>
      </trkpt>
      <trkpt lat="47.90829" lon="7.15252">
        <ele>765.79998779297</ele>
        <time>2021-07-11T07:43:26.000Z</time>
      </trkpt>
      <trkpt lat="47.90827" lon="7.15252">
        <ele>766.20001220703</ele>
        <time>2021-07-11T07:43:27.000Z</time>
      </trkpt>
      <trkpt lat="47.90825" lon="7.15251">
        <ele>766.59997558594</ele>
        <time>2021-07-11T07:43:28.000Z</time>
      </trkpt>
      <trkpt lat="47.90823" lon="7.15251">
        <ele>767.20001220703</ele>
        <time>2021-07-11T07:43:29.000Z</time>
      </trkpt>
      <trkpt lat="47.90822" lon="7.1525">
        <ele>767.59997558594</ele>
        <time>2021-07-11T07:43:30.000Z</time>
      </trkpt>
      <trkpt lat="47.9082" lon="7.15246">
        <ele>767.59997558594</ele>
        <time>2021-07-11T07:43:32.000Z</time>
      </trkpt>
      <trkpt lat="47.90819" lon="7.15244">
        <ele>767.59997558594</ele>
        <time>2021-07-11T07:43:33.000Z</time>
      </trkpt>
      <trkpt lat="47.90811" lon="7.1523">
        <ele>768</ele>
        <time>2021-07-11T07:43:40.000Z</time>
      </trkpt>
      <trkpt lat="47.90811" lon="7.15228">
        <ele>768.40002441406</ele>
        <time>2021-07-11T07:43:41.000Z</time>
      </trkpt>
      <trkpt lat="47.9081" lon="7.15226">
        <ele>769.20001220703</ele>
        <time>2021-07-11T07:43:42.000Z</time>
      </trkpt>
      <trkpt lat="47.90809" lon="7.15224">
        <ele>769.59997558594</ele>
        <time>2021-07-11T07:43:43.000Z</time>
      </trkpt>
      <trkpt lat="47.90807" lon="7.15217">
        <ele>770</ele>
        <time>2021-07-11T07:43:47.000Z</time>
      </trkpt>
      <trkpt lat="47.90807" lon="7.15216">
        <ele>770.59997558594</ele>
        <time>2021-07-11T07:43:48.000Z</time>
      </trkpt>
      <trkpt lat="47.90806" lon="7.15215">
        <ele>771</ele>
        <time>2021-07-11T07:43:49.000Z</time>
      </trkpt>
      <trkpt lat="47.90805" lon="7.15212">
        <ele>771.40002441406</ele>
        <time>2021-07-11T07:43:50.000Z</time>
      </trkpt>
      <trkpt lat="47.90805" lon="7.15209">
        <ele>771.79998779297</ele>
        <time>2021-07-11T07:43:51.000Z</time>
      </trkpt>
      <trkpt lat="47.90801" lon="7.152">
        <ele>771.79998779297</ele>
        <time>2021-07-11T07:43:54.000Z</time>
      </trkpt>
      <trkpt lat="47.908" lon="7.15197">
        <ele>772.20001220703</ele>
        <time>2021-07-11T07:43:55.000Z</time>
      </trkpt>
      <trkpt lat="47.90799" lon="7.15194">
        <ele>772.59997558594</ele>
        <time>2021-07-11T07:43:56.000Z</time>
      </trkpt>
      <trkpt lat="47.90798" lon="7.15192">
        <ele>773</ele>
        <time>2021-07-11T07:43:57.000Z</time>
      </trkpt>
      <trkpt lat="47.90797" lon="7.1519">
        <ele>773.40002441406</ele>
        <time>2021-07-11T07:43:58.000Z</time>
      </trkpt>
      <trkpt lat="47.90797" lon="7.15187">
        <ele>773.79998779297</ele>
        <time>2021-07-11T07:43:59.000Z</time>
      </trkpt>
      <trkpt lat="47.90797" lon="7.15176">
        <ele>773.79998779297</ele>
        <time>2021-07-11T07:44:04.000Z</time>
      </trkpt>
      <trkpt lat="47.90797" lon="7.15162">
        <ele>773.79998779297</ele>
        <time>2021-07-11T07:44:10.000Z</time>
      </trkpt>
      <trkpt lat="47.90799" lon="7.15146">
        <ele>773.79998779297</ele>
        <time>2021-07-11T07:44:17.000Z</time>
      </trkpt>
      <trkpt lat="47.908" lon="7.15142">
        <ele>774.20001220703</ele>
        <time>2021-07-11T07:44:19.000Z</time>
      </trkpt>
      <trkpt lat="47.90799" lon="7.15138">
        <ele>774.59997558594</ele>
        <time>2021-07-11T07:44:20.000Z</time>
      </trkpt>
      <trkpt lat="47.90799" lon="7.15136">
        <ele>775</ele>
        <time>2021-07-11T07:44:21.000Z</time>
      </trkpt>
      <trkpt lat="47.90798" lon="7.15134">
        <ele>775.40002441406</ele>
        <time>2021-07-11T07:44:22.000Z</time>
      </trkpt>
      <trkpt lat="47.90798" lon="7.15131">
        <ele>775.79998779297</ele>
        <time>2021-07-11T07:44:23.000Z</time>
      </trkpt>
      <trkpt lat="47.90798" lon="7.15129">
        <ele>775.79998779297</ele>
        <time>2021-07-11T07:44:24.000Z</time>
      </trkpt>
      <trkpt lat="47.90798" lon="7.15109">
        <ele>775.79998779297</ele>
        <time>2021-07-11T07:44:31.000Z</time>
      </trkpt>
      <trkpt lat="47.90798" lon="7.15103">
        <ele>775.79998779297</ele>
        <time>2021-07-11T07:44:33.000Z</time>
      </trkpt>
      <trkpt lat="47.90797" lon="7.15093">
        <ele>775.79998779297</ele>
        <time>2021-07-11T07:44:37.000Z</time>
      </trkpt>
      <trkpt lat="47.90796" lon="7.15082">
        <ele>776.20001220703</ele>
        <time>2021-07-11T07:44:41.000Z</time>
      </trkpt>
      <trkpt lat="47.90796" lon="7.1508">
        <ele>776.59997558594</ele>
        <time>2021-07-11T07:44:42.000Z</time>
      </trkpt>
      <trkpt lat="47.90795" lon="7.15077">
        <ele>777</ele>
        <time>2021-07-11T07:44:43.000Z</time>
      </trkpt>
      <trkpt lat="47.90795" lon="7.15075">
        <ele>777.40002441406</ele>
        <time>2021-07-11T07:44:44.000Z</time>
      </trkpt>
      <trkpt lat="47.90795" lon="7.15073">
        <ele>777.79998779297</ele>
        <time>2021-07-11T07:44:45.000Z</time>
      </trkpt>
      <trkpt lat="47.90793" lon="7.15054">
        <ele>777.79998779297</ele>
        <time>2021-07-11T07:44:51.000Z</time>
      </trkpt>
      <trkpt lat="47.90792" lon="7.15031">
        <ele>777.79998779297</ele>
        <time>2021-07-11T07:44:58.000Z</time>
      </trkpt>
      <trkpt lat="47.9079" lon="7.15013">
        <ele>778.40002441406</ele>
        <time>2021-07-11T07:45:03.000Z</time>
      </trkpt>
      <trkpt lat="47.9079" lon="7.15009">
        <ele>778.79998779297</ele>
        <time>2021-07-11T07:45:04.000Z</time>
      </trkpt>
      <trkpt lat="47.9079" lon="7.15006">
        <ele>779.20001220703</ele>
        <time>2021-07-11T07:45:05.000Z</time>
      </trkpt>
      <trkpt lat="47.9079" lon="7.15003">
        <ele>779.59997558594</ele>
        <time>2021-07-11T07:45:06.000Z</time>
      </trkpt>
      <trkpt lat="47.9079" lon="7.15">
        <ele>780</ele>
        <time>2021-07-11T07:45:07.000Z</time>
      </trkpt>
      <trkpt lat="47.9079" lon="7.14992">
        <ele>780</ele>
        <time>2021-07-11T07:45:10.000Z</time>
      </trkpt>
      <trkpt lat="47.90788" lon="7.14975">
        <ele>780</ele>
        <time>2021-07-11T07:45:16.000Z</time>
      </trkpt>
      <trkpt lat="47.90787" lon="7.14956">
        <ele>780.40002441406</ele>
        <time>2021-07-11T07:45:22.000Z</time>
      </trkpt>
      <trkpt lat="47.90788" lon="7.14953">
        <ele>780.79998779297</ele>
        <time>2021-07-11T07:45:23.000Z</time>
      </trkpt>
      <trkpt lat="47.90788" lon="7.1495">
        <ele>781.20001220703</ele>
        <time>2021-07-11T07:45:24.000Z</time>
      </trkpt>
      <trkpt lat="47.90788" lon="7.14948">
        <ele>781.59997558594</ele>
        <time>2021-07-11T07:45:25.000Z</time>
      </trkpt>
      <trkpt lat="47.90787" lon="7.14945">
        <ele>782</ele>
        <time>2021-07-11T07:45:26.000Z</time>
      </trkpt>
      <trkpt lat="47.90788" lon="7.14934">
        <ele>782</ele>
        <time>2021-07-11T07:45:29.000Z</time>
      </trkpt>
      <trkpt lat="47.90788" lon="7.14919">
        <ele>782.40002441406</ele>
        <time>2021-07-11T07:45:35.000Z</time>
      </trkpt>
      <trkpt lat="47.90787" lon="7.14915">
        <ele>782.79998779297</ele>
        <time>2021-07-11T07:45:36.000Z</time>
      </trkpt>
      <trkpt lat="47.90788" lon="7.14912">
        <ele>783.20001220703</ele>
        <time>2021-07-11T07:45:37.000Z</time>
      </trkpt>
      <trkpt lat="47.90788" lon="7.1491">
        <ele>783.79998779297</ele>
        <time>2021-07-11T07:45:38.000Z</time>
      </trkpt>
      <trkpt lat="47.90787" lon="7.14907">
        <ele>784.20001220703</ele>
        <time>2021-07-11T07:45:39.000Z</time>
      </trkpt>
      <trkpt lat="47.90788" lon="7.14898">
        <ele>784.20001220703</ele>
        <time>2021-07-11T07:45:42.000Z</time>
      </trkpt>
      <trkpt lat="47.90791" lon="7.14881">
        <ele>784.59997558594</ele>
        <time>2021-07-11T07:45:49.000Z</time>
      </trkpt>
      <trkpt lat="47.90791" lon="7.14878">
        <ele>785</ele>
        <time>2021-07-11T07:45:50.000Z</time>
      </trkpt>
      <trkpt lat="47.90791" lon="7.14874">
        <ele>785.40002441406</ele>
        <time>2021-07-11T07:45:51.000Z</time>
      </trkpt>
      <trkpt lat="47.90791" lon="7.14871">
        <ele>785.79998779297</ele>
        <time>2021-07-11T07:45:52.000Z</time>
      </trkpt>
      <trkpt lat="47.90792" lon="7.14867">
        <ele>786.20001220703</ele>
        <time>2021-07-11T07:45:53.000Z</time>
      </trkpt>
      <trkpt lat="47.90795" lon="7.14854">
        <ele>786.20001220703</ele>
        <time>2021-07-11T07:45:57.000Z</time>
      </trkpt>
      <trkpt lat="47.90798" lon="7.14836">
        <ele>786.59997558594</ele>
        <time>2021-07-11T07:46:02.000Z</time>
      </trkpt>
      <trkpt lat="47.90798" lon="7.14833">
        <ele>787</ele>
        <time>2021-07-11T07:46:03.000Z</time>
      </trkpt>
      <trkpt lat="47.90798" lon="7.1483">
        <ele>787.59997558594</ele>
        <time>2021-07-11T07:46:04.000Z</time>
      </trkpt>
      <trkpt lat="47.90799" lon="7.14827">
        <ele>788</ele>
        <time>2021-07-11T07:46:05.000Z</time>
      </trkpt>
      <trkpt lat="47.908" lon="7.14825">
        <ele>788.40002441406</ele>
        <time>2021-07-11T07:46:06.000Z</time>
      </trkpt>
      <trkpt lat="47.90801" lon="7.14815">
        <ele>788.40002441406</ele>
        <time>2021-07-11T07:46:09.000Z</time>
      </trkpt>
      <trkpt lat="47.90801" lon="7.14812">
        <ele>788.79998779297</ele>
        <time>2021-07-11T07:46:10.000Z</time>
      </trkpt>
      <trkpt lat="47.90802" lon="7.14809">
        <ele>789.40002441406</ele>
        <time>2021-07-11T07:46:11.000Z</time>
      </trkpt>
      <trkpt lat="47.90802" lon="7.14807">
        <ele>789.79998779297</ele>
        <time>2021-07-11T07:46:12.000Z</time>
      </trkpt>
      <trkpt lat="47.90802" lon="7.14806">
        <ele>790.20001220703</ele>
        <time>2021-07-11T07:46:13.000Z</time>
      </trkpt>
      <trkpt lat="47.90802" lon="7.14803">
        <ele>790.59997558594</ele>
        <time>2021-07-11T07:46:14.000Z</time>
      </trkpt>
      <trkpt lat="47.90803" lon="7.14799">
        <ele>790.59997558594</ele>
        <time>2021-07-11T07:46:16.000Z</time>
      </trkpt>
      <trkpt lat="47.90805" lon="7.14797">
        <ele>791</ele>
        <time>2021-07-11T07:46:17.000Z</time>
      </trkpt>
      <trkpt lat="47.90806" lon="7.14794">
        <ele>791.40002441406</ele>
        <time>2021-07-11T07:46:18.000Z</time>
      </trkpt>
      <trkpt lat="47.90807" lon="7.14791">
        <ele>792</ele>
        <time>2021-07-11T07:46:19.000Z</time>
      </trkpt>
      <trkpt lat="47.90808" lon="7.14789">
        <ele>792.40002441406</ele>
        <time>2021-07-11T07:46:20.000Z</time>
      </trkpt>
      <trkpt lat="47.90809" lon="7.14786">
        <ele>792.79998779297</ele>
        <time>2021-07-11T07:46:21.000Z</time>
      </trkpt>
      <trkpt lat="47.9081" lon="7.14784">
        <ele>793.20001220703</ele>
        <time>2021-07-11T07:46:22.000Z</time>
      </trkpt>
      <trkpt lat="47.90811" lon="7.14781">
        <ele>793.59997558594</ele>
        <time>2021-07-11T07:46:23.000Z</time>
      </trkpt>
      <trkpt lat="47.90813" lon="7.1478">
        <ele>794</ele>
        <time>2021-07-11T07:46:24.000Z</time>
      </trkpt>
      <trkpt lat="47.90814" lon="7.14778">
        <ele>794.40002441406</ele>
        <time>2021-07-11T07:46:25.000Z</time>
      </trkpt>
      <trkpt lat="47.90815" lon="7.14777">
        <ele>794.79998779297</ele>
        <time>2021-07-11T07:46:26.000Z</time>
      </trkpt>
      <trkpt lat="47.90818" lon="7.14773">
        <ele>794.79998779297</ele>
        <time>2021-07-11T07:46:28.000Z</time>
      </trkpt>
      <trkpt lat="47.90819" lon="7.14772">
        <ele>795.40002441406</ele>
        <time>2021-07-11T07:46:29.000Z</time>
      </trkpt>
      <trkpt lat="47.9082" lon="7.1477">
        <ele>795.79998779297</ele>
        <time>2021-07-11T07:46:30.000Z</time>
      </trkpt>
      <trkpt lat="47.90821" lon="7.14769">
        <ele>796.20001220703</ele>
        <time>2021-07-11T07:46:31.000Z</time>
      </trkpt>
      <trkpt lat="47.90822" lon="7.14766">
        <ele>796.79998779297</ele>
        <time>2021-07-11T07:46:32.000Z</time>
      </trkpt>
      <trkpt lat="47.90824" lon="7.14764">
        <ele>797.20001220703</ele>
        <time>2021-07-11T07:46:33.000Z</time>
      </trkpt>
      <trkpt lat="47.90826" lon="7.14761">
        <ele>797.20001220703</ele>
        <time>2021-07-11T07:46:35.000Z</time>
      </trkpt>
      <trkpt lat="47.90828" lon="7.14759">
        <ele>797.59997558594</ele>
        <time>2021-07-11T07:46:36.000Z</time>
      </trkpt>
      <trkpt lat="47.90829" lon="7.14757">
        <ele>798.20001220703</ele>
        <time>2021-07-11T07:46:37.000Z</time>
      </trkpt>
      <trkpt lat="47.90832" lon="7.14756">
        <ele>798.59997558594</ele>
        <time>2021-07-11T07:46:38.000Z</time>
      </trkpt>
      <trkpt lat="47.90833" lon="7.14754">
        <ele>799</ele>
        <time>2021-07-11T07:46:39.000Z</time>
      </trkpt>
      <trkpt lat="47.90834" lon="7.14753">
        <ele>799.40002441406</ele>
        <time>2021-07-11T07:46:40.000Z</time>
      </trkpt>
      <trkpt lat="47.90837" lon="7.14749">
        <ele>799.40002441406</ele>
        <time>2021-07-11T07:46:42.000Z</time>
      </trkpt>
      <trkpt lat="47.90842" lon="7.14743">
        <ele>799.79998779297</ele>
        <time>2021-07-11T07:46:46.000Z</time>
      </trkpt>
      <trkpt lat="47.90843" lon="7.14742">
        <ele>800.20001220703</ele>
        <time>2021-07-11T07:46:47.000Z</time>
      </trkpt>
      <trkpt lat="47.90844" lon="7.14741">
        <ele>800.79998779297</ele>
        <time>2021-07-11T07:46:48.000Z</time>
      </trkpt>
      <trkpt lat="47.90844" lon="7.1474">
        <ele>801.20001220703</ele>
        <time>2021-07-11T07:46:49.000Z</time>
      </trkpt>
      <trkpt lat="47.90846" lon="7.14739">
        <ele>801.59997558594</ele>
        <time>2021-07-11T07:46:50.000Z</time>
      </trkpt>
      <trkpt lat="47.90858" lon="7.14732">
        <ele>802</ele>
        <time>2021-07-11T07:46:57.000Z</time>
      </trkpt>
      <trkpt lat="47.90859" lon="7.1473">
        <ele>803</ele>
        <time>2021-07-11T07:46:58.000Z</time>
      </trkpt>
      <trkpt lat="47.90861" lon="7.14729">
        <ele>803.40002441406</ele>
        <time>2021-07-11T07:46:59.000Z</time>
      </trkpt>
      <trkpt lat="47.90863" lon="7.14727">
        <ele>803.79998779297</ele>
        <time>2021-07-11T07:47:00.000Z</time>
      </trkpt>
      <trkpt lat="47.90865" lon="7.14721">
        <ele>803.79998779297</ele>
        <time>2021-07-11T07:47:04.000Z</time>
      </trkpt>
      <trkpt lat="47.90868" lon="7.14718">
        <ele>803.79998779297</ele>
        <time>2021-07-11T07:47:08.000Z</time>
      </trkpt>
      <trkpt lat="47.9087" lon="7.14718">
        <ele>803.79998779297</ele>
        <time>2021-07-11T07:47:11.000Z</time>
      </trkpt>
      <trkpt lat="47.90871" lon="7.14717">
        <ele>803.79998779297</ele>
        <time>2021-07-11T07:47:12.000Z</time>
      </trkpt>
      <trkpt lat="47.90902" lon="7.1469">
        <ele>808.20001220703</ele>
        <time>2021-07-11T07:50:57.000Z</time>
      </trkpt>
      <trkpt lat="47.90902" lon="7.14687">
        <ele>808.79998779297</ele>
        <time>2021-07-11T07:50:58.000Z</time>
      </trkpt>
      <trkpt lat="47.90902" lon="7.14684">
        <ele>809.20001220703</ele>
        <time>2021-07-11T07:50:59.000Z</time>
      </trkpt>
      <trkpt lat="47.90902" lon="7.14682">
        <ele>809.59997558594</ele>
        <time>2021-07-11T07:51:00.000Z</time>
      </trkpt>
      <trkpt lat="47.90901" lon="7.14681">
        <ele>810</ele>
        <time>2021-07-11T07:51:01.000Z</time>
      </trkpt>
      <trkpt lat="47.90901" lon="7.14678">
        <ele>810.40002441406</ele>
        <time>2021-07-11T07:51:02.000Z</time>
      </trkpt>
      <trkpt lat="47.909" lon="7.14676">
        <ele>810.79998779297</ele>
        <time>2021-07-11T07:51:03.000Z</time>
      </trkpt>
      <trkpt lat="47.909" lon="7.14675">
        <ele>811.20001220703</ele>
        <time>2021-07-11T07:51:04.000Z</time>
      </trkpt>
      <trkpt lat="47.909" lon="7.14672">
        <ele>811.59997558594</ele>
        <time>2021-07-11T07:51:05.000Z</time>
      </trkpt>
      <trkpt lat="47.90899" lon="7.1467">
        <ele>812</ele>
        <time>2021-07-11T07:51:06.000Z</time>
      </trkpt>
      <trkpt lat="47.90899" lon="7.14667">
        <ele>812.40002441406</ele>
        <time>2021-07-11T07:51:07.000Z</time>
      </trkpt>
      <trkpt lat="47.90899" lon="7.14665">
        <ele>812.79998779297</ele>
        <time>2021-07-11T07:51:08.000Z</time>
      </trkpt>
      <trkpt lat="47.90898" lon="7.14663">
        <ele>813.79998779297</ele>
        <time>2021-07-11T07:51:09.000Z</time>
      </trkpt>
      <trkpt lat="47.90898" lon="7.1466">
        <ele>814.20001220703</ele>
        <time>2021-07-11T07:51:10.000Z</time>
      </trkpt>
      <trkpt lat="47.90898" lon="7.14657">
        <ele>814.79998779297</ele>
        <time>2021-07-11T07:51:11.000Z</time>
      </trkpt>
      <trkpt lat="47.90898" lon="7.14655">
        <ele>815.20001220703</ele>
        <time>2021-07-11T07:51:12.000Z</time>
      </trkpt>
      <trkpt lat="47.90898" lon="7.14653">
        <ele>815.79998779297</ele>
        <time>2021-07-11T07:51:13.000Z</time>
      </trkpt>
      <trkpt lat="47.90898" lon="7.14652">
        <ele>816.20001220703</ele>
        <time>2021-07-11T07:51:14.000Z</time>
      </trkpt>
      <trkpt lat="47.90895" lon="7.14627">
        <ele>819.59997558594</ele>
        <time>2021-07-11T07:51:45.000Z</time>
      </trkpt>
      <trkpt lat="47.90895" lon="7.14625">
        <ele>820</ele>
        <time>2021-07-11T07:51:46.000Z</time>
      </trkpt>
      <trkpt lat="47.90895" lon="7.14623">
        <ele>820.40002441406</ele>
        <time>2021-07-11T07:51:47.000Z</time>
      </trkpt>
      <trkpt lat="47.90894" lon="7.14613">
        <ele>820.40002441406</ele>
        <time>2021-07-11T07:51:52.000Z</time>
      </trkpt>
      <trkpt lat="47.90893" lon="7.1461">
        <ele>820.79998779297</ele>
        <time>2021-07-11T07:51:54.000Z</time>
      </trkpt>
      <trkpt lat="47.90893" lon="7.14608">
        <ele>821.20001220703</ele>
        <time>2021-07-11T07:51:55.000Z</time>
      </trkpt>
      <trkpt lat="47.90893" lon="7.14606">
        <ele>821.59997558594</ele>
        <time>2021-07-11T07:51:56.000Z</time>
      </trkpt>
      <trkpt lat="47.90894" lon="7.14603">
        <ele>822.20001220703</ele>
        <time>2021-07-11T07:51:57.000Z</time>
      </trkpt>
      <trkpt lat="47.90894" lon="7.14601">
        <ele>822.59997558594</ele>
        <time>2021-07-11T07:51:58.000Z</time>
      </trkpt>
      <trkpt lat="47.90892" lon="7.14583">
        <ele>823</ele>
        <time>2021-07-11T07:52:05.000Z</time>
      </trkpt>
      <trkpt lat="47.90892" lon="7.14581">
        <ele>823.40002441406</ele>
        <time>2021-07-11T07:52:06.000Z</time>
      </trkpt>
      <trkpt lat="47.90892" lon="7.14578">
        <ele>823.79998779297</ele>
        <time>2021-07-11T07:52:07.000Z</time>
      </trkpt>
      <trkpt lat="47.90892" lon="7.14575">
        <ele>824.20001220703</ele>
        <time>2021-07-11T07:52:08.000Z</time>
      </trkpt>
      <trkpt lat="47.90892" lon="7.14573">
        <ele>824.59997558594</ele>
        <time>2021-07-11T07:52:09.000Z</time>
      </trkpt>
      <trkpt lat="47.90891" lon="7.14571">
        <ele>824.59997558594</ele>
        <time>2021-07-11T07:52:10.000Z</time>
      </trkpt>
      <trkpt lat="47.9089" lon="7.14569">
        <ele>824.59997558594</ele>
        <time>2021-07-11T07:52:11.000Z</time>
      </trkpt>
      <trkpt lat="47.90886" lon="7.14554">
        <ele>824.59997558594</ele>
        <time>2021-07-11T07:52:16.000Z</time>
      </trkpt>
      <trkpt lat="47.90884" lon="7.14542">
        <ele>824.59997558594</ele>
        <time>2021-07-11T07:52:20.000Z</time>
      </trkpt>
      <trkpt lat="47.90884" lon="7.14539">
        <ele>825</ele>
        <time>2021-07-11T07:52:21.000Z</time>
      </trkpt>
      <trkpt lat="47.90884" lon="7.14537">
        <ele>825.40002441406</ele>
        <time>2021-07-11T07:52:22.000Z</time>
      </trkpt>
      <trkpt lat="47.90884" lon="7.14535">
        <ele>826.20001220703</ele>
        <time>2021-07-11T07:52:23.000Z</time>
      </trkpt>
      <trkpt lat="47.90884" lon="7.14533">
        <ele>826.59997558594</ele>
        <time>2021-07-11T07:52:24.000Z</time>
      </trkpt>
      <trkpt lat="47.90884" lon="7.14528">
        <ele>827.20001220703</ele>
        <time>2021-07-11T07:52:26.000Z</time>
      </trkpt>
      <trkpt lat="47.90884" lon="7.14526">
        <ele>827.59997558594</ele>
        <time>2021-07-11T07:52:27.000Z</time>
      </trkpt>
      <trkpt lat="47.90884" lon="7.14524">
        <ele>828</ele>
        <time>2021-07-11T07:52:28.000Z</time>
      </trkpt>
      <trkpt lat="47.90884" lon="7.14521">
        <ele>828.40002441406</ele>
        <time>2021-07-11T07:52:29.000Z</time>
      </trkpt>
      <trkpt lat="47.90884" lon="7.14518">
        <ele>828.79998779297</ele>
        <time>2021-07-11T07:52:30.000Z</time>
      </trkpt>
      <trkpt lat="47.90884" lon="7.14512">
        <ele>828.79998779297</ele>
        <time>2021-07-11T07:52:32.000Z</time>
      </trkpt>
      <trkpt lat="47.90883" lon="7.14509">
        <ele>829.20001220703</ele>
        <time>2021-07-11T07:52:33.000Z</time>
      </trkpt>
      <trkpt lat="47.90883" lon="7.14507">
        <ele>829.59997558594</ele>
        <time>2021-07-11T07:52:34.000Z</time>
      </trkpt>
      <trkpt lat="47.90883" lon="7.14504">
        <ele>830.20001220703</ele>
        <time>2021-07-11T07:52:35.000Z</time>
      </trkpt>
      <trkpt lat="47.90883" lon="7.14501">
        <ele>830.59997558594</ele>
        <time>2021-07-11T07:52:36.000Z</time>
      </trkpt>
      <trkpt lat="47.90882" lon="7.14499">
        <ele>831</ele>
        <time>2021-07-11T07:52:37.000Z</time>
      </trkpt>
      <trkpt lat="47.90882" lon="7.14494">
        <ele>831.40002441406</ele>
        <time>2021-07-11T07:52:39.000Z</time>
      </trkpt>
      <trkpt lat="47.90881" lon="7.14492">
        <ele>831.79998779297</ele>
        <time>2021-07-11T07:52:40.000Z</time>
      </trkpt>
      <trkpt lat="47.90881" lon="7.1449">
        <ele>832.20001220703</ele>
        <time>2021-07-11T07:52:41.000Z</time>
      </trkpt>
      <trkpt lat="47.90881" lon="7.14487">
        <ele>832.59997558594</ele>
        <time>2021-07-11T07:52:42.000Z</time>
      </trkpt>
      <trkpt lat="47.9088" lon="7.14485">
        <ele>833</ele>
        <time>2021-07-11T07:52:43.000Z</time>
      </trkpt>
      <trkpt lat="47.9088" lon="7.1448">
        <ele>833</ele>
        <time>2021-07-11T07:52:45.000Z</time>
      </trkpt>
      <trkpt lat="47.9088" lon="7.14478">
        <ele>833.59997558594</ele>
        <time>2021-07-11T07:52:46.000Z</time>
      </trkpt>
      <trkpt lat="47.90879" lon="7.14477">
        <ele>834</ele>
        <time>2021-07-11T07:52:47.000Z</time>
      </trkpt>
      <trkpt lat="47.90879" lon="7.14475">
        <ele>834.79998779297</ele>
        <time>2021-07-11T07:52:48.000Z</time>
      </trkpt>
      <trkpt lat="47.90878" lon="7.14473">
        <ele>835.40002441406</ele>
        <time>2021-07-11T07:52:49.000Z</time>
      </trkpt>
      <trkpt lat="47.90877" lon="7.1447">
        <ele>835.40002441406</ele>
        <time>2021-07-11T07:52:50.000Z</time>
      </trkpt>
      <trkpt lat="47.90874" lon="7.14464">
        <ele>835.79998779297</ele>
        <time>2021-07-11T07:52:53.000Z</time>
      </trkpt>
      <trkpt lat="47.90873" lon="7.14462">
        <ele>836.20001220703</ele>
        <time>2021-07-11T07:52:54.000Z</time>
      </trkpt>
      <trkpt lat="47.90872" lon="7.14459">
        <ele>836.59997558594</ele>
        <time>2021-07-11T07:52:55.000Z</time>
      </trkpt>
      <trkpt lat="47.90872" lon="7.14456">
        <ele>837</ele>
        <time>2021-07-11T07:52:56.000Z</time>
      </trkpt>
      <trkpt lat="47.90871" lon="7.14453">
        <ele>837.40002441406</ele>
        <time>2021-07-11T07:52:57.000Z</time>
      </trkpt>
      <trkpt lat="47.90864" lon="7.14441">
        <ele>837.40002441406</ele>
        <time>2021-07-11T07:53:03.000Z</time>
      </trkpt>
      <trkpt lat="47.90862" lon="7.14434">
        <ele>837.79998779297</ele>
        <time>2021-07-11T07:53:07.000Z</time>
      </trkpt>
      <trkpt lat="47.90861" lon="7.14432">
        <ele>838.20001220703</ele>
        <time>2021-07-11T07:53:08.000Z</time>
      </trkpt>
      <trkpt lat="47.9086" lon="7.14429">
        <ele>838.59997558594</ele>
        <time>2021-07-11T07:53:09.000Z</time>
      </trkpt>
      <trkpt lat="47.9086" lon="7.14427">
        <ele>839.20001220703</ele>
        <time>2021-07-11T07:53:10.000Z</time>
      </trkpt>
      <trkpt lat="47.90859" lon="7.14425">
        <ele>839.59997558594</ele>
        <time>2021-07-11T07:53:11.000Z</time>
      </trkpt>
      <trkpt lat="47.90857" lon="7.1442">
        <ele>840</ele>
        <time>2021-07-11T07:53:13.000Z</time>
      </trkpt>
      <trkpt lat="47.90856" lon="7.14418">
        <ele>840.40002441406</ele>
        <time>2021-07-11T07:53:14.000Z</time>
      </trkpt>
      <trkpt lat="47.90855" lon="7.14415">
        <ele>840.79998779297</ele>
        <time>2021-07-11T07:53:15.000Z</time>
      </trkpt>
      <trkpt lat="47.90855" lon="7.14412">
        <ele>841.20001220703</ele>
        <time>2021-07-11T07:53:16.000Z</time>
      </trkpt>
      <trkpt lat="47.90854" lon="7.14409">
        <ele>841.59997558594</ele>
        <time>2021-07-11T07:53:17.000Z</time>
      </trkpt>
      <trkpt lat="47.90854" lon="7.14406">
        <ele>841.59997558594</ele>
        <time>2021-07-11T07:53:18.000Z</time>
      </trkpt>
      <trkpt lat="47.90851" lon="7.14397">
        <ele>842</ele>
        <time>2021-07-11T07:53:22.000Z</time>
      </trkpt>
      <trkpt lat="47.9085" lon="7.14395">
        <ele>842.59997558594</ele>
        <time>2021-07-11T07:53:23.000Z</time>
      </trkpt>
      <trkpt lat="47.9085" lon="7.14392">
        <ele>843</ele>
        <time>2021-07-11T07:53:24.000Z</time>
      </trkpt>
      <trkpt lat="47.9085" lon="7.1439">
        <ele>843.40002441406</ele>
        <time>2021-07-11T07:53:25.000Z</time>
      </trkpt>
      <trkpt lat="47.90849" lon="7.14388">
        <ele>843.79998779297</ele>
        <time>2021-07-11T07:53:26.000Z</time>
      </trkpt>
      <trkpt lat="47.90849" lon="7.14386">
        <ele>843.79998779297</ele>
        <time>2021-07-11T07:53:27.000Z</time>
      </trkpt>
      <trkpt lat="47.90848" lon="7.14382">
        <ele>844.20001220703</ele>
        <time>2021-07-11T07:53:29.000Z</time>
      </trkpt>
      <trkpt lat="47.90847" lon="7.14381">
        <ele>844.59997558594</ele>
        <time>2021-07-11T07:53:30.000Z</time>
      </trkpt>
      <trkpt lat="47.90847" lon="7.1438">
        <ele>845.20001220703</ele>
        <time>2021-07-11T07:53:31.000Z</time>
      </trkpt>
      <trkpt lat="47.90847" lon="7.1438">
        <ele>845.59997558594</ele>
        <time>2021-07-11T07:53:32.000Z</time>
      </trkpt>
      <trkpt lat="47.90844" lon="7.14372">
        <ele>848</ele>
        <time>2021-07-11T08:02:33.000Z</time>
      </trkpt>
      <trkpt lat="47.90841" lon="7.14365">
        <ele>848</ele>
        <time>2021-07-11T08:02:35.000Z</time>
      </trkpt>
      <trkpt lat="47.9084" lon="7.14362">
        <ele>848.40002441406</ele>
        <time>2021-07-11T08:02:36.000Z</time>
      </trkpt>
      <trkpt lat="47.90839" lon="7.1436">
        <ele>848.79998779297</ele>
        <time>2021-07-11T08:02:37.000Z</time>
      </trkpt>
      <trkpt lat="47.90838" lon="7.14358">
        <ele>849.40002441406</ele>
        <time>2021-07-11T08:02:38.000Z</time>
      </trkpt>
      <trkpt lat="47.90837" lon="7.14356">
        <ele>849.79998779297</ele>
        <time>2021-07-11T08:02:39.000Z</time>
      </trkpt>
      <trkpt lat="47.90836" lon="7.14354">
        <ele>850.20001220703</ele>
        <time>2021-07-11T08:02:40.000Z</time>
      </trkpt>
      <trkpt lat="47.90836" lon="7.14351">
        <ele>850.20001220703</ele>
        <time>2021-07-11T08:02:41.000Z</time>
      </trkpt>
      <trkpt lat="47.90835" lon="7.14343">
        <ele>850.59997558594</ele>
        <time>2021-07-11T08:02:44.000Z</time>
      </trkpt>
      <trkpt lat="47.90835" lon="7.14341">
        <ele>851.20001220703</ele>
        <time>2021-07-11T08:02:45.000Z</time>
      </trkpt>
      <trkpt lat="47.90834" lon="7.14339">
        <ele>851.59997558594</ele>
        <time>2021-07-11T08:02:46.000Z</time>
      </trkpt>
      <trkpt lat="47.90834" lon="7.14337">
        <ele>852</ele>
        <time>2021-07-11T08:02:47.000Z</time>
      </trkpt>
      <trkpt lat="47.90833" lon="7.14335">
        <ele>852.40002441406</ele>
        <time>2021-07-11T08:02:48.000Z</time>
      </trkpt>
      <trkpt lat="47.90834" lon="7.1433">
        <ele>853</ele>
        <time>2021-07-11T08:02:50.000Z</time>
      </trkpt>
      <trkpt lat="47.90834" lon="7.14328">
        <ele>853.40002441406</ele>
        <time>2021-07-11T08:02:51.000Z</time>
      </trkpt>
      <trkpt lat="47.90834" lon="7.14326">
        <ele>854</ele>
        <time>2021-07-11T08:02:52.000Z</time>
      </trkpt>
      <trkpt lat="47.90834" lon="7.14326">
        <ele>854.40002441406</ele>
        <time>2021-07-11T08:02:53.000Z</time>
      </trkpt>
      <trkpt lat="47.90834" lon="7.14323">
        <ele>855</ele>
        <time>2021-07-11T08:02:55.000Z</time>
      </trkpt>
      <trkpt lat="47.90834" lon="7.14322">
        <ele>855</ele>
        <time>2021-07-11T08:02:57.000Z</time>
      </trkpt>
      <trkpt lat="47.90825" lon="7.14301">
        <ele>859.20001220703</ele>
        <time>2021-07-11T08:04:36.000Z</time>
      </trkpt>
      <trkpt lat="47.90824" lon="7.14299">
        <ele>859.20001220703</ele>
        <time>2021-07-11T08:04:39.000Z</time>
      </trkpt>
      <trkpt lat="47.90832" lon="7.1427">
        <ele>865</ele>
        <time>2021-07-11T08:05:21.000Z</time>
      </trkpt>
      <trkpt lat="47.90832" lon="7.14268">
        <ele>865.59997558594</ele>
        <time>2021-07-11T08:05:22.000Z</time>
      </trkpt>
      <trkpt lat="47.90833" lon="7.14264">
        <ele>866</ele>
        <time>2021-07-11T08:05:24.000Z</time>
      </trkpt>
      <trkpt lat="47.90834" lon="7.14261">
        <ele>866.40002441406</ele>
        <time>2021-07-11T08:05:25.000Z</time>
      </trkpt>
      <trkpt lat="47.90835" lon="7.1426">
        <ele>867</ele>
        <time>2021-07-11T08:05:26.000Z</time>
      </trkpt>
      <trkpt lat="47.90835" lon="7.14259">
        <ele>867.79998779297</ele>
        <time>2021-07-11T08:05:27.000Z</time>
      </trkpt>
      <trkpt lat="47.90837" lon="7.14254">
        <ele>868.40002441406</ele>
        <time>2021-07-11T08:05:29.000Z</time>
      </trkpt>
      <trkpt lat="47.90837" lon="7.14252">
        <ele>868.79998779297</ele>
        <time>2021-07-11T08:05:30.000Z</time>
      </trkpt>
      <trkpt lat="47.90837" lon="7.14249">
        <ele>869.20001220703</ele>
        <time>2021-07-11T08:05:31.000Z</time>
      </trkpt>
      <trkpt lat="47.90838" lon="7.14247">
        <ele>869.59997558594</ele>
        <time>2021-07-11T08:05:32.000Z</time>
      </trkpt>
      <trkpt lat="47.90838" lon="7.14246">
        <ele>870</ele>
        <time>2021-07-11T08:05:33.000Z</time>
      </trkpt>
      <trkpt lat="47.90839" lon="7.14244">
        <ele>870.40002441406</ele>
        <time>2021-07-11T08:05:34.000Z</time>
      </trkpt>
      <trkpt lat="47.90839" lon="7.14243">
        <ele>871</ele>
        <time>2021-07-11T08:05:35.000Z</time>
      </trkpt>
      <trkpt lat="47.9084" lon="7.14242">
        <ele>871.40002441406</ele>
        <time>2021-07-11T08:05:36.000Z</time>
      </trkpt>
      <trkpt lat="47.9084" lon="7.14241">
        <ele>871.79998779297</ele>
        <time>2021-07-11T08:05:37.000Z</time>
      </trkpt>
      <trkpt lat="47.9084" lon="7.1424">
        <ele>872.20001220703</ele>
        <time>2021-07-11T08:05:38.000Z</time>
      </trkpt>
      <trkpt lat="47.90843" lon="7.14231">
        <ele>872.59997558594</ele>
        <time>2021-07-11T08:05:42.000Z</time>
      </trkpt>
      <trkpt lat="47.90843" lon="7.14231">
        <ele>873.20001220703</ele>
        <time>2021-07-11T08:05:43.000Z</time>
      </trkpt>
      <trkpt lat="47.90844" lon="7.1423">
        <ele>873.59997558594</ele>
        <time>2021-07-11T08:05:44.000Z</time>
      </trkpt>
      <trkpt lat="47.90846" lon="7.14214">
        <ele>874.59997558594</ele>
        <time>2021-07-11T08:07:00.000Z</time>
      </trkpt>
      <trkpt lat="47.90848" lon="7.14211">
        <ele>874.59997558594</ele>
        <time>2021-07-11T08:07:02.000Z</time>
      </trkpt>
      <trkpt lat="47.90848" lon="7.14211">
        <ele>875</ele>
        <time>2021-07-11T08:07:03.000Z</time>
      </trkpt>
      <trkpt lat="47.90849" lon="7.1421">
        <ele>875.40002441406</ele>
        <time>2021-07-11T08:07:04.000Z</time>
      </trkpt>
      <trkpt lat="47.9085" lon="7.14209">
        <ele>875.79998779297</ele>
        <time>2021-07-11T08:07:05.000Z</time>
      </trkpt>
      <trkpt lat="47.90847" lon="7.14207">
        <ele>876.59997558594</ele>
        <time>2021-07-11T08:07:38.000Z</time>
      </trkpt>
      <trkpt lat="47.90843" lon="7.14205">
        <ele>876.59997558594</ele>
        <time>2021-07-11T08:07:40.000Z</time>
      </trkpt>
      <trkpt lat="47.90823" lon="7.14193">
        <ele>876.59997558594</ele>
        <time>2021-07-11T08:07:48.000Z</time>
      </trkpt>
      <trkpt lat="47.90806" lon="7.14191">
        <ele>876.59997558594</ele>
        <time>2021-07-11T08:07:55.000Z</time>
      </trkpt>
      <trkpt lat="47.90793" lon="7.14186">
        <ele>876.59997558594</ele>
        <time>2021-07-11T08:08:01.000Z</time>
      </trkpt>
      <trkpt lat="47.90789" lon="7.14185">
        <ele>877</ele>
        <time>2021-07-11T08:08:03.000Z</time>
      </trkpt>
      <trkpt lat="47.90787" lon="7.14184">
        <ele>877.40002441406</ele>
        <time>2021-07-11T08:08:04.000Z</time>
      </trkpt>
      <trkpt lat="47.90785" lon="7.14183">
        <ele>877.79998779297</ele>
        <time>2021-07-11T08:08:05.000Z</time>
      </trkpt>
      <trkpt lat="47.90782" lon="7.14181">
        <ele>878.40002441406</ele>
        <time>2021-07-11T08:08:06.000Z</time>
      </trkpt>
      <trkpt lat="47.9078" lon="7.1418">
        <ele>878.79998779297</ele>
        <time>2021-07-11T08:08:07.000Z</time>
      </trkpt>
      <trkpt lat="47.90774" lon="7.14176">
        <ele>878.79998779297</ele>
        <time>2021-07-11T08:08:10.000Z</time>
      </trkpt>
      <trkpt lat="47.90765" lon="7.14172">
        <ele>879.20001220703</ele>
        <time>2021-07-11T08:08:14.000Z</time>
      </trkpt>
      <trkpt lat="47.90763" lon="7.14171">
        <ele>879.59997558594</ele>
        <time>2021-07-11T08:08:15.000Z</time>
      </trkpt>
      <trkpt lat="47.90761" lon="7.1417">
        <ele>880</ele>
        <time>2021-07-11T08:08:16.000Z</time>
      </trkpt>
      <trkpt lat="47.90759" lon="7.14168">
        <ele>880.40002441406</ele>
        <time>2021-07-11T08:08:17.000Z</time>
      </trkpt>
      <trkpt lat="47.90757" lon="7.14167">
        <ele>880.79998779297</ele>
        <time>2021-07-11T08:08:18.000Z</time>
      </trkpt>
      <trkpt lat="47.90745" lon="7.14159">
        <ele>881.20001220703</ele>
        <time>2021-07-11T08:08:24.000Z</time>
      </trkpt>
      <trkpt lat="47.90744" lon="7.14157">
        <ele>881.59997558594</ele>
        <time>2021-07-11T08:08:25.000Z</time>
      </trkpt>
      <trkpt lat="47.90742" lon="7.14155">
        <ele>882</ele>
        <time>2021-07-11T08:08:26.000Z</time>
      </trkpt>
      <trkpt lat="47.9074" lon="7.14155">
        <ele>882.59997558594</ele>
        <time>2021-07-11T08:08:27.000Z</time>
      </trkpt>
      <trkpt lat="47.90738" lon="7.14154">
        <ele>883</ele>
        <time>2021-07-11T08:08:28.000Z</time>
      </trkpt>
      <trkpt lat="47.90732" lon="7.14154">
        <ele>883</ele>
        <time>2021-07-11T08:08:31.000Z</time>
      </trkpt>
      <trkpt lat="47.90724" lon="7.14154">
        <ele>883.40002441406</ele>
        <time>2021-07-11T08:08:35.000Z</time>
      </trkpt>
      <trkpt lat="47.90723" lon="7.14154">
        <ele>883.79998779297</ele>
        <time>2021-07-11T08:08:36.000Z</time>
      </trkpt>
      <trkpt lat="47.90721" lon="7.14154">
        <ele>884.20001220703</ele>
        <time>2021-07-11T08:08:37.000Z</time>
      </trkpt>
      <trkpt lat="47.90718" lon="7.14154">
        <ele>884.59997558594</ele>
        <time>2021-07-11T08:08:38.000Z</time>
      </trkpt>
      <trkpt lat="47.90716" lon="7.14154">
        <ele>885</ele>
        <time>2021-07-11T08:08:39.000Z</time>
      </trkpt>
      <trkpt lat="47.90707" lon="7.14155">
        <ele>885</ele>
        <time>2021-07-11T08:08:44.000Z</time>
      </trkpt>
      <trkpt lat="47.907" lon="7.14158">
        <ele>885.40002441406</ele>
        <time>2021-07-11T08:08:47.000Z</time>
      </trkpt>
      <trkpt lat="47.90699" lon="7.14158">
        <ele>885.79998779297</ele>
        <time>2021-07-11T08:08:48.000Z</time>
      </trkpt>
      <trkpt lat="47.90697" lon="7.14159">
        <ele>886.20001220703</ele>
        <time>2021-07-11T08:08:49.000Z</time>
      </trkpt>
      <trkpt lat="47.90695" lon="7.14159">
        <ele>886.79998779297</ele>
        <time>2021-07-11T08:08:50.000Z</time>
      </trkpt>
      <trkpt lat="47.90694" lon="7.14159">
        <ele>887.20001220703</ele>
        <time>2021-07-11T08:08:51.000Z</time>
      </trkpt>
      <trkpt lat="47.90692" lon="7.14159">
        <ele>887.20001220703</ele>
        <time>2021-07-11T08:08:52.000Z</time>
      </trkpt>
      <trkpt lat="47.90684" lon="7.14162">
        <ele>887.59997558594</ele>
        <time>2021-07-11T08:08:57.000Z</time>
      </trkpt>
      <trkpt lat="47.90681" lon="7.14163">
        <ele>888</ele>
        <time>2021-07-11T08:08:58.000Z</time>
      </trkpt>
      <trkpt lat="47.90679" lon="7.14163">
        <ele>888.40002441406</ele>
        <time>2021-07-11T08:08:59.000Z</time>
      </trkpt>
      <trkpt lat="47.90676" lon="7.14163">
        <ele>888.79998779297</ele>
        <time>2021-07-11T08:09:00.000Z</time>
      </trkpt>
      <trkpt lat="47.90673" lon="7.14164">
        <ele>889.40002441406</ele>
        <time>2021-07-11T08:09:01.000Z</time>
      </trkpt>
      <trkpt lat="47.90666" lon="7.14163">
        <ele>889.40002441406</ele>
        <time>2021-07-11T08:09:05.000Z</time>
      </trkpt>
      <trkpt lat="47.90657" lon="7.14161">
        <ele>890.20001220703</ele>
        <time>2021-07-11T08:09:10.000Z</time>
      </trkpt>
      <trkpt lat="47.90655" lon="7.1416">
        <ele>890.59997558594</ele>
        <time>2021-07-11T08:09:11.000Z</time>
      </trkpt>
      <trkpt lat="47.90653" lon="7.14159">
        <ele>891</ele>
        <time>2021-07-11T08:09:12.000Z</time>
      </trkpt>
      <trkpt lat="47.90652" lon="7.14158">
        <ele>891.40002441406</ele>
        <time>2021-07-11T08:09:13.000Z</time>
      </trkpt>
      <trkpt lat="47.90641" lon="7.14154">
        <ele>891.40002441406</ele>
        <time>2021-07-11T08:09:18.000Z</time>
      </trkpt>
      <trkpt lat="47.90636" lon="7.14152">
        <ele>891.79998779297</ele>
        <time>2021-07-11T08:09:21.000Z</time>
      </trkpt>
      <trkpt lat="47.90635" lon="7.14152">
        <ele>892.40002441406</ele>
        <time>2021-07-11T08:09:22.000Z</time>
      </trkpt>
      <trkpt lat="47.90633" lon="7.1415">
        <ele>892.79998779297</ele>
        <time>2021-07-11T08:09:23.000Z</time>
      </trkpt>
      <trkpt lat="47.90632" lon="7.14148">
        <ele>893.20001220703</ele>
        <time>2021-07-11T08:09:24.000Z</time>
      </trkpt>
      <trkpt lat="47.90629" lon="7.14146">
        <ele>893.59997558594</ele>
        <time>2021-07-11T08:09:25.000Z</time>
      </trkpt>
      <trkpt lat="47.90627" lon="7.14145">
        <ele>893.59997558594</ele>
        <time>2021-07-11T08:09:26.000Z</time>
      </trkpt>
      <trkpt lat="47.90621" lon="7.14142">
        <ele>894</ele>
        <time>2021-07-11T08:09:29.000Z</time>
      </trkpt>
      <trkpt lat="47.90619" lon="7.14141">
        <ele>894.40002441406</ele>
        <time>2021-07-11T08:09:30.000Z</time>
      </trkpt>
      <trkpt lat="47.90617" lon="7.14139">
        <ele>894.79998779297</ele>
        <time>2021-07-11T08:09:31.000Z</time>
      </trkpt>
      <trkpt lat="47.90615" lon="7.14137">
        <ele>895.20001220703</ele>
        <time>2021-07-11T08:09:32.000Z</time>
      </trkpt>
      <trkpt lat="47.90614" lon="7.14135">
        <ele>895.59997558594</ele>
        <time>2021-07-11T08:09:33.000Z</time>
      </trkpt>
      <trkpt lat="47.90608" lon="7.14129">
        <ele>896.20001220703</ele>
        <time>2021-07-11T08:09:37.000Z</time>
      </trkpt>
      <trkpt lat="47.90607" lon="7.14128">
        <ele>896.59997558594</ele>
        <time>2021-07-11T08:09:38.000Z</time>
      </trkpt>
      <trkpt lat="47.90605" lon="7.14127">
        <ele>897</ele>
        <time>2021-07-11T08:09:39.000Z</time>
      </trkpt>
      <trkpt lat="47.90604" lon="7.14125">
        <ele>897.40002441406</ele>
        <time>2021-07-11T08:09:40.000Z</time>
      </trkpt>
      <trkpt lat="47.90603" lon="7.14124">
        <ele>897.79998779297</ele>
        <time>2021-07-11T08:09:41.000Z</time>
      </trkpt>
      <trkpt lat="47.90598" lon="7.14116">
        <ele>898.20001220703</ele>
        <time>2021-07-11T08:09:45.000Z</time>
      </trkpt>
      <trkpt lat="47.90596" lon="7.14113">
        <ele>899</ele>
        <time>2021-07-11T08:09:47.000Z</time>
      </trkpt>
      <trkpt lat="47.90595" lon="7.14112">
        <ele>899.40002441406</ele>
        <time>2021-07-11T08:09:48.000Z</time>
      </trkpt>
      <trkpt lat="47.90594" lon="7.14109">
        <ele>899.79998779297</ele>
        <time>2021-07-11T08:09:49.000Z</time>
      </trkpt>
      <trkpt lat="47.90589" lon="7.141">
        <ele>900.20001220703</ele>
        <time>2021-07-11T08:09:53.000Z</time>
      </trkpt>
      <trkpt lat="47.90587" lon="7.14097">
        <ele>900.79998779297</ele>
        <time>2021-07-11T08:09:54.000Z</time>
      </trkpt>
      <trkpt lat="47.90586" lon="7.14095">
        <ele>901.20001220703</ele>
        <time>2021-07-11T08:09:55.000Z</time>
      </trkpt>
      <trkpt lat="47.90585" lon="7.14093">
        <ele>901.59997558594</ele>
        <time>2021-07-11T08:09:56.000Z</time>
      </trkpt>
      <trkpt lat="47.90584" lon="7.1409">
        <ele>902</ele>
        <time>2021-07-11T08:09:57.000Z</time>
      </trkpt>
      <trkpt lat="47.9058" lon="7.1408">
        <ele>902.40002441406</ele>
        <time>2021-07-11T08:10:00.000Z</time>
      </trkpt>
      <trkpt lat="47.90578" lon="7.14075">
        <ele>903.20001220703</ele>
        <time>2021-07-11T08:10:02.000Z</time>
      </trkpt>
      <trkpt lat="47.90576" lon="7.14069">
        <ele>904</ele>
        <time>2021-07-11T08:10:04.000Z</time>
      </trkpt>
      <trkpt lat="47.90574" lon="7.14064">
        <ele>904</ele>
        <time>2021-07-11T08:10:07.000Z</time>
      </trkpt>
      <trkpt lat="47.90571" lon="7.14047">
        <ele>904.40002441406</ele>
        <time>2021-07-11T08:10:12.000Z</time>
      </trkpt>
      <trkpt lat="47.90571" lon="7.14045">
        <ele>904.79998779297</ele>
        <time>2021-07-11T08:10:13.000Z</time>
      </trkpt>
      <trkpt lat="47.9057" lon="7.14042">
        <ele>905.20001220703</ele>
        <time>2021-07-11T08:10:14.000Z</time>
      </trkpt>
      <trkpt lat="47.90569" lon="7.14039">
        <ele>905.59997558594</ele>
        <time>2021-07-11T08:10:15.000Z</time>
      </trkpt>
      <trkpt lat="47.90568" lon="7.14035">
        <ele>906</ele>
        <time>2021-07-11T08:10:16.000Z</time>
      </trkpt>
      <trkpt lat="47.90564" lon="7.14019">
        <ele>906</ele>
        <time>2021-07-11T08:10:21.000Z</time>
      </trkpt>
      <trkpt lat="47.90562" lon="7.14011">
        <ele>906.40002441406</ele>
        <time>2021-07-11T08:10:24.000Z</time>
      </trkpt>
      <trkpt lat="47.9056" lon="7.14007">
        <ele>907</ele>
        <time>2021-07-11T08:10:25.000Z</time>
      </trkpt>
      <trkpt lat="47.90558" lon="7.14003">
        <ele>907.40002441406</ele>
        <time>2021-07-11T08:10:26.000Z</time>
      </trkpt>
      <trkpt lat="47.90558" lon="7.14001">
        <ele>907.79998779297</ele>
        <time>2021-07-11T08:10:27.000Z</time>
      </trkpt>
      <trkpt lat="47.90557" lon="7.13998">
        <ele>908.20001220703</ele>
        <time>2021-07-11T08:10:28.000Z</time>
      </trkpt>
      <trkpt lat="47.90555" lon="7.13986">
        <ele>908.20001220703</ele>
        <time>2021-07-11T08:10:33.000Z</time>
      </trkpt>
      <trkpt lat="47.90554" lon="7.13979">
        <ele>909</ele>
        <time>2021-07-11T08:10:35.000Z</time>
      </trkpt>
      <trkpt lat="47.90555" lon="7.13975">
        <ele>909.40002441406</ele>
        <time>2021-07-11T08:10:36.000Z</time>
      </trkpt>
      <trkpt lat="47.90555" lon="7.13973">
        <ele>909.79998779297</ele>
        <time>2021-07-11T08:10:37.000Z</time>
      </trkpt>
      <trkpt lat="47.90554" lon="7.13969">
        <ele>910.40002441406</ele>
        <time>2021-07-11T08:10:38.000Z</time>
      </trkpt>
      <trkpt lat="47.90554" lon="7.13966">
        <ele>910.40002441406</ele>
        <time>2021-07-11T08:10:39.000Z</time>
      </trkpt>
      <trkpt lat="47.90553" lon="7.13963">
        <ele>910.40002441406</ele>
        <time>2021-07-11T08:10:40.000Z</time>
      </trkpt>
      <trkpt lat="47.90551" lon="7.13952">
        <ele>910.79998779297</ele>
        <time>2021-07-11T08:10:43.000Z</time>
      </trkpt>
      <trkpt lat="47.90551" lon="7.13948">
        <ele>911.20001220703</ele>
        <time>2021-07-11T08:10:44.000Z</time>
      </trkpt>
      <trkpt lat="47.90551" lon="7.13945">
        <ele>911.59997558594</ele>
        <time>2021-07-11T08:10:45.000Z</time>
      </trkpt>
      <trkpt lat="47.90551" lon="7.13941">
        <ele>912</ele>
        <time>2021-07-11T08:10:47.000Z</time>
      </trkpt>
      <trkpt lat="47.90551" lon="7.13938">
        <ele>912.40002441406</ele>
        <time>2021-07-11T08:10:48.000Z</time>
      </trkpt>
      <trkpt lat="47.90551" lon="7.13931">
        <ele>912.40002441406</ele>
        <time>2021-07-11T08:10:51.000Z</time>
      </trkpt>
      <trkpt lat="47.90551" lon="7.13926">
        <ele>912.79998779297</ele>
        <time>2021-07-11T08:10:53.000Z</time>
      </trkpt>
      <trkpt lat="47.90551" lon="7.13924">
        <ele>913.20001220703</ele>
        <time>2021-07-11T08:10:54.000Z</time>
      </trkpt>
      <trkpt lat="47.90552" lon="7.1392">
        <ele>914</ele>
        <time>2021-07-11T08:10:55.000Z</time>
      </trkpt>
      <trkpt lat="47.90551" lon="7.13916">
        <ele>914.40002441406</ele>
        <time>2021-07-11T08:10:56.000Z</time>
      </trkpt>
      <trkpt lat="47.90552" lon="7.13906">
        <ele>914.40002441406</ele>
        <time>2021-07-11T08:10:59.000Z</time>
      </trkpt>
      <trkpt lat="47.90554" lon="7.1388">
        <ele>915.20001220703</ele>
        <time>2021-07-11T08:11:07.000Z</time>
      </trkpt>
      <trkpt lat="47.90554" lon="7.13876">
        <ele>915.79998779297</ele>
        <time>2021-07-11T08:11:08.000Z</time>
      </trkpt>
      <trkpt lat="47.90555" lon="7.13872">
        <ele>916.20001220703</ele>
        <time>2021-07-11T08:11:09.000Z</time>
      </trkpt>
      <trkpt lat="47.90555" lon="7.13868">
        <ele>916.59997558594</ele>
        <time>2021-07-11T08:11:10.000Z</time>
      </trkpt>
      <trkpt lat="47.90557" lon="7.13857">
        <ele>916.59997558594</ele>
        <time>2021-07-11T08:11:14.000Z</time>
      </trkpt>
      <trkpt lat="47.90557" lon="7.13847">
        <ele>917</ele>
        <time>2021-07-11T08:11:17.000Z</time>
      </trkpt>
      <trkpt lat="47.90557" lon="7.13844">
        <ele>917.40002441406</ele>
        <time>2021-07-11T08:11:18.000Z</time>
      </trkpt>
      <trkpt lat="47.90557" lon="7.13841">
        <ele>918</ele>
        <time>2021-07-11T08:11:19.000Z</time>
      </trkpt>
      <trkpt lat="47.90557" lon="7.13837">
        <ele>918.40002441406</ele>
        <time>2021-07-11T08:11:20.000Z</time>
      </trkpt>
      <trkpt lat="47.90557" lon="7.13834">
        <ele>918.79998779297</ele>
        <time>2021-07-11T08:11:22.000Z</time>
      </trkpt>
      <trkpt lat="47.90558" lon="7.13832">
        <ele>918.79998779297</ele>
        <time>2021-07-11T08:11:23.000Z</time>
      </trkpt>
      <trkpt lat="47.90558" lon="7.13828">
        <ele>919.20001220703</ele>
        <time>2021-07-11T08:11:24.000Z</time>
      </trkpt>
      <trkpt lat="47.90559" lon="7.13825">
        <ele>919.59997558594</ele>
        <time>2021-07-11T08:11:25.000Z</time>
      </trkpt>
      <trkpt lat="47.9056" lon="7.13823">
        <ele>920</ele>
        <time>2021-07-11T08:11:26.000Z</time>
      </trkpt>
      <trkpt lat="47.9056" lon="7.13819">
        <ele>920.40002441406</ele>
        <time>2021-07-11T08:11:27.000Z</time>
      </trkpt>
      <trkpt lat="47.90561" lon="7.13817">
        <ele>920.79998779297</ele>
        <time>2021-07-11T08:11:28.000Z</time>
      </trkpt>
      <trkpt lat="47.90561" lon="7.13815">
        <ele>920.79998779297</ele>
        <time>2021-07-11T08:11:29.000Z</time>
      </trkpt>
      <trkpt lat="47.90568" lon="7.13804">
        <ele>920.79998779297</ele>
        <time>2021-07-11T08:11:37.000Z</time>
      </trkpt>
      <trkpt lat="47.90568" lon="7.13803">
        <ele>920.79998779297</ele>
        <time>2021-07-11T08:11:38.000Z</time>
      </trkpt>
      <trkpt lat="47.90569" lon="7.13799">
        <ele>923</ele>
        <time>2021-07-11T08:13:28.000Z</time>
      </trkpt>
      <trkpt lat="47.90573" lon="7.13794">
        <ele>923</ele>
        <time>2021-07-11T08:13:30.000Z</time>
      </trkpt>
      <trkpt lat="47.90584" lon="7.13777">
        <ele>923</ele>
        <time>2021-07-11T08:13:34.000Z</time>
      </trkpt>
      <trkpt lat="47.90587" lon="7.13771">
        <ele>922.40002441406</ele>
        <time>2021-07-11T08:13:35.000Z</time>
      </trkpt>
      <trkpt lat="47.9059" lon="7.13765">
        <ele>922</ele>
        <time>2021-07-11T08:13:36.000Z</time>
      </trkpt>
      <trkpt lat="47.90593" lon="7.1376">
        <ele>921</ele>
        <time>2021-07-11T08:13:37.000Z</time>
      </trkpt>
      <trkpt lat="47.90596" lon="7.13755">
        <ele>920.40002441406</ele>
        <time>2021-07-11T08:13:38.000Z</time>
      </trkpt>
      <trkpt lat="47.90598" lon="7.13749">
        <ele>920.40002441406</ele>
        <time>2021-07-11T08:13:39.000Z</time>
      </trkpt>
      <trkpt lat="47.9061" lon="7.13725">
        <ele>920.40002441406</ele>
        <time>2021-07-11T08:13:43.000Z</time>
      </trkpt>
      <trkpt lat="47.90613" lon="7.13719">
        <ele>920</ele>
        <time>2021-07-11T08:13:44.000Z</time>
      </trkpt>
      <trkpt lat="47.90616" lon="7.13712">
        <ele>919.40002441406</ele>
        <time>2021-07-11T08:13:45.000Z</time>
      </trkpt>
      <trkpt lat="47.90618" lon="7.13704">
        <ele>919</ele>
        <time>2021-07-11T08:13:46.000Z</time>
      </trkpt>
      <trkpt lat="47.9062" lon="7.13696">
        <ele>918.40002441406</ele>
        <time>2021-07-11T08:13:47.000Z</time>
      </trkpt>
      <trkpt lat="47.90622" lon="7.13687">
        <ele>918</ele>
        <time>2021-07-11T08:13:48.000Z</time>
      </trkpt>
      <trkpt lat="47.90624" lon="7.13679">
        <ele>917.40002441406</ele>
        <time>2021-07-11T08:13:49.000Z</time>
      </trkpt>
      <trkpt lat="47.90625" lon="7.13671">
        <ele>917</ele>
        <time>2021-07-11T08:13:50.000Z</time>
      </trkpt>
      <trkpt lat="47.90625" lon="7.13663">
        <ele>916.59997558594</ele>
        <time>2021-07-11T08:13:51.000Z</time>
      </trkpt>
      <trkpt lat="47.90624" lon="7.13656">
        <ele>916</ele>
        <time>2021-07-11T08:13:52.000Z</time>
      </trkpt>
      <trkpt lat="47.90623" lon="7.13648">
        <ele>915.59997558594</ele>
        <time>2021-07-11T08:13:53.000Z</time>
      </trkpt>
      <trkpt lat="47.90621" lon="7.13641">
        <ele>915.20001220703</ele>
        <time>2021-07-11T08:13:54.000Z</time>
      </trkpt>
      <trkpt lat="47.90619" lon="7.13634">
        <ele>914.79998779297</ele>
        <time>2021-07-11T08:13:55.000Z</time>
      </trkpt>
      <trkpt lat="47.90617" lon="7.13629">
        <ele>914.40002441406</ele>
        <time>2021-07-11T08:13:56.000Z</time>
      </trkpt>
      <trkpt lat="47.90615" lon="7.13625">
        <ele>914</ele>
        <time>2021-07-11T08:13:57.000Z</time>
      </trkpt>
      <trkpt lat="47.90614" lon="7.13622">
        <ele>913.59997558594</ele>
        <time>2021-07-11T08:13:58.000Z</time>
      </trkpt>
      <trkpt lat="47.90611" lon="7.13614">
        <ele>913.59997558594</ele>
        <time>2021-07-11T08:14:01.000Z</time>
      </trkpt>
      <trkpt lat="47.90608" lon="7.13605">
        <ele>914</ele>
        <time>2021-07-11T08:14:04.000Z</time>
      </trkpt>
      <trkpt lat="47.90608" lon="7.13602">
        <ele>914.40002441406</ele>
        <time>2021-07-11T08:14:05.000Z</time>
      </trkpt>
      <trkpt lat="47.90607" lon="7.136">
        <ele>914.79998779297</ele>
        <time>2021-07-11T08:14:06.000Z</time>
      </trkpt>
      <trkpt lat="47.90607" lon="7.13597">
        <ele>915.20001220703</ele>
        <time>2021-07-11T08:14:07.000Z</time>
      </trkpt>
      <trkpt lat="47.90606" lon="7.13595">
        <ele>915.59997558594</ele>
        <time>2021-07-11T08:14:08.000Z</time>
      </trkpt>
      <trkpt lat="47.90604" lon="7.13581">
        <ele>915.59997558594</ele>
        <time>2021-07-11T08:14:12.000Z</time>
      </trkpt>
      <trkpt lat="47.90601" lon="7.13572">
        <ele>916</ele>
        <time>2021-07-11T08:14:15.000Z</time>
      </trkpt>
      <trkpt lat="47.906" lon="7.13569">
        <ele>916.40002441406</ele>
        <time>2021-07-11T08:14:16.000Z</time>
      </trkpt>
      <trkpt lat="47.906" lon="7.13566">
        <ele>916.79998779297</ele>
        <time>2021-07-11T08:14:17.000Z</time>
      </trkpt>
      <trkpt lat="47.90599" lon="7.13563">
        <ele>917.20001220703</ele>
        <time>2021-07-11T08:14:18.000Z</time>
      </trkpt>
      <trkpt lat="47.90599" lon="7.1356">
        <ele>917.79998779297</ele>
        <time>2021-07-11T08:14:19.000Z</time>
      </trkpt>
      <trkpt lat="47.90597" lon="7.13546">
        <ele>917.79998779297</ele>
        <time>2021-07-11T08:14:23.000Z</time>
      </trkpt>
      <trkpt lat="47.90596" lon="7.13543">
        <ele>918.20001220703</ele>
        <time>2021-07-11T08:14:24.000Z</time>
      </trkpt>
      <trkpt lat="47.90596" lon="7.1354">
        <ele>918.59997558594</ele>
        <time>2021-07-11T08:14:25.000Z</time>
      </trkpt>
      <trkpt lat="47.90595" lon="7.13536">
        <ele>919.59997558594</ele>
        <time>2021-07-11T08:14:26.000Z</time>
      </trkpt>
      <trkpt lat="47.90594" lon="7.13532">
        <ele>920</ele>
        <time>2021-07-11T08:14:27.000Z</time>
      </trkpt>
      <trkpt lat="47.9059" lon="7.13521">
        <ele>920</ele>
        <time>2021-07-11T08:14:30.000Z</time>
      </trkpt>
      <trkpt lat="47.90587" lon="7.13515">
        <ele>920.40002441406</ele>
        <time>2021-07-11T08:14:32.000Z</time>
      </trkpt>
      <trkpt lat="47.90585" lon="7.13512">
        <ele>920.79998779297</ele>
        <time>2021-07-11T08:14:33.000Z</time>
      </trkpt>
      <trkpt lat="47.90584" lon="7.13509">
        <ele>921.20001220703</ele>
        <time>2021-07-11T08:14:34.000Z</time>
      </trkpt>
      <trkpt lat="47.90583" lon="7.13505">
        <ele>921.79998779297</ele>
        <time>2021-07-11T08:14:35.000Z</time>
      </trkpt>
      <trkpt lat="47.90582" lon="7.13502">
        <ele>922.20001220703</ele>
        <time>2021-07-11T08:14:36.000Z</time>
      </trkpt>
      <trkpt lat="47.9058" lon="7.13496">
        <ele>922.20001220703</ele>
        <time>2021-07-11T08:14:38.000Z</time>
      </trkpt>
      <trkpt lat="47.90577" lon="7.13489">
        <ele>922.59997558594</ele>
        <time>2021-07-11T08:14:40.000Z</time>
      </trkpt>
      <trkpt lat="47.90575" lon="7.13486">
        <ele>923</ele>
        <time>2021-07-11T08:14:41.000Z</time>
      </trkpt>
      <trkpt lat="47.90574" lon="7.13483">
        <ele>923.40002441406</ele>
        <time>2021-07-11T08:14:42.000Z</time>
      </trkpt>
      <trkpt lat="47.90573" lon="7.13479">
        <ele>923.79998779297</ele>
        <time>2021-07-11T08:14:43.000Z</time>
      </trkpt>
      <trkpt lat="47.90572" lon="7.13476">
        <ele>924.20001220703</ele>
        <time>2021-07-11T08:14:44.000Z</time>
      </trkpt>
      <trkpt lat="47.9057" lon="7.13467">
        <ele>924.20001220703</ele>
        <time>2021-07-11T08:14:47.000Z</time>
      </trkpt>
      <trkpt lat="47.90569" lon="7.13463">
        <ele>924.59997558594</ele>
        <time>2021-07-11T08:14:48.000Z</time>
      </trkpt>
      <trkpt lat="47.90568" lon="7.1346">
        <ele>925</ele>
        <time>2021-07-11T08:14:49.000Z</time>
      </trkpt>
      <trkpt lat="47.90567" lon="7.13456">
        <ele>925.59997558594</ele>
        <time>2021-07-11T08:14:50.000Z</time>
      </trkpt>
      <trkpt lat="47.90566" lon="7.13452">
        <ele>926.40002441406</ele>
        <time>2021-07-11T08:14:51.000Z</time>
      </trkpt>
      <trkpt lat="47.90563" lon="7.13444">
        <ele>926.40002441406</ele>
        <time>2021-07-11T08:14:53.000Z</time>
      </trkpt>
      <trkpt lat="47.90559" lon="7.13433">
        <ele>926.79998779297</ele>
        <time>2021-07-11T08:14:56.000Z</time>
      </trkpt>
      <trkpt lat="47.90558" lon="7.1343">
        <ele>927.20001220703</ele>
        <time>2021-07-11T08:14:57.000Z</time>
      </trkpt>
      <trkpt lat="47.90556" lon="7.13426">
        <ele>927.59997558594</ele>
        <time>2021-07-11T08:14:58.000Z</time>
      </trkpt>
      <trkpt lat="47.90555" lon="7.13423">
        <ele>928.20001220703</ele>
        <time>2021-07-11T08:14:59.000Z</time>
      </trkpt>
      <trkpt lat="47.90553" lon="7.1342">
        <ele>928.59997558594</ele>
        <time>2021-07-11T08:15:00.000Z</time>
      </trkpt>
      <trkpt lat="47.90542" lon="7.13402">
        <ele>929</ele>
        <time>2021-07-11T08:15:06.000Z</time>
      </trkpt>
      <trkpt lat="47.90541" lon="7.13399">
        <ele>929.40002441406</ele>
        <time>2021-07-11T08:15:07.000Z</time>
      </trkpt>
      <trkpt lat="47.9054" lon="7.13396">
        <ele>930</ele>
        <time>2021-07-11T08:15:08.000Z</time>
      </trkpt>
      <trkpt lat="47.9054" lon="7.13392">
        <ele>930.40002441406</ele>
        <time>2021-07-11T08:15:09.000Z</time>
      </trkpt>
      <trkpt lat="47.90539" lon="7.13389">
        <ele>930.79998779297</ele>
        <time>2021-07-11T08:15:10.000Z</time>
      </trkpt>
      <trkpt lat="47.90538" lon="7.13386">
        <ele>930.79998779297</ele>
        <time>2021-07-11T08:15:11.000Z</time>
      </trkpt>
      <trkpt lat="47.90534" lon="7.13376">
        <ele>931.20001220703</ele>
        <time>2021-07-11T08:15:14.000Z</time>
      </trkpt>
      <trkpt lat="47.90533" lon="7.13373">
        <ele>931.59997558594</ele>
        <time>2021-07-11T08:15:15.000Z</time>
      </trkpt>
      <trkpt lat="47.90532" lon="7.1337">
        <ele>932.40002441406</ele>
        <time>2021-07-11T08:15:16.000Z</time>
      </trkpt>
      <trkpt lat="47.90531" lon="7.13366">
        <ele>932.79998779297</ele>
        <time>2021-07-11T08:15:17.000Z</time>
      </trkpt>
      <trkpt lat="47.90529" lon="7.13348">
        <ele>933.40002441406</ele>
        <time>2021-07-11T08:15:22.000Z</time>
      </trkpt>
      <trkpt lat="47.9053" lon="7.13344">
        <ele>933.79998779297</ele>
        <time>2021-07-11T08:15:23.000Z</time>
      </trkpt>
      <trkpt lat="47.9053" lon="7.13341">
        <ele>934.20001220703</ele>
        <time>2021-07-11T08:15:24.000Z</time>
      </trkpt>
      <trkpt lat="47.9053" lon="7.13338">
        <ele>934.59997558594</ele>
        <time>2021-07-11T08:15:25.000Z</time>
      </trkpt>
      <trkpt lat="47.90531" lon="7.13335">
        <ele>935</ele>
        <time>2021-07-11T08:15:26.000Z</time>
      </trkpt>
      <trkpt lat="47.90533" lon="7.13326">
        <ele>935.40002441406</ele>
        <time>2021-07-11T08:15:29.000Z</time>
      </trkpt>
      <trkpt lat="47.90533" lon="7.13323">
        <ele>936</ele>
        <time>2021-07-11T08:15:30.000Z</time>
      </trkpt>
      <trkpt lat="47.90533" lon="7.13319">
        <ele>936.40002441406</ele>
        <time>2021-07-11T08:15:31.000Z</time>
      </trkpt>
      <trkpt lat="47.90533" lon="7.13316">
        <ele>936.79998779297</ele>
        <time>2021-07-11T08:15:32.000Z</time>
      </trkpt>
      <trkpt lat="47.90533" lon="7.13312">
        <ele>937.20001220703</ele>
        <time>2021-07-11T08:15:33.000Z</time>
      </trkpt>
      <trkpt lat="47.90535" lon="7.13302">
        <ele>937.59997558594</ele>
        <time>2021-07-11T08:15:36.000Z</time>
      </trkpt>
      <trkpt lat="47.90536" lon="7.13298">
        <ele>938</ele>
        <time>2021-07-11T08:15:37.000Z</time>
      </trkpt>
      <trkpt lat="47.90537" lon="7.13295">
        <ele>938.40002441406</ele>
        <time>2021-07-11T08:15:38.000Z</time>
      </trkpt>
      <trkpt lat="47.90539" lon="7.13292">
        <ele>938.79998779297</ele>
        <time>2021-07-11T08:15:39.000Z</time>
      </trkpt>
      <trkpt lat="47.90539" lon="7.13289">
        <ele>939.20001220703</ele>
        <time>2021-07-11T08:15:40.000Z</time>
      </trkpt>
      <trkpt lat="47.90544" lon="7.1328">
        <ele>939.79998779297</ele>
        <time>2021-07-11T08:15:43.000Z</time>
      </trkpt>
      <trkpt lat="47.90545" lon="7.13277">
        <ele>940.20001220703</ele>
        <time>2021-07-11T08:15:44.000Z</time>
      </trkpt>
      <trkpt lat="47.90547" lon="7.13275">
        <ele>940.59997558594</ele>
        <time>2021-07-11T08:15:45.000Z</time>
      </trkpt>
      <trkpt lat="47.90548" lon="7.13272">
        <ele>941</ele>
        <time>2021-07-11T08:15:46.000Z</time>
      </trkpt>
      <trkpt lat="47.9055" lon="7.13269">
        <ele>941.40002441406</ele>
        <time>2021-07-11T08:15:47.000Z</time>
      </trkpt>
      <trkpt lat="47.90555" lon="7.13264">
        <ele>941.40002441406</ele>
        <time>2021-07-11T08:15:50.000Z</time>
      </trkpt>
      <trkpt lat="47.90556" lon="7.13261">
        <ele>941.79998779297</ele>
        <time>2021-07-11T08:15:51.000Z</time>
      </trkpt>
      <trkpt lat="47.90558" lon="7.13259">
        <ele>942.20001220703</ele>
        <time>2021-07-11T08:15:52.000Z</time>
      </trkpt>
      <trkpt lat="47.9056" lon="7.13257">
        <ele>942.79998779297</ele>
        <time>2021-07-11T08:15:53.000Z</time>
      </trkpt>
      <trkpt lat="47.90562" lon="7.13254">
        <ele>943.20001220703</ele>
        <time>2021-07-11T08:15:54.000Z</time>
      </trkpt>
      <trkpt lat="47.90565" lon="7.13252">
        <ele>943.59997558594</ele>
        <time>2021-07-11T08:15:55.000Z</time>
      </trkpt>
      <trkpt lat="47.90567" lon="7.1325">
        <ele>943.59997558594</ele>
        <time>2021-07-11T08:15:56.000Z</time>
      </trkpt>
      <trkpt lat="47.90573" lon="7.13242">
        <ele>944</ele>
        <time>2021-07-11T08:16:00.000Z</time>
      </trkpt>
      <trkpt lat="47.90575" lon="7.1324">
        <ele>944.40002441406</ele>
        <time>2021-07-11T08:16:01.000Z</time>
      </trkpt>
      <trkpt lat="47.90576" lon="7.13238">
        <ele>945</ele>
        <time>2021-07-11T08:16:02.000Z</time>
      </trkpt>
      <trkpt lat="47.90578" lon="7.13236">
        <ele>945.40002441406</ele>
        <time>2021-07-11T08:16:03.000Z</time>
      </trkpt>
      <trkpt lat="47.9058" lon="7.13234">
        <ele>945.79998779297</ele>
        <time>2021-07-11T08:16:04.000Z</time>
      </trkpt>
      <trkpt lat="47.90586" lon="7.13226">
        <ele>946.20001220703</ele>
        <time>2021-07-11T08:16:07.000Z</time>
      </trkpt>
      <trkpt lat="47.90587" lon="7.13225">
        <ele>946.59997558594</ele>
        <time>2021-07-11T08:16:08.000Z</time>
      </trkpt>
      <trkpt lat="47.9059" lon="7.13223">
        <ele>947</ele>
        <time>2021-07-11T08:16:09.000Z</time>
      </trkpt>
      <trkpt lat="47.90591" lon="7.13221">
        <ele>947.40002441406</ele>
        <time>2021-07-11T08:16:10.000Z</time>
      </trkpt>
      <trkpt lat="47.90593" lon="7.1322">
        <ele>948</ele>
        <time>2021-07-11T08:16:11.000Z</time>
      </trkpt>
      <trkpt lat="47.90594" lon="7.13219">
        <ele>948</ele>
        <time>2021-07-11T08:16:12.000Z</time>
      </trkpt>
      <trkpt lat="47.90601" lon="7.13211">
        <ele>948.40002441406</ele>
        <time>2021-07-11T08:16:16.000Z</time>
      </trkpt>
      <trkpt lat="47.90603" lon="7.13208">
        <ele>948.79998779297</ele>
        <time>2021-07-11T08:16:17.000Z</time>
      </trkpt>
      <trkpt lat="47.90605" lon="7.13206">
        <ele>949.20001220703</ele>
        <time>2021-07-11T08:16:18.000Z</time>
      </trkpt>
      <trkpt lat="47.90606" lon="7.13203">
        <ele>949.59997558594</ele>
        <time>2021-07-11T08:16:19.000Z</time>
      </trkpt>
      <trkpt lat="47.90608" lon="7.132">
        <ele>950</ele>
        <time>2021-07-11T08:16:20.000Z</time>
      </trkpt>
      <trkpt lat="47.90618" lon="7.13186">
        <ele>950.59997558594</ele>
        <time>2021-07-11T08:16:26.000Z</time>
      </trkpt>
      <trkpt lat="47.9062" lon="7.13184">
        <ele>951</ele>
        <time>2021-07-11T08:16:27.000Z</time>
      </trkpt>
      <trkpt lat="47.90621" lon="7.13183">
        <ele>951.40002441406</ele>
        <time>2021-07-11T08:16:28.000Z</time>
      </trkpt>
      <trkpt lat="47.90623" lon="7.1318">
        <ele>951.79998779297</ele>
        <time>2021-07-11T08:16:29.000Z</time>
      </trkpt>
      <trkpt lat="47.90625" lon="7.13178">
        <ele>952.20001220703</ele>
        <time>2021-07-11T08:16:30.000Z</time>
      </trkpt>
      <trkpt lat="47.9063" lon="7.13171">
        <ele>952.20001220703</ele>
        <time>2021-07-11T08:16:33.000Z</time>
      </trkpt>
      <trkpt lat="47.90634" lon="7.13167">
        <ele>952.59997558594</ele>
        <time>2021-07-11T08:16:35.000Z</time>
      </trkpt>
      <trkpt lat="47.90635" lon="7.13165">
        <ele>953</ele>
        <time>2021-07-11T08:16:36.000Z</time>
      </trkpt>
      <trkpt lat="47.90637" lon="7.13163">
        <ele>953.40002441406</ele>
        <time>2021-07-11T08:16:37.000Z</time>
      </trkpt>
      <trkpt lat="47.90639" lon="7.13161">
        <ele>953.79998779297</ele>
        <time>2021-07-11T08:16:38.000Z</time>
      </trkpt>
      <trkpt lat="47.90641" lon="7.13159">
        <ele>954.20001220703</ele>
        <time>2021-07-11T08:16:39.000Z</time>
      </trkpt>
      <trkpt lat="47.90643" lon="7.13156">
        <ele>954.20001220703</ele>
        <time>2021-07-11T08:16:40.000Z</time>
      </trkpt>
      <trkpt lat="47.90652" lon="7.13143">
        <ele>954.20001220703</ele>
        <time>2021-07-11T08:16:45.000Z</time>
      </trkpt>
      <trkpt lat="47.90658" lon="7.13133">
        <ele>954.59997558594</ele>
        <time>2021-07-11T08:16:49.000Z</time>
      </trkpt>
      <trkpt lat="47.90659" lon="7.1313">
        <ele>955</ele>
        <time>2021-07-11T08:16:50.000Z</time>
      </trkpt>
      <trkpt lat="47.90662" lon="7.13128">
        <ele>955.40002441406</ele>
        <time>2021-07-11T08:16:51.000Z</time>
      </trkpt>
      <trkpt lat="47.90663" lon="7.13126">
        <ele>955.79998779297</ele>
        <time>2021-07-11T08:16:52.000Z</time>
      </trkpt>
      <trkpt lat="47.90665" lon="7.13123">
        <ele>956.20001220703</ele>
        <time>2021-07-11T08:16:53.000Z</time>
      </trkpt>
      <trkpt lat="47.90671" lon="7.13115">
        <ele>956.20001220703</ele>
        <time>2021-07-11T08:16:56.000Z</time>
      </trkpt>
      <trkpt lat="47.90679" lon="7.13099">
        <ele>956.20001220703</ele>
        <time>2021-07-11T08:17:01.000Z</time>
      </trkpt>
      <trkpt lat="47.90687" lon="7.13083">
        <ele>956.20001220703</ele>
        <time>2021-07-11T08:17:07.000Z</time>
      </trkpt>
      <trkpt lat="47.90703" lon="7.13059">
        <ele>956.20001220703</ele>
        <time>2021-07-11T08:17:15.000Z</time>
      </trkpt>
      <trkpt lat="47.90714" lon="7.13046">
        <ele>956.20001220703</ele>
        <time>2021-07-11T08:17:20.000Z</time>
      </trkpt>
      <trkpt lat="47.9073" lon="7.13029">
        <ele>956.20001220703</ele>
        <time>2021-07-11T08:17:25.000Z</time>
      </trkpt>
      <trkpt lat="47.90734" lon="7.13025">
        <ele>956.20001220703</ele>
        <time>2021-07-11T08:17:26.000Z</time>
      </trkpt>
      <trkpt lat="47.90752" lon="7.12992">
        <ele>956.20001220703</ele>
        <time>2021-07-11T08:17:32.000Z</time>
      </trkpt>
      <trkpt lat="47.90759" lon="7.12974">
        <ele>956.79998779297</ele>
        <time>2021-07-11T08:17:35.000Z</time>
      </trkpt>
      <trkpt lat="47.90761" lon="7.12969">
        <ele>957.20001220703</ele>
        <time>2021-07-11T08:17:36.000Z</time>
      </trkpt>
      <trkpt lat="47.90763" lon="7.12964">
        <ele>957.59997558594</ele>
        <time>2021-07-11T08:17:37.000Z</time>
      </trkpt>
      <trkpt lat="47.90765" lon="7.1296">
        <ele>958</ele>
        <time>2021-07-11T08:17:38.000Z</time>
      </trkpt>
      <trkpt lat="47.90767" lon="7.12956">
        <ele>958.40002441406</ele>
        <time>2021-07-11T08:17:39.000Z</time>
      </trkpt>
      <trkpt lat="47.90768" lon="7.12952">
        <ele>958.40002441406</ele>
        <time>2021-07-11T08:17:40.000Z</time>
      </trkpt>
      <trkpt lat="47.90776" lon="7.12936">
        <ele>958.79998779297</ele>
        <time>2021-07-11T08:17:44.000Z</time>
      </trkpt>
      <trkpt lat="47.90778" lon="7.12932">
        <ele>959.79998779297</ele>
        <time>2021-07-11T08:17:45.000Z</time>
      </trkpt>
      <trkpt lat="47.90781" lon="7.12929">
        <ele>960.20001220703</ele>
        <time>2021-07-11T08:17:46.000Z</time>
      </trkpt>
      <trkpt lat="47.90783" lon="7.12925">
        <ele>960.59997558594</ele>
        <time>2021-07-11T08:17:47.000Z</time>
      </trkpt>
      <trkpt lat="47.90785" lon="7.12922">
        <ele>960.59997558594</ele>
        <time>2021-07-11T08:17:48.000Z</time>
      </trkpt>
      <trkpt lat="47.9079" lon="7.12915">
        <ele>961</ele>
        <time>2021-07-11T08:17:50.000Z</time>
      </trkpt>
      <trkpt lat="47.90791" lon="7.12911">
        <ele>961.40002441406</ele>
        <time>2021-07-11T08:17:51.000Z</time>
      </trkpt>
      <trkpt lat="47.90793" lon="7.12908">
        <ele>961.79998779297</ele>
        <time>2021-07-11T08:17:52.000Z</time>
      </trkpt>
      <trkpt lat="47.90795" lon="7.12905">
        <ele>962.20001220703</ele>
        <time>2021-07-11T08:17:53.000Z</time>
      </trkpt>
      <trkpt lat="47.90796" lon="7.12902">
        <ele>962.59997558594</ele>
        <time>2021-07-11T08:17:54.000Z</time>
      </trkpt>
      <trkpt lat="47.90799" lon="7.12895">
        <ele>963.20001220703</ele>
        <time>2021-07-11T08:17:56.000Z</time>
      </trkpt>
      <trkpt lat="47.908" lon="7.12892">
        <ele>963.59997558594</ele>
        <time>2021-07-11T08:17:57.000Z</time>
      </trkpt>
      <trkpt lat="47.90801" lon="7.12889">
        <ele>964</ele>
        <time>2021-07-11T08:17:58.000Z</time>
      </trkpt>
      <trkpt lat="47.90802" lon="7.12886">
        <ele>964.40002441406</ele>
        <time>2021-07-11T08:17:59.000Z</time>
      </trkpt>
      <trkpt lat="47.90803" lon="7.12883">
        <ele>964.79998779297</ele>
        <time>2021-07-11T08:18:00.000Z</time>
      </trkpt>
      <trkpt lat="47.90805" lon="7.12876">
        <ele>965.20001220703</ele>
        <time>2021-07-11T08:18:02.000Z</time>
      </trkpt>
      <trkpt lat="47.90806" lon="7.12874">
        <ele>965.59997558594</ele>
        <time>2021-07-11T08:18:03.000Z</time>
      </trkpt>
      <trkpt lat="47.90808" lon="7.12871">
        <ele>966</ele>
        <time>2021-07-11T08:18:04.000Z</time>
      </trkpt>
      <trkpt lat="47.90809" lon="7.12868">
        <ele>966.40002441406</ele>
        <time>2021-07-11T08:18:05.000Z</time>
      </trkpt>
      <trkpt lat="47.90811" lon="7.12866">
        <ele>966.79998779297</ele>
        <time>2021-07-11T08:18:06.000Z</time>
      </trkpt>
      <trkpt lat="47.90815" lon="7.12864">
        <ele>966.79998779297</ele>
        <time>2021-07-11T08:18:08.000Z</time>
      </trkpt>
      <trkpt lat="47.90821" lon="7.12861">
        <ele>966.79998779297</ele>
        <time>2021-07-11T08:18:13.000Z</time>
      </trkpt>
      <trkpt lat="47.9082" lon="7.12857">
        <ele>967.79998779297</ele>
        <time>2021-07-11T08:26:06.000Z</time>
      </trkpt>
      <trkpt lat="47.90824" lon="7.12852">
        <ele>967.79998779297</ele>
        <time>2021-07-11T08:26:09.000Z</time>
      </trkpt>
      <trkpt lat="47.90829" lon="7.12845">
        <ele>968.20001220703</ele>
        <time>2021-07-11T08:26:13.000Z</time>
      </trkpt>
      <trkpt lat="47.90831" lon="7.12843">
        <ele>968.59997558594</ele>
        <time>2021-07-11T08:26:14.000Z</time>
      </trkpt>
      <trkpt lat="47.90832" lon="7.12841">
        <ele>969</ele>
        <time>2021-07-11T08:26:15.000Z</time>
      </trkpt>
      <trkpt lat="47.90834" lon="7.12839">
        <ele>969.40002441406</ele>
        <time>2021-07-11T08:26:16.000Z</time>
      </trkpt>
      <trkpt lat="47.90836" lon="7.12837">
        <ele>969.79998779297</ele>
        <time>2021-07-11T08:26:17.000Z</time>
      </trkpt>
      <trkpt lat="47.9084" lon="7.12831">
        <ele>969.79998779297</ele>
        <time>2021-07-11T08:26:20.000Z</time>
      </trkpt>
      <trkpt lat="47.90843" lon="7.12828">
        <ele>970.20001220703</ele>
        <time>2021-07-11T08:26:22.000Z</time>
      </trkpt>
      <trkpt lat="47.90845" lon="7.12827">
        <ele>970.59997558594</ele>
        <time>2021-07-11T08:26:23.000Z</time>
      </trkpt>
      <trkpt lat="47.90846" lon="7.12826">
        <ele>971</ele>
        <time>2021-07-11T08:26:24.000Z</time>
      </trkpt>
      <trkpt lat="47.90848" lon="7.12825">
        <ele>971.79998779297</ele>
        <time>2021-07-11T08:26:25.000Z</time>
      </trkpt>
      <trkpt lat="47.90851" lon="7.12822">
        <ele>971.79998779297</ele>
        <time>2021-07-11T08:26:27.000Z</time>
      </trkpt>
      <trkpt lat="47.90853" lon="7.1282">
        <ele>972.20001220703</ele>
        <time>2021-07-11T08:26:28.000Z</time>
      </trkpt>
      <trkpt lat="47.90854" lon="7.12819">
        <ele>972.79998779297</ele>
        <time>2021-07-11T08:26:29.000Z</time>
      </trkpt>
      <trkpt lat="47.90855" lon="7.12818">
        <ele>973.20001220703</ele>
        <time>2021-07-11T08:26:30.000Z</time>
      </trkpt>
      <trkpt lat="47.90856" lon="7.12818">
        <ele>973.59997558594</ele>
        <time>2021-07-11T08:26:31.000Z</time>
      </trkpt>
      <trkpt lat="47.90857" lon="7.12817">
        <ele>974</ele>
        <time>2021-07-11T08:26:32.000Z</time>
      </trkpt>
      <trkpt lat="47.90861" lon="7.12815">
        <ele>974.40002441406</ele>
        <time>2021-07-11T08:26:35.000Z</time>
      </trkpt>
      <trkpt lat="47.90863" lon="7.12815">
        <ele>974.79998779297</ele>
        <time>2021-07-11T08:26:36.000Z</time>
      </trkpt>
      <trkpt lat="47.90864" lon="7.12814">
        <ele>975.20001220703</ele>
        <time>2021-07-11T08:26:37.000Z</time>
      </trkpt>
      <trkpt lat="47.90867" lon="7.12813">
        <ele>975.79998779297</ele>
        <time>2021-07-11T08:26:38.000Z</time>
      </trkpt>
      <trkpt lat="47.90869" lon="7.12812">
        <ele>976.20001220703</ele>
        <time>2021-07-11T08:26:39.000Z</time>
      </trkpt>
      <trkpt lat="47.90877" lon="7.12808">
        <ele>976.59997558594</ele>
        <time>2021-07-11T08:26:43.000Z</time>
      </trkpt>
      <trkpt lat="47.90878" lon="7.12807">
        <ele>977</ele>
        <time>2021-07-11T08:26:44.000Z</time>
      </trkpt>
      <trkpt lat="47.9088" lon="7.12807">
        <ele>977.40002441406</ele>
        <time>2021-07-11T08:26:45.000Z</time>
      </trkpt>
      <trkpt lat="47.90881" lon="7.12806">
        <ele>978</ele>
        <time>2021-07-11T08:26:46.000Z</time>
      </trkpt>
      <trkpt lat="47.90882" lon="7.12805">
        <ele>978.40002441406</ele>
        <time>2021-07-11T08:26:47.000Z</time>
      </trkpt>
      <trkpt lat="47.9089" lon="7.12802">
        <ele>978.79998779297</ele>
        <time>2021-07-11T08:26:52.000Z</time>
      </trkpt>
      <trkpt lat="47.90891" lon="7.12801">
        <ele>979.20001220703</ele>
        <time>2021-07-11T08:26:53.000Z</time>
      </trkpt>
      <trkpt lat="47.90892" lon="7.12799">
        <ele>979.59997558594</ele>
        <time>2021-07-11T08:26:54.000Z</time>
      </trkpt>
      <trkpt lat="47.90894" lon="7.12798">
        <ele>980.20001220703</ele>
        <time>2021-07-11T08:26:55.000Z</time>
      </trkpt>
      <trkpt lat="47.90896" lon="7.12797">
        <ele>980.59997558594</ele>
        <time>2021-07-11T08:26:56.000Z</time>
      </trkpt>
      <trkpt lat="47.90909" lon="7.12791">
        <ele>980.59997558594</ele>
        <time>2021-07-11T08:27:02.000Z</time>
      </trkpt>
      <trkpt lat="47.9091" lon="7.1279">
        <ele>981</ele>
        <time>2021-07-11T08:27:03.000Z</time>
      </trkpt>
      <trkpt lat="47.90911" lon="7.12789">
        <ele>981.40002441406</ele>
        <time>2021-07-11T08:27:04.000Z</time>
      </trkpt>
      <trkpt lat="47.90912" lon="7.12789">
        <ele>981.79998779297</ele>
        <time>2021-07-11T08:27:05.000Z</time>
      </trkpt>
      <trkpt lat="47.90913" lon="7.12788">
        <ele>982.20001220703</ele>
        <time>2021-07-11T08:27:06.000Z</time>
      </trkpt>
      <trkpt lat="47.90915" lon="7.12787">
        <ele>982.59997558594</ele>
        <time>2021-07-11T08:27:07.000Z</time>
      </trkpt>
      <trkpt lat="47.90916" lon="7.12786">
        <ele>982.59997558594</ele>
        <time>2021-07-11T08:27:08.000Z</time>
      </trkpt>
      <trkpt lat="47.90924" lon="7.12783">
        <ele>982.59997558594</ele>
        <time>2021-07-11T08:27:16.000Z</time>
      </trkpt>
      <trkpt lat="47.90926" lon="7.12782">
        <ele>983</ele>
        <time>2021-07-11T08:27:19.000Z</time>
      </trkpt>
      <trkpt lat="47.90926" lon="7.12782">
        <ele>983.40002441406</ele>
        <time>2021-07-11T08:27:20.000Z</time>
      </trkpt>
      <trkpt lat="47.90926" lon="7.12782">
        <ele>983.79998779297</ele>
        <time>2021-07-11T08:27:21.000Z</time>
      </trkpt>
      <trkpt lat="47.90928" lon="7.12781">
        <ele>984.20001220703</ele>
        <time>2021-07-11T08:27:22.000Z</time>
      </trkpt>
      <trkpt lat="47.9093" lon="7.1278">
        <ele>984.59997558594</ele>
        <time>2021-07-11T08:27:23.000Z</time>
      </trkpt>
      <trkpt lat="47.90937" lon="7.12778">
        <ele>984.59997558594</ele>
        <time>2021-07-11T08:27:30.000Z</time>
      </trkpt>
      <trkpt lat="47.90947" lon="7.12774">
        <ele>984.59997558594</ele>
        <time>2021-07-11T08:27:37.000Z</time>
      </trkpt>
      <trkpt lat="47.90949" lon="7.12774">
        <ele>985</ele>
        <time>2021-07-11T08:27:38.000Z</time>
      </trkpt>
      <trkpt lat="47.9095" lon="7.12773">
        <ele>985.79998779297</ele>
        <time>2021-07-11T08:27:39.000Z</time>
      </trkpt>
      <trkpt lat="47.90952" lon="7.12772">
        <ele>986.20001220703</ele>
        <time>2021-07-11T08:27:40.000Z</time>
      </trkpt>
      <trkpt lat="47.90952" lon="7.12771">
        <ele>986.79998779297</ele>
        <time>2021-07-11T08:27:41.000Z</time>
      </trkpt>
      <trkpt lat="47.90957" lon="7.12768">
        <ele>986.79998779297</ele>
        <time>2021-07-11T08:27:44.000Z</time>
      </trkpt>
      <trkpt lat="47.90964" lon="7.12763">
        <ele>987.20001220703</ele>
        <time>2021-07-11T08:27:48.000Z</time>
      </trkpt>
      <trkpt lat="47.90966" lon="7.12762">
        <ele>987.59997558594</ele>
        <time>2021-07-11T08:27:49.000Z</time>
      </trkpt>
      <trkpt lat="47.90968" lon="7.12762">
        <ele>988</ele>
        <time>2021-07-11T08:27:50.000Z</time>
      </trkpt>
      <trkpt lat="47.90969" lon="7.12761">
        <ele>988.40002441406</ele>
        <time>2021-07-11T08:27:51.000Z</time>
      </trkpt>
      <trkpt lat="47.90972" lon="7.1276">
        <ele>988.79998779297</ele>
        <time>2021-07-11T08:27:52.000Z</time>
      </trkpt>
      <trkpt lat="47.90984" lon="7.12751">
        <ele>988.79998779297</ele>
        <time>2021-07-11T08:27:57.000Z</time>
      </trkpt>
      <trkpt lat="47.90988" lon="7.12748">
        <ele>989.20001220703</ele>
        <time>2021-07-11T08:27:59.000Z</time>
      </trkpt>
      <trkpt lat="47.90991" lon="7.12747">
        <ele>989.59997558594</ele>
        <time>2021-07-11T08:28:00.000Z</time>
      </trkpt>
      <trkpt lat="47.90993" lon="7.12747">
        <ele>990.20001220703</ele>
        <time>2021-07-11T08:28:01.000Z</time>
      </trkpt>
      <trkpt lat="47.90995" lon="7.12747">
        <ele>990.59997558594</ele>
        <time>2021-07-11T08:28:02.000Z</time>
      </trkpt>
      <trkpt lat="47.90997" lon="7.12748">
        <ele>991</ele>
        <time>2021-07-11T08:28:03.000Z</time>
      </trkpt>
      <trkpt lat="47.90999" lon="7.12747">
        <ele>991</ele>
        <time>2021-07-11T08:28:04.000Z</time>
      </trkpt>
      <trkpt lat="47.91005" lon="7.12745">
        <ele>991.40002441406</ele>
        <time>2021-07-11T08:28:07.000Z</time>
      </trkpt>
      <trkpt lat="47.91007" lon="7.12744">
        <ele>991.79998779297</ele>
        <time>2021-07-11T08:28:08.000Z</time>
      </trkpt>
      <trkpt lat="47.91009" lon="7.12743">
        <ele>992.20001220703</ele>
        <time>2021-07-11T08:28:09.000Z</time>
      </trkpt>
      <trkpt lat="47.9101" lon="7.12743">
        <ele>992.59997558594</ele>
        <time>2021-07-11T08:28:10.000Z</time>
      </trkpt>
      <trkpt lat="47.91012" lon="7.12743">
        <ele>993</ele>
        <time>2021-07-11T08:28:11.000Z</time>
      </trkpt>
      <trkpt lat="47.91016" lon="7.12742">
        <ele>993</ele>
        <time>2021-07-11T08:28:13.000Z</time>
      </trkpt>
      <trkpt lat="47.91025" lon="7.12737">
        <ele>993.40002441406</ele>
        <time>2021-07-11T08:28:17.000Z</time>
      </trkpt>
      <trkpt lat="47.91026" lon="7.12737">
        <ele>993.79998779297</ele>
        <time>2021-07-11T08:28:18.000Z</time>
      </trkpt>
      <trkpt lat="47.91029" lon="7.12737">
        <ele>994.20001220703</ele>
        <time>2021-07-11T08:28:19.000Z</time>
      </trkpt>
      <trkpt lat="47.91031" lon="7.12737">
        <ele>994.59997558594</ele>
        <time>2021-07-11T08:28:20.000Z</time>
      </trkpt>
      <trkpt lat="47.91033" lon="7.12737">
        <ele>995</ele>
        <time>2021-07-11T08:28:21.000Z</time>
      </trkpt>
      <trkpt lat="47.91039" lon="7.12736">
        <ele>995.59997558594</ele>
        <time>2021-07-11T08:28:26.000Z</time>
      </trkpt>
      <trkpt lat="47.91041" lon="7.12736">
        <ele>996</ele>
        <time>2021-07-11T08:28:27.000Z</time>
      </trkpt>
      <trkpt lat="47.91043" lon="7.12735">
        <ele>996.40002441406</ele>
        <time>2021-07-11T08:28:28.000Z</time>
      </trkpt>
      <trkpt lat="47.91045" lon="7.12734">
        <ele>997.20001220703</ele>
        <time>2021-07-11T08:28:29.000Z</time>
      </trkpt>
      <trkpt lat="47.91056" lon="7.12733">
        <ele>997.20001220703</ele>
        <time>2021-07-11T08:28:34.000Z</time>
      </trkpt>
      <trkpt lat="47.91058" lon="7.12733">
        <ele>997.59997558594</ele>
        <time>2021-07-11T08:28:35.000Z</time>
      </trkpt>
      <trkpt lat="47.9106" lon="7.12732">
        <ele>998</ele>
        <time>2021-07-11T08:28:36.000Z</time>
      </trkpt>
      <trkpt lat="47.91062" lon="7.12732">
        <ele>998.40002441406</ele>
        <time>2021-07-11T08:28:37.000Z</time>
      </trkpt>
      <trkpt lat="47.91064" lon="7.12732">
        <ele>998.79998779297</ele>
        <time>2021-07-11T08:28:38.000Z</time>
      </trkpt>
      <trkpt lat="47.91066" lon="7.12732">
        <ele>999.20001220703</ele>
        <time>2021-07-11T08:28:39.000Z</time>
      </trkpt>
      <trkpt lat="47.91072" lon="7.12732">
        <ele>999.20001220703</ele>
        <time>2021-07-11T08:28:42.000Z</time>
      </trkpt>
      <trkpt lat="47.91079" lon="7.12733">
        <ele>999.59997558594</ele>
        <time>2021-07-11T08:28:45.000Z</time>
      </trkpt>
      <trkpt lat="47.91081" lon="7.12734">
        <ele>1000</ele>
        <time>2021-07-11T08:28:46.000Z</time>
      </trkpt>
      <trkpt lat="47.91084" lon="7.12734">
        <ele>1000.4000244141</ele>
        <time>2021-07-11T08:28:47.000Z</time>
      </trkpt>
      <trkpt lat="47.91085" lon="7.12734">
        <ele>1000.799987793</ele>
        <time>2021-07-11T08:28:48.000Z</time>
      </trkpt>
      <trkpt lat="47.91088" lon="7.12735">
        <ele>1001.200012207</ele>
        <time>2021-07-11T08:28:49.000Z</time>
      </trkpt>
      <trkpt lat="47.91099" lon="7.1273">
        <ele>1001.5999755859</ele>
        <time>2021-07-11T08:28:54.000Z</time>
      </trkpt>
      <trkpt lat="47.91101" lon="7.1273">
        <ele>1002</ele>
        <time>2021-07-11T08:28:55.000Z</time>
      </trkpt>
      <trkpt lat="47.91103" lon="7.12729">
        <ele>1002.5999755859</ele>
        <time>2021-07-11T08:28:56.000Z</time>
      </trkpt>
      <trkpt lat="47.91106" lon="7.12729">
        <ele>1003</ele>
        <time>2021-07-11T08:28:57.000Z</time>
      </trkpt>
      <trkpt lat="47.91108" lon="7.12729">
        <ele>1003.4000244141</ele>
        <time>2021-07-11T08:28:58.000Z</time>
      </trkpt>
      <trkpt lat="47.91117" lon="7.12731">
        <ele>1003.4000244141</ele>
        <time>2021-07-11T08:29:02.000Z</time>
      </trkpt>
      <trkpt lat="47.91119" lon="7.12731">
        <ele>1003.4000244141</ele>
        <time>2021-07-11T08:29:03.000Z</time>
      </trkpt>
      <trkpt lat="47.91122" lon="7.12729">
        <ele>1003.799987793</ele>
        <time>2021-07-11T08:29:04.000Z</time>
      </trkpt>
      <trkpt lat="47.91123" lon="7.12728">
        <ele>1004.200012207</ele>
        <time>2021-07-11T08:29:05.000Z</time>
      </trkpt>
      <trkpt lat="47.91125" lon="7.12727">
        <ele>1004.5999755859</ele>
        <time>2021-07-11T08:29:06.000Z</time>
      </trkpt>
      <trkpt lat="47.91127" lon="7.12726">
        <ele>1005</ele>
        <time>2021-07-11T08:29:07.000Z</time>
      </trkpt>
      <trkpt lat="47.9113" lon="7.12725">
        <ele>1005.4000244141</ele>
        <time>2021-07-11T08:29:08.000Z</time>
      </trkpt>
      <trkpt lat="47.91139" lon="7.12721">
        <ele>1005.799987793</ele>
        <time>2021-07-11T08:29:14.000Z</time>
      </trkpt>
      <trkpt lat="47.91141" lon="7.12721">
        <ele>1006.4000244141</ele>
        <time>2021-07-11T08:29:15.000Z</time>
      </trkpt>
      <trkpt lat="47.91143" lon="7.1272">
        <ele>1006.799987793</ele>
        <time>2021-07-11T08:29:16.000Z</time>
      </trkpt>
      <trkpt lat="47.91145" lon="7.12719">
        <ele>1007.200012207</ele>
        <time>2021-07-11T08:29:17.000Z</time>
      </trkpt>
      <trkpt lat="47.91146" lon="7.12718">
        <ele>1007.5999755859</ele>
        <time>2021-07-11T08:29:18.000Z</time>
      </trkpt>
      <trkpt lat="47.91154" lon="7.12714">
        <ele>1007.5999755859</ele>
        <time>2021-07-11T08:29:21.000Z</time>
      </trkpt>
      <trkpt lat="47.91158" lon="7.12714">
        <ele>1008</ele>
        <time>2021-07-11T08:29:23.000Z</time>
      </trkpt>
      <trkpt lat="47.91159" lon="7.12714">
        <ele>1008.4000244141</ele>
        <time>2021-07-11T08:29:24.000Z</time>
      </trkpt>
      <trkpt lat="47.91161" lon="7.12714">
        <ele>1008.799987793</ele>
        <time>2021-07-11T08:29:25.000Z</time>
      </trkpt>
      <trkpt lat="47.91163" lon="7.12712">
        <ele>1009.4000244141</ele>
        <time>2021-07-11T08:29:26.000Z</time>
      </trkpt>
      <trkpt lat="47.91164" lon="7.12711">
        <ele>1009.799987793</ele>
        <time>2021-07-11T08:29:27.000Z</time>
      </trkpt>
      <trkpt lat="47.9117" lon="7.12705">
        <ele>1009.799987793</ele>
        <time>2021-07-11T08:29:31.000Z</time>
      </trkpt>
      <trkpt lat="47.91171" lon="7.12701">
        <ele>1009.799987793</ele>
        <time>2021-07-11T08:29:33.000Z</time>
      </trkpt>
      <trkpt lat="47.9117" lon="7.12699">
        <ele>1010.200012207</ele>
        <time>2021-07-11T08:29:34.000Z</time>
      </trkpt>
      <trkpt lat="47.9117" lon="7.12697">
        <ele>1010.5999755859</ele>
        <time>2021-07-11T08:29:35.000Z</time>
      </trkpt>
      <trkpt lat="47.9117" lon="7.12695">
        <ele>1011</ele>
        <time>2021-07-11T08:29:36.000Z</time>
      </trkpt>
      <trkpt lat="47.91169" lon="7.12693">
        <ele>1011.4000244141</ele>
        <time>2021-07-11T08:29:37.000Z</time>
      </trkpt>
      <trkpt lat="47.91167" lon="7.12691">
        <ele>1012</ele>
        <time>2021-07-11T08:29:38.000Z</time>
      </trkpt>
      <trkpt lat="47.91158" lon="7.1269">
        <ele>1012.4000244141</ele>
        <time>2021-07-11T08:29:43.000Z</time>
      </trkpt>
      <trkpt lat="47.91156" lon="7.1269">
        <ele>1012.799987793</ele>
        <time>2021-07-11T08:29:44.000Z</time>
      </trkpt>
      <trkpt lat="47.91154" lon="7.1269">
        <ele>1013.200012207</ele>
        <time>2021-07-11T08:29:45.000Z</time>
      </trkpt>
      <trkpt lat="47.91151" lon="7.12689">
        <ele>1013.5999755859</ele>
        <time>2021-07-11T08:29:46.000Z</time>
      </trkpt>
      <trkpt lat="47.91149" lon="7.12689">
        <ele>1014</ele>
        <time>2021-07-11T08:29:47.000Z</time>
      </trkpt>
      <trkpt lat="47.91145" lon="7.12689">
        <ele>1014</ele>
        <time>2021-07-11T08:29:49.000Z</time>
      </trkpt>
      <trkpt lat="47.91131" lon="7.12688">
        <ele>1014</ele>
        <time>2021-07-11T08:29:55.000Z</time>
      </trkpt>
      <trkpt lat="47.91119" lon="7.1268">
        <ele>1014.4000244141</ele>
        <time>2021-07-11T08:30:01.000Z</time>
      </trkpt>
      <trkpt lat="47.91117" lon="7.1268">
        <ele>1014.799987793</ele>
        <time>2021-07-11T08:30:02.000Z</time>
      </trkpt>
      <trkpt lat="47.91115" lon="7.12679">
        <ele>1015.200012207</ele>
        <time>2021-07-11T08:30:03.000Z</time>
      </trkpt>
      <trkpt lat="47.91113" lon="7.12679">
        <ele>1015.5999755859</ele>
        <time>2021-07-11T08:30:04.000Z</time>
      </trkpt>
      <trkpt lat="47.91111" lon="7.12678">
        <ele>1016</ele>
        <time>2021-07-11T08:30:05.000Z</time>
      </trkpt>
      <trkpt lat="47.91109" lon="7.12677">
        <ele>1016</ele>
        <time>2021-07-11T08:30:07.000Z</time>
      </trkpt>
      <trkpt lat="47.91101" lon="7.12673">
        <ele>1016</ele>
        <time>2021-07-11T08:30:12.000Z</time>
      </trkpt>
      <trkpt lat="47.91096" lon="7.1267">
        <ele>1016.4000244141</ele>
        <time>2021-07-11T08:30:14.000Z</time>
      </trkpt>
      <trkpt lat="47.91094" lon="7.12669">
        <ele>1016.799987793</ele>
        <time>2021-07-11T08:30:15.000Z</time>
      </trkpt>
      <trkpt lat="47.91091" lon="7.12669">
        <ele>1017.4000244141</ele>
        <time>2021-07-11T08:30:16.000Z</time>
      </trkpt>
      <trkpt lat="47.91089" lon="7.12668">
        <ele>1017.799987793</ele>
        <time>2021-07-11T08:30:17.000Z</time>
      </trkpt>
      <trkpt lat="47.91088" lon="7.12669">
        <ele>1018.200012207</ele>
        <time>2021-07-11T08:30:18.000Z</time>
      </trkpt>
      <trkpt lat="47.91085" lon="7.12667">
        <ele>1018.200012207</ele>
        <time>2021-07-11T08:30:19.000Z</time>
      </trkpt>
      <trkpt lat="47.91077" lon="7.12659">
        <ele>1018.200012207</ele>
        <time>2021-07-11T08:30:25.000Z</time>
      </trkpt>
      <trkpt lat="47.91079" lon="7.12657">
        <ele>1018.200012207</ele>
        <time>2021-07-11T08:30:27.000Z</time>
      </trkpt>
      <trkpt lat="47.91088" lon="7.12656">
        <ele>1018.200012207</ele>
        <time>2021-07-11T08:30:30.000Z</time>
      </trkpt>
      <trkpt lat="47.91091" lon="7.12655">
        <ele>1018.200012207</ele>
        <time>2021-07-11T08:30:33.000Z</time>
      </trkpt>
      <trkpt lat="47.91093" lon="7.12655">
        <ele>1018.200012207</ele>
        <time>2021-07-11T08:30:36.000Z</time>
      </trkpt>
      <trkpt lat="47.91094" lon="7.12655">
        <ele>1018.200012207</ele>
        <time>2021-07-11T08:30:38.000Z</time>
      </trkpt>
      <trkpt lat="47.91126" lon="7.1267">
        <ele>1020.4000244141</ele>
        <time>2021-07-11T08:32:08.000Z</time>
      </trkpt>
      <trkpt lat="47.91131" lon="7.12667">
        <ele>1020.799987793</ele>
        <time>2021-07-11T08:32:10.000Z</time>
      </trkpt>
      <trkpt lat="47.91134" lon="7.12667">
        <ele>1021.200012207</ele>
        <time>2021-07-11T08:32:11.000Z</time>
      </trkpt>
      <trkpt lat="47.91135" lon="7.12666">
        <ele>1021.5999755859</ele>
        <time>2021-07-11T08:32:12.000Z</time>
      </trkpt>
      <trkpt lat="47.91137" lon="7.12666">
        <ele>1022</ele>
        <time>2021-07-11T08:32:13.000Z</time>
      </trkpt>
      <trkpt lat="47.9114" lon="7.12665">
        <ele>1022.4000244141</ele>
        <time>2021-07-11T08:32:14.000Z</time>
      </trkpt>
      <trkpt lat="47.91151" lon="7.12661">
        <ele>1022.799987793</ele>
        <time>2021-07-11T08:32:18.000Z</time>
      </trkpt>
      <trkpt lat="47.91152" lon="7.1266">
        <ele>1023.200012207</ele>
        <time>2021-07-11T08:32:19.000Z</time>
      </trkpt>
      <trkpt lat="47.91154" lon="7.1266">
        <ele>1023.5999755859</ele>
        <time>2021-07-11T08:32:20.000Z</time>
      </trkpt>
      <trkpt lat="47.91155" lon="7.1266">
        <ele>1024</ele>
        <time>2021-07-11T08:32:21.000Z</time>
      </trkpt>
      <trkpt lat="47.91157" lon="7.12659">
        <ele>1024.4000244141</ele>
        <time>2021-07-11T08:32:22.000Z</time>
      </trkpt>
      <trkpt lat="47.91165" lon="7.12658">
        <ele>1024.4000244141</ele>
        <time>2021-07-11T08:32:26.000Z</time>
      </trkpt>
      <trkpt lat="47.91166" lon="7.12657">
        <ele>1025</ele>
        <time>2021-07-11T08:32:27.000Z</time>
      </trkpt>
      <trkpt lat="47.91169" lon="7.12657">
        <ele>1025.4000244141</ele>
        <time>2021-07-11T08:32:28.000Z</time>
      </trkpt>
      <trkpt lat="47.9117" lon="7.12656">
        <ele>1025.8000488281</ele>
        <time>2021-07-11T08:32:29.000Z</time>
      </trkpt>
      <trkpt lat="47.91172" lon="7.12655">
        <ele>1026.1999511719</ele>
        <time>2021-07-11T08:32:30.000Z</time>
      </trkpt>
      <trkpt lat="47.91174" lon="7.12654">
        <ele>1026.8000488281</ele>
        <time>2021-07-11T08:32:31.000Z</time>
      </trkpt>
      <trkpt lat="47.91177" lon="7.12652">
        <ele>1026.8000488281</ele>
        <time>2021-07-11T08:32:33.000Z</time>
      </trkpt>
      <trkpt lat="47.91183" lon="7.12646">
        <ele>1027.1999511719</ele>
        <time>2021-07-11T08:32:36.000Z</time>
      </trkpt>
      <trkpt lat="47.91184" lon="7.12644">
        <ele>1027.5999755859</ele>
        <time>2021-07-11T08:32:37.000Z</time>
      </trkpt>
      <trkpt lat="47.91185" lon="7.12642">
        <ele>1028.1999511719</ele>
        <time>2021-07-11T08:32:38.000Z</time>
      </trkpt>
      <trkpt lat="47.91187" lon="7.12641">
        <ele>1028.5999755859</ele>
        <time>2021-07-11T08:32:39.000Z</time>
      </trkpt>
      <trkpt lat="47.91188" lon="7.12639">
        <ele>1029</ele>
        <time>2021-07-11T08:32:40.000Z</time>
      </trkpt>
      <trkpt lat="47.91195" lon="7.12632">
        <ele>1029.4000244141</ele>
        <time>2021-07-11T08:32:45.000Z</time>
      </trkpt>
      <trkpt lat="47.91196" lon="7.1263">
        <ele>1030</ele>
        <time>2021-07-11T08:32:46.000Z</time>
      </trkpt>
      <trkpt lat="47.91198" lon="7.1263">
        <ele>1030.4000244141</ele>
        <time>2021-07-11T08:32:47.000Z</time>
      </trkpt>
      <trkpt lat="47.91199" lon="7.12628">
        <ele>1030.8000488281</ele>
        <time>2021-07-11T08:32:48.000Z</time>
      </trkpt>
      <trkpt lat="47.91201" lon="7.12626">
        <ele>1031.1999511719</ele>
        <time>2021-07-11T08:32:49.000Z</time>
      </trkpt>
      <trkpt lat="47.91206" lon="7.12622">
        <ele>1031.5999755859</ele>
        <time>2021-07-11T08:32:52.000Z</time>
      </trkpt>
      <trkpt lat="47.91208" lon="7.1262">
        <ele>1032</ele>
        <time>2021-07-11T08:32:53.000Z</time>
      </trkpt>
      <trkpt lat="47.9121" lon="7.1262">
        <ele>1032.4000244141</ele>
        <time>2021-07-11T08:32:54.000Z</time>
      </trkpt>
      <trkpt lat="47.91211" lon="7.12619">
        <ele>1032.8000488281</ele>
        <time>2021-07-11T08:32:55.000Z</time>
      </trkpt>
      <trkpt lat="47.91213" lon="7.12617">
        <ele>1033.1999511719</ele>
        <time>2021-07-11T08:32:56.000Z</time>
      </trkpt>
      <trkpt lat="47.91217" lon="7.12612">
        <ele>1033.1999511719</ele>
        <time>2021-07-11T08:33:00.000Z</time>
      </trkpt>
      <trkpt lat="47.91218" lon="7.12611">
        <ele>1033.8000488281</ele>
        <time>2021-07-11T08:33:01.000Z</time>
      </trkpt>
      <trkpt lat="47.9122" lon="7.12609">
        <ele>1034.1999511719</ele>
        <time>2021-07-11T08:33:02.000Z</time>
      </trkpt>
      <trkpt lat="47.91222" lon="7.12608">
        <ele>1034.5999755859</ele>
        <time>2021-07-11T08:33:03.000Z</time>
      </trkpt>
      <trkpt lat="47.91223" lon="7.12607">
        <ele>1035</ele>
        <time>2021-07-11T08:33:04.000Z</time>
      </trkpt>
      <trkpt lat="47.91225" lon="7.12606">
        <ele>1035.4000244141</ele>
        <time>2021-07-11T08:33:05.000Z</time>
      </trkpt>
      <trkpt lat="47.91226" lon="7.12604">
        <ele>1035.4000244141</ele>
        <time>2021-07-11T08:33:06.000Z</time>
      </trkpt>
      <trkpt lat="47.91235" lon="7.12596">
        <ele>1036</ele>
        <time>2021-07-11T08:33:11.000Z</time>
      </trkpt>
      <trkpt lat="47.91236" lon="7.12594">
        <ele>1036.4000244141</ele>
        <time>2021-07-11T08:33:12.000Z</time>
      </trkpt>
      <trkpt lat="47.91238" lon="7.12592">
        <ele>1036.8000488281</ele>
        <time>2021-07-11T08:33:13.000Z</time>
      </trkpt>
      <trkpt lat="47.91239" lon="7.1259">
        <ele>1037.1999511719</ele>
        <time>2021-07-11T08:33:14.000Z</time>
      </trkpt>
      <trkpt lat="47.91241" lon="7.12587">
        <ele>1037.8000488281</ele>
        <time>2021-07-11T08:33:15.000Z</time>
      </trkpt>
      <trkpt lat="47.91246" lon="7.12575">
        <ele>1037.8000488281</ele>
        <time>2021-07-11T08:33:20.000Z</time>
      </trkpt>
      <trkpt lat="47.91247" lon="7.12573">
        <ele>1038.1999511719</ele>
        <time>2021-07-11T08:33:21.000Z</time>
      </trkpt>
      <trkpt lat="47.91248" lon="7.12572">
        <ele>1038.5999755859</ele>
        <time>2021-07-11T08:33:22.000Z</time>
      </trkpt>
      <trkpt lat="47.91249" lon="7.12569">
        <ele>1039</ele>
        <time>2021-07-11T08:33:23.000Z</time>
      </trkpt>
      <trkpt lat="47.9125" lon="7.12567">
        <ele>1039.5999755859</ele>
        <time>2021-07-11T08:33:24.000Z</time>
      </trkpt>
      <trkpt lat="47.91251" lon="7.12565">
        <ele>1040</ele>
        <time>2021-07-11T08:33:25.000Z</time>
      </trkpt>
      <trkpt lat="47.91253" lon="7.12562">
        <ele>1040</ele>
        <time>2021-07-11T08:33:27.000Z</time>
      </trkpt>
      <trkpt lat="47.91255" lon="7.12558">
        <ele>1040.4000244141</ele>
        <time>2021-07-11T08:33:29.000Z</time>
      </trkpt>
      <trkpt lat="47.91255" lon="7.12555">
        <ele>1040.8000488281</ele>
        <time>2021-07-11T08:33:30.000Z</time>
      </trkpt>
      <trkpt lat="47.91256" lon="7.12553">
        <ele>1041.8000488281</ele>
        <time>2021-07-11T08:33:31.000Z</time>
      </trkpt>
      <trkpt lat="47.91256" lon="7.12551">
        <ele>1042.1999511719</ele>
        <time>2021-07-11T08:33:32.000Z</time>
      </trkpt>
      <trkpt lat="47.91258" lon="7.12544">
        <ele>1042.1999511719</ele>
        <time>2021-07-11T08:33:35.000Z</time>
      </trkpt>
      <trkpt lat="47.9126" lon="7.1254">
        <ele>1042.5999755859</ele>
        <time>2021-07-11T08:33:37.000Z</time>
      </trkpt>
      <trkpt lat="47.91261" lon="7.12538">
        <ele>1043</ele>
        <time>2021-07-11T08:33:38.000Z</time>
      </trkpt>
      <trkpt lat="47.91261" lon="7.12537">
        <ele>1043.5999755859</ele>
        <time>2021-07-11T08:33:39.000Z</time>
      </trkpt>
      <trkpt lat="47.91261" lon="7.12535">
        <ele>1044</ele>
        <time>2021-07-11T08:33:40.000Z</time>
      </trkpt>
      <trkpt lat="47.91262" lon="7.12534">
        <ele>1044.4000244141</ele>
        <time>2021-07-11T08:33:42.000Z</time>
      </trkpt>
      <trkpt lat="47.91264" lon="7.1253">
        <ele>1044.4000244141</ele>
        <time>2021-07-11T08:33:44.000Z</time>
      </trkpt>
      <trkpt lat="47.91266" lon="7.12525">
        <ele>1044.8000488281</ele>
        <time>2021-07-11T08:33:47.000Z</time>
      </trkpt>
      <trkpt lat="47.91267" lon="7.12523">
        <ele>1045.1999511719</ele>
        <time>2021-07-11T08:33:48.000Z</time>
      </trkpt>
      <trkpt lat="47.91268" lon="7.12522">
        <ele>1045.8000488281</ele>
        <time>2021-07-11T08:33:49.000Z</time>
      </trkpt>
      <trkpt lat="47.91269" lon="7.1252">
        <ele>1046.1999511719</ele>
        <time>2021-07-11T08:33:50.000Z</time>
      </trkpt>
      <trkpt lat="47.9127" lon="7.12518">
        <ele>1046.5999755859</ele>
        <time>2021-07-11T08:33:51.000Z</time>
      </trkpt>
      <trkpt lat="47.91274" lon="7.12512">
        <ele>1047</ele>
        <time>2021-07-11T08:33:55.000Z</time>
      </trkpt>
      <trkpt lat="47.91275" lon="7.12511">
        <ele>1047.5999755859</ele>
        <time>2021-07-11T08:33:56.000Z</time>
      </trkpt>
      <trkpt lat="47.91276" lon="7.1251">
        <ele>1048</ele>
        <time>2021-07-11T08:33:57.000Z</time>
      </trkpt>
      <trkpt lat="47.91277" lon="7.12509">
        <ele>1048.4000244141</ele>
        <time>2021-07-11T08:33:58.000Z</time>
      </trkpt>
      <trkpt lat="47.91278" lon="7.12507">
        <ele>1048.8000488281</ele>
        <time>2021-07-11T08:33:59.000Z</time>
      </trkpt>
      <trkpt lat="47.91284" lon="7.12501">
        <ele>1049.1999511719</ele>
        <time>2021-07-11T08:34:03.000Z</time>
      </trkpt>
      <trkpt lat="47.91285" lon="7.12499">
        <ele>1049.5999755859</ele>
        <time>2021-07-11T08:34:04.000Z</time>
      </trkpt>
      <trkpt lat="47.91287" lon="7.12498">
        <ele>1050</ele>
        <time>2021-07-11T08:34:05.000Z</time>
      </trkpt>
      <trkpt lat="47.91288" lon="7.12496">
        <ele>1050.4000244141</ele>
        <time>2021-07-11T08:34:06.000Z</time>
      </trkpt>
      <trkpt lat="47.91289" lon="7.12494">
        <ele>1050.8000488281</ele>
        <time>2021-07-11T08:34:07.000Z</time>
      </trkpt>
      <trkpt lat="47.91294" lon="7.12488">
        <ele>1050.8000488281</ele>
        <time>2021-07-11T08:34:11.000Z</time>
      </trkpt>
      <trkpt lat="47.913" lon="7.1248">
        <ele>1051.1999511719</ele>
        <time>2021-07-11T08:34:15.000Z</time>
      </trkpt>
      <trkpt lat="47.91301" lon="7.12477">
        <ele>1051.5999755859</ele>
        <time>2021-07-11T08:34:16.000Z</time>
      </trkpt>
      <trkpt lat="47.91302" lon="7.12475">
        <ele>1052</ele>
        <time>2021-07-11T08:34:17.000Z</time>
      </trkpt>
      <trkpt lat="47.91303" lon="7.12473">
        <ele>1052.5999755859</ele>
        <time>2021-07-11T08:34:18.000Z</time>
      </trkpt>
      <trkpt lat="47.91304" lon="7.12471">
        <ele>1053</ele>
        <time>2021-07-11T08:34:19.000Z</time>
      </trkpt>
      <trkpt lat="47.91309" lon="7.12464">
        <ele>1053</ele>
        <time>2021-07-11T08:34:24.000Z</time>
      </trkpt>
      <trkpt lat="47.91312" lon="7.12459">
        <ele>1053.8000488281</ele>
        <time>2021-07-11T08:34:27.000Z</time>
      </trkpt>
      <trkpt lat="47.91313" lon="7.12458">
        <ele>1054.1999511719</ele>
        <time>2021-07-11T08:34:28.000Z</time>
      </trkpt>
      <trkpt lat="47.91314" lon="7.12456">
        <ele>1054.5999755859</ele>
        <time>2021-07-11T08:34:29.000Z</time>
      </trkpt>
      <trkpt lat="47.91315" lon="7.12455">
        <ele>1055</ele>
        <time>2021-07-11T08:34:30.000Z</time>
      </trkpt>
      <trkpt lat="47.91316" lon="7.12452">
        <ele>1055</ele>
        <time>2021-07-11T08:34:31.000Z</time>
      </trkpt>
      <trkpt lat="47.91321" lon="7.12441">
        <ele>1055.5999755859</ele>
        <time>2021-07-11T08:34:37.000Z</time>
      </trkpt>
      <trkpt lat="47.91322" lon="7.12439">
        <ele>1056</ele>
        <time>2021-07-11T08:34:38.000Z</time>
      </trkpt>
      <trkpt lat="47.91323" lon="7.12437">
        <ele>1056.4000244141</ele>
        <time>2021-07-11T08:34:39.000Z</time>
      </trkpt>
      <trkpt lat="47.91324" lon="7.12435">
        <ele>1056.8000488281</ele>
        <time>2021-07-11T08:34:40.000Z</time>
      </trkpt>
      <trkpt lat="47.91324" lon="7.12434">
        <ele>1057.1999511719</ele>
        <time>2021-07-11T08:34:41.000Z</time>
      </trkpt>
      <trkpt lat="47.9133" lon="7.12421">
        <ele>1057.1999511719</ele>
        <time>2021-07-11T08:34:47.000Z</time>
      </trkpt>
      <trkpt lat="47.91331" lon="7.12419">
        <ele>1057.5999755859</ele>
        <time>2021-07-11T08:34:48.000Z</time>
      </trkpt>
      <trkpt lat="47.91332" lon="7.12416">
        <ele>1058</ele>
        <time>2021-07-11T08:34:49.000Z</time>
      </trkpt>
      <trkpt lat="47.91332" lon="7.12414">
        <ele>1058.5999755859</ele>
        <time>2021-07-11T08:34:50.000Z</time>
      </trkpt>
      <trkpt lat="47.91333" lon="7.12412">
        <ele>1059.4000244141</ele>
        <time>2021-07-11T08:34:51.000Z</time>
      </trkpt>
      <trkpt lat="47.91335" lon="7.12407">
        <ele>1059.4000244141</ele>
        <time>2021-07-11T08:34:53.000Z</time>
      </trkpt>
      <trkpt lat="47.91336" lon="7.12401">
        <ele>1059.8000488281</ele>
        <time>2021-07-11T08:34:56.000Z</time>
      </trkpt>
      <trkpt lat="47.91337" lon="7.12398">
        <ele>1060.1999511719</ele>
        <time>2021-07-11T08:34:57.000Z</time>
      </trkpt>
      <trkpt lat="47.91338" lon="7.12396">
        <ele>1060.5999755859</ele>
        <time>2021-07-11T08:34:58.000Z</time>
      </trkpt>
      <trkpt lat="47.91338" lon="7.12395">
        <ele>1061.1999511719</ele>
        <time>2021-07-11T08:34:59.000Z</time>
      </trkpt>
      <trkpt lat="47.91339" lon="7.12392">
        <ele>1061.5999755859</ele>
        <time>2021-07-11T08:35:00.000Z</time>
      </trkpt>
      <trkpt lat="47.91344" lon="7.12379">
        <ele>1062</ele>
        <time>2021-07-11T08:35:06.000Z</time>
      </trkpt>
      <trkpt lat="47.91345" lon="7.12377">
        <ele>1062.4000244141</ele>
        <time>2021-07-11T08:35:07.000Z</time>
      </trkpt>
      <trkpt lat="47.91345" lon="7.12375">
        <ele>1062.8000488281</ele>
        <time>2021-07-11T08:35:08.000Z</time>
      </trkpt>
      <trkpt lat="47.91346" lon="7.12373">
        <ele>1063.1999511719</ele>
        <time>2021-07-11T08:35:09.000Z</time>
      </trkpt>
      <trkpt lat="47.91347" lon="7.12371">
        <ele>1063.8000488281</ele>
        <time>2021-07-11T08:35:10.000Z</time>
      </trkpt>
      <trkpt lat="47.91349" lon="7.12364">
        <ele>1063.8000488281</ele>
        <time>2021-07-11T08:35:13.000Z</time>
      </trkpt>
      <trkpt lat="47.91351" lon="7.1236">
        <ele>1064.5999755859</ele>
        <time>2021-07-11T08:35:15.000Z</time>
      </trkpt>
      <trkpt lat="47.91353" lon="7.12355">
        <ele>1065.4000244141</ele>
        <time>2021-07-11T08:35:17.000Z</time>
      </trkpt>
      <trkpt lat="47.91354" lon="7.12353">
        <ele>1066</ele>
        <time>2021-07-11T08:35:18.000Z</time>
      </trkpt>
      <trkpt lat="47.91355" lon="7.1235">
        <ele>1066</ele>
        <time>2021-07-11T08:35:19.000Z</time>
      </trkpt>
      <trkpt lat="47.91359" lon="7.12339">
        <ele>1066.4000244141</ele>
        <time>2021-07-11T08:35:24.000Z</time>
      </trkpt>
      <trkpt lat="47.91361" lon="7.12337">
        <ele>1066.8000488281</ele>
        <time>2021-07-11T08:35:25.000Z</time>
      </trkpt>
      <trkpt lat="47.91362" lon="7.12334">
        <ele>1067.1999511719</ele>
        <time>2021-07-11T08:35:26.000Z</time>
      </trkpt>
      <trkpt lat="47.91363" lon="7.12332">
        <ele>1067.5999755859</ele>
        <time>2021-07-11T08:35:27.000Z</time>
      </trkpt>
      <trkpt lat="47.91363" lon="7.12329">
        <ele>1068.1999511719</ele>
        <time>2021-07-11T08:35:28.000Z</time>
      </trkpt>
      <trkpt lat="47.91366" lon="7.1232">
        <ele>1068.1999511719</ele>
        <time>2021-07-11T08:35:33.000Z</time>
      </trkpt>
      <trkpt lat="47.91366" lon="7.12316">
        <ele>1068.5999755859</ele>
        <time>2021-07-11T08:35:35.000Z</time>
      </trkpt>
      <trkpt lat="47.91367" lon="7.12313">
        <ele>1069</ele>
        <time>2021-07-11T08:35:36.000Z</time>
      </trkpt>
      <trkpt lat="47.91368" lon="7.12311">
        <ele>1069.4000244141</ele>
        <time>2021-07-11T08:35:37.000Z</time>
      </trkpt>
      <trkpt lat="47.91369" lon="7.12309">
        <ele>1069.8000488281</ele>
        <time>2021-07-11T08:35:38.000Z</time>
      </trkpt>
      <trkpt lat="47.9137" lon="7.12307">
        <ele>1070.1999511719</ele>
        <time>2021-07-11T08:35:39.000Z</time>
      </trkpt>
      <trkpt lat="47.91371" lon="7.12306">
        <ele>1070.1999511719</ele>
        <time>2021-07-11T08:35:40.000Z</time>
      </trkpt>
      <trkpt lat="47.91378" lon="7.12295">
        <ele>1070.8000488281</ele>
        <time>2021-07-11T08:35:46.000Z</time>
      </trkpt>
      <trkpt lat="47.91379" lon="7.12293">
        <ele>1071.1999511719</ele>
        <time>2021-07-11T08:35:47.000Z</time>
      </trkpt>
      <trkpt lat="47.9138" lon="7.12292">
        <ele>1071.5999755859</ele>
        <time>2021-07-11T08:35:48.000Z</time>
      </trkpt>
      <trkpt lat="47.91381" lon="7.1229">
        <ele>1072</ele>
        <time>2021-07-11T08:35:49.000Z</time>
      </trkpt>
      <trkpt lat="47.91382" lon="7.12288">
        <ele>1072.4000244141</ele>
        <time>2021-07-11T08:35:50.000Z</time>
      </trkpt>
      <trkpt lat="47.91386" lon="7.12281">
        <ele>1072.8000488281</ele>
        <time>2021-07-11T08:35:55.000Z</time>
      </trkpt>
      <trkpt lat="47.91386" lon="7.1228">
        <ele>1073.1999511719</ele>
        <time>2021-07-11T08:35:56.000Z</time>
      </trkpt>
      <trkpt lat="47.91387" lon="7.12277">
        <ele>1073.5999755859</ele>
        <time>2021-07-11T08:35:57.000Z</time>
      </trkpt>
      <trkpt lat="47.91388" lon="7.12275">
        <ele>1074</ele>
        <time>2021-07-11T08:35:58.000Z</time>
      </trkpt>
      <trkpt lat="47.9139" lon="7.12272">
        <ele>1074.4000244141</ele>
        <time>2021-07-11T08:35:59.000Z</time>
      </trkpt>
      <trkpt lat="47.91395" lon="7.12263">
        <ele>1074.4000244141</ele>
        <time>2021-07-11T08:36:03.000Z</time>
      </trkpt>
      <trkpt lat="47.91396" lon="7.12259">
        <ele>1075.4000244141</ele>
        <time>2021-07-11T08:36:05.000Z</time>
      </trkpt>
      <trkpt lat="47.91397" lon="7.12256">
        <ele>1075.8000488281</ele>
        <time>2021-07-11T08:36:06.000Z</time>
      </trkpt>
      <trkpt lat="47.91398" lon="7.12254">
        <ele>1076.4000244141</ele>
        <time>2021-07-11T08:36:07.000Z</time>
      </trkpt>
      <trkpt lat="47.91398" lon="7.12251">
        <ele>1076.8000488281</ele>
        <time>2021-07-11T08:36:08.000Z</time>
      </trkpt>
      <trkpt lat="47.91399" lon="7.12249">
        <ele>1076.8000488281</ele>
        <time>2021-07-11T08:36:09.000Z</time>
      </trkpt>
      <trkpt lat="47.914" lon="7.12242">
        <ele>1077.1999511719</ele>
        <time>2021-07-11T08:36:12.000Z</time>
      </trkpt>
      <trkpt lat="47.914" lon="7.1224">
        <ele>1077.5999755859</ele>
        <time>2021-07-11T08:36:13.000Z</time>
      </trkpt>
      <trkpt lat="47.914" lon="7.12238">
        <ele>1078</ele>
        <time>2021-07-11T08:36:14.000Z</time>
      </trkpt>
      <trkpt lat="47.914" lon="7.12236">
        <ele>1078.4000244141</ele>
        <time>2021-07-11T08:36:15.000Z</time>
      </trkpt>
      <trkpt lat="47.91401" lon="7.12234">
        <ele>1078.8000488281</ele>
        <time>2021-07-11T08:36:16.000Z</time>
      </trkpt>
      <trkpt lat="47.91406" lon="7.12224">
        <ele>1078.8000488281</ele>
        <time>2021-07-11T08:36:22.000Z</time>
      </trkpt>
      <trkpt lat="47.91406" lon="7.12223">
        <ele>1079.1999511719</ele>
        <time>2021-07-11T08:36:23.000Z</time>
      </trkpt>
      <trkpt lat="47.91407" lon="7.12222">
        <ele>1079.5999755859</ele>
        <time>2021-07-11T08:36:24.000Z</time>
      </trkpt>
      <trkpt lat="47.91408" lon="7.1222">
        <ele>1080</ele>
        <time>2021-07-11T08:36:25.000Z</time>
      </trkpt>
      <trkpt lat="47.91409" lon="7.12217">
        <ele>1080.5999755859</ele>
        <time>2021-07-11T08:36:26.000Z</time>
      </trkpt>
      <trkpt lat="47.91409" lon="7.12215">
        <ele>1081</ele>
        <time>2021-07-11T08:36:27.000Z</time>
      </trkpt>
      <trkpt lat="47.9141" lon="7.12212">
        <ele>1081</ele>
        <time>2021-07-11T08:36:28.000Z</time>
      </trkpt>
      <trkpt lat="47.91412" lon="7.12203">
        <ele>1081.4000244141</ele>
        <time>2021-07-11T08:36:31.000Z</time>
      </trkpt>
      <trkpt lat="47.91413" lon="7.122">
        <ele>1081.8000488281</ele>
        <time>2021-07-11T08:36:32.000Z</time>
      </trkpt>
      <trkpt lat="47.91414" lon="7.12196">
        <ele>1082.1999511719</ele>
        <time>2021-07-11T08:36:33.000Z</time>
      </trkpt>
      <trkpt lat="47.91415" lon="7.12194">
        <ele>1082.5999755859</ele>
        <time>2021-07-11T08:36:34.000Z</time>
      </trkpt>
      <trkpt lat="47.91416" lon="7.12192">
        <ele>1083</ele>
        <time>2021-07-11T08:36:35.000Z</time>
      </trkpt>
      <trkpt lat="47.91422" lon="7.12177">
        <ele>1083.5999755859</ele>
        <time>2021-07-11T08:36:42.000Z</time>
      </trkpt>
      <trkpt lat="47.91423" lon="7.12174">
        <ele>1084</ele>
        <time>2021-07-11T08:36:43.000Z</time>
      </trkpt>
      <trkpt lat="47.91425" lon="7.12171">
        <ele>1084.4000244141</ele>
        <time>2021-07-11T08:36:44.000Z</time>
      </trkpt>
      <trkpt lat="47.91426" lon="7.12168">
        <ele>1084.8000488281</ele>
        <time>2021-07-11T08:36:45.000Z</time>
      </trkpt>
      <trkpt lat="47.91428" lon="7.12166">
        <ele>1085.1999511719</ele>
        <time>2021-07-11T08:36:46.000Z</time>
      </trkpt>
      <trkpt lat="47.9143" lon="7.1216">
        <ele>1085.1999511719</ele>
        <time>2021-07-11T08:36:49.000Z</time>
      </trkpt>
      <trkpt lat="47.91431" lon="7.12156">
        <ele>1085.5999755859</ele>
        <time>2021-07-11T08:36:51.000Z</time>
      </trkpt>
      <trkpt lat="47.91432" lon="7.12154">
        <ele>1086</ele>
        <time>2021-07-11T08:36:52.000Z</time>
      </trkpt>
      <trkpt lat="47.91432" lon="7.12151">
        <ele>1086.4000244141</ele>
        <time>2021-07-11T08:36:53.000Z</time>
      </trkpt>
      <trkpt lat="47.91433" lon="7.12149">
        <ele>1086.8000488281</ele>
        <time>2021-07-11T08:36:54.000Z</time>
      </trkpt>
      <trkpt lat="47.91434" lon="7.12146">
        <ele>1087.1999511719</ele>
        <time>2021-07-11T08:36:55.000Z</time>
      </trkpt>
      <trkpt lat="47.9146" lon="7.12144">
        <ele>1087.5999755859</ele>
        <time>2021-07-11T08:37:00.000Z</time>
      </trkpt>
      <trkpt lat="47.91463" lon="7.12144">
        <ele>1088.1999511719</ele>
        <time>2021-07-11T08:37:01.000Z</time>
      </trkpt>
      <trkpt lat="47.91465" lon="7.12141">
        <ele>1088.5999755859</ele>
        <time>2021-07-11T08:37:02.000Z</time>
      </trkpt>
      <trkpt lat="47.91467" lon="7.12139">
        <ele>1089</ele>
        <time>2021-07-11T08:37:03.000Z</time>
      </trkpt>
      <trkpt lat="47.91469" lon="7.12137">
        <ele>1089.4000244141</ele>
        <time>2021-07-11T08:37:04.000Z</time>
      </trkpt>
      <trkpt lat="47.9147" lon="7.12134">
        <ele>1089.4000244141</ele>
        <time>2021-07-11T08:37:05.000Z</time>
      </trkpt>
      <trkpt lat="47.91474" lon="7.12128">
        <ele>1089.4000244141</ele>
        <time>2021-07-11T08:37:08.000Z</time>
      </trkpt>
      <trkpt lat="47.91478" lon="7.1212">
        <ele>1089.4000244141</ele>
        <time>2021-07-11T08:37:12.000Z</time>
      </trkpt>
      <trkpt lat="47.91479" lon="7.12118">
        <ele>1089.8000488281</ele>
        <time>2021-07-11T08:37:13.000Z</time>
      </trkpt>
      <trkpt lat="47.9148" lon="7.12117">
        <ele>1090.1999511719</ele>
        <time>2021-07-11T08:37:14.000Z</time>
      </trkpt>
      <trkpt lat="47.91482" lon="7.12115">
        <ele>1090.5999755859</ele>
        <time>2021-07-11T08:37:15.000Z</time>
      </trkpt>
      <trkpt lat="47.91483" lon="7.12112">
        <ele>1091</ele>
        <time>2021-07-11T08:37:16.000Z</time>
      </trkpt>
      <trkpt lat="47.91484" lon="7.1211">
        <ele>1091.4000244141</ele>
        <time>2021-07-11T08:37:17.000Z</time>
      </trkpt>
      <trkpt lat="47.91487" lon="7.12106">
        <ele>1091.4000244141</ele>
        <time>2021-07-11T08:37:19.000Z</time>
      </trkpt>
      <trkpt lat="47.91491" lon="7.12099">
        <ele>1091.8000488281</ele>
        <time>2021-07-11T08:37:22.000Z</time>
      </trkpt>
      <trkpt lat="47.91491" lon="7.12097">
        <ele>1092.1999511719</ele>
        <time>2021-07-11T08:37:23.000Z</time>
      </trkpt>
      <trkpt lat="47.91493" lon="7.12096">
        <ele>1092.5999755859</ele>
        <time>2021-07-11T08:37:24.000Z</time>
      </trkpt>
      <trkpt lat="47.91494" lon="7.12094">
        <ele>1093.1999511719</ele>
        <time>2021-07-11T08:37:25.000Z</time>
      </trkpt>
      <trkpt lat="47.91495" lon="7.12092">
        <ele>1093.5999755859</ele>
        <time>2021-07-11T08:37:26.000Z</time>
      </trkpt>
      <trkpt lat="47.91499" lon="7.12081">
        <ele>1093.5999755859</ele>
        <time>2021-07-11T08:37:31.000Z</time>
      </trkpt>
      <trkpt lat="47.915" lon="7.12079">
        <ele>1094</ele>
        <time>2021-07-11T08:37:32.000Z</time>
      </trkpt>
      <trkpt lat="47.91501" lon="7.12077">
        <ele>1094.4000244141</ele>
        <time>2021-07-11T08:37:33.000Z</time>
      </trkpt>
      <trkpt lat="47.91502" lon="7.12074">
        <ele>1094.8000488281</ele>
        <time>2021-07-11T08:37:34.000Z</time>
      </trkpt>
      <trkpt lat="47.91503" lon="7.12072">
        <ele>1095.4000244141</ele>
        <time>2021-07-11T08:37:35.000Z</time>
      </trkpt>
      <trkpt lat="47.91504" lon="7.1207">
        <ele>1095.8000488281</ele>
        <time>2021-07-11T08:37:36.000Z</time>
      </trkpt>
      <trkpt lat="47.91506" lon="7.1206">
        <ele>1096.1999511719</ele>
        <time>2021-07-11T08:37:40.000Z</time>
      </trkpt>
      <trkpt lat="47.91506" lon="7.12058">
        <ele>1096.5999755859</ele>
        <time>2021-07-11T08:37:41.000Z</time>
      </trkpt>
      <trkpt lat="47.91507" lon="7.12055">
        <ele>1097</ele>
        <time>2021-07-11T08:37:42.000Z</time>
      </trkpt>
      <trkpt lat="47.91507" lon="7.12053">
        <ele>1097.5999755859</ele>
        <time>2021-07-11T08:37:43.000Z</time>
      </trkpt>
      <trkpt lat="47.91507" lon="7.12051">
        <ele>1098</ele>
        <time>2021-07-11T08:37:44.000Z</time>
      </trkpt>
      <trkpt lat="47.91508" lon="7.12039">
        <ele>1098.4000244141</ele>
        <time>2021-07-11T08:37:50.000Z</time>
      </trkpt>
      <trkpt lat="47.91508" lon="7.12037">
        <ele>1098.8000488281</ele>
        <time>2021-07-11T08:37:51.000Z</time>
      </trkpt>
      <trkpt lat="47.91508" lon="7.12034">
        <ele>1099.1999511719</ele>
        <time>2021-07-11T08:37:52.000Z</time>
      </trkpt>
      <trkpt lat="47.91507" lon="7.12032">
        <ele>1099.5999755859</ele>
        <time>2021-07-11T08:37:53.000Z</time>
      </trkpt>
      <trkpt lat="47.91507" lon="7.12029">
        <ele>1100</ele>
        <time>2021-07-11T08:37:54.000Z</time>
      </trkpt>
      <trkpt lat="47.91508" lon="7.12021">
        <ele>1100.4000244141</ele>
        <time>2021-07-11T08:37:58.000Z</time>
      </trkpt>
      <trkpt lat="47.91508" lon="7.12018">
        <ele>1100.8000488281</ele>
        <time>2021-07-11T08:37:59.000Z</time>
      </trkpt>
      <trkpt lat="47.91509" lon="7.12015">
        <ele>1101.1999511719</ele>
        <time>2021-07-11T08:38:00.000Z</time>
      </trkpt>
      <trkpt lat="47.91508" lon="7.12011">
        <ele>1102</ele>
        <time>2021-07-11T08:38:01.000Z</time>
      </trkpt>
      <trkpt lat="47.91507" lon="7.12006">
        <ele>1102</ele>
        <time>2021-07-11T08:38:03.000Z</time>
      </trkpt>
      <trkpt lat="47.91506" lon="7.12004">
        <ele>1102</ele>
        <time>2021-07-11T08:38:04.000Z</time>
      </trkpt>
      <trkpt lat="47.91503" lon="7.11999">
        <ele>1102.4000244141</ele>
        <time>2021-07-11T08:38:06.000Z</time>
      </trkpt>
      <trkpt lat="47.91502" lon="7.11997">
        <ele>1103</ele>
        <time>2021-07-11T08:38:07.000Z</time>
      </trkpt>
      <trkpt lat="47.91501" lon="7.11995">
        <ele>1103.4000244141</ele>
        <time>2021-07-11T08:38:08.000Z</time>
      </trkpt>
      <trkpt lat="47.915" lon="7.11993">
        <ele>1103.8000488281</ele>
        <time>2021-07-11T08:38:09.000Z</time>
      </trkpt>
      <trkpt lat="47.91499" lon="7.1199">
        <ele>1104.1999511719</ele>
        <time>2021-07-11T08:38:10.000Z</time>
      </trkpt>
      <trkpt lat="47.91498" lon="7.11989">
        <ele>1104.1999511719</ele>
        <time>2021-07-11T08:38:11.000Z</time>
      </trkpt>
      <trkpt lat="47.91493" lon="7.11976">
        <ele>1104.5999755859</ele>
        <time>2021-07-11T08:38:18.000Z</time>
      </trkpt>
      <trkpt lat="47.91491" lon="7.11974">
        <ele>1105</ele>
        <time>2021-07-11T08:38:19.000Z</time>
      </trkpt>
      <trkpt lat="47.91489" lon="7.11972">
        <ele>1105.4000244141</ele>
        <time>2021-07-11T08:38:20.000Z</time>
      </trkpt>
      <trkpt lat="47.91487" lon="7.11971">
        <ele>1106</ele>
        <time>2021-07-11T08:38:21.000Z</time>
      </trkpt>
      <trkpt lat="47.91485" lon="7.11969">
        <ele>1106.4000244141</ele>
        <time>2021-07-11T08:38:22.000Z</time>
      </trkpt>
      <trkpt lat="47.91483" lon="7.11965">
        <ele>1106.4000244141</ele>
        <time>2021-07-11T08:38:24.000Z</time>
      </trkpt>
      <trkpt lat="47.91479" lon="7.11959">
        <ele>1106.8000488281</ele>
        <time>2021-07-11T08:38:27.000Z</time>
      </trkpt>
      <trkpt lat="47.91478" lon="7.11957">
        <ele>1107.1999511719</ele>
        <time>2021-07-11T08:38:28.000Z</time>
      </trkpt>
      <trkpt lat="47.91478" lon="7.11956">
        <ele>1107.5999755859</ele>
        <time>2021-07-11T08:38:29.000Z</time>
      </trkpt>
      <trkpt lat="47.91476" lon="7.11955">
        <ele>1108</ele>
        <time>2021-07-11T08:38:30.000Z</time>
      </trkpt>
      <trkpt lat="47.91475" lon="7.11952">
        <ele>1108.4000244141</ele>
        <time>2021-07-11T08:38:32.000Z</time>
      </trkpt>
      <trkpt lat="47.91471" lon="7.11948">
        <ele>1108.8000488281</ele>
        <time>2021-07-11T08:38:36.000Z</time>
      </trkpt>
      <trkpt lat="47.9147" lon="7.11947">
        <ele>1109.4000244141</ele>
        <time>2021-07-11T08:38:37.000Z</time>
      </trkpt>
      <trkpt lat="47.91469" lon="7.11945">
        <ele>1109.8000488281</ele>
        <time>2021-07-11T08:38:38.000Z</time>
      </trkpt>
      <trkpt lat="47.91468" lon="7.11944">
        <ele>1110.5999755859</ele>
        <time>2021-07-11T08:38:39.000Z</time>
      </trkpt>
      <trkpt lat="47.91466" lon="7.1194">
        <ele>1110.5999755859</ele>
        <time>2021-07-11T08:38:41.000Z</time>
      </trkpt>
      <trkpt lat="47.91465" lon="7.11938">
        <ele>1110.5999755859</ele>
        <time>2021-07-11T08:38:42.000Z</time>
      </trkpt>
      <trkpt lat="47.91459" lon="7.11928">
        <ele>1111</ele>
        <time>2021-07-11T08:38:47.000Z</time>
      </trkpt>
      <trkpt lat="47.91458" lon="7.11927">
        <ele>1111.4000244141</ele>
        <time>2021-07-11T08:38:48.000Z</time>
      </trkpt>
      <trkpt lat="47.91457" lon="7.11925">
        <ele>1111.8000488281</ele>
        <time>2021-07-11T08:38:49.000Z</time>
      </trkpt>
      <trkpt lat="47.91456" lon="7.11923">
        <ele>1112.1999511719</ele>
        <time>2021-07-11T08:38:50.000Z</time>
      </trkpt>
      <trkpt lat="47.91456" lon="7.11921">
        <ele>1112.5999755859</ele>
        <time>2021-07-11T08:38:51.000Z</time>
      </trkpt>
      <trkpt lat="47.91453" lon="7.11913">
        <ele>1112.5999755859</ele>
        <time>2021-07-11T08:38:55.000Z</time>
      </trkpt>
      <trkpt lat="47.91451" lon="7.11905">
        <ele>1113</ele>
        <time>2021-07-11T08:38:59.000Z</time>
      </trkpt>
      <trkpt lat="47.91451" lon="7.11904">
        <ele>1113.4000244141</ele>
        <time>2021-07-11T08:39:00.000Z</time>
      </trkpt>
      <trkpt lat="47.91451" lon="7.11902">
        <ele>1114</ele>
        <time>2021-07-11T08:39:01.000Z</time>
      </trkpt>
      <trkpt lat="47.91451" lon="7.11901">
        <ele>1114.4000244141</ele>
        <time>2021-07-11T08:39:02.000Z</time>
      </trkpt>
      <trkpt lat="47.9145" lon="7.11899">
        <ele>1114.8000488281</ele>
        <time>2021-07-11T08:39:03.000Z</time>
      </trkpt>
      <trkpt lat="47.91447" lon="7.11887">
        <ele>1115.1999511719</ele>
        <time>2021-07-11T08:39:09.000Z</time>
      </trkpt>
      <trkpt lat="47.91446" lon="7.11886">
        <ele>1115.5999755859</ele>
        <time>2021-07-11T08:39:10.000Z</time>
      </trkpt>
      <trkpt lat="47.91445" lon="7.11884">
        <ele>1116.1999511719</ele>
        <time>2021-07-11T08:39:11.000Z</time>
      </trkpt>
      <trkpt lat="47.91443" lon="7.11883">
        <ele>1116.5999755859</ele>
        <time>2021-07-11T08:39:12.000Z</time>
      </trkpt>
      <trkpt lat="47.91442" lon="7.11881">
        <ele>1117</ele>
        <time>2021-07-11T08:39:13.000Z</time>
      </trkpt>
      <trkpt lat="47.91442" lon="7.11879">
        <ele>1117</ele>
        <time>2021-07-11T08:39:14.000Z</time>
      </trkpt>
      <trkpt lat="47.91442" lon="7.11877">
        <ele>1117</ele>
        <time>2021-07-11T08:39:15.000Z</time>
      </trkpt>
      <trkpt lat="47.91438" lon="7.11866">
        <ele>1117.4000244141</ele>
        <time>2021-07-11T08:39:20.000Z</time>
      </trkpt>
      <trkpt lat="47.91438" lon="7.11864">
        <ele>1118</ele>
        <time>2021-07-11T08:39:21.000Z</time>
      </trkpt>
      <trkpt lat="47.91437" lon="7.11863">
        <ele>1118.4000244141</ele>
        <time>2021-07-11T08:39:22.000Z</time>
      </trkpt>
      <trkpt lat="47.91436" lon="7.11861">
        <ele>1118.8000488281</ele>
        <time>2021-07-11T08:39:23.000Z</time>
      </trkpt>
      <trkpt lat="47.91435" lon="7.11859">
        <ele>1119.4000244141</ele>
        <time>2021-07-11T08:39:24.000Z</time>
      </trkpt>
      <trkpt lat="47.91432" lon="7.11854">
        <ele>1119.4000244141</ele>
        <time>2021-07-11T08:39:27.000Z</time>
      </trkpt>
      <trkpt lat="47.91432" lon="7.11852">
        <ele>1119.8000488281</ele>
        <time>2021-07-11T08:39:28.000Z</time>
      </trkpt>
      <trkpt lat="47.91431" lon="7.1185">
        <ele>1120.1999511719</ele>
        <time>2021-07-11T08:39:29.000Z</time>
      </trkpt>
      <trkpt lat="47.91431" lon="7.11849">
        <ele>1120.5999755859</ele>
        <time>2021-07-11T08:39:30.000Z</time>
      </trkpt>
      <trkpt lat="47.9143" lon="7.11847">
        <ele>1121</ele>
        <time>2021-07-11T08:39:31.000Z</time>
      </trkpt>
      <trkpt lat="47.91429" lon="7.11845">
        <ele>1121.4000244141</ele>
        <time>2021-07-11T08:39:32.000Z</time>
      </trkpt>
      <trkpt lat="47.91428" lon="7.11844">
        <ele>1121.4000244141</ele>
        <time>2021-07-11T08:39:33.000Z</time>
      </trkpt>
      <trkpt lat="47.91423" lon="7.11835">
        <ele>1121.8000488281</ele>
        <time>2021-07-11T08:39:37.000Z</time>
      </trkpt>
      <trkpt lat="47.91422" lon="7.11832">
        <ele>1122.1999511719</ele>
        <time>2021-07-11T08:39:38.000Z</time>
      </trkpt>
      <trkpt lat="47.91422" lon="7.1183">
        <ele>1122.5999755859</ele>
        <time>2021-07-11T08:39:39.000Z</time>
      </trkpt>
      <trkpt lat="47.91421" lon="7.11828">
        <ele>1123.1999511719</ele>
        <time>2021-07-11T08:39:40.000Z</time>
      </trkpt>
      <trkpt lat="47.91421" lon="7.11826">
        <ele>1123.5999755859</ele>
        <time>2021-07-11T08:39:41.000Z</time>
      </trkpt>
      <trkpt lat="47.91416" lon="7.11818">
        <ele>1124</ele>
        <time>2021-07-11T08:39:46.000Z</time>
      </trkpt>
      <trkpt lat="47.91415" lon="7.11817">
        <ele>1124.4000244141</ele>
        <time>2021-07-11T08:39:47.000Z</time>
      </trkpt>
      <trkpt lat="47.91414" lon="7.11815">
        <ele>1124.8000488281</ele>
        <time>2021-07-11T08:39:48.000Z</time>
      </trkpt>
      <trkpt lat="47.91413" lon="7.11814">
        <ele>1125.1999511719</ele>
        <time>2021-07-11T08:39:49.000Z</time>
      </trkpt>
      <trkpt lat="47.91412" lon="7.11811">
        <ele>1125.5999755859</ele>
        <time>2021-07-11T08:39:50.000Z</time>
      </trkpt>
      <trkpt lat="47.91409" lon="7.11804">
        <ele>1126</ele>
        <time>2021-07-11T08:39:54.000Z</time>
      </trkpt>
      <trkpt lat="47.91408" lon="7.11802">
        <ele>1126.4000244141</ele>
        <time>2021-07-11T08:39:55.000Z</time>
      </trkpt>
      <trkpt lat="47.91407" lon="7.11799">
        <ele>1126.8000488281</ele>
        <time>2021-07-11T08:39:56.000Z</time>
      </trkpt>
      <trkpt lat="47.91406" lon="7.11797">
        <ele>1127.1999511719</ele>
        <time>2021-07-11T08:39:57.000Z</time>
      </trkpt>
      <trkpt lat="47.91405" lon="7.11795">
        <ele>1127.8000488281</ele>
        <time>2021-07-11T08:39:58.000Z</time>
      </trkpt>
      <trkpt lat="47.91403" lon="7.1179">
        <ele>1127.8000488281</ele>
        <time>2021-07-11T08:40:01.000Z</time>
      </trkpt>
      <trkpt lat="47.914" lon="7.11784">
        <ele>1128.1999511719</ele>
        <time>2021-07-11T08:40:04.000Z</time>
      </trkpt>
      <trkpt lat="47.91399" lon="7.11782">
        <ele>1128.5999755859</ele>
        <time>2021-07-11T08:40:05.000Z</time>
      </trkpt>
      <trkpt lat="47.91399" lon="7.11779">
        <ele>1129</ele>
        <time>2021-07-11T08:40:06.000Z</time>
      </trkpt>
      <trkpt lat="47.91398" lon="7.11778">
        <ele>1129.4000244141</ele>
        <time>2021-07-11T08:40:07.000Z</time>
      </trkpt>
      <trkpt lat="47.91397" lon="7.11775">
        <ele>1129.8000488281</ele>
        <time>2021-07-11T08:40:08.000Z</time>
      </trkpt>
      <trkpt lat="47.91394" lon="7.11768">
        <ele>1130.1999511719</ele>
        <time>2021-07-11T08:40:12.000Z</time>
      </trkpt>
      <trkpt lat="47.91393" lon="7.11766">
        <ele>1130.8000488281</ele>
        <time>2021-07-11T08:40:13.000Z</time>
      </trkpt>
      <trkpt lat="47.91392" lon="7.11764">
        <ele>1131.5999755859</ele>
        <time>2021-07-11T08:40:14.000Z</time>
      </trkpt>
      <trkpt lat="47.9139" lon="7.11759">
        <ele>1132</ele>
        <time>2021-07-11T08:40:16.000Z</time>
      </trkpt>
      <trkpt lat="47.91388" lon="7.11754">
        <ele>1132.5999755859</ele>
        <time>2021-07-11T08:40:19.000Z</time>
      </trkpt>
      <trkpt lat="47.91388" lon="7.11753">
        <ele>1133</ele>
        <time>2021-07-11T08:40:20.000Z</time>
      </trkpt>
      <trkpt lat="47.91387" lon="7.11751">
        <ele>1133.4000244141</ele>
        <time>2021-07-11T08:40:21.000Z</time>
      </trkpt>
      <trkpt lat="47.91386" lon="7.11749">
        <ele>1133.8000488281</ele>
        <time>2021-07-11T08:40:22.000Z</time>
      </trkpt>
      <trkpt lat="47.91385" lon="7.11748">
        <ele>1134.1999511719</ele>
        <time>2021-07-11T08:40:23.000Z</time>
      </trkpt>
      <trkpt lat="47.9138" lon="7.11739">
        <ele>1134.5999755859</ele>
        <time>2021-07-11T08:40:27.000Z</time>
      </trkpt>
      <trkpt lat="47.91379" lon="7.11737">
        <ele>1135.1999511719</ele>
        <time>2021-07-11T08:40:28.000Z</time>
      </trkpt>
      <trkpt lat="47.91378" lon="7.11735">
        <ele>1135.5999755859</ele>
        <time>2021-07-11T08:40:29.000Z</time>
      </trkpt>
      <trkpt lat="47.91377" lon="7.11732">
        <ele>1136</ele>
        <time>2021-07-11T08:40:30.000Z</time>
      </trkpt>
      <trkpt lat="47.91376" lon="7.1173">
        <ele>1136.4000244141</ele>
        <time>2021-07-11T08:40:31.000Z</time>
      </trkpt>
      <trkpt lat="47.91374" lon="7.11718">
        <ele>1136.8000488281</ele>
        <time>2021-07-11T08:40:36.000Z</time>
      </trkpt>
      <trkpt lat="47.91374" lon="7.11715">
        <ele>1137.1999511719</ele>
        <time>2021-07-11T08:40:37.000Z</time>
      </trkpt>
      <trkpt lat="47.91373" lon="7.11713">
        <ele>1138</ele>
        <time>2021-07-11T08:40:38.000Z</time>
      </trkpt>
      <trkpt lat="47.91371" lon="7.11708">
        <ele>1138.4000244141</ele>
        <time>2021-07-11T08:40:40.000Z</time>
      </trkpt>
      <trkpt lat="47.91369" lon="7.11702">
        <ele>1138.4000244141</ele>
        <time>2021-07-11T08:40:43.000Z</time>
      </trkpt>
      <trkpt lat="47.91369" lon="7.11693">
        <ele>1139</ele>
        <time>2021-07-11T08:40:47.000Z</time>
      </trkpt>
      <trkpt lat="47.91368" lon="7.1169">
        <ele>1139.4000244141</ele>
        <time>2021-07-11T08:40:48.000Z</time>
      </trkpt>
      <trkpt lat="47.91368" lon="7.11688">
        <ele>1139.8000488281</ele>
        <time>2021-07-11T08:40:49.000Z</time>
      </trkpt>
      <trkpt lat="47.91367" lon="7.11685">
        <ele>1140.1999511719</ele>
        <time>2021-07-11T08:40:50.000Z</time>
      </trkpt>
      <trkpt lat="47.91367" lon="7.11683">
        <ele>1140.5999755859</ele>
        <time>2021-07-11T08:40:51.000Z</time>
      </trkpt>
      <trkpt lat="47.91366" lon="7.11671">
        <ele>1141</ele>
        <time>2021-07-11T08:40:56.000Z</time>
      </trkpt>
      <trkpt lat="47.91365" lon="7.11669">
        <ele>1141.5999755859</ele>
        <time>2021-07-11T08:40:57.000Z</time>
      </trkpt>
      <trkpt lat="47.91365" lon="7.11667">
        <ele>1142</ele>
        <time>2021-07-11T08:40:58.000Z</time>
      </trkpt>
      <trkpt lat="47.91364" lon="7.11665">
        <ele>1142.4000244141</ele>
        <time>2021-07-11T08:40:59.000Z</time>
      </trkpt>
      <trkpt lat="47.91364" lon="7.11663">
        <ele>1142.8000488281</ele>
        <time>2021-07-11T08:41:00.000Z</time>
      </trkpt>
      <trkpt lat="47.91363" lon="7.11659">
        <ele>1142.8000488281</ele>
        <time>2021-07-11T08:41:02.000Z</time>
      </trkpt>
      <trkpt lat="47.91363" lon="7.11655">
        <ele>1143.5999755859</ele>
        <time>2021-07-11T08:41:04.000Z</time>
      </trkpt>
      <trkpt lat="47.91363" lon="7.11649">
        <ele>1144.5999755859</ele>
        <time>2021-07-11T08:41:06.000Z</time>
      </trkpt>
      <trkpt lat="47.91363" lon="7.11647">
        <ele>1145</ele>
        <time>2021-07-11T08:41:07.000Z</time>
      </trkpt>
      <trkpt lat="47.91362" lon="7.11642">
        <ele>1145</ele>
        <time>2021-07-11T08:41:09.000Z</time>
      </trkpt>
      <trkpt lat="47.9136" lon="7.11631">
        <ele>1145.4000244141</ele>
        <time>2021-07-11T08:41:14.000Z</time>
      </trkpt>
      <trkpt lat="47.9136" lon="7.11629">
        <ele>1145.8000488281</ele>
        <time>2021-07-11T08:41:15.000Z</time>
      </trkpt>
      <trkpt lat="47.91359" lon="7.11627">
        <ele>1146.4000244141</ele>
        <time>2021-07-11T08:41:16.000Z</time>
      </trkpt>
      <trkpt lat="47.91359" lon="7.11624">
        <ele>1146.8000488281</ele>
        <time>2021-07-11T08:41:17.000Z</time>
      </trkpt>
      <trkpt lat="47.91359" lon="7.11621">
        <ele>1147.4000244141</ele>
        <time>2021-07-11T08:41:18.000Z</time>
      </trkpt>
      <trkpt lat="47.91359" lon="7.11616">
        <ele>1147.4000244141</ele>
        <time>2021-07-11T08:41:20.000Z</time>
      </trkpt>
      <trkpt lat="47.91358" lon="7.11609">
        <ele>1147.4000244141</ele>
        <time>2021-07-11T08:41:23.000Z</time>
      </trkpt>
      <trkpt lat="47.91358" lon="7.11604">
        <ele>1147.8000488281</ele>
        <time>2021-07-11T08:41:26.000Z</time>
      </trkpt>
      <trkpt lat="47.91358" lon="7.11602">
        <ele>1148.1999511719</ele>
        <time>2021-07-11T08:41:27.000Z</time>
      </trkpt>
      <trkpt lat="47.91359" lon="7.11598">
        <ele>1149</ele>
        <time>2021-07-11T08:41:28.000Z</time>
      </trkpt>
      <trkpt lat="47.91359" lon="7.11595">
        <ele>1149.4000244141</ele>
        <time>2021-07-11T08:41:30.000Z</time>
      </trkpt>
      <trkpt lat="47.9136" lon="7.11586">
        <ele>1149.8000488281</ele>
        <time>2021-07-11T08:41:34.000Z</time>
      </trkpt>
      <trkpt lat="47.91361" lon="7.11584">
        <ele>1150.1999511719</ele>
        <time>2021-07-11T08:41:35.000Z</time>
      </trkpt>
      <trkpt lat="47.91362" lon="7.11582">
        <ele>1150.5999755859</ele>
        <time>2021-07-11T08:41:36.000Z</time>
      </trkpt>
      <trkpt lat="47.91363" lon="7.1158">
        <ele>1151</ele>
        <time>2021-07-11T08:41:37.000Z</time>
      </trkpt>
      <trkpt lat="47.91364" lon="7.11578">
        <ele>1151.4000244141</ele>
        <time>2021-07-11T08:41:38.000Z</time>
      </trkpt>
      <trkpt lat="47.91365" lon="7.11575">
        <ele>1151.4000244141</ele>
        <time>2021-07-11T08:41:39.000Z</time>
      </trkpt>
      <trkpt lat="47.91365" lon="7.11563">
        <ele>1151.4000244141</ele>
        <time>2021-07-11T08:41:45.000Z</time>
      </trkpt>
      <trkpt lat="47.91364" lon="7.11555">
        <ele>1151.4000244141</ele>
        <time>2021-07-11T08:41:48.000Z</time>
      </trkpt>
      <trkpt lat="47.91364" lon="7.1155">
        <ele>1151.8000488281</ele>
        <time>2021-07-11T08:41:50.000Z</time>
      </trkpt>
      <trkpt lat="47.91363" lon="7.11546">
        <ele>1152.5999755859</ele>
        <time>2021-07-11T08:41:51.000Z</time>
      </trkpt>
      <trkpt lat="47.91363" lon="7.11543">
        <ele>1152.5999755859</ele>
        <time>2021-07-11T08:41:52.000Z</time>
      </trkpt>
      <trkpt lat="47.91363" lon="7.11538">
        <ele>1153.4000244141</ele>
        <time>2021-07-11T08:41:53.000Z</time>
      </trkpt>
      <trkpt lat="47.91363" lon="7.1153">
        <ele>1153.4000244141</ele>
        <time>2021-07-11T08:41:56.000Z</time>
      </trkpt>
      <trkpt lat="47.91362" lon="7.11526">
        <ele>1153.8000488281</ele>
        <time>2021-07-11T08:41:58.000Z</time>
      </trkpt>
      <trkpt lat="47.91361" lon="7.11524">
        <ele>1154.1999511719</ele>
        <time>2021-07-11T08:41:59.000Z</time>
      </trkpt>
      <trkpt lat="47.91361" lon="7.11522">
        <ele>1154.5999755859</ele>
        <time>2021-07-11T08:42:00.000Z</time>
      </trkpt>
      <trkpt lat="47.9136" lon="7.1152">
        <ele>1155</ele>
        <time>2021-07-11T08:42:01.000Z</time>
      </trkpt>
      <trkpt lat="47.91359" lon="7.11518">
        <ele>1155.4000244141</ele>
        <time>2021-07-11T08:42:02.000Z</time>
      </trkpt>
      <trkpt lat="47.91356" lon="7.11505">
        <ele>1155.4000244141</ele>
        <time>2021-07-11T08:42:08.000Z</time>
      </trkpt>
      <trkpt lat="47.91355" lon="7.11501">
        <ele>1156</ele>
        <time>2021-07-11T08:42:09.000Z</time>
      </trkpt>
      <trkpt lat="47.91354" lon="7.115">
        <ele>1156.4000244141</ele>
        <time>2021-07-11T08:42:10.000Z</time>
      </trkpt>
      <trkpt lat="47.91353" lon="7.11498">
        <ele>1156.8000488281</ele>
        <time>2021-07-11T08:42:11.000Z</time>
      </trkpt>
      <trkpt lat="47.91352" lon="7.11496">
        <ele>1157.1999511719</ele>
        <time>2021-07-11T08:42:12.000Z</time>
      </trkpt>
      <trkpt lat="47.91351" lon="7.11494">
        <ele>1157.5999755859</ele>
        <time>2021-07-11T08:42:13.000Z</time>
      </trkpt>
      <trkpt lat="47.9135" lon="7.11491">
        <ele>1157.5999755859</ele>
        <time>2021-07-11T08:42:14.000Z</time>
      </trkpt>
      <trkpt lat="47.91347" lon="7.11484">
        <ele>1158.5999755859</ele>
        <time>2021-07-11T08:42:19.000Z</time>
      </trkpt>
      <trkpt lat="47.91347" lon="7.11482">
        <ele>1159</ele>
        <time>2021-07-11T08:42:20.000Z</time>
      </trkpt>
      <trkpt lat="47.91346" lon="7.1148">
        <ele>1159.4000244141</ele>
        <time>2021-07-11T08:42:21.000Z</time>
      </trkpt>
      <trkpt lat="47.91345" lon="7.11477">
        <ele>1160</ele>
        <time>2021-07-11T08:42:22.000Z</time>
      </trkpt>
      <trkpt lat="47.91343" lon="7.1147">
        <ele>1160</ele>
        <time>2021-07-11T08:42:25.000Z</time>
      </trkpt>
      <trkpt lat="47.91341" lon="7.11465">
        <ele>1160.4000244141</ele>
        <time>2021-07-11T08:42:28.000Z</time>
      </trkpt>
      <trkpt lat="47.9134" lon="7.11463">
        <ele>1160.8000488281</ele>
        <time>2021-07-11T08:42:29.000Z</time>
      </trkpt>
      <trkpt lat="47.9134" lon="7.11461">
        <ele>1161.1999511719</ele>
        <time>2021-07-11T08:42:30.000Z</time>
      </trkpt>
      <trkpt lat="47.91339" lon="7.11458">
        <ele>1161.8000488281</ele>
        <time>2021-07-11T08:42:31.000Z</time>
      </trkpt>
      <trkpt lat="47.91339" lon="7.11457">
        <ele>1162.1999511719</ele>
        <time>2021-07-11T08:42:32.000Z</time>
      </trkpt>
      <trkpt lat="47.91337" lon="7.11454">
        <ele>1162.1999511719</ele>
        <time>2021-07-11T08:42:34.000Z</time>
      </trkpt>
      <trkpt lat="47.91331" lon="7.11448">
        <ele>1162.5999755859</ele>
        <time>2021-07-11T08:42:39.000Z</time>
      </trkpt>
      <trkpt lat="47.9133" lon="7.11446">
        <ele>1163</ele>
        <time>2021-07-11T08:42:40.000Z</time>
      </trkpt>
      <trkpt lat="47.91329" lon="7.11445">
        <ele>1163.4000244141</ele>
        <time>2021-07-11T08:42:41.000Z</time>
      </trkpt>
      <trkpt lat="47.91328" lon="7.11444">
        <ele>1164</ele>
        <time>2021-07-11T08:42:42.000Z</time>
      </trkpt>
      <trkpt lat="47.91327" lon="7.11443">
        <ele>1164.4000244141</ele>
        <time>2021-07-11T08:42:43.000Z</time>
      </trkpt>
      <trkpt lat="47.91321" lon="7.11439">
        <ele>1164.4000244141</ele>
        <time>2021-07-11T08:42:47.000Z</time>
      </trkpt>
      <trkpt lat="47.9132" lon="7.11438">
        <ele>1164.8000488281</ele>
        <time>2021-07-11T08:42:48.000Z</time>
      </trkpt>
      <trkpt lat="47.91318" lon="7.11437">
        <ele>1165.1999511719</ele>
        <time>2021-07-11T08:42:49.000Z</time>
      </trkpt>
      <trkpt lat="47.91317" lon="7.11437">
        <ele>1165.5999755859</ele>
        <time>2021-07-11T08:42:50.000Z</time>
      </trkpt>
      <trkpt lat="47.91315" lon="7.11435">
        <ele>1166</ele>
        <time>2021-07-11T08:42:51.000Z</time>
      </trkpt>
      <trkpt lat="47.91314" lon="7.11435">
        <ele>1166.4000244141</ele>
        <time>2021-07-11T08:42:52.000Z</time>
      </trkpt>
      <trkpt lat="47.91312" lon="7.11433">
        <ele>1166.4000244141</ele>
        <time>2021-07-11T08:42:54.000Z</time>
      </trkpt>
      <trkpt lat="47.9131" lon="7.11435">
        <ele>1166.4000244141</ele>
        <time>2021-07-11T08:42:56.000Z</time>
      </trkpt>
      <trkpt lat="47.91295" lon="7.11417">
        <ele>1168.4000244141</ele>
        <time>2021-07-11T08:47:30.000Z</time>
      </trkpt>
      <trkpt lat="47.91293" lon="7.11415">
        <ele>1169</ele>
        <time>2021-07-11T08:47:31.000Z</time>
      </trkpt>
      <trkpt lat="47.91292" lon="7.11414">
        <ele>1169.4000244141</ele>
        <time>2021-07-11T08:47:32.000Z</time>
      </trkpt>
      <trkpt lat="47.91291" lon="7.11413">
        <ele>1169.8000488281</ele>
        <time>2021-07-11T08:47:33.000Z</time>
      </trkpt>
      <trkpt lat="47.91291" lon="7.11411">
        <ele>1170.1999511719</ele>
        <time>2021-07-11T08:47:34.000Z</time>
      </trkpt>
      <trkpt lat="47.9129" lon="7.11411">
        <ele>1170.8000488281</ele>
        <time>2021-07-11T08:47:35.000Z</time>
      </trkpt>
      <trkpt lat="47.91281" lon="7.11401">
        <ele>1171.1999511719</ele>
        <time>2021-07-11T08:47:40.000Z</time>
      </trkpt>
      <trkpt lat="47.9128" lon="7.11398">
        <ele>1171.5999755859</ele>
        <time>2021-07-11T08:47:41.000Z</time>
      </trkpt>
      <trkpt lat="47.91278" lon="7.11397">
        <ele>1172</ele>
        <time>2021-07-11T08:47:42.000Z</time>
      </trkpt>
      <trkpt lat="47.91277" lon="7.11396">
        <ele>1172.4000244141</ele>
        <time>2021-07-11T08:47:43.000Z</time>
      </trkpt>
      <trkpt lat="47.91275" lon="7.11394">
        <ele>1173</ele>
        <time>2021-07-11T08:47:44.000Z</time>
      </trkpt>
      <trkpt lat="47.91272" lon="7.11392">
        <ele>1173</ele>
        <time>2021-07-11T08:47:46.000Z</time>
      </trkpt>
      <trkpt lat="47.91267" lon="7.1139">
        <ele>1173.4000244141</ele>
        <time>2021-07-11T08:47:48.000Z</time>
      </trkpt>
      <trkpt lat="47.91266" lon="7.11389">
        <ele>1173.8000488281</ele>
        <time>2021-07-11T08:47:49.000Z</time>
      </trkpt>
      <trkpt lat="47.91264" lon="7.11388">
        <ele>1174.1999511719</ele>
        <time>2021-07-11T08:47:50.000Z</time>
      </trkpt>
      <trkpt lat="47.91263" lon="7.11386">
        <ele>1174.5999755859</ele>
        <time>2021-07-11T08:47:51.000Z</time>
      </trkpt>
      <trkpt lat="47.91261" lon="7.11385">
        <ele>1175</ele>
        <time>2021-07-11T08:47:52.000Z</time>
      </trkpt>
      <trkpt lat="47.91259" lon="7.11384">
        <ele>1175</ele>
        <time>2021-07-11T08:47:53.000Z</time>
      </trkpt>
      <trkpt lat="47.91253" lon="7.11382">
        <ele>1175.4000244141</ele>
        <time>2021-07-11T08:47:56.000Z</time>
      </trkpt>
      <trkpt lat="47.91251" lon="7.11381">
        <ele>1175.8000488281</ele>
        <time>2021-07-11T08:47:57.000Z</time>
      </trkpt>
      <trkpt lat="47.91249" lon="7.11379">
        <ele>1176.1999511719</ele>
        <time>2021-07-11T08:47:58.000Z</time>
      </trkpt>
      <trkpt lat="47.91248" lon="7.11378">
        <ele>1176.5999755859</ele>
        <time>2021-07-11T08:47:59.000Z</time>
      </trkpt>
      <trkpt lat="47.91247" lon="7.11377">
        <ele>1177</ele>
        <time>2021-07-11T08:48:00.000Z</time>
      </trkpt>
      <trkpt lat="47.91236" lon="7.11375">
        <ele>1177.4000244141</ele>
        <time>2021-07-11T08:48:06.000Z</time>
      </trkpt>
      <trkpt lat="47.91234" lon="7.11374">
        <ele>1177.8000488281</ele>
        <time>2021-07-11T08:48:07.000Z</time>
      </trkpt>
      <trkpt lat="47.91233" lon="7.11373">
        <ele>1178.1999511719</ele>
        <time>2021-07-11T08:48:08.000Z</time>
      </trkpt>
      <trkpt lat="47.91231" lon="7.11372">
        <ele>1179.1999511719</ele>
        <time>2021-07-11T08:48:09.000Z</time>
      </trkpt>
      <trkpt lat="47.91225" lon="7.11364">
        <ele>1179.5999755859</ele>
        <time>2021-07-11T08:48:14.000Z</time>
      </trkpt>
      <trkpt lat="47.91224" lon="7.11362">
        <ele>1180</ele>
        <time>2021-07-11T08:48:15.000Z</time>
      </trkpt>
      <trkpt lat="47.91222" lon="7.11359">
        <ele>1180.4000244141</ele>
        <time>2021-07-11T08:48:16.000Z</time>
      </trkpt>
      <trkpt lat="47.91221" lon="7.11357">
        <ele>1181</ele>
        <time>2021-07-11T08:48:17.000Z</time>
      </trkpt>
      <trkpt lat="47.91219" lon="7.11356">
        <ele>1181.4000244141</ele>
        <time>2021-07-11T08:48:18.000Z</time>
      </trkpt>
      <trkpt lat="47.91216" lon="7.11352">
        <ele>1181.4000244141</ele>
        <time>2021-07-11T08:48:21.000Z</time>
      </trkpt>
      <trkpt lat="47.91213" lon="7.11348">
        <ele>1181.8000488281</ele>
        <time>2021-07-11T08:48:24.000Z</time>
      </trkpt>
      <trkpt lat="47.91212" lon="7.11347">
        <ele>1182.1999511719</ele>
        <time>2021-07-11T08:48:25.000Z</time>
      </trkpt>
      <trkpt lat="47.9121" lon="7.11346">
        <ele>1182.5999755859</ele>
        <time>2021-07-11T08:48:26.000Z</time>
      </trkpt>
      <trkpt lat="47.91209" lon="7.11345">
        <ele>1183</ele>
        <time>2021-07-11T08:48:27.000Z</time>
      </trkpt>
      <trkpt lat="47.91208" lon="7.11344">
        <ele>1183.4000244141</ele>
        <time>2021-07-11T08:48:28.000Z</time>
      </trkpt>
      <trkpt lat="47.91201" lon="7.11341">
        <ele>1183.8000488281</ele>
        <time>2021-07-11T08:48:34.000Z</time>
      </trkpt>
      <trkpt lat="47.912" lon="7.1134">
        <ele>1184.1999511719</ele>
        <time>2021-07-11T08:48:35.000Z</time>
      </trkpt>
      <trkpt lat="47.91199" lon="7.11339">
        <ele>1184.5999755859</ele>
        <time>2021-07-11T08:48:36.000Z</time>
      </trkpt>
      <trkpt lat="47.91198" lon="7.11338">
        <ele>1185</ele>
        <time>2021-07-11T08:48:37.000Z</time>
      </trkpt>
      <trkpt lat="47.91197" lon="7.11337">
        <ele>1185.4000244141</ele>
        <time>2021-07-11T08:48:38.000Z</time>
      </trkpt>
      <trkpt lat="47.91189" lon="7.1133">
        <ele>1185.4000244141</ele>
        <time>2021-07-11T08:48:44.000Z</time>
      </trkpt>
      <trkpt lat="47.91186" lon="7.11327">
        <ele>1185.8000488281</ele>
        <time>2021-07-11T08:48:46.000Z</time>
      </trkpt>
      <trkpt lat="47.91184" lon="7.11325">
        <ele>1186.1999511719</ele>
        <time>2021-07-11T08:48:47.000Z</time>
      </trkpt>
      <trkpt lat="47.91182" lon="7.11323">
        <ele>1186.5999755859</ele>
        <time>2021-07-11T08:48:48.000Z</time>
      </trkpt>
      <trkpt lat="47.91179" lon="7.11321">
        <ele>1187</ele>
        <time>2021-07-11T08:48:49.000Z</time>
      </trkpt>
      <trkpt lat="47.91178" lon="7.11319">
        <ele>1187.4000244141</ele>
        <time>2021-07-11T08:48:50.000Z</time>
      </trkpt>
      <trkpt lat="47.9117" lon="7.1131">
        <ele>1188</ele>
        <time>2021-07-11T08:48:57.000Z</time>
      </trkpt>
      <trkpt lat="47.91169" lon="7.11309">
        <ele>1188.4000244141</ele>
        <time>2021-07-11T08:48:58.000Z</time>
      </trkpt>
      <trkpt lat="47.91168" lon="7.11308">
        <ele>1189.1999511719</ele>
        <time>2021-07-11T08:48:59.000Z</time>
      </trkpt>
      <trkpt lat="47.91167" lon="7.11306">
        <ele>1189.5999755859</ele>
        <time>2021-07-11T08:49:00.000Z</time>
      </trkpt>
      <trkpt lat="47.91162" lon="7.11298">
        <ele>1189.5999755859</ele>
        <time>2021-07-11T08:49:05.000Z</time>
      </trkpt>
      <trkpt lat="47.91158" lon="7.11295">
        <ele>1190.1999511719</ele>
        <time>2021-07-11T08:49:08.000Z</time>
      </trkpt>
      <trkpt lat="47.91157" lon="7.11295">
        <ele>1190.5999755859</ele>
        <time>2021-07-11T08:49:09.000Z</time>
      </trkpt>
      <trkpt lat="47.91156" lon="7.11293">
        <ele>1191</ele>
        <time>2021-07-11T08:49:10.000Z</time>
      </trkpt>
      <trkpt lat="47.91154" lon="7.11291">
        <ele>1191.4000244141</ele>
        <time>2021-07-11T08:49:11.000Z</time>
      </trkpt>
      <trkpt lat="47.91153" lon="7.11289">
        <ele>1192</ele>
        <time>2021-07-11T08:49:12.000Z</time>
      </trkpt>
      <trkpt lat="47.91152" lon="7.11288">
        <ele>1192</ele>
        <time>2021-07-11T08:49:13.000Z</time>
      </trkpt>
      <trkpt lat="47.91142" lon="7.11281">
        <ele>1192.4000244141</ele>
        <time>2021-07-11T08:49:20.000Z</time>
      </trkpt>
      <trkpt lat="47.91141" lon="7.1128">
        <ele>1192.8000488281</ele>
        <time>2021-07-11T08:49:21.000Z</time>
      </trkpt>
      <trkpt lat="47.9114" lon="7.1128">
        <ele>1193.1999511719</ele>
        <time>2021-07-11T08:49:22.000Z</time>
      </trkpt>
      <trkpt lat="47.9114" lon="7.11279">
        <ele>1193.5999755859</ele>
        <time>2021-07-11T08:49:23.000Z</time>
      </trkpt>
      <trkpt lat="47.91139" lon="7.11278">
        <ele>1194</ele>
        <time>2021-07-11T08:49:24.000Z</time>
      </trkpt>
      <trkpt lat="47.91137" lon="7.11277">
        <ele>1194</ele>
        <time>2021-07-11T08:49:26.000Z</time>
      </trkpt>
      <trkpt lat="47.91134" lon="7.11273">
        <ele>1194</ele>
        <time>2021-07-11T08:51:48.000Z</time>
      </trkpt>
      <trkpt lat="47.91132" lon="7.1127">
        <ele>1194</ele>
        <time>2021-07-11T08:51:51.000Z</time>
      </trkpt>
      <trkpt lat="47.91129" lon="7.11265">
        <ele>1194.4000244141</ele>
        <time>2021-07-11T08:51:54.000Z</time>
      </trkpt>
      <trkpt lat="47.91128" lon="7.11264">
        <ele>1194.8000488281</ele>
        <time>2021-07-11T08:51:55.000Z</time>
      </trkpt>
      <trkpt lat="47.91126" lon="7.11262">
        <ele>1195.1999511719</ele>
        <time>2021-07-11T08:51:56.000Z</time>
      </trkpt>
      <trkpt lat="47.91125" lon="7.1126">
        <ele>1195.5999755859</ele>
        <time>2021-07-11T08:51:57.000Z</time>
      </trkpt>
      <trkpt lat="47.91123" lon="7.11258">
        <ele>1196</ele>
        <time>2021-07-11T08:51:58.000Z</time>
      </trkpt>
      <trkpt lat="47.91118" lon="7.11251">
        <ele>1196</ele>
        <time>2021-07-11T08:52:02.000Z</time>
      </trkpt>
      <trkpt lat="47.91117" lon="7.11249">
        <ele>1196</ele>
        <time>2021-07-11T08:52:03.000Z</time>
      </trkpt>
      <trkpt lat="47.91115" lon="7.11242">
        <ele>1196.4000244141</ele>
        <time>2021-07-11T08:52:07.000Z</time>
      </trkpt>
      <trkpt lat="47.91115" lon="7.11239">
        <ele>1196.8000488281</ele>
        <time>2021-07-11T08:52:08.000Z</time>
      </trkpt>
      <trkpt lat="47.91114" lon="7.11236">
        <ele>1197.1999511719</ele>
        <time>2021-07-11T08:52:09.000Z</time>
      </trkpt>
      <trkpt lat="47.91113" lon="7.11235">
        <ele>1197.8000488281</ele>
        <time>2021-07-11T08:52:10.000Z</time>
      </trkpt>
      <trkpt lat="47.91112" lon="7.11233">
        <ele>1198.1999511719</ele>
        <time>2021-07-11T08:52:11.000Z</time>
      </trkpt>
      <trkpt lat="47.91108" lon="7.11228">
        <ele>1198.1999511719</ele>
        <time>2021-07-11T08:52:15.000Z</time>
      </trkpt>
      <trkpt lat="47.91104" lon="7.11218">
        <ele>1198.5999755859</ele>
        <time>2021-07-11T08:52:22.000Z</time>
      </trkpt>
      <trkpt lat="47.91103" lon="7.11217">
        <ele>1199</ele>
        <time>2021-07-11T08:52:23.000Z</time>
      </trkpt>
      <trkpt lat="47.91102" lon="7.11217">
        <ele>1199.4000244141</ele>
        <time>2021-07-11T08:52:24.000Z</time>
      </trkpt>
      <trkpt lat="47.91101" lon="7.11216">
        <ele>1199.8000488281</ele>
        <time>2021-07-11T08:52:25.000Z</time>
      </trkpt>
      <trkpt lat="47.911" lon="7.11215">
        <ele>1200.1999511719</ele>
        <time>2021-07-11T08:52:26.000Z</time>
      </trkpt>
      <trkpt lat="47.91093" lon="7.11202">
        <ele>1200.1999511719</ele>
        <time>2021-07-11T08:55:02.000Z</time>
      </trkpt>
      <trkpt lat="47.91091" lon="7.11192">
        <ele>1200.1999511719</ele>
        <time>2021-07-11T08:55:06.000Z</time>
      </trkpt>
      <trkpt lat="47.9109" lon="7.11187">
        <ele>1200.1999511719</ele>
        <time>2021-07-11T08:55:08.000Z</time>
      </trkpt>
      <trkpt lat="47.9109" lon="7.11179">
        <ele>1200.5999755859</ele>
        <time>2021-07-11T08:55:11.000Z</time>
      </trkpt>
      <trkpt lat="47.9109" lon="7.11176">
        <ele>1201</ele>
        <time>2021-07-11T08:55:12.000Z</time>
      </trkpt>
      <trkpt lat="47.9109" lon="7.11172">
        <ele>1201.4000244141</ele>
        <time>2021-07-11T08:55:13.000Z</time>
      </trkpt>
      <trkpt lat="47.91091" lon="7.11168">
        <ele>1201.8000488281</ele>
        <time>2021-07-11T08:55:14.000Z</time>
      </trkpt>
      <trkpt lat="47.91092" lon="7.11165">
        <ele>1202.1999511719</ele>
        <time>2021-07-11T08:55:15.000Z</time>
      </trkpt>
      <trkpt lat="47.91094" lon="7.11156">
        <ele>1202.1999511719</ele>
        <time>2021-07-11T08:55:18.000Z</time>
      </trkpt>
      <trkpt lat="47.91094" lon="7.11143">
        <ele>1202.8000488281</ele>
        <time>2021-07-11T08:55:22.000Z</time>
      </trkpt>
      <trkpt lat="47.91093" lon="7.1114">
        <ele>1203.1999511719</ele>
        <time>2021-07-11T08:55:23.000Z</time>
      </trkpt>
      <trkpt lat="47.91093" lon="7.11136">
        <ele>1203.5999755859</ele>
        <time>2021-07-11T08:55:24.000Z</time>
      </trkpt>
      <trkpt lat="47.91093" lon="7.11133">
        <ele>1204</ele>
        <time>2021-07-11T08:55:25.000Z</time>
      </trkpt>
      <trkpt lat="47.91093" lon="7.11131">
        <ele>1204.4000244141</ele>
        <time>2021-07-11T08:55:26.000Z</time>
      </trkpt>
      <trkpt lat="47.91093" lon="7.11113">
        <ele>1204.4000244141</ele>
        <time>2021-07-11T08:55:32.000Z</time>
      </trkpt>
      <trkpt lat="47.91092" lon="7.11108">
        <ele>1205</ele>
        <time>2021-07-11T08:55:34.000Z</time>
      </trkpt>
      <trkpt lat="47.91092" lon="7.11106">
        <ele>1205.8000488281</ele>
        <time>2021-07-11T08:55:35.000Z</time>
      </trkpt>
      <trkpt lat="47.91092" lon="7.11103">
        <ele>1206.1999511719</ele>
        <time>2021-07-11T08:55:36.000Z</time>
      </trkpt>
      <trkpt lat="47.91092" lon="7.11102">
        <ele>1206.5999755859</ele>
        <time>2021-07-11T08:55:37.000Z</time>
      </trkpt>
      <trkpt lat="47.91091" lon="7.11099">
        <ele>1206.5999755859</ele>
        <time>2021-07-11T08:55:38.000Z</time>
      </trkpt>
      <trkpt lat="47.91089" lon="7.11083">
        <ele>1207</ele>
        <time>2021-07-11T08:55:43.000Z</time>
      </trkpt>
      <trkpt lat="47.91088" lon="7.11079">
        <ele>1207.4000244141</ele>
        <time>2021-07-11T08:55:44.000Z</time>
      </trkpt>
      <trkpt lat="47.91088" lon="7.11075">
        <ele>1207.8000488281</ele>
        <time>2021-07-11T08:55:45.000Z</time>
      </trkpt>
      <trkpt lat="47.91088" lon="7.11072">
        <ele>1208.4000244141</ele>
        <time>2021-07-11T08:55:46.000Z</time>
      </trkpt>
      <trkpt lat="47.91088" lon="7.11069">
        <ele>1208.8000488281</ele>
        <time>2021-07-11T08:55:47.000Z</time>
      </trkpt>
      <trkpt lat="47.91087" lon="7.11064">
        <ele>1208.8000488281</ele>
        <time>2021-07-11T08:55:49.000Z</time>
      </trkpt>
      <trkpt lat="47.91083" lon="7.11053">
        <ele>1209.1999511719</ele>
        <time>2021-07-11T08:55:54.000Z</time>
      </trkpt>
      <trkpt lat="47.91083" lon="7.1105">
        <ele>1209.5999755859</ele>
        <time>2021-07-11T08:55:55.000Z</time>
      </trkpt>
      <trkpt lat="47.91082" lon="7.11047">
        <ele>1210</ele>
        <time>2021-07-11T08:55:56.000Z</time>
      </trkpt>
      <trkpt lat="47.91082" lon="7.11044">
        <ele>1210.4000244141</ele>
        <time>2021-07-11T08:55:57.000Z</time>
      </trkpt>
      <trkpt lat="47.91081" lon="7.11041">
        <ele>1210.8000488281</ele>
        <time>2021-07-11T08:55:58.000Z</time>
      </trkpt>
      <trkpt lat="47.91081" lon="7.1103">
        <ele>1210.8000488281</ele>
        <time>2021-07-11T08:56:02.000Z</time>
      </trkpt>
      <trkpt lat="47.9108" lon="7.11026">
        <ele>1211.1999511719</ele>
        <time>2021-07-11T08:56:04.000Z</time>
      </trkpt>
      <trkpt lat="47.9108" lon="7.11023">
        <ele>1211.5999755859</ele>
        <time>2021-07-11T08:56:05.000Z</time>
      </trkpt>
      <trkpt lat="47.91079" lon="7.11021">
        <ele>1212.1999511719</ele>
        <time>2021-07-11T08:56:06.000Z</time>
      </trkpt>
      <trkpt lat="47.91079" lon="7.11018">
        <ele>1212.5999755859</ele>
        <time>2021-07-11T08:56:07.000Z</time>
      </trkpt>
      <trkpt lat="47.91078" lon="7.11016">
        <ele>1213</ele>
        <time>2021-07-11T08:56:08.000Z</time>
      </trkpt>
      <trkpt lat="47.91078" lon="7.11004">
        <ele>1213</ele>
        <time>2021-07-11T08:56:12.000Z</time>
      </trkpt>
      <trkpt lat="47.91079" lon="7.10993">
        <ele>1213.4000244141</ele>
        <time>2021-07-11T08:56:15.000Z</time>
      </trkpt>
      <trkpt lat="47.91078" lon="7.10989">
        <ele>1213.8000488281</ele>
        <time>2021-07-11T08:56:16.000Z</time>
      </trkpt>
      <trkpt lat="47.91078" lon="7.10985">
        <ele>1214.1999511719</ele>
        <time>2021-07-11T08:56:17.000Z</time>
      </trkpt>
      <trkpt lat="47.91078" lon="7.10982">
        <ele>1214.5999755859</ele>
        <time>2021-07-11T08:56:18.000Z</time>
      </trkpt>
      <trkpt lat="47.91077" lon="7.10979">
        <ele>1215</ele>
        <time>2021-07-11T08:56:19.000Z</time>
      </trkpt>
      <trkpt lat="47.91077" lon="7.10964">
        <ele>1215</ele>
        <time>2021-07-11T08:56:25.000Z</time>
      </trkpt>
      <trkpt lat="47.91078" lon="7.10956">
        <ele>1215.4000244141</ele>
        <time>2021-07-11T08:56:28.000Z</time>
      </trkpt>
      <trkpt lat="47.91079" lon="7.10953">
        <ele>1215.8000488281</ele>
        <time>2021-07-11T08:56:29.000Z</time>
      </trkpt>
      <trkpt lat="47.91079" lon="7.10951">
        <ele>1216.1999511719</ele>
        <time>2021-07-11T08:56:30.000Z</time>
      </trkpt>
      <trkpt lat="47.91079" lon="7.10948">
        <ele>1216.5999755859</ele>
        <time>2021-07-11T08:56:31.000Z</time>
      </trkpt>
      <trkpt lat="47.91079" lon="7.10945">
        <ele>1217</ele>
        <time>2021-07-11T08:56:32.000Z</time>
      </trkpt>
      <trkpt lat="47.91081" lon="7.10926">
        <ele>1217.4000244141</ele>
        <time>2021-07-11T08:56:38.000Z</time>
      </trkpt>
      <trkpt lat="47.91083" lon="7.10923">
        <ele>1217.8000488281</ele>
        <time>2021-07-11T08:56:39.000Z</time>
      </trkpt>
      <trkpt lat="47.91084" lon="7.10919">
        <ele>1218.4000244141</ele>
        <time>2021-07-11T08:56:40.000Z</time>
      </trkpt>
      <trkpt lat="47.91085" lon="7.10916">
        <ele>1218.8000488281</ele>
        <time>2021-07-11T08:56:41.000Z</time>
      </trkpt>
      <trkpt lat="47.91085" lon="7.10913">
        <ele>1219.1999511719</ele>
        <time>2021-07-11T08:56:42.000Z</time>
      </trkpt>
      <trkpt lat="47.91086" lon="7.10901">
        <ele>1219.1999511719</ele>
        <time>2021-07-11T08:56:46.000Z</time>
      </trkpt>
      <trkpt lat="47.91092" lon="7.10875">
        <ele>1219.1999511719</ele>
        <time>2021-07-11T08:56:53.000Z</time>
      </trkpt>
      <trkpt lat="47.91095" lon="7.10861">
        <ele>1219.5999755859</ele>
        <time>2021-07-11T08:56:58.000Z</time>
      </trkpt>
      <trkpt lat="47.91096" lon="7.10858">
        <ele>1220</ele>
        <time>2021-07-11T08:56:59.000Z</time>
      </trkpt>
      <trkpt lat="47.91096" lon="7.10855">
        <ele>1220.4000244141</ele>
        <time>2021-07-11T08:57:00.000Z</time>
      </trkpt>
      <trkpt lat="47.91097" lon="7.10852">
        <ele>1220.8000488281</ele>
        <time>2021-07-11T08:57:01.000Z</time>
      </trkpt>
      <trkpt lat="47.91098" lon="7.10849">
        <ele>1221.1999511719</ele>
        <time>2021-07-11T08:57:02.000Z</time>
      </trkpt>
      <trkpt lat="47.91099" lon="7.10845">
        <ele>1221.1999511719</ele>
        <time>2021-07-11T08:57:03.000Z</time>
      </trkpt>
      <trkpt lat="47.91101" lon="7.10839">
        <ele>1221.1999511719</ele>
        <time>2021-07-11T08:57:05.000Z</time>
      </trkpt>
      <trkpt lat="47.91103" lon="7.10825">
        <ele>1221.5999755859</ele>
        <time>2021-07-11T08:57:10.000Z</time>
      </trkpt>
      <trkpt lat="47.91103" lon="7.10822">
        <ele>1222</ele>
        <time>2021-07-11T08:57:11.000Z</time>
      </trkpt>
      <trkpt lat="47.91104" lon="7.10819">
        <ele>1222.4000244141</ele>
        <time>2021-07-11T08:57:12.000Z</time>
      </trkpt>
      <trkpt lat="47.91106" lon="7.10816">
        <ele>1222.8000488281</ele>
        <time>2021-07-11T08:57:13.000Z</time>
      </trkpt>
      <trkpt lat="47.91107" lon="7.10813">
        <ele>1223.1999511719</ele>
        <time>2021-07-11T08:57:14.000Z</time>
      </trkpt>
      <trkpt lat="47.91112" lon="7.10796">
        <ele>1223.1999511719</ele>
        <time>2021-07-11T08:57:19.000Z</time>
      </trkpt>
      <trkpt lat="47.91112" lon="7.10793">
        <ele>1223.5999755859</ele>
        <time>2021-07-11T08:57:20.000Z</time>
      </trkpt>
      <trkpt lat="47.91114" lon="7.1079">
        <ele>1224</ele>
        <time>2021-07-11T08:57:21.000Z</time>
      </trkpt>
      <trkpt lat="47.91114" lon="7.10787">
        <ele>1224.4000244141</ele>
        <time>2021-07-11T08:57:22.000Z</time>
      </trkpt>
      <trkpt lat="47.91115" lon="7.10784">
        <ele>1224.8000488281</ele>
        <time>2021-07-11T08:57:23.000Z</time>
      </trkpt>
      <trkpt lat="47.91115" lon="7.1078">
        <ele>1225.1999511719</ele>
        <time>2021-07-11T08:57:24.000Z</time>
      </trkpt>
      <trkpt lat="47.91117" lon="7.10771">
        <ele>1225.1999511719</ele>
        <time>2021-07-11T08:57:27.000Z</time>
      </trkpt>
      <trkpt lat="47.91119" lon="7.10764">
        <ele>1225.1999511719</ele>
        <time>2021-07-11T08:57:30.000Z</time>
      </trkpt>
      <trkpt lat="47.9112" lon="7.10762">
        <ele>1225.8000488281</ele>
        <time>2021-07-11T08:57:31.000Z</time>
      </trkpt>
      <trkpt lat="47.91121" lon="7.1076">
        <ele>1226.1999511719</ele>
        <time>2021-07-11T08:57:32.000Z</time>
      </trkpt>
      <trkpt lat="47.91123" lon="7.10757">
        <ele>1226.5999755859</ele>
        <time>2021-07-11T08:57:33.000Z</time>
      </trkpt>
      <trkpt lat="47.91124" lon="7.10755">
        <ele>1227</ele>
        <time>2021-07-11T08:57:34.000Z</time>
      </trkpt>
      <trkpt lat="47.91125" lon="7.10752">
        <ele>1227.4000244141</ele>
        <time>2021-07-11T08:57:35.000Z</time>
      </trkpt>
      <trkpt lat="47.91126" lon="7.10747">
        <ele>1227.4000244141</ele>
        <time>2021-07-11T08:57:37.000Z</time>
      </trkpt>
      <trkpt lat="47.91129" lon="7.10735">
        <ele>1227.8000488281</ele>
        <time>2021-07-11T08:57:41.000Z</time>
      </trkpt>
      <trkpt lat="47.9113" lon="7.10732">
        <ele>1228.1999511719</ele>
        <time>2021-07-11T08:57:42.000Z</time>
      </trkpt>
      <trkpt lat="47.91131" lon="7.1073">
        <ele>1228.5999755859</ele>
        <time>2021-07-11T08:57:43.000Z</time>
      </trkpt>
      <trkpt lat="47.91131" lon="7.10728">
        <ele>1229</ele>
        <time>2021-07-11T08:57:44.000Z</time>
      </trkpt>
      <trkpt lat="47.91132" lon="7.10725">
        <ele>1229.4000244141</ele>
        <time>2021-07-11T08:57:45.000Z</time>
      </trkpt>
      <trkpt lat="47.91134" lon="7.10716">
        <ele>1229.4000244141</ele>
        <time>2021-07-11T08:57:49.000Z</time>
      </trkpt>
      <trkpt lat="47.91135" lon="7.10713">
        <ele>1229.8000488281</ele>
        <time>2021-07-11T08:57:50.000Z</time>
      </trkpt>
      <trkpt lat="47.91136" lon="7.10711">
        <ele>1230.1999511719</ele>
        <time>2021-07-11T08:57:51.000Z</time>
      </trkpt>
      <trkpt lat="47.91137" lon="7.10709">
        <ele>1230.5999755859</ele>
        <time>2021-07-11T08:57:52.000Z</time>
      </trkpt>
      <trkpt lat="47.91138" lon="7.10706">
        <ele>1231</ele>
        <time>2021-07-11T08:57:53.000Z</time>
      </trkpt>
      <trkpt lat="47.9114" lon="7.10705">
        <ele>1231.5999755859</ele>
        <time>2021-07-11T08:57:54.000Z</time>
      </trkpt>
      <trkpt lat="47.91143" lon="7.10699">
        <ele>1231.5999755859</ele>
        <time>2021-07-11T08:57:57.000Z</time>
      </trkpt>
      <trkpt lat="47.91146" lon="7.10693">
        <ele>1232</ele>
        <time>2021-07-11T08:58:00.000Z</time>
      </trkpt>
      <trkpt lat="47.91147" lon="7.10691">
        <ele>1232.4000244141</ele>
        <time>2021-07-11T08:58:01.000Z</time>
      </trkpt>
      <trkpt lat="47.91148" lon="7.10689">
        <ele>1232.8000488281</ele>
        <time>2021-07-11T08:58:02.000Z</time>
      </trkpt>
      <trkpt lat="47.91148" lon="7.10686">
        <ele>1233.4000244141</ele>
        <time>2021-07-11T08:58:03.000Z</time>
      </trkpt>
      <trkpt lat="47.9115" lon="7.10684">
        <ele>1233.8000488281</ele>
        <time>2021-07-11T08:58:04.000Z</time>
      </trkpt>
      <trkpt lat="47.91154" lon="7.10672">
        <ele>1234.1999511719</ele>
        <time>2021-07-11T08:58:09.000Z</time>
      </trkpt>
      <trkpt lat="47.91154" lon="7.1067">
        <ele>1234.5999755859</ele>
        <time>2021-07-11T08:58:10.000Z</time>
      </trkpt>
      <trkpt lat="47.91155" lon="7.10668">
        <ele>1235</ele>
        <time>2021-07-11T08:58:11.000Z</time>
      </trkpt>
      <trkpt lat="47.91156" lon="7.10665">
        <ele>1235.4000244141</ele>
        <time>2021-07-11T08:58:12.000Z</time>
      </trkpt>
      <trkpt lat="47.91157" lon="7.10663">
        <ele>1236</ele>
        <time>2021-07-11T08:58:13.000Z</time>
      </trkpt>
      <trkpt lat="47.9116" lon="7.10655">
        <ele>1236</ele>
        <time>2021-07-11T08:58:17.000Z</time>
      </trkpt>
      <trkpt lat="47.91161" lon="7.10653">
        <ele>1236</ele>
        <time>2021-07-11T08:58:18.000Z</time>
      </trkpt>
      <trkpt lat="47.91162" lon="7.1065">
        <ele>1236.4000244141</ele>
        <time>2021-07-11T08:58:19.000Z</time>
      </trkpt>
      <trkpt lat="47.91163" lon="7.10648">
        <ele>1236.8000488281</ele>
        <time>2021-07-11T08:58:20.000Z</time>
      </trkpt>
      <trkpt lat="47.91163" lon="7.10645">
        <ele>1237.1999511719</ele>
        <time>2021-07-11T08:58:21.000Z</time>
      </trkpt>
      <trkpt lat="47.91164" lon="7.10643">
        <ele>1237.5999755859</ele>
        <time>2021-07-11T08:58:22.000Z</time>
      </trkpt>
      <trkpt lat="47.91164" lon="7.10641">
        <ele>1238</ele>
        <time>2021-07-11T08:58:23.000Z</time>
      </trkpt>
      <trkpt lat="47.91165" lon="7.10637">
        <ele>1238</ele>
        <time>2021-07-11T08:58:25.000Z</time>
      </trkpt>
      <trkpt lat="47.91165" lon="7.1063">
        <ele>1238.4000244141</ele>
        <time>2021-07-11T08:58:28.000Z</time>
      </trkpt>
      <trkpt lat="47.91165" lon="7.10628">
        <ele>1238.8000488281</ele>
        <time>2021-07-11T08:58:29.000Z</time>
      </trkpt>
      <trkpt lat="47.91165" lon="7.10625">
        <ele>1239.1999511719</ele>
        <time>2021-07-11T08:58:30.000Z</time>
      </trkpt>
      <trkpt lat="47.91165" lon="7.10623">
        <ele>1239.5999755859</ele>
        <time>2021-07-11T08:58:31.000Z</time>
      </trkpt>
      <trkpt lat="47.91166" lon="7.10621">
        <ele>1240</ele>
        <time>2021-07-11T08:58:32.000Z</time>
      </trkpt>
      <trkpt lat="47.91168" lon="7.10614">
        <ele>1240</ele>
        <time>2021-07-11T08:58:35.000Z</time>
      </trkpt>
      <trkpt lat="47.91168" lon="7.1061">
        <ele>1240.4000244141</ele>
        <time>2021-07-11T08:58:37.000Z</time>
      </trkpt>
      <trkpt lat="47.91168" lon="7.10608">
        <ele>1240.8000488281</ele>
        <time>2021-07-11T08:58:38.000Z</time>
      </trkpt>
      <trkpt lat="47.91168" lon="7.10605">
        <ele>1241.1999511719</ele>
        <time>2021-07-11T08:58:39.000Z</time>
      </trkpt>
      <trkpt lat="47.91169" lon="7.10603">
        <ele>1241.5999755859</ele>
        <time>2021-07-11T08:58:40.000Z</time>
      </trkpt>
      <trkpt lat="47.91169" lon="7.106">
        <ele>1242</ele>
        <time>2021-07-11T08:58:41.000Z</time>
      </trkpt>
      <trkpt lat="47.91169" lon="7.10593">
        <ele>1242</ele>
        <time>2021-07-11T08:58:44.000Z</time>
      </trkpt>
      <trkpt lat="47.9117" lon="7.10584">
        <ele>1242.4000244141</ele>
        <time>2021-07-11T08:58:48.000Z</time>
      </trkpt>
      <trkpt lat="47.9117" lon="7.10582">
        <ele>1242.8000488281</ele>
        <time>2021-07-11T08:58:49.000Z</time>
      </trkpt>
      <trkpt lat="47.91171" lon="7.1058">
        <ele>1243.4000244141</ele>
        <time>2021-07-11T08:58:50.000Z</time>
      </trkpt>
      <trkpt lat="47.91171" lon="7.10578">
        <ele>1243.8000488281</ele>
        <time>2021-07-11T08:58:51.000Z</time>
      </trkpt>
      <trkpt lat="47.91172" lon="7.10577">
        <ele>1244.1999511719</ele>
        <time>2021-07-11T08:58:52.000Z</time>
      </trkpt>
      <trkpt lat="47.91173" lon="7.10575">
        <ele>1244.1999511719</ele>
        <time>2021-07-11T08:58:53.000Z</time>
      </trkpt>
      <trkpt lat="47.91173" lon="7.10571">
        <ele>1244.1999511719</ele>
        <time>2021-07-11T08:58:55.000Z</time>
      </trkpt>
      <trkpt lat="47.9117" lon="7.10569">
        <ele>1244.1999511719</ele>
        <time>2021-07-11T08:58:58.000Z</time>
      </trkpt>
      <trkpt lat="47.91168" lon="7.10565">
        <ele>1244.5999755859</ele>
        <time>2021-07-11T08:59:00.000Z</time>
      </trkpt>
      <trkpt lat="47.91168" lon="7.10562">
        <ele>1245</ele>
        <time>2021-07-11T08:59:01.000Z</time>
      </trkpt>
      <trkpt lat="47.91167" lon="7.10561">
        <ele>1245.4000244141</ele>
        <time>2021-07-11T08:59:02.000Z</time>
      </trkpt>
      <trkpt lat="47.91166" lon="7.10559">
        <ele>1246</ele>
        <time>2021-07-11T08:59:03.000Z</time>
      </trkpt>
      <trkpt lat="47.91165" lon="7.10558">
        <ele>1246.4000244141</ele>
        <time>2021-07-11T08:59:04.000Z</time>
      </trkpt>
      <trkpt lat="47.91158" lon="7.10549">
        <ele>1246.8000488281</ele>
        <time>2021-07-11T08:59:10.000Z</time>
      </trkpt>
      <trkpt lat="47.91157" lon="7.10547">
        <ele>1247.1999511719</ele>
        <time>2021-07-11T08:59:11.000Z</time>
      </trkpt>
      <trkpt lat="47.91155" lon="7.10547">
        <ele>1247.5999755859</ele>
        <time>2021-07-11T08:59:12.000Z</time>
      </trkpt>
      <trkpt lat="47.91154" lon="7.10546">
        <ele>1248</ele>
        <time>2021-07-11T08:59:13.000Z</time>
      </trkpt>
      <trkpt lat="47.91153" lon="7.10545">
        <ele>1248.4000244141</ele>
        <time>2021-07-11T08:59:14.000Z</time>
      </trkpt>
      <trkpt lat="47.91149" lon="7.10541">
        <ele>1248.4000244141</ele>
        <time>2021-07-11T08:59:17.000Z</time>
      </trkpt>
      <trkpt lat="47.91146" lon="7.10538">
        <ele>1248.8000488281</ele>
        <time>2021-07-11T08:59:19.000Z</time>
      </trkpt>
      <trkpt lat="47.91145" lon="7.10536">
        <ele>1249.4000244141</ele>
        <time>2021-07-11T08:59:20.000Z</time>
      </trkpt>
      <trkpt lat="47.91143" lon="7.10535">
        <ele>1249.8000488281</ele>
        <time>2021-07-11T08:59:21.000Z</time>
      </trkpt>
      <trkpt lat="47.91142" lon="7.10533">
        <ele>1250.1999511719</ele>
        <time>2021-07-11T08:59:22.000Z</time>
      </trkpt>
      <trkpt lat="47.9114" lon="7.10532">
        <ele>1250.5999755859</ele>
        <time>2021-07-11T08:59:23.000Z</time>
      </trkpt>
      <trkpt lat="47.91137" lon="7.1053">
        <ele>1250.5999755859</ele>
        <time>2021-07-11T08:59:25.000Z</time>
      </trkpt>
      <trkpt lat="47.91136" lon="7.10528">
        <ele>1251</ele>
        <time>2021-07-11T08:59:26.000Z</time>
      </trkpt>
      <trkpt lat="47.91135" lon="7.10528">
        <ele>1251.4000244141</ele>
        <time>2021-07-11T08:59:27.000Z</time>
      </trkpt>
      <trkpt lat="47.91133" lon="7.10526">
        <ele>1251.8000488281</ele>
        <time>2021-07-11T08:59:28.000Z</time>
      </trkpt>
      <trkpt lat="47.91132" lon="7.10525">
        <ele>1252.1999511719</ele>
        <time>2021-07-11T08:59:29.000Z</time>
      </trkpt>
      <trkpt lat="47.9113" lon="7.10525">
        <ele>1252.5999755859</ele>
        <time>2021-07-11T08:59:30.000Z</time>
      </trkpt>
      <trkpt lat="47.91129" lon="7.10523">
        <ele>1252.5999755859</ele>
        <time>2021-07-11T08:59:31.000Z</time>
      </trkpt>
      <trkpt lat="47.91126" lon="7.10521">
        <ele>1253</ele>
        <time>2021-07-11T08:59:33.000Z</time>
      </trkpt>
      <trkpt lat="47.91125" lon="7.1052">
        <ele>1253.4000244141</ele>
        <time>2021-07-11T08:59:34.000Z</time>
      </trkpt>
      <trkpt lat="47.91123" lon="7.1052">
        <ele>1254</ele>
        <time>2021-07-11T08:59:35.000Z</time>
      </trkpt>
      <trkpt lat="47.91122" lon="7.10519">
        <ele>1254.4000244141</ele>
        <time>2021-07-11T08:59:36.000Z</time>
      </trkpt>
      <trkpt lat="47.9112" lon="7.10519">
        <ele>1254.8000488281</ele>
        <time>2021-07-11T08:59:37.000Z</time>
      </trkpt>
      <trkpt lat="47.91119" lon="7.10519">
        <ele>1254.8000488281</ele>
        <time>2021-07-11T08:59:38.000Z</time>
      </trkpt>
      <trkpt lat="47.91115" lon="7.10518">
        <ele>1255.1999511719</ele>
        <time>2021-07-11T08:59:41.000Z</time>
      </trkpt>
      <trkpt lat="47.91113" lon="7.10518">
        <ele>1255.5999755859</ele>
        <time>2021-07-11T08:59:42.000Z</time>
      </trkpt>
      <trkpt lat="47.91112" lon="7.10517">
        <ele>1256</ele>
        <time>2021-07-11T08:59:43.000Z</time>
      </trkpt>
      <trkpt lat="47.9111" lon="7.10517">
        <ele>1257</ele>
        <time>2021-07-11T08:59:44.000Z</time>
      </trkpt>
      <trkpt lat="47.91103" lon="7.10513">
        <ele>1257.4000244141</ele>
        <time>2021-07-11T08:59:49.000Z</time>
      </trkpt>
      <trkpt lat="47.91101" lon="7.10512">
        <ele>1257.8000488281</ele>
        <time>2021-07-11T08:59:50.000Z</time>
      </trkpt>
      <trkpt lat="47.911" lon="7.10512">
        <ele>1258.1999511719</ele>
        <time>2021-07-11T08:59:51.000Z</time>
      </trkpt>
      <trkpt lat="47.91098" lon="7.10511">
        <ele>1258.5999755859</ele>
        <time>2021-07-11T08:59:52.000Z</time>
      </trkpt>
      <trkpt lat="47.91097" lon="7.10511">
        <ele>1259</ele>
        <time>2021-07-11T08:59:53.000Z</time>
      </trkpt>
      <trkpt lat="47.91091" lon="7.10509">
        <ele>1259</ele>
        <time>2021-07-11T08:59:57.000Z</time>
      </trkpt>
      <trkpt lat="47.91089" lon="7.10508">
        <ele>1259.4000244141</ele>
        <time>2021-07-11T08:59:58.000Z</time>
      </trkpt>
      <trkpt lat="47.91087" lon="7.10508">
        <ele>1259.8000488281</ele>
        <time>2021-07-11T08:59:59.000Z</time>
      </trkpt>
      <trkpt lat="47.91086" lon="7.10508">
        <ele>1260.1999511719</ele>
        <time>2021-07-11T09:00:00.000Z</time>
      </trkpt>
      <trkpt lat="47.91084" lon="7.10507">
        <ele>1260.8000488281</ele>
        <time>2021-07-11T09:00:01.000Z</time>
      </trkpt>
      <trkpt lat="47.91082" lon="7.10506">
        <ele>1261.1999511719</ele>
        <time>2021-07-11T09:00:02.000Z</time>
      </trkpt>
      <trkpt lat="47.91079" lon="7.10505">
        <ele>1261.1999511719</ele>
        <time>2021-07-11T09:00:04.000Z</time>
      </trkpt>
      <trkpt lat="47.91076" lon="7.10504">
        <ele>1261.5999755859</ele>
        <time>2021-07-11T09:00:06.000Z</time>
      </trkpt>
      <trkpt lat="47.91075" lon="7.10504">
        <ele>1262</ele>
        <time>2021-07-11T09:00:07.000Z</time>
      </trkpt>
      <trkpt lat="47.91073" lon="7.10504">
        <ele>1262.8000488281</ele>
        <time>2021-07-11T09:00:08.000Z</time>
      </trkpt>
      <trkpt lat="47.91071" lon="7.10504">
        <ele>1263.1999511719</ele>
        <time>2021-07-11T09:00:09.000Z</time>
      </trkpt>
      <trkpt lat="47.91067" lon="7.10502">
        <ele>1263.1999511719</ele>
        <time>2021-07-11T09:00:12.000Z</time>
      </trkpt>
      <trkpt lat="47.91064" lon="7.10501">
        <ele>1263.8000488281</ele>
        <time>2021-07-11T09:00:14.000Z</time>
      </trkpt>
      <trkpt lat="47.91062" lon="7.105">
        <ele>1264.1999511719</ele>
        <time>2021-07-11T09:00:15.000Z</time>
      </trkpt>
      <trkpt lat="47.91061" lon="7.105">
        <ele>1264.5999755859</ele>
        <time>2021-07-11T09:00:16.000Z</time>
      </trkpt>
      <trkpt lat="47.91059" lon="7.10499">
        <ele>1265</ele>
        <time>2021-07-11T09:00:17.000Z</time>
      </trkpt>
      <trkpt lat="47.91057" lon="7.10499">
        <ele>1265.4000244141</ele>
        <time>2021-07-11T09:00:18.000Z</time>
      </trkpt>
      <trkpt lat="47.9105" lon="7.10497">
        <ele>1265.8000488281</ele>
        <time>2021-07-11T09:00:23.000Z</time>
      </trkpt>
      <trkpt lat="47.91048" lon="7.10496">
        <ele>1266.1999511719</ele>
        <time>2021-07-11T09:00:24.000Z</time>
      </trkpt>
      <trkpt lat="47.91047" lon="7.10496">
        <ele>1266.5999755859</ele>
        <time>2021-07-11T09:00:25.000Z</time>
      </trkpt>
      <trkpt lat="47.91045" lon="7.10495">
        <ele>1267.1999511719</ele>
        <time>2021-07-11T09:00:26.000Z</time>
      </trkpt>
      <trkpt lat="47.91044" lon="7.10495">
        <ele>1267.5999755859</ele>
        <time>2021-07-11T09:00:27.000Z</time>
      </trkpt>
      <trkpt lat="47.91039" lon="7.10494">
        <ele>1268</ele>
        <time>2021-07-11T09:00:30.000Z</time>
      </trkpt>
      <trkpt lat="47.91038" lon="7.10494">
        <ele>1268.4000244141</ele>
        <time>2021-07-11T09:00:31.000Z</time>
      </trkpt>
      <trkpt lat="47.91037" lon="7.10493">
        <ele>1268.8000488281</ele>
        <time>2021-07-11T09:00:32.000Z</time>
      </trkpt>
      <trkpt lat="47.91035" lon="7.10492">
        <ele>1269.5999755859</ele>
        <time>2021-07-11T09:00:33.000Z</time>
      </trkpt>
      <trkpt lat="47.91031" lon="7.10492">
        <ele>1269.5999755859</ele>
        <time>2021-07-11T09:00:36.000Z</time>
      </trkpt>
      <trkpt lat="47.91029" lon="7.10491">
        <ele>1270</ele>
        <time>2021-07-11T09:00:37.000Z</time>
      </trkpt>
      <trkpt lat="47.91028" lon="7.10491">
        <ele>1270.4000244141</ele>
        <time>2021-07-11T09:00:38.000Z</time>
      </trkpt>
      <trkpt lat="47.91026" lon="7.1049">
        <ele>1270.8000488281</ele>
        <time>2021-07-11T09:00:39.000Z</time>
      </trkpt>
      <trkpt lat="47.91025" lon="7.1049">
        <ele>1271.4000244141</ele>
        <time>2021-07-11T09:00:40.000Z</time>
      </trkpt>
      <trkpt lat="47.91023" lon="7.10489">
        <ele>1271.8000488281</ele>
        <time>2021-07-11T09:00:41.000Z</time>
      </trkpt>
      <trkpt lat="47.91022" lon="7.10488">
        <ele>1271.8000488281</ele>
        <time>2021-07-11T09:00:42.000Z</time>
      </trkpt>
      <trkpt lat="47.91017" lon="7.10486">
        <ele>1272.1999511719</ele>
        <time>2021-07-11T09:00:45.000Z</time>
      </trkpt>
      <trkpt lat="47.91016" lon="7.10485">
        <ele>1272.5999755859</ele>
        <time>2021-07-11T09:00:46.000Z</time>
      </trkpt>
      <trkpt lat="47.91014" lon="7.10485">
        <ele>1273</ele>
        <time>2021-07-11T09:00:47.000Z</time>
      </trkpt>
      <trkpt lat="47.91012" lon="7.10485">
        <ele>1273.4000244141</ele>
        <time>2021-07-11T09:00:48.000Z</time>
      </trkpt>
      <trkpt lat="47.91011" lon="7.10484">
        <ele>1273.8000488281</ele>
        <time>2021-07-11T09:00:49.000Z</time>
      </trkpt>
      <trkpt lat="47.91006" lon="7.10482">
        <ele>1274.1999511719</ele>
        <time>2021-07-11T09:00:52.000Z</time>
      </trkpt>
      <trkpt lat="47.91005" lon="7.10482">
        <ele>1274.5999755859</ele>
        <time>2021-07-11T09:00:53.000Z</time>
      </trkpt>
      <trkpt lat="47.91003" lon="7.10481">
        <ele>1275</ele>
        <time>2021-07-11T09:00:54.000Z</time>
      </trkpt>
      <trkpt lat="47.91001" lon="7.10481">
        <ele>1275.4000244141</ele>
        <time>2021-07-11T09:00:55.000Z</time>
      </trkpt>
      <trkpt lat="47.91" lon="7.1048">
        <ele>1275.8000488281</ele>
        <time>2021-07-11T09:00:56.000Z</time>
      </trkpt>
      <trkpt lat="47.90996" lon="7.10481">
        <ele>1276.1999511719</ele>
        <time>2021-07-11T09:00:58.000Z</time>
      </trkpt>
      <trkpt lat="47.90995" lon="7.10481">
        <ele>1276.5999755859</ele>
        <time>2021-07-11T09:00:59.000Z</time>
      </trkpt>
      <trkpt lat="47.90994" lon="7.10481">
        <ele>1277</ele>
        <time>2021-07-11T09:01:00.000Z</time>
      </trkpt>
      <trkpt lat="47.90992" lon="7.10481">
        <ele>1277.4000244141</ele>
        <time>2021-07-11T09:01:01.000Z</time>
      </trkpt>
      <trkpt lat="47.9099" lon="7.10482">
        <ele>1277.8000488281</ele>
        <time>2021-07-11T09:01:02.000Z</time>
      </trkpt>
      <trkpt lat="47.90984" lon="7.10483">
        <ele>1278.4000244141</ele>
        <time>2021-07-11T09:01:06.000Z</time>
      </trkpt>
      <trkpt lat="47.90982" lon="7.10484">
        <ele>1278.8000488281</ele>
        <time>2021-07-11T09:01:07.000Z</time>
      </trkpt>
      <trkpt lat="47.90981" lon="7.10485">
        <ele>1279.1999511719</ele>
        <time>2021-07-11T09:01:08.000Z</time>
      </trkpt>
      <trkpt lat="47.90979" lon="7.10486">
        <ele>1279.5999755859</ele>
        <time>2021-07-11T09:01:09.000Z</time>
      </trkpt>
      <trkpt lat="47.90977" lon="7.10487">
        <ele>1280</ele>
        <time>2021-07-11T09:01:10.000Z</time>
      </trkpt>
      <trkpt lat="47.90969" lon="7.10488">
        <ele>1280.5999755859</ele>
        <time>2021-07-11T09:01:15.000Z</time>
      </trkpt>
      <trkpt lat="47.90967" lon="7.10488">
        <ele>1281</ele>
        <time>2021-07-11T09:01:16.000Z</time>
      </trkpt>
      <trkpt lat="47.90966" lon="7.10488">
        <ele>1281.4000244141</ele>
        <time>2021-07-11T09:01:17.000Z</time>
      </trkpt>
      <trkpt lat="47.90964" lon="7.10489">
        <ele>1281.8000488281</ele>
        <time>2021-07-11T09:01:18.000Z</time>
      </trkpt>
      <trkpt lat="47.90963" lon="7.10489">
        <ele>1282.1999511719</ele>
        <time>2021-07-11T09:01:19.000Z</time>
      </trkpt>
      <trkpt lat="47.90956" lon="7.10489">
        <ele>1282.5999755859</ele>
        <time>2021-07-11T09:01:23.000Z</time>
      </trkpt>
      <trkpt lat="47.90955" lon="7.10489">
        <ele>1283</ele>
        <time>2021-07-11T09:01:24.000Z</time>
      </trkpt>
      <trkpt lat="47.90953" lon="7.10488">
        <ele>1283.4000244141</ele>
        <time>2021-07-11T09:01:25.000Z</time>
      </trkpt>
      <trkpt lat="47.90951" lon="7.10488">
        <ele>1283.8000488281</ele>
        <time>2021-07-11T09:01:26.000Z</time>
      </trkpt>
      <trkpt lat="47.9095" lon="7.10488">
        <ele>1284.1999511719</ele>
        <time>2021-07-11T09:01:27.000Z</time>
      </trkpt>
      <trkpt lat="47.90944" lon="7.10487">
        <ele>1284.8000488281</ele>
        <time>2021-07-11T09:01:31.000Z</time>
      </trkpt>
      <trkpt lat="47.90942" lon="7.10488">
        <ele>1285.1999511719</ele>
        <time>2021-07-11T09:01:32.000Z</time>
      </trkpt>
      <trkpt lat="47.90941" lon="7.10488">
        <ele>1285.5999755859</ele>
        <time>2021-07-11T09:01:33.000Z</time>
      </trkpt>
      <trkpt lat="47.90939" lon="7.10488">
        <ele>1286</ele>
        <time>2021-07-11T09:01:34.000Z</time>
      </trkpt>
      <trkpt lat="47.90937" lon="7.10488">
        <ele>1286.5999755859</ele>
        <time>2021-07-11T09:01:35.000Z</time>
      </trkpt>
      <trkpt lat="47.90933" lon="7.10489">
        <ele>1286.5999755859</ele>
        <time>2021-07-11T09:01:38.000Z</time>
      </trkpt>
      <trkpt lat="47.90931" lon="7.10489">
        <ele>1287</ele>
        <time>2021-07-11T09:01:39.000Z</time>
      </trkpt>
      <trkpt lat="47.9093" lon="7.10489">
        <ele>1287.4000244141</ele>
        <time>2021-07-11T09:01:40.000Z</time>
      </trkpt>
      <trkpt lat="47.90928" lon="7.10488">
        <ele>1287.8000488281</ele>
        <time>2021-07-11T09:01:41.000Z</time>
      </trkpt>
      <trkpt lat="47.90927" lon="7.10488">
        <ele>1288.1999511719</ele>
        <time>2021-07-11T09:01:42.000Z</time>
      </trkpt>
      <trkpt lat="47.90925" lon="7.10489">
        <ele>1288.8000488281</ele>
        <time>2021-07-11T09:01:43.000Z</time>
      </trkpt>
      <trkpt lat="47.90922" lon="7.1049">
        <ele>1288.8000488281</ele>
        <time>2021-07-11T09:01:45.000Z</time>
      </trkpt>
      <trkpt lat="47.90919" lon="7.10489">
        <ele>1289.1999511719</ele>
        <time>2021-07-11T09:01:47.000Z</time>
      </trkpt>
      <trkpt lat="47.90917" lon="7.10489">
        <ele>1290</ele>
        <time>2021-07-11T09:01:48.000Z</time>
      </trkpt>
      <trkpt lat="47.90916" lon="7.1049">
        <ele>1290.4000244141</ele>
        <time>2021-07-11T09:01:49.000Z</time>
      </trkpt>
      <trkpt lat="47.90914" lon="7.1049">
        <ele>1290.8000488281</ele>
        <time>2021-07-11T09:01:50.000Z</time>
      </trkpt>
      <trkpt lat="47.90911" lon="7.1049">
        <ele>1290.8000488281</ele>
        <time>2021-07-11T09:01:52.000Z</time>
      </trkpt>
      <trkpt lat="47.90907" lon="7.10489">
        <ele>1291.1999511719</ele>
        <time>2021-07-11T09:01:54.000Z</time>
      </trkpt>
      <trkpt lat="47.90905" lon="7.10489">
        <ele>1291.8000488281</ele>
        <time>2021-07-11T09:01:55.000Z</time>
      </trkpt>
      <trkpt lat="47.90904" lon="7.1049">
        <ele>1292.1999511719</ele>
        <time>2021-07-11T09:01:56.000Z</time>
      </trkpt>
      <trkpt lat="47.90902" lon="7.10491">
        <ele>1292.5999755859</ele>
        <time>2021-07-11T09:01:57.000Z</time>
      </trkpt>
      <trkpt lat="47.90901" lon="7.10491">
        <ele>1293</ele>
        <time>2021-07-11T09:01:58.000Z</time>
      </trkpt>
      <trkpt lat="47.90899" lon="7.10491">
        <ele>1293</ele>
        <time>2021-07-11T09:01:59.000Z</time>
      </trkpt>
      <trkpt lat="47.90889" lon="7.1049">
        <ele>1293.4000244141</ele>
        <time>2021-07-11T09:02:05.000Z</time>
      </trkpt>
      <trkpt lat="47.90887" lon="7.10491">
        <ele>1294</ele>
        <time>2021-07-11T09:02:06.000Z</time>
      </trkpt>
      <trkpt lat="47.90885" lon="7.1049">
        <ele>1294.4000244141</ele>
        <time>2021-07-11T09:02:07.000Z</time>
      </trkpt>
      <trkpt lat="47.90884" lon="7.1049">
        <ele>1294.8000488281</ele>
        <time>2021-07-11T09:02:08.000Z</time>
      </trkpt>
      <trkpt lat="47.90882" lon="7.1049">
        <ele>1295.1999511719</ele>
        <time>2021-07-11T09:02:09.000Z</time>
      </trkpt>
      <trkpt lat="47.90876" lon="7.10485">
        <ele>1295.1999511719</ele>
        <time>2021-07-11T09:02:13.000Z</time>
      </trkpt>
      <trkpt lat="47.90867" lon="7.10483">
        <ele>1295.5999755859</ele>
        <time>2021-07-11T09:02:18.000Z</time>
      </trkpt>
      <trkpt lat="47.90866" lon="7.10483">
        <ele>1296</ele>
        <time>2021-07-11T09:02:19.000Z</time>
      </trkpt>
      <trkpt lat="47.90864" lon="7.10483">
        <ele>1296.5999755859</ele>
        <time>2021-07-11T09:02:20.000Z</time>
      </trkpt>
      <trkpt lat="47.90862" lon="7.10482">
        <ele>1297</ele>
        <time>2021-07-11T09:02:21.000Z</time>
      </trkpt>
      <trkpt lat="47.9086" lon="7.10482">
        <ele>1297.4000244141</ele>
        <time>2021-07-11T09:02:22.000Z</time>
      </trkpt>
      <trkpt lat="47.90851" lon="7.10478">
        <ele>1297.4000244141</ele>
        <time>2021-07-11T09:02:27.000Z</time>
      </trkpt>
      <trkpt lat="47.90838" lon="7.10473">
        <ele>1297.8000488281</ele>
        <time>2021-07-11T09:02:34.000Z</time>
      </trkpt>
      <trkpt lat="47.90836" lon="7.10471">
        <ele>1298.1999511719</ele>
        <time>2021-07-11T09:02:35.000Z</time>
      </trkpt>
      <trkpt lat="47.90834" lon="7.10471">
        <ele>1298.5999755859</ele>
        <time>2021-07-11T09:02:36.000Z</time>
      </trkpt>
      <trkpt lat="47.90833" lon="7.10472">
        <ele>1299.4000244141</ele>
        <time>2021-07-11T09:02:37.000Z</time>
      </trkpt>
      <trkpt lat="47.90825" lon="7.10469">
        <ele>1299.4000244141</ele>
        <time>2021-07-11T09:02:41.000Z</time>
      </trkpt>
      <trkpt lat="47.90816" lon="7.10465">
        <ele>1299.8000488281</ele>
        <time>2021-07-11T09:02:45.000Z</time>
      </trkpt>
      <trkpt lat="47.90814" lon="7.10464">
        <ele>1300.1999511719</ele>
        <time>2021-07-11T09:02:46.000Z</time>
      </trkpt>
      <trkpt lat="47.90811" lon="7.10464">
        <ele>1300.5999755859</ele>
        <time>2021-07-11T09:02:47.000Z</time>
      </trkpt>
      <trkpt lat="47.9081" lon="7.10463">
        <ele>1301</ele>
        <time>2021-07-11T09:02:48.000Z</time>
      </trkpt>
      <trkpt lat="47.90808" lon="7.10462">
        <ele>1301.4000244141</ele>
        <time>2021-07-11T09:02:49.000Z</time>
      </trkpt>
      <trkpt lat="47.90793" lon="7.10457">
        <ele>1301.4000244141</ele>
        <time>2021-07-11T09:02:57.000Z</time>
      </trkpt>
      <trkpt lat="47.90786" lon="7.10455">
        <ele>1301.8000488281</ele>
        <time>2021-07-11T09:03:01.000Z</time>
      </trkpt>
      <trkpt lat="47.90784" lon="7.10455">
        <ele>1302.5999755859</ele>
        <time>2021-07-11T09:03:02.000Z</time>
      </trkpt>
      <trkpt lat="47.90782" lon="7.10454">
        <ele>1303</ele>
        <time>2021-07-11T09:03:03.000Z</time>
      </trkpt>
      <trkpt lat="47.9078" lon="7.10454">
        <ele>1303.4000244141</ele>
        <time>2021-07-11T09:03:04.000Z</time>
      </trkpt>
      <trkpt lat="47.90772" lon="7.10452">
        <ele>1303.4000244141</ele>
        <time>2021-07-11T09:03:10.000Z</time>
      </trkpt>
      <trkpt lat="47.90765" lon="7.10448">
        <ele>1304</ele>
        <time>2021-07-11T09:03:13.000Z</time>
      </trkpt>
      <trkpt lat="47.90764" lon="7.10447">
        <ele>1304.4000244141</ele>
        <time>2021-07-11T09:03:14.000Z</time>
      </trkpt>
      <trkpt lat="47.90762" lon="7.10446">
        <ele>1304.8000488281</ele>
        <time>2021-07-11T09:03:15.000Z</time>
      </trkpt>
      <trkpt lat="47.9076" lon="7.10445">
        <ele>1305.1999511719</ele>
        <time>2021-07-11T09:03:16.000Z</time>
      </trkpt>
      <trkpt lat="47.90758" lon="7.10443">
        <ele>1305.5999755859</ele>
        <time>2021-07-11T09:03:17.000Z</time>
      </trkpt>
      <trkpt lat="47.90748" lon="7.10434">
        <ele>1306</ele>
        <time>2021-07-11T09:03:23.000Z</time>
      </trkpt>
      <trkpt lat="47.90746" lon="7.10433">
        <ele>1306.5999755859</ele>
        <time>2021-07-11T09:03:24.000Z</time>
      </trkpt>
      <trkpt lat="47.90744" lon="7.10432">
        <ele>1307</ele>
        <time>2021-07-11T09:03:25.000Z</time>
      </trkpt>
      <trkpt lat="47.90742" lon="7.10431">
        <ele>1307.4000244141</ele>
        <time>2021-07-11T09:03:26.000Z</time>
      </trkpt>
      <trkpt lat="47.9074" lon="7.10429">
        <ele>1307.8000488281</ele>
        <time>2021-07-11T09:03:27.000Z</time>
      </trkpt>
      <trkpt lat="47.90732" lon="7.10425">
        <ele>1307.8000488281</ele>
        <time>2021-07-11T09:03:31.000Z</time>
      </trkpt>
      <trkpt lat="47.90724" lon="7.10417">
        <ele>1308.1999511719</ele>
        <time>2021-07-11T09:03:37.000Z</time>
      </trkpt>
      <trkpt lat="47.90722" lon="7.10416">
        <ele>1308.5999755859</ele>
        <time>2021-07-11T09:03:38.000Z</time>
      </trkpt>
      <trkpt lat="47.9072" lon="7.10414">
        <ele>1309</ele>
        <time>2021-07-11T09:03:39.000Z</time>
      </trkpt>
      <trkpt lat="47.90718" lon="7.10412">
        <ele>1309.4000244141</ele>
        <time>2021-07-11T09:03:40.000Z</time>
      </trkpt>
      <trkpt lat="47.90716" lon="7.10411">
        <ele>1309.8000488281</ele>
        <time>2021-07-11T09:03:41.000Z</time>
      </trkpt>
      <trkpt lat="47.90708" lon="7.10408">
        <ele>1309.8000488281</ele>
        <time>2021-07-11T09:03:45.000Z</time>
      </trkpt>
      <trkpt lat="47.90695" lon="7.10408">
        <ele>1310.1999511719</ele>
        <time>2021-07-11T09:03:50.000Z</time>
      </trkpt>
      <trkpt lat="47.90693" lon="7.10409">
        <ele>1311.1999511719</ele>
        <time>2021-07-11T09:03:51.000Z</time>
      </trkpt>
      <trkpt lat="47.90691" lon="7.10411">
        <ele>1311.5999755859</ele>
        <time>2021-07-11T09:03:52.000Z</time>
      </trkpt>
      <trkpt lat="47.9069" lon="7.10413">
        <ele>1312</ele>
        <time>2021-07-11T09:03:53.000Z</time>
      </trkpt>
      <trkpt lat="47.90688" lon="7.10417">
        <ele>1312.4000244141</ele>
        <time>2021-07-11T09:03:55.000Z</time>
      </trkpt>
      <trkpt lat="47.90688" lon="7.1042">
        <ele>1312.8000488281</ele>
        <time>2021-07-11T09:03:56.000Z</time>
      </trkpt>
      <trkpt lat="47.90687" lon="7.10422">
        <ele>1313.1999511719</ele>
        <time>2021-07-11T09:03:57.000Z</time>
      </trkpt>
      <trkpt lat="47.90685" lon="7.10423">
        <ele>1313.5999755859</ele>
        <time>2021-07-11T09:03:58.000Z</time>
      </trkpt>
      <trkpt lat="47.90684" lon="7.10424">
        <ele>1314</ele>
        <time>2021-07-11T09:03:59.000Z</time>
      </trkpt>
      <trkpt lat="47.90682" lon="7.10427">
        <ele>1314.4000244141</ele>
        <time>2021-07-11T09:04:01.000Z</time>
      </trkpt>
      <trkpt lat="47.90681" lon="7.10429">
        <ele>1314.8000488281</ele>
        <time>2021-07-11T09:04:02.000Z</time>
      </trkpt>
      <trkpt lat="47.90681" lon="7.1043">
        <ele>1315.1999511719</ele>
        <time>2021-07-11T09:04:03.000Z</time>
      </trkpt>
      <trkpt lat="47.90681" lon="7.1043">
        <ele>1315.8000488281</ele>
        <time>2021-07-11T09:04:04.000Z</time>
      </trkpt>
      <trkpt lat="47.90681" lon="7.1043">
        <ele>1316.1999511719</ele>
        <time>2021-07-11T09:04:05.000Z</time>
      </trkpt>
      <trkpt lat="47.90661" lon="7.10443">
        <ele>1322.4000244141</ele>
        <time>2021-07-11T09:05:04.000Z</time>
      </trkpt>
      <trkpt lat="47.90645" lon="7.10431">
        <ele>1322.4000244141</ele>
        <time>2021-07-11T09:05:08.000Z</time>
      </trkpt>
      <trkpt lat="47.90642" lon="7.10428">
        <ele>1322</ele>
        <time>2021-07-11T09:05:09.000Z</time>
      </trkpt>
      <trkpt lat="47.90638" lon="7.10425">
        <ele>1321.4000244141</ele>
        <time>2021-07-11T09:05:10.000Z</time>
      </trkpt>
      <trkpt lat="47.90635" lon="7.10423">
        <ele>1321</ele>
        <time>2021-07-11T09:05:11.000Z</time>
      </trkpt>
      <trkpt lat="47.90634" lon="7.10422">
        <ele>1320.4000244141</ele>
        <time>2021-07-11T09:05:12.000Z</time>
      </trkpt>
      <trkpt lat="47.90632" lon="7.10421">
        <ele>1320</ele>
        <time>2021-07-11T09:05:13.000Z</time>
      </trkpt>
      <trkpt lat="47.9063" lon="7.10419">
        <ele>1320</ele>
        <time>2021-07-11T09:05:14.000Z</time>
      </trkpt>
      <trkpt lat="47.90621" lon="7.10417">
        <ele>1320</ele>
        <time>2021-07-11T09:05:19.000Z</time>
      </trkpt>
      <trkpt lat="47.90611" lon="7.10407">
        <ele>1320</ele>
        <time>2021-07-11T09:05:26.000Z</time>
      </trkpt>
      <trkpt lat="47.90602" lon="7.10401">
        <ele>1320.4000244141</ele>
        <time>2021-07-11T09:05:31.000Z</time>
      </trkpt>
      <trkpt lat="47.90601" lon="7.10401">
        <ele>1320.8000488281</ele>
        <time>2021-07-11T09:05:32.000Z</time>
      </trkpt>
      <trkpt lat="47.90599" lon="7.104">
        <ele>1321.1999511719</ele>
        <time>2021-07-11T09:05:33.000Z</time>
      </trkpt>
      <trkpt lat="47.90597" lon="7.10399">
        <ele>1321.5999755859</ele>
        <time>2021-07-11T09:05:34.000Z</time>
      </trkpt>
      <trkpt lat="47.90595" lon="7.10398">
        <ele>1322</ele>
        <time>2021-07-11T09:05:35.000Z</time>
      </trkpt>
      <trkpt lat="47.9059" lon="7.10393">
        <ele>1322</ele>
        <time>2021-07-11T09:05:38.000Z</time>
      </trkpt>
      <trkpt lat="47.90579" lon="7.10382">
        <ele>1322</ele>
        <time>2021-07-11T09:05:45.000Z</time>
      </trkpt>
      <trkpt lat="47.9057" lon="7.10375">
        <ele>1322.4000244141</ele>
        <time>2021-07-11T09:05:50.000Z</time>
      </trkpt>
      <trkpt lat="47.90569" lon="7.10373">
        <ele>1322.8000488281</ele>
        <time>2021-07-11T09:05:51.000Z</time>
      </trkpt>
      <trkpt lat="47.90568" lon="7.10372">
        <ele>1323.4000244141</ele>
        <time>2021-07-11T09:05:52.000Z</time>
      </trkpt>
      <trkpt lat="47.90566" lon="7.10371">
        <ele>1323.8000488281</ele>
        <time>2021-07-11T09:05:53.000Z</time>
      </trkpt>
      <trkpt lat="47.90565" lon="7.10369">
        <ele>1324.1999511719</ele>
        <time>2021-07-11T09:05:54.000Z</time>
      </trkpt>
      <trkpt lat="47.90558" lon="7.10364">
        <ele>1324.1999511719</ele>
        <time>2021-07-11T09:05:59.000Z</time>
      </trkpt>
      <trkpt lat="47.90551" lon="7.10358">
        <ele>1324.5999755859</ele>
        <time>2021-07-11T09:06:03.000Z</time>
      </trkpt>
      <trkpt lat="47.9055" lon="7.10356">
        <ele>1325</ele>
        <time>2021-07-11T09:06:04.000Z</time>
      </trkpt>
      <trkpt lat="47.90549" lon="7.10355">
        <ele>1325.4000244141</ele>
        <time>2021-07-11T09:06:05.000Z</time>
      </trkpt>
      <trkpt lat="47.90548" lon="7.10353">
        <ele>1325.8000488281</ele>
        <time>2021-07-11T09:06:06.000Z</time>
      </trkpt>
      <trkpt lat="47.90546" lon="7.10352">
        <ele>1326.1999511719</ele>
        <time>2021-07-11T09:06:07.000Z</time>
      </trkpt>
      <trkpt lat="47.90539" lon="7.10342">
        <ele>1326.1999511719</ele>
        <time>2021-07-11T09:06:12.000Z</time>
      </trkpt>
      <trkpt lat="47.90531" lon="7.1033">
        <ele>1326.1999511719</ele>
        <time>2021-07-11T09:06:19.000Z</time>
      </trkpt>
      <trkpt lat="47.90526" lon="7.10325">
        <ele>1326.5999755859</ele>
        <time>2021-07-11T09:06:22.000Z</time>
      </trkpt>
      <trkpt lat="47.90525" lon="7.10324">
        <ele>1327</ele>
        <time>2021-07-11T09:06:23.000Z</time>
      </trkpt>
      <trkpt lat="47.90523" lon="7.10322">
        <ele>1327.4000244141</ele>
        <time>2021-07-11T09:06:24.000Z</time>
      </trkpt>
      <trkpt lat="47.90522" lon="7.1032">
        <ele>1327.8000488281</ele>
        <time>2021-07-11T09:06:25.000Z</time>
      </trkpt>
      <trkpt lat="47.9052" lon="7.10319">
        <ele>1328.1999511719</ele>
        <time>2021-07-11T09:06:26.000Z</time>
      </trkpt>
      <trkpt lat="47.90512" lon="7.10316">
        <ele>1328.5999755859</ele>
        <time>2021-07-11T09:06:32.000Z</time>
      </trkpt>
      <trkpt lat="47.90511" lon="7.10316">
        <ele>1329</ele>
        <time>2021-07-11T09:06:33.000Z</time>
      </trkpt>
      <trkpt lat="47.90509" lon="7.10316">
        <ele>1329.4000244141</ele>
        <time>2021-07-11T09:06:34.000Z</time>
      </trkpt>
      <trkpt lat="47.90508" lon="7.10316">
        <ele>1330</ele>
        <time>2021-07-11T09:06:35.000Z</time>
      </trkpt>
      <trkpt lat="47.90506" lon="7.10317">
        <ele>1330.4000244141</ele>
        <time>2021-07-11T09:06:36.000Z</time>
      </trkpt>
      <trkpt lat="47.90502" lon="7.10319">
        <ele>1330.4000244141</ele>
        <time>2021-07-11T09:06:39.000Z</time>
      </trkpt>
      <trkpt lat="47.90496" lon="7.1033">
        <ele>1330.4000244141</ele>
        <time>2021-07-11T09:06:45.000Z</time>
      </trkpt>
      <trkpt lat="47.90495" lon="7.10339">
        <ele>1330.8000488281</ele>
        <time>2021-07-11T09:06:49.000Z</time>
      </trkpt>
      <trkpt lat="47.90494" lon="7.10342">
        <ele>1331.1999511719</ele>
        <time>2021-07-11T09:06:50.000Z</time>
      </trkpt>
      <trkpt lat="47.90494" lon="7.10345">
        <ele>1331.5999755859</ele>
        <time>2021-07-11T09:06:51.000Z</time>
      </trkpt>
      <trkpt lat="47.90493" lon="7.10347">
        <ele>1332</ele>
        <time>2021-07-11T09:06:52.000Z</time>
      </trkpt>
      <trkpt lat="47.90492" lon="7.1035">
        <ele>1332.4000244141</ele>
        <time>2021-07-11T09:06:53.000Z</time>
      </trkpt>
      <trkpt lat="47.90489" lon="7.10364">
        <ele>1332.4000244141</ele>
        <time>2021-07-11T09:06:58.000Z</time>
      </trkpt>
      <trkpt lat="47.90483" lon="7.10375">
        <ele>1332.4000244141</ele>
        <time>2021-07-11T09:07:04.000Z</time>
      </trkpt>
      <trkpt lat="47.90483" lon="7.10375">
        <ele>1332.4000244141</ele>
        <time>2021-07-11T09:07:05.000Z</time>
      </trkpt>
      <trkpt lat="47.90492" lon="7.10373">
        <ele>1332.4000244141</ele>
        <time>2021-07-11T09:08:42.000Z</time>
      </trkpt>
      <trkpt lat="47.90494" lon="7.10371">
        <ele>1332.4000244141</ele>
        <time>2021-07-11T09:08:43.000Z</time>
      </trkpt>
      <trkpt lat="47.90504" lon="7.10374">
        <ele>1332.4000244141</ele>
        <time>2021-07-11T09:08:46.000Z</time>
      </trkpt>
      <trkpt lat="47.90511" lon="7.10382">
        <ele>1332.4000244141</ele>
        <time>2021-07-11T09:08:49.000Z</time>
      </trkpt>
      <trkpt lat="47.90514" lon="7.10388">
        <ele>1332.4000244141</ele>
        <time>2021-07-11T09:08:51.000Z</time>
      </trkpt>
      <trkpt lat="47.9052" lon="7.10395">
        <ele>1332.4000244141</ele>
        <time>2021-07-11T09:08:54.000Z</time>
      </trkpt>
      <trkpt lat="47.90522" lon="7.10396">
        <ele>1332.4000244141</ele>
        <time>2021-07-11T09:08:55.000Z</time>
      </trkpt>
      <trkpt lat="47.90527" lon="7.10392">
        <ele>1332.4000244141</ele>
        <time>2021-07-11T09:08:58.000Z</time>
      </trkpt>
      <trkpt lat="47.90528" lon="7.10392">
        <ele>1332.4000244141</ele>
        <time>2021-07-11T09:08:59.000Z</time>
      </trkpt>
      <trkpt lat="47.9053" lon="7.10395">
        <ele>1332.4000244141</ele>
        <time>2021-07-11T09:09:25.000Z</time>
      </trkpt>
      <trkpt lat="47.90531" lon="7.10396">
        <ele>1332.4000244141</ele>
        <time>2021-07-11T09:09:26.000Z</time>
      </trkpt>
      <trkpt lat="47.90538" lon="7.10402">
        <ele>1332.4000244141</ele>
        <time>2021-07-11T09:09:29.000Z</time>
      </trkpt>
      <trkpt lat="47.90544" lon="7.10406">
        <ele>1332.4000244141</ele>
        <time>2021-07-11T09:09:31.000Z</time>
      </trkpt>
      <trkpt lat="47.90555" lon="7.10412">
        <ele>1332</ele>
        <time>2021-07-11T09:09:34.000Z</time>
      </trkpt>
      <trkpt lat="47.90558" lon="7.10415">
        <ele>1331.5999755859</ele>
        <time>2021-07-11T09:09:35.000Z</time>
      </trkpt>
      <trkpt lat="47.90561" lon="7.10418">
        <ele>1331.1999511719</ele>
        <time>2021-07-11T09:09:36.000Z</time>
      </trkpt>
      <trkpt lat="47.90563" lon="7.1042">
        <ele>1330.8000488281</ele>
        <time>2021-07-11T09:09:37.000Z</time>
      </trkpt>
      <trkpt lat="47.90564" lon="7.10421">
        <ele>1330.1999511719</ele>
        <time>2021-07-11T09:09:38.000Z</time>
      </trkpt>
      <trkpt lat="47.9056" lon="7.10416">
        <ele>1330.1999511719</ele>
        <time>2021-07-11T09:09:51.000Z</time>
      </trkpt>
      <trkpt lat="47.9055" lon="7.10411">
        <ele>1330.1999511719</ele>
        <time>2021-07-11T09:09:56.000Z</time>
      </trkpt>
      <trkpt lat="47.90538" lon="7.10403">
        <ele>1330.1999511719</ele>
        <time>2021-07-11T09:10:02.000Z</time>
      </trkpt>
      <trkpt lat="47.90525" lon="7.10396">
        <ele>1330.1999511719</ele>
        <time>2021-07-11T09:10:09.000Z</time>
      </trkpt>
      <trkpt lat="47.90522" lon="7.10396">
        <ele>1330.1999511719</ele>
        <time>2021-07-11T09:10:11.000Z</time>
      </trkpt>
      <trkpt lat="47.90519" lon="7.10392">
        <ele>1330.1999511719</ele>
        <time>2021-07-11T09:10:13.000Z</time>
      </trkpt>
      <trkpt lat="47.90516" lon="7.10387">
        <ele>1330.8000488281</ele>
        <time>2021-07-11T09:10:15.000Z</time>
      </trkpt>
      <trkpt lat="47.90514" lon="7.10385">
        <ele>1331.1999511719</ele>
        <time>2021-07-11T09:10:16.000Z</time>
      </trkpt>
      <trkpt lat="47.90513" lon="7.10382">
        <ele>1331.5999755859</ele>
        <time>2021-07-11T09:10:17.000Z</time>
      </trkpt>
      <trkpt lat="47.90511" lon="7.1038">
        <ele>1332</ele>
        <time>2021-07-11T09:10:18.000Z</time>
      </trkpt>
      <trkpt lat="47.9051" lon="7.10378">
        <ele>1332.4000244141</ele>
        <time>2021-07-11T09:10:19.000Z</time>
      </trkpt>
      <trkpt lat="47.90502" lon="7.10367">
        <ele>1332.4000244141</ele>
        <time>2021-07-11T09:10:25.000Z</time>
      </trkpt>
      <trkpt lat="47.90492" lon="7.10366">
        <ele>1332.4000244141</ele>
        <time>2021-07-11T09:10:31.000Z</time>
      </trkpt>
      <trkpt lat="47.90488" lon="7.10367">
        <ele>1332.4000244141</ele>
        <time>2021-07-11T09:10:34.000Z</time>
      </trkpt>
      <trkpt lat="47.90487" lon="7.10368">
        <ele>1332.4000244141</ele>
        <time>2021-07-11T09:10:36.000Z</time>
      </trkpt>
      <trkpt lat="47.90486" lon="7.1037">
        <ele>1332.4000244141</ele>
        <time>2021-07-11T09:13:06.000Z</time>
      </trkpt>
      <trkpt lat="47.90482" lon="7.10379">
        <ele>1332.4000244141</ele>
        <time>2021-07-11T09:13:08.000Z</time>
      </trkpt>
      <trkpt lat="47.90477" lon="7.10393">
        <ele>1332.4000244141</ele>
        <time>2021-07-11T09:13:12.000Z</time>
      </trkpt>
      <trkpt lat="47.90476" lon="7.10395">
        <ele>1332.4000244141</ele>
        <time>2021-07-11T09:13:15.000Z</time>
      </trkpt>
      <trkpt lat="47.90474" lon="7.10395">
        <ele>1332.4000244141</ele>
        <time>2021-07-11T09:14:42.000Z</time>
      </trkpt>
      <trkpt lat="47.90471" lon="7.10402">
        <ele>1332.4000244141</ele>
        <time>2021-07-11T09:14:44.000Z</time>
      </trkpt>
      <trkpt lat="47.90464" lon="7.10413">
        <ele>1332</ele>
        <time>2021-07-11T09:14:47.000Z</time>
      </trkpt>
      <trkpt lat="47.9046" lon="7.10415">
        <ele>1331.5999755859</ele>
        <time>2021-07-11T09:14:48.000Z</time>
      </trkpt>
      <trkpt lat="47.90458" lon="7.10417">
        <ele>1331.1999511719</ele>
        <time>2021-07-11T09:14:49.000Z</time>
      </trkpt>
      <trkpt lat="47.90455" lon="7.1042">
        <ele>1330.8000488281</ele>
        <time>2021-07-11T09:14:50.000Z</time>
      </trkpt>
      <trkpt lat="47.90453" lon="7.10422">
        <ele>1330.4000244141</ele>
        <time>2021-07-11T09:14:51.000Z</time>
      </trkpt>
      <trkpt lat="47.9045" lon="7.10425">
        <ele>1329.8000488281</ele>
        <time>2021-07-11T09:14:52.000Z</time>
      </trkpt>
      <trkpt lat="47.90448" lon="7.10427">
        <ele>1329.4000244141</ele>
        <time>2021-07-11T09:14:53.000Z</time>
      </trkpt>
      <trkpt lat="47.90447" lon="7.1043">
        <ele>1329</ele>
        <time>2021-07-11T09:14:54.000Z</time>
      </trkpt>
      <trkpt lat="47.90445" lon="7.10433">
        <ele>1328.4000244141</ele>
        <time>2021-07-11T09:14:55.000Z</time>
      </trkpt>
      <trkpt lat="47.90443" lon="7.10436">
        <ele>1327.8000488281</ele>
        <time>2021-07-11T09:14:56.000Z</time>
      </trkpt>
      <trkpt lat="47.9044" lon="7.10438">
        <ele>1327.1999511719</ele>
        <time>2021-07-11T09:14:57.000Z</time>
      </trkpt>
      <trkpt lat="47.90439" lon="7.10441">
        <ele>1326.4000244141</ele>
        <time>2021-07-11T09:14:58.000Z</time>
      </trkpt>
      <trkpt lat="47.90437" lon="7.10443">
        <ele>1325.5999755859</ele>
        <time>2021-07-11T09:14:59.000Z</time>
      </trkpt>
      <trkpt lat="47.90435" lon="7.10446">
        <ele>1324.1999511719</ele>
        <time>2021-07-11T09:15:00.000Z</time>
      </trkpt>
      <trkpt lat="47.90434" lon="7.1045">
        <ele>1323.5999755859</ele>
        <time>2021-07-11T09:15:01.000Z</time>
      </trkpt>
      <trkpt lat="47.90433" lon="7.10454">
        <ele>1323</ele>
        <time>2021-07-11T09:15:02.000Z</time>
      </trkpt>
      <trkpt lat="47.90433" lon="7.10458">
        <ele>1322.4000244141</ele>
        <time>2021-07-11T09:15:03.000Z</time>
      </trkpt>
      <trkpt lat="47.90432" lon="7.10465">
        <ele>1321.5999755859</ele>
        <time>2021-07-11T09:15:04.000Z</time>
      </trkpt>
      <trkpt lat="47.90432" lon="7.10474">
        <ele>1321</ele>
        <time>2021-07-11T09:15:05.000Z</time>
      </trkpt>
      <trkpt lat="47.90432" lon="7.10483">
        <ele>1320.1999511719</ele>
        <time>2021-07-11T09:15:06.000Z</time>
      </trkpt>
      <trkpt lat="47.90432" lon="7.10491">
        <ele>1319.4000244141</ele>
        <time>2021-07-11T09:15:07.000Z</time>
      </trkpt>
      <trkpt lat="47.90432" lon="7.105">
        <ele>1318.5999755859</ele>
        <time>2021-07-11T09:15:08.000Z</time>
      </trkpt>
      <trkpt lat="47.90433" lon="7.10509">
        <ele>1317.5999755859</ele>
        <time>2021-07-11T09:15:09.000Z</time>
      </trkpt>
      <trkpt lat="47.90434" lon="7.10515">
        <ele>1316.8000488281</ele>
        <time>2021-07-11T09:15:10.000Z</time>
      </trkpt>
      <trkpt lat="47.90435" lon="7.1052">
        <ele>1316</ele>
        <time>2021-07-11T09:15:11.000Z</time>
      </trkpt>
      <trkpt lat="47.90435" lon="7.10524">
        <ele>1315.1999511719</ele>
        <time>2021-07-11T09:15:12.000Z</time>
      </trkpt>
      <trkpt lat="47.90436" lon="7.10528">
        <ele>1314.4000244141</ele>
        <time>2021-07-11T09:15:13.000Z</time>
      </trkpt>
      <trkpt lat="47.90437" lon="7.10532">
        <ele>1313.5999755859</ele>
        <time>2021-07-11T09:15:14.000Z</time>
      </trkpt>
      <trkpt lat="47.90439" lon="7.10537">
        <ele>1312.8000488281</ele>
        <time>2021-07-11T09:15:15.000Z</time>
      </trkpt>
      <trkpt lat="47.90441" lon="7.10541">
        <ele>1312.1999511719</ele>
        <time>2021-07-11T09:15:16.000Z</time>
      </trkpt>
      <trkpt lat="47.90444" lon="7.10546">
        <ele>1311.4000244141</ele>
        <time>2021-07-11T09:15:17.000Z</time>
      </trkpt>
      <trkpt lat="47.90446" lon="7.10551">
        <ele>1310.5999755859</ele>
        <time>2021-07-11T09:15:18.000Z</time>
      </trkpt>
      <trkpt lat="47.90449" lon="7.10556">
        <ele>1310</ele>
        <time>2021-07-11T09:15:19.000Z</time>
      </trkpt>
      <trkpt lat="47.90452" lon="7.10562">
        <ele>1309.1999511719</ele>
        <time>2021-07-11T09:15:20.000Z</time>
      </trkpt>
      <trkpt lat="47.90455" lon="7.10567">
        <ele>1308.4000244141</ele>
        <time>2021-07-11T09:15:21.000Z</time>
      </trkpt>
      <trkpt lat="47.90459" lon="7.10573">
        <ele>1307.5999755859</ele>
        <time>2021-07-11T09:15:22.000Z</time>
      </trkpt>
      <trkpt lat="47.90461" lon="7.10579">
        <ele>1306.8000488281</ele>
        <time>2021-07-11T09:15:23.000Z</time>
      </trkpt>
      <trkpt lat="47.90464" lon="7.10585">
        <ele>1305.4000244141</ele>
        <time>2021-07-11T09:15:24.000Z</time>
      </trkpt>
      <trkpt lat="47.90467" lon="7.10591">
        <ele>1304.5999755859</ele>
        <time>2021-07-11T09:15:25.000Z</time>
      </trkpt>
      <trkpt lat="47.90469" lon="7.10597">
        <ele>1303.8000488281</ele>
        <time>2021-07-11T09:15:26.000Z</time>
      </trkpt>
      <trkpt lat="47.90472" lon="7.10604">
        <ele>1302.8000488281</ele>
        <time>2021-07-11T09:15:27.000Z</time>
      </trkpt>
      <trkpt lat="47.90476" lon="7.10612">
        <ele>1301.8000488281</ele>
        <time>2021-07-11T09:15:28.000Z</time>
      </trkpt>
      <trkpt lat="47.9048" lon="7.1062">
        <ele>1300.5999755859</ele>
        <time>2021-07-11T09:15:29.000Z</time>
      </trkpt>
      <trkpt lat="47.90484" lon="7.10628">
        <ele>1299.5999755859</ele>
        <time>2021-07-11T09:15:30.000Z</time>
      </trkpt>
      <trkpt lat="47.90488" lon="7.10635">
        <ele>1298.5999755859</ele>
        <time>2021-07-11T09:15:31.000Z</time>
      </trkpt>
      <trkpt lat="47.90492" lon="7.10641">
        <ele>1297.5999755859</ele>
        <time>2021-07-11T09:15:32.000Z</time>
      </trkpt>
      <trkpt lat="47.90495" lon="7.10647">
        <ele>1296.5999755859</ele>
        <time>2021-07-11T09:15:33.000Z</time>
      </trkpt>
      <trkpt lat="47.90496" lon="7.10651">
        <ele>1295.8000488281</ele>
        <time>2021-07-11T09:15:34.000Z</time>
      </trkpt>
      <trkpt lat="47.90497" lon="7.10655">
        <ele>1295</ele>
        <time>2021-07-11T09:15:35.000Z</time>
      </trkpt>
      <trkpt lat="47.90497" lon="7.10656">
        <ele>1294.1999511719</ele>
        <time>2021-07-11T09:15:36.000Z</time>
      </trkpt>
      <trkpt lat="47.90498" lon="7.10657">
        <ele>1293.4000244141</ele>
        <time>2021-07-11T09:15:37.000Z</time>
      </trkpt>
      <trkpt lat="47.90497" lon="7.10658">
        <ele>1290.5999755859</ele>
        <time>2021-07-11T09:16:17.000Z</time>
      </trkpt>
      <trkpt lat="47.90491" lon="7.10662">
        <ele>1290.5999755859</ele>
        <time>2021-07-11T09:16:20.000Z</time>
      </trkpt>
      <trkpt lat="47.90479" lon="7.10664">
        <ele>1290.1999511719</ele>
        <time>2021-07-11T09:16:23.000Z</time>
      </trkpt>
      <trkpt lat="47.90474" lon="7.10665">
        <ele>1289.5999755859</ele>
        <time>2021-07-11T09:16:24.000Z</time>
      </trkpt>
      <trkpt lat="47.90469" lon="7.10666">
        <ele>1289.1999511719</ele>
        <time>2021-07-11T09:16:25.000Z</time>
      </trkpt>
      <trkpt lat="47.90464" lon="7.10666">
        <ele>1288.5999755859</ele>
        <time>2021-07-11T09:16:26.000Z</time>
      </trkpt>
      <trkpt lat="47.90457" lon="7.10665">
        <ele>1288</ele>
        <time>2021-07-11T09:16:27.000Z</time>
      </trkpt>
      <trkpt lat="47.9045" lon="7.10663">
        <ele>1287.4000244141</ele>
        <time>2021-07-11T09:16:28.000Z</time>
      </trkpt>
      <trkpt lat="47.90444" lon="7.10662">
        <ele>1286.4000244141</ele>
        <time>2021-07-11T09:16:29.000Z</time>
      </trkpt>
      <trkpt lat="47.90437" lon="7.10661">
        <ele>1285.5999755859</ele>
        <time>2021-07-11T09:16:30.000Z</time>
      </trkpt>
      <trkpt lat="47.90432" lon="7.10661">
        <ele>1284.8000488281</ele>
        <time>2021-07-11T09:16:31.000Z</time>
      </trkpt>
      <trkpt lat="47.90427" lon="7.10661">
        <ele>1283.8000488281</ele>
        <time>2021-07-11T09:16:32.000Z</time>
      </trkpt>
      <trkpt lat="47.90421" lon="7.1066">
        <ele>1282.8000488281</ele>
        <time>2021-07-11T09:16:33.000Z</time>
      </trkpt>
      <trkpt lat="47.90415" lon="7.1066">
        <ele>1282</ele>
        <time>2021-07-11T09:16:34.000Z</time>
      </trkpt>
      <trkpt lat="47.90409" lon="7.10659">
        <ele>1281</ele>
        <time>2021-07-11T09:16:35.000Z</time>
      </trkpt>
      <trkpt lat="47.90403" lon="7.10658">
        <ele>1280</ele>
        <time>2021-07-11T09:16:36.000Z</time>
      </trkpt>
      <trkpt lat="47.90397" lon="7.10657">
        <ele>1278.8000488281</ele>
        <time>2021-07-11T09:16:37.000Z</time>
      </trkpt>
      <trkpt lat="47.90391" lon="7.10656">
        <ele>1276.8000488281</ele>
        <time>2021-07-11T09:16:38.000Z</time>
      </trkpt>
      <trkpt lat="47.90385" lon="7.10655">
        <ele>1275.5999755859</ele>
        <time>2021-07-11T09:16:39.000Z</time>
      </trkpt>
      <trkpt lat="47.9038" lon="7.10654">
        <ele>1274.5999755859</ele>
        <time>2021-07-11T09:16:40.000Z</time>
      </trkpt>
      <trkpt lat="47.90374" lon="7.10652">
        <ele>1273.4000244141</ele>
        <time>2021-07-11T09:16:41.000Z</time>
      </trkpt>
      <trkpt lat="47.90368" lon="7.1065">
        <ele>1272.4000244141</ele>
        <time>2021-07-11T09:16:42.000Z</time>
      </trkpt>
      <trkpt lat="47.90363" lon="7.10649">
        <ele>1271.1999511719</ele>
        <time>2021-07-11T09:16:43.000Z</time>
      </trkpt>
      <trkpt lat="47.90356" lon="7.10649">
        <ele>1270</ele>
        <time>2021-07-11T09:16:44.000Z</time>
      </trkpt>
      <trkpt lat="47.90348" lon="7.10652">
        <ele>1268.8000488281</ele>
        <time>2021-07-11T09:16:45.000Z</time>
      </trkpt>
      <trkpt lat="47.90341" lon="7.10656">
        <ele>1267.5999755859</ele>
        <time>2021-07-11T09:16:46.000Z</time>
      </trkpt>
      <trkpt lat="47.90335" lon="7.10658">
        <ele>1266.4000244141</ele>
        <time>2021-07-11T09:16:47.000Z</time>
      </trkpt>
      <trkpt lat="47.90331" lon="7.1066">
        <ele>1265.4000244141</ele>
        <time>2021-07-11T09:16:48.000Z</time>
      </trkpt>
      <trkpt lat="47.9033" lon="7.10661">
        <ele>1264.4000244141</ele>
        <time>2021-07-11T09:16:49.000Z</time>
      </trkpt>
      <trkpt lat="47.9033" lon="7.10661">
        <ele>1263.4000244141</ele>
        <time>2021-07-11T09:16:50.000Z</time>
      </trkpt>
      <trkpt lat="47.90319" lon="7.10662">
        <ele>1260.4000244141</ele>
        <time>2021-07-11T09:17:03.000Z</time>
      </trkpt>
      <trkpt lat="47.90316" lon="7.10664">
        <ele>1260.4000244141</ele>
        <time>2021-07-11T09:17:04.000Z</time>
      </trkpt>
      <trkpt lat="47.90308" lon="7.10667">
        <ele>1259.8000488281</ele>
        <time>2021-07-11T09:17:06.000Z</time>
      </trkpt>
      <trkpt lat="47.90302" lon="7.10669">
        <ele>1259.4000244141</ele>
        <time>2021-07-11T09:17:07.000Z</time>
      </trkpt>
      <trkpt lat="47.90295" lon="7.10671">
        <ele>1258.8000488281</ele>
        <time>2021-07-11T09:17:08.000Z</time>
      </trkpt>
      <trkpt lat="47.90289" lon="7.10673">
        <ele>1258</ele>
        <time>2021-07-11T09:17:09.000Z</time>
      </trkpt>
      <trkpt lat="47.90281" lon="7.10676">
        <ele>1257.4000244141</ele>
        <time>2021-07-11T09:17:10.000Z</time>
      </trkpt>
      <trkpt lat="47.90274" lon="7.10679">
        <ele>1256.5999755859</ele>
        <time>2021-07-11T09:17:11.000Z</time>
      </trkpt>
      <trkpt lat="47.90267" lon="7.10682">
        <ele>1256</ele>
        <time>2021-07-11T09:17:12.000Z</time>
      </trkpt>
      <trkpt lat="47.90261" lon="7.10686">
        <ele>1255</ele>
        <time>2021-07-11T09:17:13.000Z</time>
      </trkpt>
      <trkpt lat="47.90256" lon="7.10689">
        <ele>1254.1999511719</ele>
        <time>2021-07-11T09:17:14.000Z</time>
      </trkpt>
      <trkpt lat="47.90253" lon="7.10693">
        <ele>1253.1999511719</ele>
        <time>2021-07-11T09:17:15.000Z</time>
      </trkpt>
      <trkpt lat="47.90252" lon="7.10695">
        <ele>1252.4000244141</ele>
        <time>2021-07-11T09:17:16.000Z</time>
      </trkpt>
      <trkpt lat="47.90251" lon="7.10697">
        <ele>1251.5999755859</ele>
        <time>2021-07-11T09:17:17.000Z</time>
      </trkpt>
      <trkpt lat="47.90251" lon="7.10698">
        <ele>1250.5999755859</ele>
        <time>2021-07-11T09:17:18.000Z</time>
      </trkpt>
      <trkpt lat="47.90252" lon="7.10698">
        <ele>1249</ele>
        <time>2021-07-11T09:17:27.000Z</time>
      </trkpt>
      <trkpt lat="47.90252" lon="7.10701">
        <ele>1248.4000244141</ele>
        <time>2021-07-11T09:17:28.000Z</time>
      </trkpt>
      <trkpt lat="47.90254" lon="7.10706">
        <ele>1248</ele>
        <time>2021-07-11T09:17:29.000Z</time>
      </trkpt>
      <trkpt lat="47.90255" lon="7.10713">
        <ele>1247.5999755859</ele>
        <time>2021-07-11T09:17:30.000Z</time>
      </trkpt>
      <trkpt lat="47.90256" lon="7.1072">
        <ele>1247.1999511719</ele>
        <time>2021-07-11T09:17:31.000Z</time>
      </trkpt>
      <trkpt lat="47.90257" lon="7.10727">
        <ele>1246.5999755859</ele>
        <time>2021-07-11T09:17:32.000Z</time>
      </trkpt>
      <trkpt lat="47.90257" lon="7.10735">
        <ele>1245.8000488281</ele>
        <time>2021-07-11T09:17:33.000Z</time>
      </trkpt>
      <trkpt lat="47.90258" lon="7.10742">
        <ele>1245.1999511719</ele>
        <time>2021-07-11T09:17:34.000Z</time>
      </trkpt>
      <trkpt lat="47.9026" lon="7.10747">
        <ele>1244.4000244141</ele>
        <time>2021-07-11T09:17:35.000Z</time>
      </trkpt>
      <trkpt lat="47.90262" lon="7.10751">
        <ele>1243.8000488281</ele>
        <time>2021-07-11T09:17:36.000Z</time>
      </trkpt>
      <trkpt lat="47.90263" lon="7.10754">
        <ele>1243</ele>
        <time>2021-07-11T09:17:37.000Z</time>
      </trkpt>
      <trkpt lat="47.90263" lon="7.10757">
        <ele>1242.1999511719</ele>
        <time>2021-07-11T09:17:38.000Z</time>
      </trkpt>
      <trkpt lat="47.90264" lon="7.10761">
        <ele>1241.4000244141</ele>
        <time>2021-07-11T09:17:39.000Z</time>
      </trkpt>
      <trkpt lat="47.90265" lon="7.10765">
        <ele>1241</ele>
        <time>2021-07-11T09:17:40.000Z</time>
      </trkpt>
      <trkpt lat="47.90266" lon="7.1077">
        <ele>1240.4000244141</ele>
        <time>2021-07-11T09:17:41.000Z</time>
      </trkpt>
      <trkpt lat="47.90268" lon="7.10776">
        <ele>1240</ele>
        <time>2021-07-11T09:17:42.000Z</time>
      </trkpt>
      <trkpt lat="47.90269" lon="7.10783">
        <ele>1239.1999511719</ele>
        <time>2021-07-11T09:17:43.000Z</time>
      </trkpt>
      <trkpt lat="47.90272" lon="7.10789">
        <ele>1238.5999755859</ele>
        <time>2021-07-11T09:17:44.000Z</time>
      </trkpt>
      <trkpt lat="47.90274" lon="7.10796">
        <ele>1238</ele>
        <time>2021-07-11T09:17:45.000Z</time>
      </trkpt>
      <trkpt lat="47.90276" lon="7.10802">
        <ele>1237.1999511719</ele>
        <time>2021-07-11T09:17:46.000Z</time>
      </trkpt>
      <trkpt lat="47.9028" lon="7.1081">
        <ele>1236.4000244141</ele>
        <time>2021-07-11T09:17:47.000Z</time>
      </trkpt>
      <trkpt lat="47.90282" lon="7.10817">
        <ele>1235.5999755859</ele>
        <time>2021-07-11T09:17:48.000Z</time>
      </trkpt>
      <trkpt lat="47.90285" lon="7.10824">
        <ele>1234.5999755859</ele>
        <time>2021-07-11T09:17:49.000Z</time>
      </trkpt>
      <trkpt lat="47.90288" lon="7.10831">
        <ele>1233.5999755859</ele>
        <time>2021-07-11T09:17:50.000Z</time>
      </trkpt>
      <trkpt lat="47.90291" lon="7.10837">
        <ele>1232.5999755859</ele>
        <time>2021-07-11T09:17:51.000Z</time>
      </trkpt>
      <trkpt lat="47.90294" lon="7.10843">
        <ele>1231.4000244141</ele>
        <time>2021-07-11T09:17:52.000Z</time>
      </trkpt>
      <trkpt lat="47.90297" lon="7.10848">
        <ele>1229.4000244141</ele>
        <time>2021-07-11T09:17:53.000Z</time>
      </trkpt>
      <trkpt lat="47.90299" lon="7.10855">
        <ele>1228.4000244141</ele>
        <time>2021-07-11T09:17:54.000Z</time>
      </trkpt>
      <trkpt lat="47.90302" lon="7.10863">
        <ele>1227.5999755859</ele>
        <time>2021-07-11T09:17:55.000Z</time>
      </trkpt>
      <trkpt lat="47.90305" lon="7.10871">
        <ele>1226.5999755859</ele>
        <time>2021-07-11T09:17:56.000Z</time>
      </trkpt>
      <trkpt lat="47.90308" lon="7.1088">
        <ele>1225.5999755859</ele>
        <time>2021-07-11T09:17:57.000Z</time>
      </trkpt>
      <trkpt lat="47.9031" lon="7.10888">
        <ele>1224.8000488281</ele>
        <time>2021-07-11T09:17:58.000Z</time>
      </trkpt>
      <trkpt lat="47.90312" lon="7.10894">
        <ele>1224</ele>
        <time>2021-07-11T09:17:59.000Z</time>
      </trkpt>
      <trkpt lat="47.90315" lon="7.10902">
        <ele>1223</ele>
        <time>2021-07-11T09:18:00.000Z</time>
      </trkpt>
      <trkpt lat="47.90318" lon="7.1091">
        <ele>1222.1999511719</ele>
        <time>2021-07-11T09:18:01.000Z</time>
      </trkpt>
      <trkpt lat="47.9032" lon="7.10918">
        <ele>1221.1999511719</ele>
        <time>2021-07-11T09:18:02.000Z</time>
      </trkpt>
      <trkpt lat="47.90324" lon="7.10925">
        <ele>1220.4000244141</ele>
        <time>2021-07-11T09:18:03.000Z</time>
      </trkpt>
      <trkpt lat="47.90327" lon="7.10931">
        <ele>1219.4000244141</ele>
        <time>2021-07-11T09:18:04.000Z</time>
      </trkpt>
      <trkpt lat="47.90331" lon="7.10937">
        <ele>1218.5999755859</ele>
        <time>2021-07-11T09:18:05.000Z</time>
      </trkpt>
      <trkpt lat="47.90334" lon="7.10942">
        <ele>1217.5999755859</ele>
        <time>2021-07-11T09:18:06.000Z</time>
      </trkpt>
      <trkpt lat="47.90337" lon="7.10947">
        <ele>1216.5999755859</ele>
        <time>2021-07-11T09:18:07.000Z</time>
      </trkpt>
      <trkpt lat="47.9034" lon="7.1095">
        <ele>1215.5999755859</ele>
        <time>2021-07-11T09:18:08.000Z</time>
      </trkpt>
      <trkpt lat="47.90343" lon="7.10955">
        <ele>1214.5999755859</ele>
        <time>2021-07-11T09:18:09.000Z</time>
      </trkpt>
      <trkpt lat="47.90345" lon="7.10959">
        <ele>1214</ele>
        <time>2021-07-11T09:18:10.000Z</time>
      </trkpt>
      <trkpt lat="47.90347" lon="7.10964">
        <ele>1213.4000244141</ele>
        <time>2021-07-11T09:18:11.000Z</time>
      </trkpt>
      <trkpt lat="47.9035" lon="7.10969">
        <ele>1212.8000488281</ele>
        <time>2021-07-11T09:18:12.000Z</time>
      </trkpt>
      <trkpt lat="47.90352" lon="7.10973">
        <ele>1212.1999511719</ele>
        <time>2021-07-11T09:18:13.000Z</time>
      </trkpt>
      <trkpt lat="47.90355" lon="7.10978">
        <ele>1211.5999755859</ele>
        <time>2021-07-11T09:18:14.000Z</time>
      </trkpt>
      <trkpt lat="47.90357" lon="7.10983">
        <ele>1211</ele>
        <time>2021-07-11T09:18:15.000Z</time>
      </trkpt>
      <trkpt lat="47.9036" lon="7.10988">
        <ele>1210.5999755859</ele>
        <time>2021-07-11T09:18:16.000Z</time>
      </trkpt>
      <trkpt lat="47.90364" lon="7.10995">
        <ele>1209.8000488281</ele>
        <time>2021-07-11T09:18:17.000Z</time>
      </trkpt>
      <trkpt lat="47.90366" lon="7.11001">
        <ele>1208</ele>
        <time>2021-07-11T09:18:18.000Z</time>
      </trkpt>
      <trkpt lat="47.90368" lon="7.11007">
        <ele>1207.1999511719</ele>
        <time>2021-07-11T09:18:19.000Z</time>
      </trkpt>
      <trkpt lat="47.90371" lon="7.11013">
        <ele>1206.1999511719</ele>
        <time>2021-07-11T09:18:20.000Z</time>
      </trkpt>
      <trkpt lat="47.90375" lon="7.11018">
        <ele>1205.1999511719</ele>
        <time>2021-07-11T09:18:21.000Z</time>
      </trkpt>
      <trkpt lat="47.90378" lon="7.11023">
        <ele>1204.1999511719</ele>
        <time>2021-07-11T09:18:22.000Z</time>
      </trkpt>
      <trkpt lat="47.90381" lon="7.11026">
        <ele>1203.1999511719</ele>
        <time>2021-07-11T09:18:23.000Z</time>
      </trkpt>
      <trkpt lat="47.90385" lon="7.11031">
        <ele>1202.1999511719</ele>
        <time>2021-07-11T09:18:24.000Z</time>
      </trkpt>
      <trkpt lat="47.9039" lon="7.11038">
        <ele>1201.1999511719</ele>
        <time>2021-07-11T09:18:25.000Z</time>
      </trkpt>
      <trkpt lat="47.90394" lon="7.11046">
        <ele>1200.1999511719</ele>
        <time>2021-07-11T09:18:26.000Z</time>
      </trkpt>
      <trkpt lat="47.90397" lon="7.11051">
        <ele>1199</ele>
        <time>2021-07-11T09:18:27.000Z</time>
      </trkpt>
      <trkpt lat="47.90399" lon="7.11056">
        <ele>1197.8000488281</ele>
        <time>2021-07-11T09:18:28.000Z</time>
      </trkpt>
      <trkpt lat="47.90403" lon="7.11061">
        <ele>1196.5999755859</ele>
        <time>2021-07-11T09:18:29.000Z</time>
      </trkpt>
      <trkpt lat="47.90404" lon="7.11064">
        <ele>1195.5999755859</ele>
        <time>2021-07-11T09:18:30.000Z</time>
      </trkpt>
      <trkpt lat="47.90406" lon="7.11068">
        <ele>1195</ele>
        <time>2021-07-11T09:18:31.000Z</time>
      </trkpt>
      <trkpt lat="47.90408" lon="7.11071">
        <ele>1194.5999755859</ele>
        <time>2021-07-11T09:18:32.000Z</time>
      </trkpt>
      <trkpt lat="47.9041" lon="7.11075">
        <ele>1194</ele>
        <time>2021-07-11T09:18:33.000Z</time>
      </trkpt>
      <trkpt lat="47.90412" lon="7.11081">
        <ele>1193.5999755859</ele>
        <time>2021-07-11T09:18:34.000Z</time>
      </trkpt>
      <trkpt lat="47.90414" lon="7.11085">
        <ele>1193.1999511719</ele>
        <time>2021-07-11T09:18:35.000Z</time>
      </trkpt>
      <trkpt lat="47.90417" lon="7.11091">
        <ele>1192.5999755859</ele>
        <time>2021-07-11T09:18:36.000Z</time>
      </trkpt>
      <trkpt lat="47.90422" lon="7.11099">
        <ele>1192.1999511719</ele>
        <time>2021-07-11T09:18:37.000Z</time>
      </trkpt>
      <trkpt lat="47.90427" lon="7.11107">
        <ele>1191.5999755859</ele>
        <time>2021-07-11T09:18:38.000Z</time>
      </trkpt>
      <trkpt lat="47.90429" lon="7.1111">
        <ele>1191.1999511719</ele>
        <time>2021-07-11T09:18:39.000Z</time>
      </trkpt>
      <trkpt lat="47.90431" lon="7.11111">
        <ele>1190.5999755859</ele>
        <time>2021-07-11T09:18:40.000Z</time>
      </trkpt>
      <trkpt lat="47.90434" lon="7.11114">
        <ele>1191.5999755859</ele>
        <time>2021-07-11T09:19:53.000Z</time>
      </trkpt>
      <trkpt lat="47.90437" lon="7.11122">
        <ele>1191.1999511719</ele>
        <time>2021-07-11T09:19:55.000Z</time>
      </trkpt>
      <trkpt lat="47.9044" lon="7.11129">
        <ele>1190.8000488281</ele>
        <time>2021-07-11T09:19:56.000Z</time>
      </trkpt>
      <trkpt lat="47.90444" lon="7.11137">
        <ele>1190.4000244141</ele>
        <time>2021-07-11T09:19:57.000Z</time>
      </trkpt>
      <trkpt lat="47.90448" lon="7.11146">
        <ele>1190</ele>
        <time>2021-07-11T09:19:58.000Z</time>
      </trkpt>
      <trkpt lat="47.90453" lon="7.11157">
        <ele>1188.8000488281</ele>
        <time>2021-07-11T09:19:59.000Z</time>
      </trkpt>
      <trkpt lat="47.90458" lon="7.11167">
        <ele>1187.8000488281</ele>
        <time>2021-07-11T09:20:00.000Z</time>
      </trkpt>
      <trkpt lat="47.90463" lon="7.11175">
        <ele>1187</ele>
        <time>2021-07-11T09:20:01.000Z</time>
      </trkpt>
      <trkpt lat="47.90467" lon="7.11183">
        <ele>1186</ele>
        <time>2021-07-11T09:20:02.000Z</time>
      </trkpt>
      <trkpt lat="47.90471" lon="7.11192">
        <ele>1185</ele>
        <time>2021-07-11T09:20:03.000Z</time>
      </trkpt>
      <trkpt lat="47.90476" lon="7.11202">
        <ele>1184</ele>
        <time>2021-07-11T09:20:04.000Z</time>
      </trkpt>
      <trkpt lat="47.90481" lon="7.11212">
        <ele>1183</ele>
        <time>2021-07-11T09:20:05.000Z</time>
      </trkpt>
      <trkpt lat="47.90487" lon="7.11221">
        <ele>1182</ele>
        <time>2021-07-11T09:20:06.000Z</time>
      </trkpt>
      <trkpt lat="47.90491" lon="7.11231">
        <ele>1180.8000488281</ele>
        <time>2021-07-11T09:20:07.000Z</time>
      </trkpt>
      <trkpt lat="47.90497" lon="7.11241">
        <ele>1179.5999755859</ele>
        <time>2021-07-11T09:20:08.000Z</time>
      </trkpt>
      <trkpt lat="47.90501" lon="7.1125">
        <ele>1178.4000244141</ele>
        <time>2021-07-11T09:20:09.000Z</time>
      </trkpt>
      <trkpt lat="47.90505" lon="7.11259">
        <ele>1177</ele>
        <time>2021-07-11T09:20:10.000Z</time>
      </trkpt>
      <trkpt lat="47.90507" lon="7.11268">
        <ele>1175.8000488281</ele>
        <time>2021-07-11T09:20:11.000Z</time>
      </trkpt>
      <trkpt lat="47.9051" lon="7.11276">
        <ele>1174.8000488281</ele>
        <time>2021-07-11T09:20:12.000Z</time>
      </trkpt>
      <trkpt lat="47.90513" lon="7.11282">
        <ele>1173.5999755859</ele>
        <time>2021-07-11T09:20:13.000Z</time>
      </trkpt>
      <trkpt lat="47.90515" lon="7.11286">
        <ele>1172.5999755859</ele>
        <time>2021-07-11T09:20:14.000Z</time>
      </trkpt>
      <trkpt lat="47.90517" lon="7.1129">
        <ele>1171.8000488281</ele>
        <time>2021-07-11T09:20:15.000Z</time>
      </trkpt>
      <trkpt lat="47.9052" lon="7.11294">
        <ele>1170.8000488281</ele>
        <time>2021-07-11T09:20:16.000Z</time>
      </trkpt>
      <trkpt lat="47.90522" lon="7.113">
        <ele>1170</ele>
        <time>2021-07-11T09:20:17.000Z</time>
      </trkpt>
      <trkpt lat="47.90524" lon="7.11306">
        <ele>1169</ele>
        <time>2021-07-11T09:20:18.000Z</time>
      </trkpt>
      <trkpt lat="47.90525" lon="7.11312">
        <ele>1168.4000244141</ele>
        <time>2021-07-11T09:20:19.000Z</time>
      </trkpt>
      <trkpt lat="47.90526" lon="7.11317">
        <ele>1167.8000488281</ele>
        <time>2021-07-11T09:20:20.000Z</time>
      </trkpt>
      <trkpt lat="47.90526" lon="7.11322">
        <ele>1167.1999511719</ele>
        <time>2021-07-11T09:20:21.000Z</time>
      </trkpt>
      <trkpt lat="47.90527" lon="7.11328">
        <ele>1166.4000244141</ele>
        <time>2021-07-11T09:20:22.000Z</time>
      </trkpt>
      <trkpt lat="47.90528" lon="7.11336">
        <ele>1165</ele>
        <time>2021-07-11T09:20:23.000Z</time>
      </trkpt>
      <trkpt lat="47.9053" lon="7.11345">
        <ele>1164.1999511719</ele>
        <time>2021-07-11T09:20:24.000Z</time>
      </trkpt>
      <trkpt lat="47.9053" lon="7.11354">
        <ele>1163.4000244141</ele>
        <time>2021-07-11T09:20:25.000Z</time>
      </trkpt>
      <trkpt lat="47.9053" lon="7.11362">
        <ele>1162.8000488281</ele>
        <time>2021-07-11T09:20:26.000Z</time>
      </trkpt>
      <trkpt lat="47.90528" lon="7.1137">
        <ele>1162</ele>
        <time>2021-07-11T09:20:27.000Z</time>
      </trkpt>
      <trkpt lat="47.90527" lon="7.11375">
        <ele>1161.4000244141</ele>
        <time>2021-07-11T09:20:28.000Z</time>
      </trkpt>
      <trkpt lat="47.90526" lon="7.1138">
        <ele>1160.8000488281</ele>
        <time>2021-07-11T09:20:29.000Z</time>
      </trkpt>
      <trkpt lat="47.90525" lon="7.11384">
        <ele>1160.4000244141</ele>
        <time>2021-07-11T09:20:30.000Z</time>
      </trkpt>
      <trkpt lat="47.90525" lon="7.11388">
        <ele>1159.8000488281</ele>
        <time>2021-07-11T09:20:31.000Z</time>
      </trkpt>
      <trkpt lat="47.90524" lon="7.11391">
        <ele>1159.1999511719</ele>
        <time>2021-07-11T09:20:32.000Z</time>
      </trkpt>
      <trkpt lat="47.90522" lon="7.11395">
        <ele>1158.8000488281</ele>
        <time>2021-07-11T09:20:33.000Z</time>
      </trkpt>
      <trkpt lat="47.90521" lon="7.11398">
        <ele>1158.4000244141</ele>
        <time>2021-07-11T09:20:34.000Z</time>
      </trkpt>
      <trkpt lat="47.9052" lon="7.11403">
        <ele>1158</ele>
        <time>2021-07-11T09:20:35.000Z</time>
      </trkpt>
      <trkpt lat="47.90519" lon="7.11405">
        <ele>1157.5999755859</ele>
        <time>2021-07-11T09:20:36.000Z</time>
      </trkpt>
      <trkpt lat="47.90518" lon="7.11408">
        <ele>1157</ele>
        <time>2021-07-11T09:20:37.000Z</time>
      </trkpt>
      <trkpt lat="47.90517" lon="7.1141">
        <ele>1156.5999755859</ele>
        <time>2021-07-11T09:20:38.000Z</time>
      </trkpt>
      <trkpt lat="47.90516" lon="7.11414">
        <ele>1156.1999511719</ele>
        <time>2021-07-11T09:20:39.000Z</time>
      </trkpt>
      <trkpt lat="47.90515" lon="7.11417">
        <ele>1155.5999755859</ele>
        <time>2021-07-11T09:20:40.000Z</time>
      </trkpt>
      <trkpt lat="47.90514" lon="7.1142">
        <ele>1155.1999511719</ele>
        <time>2021-07-11T09:20:41.000Z</time>
      </trkpt>
      <trkpt lat="47.90513" lon="7.11423">
        <ele>1154.5999755859</ele>
        <time>2021-07-11T09:20:42.000Z</time>
      </trkpt>
      <trkpt lat="47.90512" lon="7.11425">
        <ele>1154</ele>
        <time>2021-07-11T09:20:43.000Z</time>
      </trkpt>
      <trkpt lat="47.90512" lon="7.11428">
        <ele>1153.5999755859</ele>
        <time>2021-07-11T09:20:44.000Z</time>
      </trkpt>
      <trkpt lat="47.90511" lon="7.11431">
        <ele>1153</ele>
        <time>2021-07-11T09:20:45.000Z</time>
      </trkpt>
      <trkpt lat="47.9051" lon="7.11434">
        <ele>1152.4000244141</ele>
        <time>2021-07-11T09:20:46.000Z</time>
      </trkpt>
      <trkpt lat="47.9051" lon="7.11437">
        <ele>1152</ele>
        <time>2021-07-11T09:20:47.000Z</time>
      </trkpt>
      <trkpt lat="47.90511" lon="7.11441">
        <ele>1150.8000488281</ele>
        <time>2021-07-11T09:20:48.000Z</time>
      </trkpt>
      <trkpt lat="47.9051" lon="7.11446">
        <ele>1150.1999511719</ele>
        <time>2021-07-11T09:20:49.000Z</time>
      </trkpt>
      <trkpt lat="47.9051" lon="7.11452">
        <ele>1149.5999755859</ele>
        <time>2021-07-11T09:20:50.000Z</time>
      </trkpt>
      <trkpt lat="47.90509" lon="7.11458">
        <ele>1149</ele>
        <time>2021-07-11T09:20:51.000Z</time>
      </trkpt>
      <trkpt lat="47.90508" lon="7.11465">
        <ele>1148.1999511719</ele>
        <time>2021-07-11T09:20:52.000Z</time>
      </trkpt>
      <trkpt lat="47.90507" lon="7.11471">
        <ele>1147.4000244141</ele>
        <time>2021-07-11T09:20:53.000Z</time>
      </trkpt>
      <trkpt lat="47.90505" lon="7.11478">
        <ele>1146.5999755859</ele>
        <time>2021-07-11T09:20:54.000Z</time>
      </trkpt>
      <trkpt lat="47.90504" lon="7.11484">
        <ele>1145.5999755859</ele>
        <time>2021-07-11T09:20:55.000Z</time>
      </trkpt>
      <trkpt lat="47.90502" lon="7.11489">
        <ele>1144.8000488281</ele>
        <time>2021-07-11T09:20:56.000Z</time>
      </trkpt>
      <trkpt lat="47.90501" lon="7.11493">
        <ele>1143.8000488281</ele>
        <time>2021-07-11T09:20:57.000Z</time>
      </trkpt>
      <trkpt lat="47.905" lon="7.11497">
        <ele>1143.1999511719</ele>
        <time>2021-07-11T09:20:58.000Z</time>
      </trkpt>
      <trkpt lat="47.90499" lon="7.11502">
        <ele>1142.5999755859</ele>
        <time>2021-07-11T09:20:59.000Z</time>
      </trkpt>
      <trkpt lat="47.90498" lon="7.11507">
        <ele>1142</ele>
        <time>2021-07-11T09:21:00.000Z</time>
      </trkpt>
      <trkpt lat="47.90498" lon="7.11512">
        <ele>1141.4000244141</ele>
        <time>2021-07-11T09:21:01.000Z</time>
      </trkpt>
      <trkpt lat="47.90496" lon="7.11518">
        <ele>1140.5999755859</ele>
        <time>2021-07-11T09:21:02.000Z</time>
      </trkpt>
      <trkpt lat="47.90494" lon="7.11526">
        <ele>1140</ele>
        <time>2021-07-11T09:21:03.000Z</time>
      </trkpt>
      <trkpt lat="47.90492" lon="7.11534">
        <ele>1139.4000244141</ele>
        <time>2021-07-11T09:21:04.000Z</time>
      </trkpt>
      <trkpt lat="47.9049" lon="7.11542">
        <ele>1138.5999755859</ele>
        <time>2021-07-11T09:21:05.000Z</time>
      </trkpt>
      <trkpt lat="47.90489" lon="7.1155">
        <ele>1137.8000488281</ele>
        <time>2021-07-11T09:21:06.000Z</time>
      </trkpt>
      <trkpt lat="47.90488" lon="7.11557">
        <ele>1137</ele>
        <time>2021-07-11T09:21:07.000Z</time>
      </trkpt>
      <trkpt lat="47.90487" lon="7.11565">
        <ele>1136.1999511719</ele>
        <time>2021-07-11T09:21:08.000Z</time>
      </trkpt>
      <trkpt lat="47.90487" lon="7.11574">
        <ele>1135.5999755859</ele>
        <time>2021-07-11T09:21:09.000Z</time>
      </trkpt>
      <trkpt lat="47.90486" lon="7.11583">
        <ele>1135</ele>
        <time>2021-07-11T09:21:10.000Z</time>
      </trkpt>
      <trkpt lat="47.90485" lon="7.11591">
        <ele>1134.4000244141</ele>
        <time>2021-07-11T09:21:11.000Z</time>
      </trkpt>
      <trkpt lat="47.90485" lon="7.11599">
        <ele>1133.5999755859</ele>
        <time>2021-07-11T09:21:12.000Z</time>
      </trkpt>
      <trkpt lat="47.90485" lon="7.11603">
        <ele>1131.8000488281</ele>
        <time>2021-07-11T09:21:13.000Z</time>
      </trkpt>
      <trkpt lat="47.90485" lon="7.11606">
        <ele>1131</ele>
        <time>2021-07-11T09:21:14.000Z</time>
      </trkpt>
      <trkpt lat="47.90484" lon="7.11608">
        <ele>1130.1999511719</ele>
        <time>2021-07-11T09:21:15.000Z</time>
      </trkpt>
      <trkpt lat="47.90481" lon="7.11611">
        <ele>1130.1999511719</ele>
        <time>2021-07-11T09:21:17.000Z</time>
      </trkpt>
      <trkpt lat="47.9048" lon="7.11617">
        <ele>1130.1999511719</ele>
        <time>2021-07-11T09:22:06.000Z</time>
      </trkpt>
      <trkpt lat="47.90478" lon="7.11626">
        <ele>1130.1999511719</ele>
        <time>2021-07-11T09:22:08.000Z</time>
      </trkpt>
      <trkpt lat="47.90477" lon="7.11636">
        <ele>1129.8000488281</ele>
        <time>2021-07-11T09:22:10.000Z</time>
      </trkpt>
      <trkpt lat="47.90476" lon="7.11641">
        <ele>1129.4000244141</ele>
        <time>2021-07-11T09:22:11.000Z</time>
      </trkpt>
      <trkpt lat="47.90475" lon="7.11645">
        <ele>1128.8000488281</ele>
        <time>2021-07-11T09:22:12.000Z</time>
      </trkpt>
      <trkpt lat="47.90474" lon="7.1165">
        <ele>1128.1999511719</ele>
        <time>2021-07-11T09:22:13.000Z</time>
      </trkpt>
      <trkpt lat="47.90473" lon="7.11656">
        <ele>1127.8000488281</ele>
        <time>2021-07-11T09:22:14.000Z</time>
      </trkpt>
      <trkpt lat="47.90472" lon="7.11662">
        <ele>1127.1999511719</ele>
        <time>2021-07-11T09:22:15.000Z</time>
      </trkpt>
      <trkpt lat="47.90473" lon="7.11669">
        <ele>1126.5999755859</ele>
        <time>2021-07-11T09:22:16.000Z</time>
      </trkpt>
      <trkpt lat="47.90473" lon="7.11674">
        <ele>1125.8000488281</ele>
        <time>2021-07-11T09:22:17.000Z</time>
      </trkpt>
      <trkpt lat="47.90473" lon="7.11679">
        <ele>1125.1999511719</ele>
        <time>2021-07-11T09:22:18.000Z</time>
      </trkpt>
      <trkpt lat="47.90474" lon="7.11683">
        <ele>1124.5999755859</ele>
        <time>2021-07-11T09:22:19.000Z</time>
      </trkpt>
      <trkpt lat="47.90474" lon="7.11689">
        <ele>1123.8000488281</ele>
        <time>2021-07-11T09:22:20.000Z</time>
      </trkpt>
      <trkpt lat="47.90475" lon="7.11693">
        <ele>1123</ele>
        <time>2021-07-11T09:22:21.000Z</time>
      </trkpt>
      <trkpt lat="47.90476" lon="7.11696">
        <ele>1122</ele>
        <time>2021-07-11T09:22:22.000Z</time>
      </trkpt>
      <trkpt lat="47.90477" lon="7.11698">
        <ele>1121.1999511719</ele>
        <time>2021-07-11T09:22:23.000Z</time>
      </trkpt>
      <trkpt lat="47.90477" lon="7.11699">
        <ele>1120.4000244141</ele>
        <time>2021-07-11T09:22:24.000Z</time>
      </trkpt>
      <trkpt lat="47.90478" lon="7.117">
        <ele>1120.4000244141</ele>
        <time>2021-07-11T09:22:25.000Z</time>
      </trkpt>
      <trkpt lat="47.9048" lon="7.11705">
        <ele>1120.4000244141</ele>
        <time>2021-07-11T09:23:01.000Z</time>
      </trkpt>
      <trkpt lat="47.90483" lon="7.11714">
        <ele>1120</ele>
        <time>2021-07-11T09:23:03.000Z</time>
      </trkpt>
      <trkpt lat="47.90485" lon="7.1172">
        <ele>1119.5999755859</ele>
        <time>2021-07-11T09:23:04.000Z</time>
      </trkpt>
      <trkpt lat="47.90486" lon="7.11727">
        <ele>1119.1999511719</ele>
        <time>2021-07-11T09:23:05.000Z</time>
      </trkpt>
      <trkpt lat="47.90488" lon="7.11734">
        <ele>1118.8000488281</ele>
        <time>2021-07-11T09:23:06.000Z</time>
      </trkpt>
      <trkpt lat="47.9049" lon="7.11741">
        <ele>1118.4000244141</ele>
        <time>2021-07-11T09:23:07.000Z</time>
      </trkpt>
      <trkpt lat="47.90494" lon="7.11753">
        <ele>1118</ele>
        <time>2021-07-11T09:23:09.000Z</time>
      </trkpt>
      <trkpt lat="47.90497" lon="7.1176">
        <ele>1117.5999755859</ele>
        <time>2021-07-11T09:23:10.000Z</time>
      </trkpt>
      <trkpt lat="47.905" lon="7.11766">
        <ele>1117.1999511719</ele>
        <time>2021-07-11T09:23:11.000Z</time>
      </trkpt>
      <trkpt lat="47.90504" lon="7.11774">
        <ele>1116.8000488281</ele>
        <time>2021-07-11T09:23:12.000Z</time>
      </trkpt>
      <trkpt lat="47.90509" lon="7.11782">
        <ele>1116.4000244141</ele>
        <time>2021-07-11T09:23:13.000Z</time>
      </trkpt>
      <trkpt lat="47.90513" lon="7.1179">
        <ele>1115.8000488281</ele>
        <time>2021-07-11T09:23:14.000Z</time>
      </trkpt>
      <trkpt lat="47.90517" lon="7.11799">
        <ele>1115.4000244141</ele>
        <time>2021-07-11T09:23:15.000Z</time>
      </trkpt>
      <trkpt lat="47.90521" lon="7.11807">
        <ele>1114.8000488281</ele>
        <time>2021-07-11T09:23:16.000Z</time>
      </trkpt>
      <trkpt lat="47.90525" lon="7.11814">
        <ele>1114.4000244141</ele>
        <time>2021-07-11T09:23:17.000Z</time>
      </trkpt>
      <trkpt lat="47.9053" lon="7.11822">
        <ele>1114</ele>
        <time>2021-07-11T09:23:18.000Z</time>
      </trkpt>
      <trkpt lat="47.90534" lon="7.11829">
        <ele>1114</ele>
        <time>2021-07-11T09:23:19.000Z</time>
      </trkpt>
      <trkpt lat="47.90541" lon="7.1185">
        <ele>1113.5999755859</ele>
        <time>2021-07-11T09:23:21.000Z</time>
      </trkpt>
      <trkpt lat="47.90546" lon="7.11858">
        <ele>1113.1999511719</ele>
        <time>2021-07-11T09:23:22.000Z</time>
      </trkpt>
      <trkpt lat="47.90551" lon="7.11864">
        <ele>1112.8000488281</ele>
        <time>2021-07-11T09:23:23.000Z</time>
      </trkpt>
      <trkpt lat="47.90554" lon="7.1187">
        <ele>1112.1999511719</ele>
        <time>2021-07-11T09:23:24.000Z</time>
      </trkpt>
      <trkpt lat="47.90558" lon="7.11874">
        <ele>1111.8000488281</ele>
        <time>2021-07-11T09:23:25.000Z</time>
      </trkpt>
      <trkpt lat="47.90559" lon="7.11877">
        <ele>1111.8000488281</ele>
        <time>2021-07-11T09:23:26.000Z</time>
      </trkpt>
      <trkpt lat="47.90562" lon="7.11885">
        <ele>1111.4000244141</ele>
        <time>2021-07-11T09:23:31.000Z</time>
      </trkpt>
      <trkpt lat="47.90563" lon="7.11886">
        <ele>1111</ele>
        <time>2021-07-11T09:23:32.000Z</time>
      </trkpt>
      <trkpt lat="47.90564" lon="7.11887">
        <ele>1110.5999755859</ele>
        <time>2021-07-11T09:23:33.000Z</time>
      </trkpt>
      <trkpt lat="47.90565" lon="7.11888">
        <ele>1110.1999511719</ele>
        <time>2021-07-11T09:23:34.000Z</time>
      </trkpt>
      <trkpt lat="47.90565" lon="7.11889">
        <ele>1109.8000488281</ele>
        <time>2021-07-11T09:23:35.000Z</time>
      </trkpt>
      <trkpt lat="47.90567" lon="7.11894">
        <ele>1109</ele>
        <time>2021-07-11T09:23:47.000Z</time>
      </trkpt>
      <trkpt lat="47.90567" lon="7.11897">
        <ele>1108.5999755859</ele>
        <time>2021-07-11T09:23:48.000Z</time>
      </trkpt>
      <trkpt lat="47.90568" lon="7.119">
        <ele>1108</ele>
        <time>2021-07-11T09:23:49.000Z</time>
      </trkpt>
      <trkpt lat="47.90568" lon="7.11904">
        <ele>1107.5999755859</ele>
        <time>2021-07-11T09:23:50.000Z</time>
      </trkpt>
      <trkpt lat="47.90569" lon="7.11908">
        <ele>1107.1999511719</ele>
        <time>2021-07-11T09:23:51.000Z</time>
      </trkpt>
      <trkpt lat="47.90569" lon="7.11912">
        <ele>1106.8000488281</ele>
        <time>2021-07-11T09:23:52.000Z</time>
      </trkpt>
      <trkpt lat="47.9057" lon="7.11916">
        <ele>1106.4000244141</ele>
        <time>2021-07-11T09:23:53.000Z</time>
      </trkpt>
      <trkpt lat="47.9057" lon="7.1192">
        <ele>1105.5999755859</ele>
        <time>2021-07-11T09:23:54.000Z</time>
      </trkpt>
      <trkpt lat="47.9057" lon="7.11924">
        <ele>1105</ele>
        <time>2021-07-11T09:23:55.000Z</time>
      </trkpt>
      <trkpt lat="47.90571" lon="7.11927">
        <ele>1104.4000244141</ele>
        <time>2021-07-11T09:23:56.000Z</time>
      </trkpt>
      <trkpt lat="47.90571" lon="7.1193">
        <ele>1103.5999755859</ele>
        <time>2021-07-11T09:23:57.000Z</time>
      </trkpt>
      <trkpt lat="47.90571" lon="7.11932">
        <ele>1103</ele>
        <time>2021-07-11T09:23:58.000Z</time>
      </trkpt>
      <trkpt lat="47.90572" lon="7.11933">
        <ele>1102.1999511719</ele>
        <time>2021-07-11T09:23:59.000Z</time>
      </trkpt>
      <trkpt lat="47.90572" lon="7.11934">
        <ele>1101.5999755859</ele>
        <time>2021-07-11T09:24:00.000Z</time>
      </trkpt>
      <trkpt lat="47.90572" lon="7.11936">
        <ele>1100.8000488281</ele>
        <time>2021-07-11T09:24:01.000Z</time>
      </trkpt>
      <trkpt lat="47.90573" lon="7.11937">
        <ele>1100.8000488281</ele>
        <time>2021-07-11T09:24:02.000Z</time>
      </trkpt>
      <trkpt lat="47.90575" lon="7.11959">
        <ele>1095.1999511719</ele>
        <time>2021-07-11T09:24:14.000Z</time>
      </trkpt>
      <trkpt lat="47.90576" lon="7.11962">
        <ele>1094.5999755859</ele>
        <time>2021-07-11T09:24:15.000Z</time>
      </trkpt>
      <trkpt lat="47.90577" lon="7.11964">
        <ele>1094.1999511719</ele>
        <time>2021-07-11T09:24:16.000Z</time>
      </trkpt>
      <trkpt lat="47.90578" lon="7.11966">
        <ele>1093.5999755859</ele>
        <time>2021-07-11T09:24:17.000Z</time>
      </trkpt>
      <trkpt lat="47.90578" lon="7.11969">
        <ele>1093.1999511719</ele>
        <time>2021-07-11T09:24:18.000Z</time>
      </trkpt>
      <trkpt lat="47.90578" lon="7.11971">
        <ele>1092.8000488281</ele>
        <time>2021-07-11T09:24:19.000Z</time>
      </trkpt>
      <trkpt lat="47.90578" lon="7.11972">
        <ele>1092.4000244141</ele>
        <time>2021-07-11T09:24:20.000Z</time>
      </trkpt>
      <trkpt lat="47.90578" lon="7.11974">
        <ele>1091.8000488281</ele>
        <time>2021-07-11T09:24:21.000Z</time>
      </trkpt>
      <trkpt lat="47.90574" lon="7.11978">
        <ele>1089.8000488281</ele>
        <time>2021-07-11T09:24:26.000Z</time>
      </trkpt>
      <trkpt lat="47.90572" lon="7.11979">
        <ele>1089.4000244141</ele>
        <time>2021-07-11T09:24:27.000Z</time>
      </trkpt>
      <trkpt lat="47.90571" lon="7.11979">
        <ele>1089</ele>
        <time>2021-07-11T09:24:28.000Z</time>
      </trkpt>
      <trkpt lat="47.90569" lon="7.1198">
        <ele>1088.5999755859</ele>
        <time>2021-07-11T09:24:29.000Z</time>
      </trkpt>
      <trkpt lat="47.90568" lon="7.1198">
        <ele>1088.1999511719</ele>
        <time>2021-07-11T09:24:30.000Z</time>
      </trkpt>
      <trkpt lat="47.90567" lon="7.1198">
        <ele>1087.8000488281</ele>
        <time>2021-07-11T09:24:31.000Z</time>
      </trkpt>
      <trkpt lat="47.90567" lon="7.1198">
        <ele>1086.5999755859</ele>
        <time>2021-07-11T09:24:32.000Z</time>
      </trkpt>
      <trkpt lat="47.90564" lon="7.11996">
        <ele>1084.4000244141</ele>
        <time>2021-07-11T09:24:40.000Z</time>
      </trkpt>
      <trkpt lat="47.90565" lon="7.12002">
        <ele>1083.8000488281</ele>
        <time>2021-07-11T09:24:41.000Z</time>
      </trkpt>
      <trkpt lat="47.90567" lon="7.12007">
        <ele>1083.4000244141</ele>
        <time>2021-07-11T09:24:42.000Z</time>
      </trkpt>
      <trkpt lat="47.90568" lon="7.12012">
        <ele>1082.8000488281</ele>
        <time>2021-07-11T09:24:43.000Z</time>
      </trkpt>
      <trkpt lat="47.90569" lon="7.12017">
        <ele>1082.1999511719</ele>
        <time>2021-07-11T09:24:44.000Z</time>
      </trkpt>
      <trkpt lat="47.90571" lon="7.12021">
        <ele>1081.5999755859</ele>
        <time>2021-07-11T09:24:45.000Z</time>
      </trkpt>
      <trkpt lat="47.90572" lon="7.12025">
        <ele>1081</ele>
        <time>2021-07-11T09:24:46.000Z</time>
      </trkpt>
      <trkpt lat="47.90574" lon="7.12032">
        <ele>1080.5999755859</ele>
        <time>2021-07-11T09:24:48.000Z</time>
      </trkpt>
      <trkpt lat="47.90574" lon="7.12035">
        <ele>1080</ele>
        <time>2021-07-11T09:24:49.000Z</time>
      </trkpt>
      <trkpt lat="47.90575" lon="7.12037">
        <ele>1079.5999755859</ele>
        <time>2021-07-11T09:24:50.000Z</time>
      </trkpt>
      <trkpt lat="47.90575" lon="7.12041">
        <ele>1079</ele>
        <time>2021-07-11T09:24:51.000Z</time>
      </trkpt>
      <trkpt lat="47.90575" lon="7.12044">
        <ele>1078.4000244141</ele>
        <time>2021-07-11T09:24:52.000Z</time>
      </trkpt>
      <trkpt lat="47.90576" lon="7.12047">
        <ele>1077.8000488281</ele>
        <time>2021-07-11T09:24:53.000Z</time>
      </trkpt>
      <trkpt lat="47.90576" lon="7.1205">
        <ele>1077.4000244141</ele>
        <time>2021-07-11T09:24:54.000Z</time>
      </trkpt>
      <trkpt lat="47.90577" lon="7.12053">
        <ele>1076.8000488281</ele>
        <time>2021-07-11T09:24:55.000Z</time>
      </trkpt>
      <trkpt lat="47.90578" lon="7.12057">
        <ele>1076.1999511719</ele>
        <time>2021-07-11T09:24:56.000Z</time>
      </trkpt>
      <trkpt lat="47.90579" lon="7.1206">
        <ele>1075.1999511719</ele>
        <time>2021-07-11T09:24:57.000Z</time>
      </trkpt>
      <trkpt lat="47.9058" lon="7.12063">
        <ele>1074.5999755859</ele>
        <time>2021-07-11T09:24:58.000Z</time>
      </trkpt>
      <trkpt lat="47.90581" lon="7.12068">
        <ele>1074</ele>
        <time>2021-07-11T09:24:59.000Z</time>
      </trkpt>
      <trkpt lat="47.90582" lon="7.12072">
        <ele>1073.5999755859</ele>
        <time>2021-07-11T09:25:00.000Z</time>
      </trkpt>
      <trkpt lat="47.90583" lon="7.12075">
        <ele>1073</ele>
        <time>2021-07-11T09:25:01.000Z</time>
      </trkpt>
      <trkpt lat="47.90584" lon="7.12077">
        <ele>1072.4000244141</ele>
        <time>2021-07-11T09:25:02.000Z</time>
      </trkpt>
      <trkpt lat="47.90585" lon="7.12077">
        <ele>1072</ele>
        <time>2021-07-11T09:25:03.000Z</time>
      </trkpt>
      <trkpt lat="47.90587" lon="7.1208">
        <ele>1071.4000244141</ele>
        <time>2021-07-11T09:25:04.000Z</time>
      </trkpt>
      <trkpt lat="47.90587" lon="7.12081">
        <ele>1070.8000488281</ele>
        <time>2021-07-11T09:25:05.000Z</time>
      </trkpt>
      <trkpt lat="47.90588" lon="7.12082">
        <ele>1070.4000244141</ele>
        <time>2021-07-11T09:25:06.000Z</time>
      </trkpt>
      <trkpt lat="47.90589" lon="7.12082">
        <ele>1069.8000488281</ele>
        <time>2021-07-11T09:25:07.000Z</time>
      </trkpt>
      <trkpt lat="47.90589" lon="7.12083">
        <ele>1069.8000488281</ele>
        <time>2021-07-11T09:25:08.000Z</time>
      </trkpt>
      <trkpt lat="47.90597" lon="7.12097">
        <ele>1069</ele>
        <time>2021-07-11T09:25:35.000Z</time>
      </trkpt>
      <trkpt lat="47.90599" lon="7.12101">
        <ele>1068.5999755859</ele>
        <time>2021-07-11T09:25:36.000Z</time>
      </trkpt>
      <trkpt lat="47.906" lon="7.12104">
        <ele>1068</ele>
        <time>2021-07-11T09:25:37.000Z</time>
      </trkpt>
      <trkpt lat="47.90603" lon="7.12109">
        <ele>1067.5999755859</ele>
        <time>2021-07-11T09:25:38.000Z</time>
      </trkpt>
      <trkpt lat="47.90606" lon="7.12113">
        <ele>1067</ele>
        <time>2021-07-11T09:25:39.000Z</time>
      </trkpt>
      <trkpt lat="47.90608" lon="7.12117">
        <ele>1066.5999755859</ele>
        <time>2021-07-11T09:25:40.000Z</time>
      </trkpt>
      <trkpt lat="47.9061" lon="7.12121">
        <ele>1066</ele>
        <time>2021-07-11T09:25:41.000Z</time>
      </trkpt>
      <trkpt lat="47.90611" lon="7.12124">
        <ele>1065.4000244141</ele>
        <time>2021-07-11T09:25:42.000Z</time>
      </trkpt>
      <trkpt lat="47.90613" lon="7.12126">
        <ele>1065</ele>
        <time>2021-07-11T09:25:43.000Z</time>
      </trkpt>
      <trkpt lat="47.90614" lon="7.12129">
        <ele>1064.4000244141</ele>
        <time>2021-07-11T09:25:44.000Z</time>
      </trkpt>
      <trkpt lat="47.90615" lon="7.12133">
        <ele>1063.8000488281</ele>
        <time>2021-07-11T09:25:45.000Z</time>
      </trkpt>
      <trkpt lat="47.90616" lon="7.12136">
        <ele>1063.4000244141</ele>
        <time>2021-07-11T09:25:46.000Z</time>
      </trkpt>
      <trkpt lat="47.90618" lon="7.12141">
        <ele>1062.4000244141</ele>
        <time>2021-07-11T09:25:47.000Z</time>
      </trkpt>
      <trkpt lat="47.90621" lon="7.12147">
        <ele>1061.8000488281</ele>
        <time>2021-07-11T09:25:48.000Z</time>
      </trkpt>
      <trkpt lat="47.90623" lon="7.12152">
        <ele>1061.4000244141</ele>
        <time>2021-07-11T09:25:49.000Z</time>
      </trkpt>
      <trkpt lat="47.90626" lon="7.12159">
        <ele>1060.8000488281</ele>
        <time>2021-07-11T09:25:50.000Z</time>
      </trkpt>
      <trkpt lat="47.90627" lon="7.12168">
        <ele>1060.1999511719</ele>
        <time>2021-07-11T09:25:51.000Z</time>
      </trkpt>
      <trkpt lat="47.90629" lon="7.12175">
        <ele>1059.4000244141</ele>
        <time>2021-07-11T09:25:52.000Z</time>
      </trkpt>
      <trkpt lat="47.90632" lon="7.12181">
        <ele>1058.5999755859</ele>
        <time>2021-07-11T09:25:53.000Z</time>
      </trkpt>
      <trkpt lat="47.90634" lon="7.12187">
        <ele>1057.8000488281</ele>
        <time>2021-07-11T09:25:54.000Z</time>
      </trkpt>
      <trkpt lat="47.90636" lon="7.12194">
        <ele>1057</ele>
        <time>2021-07-11T09:25:55.000Z</time>
      </trkpt>
      <trkpt lat="47.90639" lon="7.122">
        <ele>1056.4000244141</ele>
        <time>2021-07-11T09:25:56.000Z</time>
      </trkpt>
      <trkpt lat="47.90641" lon="7.12206">
        <ele>1055.5999755859</ele>
        <time>2021-07-11T09:25:57.000Z</time>
      </trkpt>
      <trkpt lat="47.90645" lon="7.12211">
        <ele>1055</ele>
        <time>2021-07-11T09:25:58.000Z</time>
      </trkpt>
      <trkpt lat="47.90647" lon="7.12218">
        <ele>1054.1999511719</ele>
        <time>2021-07-11T09:25:59.000Z</time>
      </trkpt>
      <trkpt lat="47.9065" lon="7.12225">
        <ele>1053.4000244141</ele>
        <time>2021-07-11T09:26:00.000Z</time>
      </trkpt>
      <trkpt lat="47.90653" lon="7.12234">
        <ele>1052.5999755859</ele>
        <time>2021-07-11T09:26:01.000Z</time>
      </trkpt>
      <trkpt lat="47.90657" lon="7.12242">
        <ele>1051.8000488281</ele>
        <time>2021-07-11T09:26:02.000Z</time>
      </trkpt>
      <trkpt lat="47.9066" lon="7.12249">
        <ele>1050.8000488281</ele>
        <time>2021-07-11T09:26:03.000Z</time>
      </trkpt>
      <trkpt lat="47.90663" lon="7.12256">
        <ele>1049.8000488281</ele>
        <time>2021-07-11T09:26:04.000Z</time>
      </trkpt>
      <trkpt lat="47.90667" lon="7.12263">
        <ele>1048.8000488281</ele>
        <time>2021-07-11T09:26:05.000Z</time>
      </trkpt>
      <trkpt lat="47.9067" lon="7.12271">
        <ele>1047.8000488281</ele>
        <time>2021-07-11T09:26:06.000Z</time>
      </trkpt>
      <trkpt lat="47.90673" lon="7.1228">
        <ele>1046.8000488281</ele>
        <time>2021-07-11T09:26:07.000Z</time>
      </trkpt>
      <trkpt lat="47.90676" lon="7.12287">
        <ele>1045.5999755859</ele>
        <time>2021-07-11T09:26:08.000Z</time>
      </trkpt>
      <trkpt lat="47.90679" lon="7.12294">
        <ele>1044.4000244141</ele>
        <time>2021-07-11T09:26:09.000Z</time>
      </trkpt>
      <trkpt lat="47.90683" lon="7.123">
        <ele>1043.1999511719</ele>
        <time>2021-07-11T09:26:10.000Z</time>
      </trkpt>
      <trkpt lat="47.90687" lon="7.12306">
        <ele>1040.8000488281</ele>
        <time>2021-07-11T09:26:11.000Z</time>
      </trkpt>
      <trkpt lat="47.90691" lon="7.12312">
        <ele>1039.4000244141</ele>
        <time>2021-07-11T09:26:12.000Z</time>
      </trkpt>
      <trkpt lat="47.90694" lon="7.1232">
        <ele>1038.8000488281</ele>
        <time>2021-07-11T09:26:13.000Z</time>
      </trkpt>
      <trkpt lat="47.90698" lon="7.12327">
        <ele>1038</ele>
        <time>2021-07-11T09:26:14.000Z</time>
      </trkpt>
      <trkpt lat="47.90702" lon="7.12335">
        <ele>1037.1999511719</ele>
        <time>2021-07-11T09:26:15.000Z</time>
      </trkpt>
      <trkpt lat="47.90704" lon="7.12343">
        <ele>1036.4000244141</ele>
        <time>2021-07-11T09:26:16.000Z</time>
      </trkpt>
      <trkpt lat="47.90707" lon="7.1235">
        <ele>1035.5999755859</ele>
        <time>2021-07-11T09:26:17.000Z</time>
      </trkpt>
      <trkpt lat="47.90709" lon="7.12357">
        <ele>1034.8000488281</ele>
        <time>2021-07-11T09:26:18.000Z</time>
      </trkpt>
      <trkpt lat="47.9071" lon="7.12363">
        <ele>1034</ele>
        <time>2021-07-11T09:26:19.000Z</time>
      </trkpt>
      <trkpt lat="47.90711" lon="7.1237">
        <ele>1033.1999511719</ele>
        <time>2021-07-11T09:26:20.000Z</time>
      </trkpt>
      <trkpt lat="47.90712" lon="7.12378">
        <ele>1032.1999511719</ele>
        <time>2021-07-11T09:26:21.000Z</time>
      </trkpt>
      <trkpt lat="47.90713" lon="7.12387">
        <ele>1031.1999511719</ele>
        <time>2021-07-11T09:26:22.000Z</time>
      </trkpt>
      <trkpt lat="47.90715" lon="7.12396">
        <ele>1030</ele>
        <time>2021-07-11T09:26:23.000Z</time>
      </trkpt>
      <trkpt lat="47.90717" lon="7.12405">
        <ele>1028.8000488281</ele>
        <time>2021-07-11T09:26:24.000Z</time>
      </trkpt>
      <trkpt lat="47.90719" lon="7.12415">
        <ele>1027.5999755859</ele>
        <time>2021-07-11T09:26:25.000Z</time>
      </trkpt>
      <trkpt lat="47.9072" lon="7.12423">
        <ele>1026.4000244141</ele>
        <time>2021-07-11T09:26:26.000Z</time>
      </trkpt>
      <trkpt lat="47.9072" lon="7.12433">
        <ele>1025.1999511719</ele>
        <time>2021-07-11T09:26:27.000Z</time>
      </trkpt>
      <trkpt lat="47.90721" lon="7.12442">
        <ele>1024</ele>
        <time>2021-07-11T09:26:28.000Z</time>
      </trkpt>
      <trkpt lat="47.90721" lon="7.12451">
        <ele>1022.799987793</ele>
        <time>2021-07-11T09:26:29.000Z</time>
      </trkpt>
      <trkpt lat="47.90721" lon="7.12461">
        <ele>1021.5999755859</ele>
        <time>2021-07-11T09:26:30.000Z</time>
      </trkpt>
      <trkpt lat="47.90721" lon="7.12471">
        <ele>1020.5999755859</ele>
        <time>2021-07-11T09:26:31.000Z</time>
      </trkpt>
      <trkpt lat="47.90721" lon="7.12479">
        <ele>1019.4000244141</ele>
        <time>2021-07-11T09:26:32.000Z</time>
      </trkpt>
      <trkpt lat="47.90722" lon="7.12487">
        <ele>1018.200012207</ele>
        <time>2021-07-11T09:26:33.000Z</time>
      </trkpt>
      <trkpt lat="47.90722" lon="7.12495">
        <ele>1017.200012207</ele>
        <time>2021-07-11T09:26:34.000Z</time>
      </trkpt>
      <trkpt lat="47.90723" lon="7.12504">
        <ele>1016.4000244141</ele>
        <time>2021-07-11T09:26:35.000Z</time>
      </trkpt>
      <trkpt lat="47.90723" lon="7.12512">
        <ele>1014.5999755859</ele>
        <time>2021-07-11T09:26:36.000Z</time>
      </trkpt>
      <trkpt lat="47.90723" lon="7.12519">
        <ele>1013.5999755859</ele>
        <time>2021-07-11T09:26:37.000Z</time>
      </trkpt>
      <trkpt lat="47.90723" lon="7.12525">
        <ele>1012.5999755859</ele>
        <time>2021-07-11T09:26:38.000Z</time>
      </trkpt>
      <trkpt lat="47.90724" lon="7.12532">
        <ele>1012</ele>
        <time>2021-07-11T09:26:39.000Z</time>
      </trkpt>
      <trkpt lat="47.90725" lon="7.1254">
        <ele>1011.200012207</ele>
        <time>2021-07-11T09:26:40.000Z</time>
      </trkpt>
      <trkpt lat="47.90726" lon="7.12546">
        <ele>1010.5999755859</ele>
        <time>2021-07-11T09:26:41.000Z</time>
      </trkpt>
      <trkpt lat="47.90727" lon="7.12554">
        <ele>1009.799987793</ele>
        <time>2021-07-11T09:26:42.000Z</time>
      </trkpt>
      <trkpt lat="47.90728" lon="7.1256">
        <ele>1009</ele>
        <time>2021-07-11T09:26:43.000Z</time>
      </trkpt>
      <trkpt lat="47.90729" lon="7.12566">
        <ele>1008.200012207</ele>
        <time>2021-07-11T09:26:44.000Z</time>
      </trkpt>
      <trkpt lat="47.90729" lon="7.12571">
        <ele>1007.200012207</ele>
        <time>2021-07-11T09:26:45.000Z</time>
      </trkpt>
      <trkpt lat="47.90729" lon="7.12576">
        <ele>1006.4000244141</ele>
        <time>2021-07-11T09:26:46.000Z</time>
      </trkpt>
      <trkpt lat="47.9073" lon="7.12582">
        <ele>1006</ele>
        <time>2021-07-11T09:26:47.000Z</time>
      </trkpt>
      <trkpt lat="47.9073" lon="7.12587">
        <ele>1005.4000244141</ele>
        <time>2021-07-11T09:26:48.000Z</time>
      </trkpt>
      <trkpt lat="47.90731" lon="7.12593">
        <ele>1004.799987793</ele>
        <time>2021-07-11T09:26:49.000Z</time>
      </trkpt>
      <trkpt lat="47.90731" lon="7.12599">
        <ele>1004</ele>
        <time>2021-07-11T09:26:50.000Z</time>
      </trkpt>
      <trkpt lat="47.90731" lon="7.12607">
        <ele>1003.200012207</ele>
        <time>2021-07-11T09:26:51.000Z</time>
      </trkpt>
      <trkpt lat="47.90731" lon="7.12616">
        <ele>1002.5999755859</ele>
        <time>2021-07-11T09:26:52.000Z</time>
      </trkpt>
      <trkpt lat="47.90732" lon="7.12624">
        <ele>1001.799987793</ele>
        <time>2021-07-11T09:26:53.000Z</time>
      </trkpt>
      <trkpt lat="47.90733" lon="7.1263">
        <ele>1001.200012207</ele>
        <time>2021-07-11T09:26:54.000Z</time>
      </trkpt>
      <trkpt lat="47.90734" lon="7.12637">
        <ele>1000.5999755859</ele>
        <time>2021-07-11T09:26:55.000Z</time>
      </trkpt>
      <trkpt lat="47.90735" lon="7.12642">
        <ele>1000</ele>
        <time>2021-07-11T09:26:56.000Z</time>
      </trkpt>
      <trkpt lat="47.90736" lon="7.12647">
        <ele>999.40002441406</ele>
        <time>2021-07-11T09:26:57.000Z</time>
      </trkpt>
      <trkpt lat="47.90737" lon="7.12653">
        <ele>998.79998779297</ele>
        <time>2021-07-11T09:26:58.000Z</time>
      </trkpt>
      <trkpt lat="47.90738" lon="7.1266">
        <ele>998.20001220703</ele>
        <time>2021-07-11T09:26:59.000Z</time>
      </trkpt>
      <trkpt lat="47.90738" lon="7.12666">
        <ele>996.79998779297</ele>
        <time>2021-07-11T09:27:00.000Z</time>
      </trkpt>
      <trkpt lat="47.90739" lon="7.12672">
        <ele>996.20001220703</ele>
        <time>2021-07-11T09:27:01.000Z</time>
      </trkpt>
      <trkpt lat="47.90739" lon="7.12678">
        <ele>995.40002441406</ele>
        <time>2021-07-11T09:27:02.000Z</time>
      </trkpt>
      <trkpt lat="47.9074" lon="7.12684">
        <ele>994.59997558594</ele>
        <time>2021-07-11T09:27:03.000Z</time>
      </trkpt>
      <trkpt lat="47.90741" lon="7.1269">
        <ele>993.79998779297</ele>
        <time>2021-07-11T09:27:04.000Z</time>
      </trkpt>
      <trkpt lat="47.90742" lon="7.12697">
        <ele>993</ele>
        <time>2021-07-11T09:27:05.000Z</time>
      </trkpt>
      <trkpt lat="47.90743" lon="7.12704">
        <ele>992.20001220703</ele>
        <time>2021-07-11T09:27:06.000Z</time>
      </trkpt>
      <trkpt lat="47.90745" lon="7.12713">
        <ele>991.40002441406</ele>
        <time>2021-07-11T09:27:07.000Z</time>
      </trkpt>
      <trkpt lat="47.90746" lon="7.1272">
        <ele>990.59997558594</ele>
        <time>2021-07-11T09:27:08.000Z</time>
      </trkpt>
      <trkpt lat="47.9074" lon="7.12728">
        <ele>988.59997558594</ele>
        <time>2021-07-11T09:28:16.000Z</time>
      </trkpt>
      <trkpt lat="47.9074" lon="7.12726">
        <ele>989</ele>
        <time>2021-07-11T09:28:17.000Z</time>
      </trkpt>
      <trkpt lat="47.90739" lon="7.12725">
        <ele>989.40002441406</ele>
        <time>2021-07-11T09:28:18.000Z</time>
      </trkpt>
      <trkpt lat="47.90738" lon="7.12723">
        <ele>989.79998779297</ele>
        <time>2021-07-11T09:28:19.000Z</time>
      </trkpt>
      <trkpt lat="47.90734" lon="7.12714">
        <ele>989.79998779297</ele>
        <time>2021-07-11T09:28:24.000Z</time>
      </trkpt>
      <trkpt lat="47.90726" lon="7.12698">
        <ele>989.79998779297</ele>
        <time>2021-07-11T09:28:30.000Z</time>
      </trkpt>
      <trkpt lat="47.90718" lon="7.12678">
        <ele>989.79998779297</ele>
        <time>2021-07-11T09:28:37.000Z</time>
      </trkpt>
      <trkpt lat="47.90715" lon="7.12672">
        <ele>990.20001220703</ele>
        <time>2021-07-11T09:28:39.000Z</time>
      </trkpt>
      <trkpt lat="47.90714" lon="7.12668">
        <ele>991</ele>
        <time>2021-07-11T09:28:40.000Z</time>
      </trkpt>
      <trkpt lat="47.90713" lon="7.12665">
        <ele>991.40002441406</ele>
        <time>2021-07-11T09:28:41.000Z</time>
      </trkpt>
      <trkpt lat="47.90712" lon="7.1266">
        <ele>991.79998779297</ele>
        <time>2021-07-11T09:28:42.000Z</time>
      </trkpt>
      <trkpt lat="47.9071" lon="7.12652">
        <ele>991.79998779297</ele>
        <time>2021-07-11T09:28:44.000Z</time>
      </trkpt>
      <trkpt lat="47.90706" lon="7.12628">
        <ele>991.79998779297</ele>
        <time>2021-07-11T09:28:50.000Z</time>
      </trkpt>
      <trkpt lat="47.90704" lon="7.12624">
        <ele>991.79998779297</ele>
        <time>2021-07-11T09:28:51.000Z</time>
      </trkpt>
      <trkpt lat="47.90703" lon="7.12621">
        <ele>992.40002441406</ele>
        <time>2021-07-11T09:28:52.000Z</time>
      </trkpt>
      <trkpt lat="47.90702" lon="7.12618">
        <ele>992.79998779297</ele>
        <time>2021-07-11T09:28:53.000Z</time>
      </trkpt>
      <trkpt lat="47.90701" lon="7.12614">
        <ele>993.20001220703</ele>
        <time>2021-07-11T09:28:54.000Z</time>
      </trkpt>
      <trkpt lat="47.907" lon="7.12611">
        <ele>993.59997558594</ele>
        <time>2021-07-11T09:28:55.000Z</time>
      </trkpt>
      <trkpt lat="47.90699" lon="7.12607">
        <ele>994</ele>
        <time>2021-07-11T09:28:56.000Z</time>
      </trkpt>
      <trkpt lat="47.90695" lon="7.12591">
        <ele>994.40002441406</ele>
        <time>2021-07-11T09:29:01.000Z</time>
      </trkpt>
      <trkpt lat="47.90695" lon="7.12588">
        <ele>995</ele>
        <time>2021-07-11T09:29:02.000Z</time>
      </trkpt>
      <trkpt lat="47.90695" lon="7.12585">
        <ele>995.40002441406</ele>
        <time>2021-07-11T09:29:03.000Z</time>
      </trkpt>
      <trkpt lat="47.90694" lon="7.12583">
        <ele>996.20001220703</ele>
        <time>2021-07-11T09:29:04.000Z</time>
      </trkpt>
      <trkpt lat="47.90693" lon="7.12571">
        <ele>996.20001220703</ele>
        <time>2021-07-11T09:29:08.000Z</time>
      </trkpt>
      <trkpt lat="47.90692" lon="7.12567">
        <ele>996.59997558594</ele>
        <time>2021-07-11T09:29:09.000Z</time>
      </trkpt>
      <trkpt lat="47.90692" lon="7.12563">
        <ele>997</ele>
        <time>2021-07-11T09:29:10.000Z</time>
      </trkpt>
      <trkpt lat="47.90691" lon="7.12559">
        <ele>997.59997558594</ele>
        <time>2021-07-11T09:29:11.000Z</time>
      </trkpt>
      <trkpt lat="47.9069" lon="7.12555">
        <ele>998</ele>
        <time>2021-07-11T09:29:12.000Z</time>
      </trkpt>
      <trkpt lat="47.90689" lon="7.1255">
        <ele>998.40002441406</ele>
        <time>2021-07-11T09:29:13.000Z</time>
      </trkpt>
      <trkpt lat="47.90688" lon="7.12539">
        <ele>998.79998779297</ele>
        <time>2021-07-11T09:29:17.000Z</time>
      </trkpt>
      <trkpt lat="47.90687" lon="7.12537">
        <ele>999.20001220703</ele>
        <time>2021-07-11T09:29:18.000Z</time>
      </trkpt>
      <trkpt lat="47.90686" lon="7.12533">
        <ele>999.79998779297</ele>
        <time>2021-07-11T09:29:19.000Z</time>
      </trkpt>
      <trkpt lat="47.90686" lon="7.1253">
        <ele>1000.200012207</ele>
        <time>2021-07-11T09:29:20.000Z</time>
      </trkpt>
      <trkpt lat="47.90685" lon="7.12527">
        <ele>1000.5999755859</ele>
        <time>2021-07-11T09:29:21.000Z</time>
      </trkpt>
      <trkpt lat="47.90682" lon="7.12514">
        <ele>1000.5999755859</ele>
        <time>2021-07-11T09:29:25.000Z</time>
      </trkpt>
      <trkpt lat="47.90677" lon="7.12499">
        <ele>1001.4000244141</ele>
        <time>2021-07-11T09:29:30.000Z</time>
      </trkpt>
      <trkpt lat="47.90676" lon="7.12496">
        <ele>1001.799987793</ele>
        <time>2021-07-11T09:29:31.000Z</time>
      </trkpt>
      <trkpt lat="47.90676" lon="7.12493">
        <ele>1002.200012207</ele>
        <time>2021-07-11T09:29:32.000Z</time>
      </trkpt>
      <trkpt lat="47.90675" lon="7.12489">
        <ele>1002.799987793</ele>
        <time>2021-07-11T09:29:33.000Z</time>
      </trkpt>
      <trkpt lat="47.90669" lon="7.12467">
        <ele>1002.799987793</ele>
        <time>2021-07-11T09:29:40.000Z</time>
      </trkpt>
      <trkpt lat="47.90669" lon="7.12464">
        <ele>1003.200012207</ele>
        <time>2021-07-11T09:29:41.000Z</time>
      </trkpt>
      <trkpt lat="47.90668" lon="7.12462">
        <ele>1003.5999755859</ele>
        <time>2021-07-11T09:29:42.000Z</time>
      </trkpt>
      <trkpt lat="47.90667" lon="7.12459">
        <ele>1004</ele>
        <time>2021-07-11T09:29:43.000Z</time>
      </trkpt>
      <trkpt lat="47.90666" lon="7.12456">
        <ele>1004.4000244141</ele>
        <time>2021-07-11T09:29:44.000Z</time>
      </trkpt>
      <trkpt lat="47.90665" lon="7.12453">
        <ele>1004.799987793</ele>
        <time>2021-07-11T09:29:45.000Z</time>
      </trkpt>
      <trkpt lat="47.90662" lon="7.12444">
        <ele>1004.799987793</ele>
        <time>2021-07-11T09:29:48.000Z</time>
      </trkpt>
      <trkpt lat="47.90655" lon="7.12432">
        <ele>1005.200012207</ele>
        <time>2021-07-11T09:29:54.000Z</time>
      </trkpt>
      <trkpt lat="47.90654" lon="7.1243">
        <ele>1005.799987793</ele>
        <time>2021-07-11T09:29:55.000Z</time>
      </trkpt>
      <trkpt lat="47.90652" lon="7.12428">
        <ele>1006.200012207</ele>
        <time>2021-07-11T09:29:56.000Z</time>
      </trkpt>
      <trkpt lat="47.90651" lon="7.12427">
        <ele>1006.5999755859</ele>
        <time>2021-07-11T09:29:57.000Z</time>
      </trkpt>
      <trkpt lat="47.90649" lon="7.12424">
        <ele>1007</ele>
        <time>2021-07-11T09:29:58.000Z</time>
      </trkpt>
      <trkpt lat="47.90648" lon="7.12422">
        <ele>1007</ele>
        <time>2021-07-11T09:29:59.000Z</time>
      </trkpt>
      <trkpt lat="47.90637" lon="7.124">
        <ele>1007.4000244141</ele>
        <time>2021-07-11T09:30:07.000Z</time>
      </trkpt>
      <trkpt lat="47.90635" lon="7.12397">
        <ele>1007.799987793</ele>
        <time>2021-07-11T09:30:08.000Z</time>
      </trkpt>
      <trkpt lat="47.90634" lon="7.12396">
        <ele>1008.4000244141</ele>
        <time>2021-07-11T09:30:09.000Z</time>
      </trkpt>
      <trkpt lat="47.90632" lon="7.12394">
        <ele>1008.799987793</ele>
        <time>2021-07-11T09:30:10.000Z</time>
      </trkpt>
      <trkpt lat="47.90631" lon="7.12392">
        <ele>1009.200012207</ele>
        <time>2021-07-11T09:30:11.000Z</time>
      </trkpt>
      <trkpt lat="47.90625" lon="7.12387">
        <ele>1009.200012207</ele>
        <time>2021-07-11T09:30:14.000Z</time>
      </trkpt>
      <trkpt lat="47.90619" lon="7.12384">
        <ele>1009.5999755859</ele>
        <time>2021-07-11T09:30:17.000Z</time>
      </trkpt>
      <trkpt lat="47.90618" lon="7.12384">
        <ele>1010.4000244141</ele>
        <time>2021-07-11T09:30:18.000Z</time>
      </trkpt>
      <trkpt lat="47.90616" lon="7.12383">
        <ele>1010.799987793</ele>
        <time>2021-07-11T09:30:19.000Z</time>
      </trkpt>
      <trkpt lat="47.90614" lon="7.12382">
        <ele>1011.4000244141</ele>
        <time>2021-07-11T09:30:20.000Z</time>
      </trkpt>
      <trkpt lat="47.9061" lon="7.12379">
        <ele>1011.4000244141</ele>
        <time>2021-07-11T09:30:25.000Z</time>
      </trkpt>
      <trkpt lat="47.90609" lon="7.12378">
        <ele>1011.4000244141</ele>
        <time>2021-07-11T09:31:22.000Z</time>
      </trkpt>
      <trkpt lat="47.90605" lon="7.12377">
        <ele>1011.4000244141</ele>
        <time>2021-07-11T09:31:24.000Z</time>
      </trkpt>
      <trkpt lat="47.90589" lon="7.12369">
        <ele>1011.4000244141</ele>
        <time>2021-07-11T09:31:30.000Z</time>
      </trkpt>
      <trkpt lat="47.90569" lon="7.12354">
        <ele>1011.4000244141</ele>
        <time>2021-07-11T09:31:36.000Z</time>
      </trkpt>
      <trkpt lat="47.90557" lon="7.12347">
        <ele>1010.799987793</ele>
        <time>2021-07-11T09:31:39.000Z</time>
      </trkpt>
      <trkpt lat="47.90552" lon="7.12344">
        <ele>1010.4000244141</ele>
        <time>2021-07-11T09:31:40.000Z</time>
      </trkpt>
      <trkpt lat="47.90548" lon="7.12341">
        <ele>1010</ele>
        <time>2021-07-11T09:31:41.000Z</time>
      </trkpt>
      <trkpt lat="47.90543" lon="7.12338">
        <ele>1009.5999755859</ele>
        <time>2021-07-11T09:31:42.000Z</time>
      </trkpt>
      <trkpt lat="47.90538" lon="7.12335">
        <ele>1009.200012207</ele>
        <time>2021-07-11T09:31:43.000Z</time>
      </trkpt>
      <trkpt lat="47.90534" lon="7.12331">
        <ele>1009.200012207</ele>
        <time>2021-07-11T09:31:44.000Z</time>
      </trkpt>
      <trkpt lat="47.90524" lon="7.12322">
        <ele>1008.799987793</ele>
        <time>2021-07-11T09:31:46.000Z</time>
      </trkpt>
      <trkpt lat="47.90518" lon="7.12318">
        <ele>1008.4000244141</ele>
        <time>2021-07-11T09:31:47.000Z</time>
      </trkpt>
      <trkpt lat="47.90513" lon="7.12314">
        <ele>1007.799987793</ele>
        <time>2021-07-11T09:31:48.000Z</time>
      </trkpt>
      <trkpt lat="47.90508" lon="7.12311">
        <ele>1007.4000244141</ele>
        <time>2021-07-11T09:31:49.000Z</time>
      </trkpt>
      <trkpt lat="47.90504" lon="7.12307">
        <ele>1007</ele>
        <time>2021-07-11T09:31:50.000Z</time>
      </trkpt>
      <trkpt lat="47.90495" lon="7.12299">
        <ele>1007</ele>
        <time>2021-07-11T09:31:52.000Z</time>
      </trkpt>
      <trkpt lat="47.90481" lon="7.12283">
        <ele>1006.5999755859</ele>
        <time>2021-07-11T09:31:55.000Z</time>
      </trkpt>
      <trkpt lat="47.90476" lon="7.12277">
        <ele>1006.200012207</ele>
        <time>2021-07-11T09:31:56.000Z</time>
      </trkpt>
      <trkpt lat="47.90469" lon="7.12271">
        <ele>1005.4000244141</ele>
        <time>2021-07-11T09:31:57.000Z</time>
      </trkpt>
      <trkpt lat="47.90463" lon="7.12266">
        <ele>1005</ele>
        <time>2021-07-11T09:31:58.000Z</time>
      </trkpt>
      <trkpt lat="47.90456" lon="7.12261">
        <ele>1004.5999755859</ele>
        <time>2021-07-11T09:31:59.000Z</time>
      </trkpt>
      <trkpt lat="47.90448" lon="7.12257">
        <ele>1004.200012207</ele>
        <time>2021-07-11T09:32:00.000Z</time>
      </trkpt>
      <trkpt lat="47.90441" lon="7.12252">
        <ele>1003.799987793</ele>
        <time>2021-07-11T09:32:01.000Z</time>
      </trkpt>
      <trkpt lat="47.90434" lon="7.12246">
        <ele>1003.4000244141</ele>
        <time>2021-07-11T09:32:02.000Z</time>
      </trkpt>
      <trkpt lat="47.90428" lon="7.12239">
        <ele>1002.799987793</ele>
        <time>2021-07-11T09:32:03.000Z</time>
      </trkpt>
      <trkpt lat="47.90416" lon="7.12226">
        <ele>1002.799987793</ele>
        <time>2021-07-11T09:32:05.000Z</time>
      </trkpt>
      <trkpt lat="47.90405" lon="7.12214">
        <ele>1002.4000244141</ele>
        <time>2021-07-11T09:32:07.000Z</time>
      </trkpt>
      <trkpt lat="47.904" lon="7.12208">
        <ele>1002</ele>
        <time>2021-07-11T09:32:08.000Z</time>
      </trkpt>
      <trkpt lat="47.90395" lon="7.12202">
        <ele>1001.5999755859</ele>
        <time>2021-07-11T09:32:09.000Z</time>
      </trkpt>
      <trkpt lat="47.90388" lon="7.12194">
        <ele>1001.200012207</ele>
        <time>2021-07-11T09:32:10.000Z</time>
      </trkpt>
      <trkpt lat="47.90381" lon="7.12186">
        <ele>1000.5999755859</ele>
        <time>2021-07-11T09:32:11.000Z</time>
      </trkpt>
      <trkpt lat="47.90375" lon="7.12177">
        <ele>1000.200012207</ele>
        <time>2021-07-11T09:32:12.000Z</time>
      </trkpt>
      <trkpt lat="47.9037" lon="7.12167">
        <ele>999.59997558594</ele>
        <time>2021-07-11T09:32:13.000Z</time>
      </trkpt>
      <trkpt lat="47.90364" lon="7.12158">
        <ele>999</ele>
        <time>2021-07-11T09:32:14.000Z</time>
      </trkpt>
      <trkpt lat="47.90359" lon="7.12151">
        <ele>998.40002441406</ele>
        <time>2021-07-11T09:32:15.000Z</time>
      </trkpt>
      <trkpt lat="47.90354" lon="7.12146">
        <ele>998.40002441406</ele>
        <time>2021-07-11T09:32:16.000Z</time>
      </trkpt>
      <trkpt lat="47.90345" lon="7.12133">
        <ele>998.40002441406</ele>
        <time>2021-07-11T09:32:18.000Z</time>
      </trkpt>
      <trkpt lat="47.90336" lon="7.12122">
        <ele>998.40002441406</ele>
        <time>2021-07-11T09:32:20.000Z</time>
      </trkpt>
      <trkpt lat="47.90333" lon="7.12117">
        <ele>998.40002441406</ele>
        <time>2021-07-11T09:32:21.000Z</time>
      </trkpt>
      <trkpt lat="47.9033" lon="7.12112">
        <ele>998.40002441406</ele>
        <time>2021-07-11T09:32:22.000Z</time>
      </trkpt>
      <trkpt lat="47.90319" lon="7.12095">
        <ele>998.40002441406</ele>
        <time>2021-07-11T09:32:26.000Z</time>
      </trkpt>
      <trkpt lat="47.90305" lon="7.12075">
        <ele>998.40002441406</ele>
        <time>2021-07-11T09:32:31.000Z</time>
      </trkpt>
      <trkpt lat="47.90292" lon="7.12055">
        <ele>998.40002441406</ele>
        <time>2021-07-11T09:32:36.000Z</time>
      </trkpt>
      <trkpt lat="47.9028" lon="7.12036">
        <ele>998.79998779297</ele>
        <time>2021-07-11T09:32:40.000Z</time>
      </trkpt>
      <trkpt lat="47.90278" lon="7.12032">
        <ele>999.40002441406</ele>
        <time>2021-07-11T09:32:41.000Z</time>
      </trkpt>
      <trkpt lat="47.90275" lon="7.12028">
        <ele>999.79998779297</ele>
        <time>2021-07-11T09:32:42.000Z</time>
      </trkpt>
      <trkpt lat="47.90274" lon="7.12024">
        <ele>1000.200012207</ele>
        <time>2021-07-11T09:32:43.000Z</time>
      </trkpt>
      <trkpt lat="47.90273" lon="7.1202">
        <ele>1000.799987793</ele>
        <time>2021-07-11T09:32:44.000Z</time>
      </trkpt>
      <trkpt lat="47.9027" lon="7.12011">
        <ele>1001.200012207</ele>
        <time>2021-07-11T09:32:46.000Z</time>
      </trkpt>
      <trkpt lat="47.90269" lon="7.12007">
        <ele>1001.799987793</ele>
        <time>2021-07-11T09:32:47.000Z</time>
      </trkpt>
      <trkpt lat="47.90267" lon="7.12004">
        <ele>1002.200012207</ele>
        <time>2021-07-11T09:32:48.000Z</time>
      </trkpt>
      <trkpt lat="47.90266" lon="7.12001">
        <ele>1002.5999755859</ele>
        <time>2021-07-11T09:32:49.000Z</time>
      </trkpt>
      <trkpt lat="47.90264" lon="7.11999">
        <ele>1003.200012207</ele>
        <time>2021-07-11T09:32:50.000Z</time>
      </trkpt>
      <trkpt lat="47.90262" lon="7.11996">
        <ele>1003.5999755859</ele>
        <time>2021-07-11T09:32:51.000Z</time>
      </trkpt>
      <trkpt lat="47.9026" lon="7.11994">
        <ele>1004</ele>
        <time>2021-07-11T09:32:52.000Z</time>
      </trkpt>
      <trkpt lat="47.90259" lon="7.11991">
        <ele>1004.5999755859</ele>
        <time>2021-07-11T09:32:53.000Z</time>
      </trkpt>
      <trkpt lat="47.90257" lon="7.11988">
        <ele>1005</ele>
        <time>2021-07-11T09:32:54.000Z</time>
      </trkpt>
      <trkpt lat="47.90255" lon="7.11984">
        <ele>1005.4000244141</ele>
        <time>2021-07-11T09:32:55.000Z</time>
      </trkpt>
      <trkpt lat="47.90248" lon="7.1197">
        <ele>1005.4000244141</ele>
        <time>2021-07-11T09:32:59.000Z</time>
      </trkpt>
      <trkpt lat="47.90236" lon="7.11944">
        <ele>1005.4000244141</ele>
        <time>2021-07-11T09:33:05.000Z</time>
      </trkpt>
      <trkpt lat="47.90224" lon="7.11922">
        <ele>1005.4000244141</ele>
        <time>2021-07-11T09:33:11.000Z</time>
      </trkpt>
      <trkpt lat="47.9021" lon="7.11903">
        <ele>1005.4000244141</ele>
        <time>2021-07-11T09:33:16.000Z</time>
      </trkpt>
      <trkpt lat="47.90196" lon="7.11888">
        <ele>1005.4000244141</ele>
        <time>2021-07-11T09:33:21.000Z</time>
      </trkpt>
      <trkpt lat="47.90181" lon="7.11861">
        <ele>1005.799987793</ele>
        <time>2021-07-11T09:33:25.000Z</time>
      </trkpt>
      <trkpt lat="47.90179" lon="7.11854">
        <ele>1006.200012207</ele>
        <time>2021-07-11T09:33:26.000Z</time>
      </trkpt>
      <trkpt lat="47.90176" lon="7.11848">
        <ele>1006.799987793</ele>
        <time>2021-07-11T09:33:27.000Z</time>
      </trkpt>
      <trkpt lat="47.90175" lon="7.11843">
        <ele>1007.200012207</ele>
        <time>2021-07-11T09:33:28.000Z</time>
      </trkpt>
      <trkpt lat="47.90172" lon="7.11839">
        <ele>1007.5999755859</ele>
        <time>2021-07-11T09:33:29.000Z</time>
      </trkpt>
      <trkpt lat="47.90169" lon="7.11832">
        <ele>1007.5999755859</ele>
        <time>2021-07-11T09:33:31.000Z</time>
      </trkpt>
      <trkpt lat="47.9016" lon="7.11824">
        <ele>1007.5999755859</ele>
        <time>2021-07-11T09:33:35.000Z</time>
      </trkpt>
      <trkpt lat="47.90152" lon="7.11811">
        <ele>1007.5999755859</ele>
        <time>2021-07-11T09:33:40.000Z</time>
      </trkpt>
      <trkpt lat="47.90151" lon="7.1181">
        <ele>1008</ele>
        <time>2021-07-11T09:33:41.000Z</time>
      </trkpt>
      <trkpt lat="47.9015" lon="7.11807">
        <ele>1008.4000244141</ele>
        <time>2021-07-11T09:33:42.000Z</time>
      </trkpt>
      <trkpt lat="47.90149" lon="7.11805">
        <ele>1009</ele>
        <time>2021-07-11T09:33:43.000Z</time>
      </trkpt>
      <trkpt lat="47.90148" lon="7.11803">
        <ele>1009.4000244141</ele>
        <time>2021-07-11T09:33:44.000Z</time>
      </trkpt>
      <trkpt lat="47.90148" lon="7.118">
        <ele>1009.799987793</ele>
        <time>2021-07-11T09:33:45.000Z</time>
      </trkpt>
      <trkpt lat="47.90147" lon="7.11798">
        <ele>1009.799987793</ele>
        <time>2021-07-11T09:33:46.000Z</time>
      </trkpt>
      <trkpt lat="47.90143" lon="7.11791">
        <ele>1009.799987793</ele>
        <time>2021-07-11T09:33:49.000Z</time>
      </trkpt>
      <trkpt lat="47.90136" lon="7.11787">
        <ele>1009.799987793</ele>
        <time>2021-07-11T09:33:52.000Z</time>
      </trkpt>
      <trkpt lat="47.90134" lon="7.11786">
        <ele>1010.200012207</ele>
        <time>2021-07-11T09:33:53.000Z</time>
      </trkpt>
      <trkpt lat="47.90132" lon="7.11784">
        <ele>1010.5999755859</ele>
        <time>2021-07-11T09:33:54.000Z</time>
      </trkpt>
      <trkpt lat="47.9013" lon="7.11784">
        <ele>1011</ele>
        <time>2021-07-11T09:33:55.000Z</time>
      </trkpt>
      <trkpt lat="47.90128" lon="7.11783">
        <ele>1011.4000244141</ele>
        <time>2021-07-11T09:33:56.000Z</time>
      </trkpt>
      <trkpt lat="47.90124" lon="7.11782">
        <ele>1011.799987793</ele>
        <time>2021-07-11T09:33:57.000Z</time>
      </trkpt>
      <trkpt lat="47.90118" lon="7.11781">
        <ele>1011.799987793</ele>
        <time>2021-07-11T09:33:59.000Z</time>
      </trkpt>
      <trkpt lat="47.90105" lon="7.11773">
        <ele>1011.799987793</ele>
        <time>2021-07-11T09:34:04.000Z</time>
      </trkpt>
      <trkpt lat="47.90086" lon="7.11754">
        <ele>1011.799987793</ele>
        <time>2021-07-11T09:34:09.000Z</time>
      </trkpt>
      <trkpt lat="47.90063" lon="7.11732">
        <ele>1011.799987793</ele>
        <time>2021-07-11T09:34:16.000Z</time>
      </trkpt>
      <trkpt lat="47.90044" lon="7.11712">
        <ele>1011.799987793</ele>
        <time>2021-07-11T09:34:22.000Z</time>
      </trkpt>
      <trkpt lat="47.90041" lon="7.11709">
        <ele>1011.4000244141</ele>
        <time>2021-07-11T09:34:23.000Z</time>
      </trkpt>
      <trkpt lat="47.90037" lon="7.11706">
        <ele>1011</ele>
        <time>2021-07-11T09:34:24.000Z</time>
      </trkpt>
      <trkpt lat="47.90033" lon="7.11705">
        <ele>1010.200012207</ele>
        <time>2021-07-11T09:34:25.000Z</time>
      </trkpt>
      <trkpt lat="47.9003" lon="7.11702">
        <ele>1009.799987793</ele>
        <time>2021-07-11T09:34:26.000Z</time>
      </trkpt>
      <trkpt lat="47.90027" lon="7.11699">
        <ele>1009.799987793</ele>
        <time>2021-07-11T09:34:27.000Z</time>
      </trkpt>
      <trkpt lat="47.90014" lon="7.11688">
        <ele>1009.799987793</ele>
        <time>2021-07-11T09:34:32.000Z</time>
      </trkpt>
      <trkpt lat="47.89996" lon="7.11683">
        <ele>1009.799987793</ele>
        <time>2021-07-11T09:34:38.000Z</time>
      </trkpt>
      <trkpt lat="47.8999" lon="7.1168">
        <ele>1010.4000244141</ele>
        <time>2021-07-11T09:34:40.000Z</time>
      </trkpt>
      <trkpt lat="47.89987" lon="7.11678">
        <ele>1010.799987793</ele>
        <time>2021-07-11T09:34:41.000Z</time>
      </trkpt>
      <trkpt lat="47.89984" lon="7.11676">
        <ele>1011.200012207</ele>
        <time>2021-07-11T09:34:42.000Z</time>
      </trkpt>
      <trkpt lat="47.89982" lon="7.11675">
        <ele>1011.5999755859</ele>
        <time>2021-07-11T09:34:43.000Z</time>
      </trkpt>
      <trkpt lat="47.89979" lon="7.11674">
        <ele>1012</ele>
        <time>2021-07-11T09:34:44.000Z</time>
      </trkpt>
      <trkpt lat="47.89964" lon="7.11668">
        <ele>1012</ele>
        <time>2021-07-11T09:34:50.000Z</time>
      </trkpt>
      <trkpt lat="47.89958" lon="7.11666">
        <ele>1012.4000244141</ele>
        <time>2021-07-11T09:34:52.000Z</time>
      </trkpt>
      <trkpt lat="47.89954" lon="7.11667">
        <ele>1012.799987793</ele>
        <time>2021-07-11T09:34:53.000Z</time>
      </trkpt>
      <trkpt lat="47.89949" lon="7.11666">
        <ele>1013.200012207</ele>
        <time>2021-07-11T09:34:54.000Z</time>
      </trkpt>
      <trkpt lat="47.89944" lon="7.11665">
        <ele>1013.5999755859</ele>
        <time>2021-07-11T09:34:55.000Z</time>
      </trkpt>
      <trkpt lat="47.89941" lon="7.11664">
        <ele>1014</ele>
        <time>2021-07-11T09:34:56.000Z</time>
      </trkpt>
      <trkpt lat="47.89938" lon="7.11666">
        <ele>1014</ele>
        <time>2021-07-11T09:34:57.000Z</time>
      </trkpt>
      <trkpt lat="47.89928" lon="7.1167">
        <ele>1014</ele>
        <time>2021-07-11T09:35:00.000Z</time>
      </trkpt>
      <trkpt lat="47.89923" lon="7.11669">
        <ele>1014</ele>
        <time>2021-07-11T09:35:02.000Z</time>
      </trkpt>
      <trkpt lat="47.89913" lon="7.11669">
        <ele>1014</ele>
        <time>2021-07-11T09:35:07.000Z</time>
      </trkpt>
      <trkpt lat="47.89907" lon="7.11667">
        <ele>1014</ele>
        <time>2021-07-11T09:35:12.000Z</time>
      </trkpt>
      <trkpt lat="47.89906" lon="7.11666">
        <ele>1014</ele>
        <time>2021-07-11T09:36:18.000Z</time>
      </trkpt>
      <trkpt lat="47.89899" lon="7.11663">
        <ele>1014</ele>
        <time>2021-07-11T09:36:21.000Z</time>
      </trkpt>
      <trkpt lat="47.89892" lon="7.11658">
        <ele>1014</ele>
        <time>2021-07-11T09:36:26.000Z</time>
      </trkpt>
      <trkpt lat="47.89892" lon="7.11658">
        <ele>1014</ele>
        <time>2021-07-11T09:36:27.000Z</time>
      </trkpt>
      <trkpt lat="47.89889" lon="7.11663">
        <ele>1014</ele>
        <time>2021-07-11T09:36:30.000Z</time>
      </trkpt>
      <trkpt lat="47.89885" lon="7.11672">
        <ele>1014</ele>
        <time>2021-07-11T09:36:34.000Z</time>
      </trkpt>
      <trkpt lat="47.89884" lon="7.11675">
        <ele>1014</ele>
        <time>2021-07-11T09:36:35.000Z</time>
      </trkpt>
      <trkpt lat="47.89881" lon="7.11687">
        <ele>1014</ele>
        <time>2021-07-11T09:36:39.000Z</time>
      </trkpt>
      <trkpt lat="47.89879" lon="7.1169">
        <ele>1014</ele>
        <time>2021-07-11T09:36:40.000Z</time>
      </trkpt>
      <trkpt lat="47.89877" lon="7.11704">
        <ele>1014</ele>
        <time>2021-07-11T09:36:45.000Z</time>
      </trkpt>
      <trkpt lat="47.8987" lon="7.11718">
        <ele>1014</ele>
        <time>2021-07-11T09:36:52.000Z</time>
      </trkpt>
      <trkpt lat="47.89869" lon="7.1172">
        <ele>1014.5999755859</ele>
        <time>2021-07-11T09:36:53.000Z</time>
      </trkpt>
      <trkpt lat="47.89866" lon="7.11724">
        <ele>1015</ele>
        <time>2021-07-11T09:36:54.000Z</time>
      </trkpt>
      <trkpt lat="47.89863" lon="7.11727">
        <ele>1015.4000244141</ele>
        <time>2021-07-11T09:36:55.000Z</time>
      </trkpt>
      <trkpt lat="47.89861" lon="7.11729">
        <ele>1015.799987793</ele>
        <time>2021-07-11T09:36:56.000Z</time>
      </trkpt>
      <trkpt lat="47.89859" lon="7.11733">
        <ele>1016.200012207</ele>
        <time>2021-07-11T09:36:57.000Z</time>
      </trkpt>
      <trkpt lat="47.89851" lon="7.11753">
        <ele>1016.200012207</ele>
        <time>2021-07-11T09:37:02.000Z</time>
      </trkpt>
      <trkpt lat="47.8985" lon="7.11765">
        <ele>1016.200012207</ele>
        <time>2021-07-11T09:37:06.000Z</time>
      </trkpt>
      <trkpt lat="47.89852" lon="7.11771">
        <ele>1016.200012207</ele>
        <time>2021-07-11T09:37:08.000Z</time>
      </trkpt>
      <trkpt lat="47.89854" lon="7.1179">
        <ele>1016.200012207</ele>
        <time>2021-07-11T09:37:12.000Z</time>
      </trkpt>
      <trkpt lat="47.89852" lon="7.11819">
        <ele>1016.200012207</ele>
        <time>2021-07-11T09:37:17.000Z</time>
      </trkpt>
      <trkpt lat="47.89855" lon="7.11854">
        <ele>1016.200012207</ele>
        <time>2021-07-11T09:37:23.000Z</time>
      </trkpt>
      <trkpt lat="47.89861" lon="7.11904">
        <ele>1016.200012207</ele>
        <time>2021-07-11T09:37:31.000Z</time>
      </trkpt>
      <trkpt lat="47.89866" lon="7.1194">
        <ele>1016.200012207</ele>
        <time>2021-07-11T09:37:37.000Z</time>
      </trkpt>
      <trkpt lat="47.89875" lon="7.11983">
        <ele>1016.200012207</ele>
        <time>2021-07-11T09:37:44.000Z</time>
      </trkpt>
      <trkpt lat="47.89876" lon="7.12005">
        <ele>1016.200012207</ele>
        <time>2021-07-11T09:37:49.000Z</time>
      </trkpt>
      <trkpt lat="47.89879" lon="7.1202">
        <ele>1016.200012207</ele>
        <time>2021-07-11T09:37:54.000Z</time>
      </trkpt>
      <trkpt lat="47.89883" lon="7.12047">
        <ele>1016.200012207</ele>
        <time>2021-07-11T09:38:01.000Z</time>
      </trkpt>
      <trkpt lat="47.8989" lon="7.1208">
        <ele>1016.200012207</ele>
        <time>2021-07-11T09:38:08.000Z</time>
      </trkpt>
      <trkpt lat="47.89894" lon="7.12117">
        <ele>1016.200012207</ele>
        <time>2021-07-11T09:38:14.000Z</time>
      </trkpt>
      <trkpt lat="47.89895" lon="7.1214">
        <ele>1016.200012207</ele>
        <time>2021-07-11T09:38:17.000Z</time>
      </trkpt>
      <trkpt lat="47.89895" lon="7.12153">
        <ele>1016.200012207</ele>
        <time>2021-07-11T09:38:19.000Z</time>
      </trkpt>
      <trkpt lat="47.89886" lon="7.12184">
        <ele>1016.200012207</ele>
        <time>2021-07-11T09:38:24.000Z</time>
      </trkpt>
      <trkpt lat="47.89879" lon="7.12217">
        <ele>1016.200012207</ele>
        <time>2021-07-11T09:38:30.000Z</time>
      </trkpt>
      <trkpt lat="47.89864" lon="7.12242">
        <ele>1016.200012207</ele>
        <time>2021-07-11T09:38:35.000Z</time>
      </trkpt>
      <trkpt lat="47.89861" lon="7.12247">
        <ele>1016.200012207</ele>
        <time>2021-07-11T09:38:36.000Z</time>
      </trkpt>
      <trkpt lat="47.89853" lon="7.12255">
        <ele>1016.200012207</ele>
        <time>2021-07-11T09:38:38.000Z</time>
      </trkpt>
      <trkpt lat="47.89842" lon="7.12259">
        <ele>1016.200012207</ele>
        <time>2021-07-11T09:38:40.000Z</time>
      </trkpt>
      <trkpt lat="47.89821" lon="7.12263">
        <ele>1016.200012207</ele>
        <time>2021-07-11T09:38:44.000Z</time>
      </trkpt>
      <trkpt lat="47.89811" lon="7.12266">
        <ele>1016.200012207</ele>
        <time>2021-07-11T09:38:46.000Z</time>
      </trkpt>
      <trkpt lat="47.89801" lon="7.1227">
        <ele>1015.799987793</ele>
        <time>2021-07-11T09:38:48.000Z</time>
      </trkpt>
      <trkpt lat="47.89796" lon="7.12272">
        <ele>1015.4000244141</ele>
        <time>2021-07-11T09:38:49.000Z</time>
      </trkpt>
      <trkpt lat="47.89791" lon="7.12273">
        <ele>1015</ele>
        <time>2021-07-11T09:38:50.000Z</time>
      </trkpt>
      <trkpt lat="47.89786" lon="7.12275">
        <ele>1014</ele>
        <time>2021-07-11T09:38:51.000Z</time>
      </trkpt>
      <trkpt lat="47.89782" lon="7.12276">
        <ele>1014</ele>
        <time>2021-07-11T09:38:52.000Z</time>
      </trkpt>
      <trkpt lat="47.89777" lon="7.12278">
        <ele>1014</ele>
        <time>2021-07-11T09:38:53.000Z</time>
      </trkpt>
      <trkpt lat="47.89772" lon="7.1228">
        <ele>1013.5999755859</ele>
        <time>2021-07-11T09:38:54.000Z</time>
      </trkpt>
      <trkpt lat="47.89768" lon="7.12283">
        <ele>1013.200012207</ele>
        <time>2021-07-11T09:38:55.000Z</time>
      </trkpt>
      <trkpt lat="47.89763" lon="7.12285">
        <ele>1012.799987793</ele>
        <time>2021-07-11T09:38:56.000Z</time>
      </trkpt>
      <trkpt lat="47.89758" lon="7.12288">
        <ele>1012.4000244141</ele>
        <time>2021-07-11T09:38:57.000Z</time>
      </trkpt>
      <trkpt lat="47.89752" lon="7.12291">
        <ele>1012</ele>
        <time>2021-07-11T09:38:58.000Z</time>
      </trkpt>
      <trkpt lat="47.89728" lon="7.12301">
        <ele>1011.5999755859</ele>
        <time>2021-07-11T09:39:02.000Z</time>
      </trkpt>
      <trkpt lat="47.89722" lon="7.12302">
        <ele>1011.200012207</ele>
        <time>2021-07-11T09:39:03.000Z</time>
      </trkpt>
      <trkpt lat="47.89717" lon="7.12303">
        <ele>1010.5999755859</ele>
        <time>2021-07-11T09:39:04.000Z</time>
      </trkpt>
      <trkpt lat="47.89712" lon="7.12304">
        <ele>1010.200012207</ele>
        <time>2021-07-11T09:39:05.000Z</time>
      </trkpt>
      <trkpt lat="47.89707" lon="7.12306">
        <ele>1009.799987793</ele>
        <time>2021-07-11T09:39:06.000Z</time>
      </trkpt>
      <trkpt lat="47.89699" lon="7.12308">
        <ele>1009.799987793</ele>
        <time>2021-07-11T09:39:08.000Z</time>
      </trkpt>
      <trkpt lat="47.89685" lon="7.12312">
        <ele>1010.200012207</ele>
        <time>2021-07-11T09:39:12.000Z</time>
      </trkpt>
      <trkpt lat="47.89681" lon="7.12313">
        <ele>1010.5999755859</ele>
        <time>2021-07-11T09:39:13.000Z</time>
      </trkpt>
      <trkpt lat="47.89678" lon="7.12314">
        <ele>1011</ele>
        <time>2021-07-11T09:39:14.000Z</time>
      </trkpt>
      <trkpt lat="47.89675" lon="7.12315">
        <ele>1012</ele>
        <time>2021-07-11T09:39:15.000Z</time>
      </trkpt>
      <trkpt lat="47.89654" lon="7.12324">
        <ele>1012</ele>
        <time>2021-07-11T09:39:20.000Z</time>
      </trkpt>
      <trkpt lat="47.8963" lon="7.12329">
        <ele>1012</ele>
        <time>2021-07-11T09:39:26.000Z</time>
      </trkpt>
      <trkpt lat="47.89604" lon="7.12335">
        <ele>1012</ele>
        <time>2021-07-11T09:39:32.000Z</time>
      </trkpt>
      <trkpt lat="47.89572" lon="7.12342">
        <ele>1012</ele>
        <time>2021-07-11T09:39:39.000Z</time>
      </trkpt>
      <trkpt lat="47.89566" lon="7.12342">
        <ele>1012</ele>
        <time>2021-07-11T09:39:40.000Z</time>
      </trkpt>
      <trkpt lat="47.89544" lon="7.12341">
        <ele>1012</ele>
        <time>2021-07-11T09:39:44.000Z</time>
      </trkpt>
      <trkpt lat="47.89515" lon="7.12337">
        <ele>1012</ele>
        <time>2021-07-11T09:39:50.000Z</time>
      </trkpt>
      <trkpt lat="47.89481" lon="7.12333">
        <ele>1012</ele>
        <time>2021-07-11T09:39:57.000Z</time>
      </trkpt>
      <trkpt lat="47.89465" lon="7.12327">
        <ele>1011.4000244141</ele>
        <time>2021-07-11T09:40:01.000Z</time>
      </trkpt>
      <trkpt lat="47.89462" lon="7.12326">
        <ele>1011</ele>
        <time>2021-07-11T09:40:02.000Z</time>
      </trkpt>
      <trkpt lat="47.89458" lon="7.12325">
        <ele>1010.5999755859</ele>
        <time>2021-07-11T09:40:03.000Z</time>
      </trkpt>
      <trkpt lat="47.89455" lon="7.12325">
        <ele>1010.200012207</ele>
        <time>2021-07-11T09:40:04.000Z</time>
      </trkpt>
      <trkpt lat="47.89451" lon="7.12324">
        <ele>1009.799987793</ele>
        <time>2021-07-11T09:40:05.000Z</time>
      </trkpt>
      <trkpt lat="47.89431" lon="7.12314">
        <ele>1009.799987793</ele>
        <time>2021-07-11T09:40:09.000Z</time>
      </trkpt>
      <trkpt lat="47.89419" lon="7.12311">
        <ele>1009.799987793</ele>
        <time>2021-07-11T09:40:13.000Z</time>
      </trkpt>
      <trkpt lat="47.89408" lon="7.12308">
        <ele>1009.799987793</ele>
        <time>2021-07-11T09:40:18.000Z</time>
      </trkpt>
      <trkpt lat="47.89393" lon="7.12302">
        <ele>1009.799987793</ele>
        <time>2021-07-11T09:40:24.000Z</time>
      </trkpt>
      <trkpt lat="47.89373" lon="7.12299">
        <ele>1009.799987793</ele>
        <time>2021-07-11T09:40:30.000Z</time>
      </trkpt>
      <trkpt lat="47.8935" lon="7.12295">
        <ele>1009.799987793</ele>
        <time>2021-07-11T09:40:35.000Z</time>
      </trkpt>
      <trkpt lat="47.89322" lon="7.12289">
        <ele>1009.799987793</ele>
        <time>2021-07-11T09:40:41.000Z</time>
      </trkpt>
      <trkpt lat="47.89303" lon="7.12284">
        <ele>1009.799987793</ele>
        <time>2021-07-11T09:40:46.000Z</time>
      </trkpt>
      <trkpt lat="47.89285" lon="7.12284">
        <ele>1009.4000244141</ele>
        <time>2021-07-11T09:40:51.000Z</time>
      </trkpt>
      <trkpt lat="47.89282" lon="7.12284">
        <ele>1009</ele>
        <time>2021-07-11T09:40:52.000Z</time>
      </trkpt>
      <trkpt lat="47.89279" lon="7.12287">
        <ele>1008.5999755859</ele>
        <time>2021-07-11T09:40:53.000Z</time>
      </trkpt>
      <trkpt lat="47.89277" lon="7.12289">
        <ele>1007.799987793</ele>
        <time>2021-07-11T09:40:54.000Z</time>
      </trkpt>
      <trkpt lat="47.89271" lon="7.12295">
        <ele>1007.799987793</ele>
        <time>2021-07-11T09:40:57.000Z</time>
      </trkpt>
      <trkpt lat="47.89259" lon="7.12299">
        <ele>1007.799987793</ele>
        <time>2021-07-11T09:41:03.000Z</time>
      </trkpt>
      <trkpt lat="47.8925" lon="7.12303">
        <ele>1007.799987793</ele>
        <time>2021-07-11T09:41:08.000Z</time>
      </trkpt>
      <trkpt lat="47.89246" lon="7.12305">
        <ele>1007.799987793</ele>
        <time>2021-07-11T09:41:11.000Z</time>
      </trkpt>
      <trkpt lat="47.8924" lon="7.12309">
        <ele>1007.799987793</ele>
        <time>2021-07-11T09:42:57.000Z</time>
      </trkpt>
      <trkpt lat="47.89238" lon="7.1231">
        <ele>1007.799987793</ele>
        <time>2021-07-11T09:42:58.000Z</time>
      </trkpt>
      <trkpt lat="47.8923" lon="7.12314">
        <ele>1007.799987793</ele>
        <time>2021-07-11T09:43:02.000Z</time>
      </trkpt>
      <trkpt lat="47.89227" lon="7.12316">
        <ele>1007.799987793</ele>
        <time>2021-07-11T09:43:03.000Z</time>
      </trkpt>
      <trkpt lat="47.89201" lon="7.12321">
        <ele>1007.799987793</ele>
        <time>2021-07-11T09:43:10.000Z</time>
      </trkpt>
      <trkpt lat="47.89178" lon="7.12319">
        <ele>1008.200012207</ele>
        <time>2021-07-11T09:43:16.000Z</time>
      </trkpt>
      <trkpt lat="47.89175" lon="7.12319">
        <ele>1008.5999755859</ele>
        <time>2021-07-11T09:43:17.000Z</time>
      </trkpt>
      <trkpt lat="47.89173" lon="7.12319">
        <ele>1009</ele>
        <time>2021-07-11T09:43:18.000Z</time>
      </trkpt>
      <trkpt lat="47.8917" lon="7.12318">
        <ele>1009.4000244141</ele>
        <time>2021-07-11T09:43:19.000Z</time>
      </trkpt>
      <trkpt lat="47.89167" lon="7.12318">
        <ele>1009.799987793</ele>
        <time>2021-07-11T09:43:20.000Z</time>
      </trkpt>
      <trkpt lat="47.89157" lon="7.12315">
        <ele>1009.799987793</ele>
        <time>2021-07-11T09:43:23.000Z</time>
      </trkpt>
      <trkpt lat="47.89142" lon="7.12308">
        <ele>1009.799987793</ele>
        <time>2021-07-11T09:43:29.000Z</time>
      </trkpt>
      <trkpt lat="47.89128" lon="7.12296">
        <ele>1009.799987793</ele>
        <time>2021-07-11T09:43:36.000Z</time>
      </trkpt>
      <trkpt lat="47.8911" lon="7.12277">
        <ele>1009.799987793</ele>
        <time>2021-07-11T09:43:43.000Z</time>
      </trkpt>
      <trkpt lat="47.89095" lon="7.12255">
        <ele>1009.799987793</ele>
        <time>2021-07-11T09:43:50.000Z</time>
      </trkpt>
      <trkpt lat="47.89086" lon="7.12239">
        <ele>1009.799987793</ele>
        <time>2021-07-11T09:43:55.000Z</time>
      </trkpt>
      <trkpt lat="47.89072" lon="7.12231">
        <ele>1009.799987793</ele>
        <time>2021-07-11T09:44:01.000Z</time>
      </trkpt>
      <trkpt lat="47.89047" lon="7.12224">
        <ele>1009.799987793</ele>
        <time>2021-07-11T09:44:08.000Z</time>
      </trkpt>
      <trkpt lat="47.89024" lon="7.12214">
        <ele>1009.799987793</ele>
        <time>2021-07-11T09:44:14.000Z</time>
      </trkpt>
      <trkpt lat="47.89005" lon="7.12202">
        <ele>1009.4000244141</ele>
        <time>2021-07-11T09:44:19.000Z</time>
      </trkpt>
      <trkpt lat="47.89" lon="7.12198">
        <ele>1009</ele>
        <time>2021-07-11T09:44:20.000Z</time>
      </trkpt>
      <trkpt lat="47.88995" lon="7.12195">
        <ele>1008.5999755859</ele>
        <time>2021-07-11T09:44:21.000Z</time>
      </trkpt>
      <trkpt lat="47.8899" lon="7.12192">
        <ele>1008.200012207</ele>
        <time>2021-07-11T09:44:22.000Z</time>
      </trkpt>
      <trkpt lat="47.88985" lon="7.12191">
        <ele>1007.799987793</ele>
        <time>2021-07-11T09:44:23.000Z</time>
      </trkpt>
      <trkpt lat="47.88976" lon="7.12191">
        <ele>1007.799987793</ele>
        <time>2021-07-11T09:44:25.000Z</time>
      </trkpt>
      <trkpt lat="47.88969" lon="7.12193">
        <ele>1007.200012207</ele>
        <time>2021-07-11T09:44:27.000Z</time>
      </trkpt>
      <trkpt lat="47.88967" lon="7.12195">
        <ele>1006.799987793</ele>
        <time>2021-07-11T09:44:28.000Z</time>
      </trkpt>
      <trkpt lat="47.88966" lon="7.12197">
        <ele>1006.4000244141</ele>
        <time>2021-07-11T09:44:29.000Z</time>
      </trkpt>
      <trkpt lat="47.88965" lon="7.122">
        <ele>1005.799987793</ele>
        <time>2021-07-11T09:44:30.000Z</time>
      </trkpt>
      <trkpt lat="47.88963" lon="7.12203">
        <ele>1005.4000244141</ele>
        <time>2021-07-11T09:44:31.000Z</time>
      </trkpt>
      <trkpt lat="47.88959" lon="7.12208">
        <ele>1004.799987793</ele>
        <time>2021-07-11T09:44:34.000Z</time>
      </trkpt>
      <trkpt lat="47.88957" lon="7.12212">
        <ele>1004.4000244141</ele>
        <time>2021-07-11T09:44:35.000Z</time>
      </trkpt>
      <trkpt lat="47.88953" lon="7.12217">
        <ele>1003.799987793</ele>
        <time>2021-07-11T09:44:36.000Z</time>
      </trkpt>
      <trkpt lat="47.88947" lon="7.12224">
        <ele>1002.799987793</ele>
        <time>2021-07-11T09:44:37.000Z</time>
      </trkpt>
      <trkpt lat="47.88942" lon="7.1223">
        <ele>1002.200012207</ele>
        <time>2021-07-11T09:44:38.000Z</time>
      </trkpt>
      <trkpt lat="47.88938" lon="7.12236">
        <ele>1001.799987793</ele>
        <time>2021-07-11T09:44:39.000Z</time>
      </trkpt>
      <trkpt lat="47.88934" lon="7.12242">
        <ele>1001.200012207</ele>
        <time>2021-07-11T09:44:40.000Z</time>
      </trkpt>
      <trkpt lat="47.88929" lon="7.12248">
        <ele>1000.5999755859</ele>
        <time>2021-07-11T09:44:41.000Z</time>
      </trkpt>
      <trkpt lat="47.88924" lon="7.12254">
        <ele>1000.200012207</ele>
        <time>2021-07-11T09:44:42.000Z</time>
      </trkpt>
      <trkpt lat="47.8892" lon="7.12259">
        <ele>999.79998779297</ele>
        <time>2021-07-11T09:44:43.000Z</time>
      </trkpt>
      <trkpt lat="47.88916" lon="7.12264">
        <ele>999.40002441406</ele>
        <time>2021-07-11T09:44:44.000Z</time>
      </trkpt>
      <trkpt lat="47.88913" lon="7.12271">
        <ele>998.59997558594</ele>
        <time>2021-07-11T09:44:45.000Z</time>
      </trkpt>
      <trkpt lat="47.88911" lon="7.1228">
        <ele>997.79998779297</ele>
        <time>2021-07-11T09:44:46.000Z</time>
      </trkpt>
      <trkpt lat="47.88909" lon="7.12289">
        <ele>997</ele>
        <time>2021-07-11T09:44:47.000Z</time>
      </trkpt>
      <trkpt lat="47.88906" lon="7.12299">
        <ele>996.20001220703</ele>
        <time>2021-07-11T09:44:48.000Z</time>
      </trkpt>
      <trkpt lat="47.88904" lon="7.1231">
        <ele>995.40002441406</ele>
        <time>2021-07-11T09:44:49.000Z</time>
      </trkpt>
      <trkpt lat="47.88901" lon="7.12321">
        <ele>994.40002441406</ele>
        <time>2021-07-11T09:44:50.000Z</time>
      </trkpt>
      <trkpt lat="47.88898" lon="7.12334">
        <ele>993.59997558594</ele>
        <time>2021-07-11T09:44:51.000Z</time>
      </trkpt>
      <trkpt lat="47.88895" lon="7.12348">
        <ele>993</ele>
        <time>2021-07-11T09:44:52.000Z</time>
      </trkpt>
      <trkpt lat="47.88893" lon="7.1236">
        <ele>992.40002441406</ele>
        <time>2021-07-11T09:44:53.000Z</time>
      </trkpt>
      <trkpt lat="47.88891" lon="7.12374">
        <ele>991.79998779297</ele>
        <time>2021-07-11T09:44:54.000Z</time>
      </trkpt>
      <trkpt lat="47.88889" lon="7.12387">
        <ele>991.20001220703</ele>
        <time>2021-07-11T09:44:55.000Z</time>
      </trkpt>
      <trkpt lat="47.88887" lon="7.12401">
        <ele>990.59997558594</ele>
        <time>2021-07-11T09:44:56.000Z</time>
      </trkpt>
      <trkpt lat="47.88884" lon="7.12418">
        <ele>990</ele>
        <time>2021-07-11T09:44:57.000Z</time>
      </trkpt>
      <trkpt lat="47.88882" lon="7.12431">
        <ele>989.20001220703</ele>
        <time>2021-07-11T09:44:58.000Z</time>
      </trkpt>
      <trkpt lat="47.8888" lon="7.12444">
        <ele>988.59997558594</ele>
        <time>2021-07-11T09:44:59.000Z</time>
      </trkpt>
      <trkpt lat="47.88878" lon="7.12457">
        <ele>988</ele>
        <time>2021-07-11T09:45:00.000Z</time>
      </trkpt>
      <trkpt lat="47.88876" lon="7.12469">
        <ele>987.59997558594</ele>
        <time>2021-07-11T09:45:01.000Z</time>
      </trkpt>
      <trkpt lat="47.88873" lon="7.1248">
        <ele>986.59997558594</ele>
        <time>2021-07-11T09:45:02.000Z</time>
      </trkpt>
      <trkpt lat="47.88871" lon="7.12491">
        <ele>986.20001220703</ele>
        <time>2021-07-11T09:45:03.000Z</time>
      </trkpt>
      <trkpt lat="47.88869" lon="7.12502">
        <ele>985.79998779297</ele>
        <time>2021-07-11T09:45:04.000Z</time>
      </trkpt>
      <trkpt lat="47.88864" lon="7.12525">
        <ele>985.79998779297</ele>
        <time>2021-07-11T09:45:06.000Z</time>
      </trkpt>
      <trkpt lat="47.88861" lon="7.12537">
        <ele>985.40002441406</ele>
        <time>2021-07-11T09:45:07.000Z</time>
      </trkpt>
      <trkpt lat="47.88858" lon="7.12547">
        <ele>985</ele>
        <time>2021-07-11T09:45:08.000Z</time>
      </trkpt>
      <trkpt lat="47.88855" lon="7.12555">
        <ele>984.59997558594</ele>
        <time>2021-07-11T09:45:09.000Z</time>
      </trkpt>
      <trkpt lat="47.88853" lon="7.12563">
        <ele>984.20001220703</ele>
        <time>2021-07-11T09:45:10.000Z</time>
      </trkpt>
      <trkpt lat="47.8885" lon="7.12571">
        <ele>983.79998779297</ele>
        <time>2021-07-11T09:45:11.000Z</time>
      </trkpt>
      <trkpt lat="47.88846" lon="7.12577">
        <ele>983.79998779297</ele>
        <time>2021-07-11T09:45:12.000Z</time>
      </trkpt>
      <trkpt lat="47.8883" lon="7.12598">
        <ele>983.79998779297</ele>
        <time>2021-07-11T09:45:16.000Z</time>
      </trkpt>
      <trkpt lat="47.88811" lon="7.12613">
        <ele>983.79998779297</ele>
        <time>2021-07-11T09:45:21.000Z</time>
      </trkpt>
      <trkpt lat="47.88791" lon="7.12625">
        <ele>983.40002441406</ele>
        <time>2021-07-11T09:45:25.000Z</time>
      </trkpt>
      <trkpt lat="47.88785" lon="7.12628">
        <ele>983</ele>
        <time>2021-07-11T09:45:26.000Z</time>
      </trkpt>
      <trkpt lat="47.88779" lon="7.12631">
        <ele>982</ele>
        <time>2021-07-11T09:45:27.000Z</time>
      </trkpt>
      <trkpt lat="47.88775" lon="7.12634">
        <ele>981.40002441406</ele>
        <time>2021-07-11T09:45:28.000Z</time>
      </trkpt>
      <trkpt lat="47.88771" lon="7.12637">
        <ele>980.79998779297</ele>
        <time>2021-07-11T09:45:29.000Z</time>
      </trkpt>
      <trkpt lat="47.88767" lon="7.1264">
        <ele>980.20001220703</ele>
        <time>2021-07-11T09:45:30.000Z</time>
      </trkpt>
      <trkpt lat="47.88764" lon="7.12643">
        <ele>979.59997558594</ele>
        <time>2021-07-11T09:45:31.000Z</time>
      </trkpt>
      <trkpt lat="47.88761" lon="7.12647">
        <ele>979</ele>
        <time>2021-07-11T09:45:32.000Z</time>
      </trkpt>
      <trkpt lat="47.88758" lon="7.12651">
        <ele>978.40002441406</ele>
        <time>2021-07-11T09:45:33.000Z</time>
      </trkpt>
      <trkpt lat="47.88755" lon="7.12655">
        <ele>977.59997558594</ele>
        <time>2021-07-11T09:45:34.000Z</time>
      </trkpt>
      <trkpt lat="47.8875" lon="7.12661">
        <ele>977</ele>
        <time>2021-07-11T09:45:35.000Z</time>
      </trkpt>
      <trkpt lat="47.88746" lon="7.12667">
        <ele>976.20001220703</ele>
        <time>2021-07-11T09:45:36.000Z</time>
      </trkpt>
      <trkpt lat="47.88741" lon="7.12674">
        <ele>975.40002441406</ele>
        <time>2021-07-11T09:45:37.000Z</time>
      </trkpt>
      <trkpt lat="47.88736" lon="7.12682">
        <ele>974.59997558594</ele>
        <time>2021-07-11T09:45:38.000Z</time>
      </trkpt>
      <trkpt lat="47.88732" lon="7.1269">
        <ele>973.79998779297</ele>
        <time>2021-07-11T09:45:39.000Z</time>
      </trkpt>
      <trkpt lat="47.88728" lon="7.12698">
        <ele>972.79998779297</ele>
        <time>2021-07-11T09:45:40.000Z</time>
      </trkpt>
      <trkpt lat="47.88723" lon="7.12707">
        <ele>972</ele>
        <time>2021-07-11T09:45:41.000Z</time>
      </trkpt>
      <trkpt lat="47.88719" lon="7.12717">
        <ele>971</ele>
        <time>2021-07-11T09:45:42.000Z</time>
      </trkpt>
      <trkpt lat="47.88713" lon="7.12729">
        <ele>970</ele>
        <time>2021-07-11T09:45:43.000Z</time>
      </trkpt>
      <trkpt lat="47.88707" lon="7.12741">
        <ele>969.20001220703</ele>
        <time>2021-07-11T09:45:44.000Z</time>
      </trkpt>
      <trkpt lat="47.88703" lon="7.12753">
        <ele>968.40002441406</ele>
        <time>2021-07-11T09:45:45.000Z</time>
      </trkpt>
      <trkpt lat="47.88698" lon="7.12767">
        <ele>967.40002441406</ele>
        <time>2021-07-11T09:45:46.000Z</time>
      </trkpt>
      <trkpt lat="47.88693" lon="7.12778">
        <ele>966.79998779297</ele>
        <time>2021-07-11T09:45:47.000Z</time>
      </trkpt>
      <trkpt lat="47.88689" lon="7.12789">
        <ele>966.20001220703</ele>
        <time>2021-07-11T09:45:48.000Z</time>
      </trkpt>
      <trkpt lat="47.88685" lon="7.12799">
        <ele>965.59997558594</ele>
        <time>2021-07-11T09:45:49.000Z</time>
      </trkpt>
      <trkpt lat="47.8868" lon="7.12807">
        <ele>965</ele>
        <time>2021-07-11T09:45:50.000Z</time>
      </trkpt>
      <trkpt lat="47.88676" lon="7.12816">
        <ele>964.40002441406</ele>
        <time>2021-07-11T09:45:51.000Z</time>
      </trkpt>
      <trkpt lat="47.88672" lon="7.12825">
        <ele>964.40002441406</ele>
        <time>2021-07-11T09:45:53.000Z</time>
      </trkpt>
      <trkpt lat="47.8867" lon="7.12826">
        <ele>964.40002441406</ele>
        <time>2021-07-11T09:45:54.000Z</time>
      </trkpt>
      <trkpt lat="47.88667" lon="7.12823">
        <ele>964.40002441406</ele>
        <time>2021-07-11T09:45:57.000Z</time>
      </trkpt>
      <trkpt lat="47.8867" lon="7.12815">
        <ele>964.40002441406</ele>
        <time>2021-07-11T09:46:01.000Z</time>
      </trkpt>
      <trkpt lat="47.8867" lon="7.12815">
        <ele>964.40002441406</ele>
        <time>2021-07-11T09:46:02.000Z</time>
      </trkpt>
      <trkpt lat="47.88672" lon="7.12813">
        <ele>964.40002441406</ele>
        <time>2021-07-11T09:46:43.000Z</time>
      </trkpt>
      <trkpt lat="47.88678" lon="7.12811">
        <ele>964.40002441406</ele>
        <time>2021-07-11T09:46:45.000Z</time>
      </trkpt>
      <trkpt lat="47.8869" lon="7.12817">
        <ele>964.40002441406</ele>
        <time>2021-07-11T09:46:50.000Z</time>
      </trkpt>
      <trkpt lat="47.88691" lon="7.12821">
        <ele>964.40002441406</ele>
        <time>2021-07-11T09:46:51.000Z</time>
      </trkpt>
      <trkpt lat="47.88691" lon="7.12831">
        <ele>964.40002441406</ele>
        <time>2021-07-11T09:46:53.000Z</time>
      </trkpt>
      <trkpt lat="47.8869" lon="7.12835">
        <ele>964.40002441406</ele>
        <time>2021-07-11T09:46:54.000Z</time>
      </trkpt>
      <trkpt lat="47.88687" lon="7.12852">
        <ele>964.40002441406</ele>
        <time>2021-07-11T09:46:59.000Z</time>
      </trkpt>
      <trkpt lat="47.88686" lon="7.1286">
        <ele>964.79998779297</ele>
        <time>2021-07-11T09:47:01.000Z</time>
      </trkpt>
      <trkpt lat="47.88686" lon="7.12864">
        <ele>965.20001220703</ele>
        <time>2021-07-11T09:47:02.000Z</time>
      </trkpt>
      <trkpt lat="47.88686" lon="7.12868">
        <ele>965.59997558594</ele>
        <time>2021-07-11T09:47:03.000Z</time>
      </trkpt>
      <trkpt lat="47.88686" lon="7.12871">
        <ele>966</ele>
        <time>2021-07-11T09:47:04.000Z</time>
      </trkpt>
      <trkpt lat="47.88686" lon="7.12874">
        <ele>966.40002441406</ele>
        <time>2021-07-11T09:47:05.000Z</time>
      </trkpt>
      <trkpt lat="47.88684" lon="7.12879">
        <ele>967</ele>
        <time>2021-07-11T09:47:07.000Z</time>
      </trkpt>
      <trkpt lat="47.88684" lon="7.12882">
        <ele>967.40002441406</ele>
        <time>2021-07-11T09:47:08.000Z</time>
      </trkpt>
      <trkpt lat="47.88683" lon="7.12885">
        <ele>967.79998779297</ele>
        <time>2021-07-11T09:47:09.000Z</time>
      </trkpt>
      <trkpt lat="47.88682" lon="7.12888">
        <ele>968.40002441406</ele>
        <time>2021-07-11T09:47:10.000Z</time>
      </trkpt>
      <trkpt lat="47.88681" lon="7.12891">
        <ele>968.79998779297</ele>
        <time>2021-07-11T09:47:11.000Z</time>
      </trkpt>
      <trkpt lat="47.88679" lon="7.12896">
        <ele>969.20001220703</ele>
        <time>2021-07-11T09:47:13.000Z</time>
      </trkpt>
      <trkpt lat="47.88679" lon="7.12898">
        <ele>969.79998779297</ele>
        <time>2021-07-11T09:47:14.000Z</time>
      </trkpt>
      <trkpt lat="47.88678" lon="7.12901">
        <ele>970.20001220703</ele>
        <time>2021-07-11T09:47:15.000Z</time>
      </trkpt>
      <trkpt lat="47.88676" lon="7.12903">
        <ele>970.79998779297</ele>
        <time>2021-07-11T09:47:16.000Z</time>
      </trkpt>
      <trkpt lat="47.88676" lon="7.12905">
        <ele>971.20001220703</ele>
        <time>2021-07-11T09:47:17.000Z</time>
      </trkpt>
      <trkpt lat="47.88675" lon="7.12907">
        <ele>971.59997558594</ele>
        <time>2021-07-11T09:47:18.000Z</time>
      </trkpt>
      <trkpt lat="47.88674" lon="7.12909">
        <ele>972</ele>
        <time>2021-07-11T09:47:19.000Z</time>
      </trkpt>
      <trkpt lat="47.88674" lon="7.12911">
        <ele>972.59997558594</ele>
        <time>2021-07-11T09:47:20.000Z</time>
      </trkpt>
      <trkpt lat="47.88674" lon="7.12913">
        <ele>973</ele>
        <time>2021-07-11T09:47:21.000Z</time>
      </trkpt>
      <trkpt lat="47.88673" lon="7.12915">
        <ele>973.40002441406</ele>
        <time>2021-07-11T09:47:22.000Z</time>
      </trkpt>
      <trkpt lat="47.88673" lon="7.12916">
        <ele>973.79998779297</ele>
        <time>2021-07-11T09:47:23.000Z</time>
      </trkpt>
      <trkpt lat="47.88672" lon="7.12918">
        <ele>974.20001220703</ele>
        <time>2021-07-11T09:47:24.000Z</time>
      </trkpt>
      <trkpt lat="47.88671" lon="7.1292">
        <ele>974.59997558594</ele>
        <time>2021-07-11T09:47:25.000Z</time>
      </trkpt>
      <trkpt lat="47.88671" lon="7.12921">
        <ele>975.20001220703</ele>
        <time>2021-07-11T09:47:26.000Z</time>
      </trkpt>
      <trkpt lat="47.88671" lon="7.12923">
        <ele>975.59997558594</ele>
        <time>2021-07-11T09:47:27.000Z</time>
      </trkpt>
      <trkpt lat="47.8867" lon="7.12926">
        <ele>976</ele>
        <time>2021-07-11T09:47:28.000Z</time>
      </trkpt>
      <trkpt lat="47.8867" lon="7.12929">
        <ele>976.40002441406</ele>
        <time>2021-07-11T09:47:29.000Z</time>
      </trkpt>
      <trkpt lat="47.8867" lon="7.12931">
        <ele>977.40002441406</ele>
        <time>2021-07-11T09:47:30.000Z</time>
      </trkpt>
      <trkpt lat="47.8867" lon="7.12933">
        <ele>977.79998779297</ele>
        <time>2021-07-11T09:47:31.000Z</time>
      </trkpt>
      <trkpt lat="47.88669" lon="7.12936">
        <ele>978.20001220703</ele>
        <time>2021-07-11T09:47:32.000Z</time>
      </trkpt>
      <trkpt lat="47.88669" lon="7.12938">
        <ele>978.59997558594</ele>
        <time>2021-07-11T09:47:33.000Z</time>
      </trkpt>
      <trkpt lat="47.88669" lon="7.12941">
        <ele>979</ele>
        <time>2021-07-11T09:47:34.000Z</time>
      </trkpt>
      <trkpt lat="47.88669" lon="7.12943">
        <ele>979.40002441406</ele>
        <time>2021-07-11T09:47:35.000Z</time>
      </trkpt>
      <trkpt lat="47.88669" lon="7.12946">
        <ele>980</ele>
        <time>2021-07-11T09:47:36.000Z</time>
      </trkpt>
      <trkpt lat="47.88669" lon="7.12951">
        <ele>980.40002441406</ele>
        <time>2021-07-11T09:47:38.000Z</time>
      </trkpt>
      <trkpt lat="47.88669" lon="7.12955">
        <ele>980.79998779297</ele>
        <time>2021-07-11T09:47:39.000Z</time>
      </trkpt>
      <trkpt lat="47.88669" lon="7.12957">
        <ele>981.20001220703</ele>
        <time>2021-07-11T09:47:40.000Z</time>
      </trkpt>
      <trkpt lat="47.8867" lon="7.1296">
        <ele>981.79998779297</ele>
        <time>2021-07-11T09:47:41.000Z</time>
      </trkpt>
      <trkpt lat="47.8867" lon="7.12963">
        <ele>982.20001220703</ele>
        <time>2021-07-11T09:47:42.000Z</time>
      </trkpt>
      <trkpt lat="47.88671" lon="7.12965">
        <ele>982.59997558594</ele>
        <time>2021-07-11T09:47:43.000Z</time>
      </trkpt>
      <trkpt lat="47.88672" lon="7.12968">
        <ele>983</ele>
        <time>2021-07-11T09:47:44.000Z</time>
      </trkpt>
      <trkpt lat="47.88672" lon="7.12972">
        <ele>983.40002441406</ele>
        <time>2021-07-11T09:47:45.000Z</time>
      </trkpt>
      <trkpt lat="47.88673" lon="7.12975">
        <ele>983.79998779297</ele>
        <time>2021-07-11T09:47:46.000Z</time>
      </trkpt>
      <trkpt lat="47.88673" lon="7.12978">
        <ele>984.20001220703</ele>
        <time>2021-07-11T09:47:47.000Z</time>
      </trkpt>
      <trkpt lat="47.88674" lon="7.12985">
        <ele>984.79998779297</ele>
        <time>2021-07-11T09:47:49.000Z</time>
      </trkpt>
      <trkpt lat="47.88675" lon="7.12989">
        <ele>985.20001220703</ele>
        <time>2021-07-11T09:47:50.000Z</time>
      </trkpt>
      <trkpt lat="47.88675" lon="7.12993">
        <ele>985.59997558594</ele>
        <time>2021-07-11T09:47:51.000Z</time>
      </trkpt>
      <trkpt lat="47.88675" lon="7.12997">
        <ele>986.20001220703</ele>
        <time>2021-07-11T09:47:52.000Z</time>
      </trkpt>
      <trkpt lat="47.88675" lon="7.13">
        <ele>986.59997558594</ele>
        <time>2021-07-11T09:47:53.000Z</time>
      </trkpt>
      <trkpt lat="47.88675" lon="7.13003">
        <ele>987</ele>
        <time>2021-07-11T09:47:54.000Z</time>
      </trkpt>
      <trkpt lat="47.88675" lon="7.13004">
        <ele>988</ele>
        <time>2021-07-11T09:47:55.000Z</time>
      </trkpt>
      <trkpt lat="47.88675" lon="7.13005">
        <ele>988.40002441406</ele>
        <time>2021-07-11T09:47:56.000Z</time>
      </trkpt>
      <trkpt lat="47.88675" lon="7.13006">
        <ele>988.79998779297</ele>
        <time>2021-07-11T09:47:57.000Z</time>
      </trkpt>
      <trkpt lat="47.88675" lon="7.13012">
        <ele>988.79998779297</ele>
        <time>2021-07-11T09:50:23.000Z</time>
      </trkpt>
      <trkpt lat="47.88677" lon="7.13033">
        <ele>989.40002441406</ele>
        <time>2021-07-11T09:50:29.000Z</time>
      </trkpt>
      <trkpt lat="47.88678" lon="7.13037">
        <ele>989.79998779297</ele>
        <time>2021-07-11T09:50:30.000Z</time>
      </trkpt>
      <trkpt lat="47.88679" lon="7.13039">
        <ele>990.20001220703</ele>
        <time>2021-07-11T09:50:31.000Z</time>
      </trkpt>
      <trkpt lat="47.8868" lon="7.13041">
        <ele>990.59997558594</ele>
        <time>2021-07-11T09:50:32.000Z</time>
      </trkpt>
      <trkpt lat="47.88681" lon="7.13043">
        <ele>991</ele>
        <time>2021-07-11T09:50:33.000Z</time>
      </trkpt>
      <trkpt lat="47.88681" lon="7.13049">
        <ele>991</ele>
        <time>2021-07-11T09:50:35.000Z</time>
      </trkpt>
      <trkpt lat="47.88681" lon="7.1306">
        <ele>991.40002441406</ele>
        <time>2021-07-11T09:50:39.000Z</time>
      </trkpt>
      <trkpt lat="47.88681" lon="7.13063">
        <ele>991.79998779297</ele>
        <time>2021-07-11T09:50:40.000Z</time>
      </trkpt>
      <trkpt lat="47.8868" lon="7.13066">
        <ele>992.20001220703</ele>
        <time>2021-07-11T09:50:41.000Z</time>
      </trkpt>
      <trkpt lat="47.8868" lon="7.13068">
        <ele>992.59997558594</ele>
        <time>2021-07-11T09:50:42.000Z</time>
      </trkpt>
      <trkpt lat="47.8868" lon="7.13071">
        <ele>993</ele>
        <time>2021-07-11T09:50:43.000Z</time>
      </trkpt>
      <trkpt lat="47.88679" lon="7.13082">
        <ele>993</ele>
        <time>2021-07-11T09:50:47.000Z</time>
      </trkpt>
      <trkpt lat="47.88676" lon="7.13106">
        <ele>993</ele>
        <time>2021-07-11T09:50:54.000Z</time>
      </trkpt>
      <trkpt lat="47.8867" lon="7.13123">
        <ele>993</ele>
        <time>2021-07-11T09:51:00.000Z</time>
      </trkpt>
      <trkpt lat="47.88665" lon="7.13142">
        <ele>993</ele>
        <time>2021-07-11T09:51:05.000Z</time>
      </trkpt>
      <trkpt lat="47.88659" lon="7.1317">
        <ele>993</ele>
        <time>2021-07-11T09:51:11.000Z</time>
      </trkpt>
      <trkpt lat="47.88654" lon="7.13203">
        <ele>993</ele>
        <time>2021-07-11T09:51:18.000Z</time>
      </trkpt>
      <trkpt lat="47.88649" lon="7.13229">
        <ele>993</ele>
        <time>2021-07-11T09:51:23.000Z</time>
      </trkpt>
      <trkpt lat="47.88649" lon="7.1326">
        <ele>992.59997558594</ele>
        <time>2021-07-11T09:51:28.000Z</time>
      </trkpt>
      <trkpt lat="47.8865" lon="7.13265">
        <ele>992.20001220703</ele>
        <time>2021-07-11T09:51:29.000Z</time>
      </trkpt>
      <trkpt lat="47.88649" lon="7.13271">
        <ele>991.79998779297</ele>
        <time>2021-07-11T09:51:30.000Z</time>
      </trkpt>
      <trkpt lat="47.88649" lon="7.13277">
        <ele>991.40002441406</ele>
        <time>2021-07-11T09:51:31.000Z</time>
      </trkpt>
      <trkpt lat="47.88649" lon="7.13282">
        <ele>991</ele>
        <time>2021-07-11T09:51:32.000Z</time>
      </trkpt>
      <trkpt lat="47.8865" lon="7.13297">
        <ele>991</ele>
        <time>2021-07-11T09:51:34.000Z</time>
      </trkpt>
      <trkpt lat="47.88652" lon="7.13327">
        <ele>991</ele>
        <time>2021-07-11T09:51:40.000Z</time>
      </trkpt>
      <trkpt lat="47.88656" lon="7.13341">
        <ele>991.40002441406</ele>
        <time>2021-07-11T09:51:44.000Z</time>
      </trkpt>
      <trkpt lat="47.88658" lon="7.13344">
        <ele>991.79998779297</ele>
        <time>2021-07-11T09:51:45.000Z</time>
      </trkpt>
      <trkpt lat="47.88659" lon="7.13347">
        <ele>992.20001220703</ele>
        <time>2021-07-11T09:51:46.000Z</time>
      </trkpt>
      <trkpt lat="47.88661" lon="7.1335">
        <ele>992.79998779297</ele>
        <time>2021-07-11T09:51:47.000Z</time>
      </trkpt>
      <trkpt lat="47.88663" lon="7.13354">
        <ele>993.20001220703</ele>
        <time>2021-07-11T09:51:48.000Z</time>
      </trkpt>
      <trkpt lat="47.88672" lon="7.13367">
        <ele>993.59997558594</ele>
        <time>2021-07-11T09:51:52.000Z</time>
      </trkpt>
      <trkpt lat="47.88673" lon="7.1337">
        <ele>994</ele>
        <time>2021-07-11T09:51:53.000Z</time>
      </trkpt>
      <trkpt lat="47.88675" lon="7.13373">
        <ele>994.40002441406</ele>
        <time>2021-07-11T09:51:54.000Z</time>
      </trkpt>
      <trkpt lat="47.88677" lon="7.13375">
        <ele>995</ele>
        <time>2021-07-11T09:51:55.000Z</time>
      </trkpt>
      <trkpt lat="47.88679" lon="7.13377">
        <ele>995.40002441406</ele>
        <time>2021-07-11T09:51:56.000Z</time>
      </trkpt>
      <trkpt lat="47.88682" lon="7.13383">
        <ele>995.40002441406</ele>
        <time>2021-07-11T09:51:58.000Z</time>
      </trkpt>
      <trkpt lat="47.88684" lon="7.13385">
        <ele>995.79998779297</ele>
        <time>2021-07-11T09:51:59.000Z</time>
      </trkpt>
      <trkpt lat="47.88685" lon="7.13387">
        <ele>996.20001220703</ele>
        <time>2021-07-11T09:52:00.000Z</time>
      </trkpt>
      <trkpt lat="47.88686" lon="7.13389">
        <ele>996.79998779297</ele>
        <time>2021-07-11T09:52:01.000Z</time>
      </trkpt>
      <trkpt lat="47.88688" lon="7.13391">
        <ele>997.20001220703</ele>
        <time>2021-07-11T09:52:02.000Z</time>
      </trkpt>
      <trkpt lat="47.88689" lon="7.13392">
        <ele>997.59997558594</ele>
        <time>2021-07-11T09:52:03.000Z</time>
      </trkpt>
      <trkpt lat="47.8869" lon="7.13394">
        <ele>997.59997558594</ele>
        <time>2021-07-11T09:52:04.000Z</time>
      </trkpt>
      <trkpt lat="47.88703" lon="7.1341">
        <ele>997.59997558594</ele>
        <time>2021-07-11T09:52:10.000Z</time>
      </trkpt>
      <trkpt lat="47.88713" lon="7.13424">
        <ele>997.59997558594</ele>
        <time>2021-07-11T09:52:17.000Z</time>
      </trkpt>
      <trkpt lat="47.88721" lon="7.1344">
        <ele>997.59997558594</ele>
        <time>2021-07-11T09:52:22.000Z</time>
      </trkpt>
      <trkpt lat="47.88725" lon="7.13448">
        <ele>998</ele>
        <time>2021-07-11T09:52:25.000Z</time>
      </trkpt>
      <trkpt lat="47.88726" lon="7.1345">
        <ele>998.40002441406</ele>
        <time>2021-07-11T09:52:26.000Z</time>
      </trkpt>
      <trkpt lat="47.88728" lon="7.13452">
        <ele>998.79998779297</ele>
        <time>2021-07-11T09:52:27.000Z</time>
      </trkpt>
      <trkpt lat="47.88729" lon="7.13453">
        <ele>999.20001220703</ele>
        <time>2021-07-11T09:52:28.000Z</time>
      </trkpt>
      <trkpt lat="47.8873" lon="7.13455">
        <ele>999.79998779297</ele>
        <time>2021-07-11T09:52:29.000Z</time>
      </trkpt>
      <trkpt lat="47.88735" lon="7.13464">
        <ele>999.79998779297</ele>
        <time>2021-07-11T09:52:33.000Z</time>
      </trkpt>
      <trkpt lat="47.88743" lon="7.13481">
        <ele>999.79998779297</ele>
        <time>2021-07-11T09:52:38.000Z</time>
      </trkpt>
      <trkpt lat="47.88752" lon="7.13499">
        <ele>999.79998779297</ele>
        <time>2021-07-11T09:52:43.000Z</time>
      </trkpt>
      <trkpt lat="47.88762" lon="7.13522">
        <ele>999.79998779297</ele>
        <time>2021-07-11T09:52:49.000Z</time>
      </trkpt>
      <trkpt lat="47.88776" lon="7.13552">
        <ele>999.79998779297</ele>
        <time>2021-07-11T09:52:57.000Z</time>
      </trkpt>
      <trkpt lat="47.88783" lon="7.13562">
        <ele>999.79998779297</ele>
        <time>2021-07-11T09:53:02.000Z</time>
      </trkpt>
      <trkpt lat="47.88784" lon="7.13562">
        <ele>999.79998779297</ele>
        <time>2021-07-11T09:53:04.000Z</time>
      </trkpt>
      <trkpt lat="47.88784" lon="7.13568">
        <ele>998.79998779297</ele>
        <time>2021-07-11T09:54:31.000Z</time>
      </trkpt>
      <trkpt lat="47.88784" lon="7.13573">
        <ele>998.40002441406</ele>
        <time>2021-07-11T09:54:32.000Z</time>
      </trkpt>
      <trkpt lat="47.88785" lon="7.13578">
        <ele>997.79998779297</ele>
        <time>2021-07-11T09:54:33.000Z</time>
      </trkpt>
      <trkpt lat="47.88786" lon="7.13585">
        <ele>997.40002441406</ele>
        <time>2021-07-11T09:54:34.000Z</time>
      </trkpt>
      <trkpt lat="47.88787" lon="7.13592">
        <ele>996.79998779297</ele>
        <time>2021-07-11T09:54:35.000Z</time>
      </trkpt>
      <trkpt lat="47.88789" lon="7.136">
        <ele>996.20001220703</ele>
        <time>2021-07-11T09:54:36.000Z</time>
      </trkpt>
      <trkpt lat="47.8879" lon="7.13606">
        <ele>995.79998779297</ele>
        <time>2021-07-11T09:54:37.000Z</time>
      </trkpt>
      <trkpt lat="47.88793" lon="7.1361">
        <ele>995</ele>
        <time>2021-07-11T09:54:38.000Z</time>
      </trkpt>
      <trkpt lat="47.88796" lon="7.13614">
        <ele>994.40002441406</ele>
        <time>2021-07-11T09:54:39.000Z</time>
      </trkpt>
      <trkpt lat="47.88799" lon="7.13619">
        <ele>993.59997558594</ele>
        <time>2021-07-11T09:54:40.000Z</time>
      </trkpt>
      <trkpt lat="47.88801" lon="7.13625">
        <ele>993</ele>
        <time>2021-07-11T09:54:41.000Z</time>
      </trkpt>
      <trkpt lat="47.88803" lon="7.13631">
        <ele>992.20001220703</ele>
        <time>2021-07-11T09:54:42.000Z</time>
      </trkpt>
      <trkpt lat="47.88804" lon="7.13643">
        <ele>991.59997558594</ele>
        <time>2021-07-11T09:54:44.000Z</time>
      </trkpt>
      <trkpt lat="47.88805" lon="7.13648">
        <ele>991.20001220703</ele>
        <time>2021-07-11T09:54:45.000Z</time>
      </trkpt>
      <trkpt lat="47.88808" lon="7.13654">
        <ele>990.59997558594</ele>
        <time>2021-07-11T09:54:46.000Z</time>
      </trkpt>
      <trkpt lat="47.88811" lon="7.13659">
        <ele>989.79998779297</ele>
        <time>2021-07-11T09:54:47.000Z</time>
      </trkpt>
      <trkpt lat="47.88813" lon="7.13663">
        <ele>989</ele>
        <time>2021-07-11T09:54:48.000Z</time>
      </trkpt>
      <trkpt lat="47.88814" lon="7.13668">
        <ele>988.20001220703</ele>
        <time>2021-07-11T09:54:49.000Z</time>
      </trkpt>
      <trkpt lat="47.88813" lon="7.13672">
        <ele>986.79998779297</ele>
        <time>2021-07-11T09:54:50.000Z</time>
      </trkpt>
      <trkpt lat="47.88813" lon="7.13676">
        <ele>986.20001220703</ele>
        <time>2021-07-11T09:54:51.000Z</time>
      </trkpt>
      <trkpt lat="47.88814" lon="7.13679">
        <ele>985.59997558594</ele>
        <time>2021-07-11T09:54:52.000Z</time>
      </trkpt>
      <trkpt lat="47.88812" lon="7.13681">
        <ele>985</ele>
        <time>2021-07-11T09:54:53.000Z</time>
      </trkpt>
      <trkpt lat="47.8881" lon="7.13682">
        <ele>984.40002441406</ele>
        <time>2021-07-11T09:54:54.000Z</time>
      </trkpt>
      <trkpt lat="47.88807" lon="7.13684">
        <ele>983.79998779297</ele>
        <time>2021-07-11T09:54:55.000Z</time>
      </trkpt>
      <trkpt lat="47.88805" lon="7.13685">
        <ele>983</ele>
        <time>2021-07-11T09:54:56.000Z</time>
      </trkpt>
      <trkpt lat="47.88803" lon="7.13687">
        <ele>982.40002441406</ele>
        <time>2021-07-11T09:54:57.000Z</time>
      </trkpt>
      <trkpt lat="47.88799" lon="7.13692">
        <ele>981.59997558594</ele>
        <time>2021-07-11T09:54:58.000Z</time>
      </trkpt>
      <trkpt lat="47.88795" lon="7.13698">
        <ele>980.79998779297</ele>
        <time>2021-07-11T09:54:59.000Z</time>
      </trkpt>
      <trkpt lat="47.88791" lon="7.13703">
        <ele>980</ele>
        <time>2021-07-11T09:55:00.000Z</time>
      </trkpt>
      <trkpt lat="47.88787" lon="7.13707">
        <ele>979.20001220703</ele>
        <time>2021-07-11T09:55:01.000Z</time>
      </trkpt>
      <trkpt lat="47.88782" lon="7.13712">
        <ele>978.20001220703</ele>
        <time>2021-07-11T09:55:02.000Z</time>
      </trkpt>
      <trkpt lat="47.88778" lon="7.13718">
        <ele>977.20001220703</ele>
        <time>2021-07-11T09:55:03.000Z</time>
      </trkpt>
      <trkpt lat="47.88774" lon="7.13723">
        <ele>976.20001220703</ele>
        <time>2021-07-11T09:55:04.000Z</time>
      </trkpt>
      <trkpt lat="47.88769" lon="7.13731">
        <ele>975</ele>
        <time>2021-07-11T09:55:05.000Z</time>
      </trkpt>
      <trkpt lat="47.88764" lon="7.13738">
        <ele>973.79998779297</ele>
        <time>2021-07-11T09:55:06.000Z</time>
      </trkpt>
      <trkpt lat="47.88759" lon="7.13747">
        <ele>972.59997558594</ele>
        <time>2021-07-11T09:55:07.000Z</time>
      </trkpt>
      <trkpt lat="47.88754" lon="7.13753">
        <ele>971.20001220703</ele>
        <time>2021-07-11T09:55:08.000Z</time>
      </trkpt>
      <trkpt lat="47.88749" lon="7.13761">
        <ele>970</ele>
        <time>2021-07-11T09:55:09.000Z</time>
      </trkpt>
      <trkpt lat="47.88745" lon="7.13768">
        <ele>968.79998779297</ele>
        <time>2021-07-11T09:55:10.000Z</time>
      </trkpt>
      <trkpt lat="47.88741" lon="7.13777">
        <ele>967.59997558594</ele>
        <time>2021-07-11T09:55:11.000Z</time>
      </trkpt>
      <trkpt lat="47.88738" lon="7.13787">
        <ele>966.40002441406</ele>
        <time>2021-07-11T09:55:12.000Z</time>
      </trkpt>
      <trkpt lat="47.88737" lon="7.13797">
        <ele>965</ele>
        <time>2021-07-11T09:55:13.000Z</time>
      </trkpt>
      <trkpt lat="47.88737" lon="7.13806">
        <ele>963.79998779297</ele>
        <time>2021-07-11T09:55:14.000Z</time>
      </trkpt>
      <trkpt lat="47.88737" lon="7.13815">
        <ele>961.20001220703</ele>
        <time>2021-07-11T09:55:15.000Z</time>
      </trkpt>
      <trkpt lat="47.88738" lon="7.13825">
        <ele>960.40002441406</ele>
        <time>2021-07-11T09:55:16.000Z</time>
      </trkpt>
      <trkpt lat="47.88738" lon="7.13833">
        <ele>959.79998779297</ele>
        <time>2021-07-11T09:55:17.000Z</time>
      </trkpt>
      <trkpt lat="47.88739" lon="7.13841">
        <ele>959.20001220703</ele>
        <time>2021-07-11T09:55:18.000Z</time>
      </trkpt>
      <trkpt lat="47.88739" lon="7.13847">
        <ele>958.40002441406</ele>
        <time>2021-07-11T09:55:19.000Z</time>
      </trkpt>
      <trkpt lat="47.88739" lon="7.13853">
        <ele>957.79998779297</ele>
        <time>2021-07-11T09:55:20.000Z</time>
      </trkpt>
      <trkpt lat="47.88741" lon="7.13865">
        <ele>957.79998779297</ele>
        <time>2021-07-11T09:55:22.000Z</time>
      </trkpt>
      <trkpt lat="47.88748" lon="7.139">
        <ele>957.79998779297</ele>
        <time>2021-07-11T09:55:28.000Z</time>
      </trkpt>
      <trkpt lat="47.88754" lon="7.13937">
        <ele>957.79998779297</ele>
        <time>2021-07-11T09:55:35.000Z</time>
      </trkpt>
      <trkpt lat="47.88758" lon="7.13971">
        <ele>957</ele>
        <time>2021-07-11T09:55:40.000Z</time>
      </trkpt>
      <trkpt lat="47.88759" lon="7.13977">
        <ele>956.59997558594</ele>
        <time>2021-07-11T09:55:41.000Z</time>
      </trkpt>
      <trkpt lat="47.88759" lon="7.13983">
        <ele>956.20001220703</ele>
        <time>2021-07-11T09:55:42.000Z</time>
      </trkpt>
      <trkpt lat="47.8876" lon="7.13989">
        <ele>955.79998779297</ele>
        <time>2021-07-11T09:55:43.000Z</time>
      </trkpt>
      <trkpt lat="47.88761" lon="7.14013">
        <ele>955.79998779297</ele>
        <time>2021-07-11T09:55:47.000Z</time>
      </trkpt>
      <trkpt lat="47.88763" lon="7.14028">
        <ele>955.79998779297</ele>
        <time>2021-07-11T09:55:49.000Z</time>
      </trkpt>
      <trkpt lat="47.88766" lon="7.14051">
        <ele>955.79998779297</ele>
        <time>2021-07-11T09:55:52.000Z</time>
      </trkpt>
      <trkpt lat="47.8877" lon="7.14089">
        <ele>956.20001220703</ele>
        <time>2021-07-11T09:55:57.000Z</time>
      </trkpt>
      <trkpt lat="47.8877" lon="7.14095">
        <ele>956.59997558594</ele>
        <time>2021-07-11T09:55:58.000Z</time>
      </trkpt>
      <trkpt lat="47.8877" lon="7.14099">
        <ele>957</ele>
        <time>2021-07-11T09:55:59.000Z</time>
      </trkpt>
      <trkpt lat="47.8877" lon="7.14102">
        <ele>957.40002441406</ele>
        <time>2021-07-11T09:56:00.000Z</time>
      </trkpt>
      <trkpt lat="47.88769" lon="7.14105">
        <ele>957.79998779297</ele>
        <time>2021-07-11T09:56:01.000Z</time>
      </trkpt>
      <trkpt lat="47.88769" lon="7.14108">
        <ele>958.20001220703</ele>
        <time>2021-07-11T09:56:02.000Z</time>
      </trkpt>
      <trkpt lat="47.88769" lon="7.14111">
        <ele>958.59997558594</ele>
        <time>2021-07-11T09:56:03.000Z</time>
      </trkpt>
      <trkpt lat="47.88769" lon="7.14114">
        <ele>959.59997558594</ele>
        <time>2021-07-11T09:56:04.000Z</time>
      </trkpt>
      <trkpt lat="47.88768" lon="7.14118">
        <ele>960</ele>
        <time>2021-07-11T09:56:05.000Z</time>
      </trkpt>
      <trkpt lat="47.88767" lon="7.14134">
        <ele>960</ele>
        <time>2021-07-11T09:56:09.000Z</time>
      </trkpt>
      <trkpt lat="47.88766" lon="7.14141">
        <ele>960.40002441406</ele>
        <time>2021-07-11T09:56:11.000Z</time>
      </trkpt>
      <trkpt lat="47.88765" lon="7.14144">
        <ele>961</ele>
        <time>2021-07-11T09:56:12.000Z</time>
      </trkpt>
      <trkpt lat="47.88764" lon="7.14147">
        <ele>961.40002441406</ele>
        <time>2021-07-11T09:56:13.000Z</time>
      </trkpt>
      <trkpt lat="47.88762" lon="7.1415">
        <ele>961.79998779297</ele>
        <time>2021-07-11T09:56:14.000Z</time>
      </trkpt>
      <trkpt lat="47.88761" lon="7.14152">
        <ele>962.20001220703</ele>
        <time>2021-07-11T09:56:15.000Z</time>
      </trkpt>
      <trkpt lat="47.8876" lon="7.14155">
        <ele>962.20001220703</ele>
        <time>2021-07-11T09:56:16.000Z</time>
      </trkpt>
      <trkpt lat="47.88755" lon="7.14177">
        <ele>962.20001220703</ele>
        <time>2021-07-11T09:56:22.000Z</time>
      </trkpt>
      <trkpt lat="47.88753" lon="7.14208">
        <ele>962.20001220703</ele>
        <time>2021-07-11T09:56:27.000Z</time>
      </trkpt>
      <trkpt lat="47.88753" lon="7.14216">
        <ele>962.20001220703</ele>
        <time>2021-07-11T09:56:28.000Z</time>
      </trkpt>
      <trkpt lat="47.88753" lon="7.14221">
        <ele>961.40002441406</ele>
        <time>2021-07-11T09:56:29.000Z</time>
      </trkpt>
      <trkpt lat="47.88754" lon="7.14225">
        <ele>961</ele>
        <time>2021-07-11T09:56:30.000Z</time>
      </trkpt>
      <trkpt lat="47.88754" lon="7.1423">
        <ele>960.59997558594</ele>
        <time>2021-07-11T09:56:31.000Z</time>
      </trkpt>
      <trkpt lat="47.88755" lon="7.14234">
        <ele>960.20001220703</ele>
        <time>2021-07-11T09:56:32.000Z</time>
      </trkpt>
      <trkpt lat="47.88755" lon="7.14239">
        <ele>959.79998779297</ele>
        <time>2021-07-11T09:56:33.000Z</time>
      </trkpt>
      <trkpt lat="47.88756" lon="7.14245">
        <ele>959.40002441406</ele>
        <time>2021-07-11T09:56:34.000Z</time>
      </trkpt>
      <trkpt lat="47.88757" lon="7.14252">
        <ele>959</ele>
        <time>2021-07-11T09:56:35.000Z</time>
      </trkpt>
      <trkpt lat="47.88757" lon="7.14259">
        <ele>958.20001220703</ele>
        <time>2021-07-11T09:56:36.000Z</time>
      </trkpt>
      <trkpt lat="47.88756" lon="7.14267">
        <ele>957.59997558594</ele>
        <time>2021-07-11T09:56:37.000Z</time>
      </trkpt>
      <trkpt lat="47.88756" lon="7.14275">
        <ele>956.79998779297</ele>
        <time>2021-07-11T09:56:38.000Z</time>
      </trkpt>
      <trkpt lat="47.88755" lon="7.14283">
        <ele>956.20001220703</ele>
        <time>2021-07-11T09:56:39.000Z</time>
      </trkpt>
      <trkpt lat="47.88754" lon="7.1429">
        <ele>955.59997558594</ele>
        <time>2021-07-11T09:56:40.000Z</time>
      </trkpt>
      <trkpt lat="47.88753" lon="7.14298">
        <ele>955</ele>
        <time>2021-07-11T09:56:41.000Z</time>
      </trkpt>
      <trkpt lat="47.88751" lon="7.14306">
        <ele>954.40002441406</ele>
        <time>2021-07-11T09:56:42.000Z</time>
      </trkpt>
      <trkpt lat="47.8875" lon="7.14315">
        <ele>953.59997558594</ele>
        <time>2021-07-11T09:56:43.000Z</time>
      </trkpt>
      <trkpt lat="47.88749" lon="7.14324">
        <ele>953</ele>
        <time>2021-07-11T09:56:44.000Z</time>
      </trkpt>
      <trkpt lat="47.88748" lon="7.14334">
        <ele>952.20001220703</ele>
        <time>2021-07-11T09:56:45.000Z</time>
      </trkpt>
      <trkpt lat="47.88746" lon="7.14343">
        <ele>951.59997558594</ele>
        <time>2021-07-11T09:56:46.000Z</time>
      </trkpt>
      <trkpt lat="47.88744" lon="7.14352">
        <ele>950.79998779297</ele>
        <time>2021-07-11T09:56:47.000Z</time>
      </trkpt>
      <trkpt lat="47.88743" lon="7.1436">
        <ele>950.20001220703</ele>
        <time>2021-07-11T09:56:48.000Z</time>
      </trkpt>
      <trkpt lat="47.88741" lon="7.14369">
        <ele>949.40002441406</ele>
        <time>2021-07-11T09:56:49.000Z</time>
      </trkpt>
      <trkpt lat="47.8874" lon="7.14376">
        <ele>948.59997558594</ele>
        <time>2021-07-11T09:56:50.000Z</time>
      </trkpt>
      <trkpt lat="47.88738" lon="7.14384">
        <ele>947.59997558594</ele>
        <time>2021-07-11T09:56:51.000Z</time>
      </trkpt>
      <trkpt lat="47.88735" lon="7.14392">
        <ele>946.59997558594</ele>
        <time>2021-07-11T09:56:52.000Z</time>
      </trkpt>
      <trkpt lat="47.88733" lon="7.14399">
        <ele>945.59997558594</ele>
        <time>2021-07-11T09:56:53.000Z</time>
      </trkpt>
      <trkpt lat="47.88732" lon="7.14406">
        <ele>943.79998779297</ele>
        <time>2021-07-11T09:56:54.000Z</time>
      </trkpt>
      <trkpt lat="47.8873" lon="7.14413">
        <ele>942.79998779297</ele>
        <time>2021-07-11T09:56:55.000Z</time>
      </trkpt>
      <trkpt lat="47.88727" lon="7.1442">
        <ele>941.79998779297</ele>
        <time>2021-07-11T09:56:56.000Z</time>
      </trkpt>
      <trkpt lat="47.88725" lon="7.14428">
        <ele>940.79998779297</ele>
        <time>2021-07-11T09:56:57.000Z</time>
      </trkpt>
      <trkpt lat="47.88723" lon="7.14434">
        <ele>939.59997558594</ele>
        <time>2021-07-11T09:56:58.000Z</time>
      </trkpt>
      <trkpt lat="47.88723" lon="7.1444">
        <ele>938.59997558594</ele>
        <time>2021-07-11T09:56:59.000Z</time>
      </trkpt>
      <trkpt lat="47.88722" lon="7.14446">
        <ele>937.79998779297</ele>
        <time>2021-07-11T09:57:00.000Z</time>
      </trkpt>
      <trkpt lat="47.88722" lon="7.14451">
        <ele>936.79998779297</ele>
        <time>2021-07-11T09:57:01.000Z</time>
      </trkpt>
      <trkpt lat="47.88722" lon="7.14456">
        <ele>936</ele>
        <time>2021-07-11T09:57:02.000Z</time>
      </trkpt>
      <trkpt lat="47.88722" lon="7.14462">
        <ele>935.20001220703</ele>
        <time>2021-07-11T09:57:03.000Z</time>
      </trkpt>
      <trkpt lat="47.88722" lon="7.14469">
        <ele>934.40002441406</ele>
        <time>2021-07-11T09:57:04.000Z</time>
      </trkpt>
      <trkpt lat="47.88722" lon="7.14476">
        <ele>933.59997558594</ele>
        <time>2021-07-11T09:57:05.000Z</time>
      </trkpt>
      <trkpt lat="47.88722" lon="7.14483">
        <ele>932.79998779297</ele>
        <time>2021-07-11T09:57:06.000Z</time>
      </trkpt>
      <trkpt lat="47.88722" lon="7.14491">
        <ele>932</ele>
        <time>2021-07-11T09:57:07.000Z</time>
      </trkpt>
      <trkpt lat="47.88722" lon="7.14498">
        <ele>931.20001220703</ele>
        <time>2021-07-11T09:57:08.000Z</time>
      </trkpt>
      <trkpt lat="47.88722" lon="7.14505">
        <ele>930.40002441406</ele>
        <time>2021-07-11T09:57:09.000Z</time>
      </trkpt>
      <trkpt lat="47.88723" lon="7.14512">
        <ele>929.59997558594</ele>
        <time>2021-07-11T09:57:10.000Z</time>
      </trkpt>
      <trkpt lat="47.88723" lon="7.14518">
        <ele>928.79998779297</ele>
        <time>2021-07-11T09:57:11.000Z</time>
      </trkpt>
      <trkpt lat="47.88724" lon="7.14526">
        <ele>928</ele>
        <time>2021-07-11T09:57:12.000Z</time>
      </trkpt>
      <trkpt lat="47.88724" lon="7.14533">
        <ele>927.40002441406</ele>
        <time>2021-07-11T09:57:13.000Z</time>
      </trkpt>
      <trkpt lat="47.88724" lon="7.14541">
        <ele>926.59997558594</ele>
        <time>2021-07-11T09:57:14.000Z</time>
      </trkpt>
      <trkpt lat="47.88725" lon="7.14548">
        <ele>926</ele>
        <time>2021-07-11T09:57:15.000Z</time>
      </trkpt>
      <trkpt lat="47.88725" lon="7.14556">
        <ele>925.20001220703</ele>
        <time>2021-07-11T09:57:16.000Z</time>
      </trkpt>
      <trkpt lat="47.88726" lon="7.14562">
        <ele>924.59997558594</ele>
        <time>2021-07-11T09:57:17.000Z</time>
      </trkpt>
      <trkpt lat="47.88726" lon="7.14569">
        <ele>923.20001220703</ele>
        <time>2021-07-11T09:57:18.000Z</time>
      </trkpt>
      <trkpt lat="47.88726" lon="7.1458">
        <ele>922.59997558594</ele>
        <time>2021-07-11T09:57:19.000Z</time>
      </trkpt>
      <trkpt lat="47.88727" lon="7.1459">
        <ele>922</ele>
        <time>2021-07-11T09:57:20.000Z</time>
      </trkpt>
      <trkpt lat="47.88728" lon="7.14601">
        <ele>921.40002441406</ele>
        <time>2021-07-11T09:57:21.000Z</time>
      </trkpt>
      <trkpt lat="47.88729" lon="7.14611">
        <ele>920.79998779297</ele>
        <time>2021-07-11T09:57:22.000Z</time>
      </trkpt>
      <trkpt lat="47.8873" lon="7.14621">
        <ele>919.79998779297</ele>
        <time>2021-07-11T09:57:23.000Z</time>
      </trkpt>
      <trkpt lat="47.88732" lon="7.14631">
        <ele>919</ele>
        <time>2021-07-11T09:57:24.000Z</time>
      </trkpt>
      <trkpt lat="47.88734" lon="7.14641">
        <ele>918.20001220703</ele>
        <time>2021-07-11T09:57:25.000Z</time>
      </trkpt>
      <trkpt lat="47.88736" lon="7.14651">
        <ele>917.40002441406</ele>
        <time>2021-07-11T09:57:26.000Z</time>
      </trkpt>
      <trkpt lat="47.88739" lon="7.14663">
        <ele>916.79998779297</ele>
        <time>2021-07-11T09:57:27.000Z</time>
      </trkpt>
      <trkpt lat="47.88741" lon="7.14675">
        <ele>916</ele>
        <time>2021-07-11T09:57:28.000Z</time>
      </trkpt>
      <trkpt lat="47.88743" lon="7.14687">
        <ele>915</ele>
        <time>2021-07-11T09:57:29.000Z</time>
      </trkpt>
      <trkpt lat="47.88745" lon="7.14699">
        <ele>914.20001220703</ele>
        <time>2021-07-11T09:57:30.000Z</time>
      </trkpt>
      <trkpt lat="47.88746" lon="7.1471">
        <ele>913.40002441406</ele>
        <time>2021-07-11T09:57:31.000Z</time>
      </trkpt>
      <trkpt lat="47.88748" lon="7.14719">
        <ele>912.59997558594</ele>
        <time>2021-07-11T09:57:32.000Z</time>
      </trkpt>
      <trkpt lat="47.88749" lon="7.14728">
        <ele>912</ele>
        <time>2021-07-11T09:57:33.000Z</time>
      </trkpt>
      <trkpt lat="47.88751" lon="7.14741">
        <ele>911.20001220703</ele>
        <time>2021-07-11T09:57:35.000Z</time>
      </trkpt>
      <trkpt lat="47.88753" lon="7.14749">
        <ele>910.20001220703</ele>
        <time>2021-07-11T09:57:36.000Z</time>
      </trkpt>
      <trkpt lat="47.88755" lon="7.14756">
        <ele>909.40002441406</ele>
        <time>2021-07-11T09:57:37.000Z</time>
      </trkpt>
      <trkpt lat="47.88757" lon="7.14761">
        <ele>907.79998779297</ele>
        <time>2021-07-11T09:57:38.000Z</time>
      </trkpt>
      <trkpt lat="47.88759" lon="7.14764">
        <ele>906.79998779297</ele>
        <time>2021-07-11T09:57:39.000Z</time>
      </trkpt>
      <trkpt lat="47.88761" lon="7.14767">
        <ele>906.79998779297</ele>
        <time>2021-07-11T09:57:40.000Z</time>
      </trkpt>
      <trkpt lat="47.88763" lon="7.14771">
        <ele>906.79998779297</ele>
        <time>2021-07-11T09:57:42.000Z</time>
      </trkpt>
      <trkpt lat="47.88765" lon="7.14777">
        <ele>906.79998779297</ele>
        <time>2021-07-11T09:58:44.000Z</time>
      </trkpt>
      <trkpt lat="47.88766" lon="7.1478">
        <ele>906.79998779297</ele>
        <time>2021-07-11T09:58:45.000Z</time>
      </trkpt>
      <trkpt lat="47.88771" lon="7.14805">
        <ele>906.79998779297</ele>
        <time>2021-07-11T09:58:49.000Z</time>
      </trkpt>
      <trkpt lat="47.88773" lon="7.14814">
        <ele>906.40002441406</ele>
        <time>2021-07-11T09:58:50.000Z</time>
      </trkpt>
      <trkpt lat="47.88775" lon="7.14823">
        <ele>906</ele>
        <time>2021-07-11T09:58:51.000Z</time>
      </trkpt>
      <trkpt lat="47.88777" lon="7.14833">
        <ele>904.79998779297</ele>
        <time>2021-07-11T09:58:52.000Z</time>
      </trkpt>
      <trkpt lat="47.8878" lon="7.14844">
        <ele>904.20001220703</ele>
        <time>2021-07-11T09:58:53.000Z</time>
      </trkpt>
      <trkpt lat="47.88783" lon="7.14856">
        <ele>903.40002441406</ele>
        <time>2021-07-11T09:58:54.000Z</time>
      </trkpt>
      <trkpt lat="47.88786" lon="7.1487">
        <ele>902.59997558594</ele>
        <time>2021-07-11T09:58:55.000Z</time>
      </trkpt>
      <trkpt lat="47.8879" lon="7.14884">
        <ele>901.59997558594</ele>
        <time>2021-07-11T09:58:56.000Z</time>
      </trkpt>
      <trkpt lat="47.88793" lon="7.14898">
        <ele>900.79998779297</ele>
        <time>2021-07-11T09:58:57.000Z</time>
      </trkpt>
      <trkpt lat="47.88796" lon="7.14912">
        <ele>899.79998779297</ele>
        <time>2021-07-11T09:58:58.000Z</time>
      </trkpt>
      <trkpt lat="47.88798" lon="7.14926">
        <ele>898.79998779297</ele>
        <time>2021-07-11T09:58:59.000Z</time>
      </trkpt>
      <trkpt lat="47.88801" lon="7.14938">
        <ele>898</ele>
        <time>2021-07-11T09:59:00.000Z</time>
      </trkpt>
      <trkpt lat="47.88803" lon="7.14947">
        <ele>897</ele>
        <time>2021-07-11T09:59:01.000Z</time>
      </trkpt>
      <trkpt lat="47.88805" lon="7.14954">
        <ele>896.20001220703</ele>
        <time>2021-07-11T09:59:02.000Z</time>
      </trkpt>
      <trkpt lat="47.88806" lon="7.1496">
        <ele>895.20001220703</ele>
        <time>2021-07-11T09:59:03.000Z</time>
      </trkpt>
      <trkpt lat="47.88807" lon="7.14964">
        <ele>894.40002441406</ele>
        <time>2021-07-11T09:59:04.000Z</time>
      </trkpt>
      <trkpt lat="47.88808" lon="7.14968">
        <ele>894</ele>
        <time>2021-07-11T09:59:06.000Z</time>
      </trkpt>
      <trkpt lat="47.88808" lon="7.14968">
        <ele>893.59997558594</ele>
        <time>2021-07-11T09:59:07.000Z</time>
      </trkpt>
      <trkpt lat="47.88802" lon="7.14961">
        <ele>892.40002441406</ele>
        <time>2021-07-11T09:59:18.000Z</time>
      </trkpt>
      <trkpt lat="47.88792" lon="7.14946">
        <ele>891.79998779297</ele>
        <time>2021-07-11T09:59:22.000Z</time>
      </trkpt>
      <trkpt lat="47.88789" lon="7.14943">
        <ele>891.40002441406</ele>
        <time>2021-07-11T09:59:23.000Z</time>
      </trkpt>
      <trkpt lat="47.88786" lon="7.14938">
        <ele>891</ele>
        <time>2021-07-11T09:59:24.000Z</time>
      </trkpt>
      <trkpt lat="47.88782" lon="7.14934">
        <ele>890.40002441406</ele>
        <time>2021-07-11T09:59:25.000Z</time>
      </trkpt>
      <trkpt lat="47.88778" lon="7.14929">
        <ele>889.79998779297</ele>
        <time>2021-07-11T09:59:26.000Z</time>
      </trkpt>
      <trkpt lat="47.88774" lon="7.14924">
        <ele>889.20001220703</ele>
        <time>2021-07-11T09:59:27.000Z</time>
      </trkpt>
      <trkpt lat="47.88769" lon="7.14921">
        <ele>888.59997558594</ele>
        <time>2021-07-11T09:59:28.000Z</time>
      </trkpt>
      <trkpt lat="47.88764" lon="7.14917">
        <ele>888</ele>
        <time>2021-07-11T09:59:29.000Z</time>
      </trkpt>
      <trkpt lat="47.88759" lon="7.14912">
        <ele>887.20001220703</ele>
        <time>2021-07-11T09:59:30.000Z</time>
      </trkpt>
      <trkpt lat="47.88753" lon="7.14906">
        <ele>886.40002441406</ele>
        <time>2021-07-11T09:59:31.000Z</time>
      </trkpt>
      <trkpt lat="47.88746" lon="7.14899">
        <ele>885.40002441406</ele>
        <time>2021-07-11T09:59:32.000Z</time>
      </trkpt>
      <trkpt lat="47.88739" lon="7.14893">
        <ele>884.59997558594</ele>
        <time>2021-07-11T09:59:33.000Z</time>
      </trkpt>
      <trkpt lat="47.88732" lon="7.14886">
        <ele>883.59997558594</ele>
        <time>2021-07-11T09:59:34.000Z</time>
      </trkpt>
      <trkpt lat="47.88725" lon="7.1488">
        <ele>882.59997558594</ele>
        <time>2021-07-11T09:59:35.000Z</time>
      </trkpt>
      <trkpt lat="47.88718" lon="7.14873">
        <ele>881.40002441406</ele>
        <time>2021-07-11T09:59:36.000Z</time>
      </trkpt>
      <trkpt lat="47.88712" lon="7.14867">
        <ele>880.40002441406</ele>
        <time>2021-07-11T09:59:37.000Z</time>
      </trkpt>
      <trkpt lat="47.88707" lon="7.14862">
        <ele>879.40002441406</ele>
        <time>2021-07-11T09:59:38.000Z</time>
      </trkpt>
      <trkpt lat="47.88702" lon="7.14858">
        <ele>878.20001220703</ele>
        <time>2021-07-11T09:59:39.000Z</time>
      </trkpt>
      <trkpt lat="47.88698" lon="7.14854">
        <ele>877.20001220703</ele>
        <time>2021-07-11T09:59:40.000Z</time>
      </trkpt>
      <trkpt lat="47.88694" lon="7.14851">
        <ele>875</ele>
        <time>2021-07-11T09:59:41.000Z</time>
      </trkpt>
      <trkpt lat="47.8869" lon="7.1485">
        <ele>874.20001220703</ele>
        <time>2021-07-11T09:59:42.000Z</time>
      </trkpt>
      <trkpt lat="47.88687" lon="7.1485">
        <ele>873.40002441406</ele>
        <time>2021-07-11T09:59:43.000Z</time>
      </trkpt>
      <trkpt lat="47.88684" lon="7.14853">
        <ele>872.40002441406</ele>
        <time>2021-07-11T09:59:44.000Z</time>
      </trkpt>
      <trkpt lat="47.88683" lon="7.14856">
        <ele>871.59997558594</ele>
        <time>2021-07-11T09:59:45.000Z</time>
      </trkpt>
      <trkpt lat="47.88683" lon="7.14861">
        <ele>870.79998779297</ele>
        <time>2021-07-11T09:59:46.000Z</time>
      </trkpt>
      <trkpt lat="47.88684" lon="7.14866">
        <ele>870</ele>
        <time>2021-07-11T09:59:47.000Z</time>
      </trkpt>
      <trkpt lat="47.88683" lon="7.14872">
        <ele>869.20001220703</ele>
        <time>2021-07-11T09:59:48.000Z</time>
      </trkpt>
      <trkpt lat="47.88682" lon="7.14877">
        <ele>868.59997558594</ele>
        <time>2021-07-11T09:59:49.000Z</time>
      </trkpt>
      <trkpt lat="47.88679" lon="7.14882">
        <ele>868</ele>
        <time>2021-07-11T09:59:50.000Z</time>
      </trkpt>
      <trkpt lat="47.88676" lon="7.14885">
        <ele>867.40002441406</ele>
        <time>2021-07-11T09:59:51.000Z</time>
      </trkpt>
      <trkpt lat="47.88672" lon="7.14888">
        <ele>866.59997558594</ele>
        <time>2021-07-11T09:59:52.000Z</time>
      </trkpt>
      <trkpt lat="47.88667" lon="7.1489">
        <ele>866</ele>
        <time>2021-07-11T09:59:53.000Z</time>
      </trkpt>
      <trkpt lat="47.88661" lon="7.14893">
        <ele>865.40002441406</ele>
        <time>2021-07-11T09:59:54.000Z</time>
      </trkpt>
      <trkpt lat="47.88654" lon="7.14896">
        <ele>864.79998779297</ele>
        <time>2021-07-11T09:59:55.000Z</time>
      </trkpt>
      <trkpt lat="47.88647" lon="7.14899">
        <ele>864</ele>
        <time>2021-07-11T09:59:56.000Z</time>
      </trkpt>
      <trkpt lat="47.88641" lon="7.14903">
        <ele>863.20001220703</ele>
        <time>2021-07-11T09:59:57.000Z</time>
      </trkpt>
      <trkpt lat="47.88635" lon="7.14905">
        <ele>862.40002441406</ele>
        <time>2021-07-11T09:59:58.000Z</time>
      </trkpt>
      <trkpt lat="47.8863" lon="7.14909">
        <ele>861.59997558594</ele>
        <time>2021-07-11T09:59:59.000Z</time>
      </trkpt>
      <trkpt lat="47.88625" lon="7.14913">
        <ele>860.59997558594</ele>
        <time>2021-07-11T10:00:00.000Z</time>
      </trkpt>
      <trkpt lat="47.88621" lon="7.1492">
        <ele>859.79998779297</ele>
        <time>2021-07-11T10:00:01.000Z</time>
      </trkpt>
      <trkpt lat="47.88617" lon="7.14928">
        <ele>859.20001220703</ele>
        <time>2021-07-11T10:00:02.000Z</time>
      </trkpt>
      <trkpt lat="47.88615" lon="7.14936">
        <ele>858.40002441406</ele>
        <time>2021-07-11T10:00:03.000Z</time>
      </trkpt>
      <trkpt lat="47.88613" lon="7.14944">
        <ele>857.59997558594</ele>
        <time>2021-07-11T10:00:04.000Z</time>
      </trkpt>
      <trkpt lat="47.88612" lon="7.14953">
        <ele>856.79998779297</ele>
        <time>2021-07-11T10:00:05.000Z</time>
      </trkpt>
      <trkpt lat="47.88612" lon="7.14961">
        <ele>855</ele>
        <time>2021-07-11T10:00:06.000Z</time>
      </trkpt>
      <trkpt lat="47.88611" lon="7.14969">
        <ele>854.20001220703</ele>
        <time>2021-07-11T10:00:07.000Z</time>
      </trkpt>
      <trkpt lat="47.88612" lon="7.14976">
        <ele>853.40002441406</ele>
        <time>2021-07-11T10:00:08.000Z</time>
      </trkpt>
      <trkpt lat="47.88611" lon="7.14984">
        <ele>852.40002441406</ele>
        <time>2021-07-11T10:00:09.000Z</time>
      </trkpt>
      <trkpt lat="47.88611" lon="7.14992">
        <ele>851.59997558594</ele>
        <time>2021-07-11T10:00:10.000Z</time>
      </trkpt>
      <trkpt lat="47.88611" lon="7.15001">
        <ele>851</ele>
        <time>2021-07-11T10:00:11.000Z</time>
      </trkpt>
      <trkpt lat="47.88611" lon="7.1501">
        <ele>850.20001220703</ele>
        <time>2021-07-11T10:00:12.000Z</time>
      </trkpt>
      <trkpt lat="47.8861" lon="7.1502">
        <ele>849.59997558594</ele>
        <time>2021-07-11T10:00:13.000Z</time>
      </trkpt>
      <trkpt lat="47.88609" lon="7.15029">
        <ele>849</ele>
        <time>2021-07-11T10:00:14.000Z</time>
      </trkpt>
      <trkpt lat="47.88608" lon="7.15039">
        <ele>848.20001220703</ele>
        <time>2021-07-11T10:00:15.000Z</time>
      </trkpt>
      <trkpt lat="47.88607" lon="7.15048">
        <ele>847.40002441406</ele>
        <time>2021-07-11T10:00:16.000Z</time>
      </trkpt>
      <trkpt lat="47.88608" lon="7.15057">
        <ele>846.59997558594</ele>
        <time>2021-07-11T10:00:17.000Z</time>
      </trkpt>
      <trkpt lat="47.88607" lon="7.15067">
        <ele>845.79998779297</ele>
        <time>2021-07-11T10:00:18.000Z</time>
      </trkpt>
      <trkpt lat="47.88606" lon="7.15077">
        <ele>844.40002441406</ele>
        <time>2021-07-11T10:00:19.000Z</time>
      </trkpt>
      <trkpt lat="47.88605" lon="7.15088">
        <ele>843.20001220703</ele>
        <time>2021-07-11T10:00:20.000Z</time>
      </trkpt>
      <trkpt lat="47.88605" lon="7.151">
        <ele>841.79998779297</ele>
        <time>2021-07-11T10:00:21.000Z</time>
      </trkpt>
      <trkpt lat="47.88605" lon="7.15113">
        <ele>840.20001220703</ele>
        <time>2021-07-11T10:00:22.000Z</time>
      </trkpt>
      <trkpt lat="47.88604" lon="7.15125">
        <ele>838.79998779297</ele>
        <time>2021-07-11T10:00:23.000Z</time>
      </trkpt>
      <trkpt lat="47.88606" lon="7.15138">
        <ele>837.20001220703</ele>
        <time>2021-07-11T10:00:24.000Z</time>
      </trkpt>
      <trkpt lat="47.88607" lon="7.15152">
        <ele>836</ele>
        <time>2021-07-11T10:00:25.000Z</time>
      </trkpt>
      <trkpt lat="47.88608" lon="7.15167">
        <ele>834.59997558594</ele>
        <time>2021-07-11T10:00:26.000Z</time>
      </trkpt>
      <trkpt lat="47.88609" lon="7.15182">
        <ele>833.20001220703</ele>
        <time>2021-07-11T10:00:27.000Z</time>
      </trkpt>
      <trkpt lat="47.88609" lon="7.15195">
        <ele>831.79998779297</ele>
        <time>2021-07-11T10:00:28.000Z</time>
      </trkpt>
      <trkpt lat="47.88609" lon="7.15207">
        <ele>830.40002441406</ele>
        <time>2021-07-11T10:00:29.000Z</time>
      </trkpt>
      <trkpt lat="47.88608" lon="7.15215">
        <ele>829</ele>
        <time>2021-07-11T10:00:30.000Z</time>
      </trkpt>
      <trkpt lat="47.88607" lon="7.1522">
        <ele>826.40002441406</ele>
        <time>2021-07-11T10:00:31.000Z</time>
      </trkpt>
      <trkpt lat="47.88605" lon="7.15225">
        <ele>825</ele>
        <time>2021-07-11T10:00:32.000Z</time>
      </trkpt>
      <trkpt lat="47.88604" lon="7.15227">
        <ele>825</ele>
        <time>2021-07-11T10:00:33.000Z</time>
      </trkpt>
      <trkpt lat="47.88601" lon="7.1523">
        <ele>825</ele>
        <time>2021-07-11T10:00:36.000Z</time>
      </trkpt>
      <trkpt lat="47.88598" lon="7.15233">
        <ele>822.59997558594</ele>
        <time>2021-07-11T10:00:54.000Z</time>
      </trkpt>
      <trkpt lat="47.88596" lon="7.15233">
        <ele>822.59997558594</ele>
        <time>2021-07-11T10:00:55.000Z</time>
      </trkpt>
      <trkpt lat="47.88585" lon="7.15224">
        <ele>823.20001220703</ele>
        <time>2021-07-11T10:01:01.000Z</time>
      </trkpt>
      <trkpt lat="47.88583" lon="7.15222">
        <ele>823.59997558594</ele>
        <time>2021-07-11T10:01:02.000Z</time>
      </trkpt>
      <trkpt lat="47.88582" lon="7.15219">
        <ele>824</ele>
        <time>2021-07-11T10:01:03.000Z</time>
      </trkpt>
      <trkpt lat="47.8858" lon="7.15217">
        <ele>824.40002441406</ele>
        <time>2021-07-11T10:01:04.000Z</time>
      </trkpt>
      <trkpt lat="47.88577" lon="7.15214">
        <ele>824.79998779297</ele>
        <time>2021-07-11T10:01:05.000Z</time>
      </trkpt>
      <trkpt lat="47.88571" lon="7.15209">
        <ele>824.79998779297</ele>
        <time>2021-07-11T10:01:07.000Z</time>
      </trkpt>
      <trkpt lat="47.8855" lon="7.15206">
        <ele>824.79998779297</ele>
        <time>2021-07-11T10:01:12.000Z</time>
      </trkpt>
      <trkpt lat="47.88545" lon="7.15207">
        <ele>824.20001220703</ele>
        <time>2021-07-11T10:01:13.000Z</time>
      </trkpt>
      <trkpt lat="47.8854" lon="7.1521">
        <ele>823.79998779297</ele>
        <time>2021-07-11T10:01:14.000Z</time>
      </trkpt>
      <trkpt lat="47.88535" lon="7.15215">
        <ele>823.20001220703</ele>
        <time>2021-07-11T10:01:15.000Z</time>
      </trkpt>
      <trkpt lat="47.88529" lon="7.1522">
        <ele>822.59997558594</ele>
        <time>2021-07-11T10:01:16.000Z</time>
      </trkpt>
      <trkpt lat="47.88524" lon="7.15226">
        <ele>821.79998779297</ele>
        <time>2021-07-11T10:01:17.000Z</time>
      </trkpt>
      <trkpt lat="47.88519" lon="7.15233">
        <ele>821.20001220703</ele>
        <time>2021-07-11T10:01:18.000Z</time>
      </trkpt>
      <trkpt lat="47.88514" lon="7.1524">
        <ele>820.59997558594</ele>
        <time>2021-07-11T10:01:19.000Z</time>
      </trkpt>
      <trkpt lat="47.88509" lon="7.15248">
        <ele>819.40002441406</ele>
        <time>2021-07-11T10:01:20.000Z</time>
      </trkpt>
      <trkpt lat="47.88504" lon="7.15258">
        <ele>818.79998779297</ele>
        <time>2021-07-11T10:01:21.000Z</time>
      </trkpt>
      <trkpt lat="47.88498" lon="7.15269">
        <ele>818.20001220703</ele>
        <time>2021-07-11T10:01:22.000Z</time>
      </trkpt>
      <trkpt lat="47.88493" lon="7.15281">
        <ele>817.40002441406</ele>
        <time>2021-07-11T10:01:23.000Z</time>
      </trkpt>
      <trkpt lat="47.88487" lon="7.15292">
        <ele>816.59997558594</ele>
        <time>2021-07-11T10:01:24.000Z</time>
      </trkpt>
      <trkpt lat="47.8848" lon="7.15301">
        <ele>815.79998779297</ele>
        <time>2021-07-11T10:01:25.000Z</time>
      </trkpt>
      <trkpt lat="47.88474" lon="7.1531">
        <ele>815.20001220703</ele>
        <time>2021-07-11T10:01:26.000Z</time>
      </trkpt>
      <trkpt lat="47.88468" lon="7.15318">
        <ele>814.40002441406</ele>
        <time>2021-07-11T10:01:27.000Z</time>
      </trkpt>
      <trkpt lat="47.88461" lon="7.15323">
        <ele>814</ele>
        <time>2021-07-11T10:01:28.000Z</time>
      </trkpt>
      <trkpt lat="47.88454" lon="7.15327">
        <ele>813.59997558594</ele>
        <time>2021-07-11T10:01:29.000Z</time>
      </trkpt>
      <trkpt lat="47.88448" lon="7.15328">
        <ele>813.20001220703</ele>
        <time>2021-07-11T10:01:30.000Z</time>
      </trkpt>
      <trkpt lat="47.88442" lon="7.15329">
        <ele>812.79998779297</ele>
        <time>2021-07-11T10:01:31.000Z</time>
      </trkpt>
      <trkpt lat="47.88438" lon="7.1533">
        <ele>812.20001220703</ele>
        <time>2021-07-11T10:01:32.000Z</time>
      </trkpt>
      <trkpt lat="47.8843" lon="7.15331">
        <ele>812.20001220703</ele>
        <time>2021-07-11T10:01:34.000Z</time>
      </trkpt>
      <trkpt lat="47.88427" lon="7.15333">
        <ele>812.79998779297</ele>
        <time>2021-07-11T10:01:35.000Z</time>
      </trkpt>
      <trkpt lat="47.88424" lon="7.15333">
        <ele>813.20001220703</ele>
        <time>2021-07-11T10:01:36.000Z</time>
      </trkpt>
      <trkpt lat="47.88422" lon="7.15334">
        <ele>813.59997558594</ele>
        <time>2021-07-11T10:01:37.000Z</time>
      </trkpt>
      <trkpt lat="47.88419" lon="7.15334">
        <ele>814.20001220703</ele>
        <time>2021-07-11T10:01:38.000Z</time>
      </trkpt>
      <trkpt lat="47.88417" lon="7.15335">
        <ele>814.59997558594</ele>
        <time>2021-07-11T10:01:39.000Z</time>
      </trkpt>
      <trkpt lat="47.88414" lon="7.15336">
        <ele>815.20001220703</ele>
        <time>2021-07-11T10:01:40.000Z</time>
      </trkpt>
      <trkpt lat="47.88411" lon="7.15337">
        <ele>815.59997558594</ele>
        <time>2021-07-11T10:01:41.000Z</time>
      </trkpt>
      <trkpt lat="47.88408" lon="7.15337">
        <ele>816.20001220703</ele>
        <time>2021-07-11T10:01:42.000Z</time>
      </trkpt>
      <trkpt lat="47.88405" lon="7.15337">
        <ele>816.59997558594</ele>
        <time>2021-07-11T10:01:43.000Z</time>
      </trkpt>
      <trkpt lat="47.88403" lon="7.15338">
        <ele>817.20001220703</ele>
        <time>2021-07-11T10:01:44.000Z</time>
      </trkpt>
      <trkpt lat="47.884" lon="7.15338">
        <ele>818.20001220703</ele>
        <time>2021-07-11T10:01:45.000Z</time>
      </trkpt>
      <trkpt lat="47.88398" lon="7.15339">
        <ele>818.79998779297</ele>
        <time>2021-07-11T10:01:46.000Z</time>
      </trkpt>
      <trkpt lat="47.88395" lon="7.15339">
        <ele>819.20001220703</ele>
        <time>2021-07-11T10:01:47.000Z</time>
      </trkpt>
      <trkpt lat="47.88393" lon="7.1534">
        <ele>819.79998779297</ele>
        <time>2021-07-11T10:01:48.000Z</time>
      </trkpt>
      <trkpt lat="47.8839" lon="7.15341">
        <ele>820.20001220703</ele>
        <time>2021-07-11T10:01:49.000Z</time>
      </trkpt>
      <trkpt lat="47.88387" lon="7.15342">
        <ele>820.59997558594</ele>
        <time>2021-07-11T10:01:50.000Z</time>
      </trkpt>
      <trkpt lat="47.88384" lon="7.15343">
        <ele>821</ele>
        <time>2021-07-11T10:01:51.000Z</time>
      </trkpt>
      <trkpt lat="47.88381" lon="7.15345">
        <ele>821.40002441406</ele>
        <time>2021-07-11T10:01:52.000Z</time>
      </trkpt>
      <trkpt lat="47.88377" lon="7.15347">
        <ele>821.40002441406</ele>
        <time>2021-07-11T10:01:54.000Z</time>
      </trkpt>
      <trkpt lat="47.88375" lon="7.15348">
        <ele>821.79998779297</ele>
        <time>2021-07-11T10:01:55.000Z</time>
      </trkpt>
      <trkpt lat="47.88374" lon="7.1535">
        <ele>822.20001220703</ele>
        <time>2021-07-11T10:01:56.000Z</time>
      </trkpt>
      <trkpt lat="47.88372" lon="7.15351">
        <ele>822.79998779297</ele>
        <time>2021-07-11T10:01:57.000Z</time>
      </trkpt>
      <trkpt lat="47.8837" lon="7.15353">
        <ele>823.20001220703</ele>
        <time>2021-07-11T10:01:58.000Z</time>
      </trkpt>
      <trkpt lat="47.88368" lon="7.15355">
        <ele>823.59997558594</ele>
        <time>2021-07-11T10:01:59.000Z</time>
      </trkpt>
      <trkpt lat="47.88367" lon="7.15357">
        <ele>823.59997558594</ele>
        <time>2021-07-11T10:02:00.000Z</time>
      </trkpt>
      <trkpt lat="47.88358" lon="7.1537">
        <ele>824</ele>
        <time>2021-07-11T10:02:07.000Z</time>
      </trkpt>
      <trkpt lat="47.88358" lon="7.15372">
        <ele>824.59997558594</ele>
        <time>2021-07-11T10:02:08.000Z</time>
      </trkpt>
      <trkpt lat="47.88358" lon="7.15374">
        <ele>825</ele>
        <time>2021-07-11T10:02:09.000Z</time>
      </trkpt>
      <trkpt lat="47.88358" lon="7.15375">
        <ele>825.79998779297</ele>
        <time>2021-07-11T10:02:10.000Z</time>
      </trkpt>
      <trkpt lat="47.88357" lon="7.15375">
        <ele>825.79998779297</ele>
        <time>2021-07-11T10:02:11.000Z</time>
      </trkpt>
      <trkpt lat="47.88355" lon="7.15381">
        <ele>825.79998779297</ele>
        <time>2021-07-11T10:02:55.000Z</time>
      </trkpt>
      <trkpt lat="47.88354" lon="7.15386">
        <ele>825.79998779297</ele>
        <time>2021-07-11T10:02:56.000Z</time>
      </trkpt>
      <trkpt lat="47.88352" lon="7.15399">
        <ele>825.40002441406</ele>
        <time>2021-07-11T10:02:59.000Z</time>
      </trkpt>
      <trkpt lat="47.88352" lon="7.15402">
        <ele>824.59997558594</ele>
        <time>2021-07-11T10:03:00.000Z</time>
      </trkpt>
      <trkpt lat="47.88353" lon="7.15405">
        <ele>824.20001220703</ele>
        <time>2021-07-11T10:03:01.000Z</time>
      </trkpt>
      <trkpt lat="47.88353" lon="7.1541">
        <ele>823.59997558594</ele>
        <time>2021-07-11T10:03:02.000Z</time>
      </trkpt>
      <trkpt lat="47.88353" lon="7.15415">
        <ele>823</ele>
        <time>2021-07-11T10:03:03.000Z</time>
      </trkpt>
      <trkpt lat="47.88353" lon="7.1542">
        <ele>822.40002441406</ele>
        <time>2021-07-11T10:03:04.000Z</time>
      </trkpt>
      <trkpt lat="47.88353" lon="7.15423">
        <ele>821.59997558594</ele>
        <time>2021-07-11T10:03:05.000Z</time>
      </trkpt>
      <trkpt lat="47.88353" lon="7.15427">
        <ele>821</ele>
        <time>2021-07-11T10:03:06.000Z</time>
      </trkpt>
      <trkpt lat="47.88353" lon="7.1543">
        <ele>820.40002441406</ele>
        <time>2021-07-11T10:03:07.000Z</time>
      </trkpt>
      <trkpt lat="47.88354" lon="7.15434">
        <ele>819.59997558594</ele>
        <time>2021-07-11T10:03:08.000Z</time>
      </trkpt>
      <trkpt lat="47.88354" lon="7.15437">
        <ele>819</ele>
        <time>2021-07-11T10:03:09.000Z</time>
      </trkpt>
      <trkpt lat="47.88354" lon="7.1544">
        <ele>819</ele>
        <time>2021-07-11T10:03:10.000Z</time>
      </trkpt>
      <trkpt lat="47.88355" lon="7.15443">
        <ele>818.59997558594</ele>
        <time>2021-07-11T10:03:11.000Z</time>
      </trkpt>
      <trkpt lat="47.88355" lon="7.15448">
        <ele>818</ele>
        <time>2021-07-11T10:03:12.000Z</time>
      </trkpt>
      <trkpt lat="47.88355" lon="7.15452">
        <ele>817.59997558594</ele>
        <time>2021-07-11T10:03:13.000Z</time>
      </trkpt>
      <trkpt lat="47.88355" lon="7.15457">
        <ele>817</ele>
        <time>2021-07-11T10:03:14.000Z</time>
      </trkpt>
      <trkpt lat="47.88356" lon="7.1546">
        <ele>816.59997558594</ele>
        <time>2021-07-11T10:03:15.000Z</time>
      </trkpt>
      <trkpt lat="47.88356" lon="7.15466">
        <ele>816.59997558594</ele>
        <time>2021-07-11T10:03:18.000Z</time>
      </trkpt>
      <trkpt lat="47.88356" lon="7.15479">
        <ele>814.59997558594</ele>
        <time>2021-07-11T10:03:34.000Z</time>
      </trkpt>
      <trkpt lat="47.88356" lon="7.1548">
        <ele>814.59997558594</ele>
        <time>2021-07-11T10:03:35.000Z</time>
      </trkpt>
      <trkpt lat="47.88357" lon="7.15491">
        <ele>814.59997558594</ele>
        <time>2021-07-11T10:03:48.000Z</time>
      </trkpt>
      <trkpt lat="47.88357" lon="7.15495">
        <ele>814.20001220703</ele>
        <time>2021-07-11T10:03:49.000Z</time>
      </trkpt>
      <trkpt lat="47.88357" lon="7.155">
        <ele>813.79998779297</ele>
        <time>2021-07-11T10:03:50.000Z</time>
      </trkpt>
      <trkpt lat="47.88358" lon="7.15505">
        <ele>813.40002441406</ele>
        <time>2021-07-11T10:03:51.000Z</time>
      </trkpt>
      <trkpt lat="47.88358" lon="7.15511">
        <ele>813</ele>
        <time>2021-07-11T10:03:52.000Z</time>
      </trkpt>
      <trkpt lat="47.88358" lon="7.15517">
        <ele>812.59997558594</ele>
        <time>2021-07-11T10:03:53.000Z</time>
      </trkpt>
      <trkpt lat="47.88358" lon="7.15522">
        <ele>812</ele>
        <time>2021-07-11T10:03:54.000Z</time>
      </trkpt>
      <trkpt lat="47.88358" lon="7.15528">
        <ele>811.59997558594</ele>
        <time>2021-07-11T10:03:55.000Z</time>
      </trkpt>
      <trkpt lat="47.88358" lon="7.15533">
        <ele>811.20001220703</ele>
        <time>2021-07-11T10:03:56.000Z</time>
      </trkpt>
      <trkpt lat="47.88358" lon="7.15537">
        <ele>810.79998779297</ele>
        <time>2021-07-11T10:03:57.000Z</time>
      </trkpt>
      <trkpt lat="47.88358" lon="7.15542">
        <ele>810.20001220703</ele>
        <time>2021-07-11T10:03:58.000Z</time>
      </trkpt>
      <trkpt lat="47.88359" lon="7.15553">
        <ele>810.20001220703</ele>
        <time>2021-07-11T10:04:00.000Z</time>
      </trkpt>
      <trkpt lat="47.88359" lon="7.15558">
        <ele>809.79998779297</ele>
        <time>2021-07-11T10:04:01.000Z</time>
      </trkpt>
      <trkpt lat="47.88359" lon="7.15564">
        <ele>809.40002441406</ele>
        <time>2021-07-11T10:04:02.000Z</time>
      </trkpt>
      <trkpt lat="47.88359" lon="7.15569">
        <ele>809</ele>
        <time>2021-07-11T10:04:03.000Z</time>
      </trkpt>
      <trkpt lat="47.88358" lon="7.15573">
        <ele>808.40002441406</ele>
        <time>2021-07-11T10:04:04.000Z</time>
      </trkpt>
      <trkpt lat="47.88356" lon="7.15577">
        <ele>808</ele>
        <time>2021-07-11T10:04:05.000Z</time>
      </trkpt>
      <trkpt lat="47.88355" lon="7.15581">
        <ele>807.59997558594</ele>
        <time>2021-07-11T10:04:06.000Z</time>
      </trkpt>
      <trkpt lat="47.88354" lon="7.15585">
        <ele>807.20001220703</ele>
        <time>2021-07-11T10:04:07.000Z</time>
      </trkpt>
      <trkpt lat="47.88352" lon="7.15591">
        <ele>806.59997558594</ele>
        <time>2021-07-11T10:04:08.000Z</time>
      </trkpt>
      <trkpt lat="47.8835" lon="7.15597">
        <ele>806.20001220703</ele>
        <time>2021-07-11T10:04:09.000Z</time>
      </trkpt>
      <trkpt lat="47.88348" lon="7.15603">
        <ele>805.79998779297</ele>
        <time>2021-07-11T10:04:10.000Z</time>
      </trkpt>
      <trkpt lat="47.88346" lon="7.15615">
        <ele>805.40002441406</ele>
        <time>2021-07-11T10:04:12.000Z</time>
      </trkpt>
      <trkpt lat="47.88346" lon="7.15621">
        <ele>805</ele>
        <time>2021-07-11T10:04:13.000Z</time>
      </trkpt>
      <trkpt lat="47.88345" lon="7.15627">
        <ele>804</ele>
        <time>2021-07-11T10:04:14.000Z</time>
      </trkpt>
      <trkpt lat="47.88343" lon="7.15635">
        <ele>803.59997558594</ele>
        <time>2021-07-11T10:04:15.000Z</time>
      </trkpt>
      <trkpt lat="47.88341" lon="7.15645">
        <ele>803.20001220703</ele>
        <time>2021-07-11T10:04:16.000Z</time>
      </trkpt>
      <trkpt lat="47.88338" lon="7.15655">
        <ele>802.79998779297</ele>
        <time>2021-07-11T10:04:17.000Z</time>
      </trkpt>
      <trkpt lat="47.88336" lon="7.15665">
        <ele>802.40002441406</ele>
        <time>2021-07-11T10:04:18.000Z</time>
      </trkpt>
      <trkpt lat="47.88334" lon="7.15672">
        <ele>802</ele>
        <time>2021-07-11T10:04:19.000Z</time>
      </trkpt>
      <trkpt lat="47.88334" lon="7.15677">
        <ele>801.40002441406</ele>
        <time>2021-07-11T10:04:20.000Z</time>
      </trkpt>
      <trkpt lat="47.88333" lon="7.15684">
        <ele>800.79998779297</ele>
        <time>2021-07-11T10:04:21.000Z</time>
      </trkpt>
      <trkpt lat="47.88333" lon="7.1569">
        <ele>800.20001220703</ele>
        <time>2021-07-11T10:04:22.000Z</time>
      </trkpt>
      <trkpt lat="47.88332" lon="7.15697">
        <ele>799.40002441406</ele>
        <time>2021-07-11T10:04:23.000Z</time>
      </trkpt>
      <trkpt lat="47.88331" lon="7.15704">
        <ele>798.79998779297</ele>
        <time>2021-07-11T10:04:24.000Z</time>
      </trkpt>
      <trkpt lat="47.88329" lon="7.1571">
        <ele>798</ele>
        <time>2021-07-11T10:04:25.000Z</time>
      </trkpt>
      <trkpt lat="47.88327" lon="7.15715">
        <ele>797.20001220703</ele>
        <time>2021-07-11T10:04:26.000Z</time>
      </trkpt>
      <trkpt lat="47.88325" lon="7.1572">
        <ele>796.40002441406</ele>
        <time>2021-07-11T10:04:27.000Z</time>
      </trkpt>
      <trkpt lat="47.88322" lon="7.15724">
        <ele>795.59997558594</ele>
        <time>2021-07-11T10:04:28.000Z</time>
      </trkpt>
      <trkpt lat="47.88318" lon="7.15729">
        <ele>794.79998779297</ele>
        <time>2021-07-11T10:04:29.000Z</time>
      </trkpt>
      <trkpt lat="47.88315" lon="7.15733">
        <ele>794</ele>
        <time>2021-07-11T10:04:30.000Z</time>
      </trkpt>
      <trkpt lat="47.88312" lon="7.15737">
        <ele>793.40002441406</ele>
        <time>2021-07-11T10:04:31.000Z</time>
      </trkpt>
      <trkpt lat="47.88309" lon="7.15741">
        <ele>792.59997558594</ele>
        <time>2021-07-11T10:04:32.000Z</time>
      </trkpt>
      <trkpt lat="47.88306" lon="7.15746">
        <ele>791.79998779297</ele>
        <time>2021-07-11T10:04:33.000Z</time>
      </trkpt>
      <trkpt lat="47.88303" lon="7.1575">
        <ele>791</ele>
        <time>2021-07-11T10:04:34.000Z</time>
      </trkpt>
      <trkpt lat="47.883" lon="7.15754">
        <ele>790.20001220703</ele>
        <time>2021-07-11T10:04:35.000Z</time>
      </trkpt>
      <trkpt lat="47.88297" lon="7.15758">
        <ele>789.40002441406</ele>
        <time>2021-07-11T10:04:36.000Z</time>
      </trkpt>
      <trkpt lat="47.88294" lon="7.15761">
        <ele>788.79998779297</ele>
        <time>2021-07-11T10:04:37.000Z</time>
      </trkpt>
      <trkpt lat="47.8829" lon="7.15764">
        <ele>787.59997558594</ele>
        <time>2021-07-11T10:04:38.000Z</time>
      </trkpt>
      <trkpt lat="47.88285" lon="7.15768">
        <ele>786.79998779297</ele>
        <time>2021-07-11T10:04:39.000Z</time>
      </trkpt>
      <trkpt lat="47.8828" lon="7.15772">
        <ele>786</ele>
        <time>2021-07-11T10:04:40.000Z</time>
      </trkpt>
      <trkpt lat="47.88276" lon="7.15777">
        <ele>785.20001220703</ele>
        <time>2021-07-11T10:04:41.000Z</time>
      </trkpt>
      <trkpt lat="47.88271" lon="7.15783">
        <ele>784.40002441406</ele>
        <time>2021-07-11T10:04:42.000Z</time>
      </trkpt>
      <trkpt lat="47.88267" lon="7.15789">
        <ele>783.40002441406</ele>
        <time>2021-07-11T10:04:43.000Z</time>
      </trkpt>
      <trkpt lat="47.88263" lon="7.15795">
        <ele>782.59997558594</ele>
        <time>2021-07-11T10:04:44.000Z</time>
      </trkpt>
      <trkpt lat="47.88259" lon="7.158">
        <ele>781.59997558594</ele>
        <time>2021-07-11T10:04:45.000Z</time>
      </trkpt>
      <trkpt lat="47.88256" lon="7.15805">
        <ele>780.79998779297</ele>
        <time>2021-07-11T10:04:46.000Z</time>
      </trkpt>
      <trkpt lat="47.88252" lon="7.15808">
        <ele>780</ele>
        <time>2021-07-11T10:04:47.000Z</time>
      </trkpt>
      <trkpt lat="47.88248" lon="7.1581">
        <ele>779</ele>
        <time>2021-07-11T10:04:48.000Z</time>
      </trkpt>
      <trkpt lat="47.88245" lon="7.15811">
        <ele>778.20001220703</ele>
        <time>2021-07-11T10:04:49.000Z</time>
      </trkpt>
      <trkpt lat="47.88241" lon="7.15812">
        <ele>777.20001220703</ele>
        <time>2021-07-11T10:04:50.000Z</time>
      </trkpt>
      <trkpt lat="47.88237" lon="7.15812">
        <ele>776</ele>
        <time>2021-07-11T10:04:51.000Z</time>
      </trkpt>
      <trkpt lat="47.88233" lon="7.15813">
        <ele>775</ele>
        <time>2021-07-11T10:04:52.000Z</time>
      </trkpt>
      <trkpt lat="47.88229" lon="7.15813">
        <ele>773.79998779297</ele>
        <time>2021-07-11T10:04:53.000Z</time>
      </trkpt>
      <trkpt lat="47.88225" lon="7.15814">
        <ele>772.59997558594</ele>
        <time>2021-07-11T10:04:54.000Z</time>
      </trkpt>
      <trkpt lat="47.8822" lon="7.15815">
        <ele>771.20001220703</ele>
        <time>2021-07-11T10:04:55.000Z</time>
      </trkpt>
      <trkpt lat="47.88215" lon="7.15815">
        <ele>769.79998779297</ele>
        <time>2021-07-11T10:04:56.000Z</time>
      </trkpt>
      <trkpt lat="47.8821" lon="7.15816">
        <ele>768.59997558594</ele>
        <time>2021-07-11T10:04:57.000Z</time>
      </trkpt>
      <trkpt lat="47.88205" lon="7.15817">
        <ele>767.20001220703</ele>
        <time>2021-07-11T10:04:58.000Z</time>
      </trkpt>
      <trkpt lat="47.88199" lon="7.15818">
        <ele>765.79998779297</ele>
        <time>2021-07-11T10:04:59.000Z</time>
      </trkpt>
      <trkpt lat="47.88194" lon="7.15819">
        <ele>764.79998779297</ele>
        <time>2021-07-11T10:05:00.000Z</time>
      </trkpt>
      <trkpt lat="47.88188" lon="7.1582">
        <ele>763.59997558594</ele>
        <time>2021-07-11T10:05:01.000Z</time>
      </trkpt>
      <trkpt lat="47.88183" lon="7.15822">
        <ele>762.40002441406</ele>
        <time>2021-07-11T10:05:02.000Z</time>
      </trkpt>
      <trkpt lat="47.88179" lon="7.15824">
        <ele>760</ele>
        <time>2021-07-11T10:05:03.000Z</time>
      </trkpt>
      <trkpt lat="47.88176" lon="7.15826">
        <ele>759</ele>
        <time>2021-07-11T10:05:04.000Z</time>
      </trkpt>
      <trkpt lat="47.88175" lon="7.15827">
        <ele>758</ele>
        <time>2021-07-11T10:05:05.000Z</time>
      </trkpt>
      <trkpt lat="47.88174" lon="7.15828">
        <ele>757.20001220703</ele>
        <time>2021-07-11T10:05:06.000Z</time>
      </trkpt>
      <trkpt lat="47.88174" lon="7.15828">
        <ele>756.20001220703</ele>
        <time>2021-07-11T10:05:07.000Z</time>
      </trkpt>
      <trkpt lat="47.8817" lon="7.15831">
        <ele>755.20001220703</ele>
        <time>2021-07-11T10:05:34.000Z</time>
      </trkpt>
      <trkpt lat="47.88169" lon="7.15832">
        <ele>755.20001220703</ele>
        <time>2021-07-11T10:05:35.000Z</time>
      </trkpt>
      <trkpt lat="47.88161" lon="7.15843">
        <ele>755.20001220703</ele>
        <time>2021-07-11T10:05:39.000Z</time>
      </trkpt>
      <trkpt lat="47.88155" lon="7.15851">
        <ele>754.79998779297</ele>
        <time>2021-07-11T10:05:41.000Z</time>
      </trkpt>
      <trkpt lat="47.88152" lon="7.15855">
        <ele>754.40002441406</ele>
        <time>2021-07-11T10:05:42.000Z</time>
      </trkpt>
      <trkpt lat="47.8815" lon="7.1586">
        <ele>753.79998779297</ele>
        <time>2021-07-11T10:05:43.000Z</time>
      </trkpt>
      <trkpt lat="47.88147" lon="7.15865">
        <ele>753.40002441406</ele>
        <time>2021-07-11T10:05:44.000Z</time>
      </trkpt>
      <trkpt lat="47.88143" lon="7.1587">
        <ele>753</ele>
        <time>2021-07-11T10:05:45.000Z</time>
      </trkpt>
      <trkpt lat="47.88139" lon="7.15876">
        <ele>753</ele>
        <time>2021-07-11T10:05:46.000Z</time>
      </trkpt>
      <trkpt lat="47.88136" lon="7.15882">
        <ele>752.59997558594</ele>
        <time>2021-07-11T10:05:47.000Z</time>
      </trkpt>
      <trkpt lat="47.88133" lon="7.15887">
        <ele>752.20001220703</ele>
        <time>2021-07-11T10:05:48.000Z</time>
      </trkpt>
      <trkpt lat="47.8813" lon="7.15893">
        <ele>751.59997558594</ele>
        <time>2021-07-11T10:05:49.000Z</time>
      </trkpt>
      <trkpt lat="47.88128" lon="7.15896">
        <ele>751.20001220703</ele>
        <time>2021-07-11T10:05:50.000Z</time>
      </trkpt>
      <trkpt lat="47.88127" lon="7.15899">
        <ele>750.79998779297</ele>
        <time>2021-07-11T10:05:51.000Z</time>
      </trkpt>
      <trkpt lat="47.88121" lon="7.15918">
        <ele>750.79998779297</ele>
        <time>2021-07-11T10:05:56.000Z</time>
      </trkpt>
      <trkpt lat="47.8812" lon="7.15922">
        <ele>750.40002441406</ele>
        <time>2021-07-11T10:05:57.000Z</time>
      </trkpt>
      <trkpt lat="47.88118" lon="7.15928">
        <ele>750</ele>
        <time>2021-07-11T10:05:58.000Z</time>
      </trkpt>
      <trkpt lat="47.88118" lon="7.15935">
        <ele>749.40002441406</ele>
        <time>2021-07-11T10:05:59.000Z</time>
      </trkpt>
      <trkpt lat="47.88117" lon="7.15943">
        <ele>749</ele>
        <time>2021-07-11T10:06:00.000Z</time>
      </trkpt>
      <trkpt lat="47.88117" lon="7.1595">
        <ele>748.59997558594</ele>
        <time>2021-07-11T10:06:01.000Z</time>
      </trkpt>
      <trkpt lat="47.88116" lon="7.15964">
        <ele>748.59997558594</ele>
        <time>2021-07-11T10:06:03.000Z</time>
      </trkpt>
      <trkpt lat="47.88118" lon="7.15973">
        <ele>748.20001220703</ele>
        <time>2021-07-11T10:06:04.000Z</time>
      </trkpt>
      <trkpt lat="47.88119" lon="7.15982">
        <ele>747.59997558594</ele>
        <time>2021-07-11T10:06:05.000Z</time>
      </trkpt>
      <trkpt lat="47.8812" lon="7.15991">
        <ele>747.20001220703</ele>
        <time>2021-07-11T10:06:06.000Z</time>
      </trkpt>
      <trkpt lat="47.88121" lon="7.16">
        <ele>746.79998779297</ele>
        <time>2021-07-11T10:06:07.000Z</time>
      </trkpt>
      <trkpt lat="47.88122" lon="7.16009">
        <ele>746.40002441406</ele>
        <time>2021-07-11T10:06:08.000Z</time>
      </trkpt>
      <trkpt lat="47.88124" lon="7.16019">
        <ele>745.79998779297</ele>
        <time>2021-07-11T10:06:09.000Z</time>
      </trkpt>
      <trkpt lat="47.88126" lon="7.16029">
        <ele>745.40002441406</ele>
        <time>2021-07-11T10:06:10.000Z</time>
      </trkpt>
      <trkpt lat="47.88128" lon="7.1604">
        <ele>745</ele>
        <time>2021-07-11T10:06:11.000Z</time>
      </trkpt>
      <trkpt lat="47.88129" lon="7.16052">
        <ele>744.40002441406</ele>
        <time>2021-07-11T10:06:12.000Z</time>
      </trkpt>
      <trkpt lat="47.88129" lon="7.16064">
        <ele>744</ele>
        <time>2021-07-11T10:06:13.000Z</time>
      </trkpt>
      <trkpt lat="47.8813" lon="7.16077">
        <ele>743.40002441406</ele>
        <time>2021-07-11T10:06:14.000Z</time>
      </trkpt>
      <trkpt lat="47.88131" lon="7.16089">
        <ele>742.79998779297</ele>
        <time>2021-07-11T10:06:15.000Z</time>
      </trkpt>
      <trkpt lat="47.88132" lon="7.16102">
        <ele>742.20001220703</ele>
        <time>2021-07-11T10:06:16.000Z</time>
      </trkpt>
      <trkpt lat="47.88134" lon="7.16116">
        <ele>741</ele>
        <time>2021-07-11T10:06:17.000Z</time>
      </trkpt>
      <trkpt lat="47.88135" lon="7.16129">
        <ele>740.20001220703</ele>
        <time>2021-07-11T10:06:18.000Z</time>
      </trkpt>
      <trkpt lat="47.88135" lon="7.16143">
        <ele>739.40002441406</ele>
        <time>2021-07-11T10:06:19.000Z</time>
      </trkpt>
      <trkpt lat="47.88135" lon="7.16158">
        <ele>738.59997558594</ele>
        <time>2021-07-11T10:06:20.000Z</time>
      </trkpt>
      <trkpt lat="47.88135" lon="7.16172">
        <ele>737.79998779297</ele>
        <time>2021-07-11T10:06:21.000Z</time>
      </trkpt>
      <trkpt lat="47.88134" lon="7.16186">
        <ele>737</ele>
        <time>2021-07-11T10:06:22.000Z</time>
      </trkpt>
      <trkpt lat="47.88133" lon="7.16201">
        <ele>736</ele>
        <time>2021-07-11T10:06:23.000Z</time>
      </trkpt>
      <trkpt lat="47.88131" lon="7.16216">
        <ele>735</ele>
        <time>2021-07-11T10:06:24.000Z</time>
      </trkpt>
      <trkpt lat="47.88127" lon="7.16231">
        <ele>734</ele>
        <time>2021-07-11T10:06:25.000Z</time>
      </trkpt>
      <trkpt lat="47.88124" lon="7.16246">
        <ele>733</ele>
        <time>2021-07-11T10:06:26.000Z</time>
      </trkpt>
      <trkpt lat="47.8812" lon="7.16261">
        <ele>731.79998779297</ele>
        <time>2021-07-11T10:06:27.000Z</time>
      </trkpt>
      <trkpt lat="47.88117" lon="7.16275">
        <ele>730.79998779297</ele>
        <time>2021-07-11T10:06:28.000Z</time>
      </trkpt>
      <trkpt lat="47.88113" lon="7.16291">
        <ele>729.59997558594</ele>
        <time>2021-07-11T10:06:29.000Z</time>
      </trkpt>
      <trkpt lat="47.88108" lon="7.16306">
        <ele>728.59997558594</ele>
        <time>2021-07-11T10:06:30.000Z</time>
      </trkpt>
      <trkpt lat="47.88102" lon="7.16319">
        <ele>727.59997558594</ele>
        <time>2021-07-11T10:06:31.000Z</time>
      </trkpt>
      <trkpt lat="47.88096" lon="7.16333">
        <ele>726.59997558594</ele>
        <time>2021-07-11T10:06:32.000Z</time>
      </trkpt>
      <trkpt lat="47.88089" lon="7.16344">
        <ele>725.59997558594</ele>
        <time>2021-07-11T10:06:33.000Z</time>
      </trkpt>
      <trkpt lat="47.88081" lon="7.16355">
        <ele>724.59997558594</ele>
        <time>2021-07-11T10:06:34.000Z</time>
      </trkpt>
      <trkpt lat="47.88074" lon="7.16364">
        <ele>723.40002441406</ele>
        <time>2021-07-11T10:06:35.000Z</time>
      </trkpt>
      <trkpt lat="47.88066" lon="7.16373">
        <ele>722.40002441406</ele>
        <time>2021-07-11T10:06:36.000Z</time>
      </trkpt>
      <trkpt lat="47.88058" lon="7.16382">
        <ele>721.20001220703</ele>
        <time>2021-07-11T10:06:37.000Z</time>
      </trkpt>
      <trkpt lat="47.88051" lon="7.16392">
        <ele>720.20001220703</ele>
        <time>2021-07-11T10:06:38.000Z</time>
      </trkpt>
      <trkpt lat="47.88045" lon="7.16402">
        <ele>718.79998779297</ele>
        <time>2021-07-11T10:06:39.000Z</time>
      </trkpt>
      <trkpt lat="47.88039" lon="7.16414">
        <ele>717.59997558594</ele>
        <time>2021-07-11T10:06:40.000Z</time>
      </trkpt>
      <trkpt lat="47.88034" lon="7.16426">
        <ele>716.40002441406</ele>
        <time>2021-07-11T10:06:41.000Z</time>
      </trkpt>
      <trkpt lat="47.88027" lon="7.16439">
        <ele>713.79998779297</ele>
        <time>2021-07-11T10:06:42.000Z</time>
      </trkpt>
      <trkpt lat="47.8802" lon="7.16452">
        <ele>712.79998779297</ele>
        <time>2021-07-11T10:06:43.000Z</time>
      </trkpt>
      <trkpt lat="47.88012" lon="7.16466">
        <ele>711.40002441406</ele>
        <time>2021-07-11T10:06:44.000Z</time>
      </trkpt>
      <trkpt lat="47.88003" lon="7.16477">
        <ele>710.20001220703</ele>
        <time>2021-07-11T10:06:45.000Z</time>
      </trkpt>
      <trkpt lat="47.87994" lon="7.16488">
        <ele>709</ele>
        <time>2021-07-11T10:06:46.000Z</time>
      </trkpt>
      <trkpt lat="47.87985" lon="7.16495">
        <ele>707.59997558594</ele>
        <time>2021-07-11T10:06:47.000Z</time>
      </trkpt>
      <trkpt lat="47.87976" lon="7.165">
        <ele>706.40002441406</ele>
        <time>2021-07-11T10:06:48.000Z</time>
      </trkpt>
      <trkpt lat="47.87968" lon="7.16503">
        <ele>705.20001220703</ele>
        <time>2021-07-11T10:06:49.000Z</time>
      </trkpt>
      <trkpt lat="47.87962" lon="7.16505">
        <ele>704</ele>
        <time>2021-07-11T10:06:50.000Z</time>
      </trkpt>
      <trkpt lat="47.87956" lon="7.16508">
        <ele>702.79998779297</ele>
        <time>2021-07-11T10:06:51.000Z</time>
      </trkpt>
      <trkpt lat="47.87954" lon="7.16508">
        <ele>701.79998779297</ele>
        <time>2021-07-11T10:06:52.000Z</time>
      </trkpt>
      <trkpt lat="47.87953" lon="7.16509">
        <ele>700.79998779297</ele>
        <time>2021-07-11T10:06:53.000Z</time>
      </trkpt>
      <trkpt lat="47.87953" lon="7.16511">
        <ele>699.59997558594</ele>
        <time>2021-07-11T10:06:54.000Z</time>
      </trkpt>
      <trkpt lat="47.87953" lon="7.16511">
        <ele>698.59997558594</ele>
        <time>2021-07-11T10:06:55.000Z</time>
      </trkpt>
      <trkpt lat="47.87952" lon="7.16519">
        <ele>696.59997558594</ele>
        <time>2021-07-11T10:09:54.000Z</time>
      </trkpt>
      <trkpt lat="47.87952" lon="7.16523">
        <ele>696.59997558594</ele>
        <time>2021-07-11T10:09:55.000Z</time>
      </trkpt>
      <trkpt lat="47.8795" lon="7.16534">
        <ele>696.59997558594</ele>
        <time>2021-07-11T10:09:57.000Z</time>
      </trkpt>
      <trkpt lat="47.87947" lon="7.16541">
        <ele>696.59997558594</ele>
        <time>2021-07-11T10:09:58.000Z</time>
      </trkpt>
      <trkpt lat="47.87943" lon="7.16549">
        <ele>696</ele>
        <time>2021-07-11T10:09:59.000Z</time>
      </trkpt>
      <trkpt lat="47.87938" lon="7.16557">
        <ele>695.40002441406</ele>
        <time>2021-07-11T10:10:00.000Z</time>
      </trkpt>
      <trkpt lat="47.87932" lon="7.16562">
        <ele>694.40002441406</ele>
        <time>2021-07-11T10:10:01.000Z</time>
      </trkpt>
      <trkpt lat="47.87925" lon="7.16567">
        <ele>693.59997558594</ele>
        <time>2021-07-11T10:10:02.000Z</time>
      </trkpt>
      <trkpt lat="47.87917" lon="7.16572">
        <ele>692.59997558594</ele>
        <time>2021-07-11T10:10:03.000Z</time>
      </trkpt>
      <trkpt lat="47.87909" lon="7.16577">
        <ele>691.59997558594</ele>
        <time>2021-07-11T10:10:04.000Z</time>
      </trkpt>
      <trkpt lat="47.87901" lon="7.16583">
        <ele>690.20001220703</ele>
        <time>2021-07-11T10:10:05.000Z</time>
      </trkpt>
      <trkpt lat="47.87893" lon="7.16588">
        <ele>688.79998779297</ele>
        <time>2021-07-11T10:10:06.000Z</time>
      </trkpt>
      <trkpt lat="47.87885" lon="7.16593">
        <ele>687.59997558594</ele>
        <time>2021-07-11T10:10:07.000Z</time>
      </trkpt>
      <trkpt lat="47.87877" lon="7.16598">
        <ele>686.20001220703</ele>
        <time>2021-07-11T10:10:08.000Z</time>
      </trkpt>
      <trkpt lat="47.8787" lon="7.16604">
        <ele>684.79998779297</ele>
        <time>2021-07-11T10:10:09.000Z</time>
      </trkpt>
      <trkpt lat="47.87863" lon="7.1661">
        <ele>683.59997558594</ele>
        <time>2021-07-11T10:10:10.000Z</time>
      </trkpt>
      <trkpt lat="47.87858" lon="7.16615">
        <ele>682.40002441406</ele>
        <time>2021-07-11T10:10:11.000Z</time>
      </trkpt>
      <trkpt lat="47.87854" lon="7.16621">
        <ele>681.20001220703</ele>
        <time>2021-07-11T10:10:12.000Z</time>
      </trkpt>
      <trkpt lat="47.8785" lon="7.16629">
        <ele>680</ele>
        <time>2021-07-11T10:10:13.000Z</time>
      </trkpt>
      <trkpt lat="47.87847" lon="7.16638">
        <ele>678.79998779297</ele>
        <time>2021-07-11T10:10:14.000Z</time>
      </trkpt>
      <trkpt lat="47.87846" lon="7.16647">
        <ele>677.59997558594</ele>
        <time>2021-07-11T10:10:15.000Z</time>
      </trkpt>
      <trkpt lat="47.87846" lon="7.16657">
        <ele>676.20001220703</ele>
        <time>2021-07-11T10:10:16.000Z</time>
      </trkpt>
      <trkpt lat="47.87846" lon="7.16667">
        <ele>675</ele>
        <time>2021-07-11T10:10:17.000Z</time>
      </trkpt>
      <trkpt lat="47.87847" lon="7.16678">
        <ele>673.79998779297</ele>
        <time>2021-07-11T10:10:18.000Z</time>
      </trkpt>
      <trkpt lat="47.87847" lon="7.16689">
        <ele>672.59997558594</ele>
        <time>2021-07-11T10:10:19.000Z</time>
      </trkpt>
      <trkpt lat="47.87848" lon="7.16701">
        <ele>671.40002441406</ele>
        <time>2021-07-11T10:10:20.000Z</time>
      </trkpt>
      <trkpt lat="47.87848" lon="7.16715">
        <ele>670</ele>
        <time>2021-07-11T10:10:21.000Z</time>
      </trkpt>
      <trkpt lat="47.87848" lon="7.16728">
        <ele>668.79998779297</ele>
        <time>2021-07-11T10:10:22.000Z</time>
      </trkpt>
      <trkpt lat="47.87848" lon="7.16742">
        <ele>667.20001220703</ele>
        <time>2021-07-11T10:10:23.000Z</time>
      </trkpt>
      <trkpt lat="47.87849" lon="7.16757">
        <ele>664.20001220703</ele>
        <time>2021-07-11T10:10:24.000Z</time>
      </trkpt>
      <trkpt lat="47.87849" lon="7.1677">
        <ele>662.59997558594</ele>
        <time>2021-07-11T10:10:25.000Z</time>
      </trkpt>
      <trkpt lat="47.8785" lon="7.16783">
        <ele>661.20001220703</ele>
        <time>2021-07-11T10:10:26.000Z</time>
      </trkpt>
      <trkpt lat="47.87852" lon="7.16797">
        <ele>660</ele>
        <time>2021-07-11T10:10:27.000Z</time>
      </trkpt>
      <trkpt lat="47.87855" lon="7.1681">
        <ele>658.79998779297</ele>
        <time>2021-07-11T10:10:28.000Z</time>
      </trkpt>
      <trkpt lat="47.87857" lon="7.16823">
        <ele>657.59997558594</ele>
        <time>2021-07-11T10:10:29.000Z</time>
      </trkpt>
      <trkpt lat="47.87857" lon="7.16834">
        <ele>656.40002441406</ele>
        <time>2021-07-11T10:10:30.000Z</time>
      </trkpt>
      <trkpt lat="47.87857" lon="7.16842">
        <ele>655.20001220703</ele>
        <time>2021-07-11T10:10:31.000Z</time>
      </trkpt>
      <trkpt lat="47.87856" lon="7.16848">
        <ele>654</ele>
        <time>2021-07-11T10:10:32.000Z</time>
      </trkpt>
      <trkpt lat="47.87856" lon="7.16855">
        <ele>652.79998779297</ele>
        <time>2021-07-11T10:10:33.000Z</time>
      </trkpt>
      <trkpt lat="47.87861" lon="7.16875">
        <ele>652.79998779297</ele>
        <time>2021-07-11T10:10:37.000Z</time>
      </trkpt>
      <trkpt lat="47.87869" lon="7.16897">
        <ele>652.79998779297</ele>
        <time>2021-07-11T10:10:43.000Z</time>
      </trkpt>
      <trkpt lat="47.87885" lon="7.16919">
        <ele>652.79998779297</ele>
        <time>2021-07-11T10:10:50.000Z</time>
      </trkpt>
      <trkpt lat="47.87899" lon="7.16937">
        <ele>652.79998779297</ele>
        <time>2021-07-11T10:10:56.000Z</time>
      </trkpt>
      <trkpt lat="47.87911" lon="7.16949">
        <ele>652.79998779297</ele>
        <time>2021-07-11T10:11:01.000Z</time>
      </trkpt>
      <trkpt lat="47.87927" lon="7.16965">
        <ele>652.79998779297</ele>
        <time>2021-07-11T10:11:07.000Z</time>
      </trkpt>
      <trkpt lat="47.87944" lon="7.16981">
        <ele>652.79998779297</ele>
        <time>2021-07-11T10:11:13.000Z</time>
      </trkpt>
      <trkpt lat="47.87962" lon="7.16999">
        <ele>652.79998779297</ele>
        <time>2021-07-11T10:11:20.000Z</time>
      </trkpt>
      <trkpt lat="47.87973" lon="7.1701">
        <ele>652.79998779297</ele>
        <time>2021-07-11T10:11:25.000Z</time>
      </trkpt>
      <trkpt lat="47.87993" lon="7.17031">
        <ele>652.79998779297</ele>
        <time>2021-07-11T10:11:32.000Z</time>
      </trkpt>
      <trkpt lat="47.88021" lon="7.17048">
        <ele>652.79998779297</ele>
        <time>2021-07-11T10:11:40.000Z</time>
      </trkpt>
      <trkpt lat="47.88043" lon="7.17053">
        <ele>652.79998779297</ele>
        <time>2021-07-11T10:11:47.000Z</time>
      </trkpt>
      <trkpt lat="47.88058" lon="7.17058">
        <ele>652.79998779297</ele>
        <time>2021-07-11T10:11:52.000Z</time>
      </trkpt>
      <trkpt lat="47.88073" lon="7.17063">
        <ele>652.79998779297</ele>
        <time>2021-07-11T10:11:57.000Z</time>
      </trkpt>
      <trkpt lat="47.88093" lon="7.17065">
        <ele>652.40002441406</ele>
        <time>2021-07-11T10:12:03.000Z</time>
      </trkpt>
      <trkpt lat="47.88097" lon="7.17066">
        <ele>651.79998779297</ele>
        <time>2021-07-11T10:12:04.000Z</time>
      </trkpt>
      <trkpt lat="47.88101" lon="7.17067">
        <ele>651.40002441406</ele>
        <time>2021-07-11T10:12:05.000Z</time>
      </trkpt>
      <trkpt lat="47.88104" lon="7.17067">
        <ele>650.79998779297</ele>
        <time>2021-07-11T10:12:06.000Z</time>
      </trkpt>
      <trkpt lat="47.88108" lon="7.17068">
        <ele>650.40002441406</ele>
        <time>2021-07-11T10:12:07.000Z</time>
      </trkpt>
      <trkpt lat="47.88113" lon="7.17071">
        <ele>650.40002441406</ele>
        <time>2021-07-11T10:12:09.000Z</time>
      </trkpt>
      <trkpt lat="47.88132" lon="7.17079">
        <ele>650.40002441406</ele>
        <time>2021-07-11T10:12:15.000Z</time>
      </trkpt>
      <trkpt lat="47.88152" lon="7.17077">
        <ele>650.40002441406</ele>
        <time>2021-07-11T10:12:22.000Z</time>
      </trkpt>
      <trkpt lat="47.88167" lon="7.17087">
        <ele>650.40002441406</ele>
        <time>2021-07-11T10:12:27.000Z</time>
      </trkpt>
      <trkpt lat="47.88181" lon="7.17097">
        <ele>650.40002441406</ele>
        <time>2021-07-11T10:12:33.000Z</time>
      </trkpt>
      <trkpt lat="47.88196" lon="7.17107">
        <ele>650.40002441406</ele>
        <time>2021-07-11T10:12:39.000Z</time>
      </trkpt>
      <trkpt lat="47.88212" lon="7.17114">
        <ele>650.40002441406</ele>
        <time>2021-07-11T10:12:46.000Z</time>
      </trkpt>
      <trkpt lat="47.88229" lon="7.17125">
        <ele>650.40002441406</ele>
        <time>2021-07-11T10:12:52.000Z</time>
      </trkpt>
      <trkpt lat="47.88251" lon="7.17142">
        <ele>650.40002441406</ele>
        <time>2021-07-11T10:12:59.000Z</time>
      </trkpt>
      <trkpt lat="47.88269" lon="7.17149">
        <ele>650.40002441406</ele>
        <time>2021-07-11T10:13:05.000Z</time>
      </trkpt>
      <trkpt lat="47.88283" lon="7.17152">
        <ele>650.40002441406</ele>
        <time>2021-07-11T10:13:11.000Z</time>
      </trkpt>
      <trkpt lat="47.88294" lon="7.17142">
        <ele>650.40002441406</ele>
        <time>2021-07-11T10:13:16.000Z</time>
      </trkpt>
      <trkpt lat="47.88294" lon="7.17143">
        <ele>650.40002441406</ele>
        <time>2021-07-11T10:13:20.000Z</time>
      </trkpt>
      <trkpt lat="47.88291" lon="7.1715">
        <ele>650.40002441406</ele>
        <time>2021-07-11T10:13:24.000Z</time>
      </trkpt>
      <trkpt lat="47.88288" lon="7.17153">
        <ele>650.40002441406</ele>
        <time>2021-07-11T10:13:26.000Z</time>
      </trkpt>
      <trkpt lat="47.88288" lon="7.17154">
        <ele>650.40002441406</ele>
        <time>2021-07-11T10:13:27.000Z</time>
      </trkpt>
      <trkpt lat="47.88291" lon="7.17182">
        <ele>644.59997558594</ele>
        <time>2021-07-11T10:14:28.000Z</time>
      </trkpt>
      <trkpt lat="47.88292" lon="7.17184">
        <ele>644</ele>
        <time>2021-07-11T10:14:29.000Z</time>
      </trkpt>
      <trkpt lat="47.88292" lon="7.17186">
        <ele>643.40002441406</ele>
        <time>2021-07-11T10:14:30.000Z</time>
      </trkpt>
      <trkpt lat="47.88294" lon="7.17187">
        <ele>642.20001220703</ele>
        <time>2021-07-11T10:14:31.000Z</time>
      </trkpt>
      <trkpt lat="47.88295" lon="7.17189">
        <ele>641.40002441406</ele>
        <time>2021-07-11T10:14:32.000Z</time>
      </trkpt>
      <trkpt lat="47.88295" lon="7.1719">
        <ele>640.79998779297</ele>
        <time>2021-07-11T10:14:33.000Z</time>
      </trkpt>
      <trkpt lat="47.88296" lon="7.17192">
        <ele>640</ele>
        <time>2021-07-11T10:14:34.000Z</time>
      </trkpt>
      <trkpt lat="47.88297" lon="7.17194">
        <ele>639.40002441406</ele>
        <time>2021-07-11T10:14:35.000Z</time>
      </trkpt>
      <trkpt lat="47.88298" lon="7.17196">
        <ele>638.59997558594</ele>
        <time>2021-07-11T10:14:36.000Z</time>
      </trkpt>
      <trkpt lat="47.88298" lon="7.17197">
        <ele>638</ele>
        <time>2021-07-11T10:14:37.000Z</time>
      </trkpt>
      <trkpt lat="47.88298" lon="7.17198">
        <ele>637.20001220703</ele>
        <time>2021-07-11T10:14:38.000Z</time>
      </trkpt>
      <trkpt lat="47.88296" lon="7.17203">
        <ele>636.20001220703</ele>
        <time>2021-07-11T10:14:40.000Z</time>
      </trkpt>
      <trkpt lat="47.88295" lon="7.17205">
        <ele>635.59997558594</ele>
        <time>2021-07-11T10:14:41.000Z</time>
      </trkpt>
      <trkpt lat="47.88294" lon="7.17209">
        <ele>635</ele>
        <time>2021-07-11T10:14:42.000Z</time>
      </trkpt>
      <trkpt lat="47.88293" lon="7.17212">
        <ele>634.59997558594</ele>
        <time>2021-07-11T10:14:43.000Z</time>
      </trkpt>
      <trkpt lat="47.88292" lon="7.17216">
        <ele>634</ele>
        <time>2021-07-11T10:14:44.000Z</time>
      </trkpt>
      <trkpt lat="47.88293" lon="7.1722">
        <ele>633.40002441406</ele>
        <time>2021-07-11T10:14:45.000Z</time>
      </trkpt>
      <trkpt lat="47.88293" lon="7.17224">
        <ele>632.59997558594</ele>
        <time>2021-07-11T10:14:46.000Z</time>
      </trkpt>
      <trkpt lat="47.88294" lon="7.17228">
        <ele>631.79998779297</ele>
        <time>2021-07-11T10:14:47.000Z</time>
      </trkpt>
      <trkpt lat="47.88294" lon="7.17234">
        <ele>631</ele>
        <time>2021-07-11T10:14:48.000Z</time>
      </trkpt>
      <trkpt lat="47.88295" lon="7.17239">
        <ele>630.20001220703</ele>
        <time>2021-07-11T10:14:49.000Z</time>
      </trkpt>
      <trkpt lat="47.88295" lon="7.17245">
        <ele>629.20001220703</ele>
        <time>2021-07-11T10:14:50.000Z</time>
      </trkpt>
      <trkpt lat="47.88296" lon="7.17249">
        <ele>628.20001220703</ele>
        <time>2021-07-11T10:14:51.000Z</time>
      </trkpt>
      <trkpt lat="47.88295" lon="7.17254">
        <ele>627.20001220703</ele>
        <time>2021-07-11T10:14:52.000Z</time>
      </trkpt>
      <trkpt lat="47.88295" lon="7.17257">
        <ele>626</ele>
        <time>2021-07-11T10:14:53.000Z</time>
      </trkpt>
      <trkpt lat="47.88294" lon="7.1726">
        <ele>625</ele>
        <time>2021-07-11T10:14:54.000Z</time>
      </trkpt>
      <trkpt lat="47.88293" lon="7.17262">
        <ele>623.79998779297</ele>
        <time>2021-07-11T10:14:55.000Z</time>
      </trkpt>
      <trkpt lat="47.88291" lon="7.17266">
        <ele>621.79998779297</ele>
        <time>2021-07-11T10:14:56.000Z</time>
      </trkpt>
      <trkpt lat="47.8829" lon="7.17269">
        <ele>620.79998779297</ele>
        <time>2021-07-11T10:14:57.000Z</time>
      </trkpt>
      <trkpt lat="47.88291" lon="7.17272">
        <ele>619.79998779297</ele>
        <time>2021-07-11T10:14:58.000Z</time>
      </trkpt>
      <trkpt lat="47.88291" lon="7.17276">
        <ele>618.79998779297</ele>
        <time>2021-07-11T10:14:59.000Z</time>
      </trkpt>
      <trkpt lat="47.88292" lon="7.17278">
        <ele>617.79998779297</ele>
        <time>2021-07-11T10:15:00.000Z</time>
      </trkpt>
      <trkpt lat="47.88292" lon="7.17279">
        <ele>617</ele>
        <time>2021-07-11T10:15:01.000Z</time>
      </trkpt>
      <trkpt lat="47.88292" lon="7.17281">
        <ele>616.20001220703</ele>
        <time>2021-07-11T10:15:02.000Z</time>
      </trkpt>
      <trkpt lat="47.88292" lon="7.17282">
        <ele>615.20001220703</ele>
        <time>2021-07-11T10:15:03.000Z</time>
      </trkpt>
      <trkpt lat="47.88292" lon="7.17284">
        <ele>614.40002441406</ele>
        <time>2021-07-11T10:15:04.000Z</time>
      </trkpt>
      <trkpt lat="47.88291" lon="7.17285">
        <ele>613.59997558594</ele>
        <time>2021-07-11T10:15:05.000Z</time>
      </trkpt>
      <trkpt lat="47.8829" lon="7.17285">
        <ele>613.20001220703</ele>
        <time>2021-07-11T10:15:06.000Z</time>
      </trkpt>
      <trkpt lat="47.88289" lon="7.17288">
        <ele>612.59997558594</ele>
        <time>2021-07-11T10:15:07.000Z</time>
      </trkpt>
      <trkpt lat="47.88288" lon="7.17291">
        <ele>612.20001220703</ele>
        <time>2021-07-11T10:15:08.000Z</time>
      </trkpt>
      <trkpt lat="47.88288" lon="7.17294">
        <ele>611.40002441406</ele>
        <time>2021-07-11T10:15:09.000Z</time>
      </trkpt>
      <trkpt lat="47.88288" lon="7.17295">
        <ele>610.79998779297</ele>
        <time>2021-07-11T10:15:10.000Z</time>
      </trkpt>
      <trkpt lat="47.88288" lon="7.17298">
        <ele>610</ele>
        <time>2021-07-11T10:15:11.000Z</time>
      </trkpt>
      <trkpt lat="47.88286" lon="7.17302">
        <ele>608.59997558594</ele>
        <time>2021-07-11T10:15:13.000Z</time>
      </trkpt>
      <trkpt lat="47.88285" lon="7.17306">
        <ele>608</ele>
        <time>2021-07-11T10:15:14.000Z</time>
      </trkpt>
      <trkpt lat="47.88285" lon="7.17309">
        <ele>607</ele>
        <time>2021-07-11T10:15:15.000Z</time>
      </trkpt>
      <trkpt lat="47.88285" lon="7.1731">
        <ele>606.20001220703</ele>
        <time>2021-07-11T10:15:16.000Z</time>
      </trkpt>
      <trkpt lat="47.88286" lon="7.17317">
        <ele>601.79998779297</ele>
        <time>2021-07-11T10:16:15.000Z</time>
      </trkpt>
      <trkpt lat="47.88287" lon="7.17321">
        <ele>601.79998779297</ele>
        <time>2021-07-11T10:16:16.000Z</time>
      </trkpt>
      <trkpt lat="47.88289" lon="7.17331">
        <ele>601.20001220703</ele>
        <time>2021-07-11T10:16:19.000Z</time>
      </trkpt>
      <trkpt lat="47.8829" lon="7.17337">
        <ele>600.59997558594</ele>
        <time>2021-07-11T10:16:20.000Z</time>
      </trkpt>
      <trkpt lat="47.88291" lon="7.17342">
        <ele>599.59997558594</ele>
        <time>2021-07-11T10:16:21.000Z</time>
      </trkpt>
      <trkpt lat="47.88291" lon="7.17348">
        <ele>598.59997558594</ele>
        <time>2021-07-11T10:16:22.000Z</time>
      </trkpt>
      <trkpt lat="47.88292" lon="7.17355">
        <ele>597.59997558594</ele>
        <time>2021-07-11T10:16:23.000Z</time>
      </trkpt>
      <trkpt lat="47.88292" lon="7.1736">
        <ele>596.40002441406</ele>
        <time>2021-07-11T10:16:24.000Z</time>
      </trkpt>
      <trkpt lat="47.88292" lon="7.17366">
        <ele>595.20001220703</ele>
        <time>2021-07-11T10:16:25.000Z</time>
      </trkpt>
      <trkpt lat="47.88291" lon="7.17373">
        <ele>594</ele>
        <time>2021-07-11T10:16:26.000Z</time>
      </trkpt>
      <trkpt lat="47.88292" lon="7.1738">
        <ele>592.59997558594</ele>
        <time>2021-07-11T10:16:27.000Z</time>
      </trkpt>
      <trkpt lat="47.88292" lon="7.17387">
        <ele>591.40002441406</ele>
        <time>2021-07-11T10:16:28.000Z</time>
      </trkpt>
      <trkpt lat="47.88292" lon="7.17391">
        <ele>589.79998779297</ele>
        <time>2021-07-11T10:16:29.000Z</time>
      </trkpt>
      <trkpt lat="47.88291" lon="7.17395">
        <ele>588.40002441406</ele>
        <time>2021-07-11T10:16:30.000Z</time>
      </trkpt>
      <trkpt lat="47.88289" lon="7.17399">
        <ele>587.20001220703</ele>
        <time>2021-07-11T10:16:31.000Z</time>
      </trkpt>
      <trkpt lat="47.88288" lon="7.17401">
        <ele>585.79998779297</ele>
        <time>2021-07-11T10:16:32.000Z</time>
      </trkpt>
      <trkpt lat="47.88286" lon="7.17403">
        <ele>584.59997558594</ele>
        <time>2021-07-11T10:16:33.000Z</time>
      </trkpt>
      <trkpt lat="47.88285" lon="7.17405">
        <ele>583.59997558594</ele>
        <time>2021-07-11T10:16:34.000Z</time>
      </trkpt>
      <trkpt lat="47.88284" lon="7.17407">
        <ele>581.40002441406</ele>
        <time>2021-07-11T10:16:35.000Z</time>
      </trkpt>
      <trkpt lat="47.88285" lon="7.17409">
        <ele>580.40002441406</ele>
        <time>2021-07-11T10:16:36.000Z</time>
      </trkpt>
      <trkpt lat="47.88285" lon="7.17411">
        <ele>579.40002441406</ele>
        <time>2021-07-11T10:16:37.000Z</time>
      </trkpt>
      <trkpt lat="47.88286" lon="7.17412">
        <ele>578.20001220703</ele>
        <time>2021-07-11T10:16:38.000Z</time>
      </trkpt>
      <trkpt lat="47.88287" lon="7.17416">
        <ele>577.59997558594</ele>
        <time>2021-07-11T10:16:39.000Z</time>
      </trkpt>
      <trkpt lat="47.88287" lon="7.1742">
        <ele>577</ele>
        <time>2021-07-11T10:16:40.000Z</time>
      </trkpt>
      <trkpt lat="47.88288" lon="7.17424">
        <ele>576.40002441406</ele>
        <time>2021-07-11T10:16:41.000Z</time>
      </trkpt>
      <trkpt lat="47.88288" lon="7.17428">
        <ele>575.59997558594</ele>
        <time>2021-07-11T10:16:42.000Z</time>
      </trkpt>
      <trkpt lat="47.88287" lon="7.17431">
        <ele>574.79998779297</ele>
        <time>2021-07-11T10:16:43.000Z</time>
      </trkpt>
      <trkpt lat="47.88286" lon="7.17434">
        <ele>574.20001220703</ele>
        <time>2021-07-11T10:16:44.000Z</time>
      </trkpt>
      <trkpt lat="47.88285" lon="7.17436">
        <ele>573.40002441406</ele>
        <time>2021-07-11T10:16:45.000Z</time>
      </trkpt>
      <trkpt lat="47.88284" lon="7.17438">
        <ele>572.59997558594</ele>
        <time>2021-07-11T10:16:46.000Z</time>
      </trkpt>
      <trkpt lat="47.88285" lon="7.17441">
        <ele>571.79998779297</ele>
        <time>2021-07-11T10:16:47.000Z</time>
      </trkpt>
      <trkpt lat="47.88285" lon="7.17445">
        <ele>571</ele>
        <time>2021-07-11T10:16:48.000Z</time>
      </trkpt>
      <trkpt lat="47.88285" lon="7.17448">
        <ele>570.20001220703</ele>
        <time>2021-07-11T10:16:49.000Z</time>
      </trkpt>
      <trkpt lat="47.88286" lon="7.17452">
        <ele>569.59997558594</ele>
        <time>2021-07-11T10:16:50.000Z</time>
      </trkpt>
      <trkpt lat="47.88286" lon="7.17457">
        <ele>568.59997558594</ele>
        <time>2021-07-11T10:16:51.000Z</time>
      </trkpt>
      <trkpt lat="47.88287" lon="7.17461">
        <ele>567.79998779297</ele>
        <time>2021-07-11T10:16:52.000Z</time>
      </trkpt>
      <trkpt lat="47.88289" lon="7.17464">
        <ele>567</ele>
        <time>2021-07-11T10:16:53.000Z</time>
      </trkpt>
      <trkpt lat="47.8829" lon="7.17468">
        <ele>566.20001220703</ele>
        <time>2021-07-11T10:16:54.000Z</time>
      </trkpt>
      <trkpt lat="47.8829" lon="7.17472">
        <ele>565.40002441406</ele>
        <time>2021-07-11T10:16:55.000Z</time>
      </trkpt>
      <trkpt lat="47.88289" lon="7.17479">
        <ele>564.59997558594</ele>
        <time>2021-07-11T10:16:56.000Z</time>
      </trkpt>
      <trkpt lat="47.88288" lon="7.17485">
        <ele>563.79998779297</ele>
        <time>2021-07-11T10:16:57.000Z</time>
      </trkpt>
      <trkpt lat="47.88288" lon="7.1749">
        <ele>563</ele>
        <time>2021-07-11T10:16:58.000Z</time>
      </trkpt>
      <trkpt lat="47.88289" lon="7.17494">
        <ele>561.40002441406</ele>
        <time>2021-07-11T10:16:59.000Z</time>
      </trkpt>
      <trkpt lat="47.88289" lon="7.175">
        <ele>560.40002441406</ele>
        <time>2021-07-11T10:17:00.000Z</time>
      </trkpt>
      <trkpt lat="47.88288" lon="7.17505">
        <ele>559.40002441406</ele>
        <time>2021-07-11T10:17:01.000Z</time>
      </trkpt>
      <trkpt lat="47.88287" lon="7.17508">
        <ele>558.40002441406</ele>
        <time>2021-07-11T10:17:02.000Z</time>
      </trkpt>
      <trkpt lat="47.88286" lon="7.17515">
        <ele>557.59997558594</ele>
        <time>2021-07-11T10:17:03.000Z</time>
      </trkpt>
      <trkpt lat="47.88286" lon="7.17521">
        <ele>556.59997558594</ele>
        <time>2021-07-11T10:17:04.000Z</time>
      </trkpt>
      <trkpt lat="47.88286" lon="7.17524">
        <ele>555.59997558594</ele>
        <time>2021-07-11T10:17:05.000Z</time>
      </trkpt>
      <trkpt lat="47.88286" lon="7.17528">
        <ele>554.40002441406</ele>
        <time>2021-07-11T10:17:06.000Z</time>
      </trkpt>
      <trkpt lat="47.88287" lon="7.17531">
        <ele>553.40002441406</ele>
        <time>2021-07-11T10:17:07.000Z</time>
      </trkpt>
      <trkpt lat="47.88287" lon="7.17533">
        <ele>552.40002441406</ele>
        <time>2021-07-11T10:17:08.000Z</time>
      </trkpt>
      <trkpt lat="47.88288" lon="7.17533">
        <ele>551.40002441406</ele>
        <time>2021-07-11T10:17:09.000Z</time>
      </trkpt>
      <trkpt lat="47.88288" lon="7.17534">
        <ele>550.20001220703</ele>
        <time>2021-07-11T10:17:10.000Z</time>
      </trkpt>
      <trkpt lat="47.88285" lon="7.17542">
        <ele>548.20001220703</ele>
        <time>2021-07-11T10:17:31.000Z</time>
      </trkpt>
      <trkpt lat="47.88285" lon="7.17544">
        <ele>547.79998779297</ele>
        <time>2021-07-11T10:17:32.000Z</time>
      </trkpt>
      <trkpt lat="47.88285" lon="7.17545">
        <ele>547.20001220703</ele>
        <time>2021-07-11T10:17:33.000Z</time>
      </trkpt>
      <trkpt lat="47.88284" lon="7.17556">
        <ele>545.20001220703</ele>
        <time>2021-07-11T10:17:39.000Z</time>
      </trkpt>
      <trkpt lat="47.88283" lon="7.17558">
        <ele>544.79998779297</ele>
        <time>2021-07-11T10:17:40.000Z</time>
      </trkpt>
      <trkpt lat="47.88283" lon="7.17558">
        <ele>544.40002441406</ele>
        <time>2021-07-11T10:17:41.000Z</time>
      </trkpt>
      <trkpt lat="47.88282" lon="7.1756">
        <ele>543.79998779297</ele>
        <time>2021-07-11T10:17:42.000Z</time>
      </trkpt>
      <trkpt lat="47.88279" lon="7.17561">
        <ele>542.59997558594</ele>
        <time>2021-07-11T10:17:44.000Z</time>
      </trkpt>
      <trkpt lat="47.88279" lon="7.17563">
        <ele>542</ele>
        <time>2021-07-11T10:17:45.000Z</time>
      </trkpt>
      <trkpt lat="47.88278" lon="7.17565">
        <ele>541.20001220703</ele>
        <time>2021-07-11T10:17:46.000Z</time>
      </trkpt>
      <trkpt lat="47.88279" lon="7.17567">
        <ele>540.59997558594</ele>
        <time>2021-07-11T10:17:47.000Z</time>
      </trkpt>
      <trkpt lat="47.88279" lon="7.1757">
        <ele>539.79998779297</ele>
        <time>2021-07-11T10:17:48.000Z</time>
      </trkpt>
      <trkpt lat="47.88278" lon="7.17573">
        <ele>538.20001220703</ele>
        <time>2021-07-11T10:17:49.000Z</time>
      </trkpt>
      <trkpt lat="47.88278" lon="7.17575">
        <ele>537.59997558594</ele>
        <time>2021-07-11T10:17:50.000Z</time>
      </trkpt>
      <trkpt lat="47.88278" lon="7.17579">
        <ele>536.79998779297</ele>
        <time>2021-07-11T10:17:51.000Z</time>
      </trkpt>
      <trkpt lat="47.88278" lon="7.17582">
        <ele>536</ele>
        <time>2021-07-11T10:17:52.000Z</time>
      </trkpt>
      <trkpt lat="47.88278" lon="7.17584">
        <ele>535.20001220703</ele>
        <time>2021-07-11T10:17:53.000Z</time>
      </trkpt>
      <trkpt lat="47.88279" lon="7.17588">
        <ele>534.20001220703</ele>
        <time>2021-07-11T10:17:54.000Z</time>
      </trkpt>
      <trkpt lat="47.88279" lon="7.17591">
        <ele>533.40002441406</ele>
        <time>2021-07-11T10:17:55.000Z</time>
      </trkpt>
      <trkpt lat="47.8828" lon="7.17592">
        <ele>532.79998779297</ele>
        <time>2021-07-11T10:17:56.000Z</time>
      </trkpt>
      <trkpt lat="47.88281" lon="7.17594">
        <ele>532.20001220703</ele>
        <time>2021-07-11T10:17:57.000Z</time>
      </trkpt>
      <trkpt lat="47.88283" lon="7.17598">
        <ele>531.59997558594</ele>
        <time>2021-07-11T10:17:58.000Z</time>
      </trkpt>
      <trkpt lat="47.88283" lon="7.17602">
        <ele>531</ele>
        <time>2021-07-11T10:17:59.000Z</time>
      </trkpt>
      <trkpt lat="47.88283" lon="7.17606">
        <ele>530.20001220703</ele>
        <time>2021-07-11T10:18:00.000Z</time>
      </trkpt>
      <trkpt lat="47.88283" lon="7.17611">
        <ele>529.40002441406</ele>
        <time>2021-07-11T10:18:01.000Z</time>
      </trkpt>
      <trkpt lat="47.88283" lon="7.17614">
        <ele>528.59997558594</ele>
        <time>2021-07-11T10:18:02.000Z</time>
      </trkpt>
      <trkpt lat="47.88283" lon="7.17618">
        <ele>527.59997558594</ele>
        <time>2021-07-11T10:18:03.000Z</time>
      </trkpt>
      <trkpt lat="47.88282" lon="7.17623">
        <ele>526.79998779297</ele>
        <time>2021-07-11T10:18:04.000Z</time>
      </trkpt>
      <trkpt lat="47.88281" lon="7.17627">
        <ele>525.59997558594</ele>
        <time>2021-07-11T10:18:05.000Z</time>
      </trkpt>
      <trkpt lat="47.8828" lon="7.17631">
        <ele>524.40002441406</ele>
        <time>2021-07-11T10:18:06.000Z</time>
      </trkpt>
      <trkpt lat="47.8828" lon="7.17636">
        <ele>523.40002441406</ele>
        <time>2021-07-11T10:18:07.000Z</time>
      </trkpt>
      <trkpt lat="47.8828" lon="7.17639">
        <ele>522.20001220703</ele>
        <time>2021-07-11T10:18:08.000Z</time>
      </trkpt>
      <trkpt lat="47.8828" lon="7.17642">
        <ele>521</ele>
        <time>2021-07-11T10:18:09.000Z</time>
      </trkpt>
      <trkpt lat="47.8828" lon="7.17645">
        <ele>520</ele>
        <time>2021-07-11T10:18:10.000Z</time>
      </trkpt>
      <trkpt lat="47.88279" lon="7.17647">
        <ele>519</ele>
        <time>2021-07-11T10:18:11.000Z</time>
      </trkpt>
      <trkpt lat="47.88279" lon="7.17648">
        <ele>518</ele>
        <time>2021-07-11T10:18:12.000Z</time>
      </trkpt>
      <trkpt lat="47.88279" lon="7.17647">
        <ele>516</ele>
        <time>2021-07-11T10:18:13.000Z</time>
      </trkpt>
      <trkpt lat="47.88283" lon="7.17658">
        <ele>513.20001220703</ele>
        <time>2021-07-11T10:18:24.000Z</time>
      </trkpt>
      <trkpt lat="47.88284" lon="7.17662">
        <ele>512.59997558594</ele>
        <time>2021-07-11T10:18:25.000Z</time>
      </trkpt>
      <trkpt lat="47.88286" lon="7.17665">
        <ele>512</ele>
        <time>2021-07-11T10:18:26.000Z</time>
      </trkpt>
      <trkpt lat="47.88288" lon="7.17668">
        <ele>511.20001220703</ele>
        <time>2021-07-11T10:18:27.000Z</time>
      </trkpt>
      <trkpt lat="47.88289" lon="7.1767">
        <ele>510.39999389648</ele>
        <time>2021-07-11T10:18:28.000Z</time>
      </trkpt>
      <trkpt lat="47.8829" lon="7.17674">
        <ele>509.60000610352</ele>
        <time>2021-07-11T10:18:29.000Z</time>
      </trkpt>
      <trkpt lat="47.88291" lon="7.17676">
        <ele>508.60000610352</ele>
        <time>2021-07-11T10:18:30.000Z</time>
      </trkpt>
      <trkpt lat="47.88292" lon="7.17678">
        <ele>507.79998779297</ele>
        <time>2021-07-11T10:18:31.000Z</time>
      </trkpt>
      <trkpt lat="47.88293" lon="7.17679">
        <ele>506.79998779297</ele>
        <time>2021-07-11T10:18:32.000Z</time>
      </trkpt>
      <trkpt lat="47.88294" lon="7.1768">
        <ele>505.79998779297</ele>
        <time>2021-07-11T10:18:33.000Z</time>
      </trkpt>
      <trkpt lat="47.88296" lon="7.1768">
        <ele>505</ele>
        <time>2021-07-11T10:18:34.000Z</time>
      </trkpt>
      <trkpt lat="47.88296" lon="7.1768">
        <ele>504.20001220703</ele>
        <time>2021-07-11T10:18:35.000Z</time>
      </trkpt>
      <trkpt lat="47.88297" lon="7.1768">
        <ele>503.39999389648</ele>
        <time>2021-07-11T10:18:36.000Z</time>
      </trkpt>
      <trkpt lat="47.88298" lon="7.17681">
        <ele>502.60000610352</ele>
        <time>2021-07-11T10:18:37.000Z</time>
      </trkpt>
      <trkpt lat="47.88299" lon="7.17684">
        <ele>501.39999389648</ele>
        <time>2021-07-11T10:18:38.000Z</time>
      </trkpt>
      <trkpt lat="47.883" lon="7.17687">
        <ele>500.79998779297</ele>
        <time>2021-07-11T10:18:39.000Z</time>
      </trkpt>
      <trkpt lat="47.883" lon="7.1769">
        <ele>500.20001220703</ele>
        <time>2021-07-11T10:18:40.000Z</time>
      </trkpt>
      <trkpt lat="47.88301" lon="7.17694">
        <ele>499.60000610352</ele>
        <time>2021-07-11T10:18:41.000Z</time>
      </trkpt>
      <trkpt lat="47.88301" lon="7.17698">
        <ele>499.20001220703</ele>
        <time>2021-07-11T10:18:42.000Z</time>
      </trkpt>
      <trkpt lat="47.88301" lon="7.17701">
        <ele>498.60000610352</ele>
        <time>2021-07-11T10:18:43.000Z</time>
      </trkpt>
      <trkpt lat="47.88301" lon="7.17704">
        <ele>498.20001220703</ele>
        <time>2021-07-11T10:18:44.000Z</time>
      </trkpt>
      <trkpt lat="47.88302" lon="7.17705">
        <ele>497.79998779297</ele>
        <time>2021-07-11T10:18:45.000Z</time>
      </trkpt>
      <trkpt lat="47.88302" lon="7.17705">
        <ele>497.39999389648</ele>
        <time>2021-07-11T10:18:46.000Z</time>
      </trkpt>
      <trkpt lat="47.88303" lon="7.17705">
        <ele>497.39999389648</ele>
        <time>2021-07-11T10:18:47.000Z</time>
      </trkpt>
      <trkpt lat="47.88309" lon="7.17709">
        <ele>497.39999389648</ele>
        <time>2021-07-11T10:19:42.000Z</time>
      </trkpt>
      <trkpt lat="47.88313" lon="7.17715">
        <ele>497.39999389648</ele>
        <time>2021-07-11T10:19:44.000Z</time>
      </trkpt>
      <trkpt lat="47.88317" lon="7.17733">
        <ele>496.79998779297</ele>
        <time>2021-07-11T10:19:47.000Z</time>
      </trkpt>
      <trkpt lat="47.88318" lon="7.1774">
        <ele>496.39999389648</ele>
        <time>2021-07-11T10:19:48.000Z</time>
      </trkpt>
      <trkpt lat="47.88319" lon="7.17748">
        <ele>495.79998779297</ele>
        <time>2021-07-11T10:19:49.000Z</time>
      </trkpt>
      <trkpt lat="47.88321" lon="7.17756">
        <ele>495.39999389648</ele>
        <time>2021-07-11T10:19:50.000Z</time>
      </trkpt>
      <trkpt lat="47.88322" lon="7.17765">
        <ele>495</ele>
        <time>2021-07-11T10:19:51.000Z</time>
      </trkpt>
      <trkpt lat="47.88324" lon="7.17773">
        <ele>495</ele>
        <time>2021-07-11T10:19:52.000Z</time>
      </trkpt>
      <trkpt lat="47.88326" lon="7.17782">
        <ele>494</ele>
        <time>2021-07-11T10:19:53.000Z</time>
      </trkpt>
      <trkpt lat="47.8833" lon="7.1779">
        <ele>493.60000610352</ele>
        <time>2021-07-11T10:19:54.000Z</time>
      </trkpt>
      <trkpt lat="47.88334" lon="7.17799">
        <ele>493.20001220703</ele>
        <time>2021-07-11T10:19:55.000Z</time>
      </trkpt>
      <trkpt lat="47.88338" lon="7.17807">
        <ele>492.79998779297</ele>
        <time>2021-07-11T10:19:56.000Z</time>
      </trkpt>
      <trkpt lat="47.88342" lon="7.17815">
        <ele>492.20001220703</ele>
        <time>2021-07-11T10:19:57.000Z</time>
      </trkpt>
      <trkpt lat="47.88346" lon="7.17823">
        <ele>491.79998779297</ele>
        <time>2021-07-11T10:19:58.000Z</time>
      </trkpt>
      <trkpt lat="47.88351" lon="7.17833">
        <ele>491.20001220703</ele>
        <time>2021-07-11T10:19:59.000Z</time>
      </trkpt>
      <trkpt lat="47.88355" lon="7.17842">
        <ele>490.79998779297</ele>
        <time>2021-07-11T10:20:00.000Z</time>
      </trkpt>
      <trkpt lat="47.88362" lon="7.17855">
        <ele>490.20001220703</ele>
        <time>2021-07-11T10:20:01.000Z</time>
      </trkpt>
      <trkpt lat="47.88367" lon="7.17865">
        <ele>489.79998779297</ele>
        <time>2021-07-11T10:20:02.000Z</time>
      </trkpt>
      <trkpt lat="47.88372" lon="7.17872">
        <ele>489.39999389648</ele>
        <time>2021-07-11T10:20:03.000Z</time>
      </trkpt>
      <trkpt lat="47.88377" lon="7.17879">
        <ele>489</ele>
        <time>2021-07-11T10:20:04.000Z</time>
      </trkpt>
      <trkpt lat="47.88382" lon="7.17886">
        <ele>488.39999389648</ele>
        <time>2021-07-11T10:20:05.000Z</time>
      </trkpt>
      <trkpt lat="47.88387" lon="7.17894">
        <ele>488</ele>
        <time>2021-07-11T10:20:06.000Z</time>
      </trkpt>
      <trkpt lat="47.88392" lon="7.17901">
        <ele>487.60000610352</ele>
        <time>2021-07-11T10:20:07.000Z</time>
      </trkpt>
      <trkpt lat="47.88396" lon="7.17909">
        <ele>487.20001220703</ele>
        <time>2021-07-11T10:20:08.000Z</time>
      </trkpt>
      <trkpt lat="47.88401" lon="7.17917">
        <ele>486.60000610352</ele>
        <time>2021-07-11T10:20:09.000Z</time>
      </trkpt>
      <trkpt lat="47.88407" lon="7.17924">
        <ele>486.20001220703</ele>
        <time>2021-07-11T10:20:10.000Z</time>
      </trkpt>
      <trkpt lat="47.88413" lon="7.17931">
        <ele>485.79998779297</ele>
        <time>2021-07-11T10:20:11.000Z</time>
      </trkpt>
      <trkpt lat="47.8842" lon="7.17939">
        <ele>485.20001220703</ele>
        <time>2021-07-11T10:20:12.000Z</time>
      </trkpt>
      <trkpt lat="47.88426" lon="7.17945">
        <ele>484.79998779297</ele>
        <time>2021-07-11T10:20:13.000Z</time>
      </trkpt>
      <trkpt lat="47.88433" lon="7.17951">
        <ele>484.20001220703</ele>
        <time>2021-07-11T10:20:14.000Z</time>
      </trkpt>
      <trkpt lat="47.88439" lon="7.17957">
        <ele>483.79998779297</ele>
        <time>2021-07-11T10:20:15.000Z</time>
      </trkpt>
      <trkpt lat="47.88446" lon="7.17962">
        <ele>483.20001220703</ele>
        <time>2021-07-11T10:20:16.000Z</time>
      </trkpt>
      <trkpt lat="47.88451" lon="7.17968">
        <ele>482.20001220703</ele>
        <time>2021-07-11T10:20:17.000Z</time>
      </trkpt>
      <trkpt lat="47.88457" lon="7.17974">
        <ele>481.60000610352</ele>
        <time>2021-07-11T10:20:18.000Z</time>
      </trkpt>
      <trkpt lat="47.88463" lon="7.17978">
        <ele>481.20001220703</ele>
        <time>2021-07-11T10:20:19.000Z</time>
      </trkpt>
      <trkpt lat="47.88468" lon="7.1798">
        <ele>481.20001220703</ele>
        <time>2021-07-11T10:20:20.000Z</time>
      </trkpt>
      <trkpt lat="47.88474" lon="7.17982">
        <ele>480.79998779297</ele>
        <time>2021-07-11T10:20:21.000Z</time>
      </trkpt>
      <trkpt lat="47.88481" lon="7.17982">
        <ele>480.39999389648</ele>
        <time>2021-07-11T10:20:22.000Z</time>
      </trkpt>
      <trkpt lat="47.88488" lon="7.17981">
        <ele>480</ele>
        <time>2021-07-11T10:20:23.000Z</time>
      </trkpt>
      <trkpt lat="47.88494" lon="7.17979">
        <ele>479.60000610352</ele>
        <time>2021-07-11T10:20:24.000Z</time>
      </trkpt>
      <trkpt lat="47.88501" lon="7.17978">
        <ele>479.20001220703</ele>
        <time>2021-07-11T10:20:25.000Z</time>
      </trkpt>
      <trkpt lat="47.88508" lon="7.17977">
        <ele>478.79998779297</ele>
        <time>2021-07-11T10:20:26.000Z</time>
      </trkpt>
      <trkpt lat="47.88515" lon="7.17979">
        <ele>478.39999389648</ele>
        <time>2021-07-11T10:20:27.000Z</time>
      </trkpt>
      <trkpt lat="47.88521" lon="7.17983">
        <ele>477.79998779297</ele>
        <time>2021-07-11T10:20:28.000Z</time>
      </trkpt>
      <trkpt lat="47.88527" lon="7.17988">
        <ele>477.39999389648</ele>
        <time>2021-07-11T10:20:29.000Z</time>
      </trkpt>
      <trkpt lat="47.88531" lon="7.17996">
        <ele>477</ele>
        <time>2021-07-11T10:20:30.000Z</time>
      </trkpt>
      <trkpt lat="47.88535" lon="7.18005">
        <ele>477</ele>
        <time>2021-07-11T10:20:31.000Z</time>
      </trkpt>
      <trkpt lat="47.88542" lon="7.18026">
        <ele>476.60000610352</ele>
        <time>2021-07-11T10:20:33.000Z</time>
      </trkpt>
      <trkpt lat="47.88545" lon="7.18038">
        <ele>476.20001220703</ele>
        <time>2021-07-11T10:20:34.000Z</time>
      </trkpt>
      <trkpt lat="47.88548" lon="7.18051">
        <ele>475.60000610352</ele>
        <time>2021-07-11T10:20:35.000Z</time>
      </trkpt>
      <trkpt lat="47.88551" lon="7.18064">
        <ele>475</ele>
        <time>2021-07-11T10:20:36.000Z</time>
      </trkpt>
      <trkpt lat="47.88555" lon="7.18077">
        <ele>474.39999389648</ele>
        <time>2021-07-11T10:20:37.000Z</time>
      </trkpt>
      <trkpt lat="47.88559" lon="7.1809">
        <ele>473.60000610352</ele>
        <time>2021-07-11T10:20:38.000Z</time>
      </trkpt>
      <trkpt lat="47.88563" lon="7.18102">
        <ele>473</ele>
        <time>2021-07-11T10:20:39.000Z</time>
      </trkpt>
      <trkpt lat="47.88568" lon="7.18115">
        <ele>472.20001220703</ele>
        <time>2021-07-11T10:20:40.000Z</time>
      </trkpt>
      <trkpt lat="47.88573" lon="7.18127">
        <ele>471.39999389648</ele>
        <time>2021-07-11T10:20:41.000Z</time>
      </trkpt>
      <trkpt lat="47.88578" lon="7.18139">
        <ele>470.60000610352</ele>
        <time>2021-07-11T10:20:42.000Z</time>
      </trkpt>
      <trkpt lat="47.88585" lon="7.18148">
        <ele>469.20001220703</ele>
        <time>2021-07-11T10:20:43.000Z</time>
      </trkpt>
      <trkpt lat="47.8859" lon="7.18157">
        <ele>468.60000610352</ele>
        <time>2021-07-11T10:20:44.000Z</time>
      </trkpt>
      <trkpt lat="47.88596" lon="7.18164">
        <ele>468</ele>
        <time>2021-07-11T10:20:45.000Z</time>
      </trkpt>
      <trkpt lat="47.88598" lon="7.18167">
        <ele>467.20001220703</ele>
        <time>2021-07-11T10:20:46.000Z</time>
      </trkpt>
      <trkpt lat="47.88599" lon="7.18168">
        <ele>467.20001220703</ele>
        <time>2021-07-11T10:20:47.000Z</time>
      </trkpt>
      <trkpt lat="47.88601" lon="7.18168">
        <ele>467.20001220703</ele>
        <time>2021-07-11T10:20:51.000Z</time>
      </trkpt>
      <trkpt lat="47.88594" lon="7.18163">
        <ele>465</ele>
        <time>2021-07-11T10:21:19.000Z</time>
      </trkpt>
      <trkpt lat="47.88581" lon="7.18165">
        <ele>465</ele>
        <time>2021-07-11T10:21:23.000Z</time>
      </trkpt>
      <trkpt lat="47.8856" lon="7.18172">
        <ele>464.60000610352</ele>
        <time>2021-07-11T10:21:27.000Z</time>
      </trkpt>
      <trkpt lat="47.88554" lon="7.18173">
        <ele>464.20001220703</ele>
        <time>2021-07-11T10:21:28.000Z</time>
      </trkpt>
      <trkpt lat="47.88547" lon="7.18174">
        <ele>463.79998779297</ele>
        <time>2021-07-11T10:21:29.000Z</time>
      </trkpt>
      <trkpt lat="47.8854" lon="7.18176">
        <ele>463.39999389648</ele>
        <time>2021-07-11T10:21:30.000Z</time>
      </trkpt>
      <trkpt lat="47.88533" lon="7.18177">
        <ele>463</ele>
        <time>2021-07-11T10:21:31.000Z</time>
      </trkpt>
      <trkpt lat="47.88526" lon="7.18177">
        <ele>462.39999389648</ele>
        <time>2021-07-11T10:21:32.000Z</time>
      </trkpt>
      <trkpt lat="47.88518" lon="7.18177">
        <ele>462</ele>
        <time>2021-07-11T10:21:33.000Z</time>
      </trkpt>
      <trkpt lat="47.8851" lon="7.18177">
        <ele>461.39999389648</ele>
        <time>2021-07-11T10:21:34.000Z</time>
      </trkpt>
      <trkpt lat="47.88502" lon="7.18177">
        <ele>460.39999389648</ele>
        <time>2021-07-11T10:21:35.000Z</time>
      </trkpt>
      <trkpt lat="47.88493" lon="7.18177">
        <ele>459.79998779297</ele>
        <time>2021-07-11T10:21:36.000Z</time>
      </trkpt>
      <trkpt lat="47.88484" lon="7.18177">
        <ele>459</ele>
        <time>2021-07-11T10:21:37.000Z</time>
      </trkpt>
      <trkpt lat="47.88474" lon="7.18176">
        <ele>458.39999389648</ele>
        <time>2021-07-11T10:21:38.000Z</time>
      </trkpt>
      <trkpt lat="47.88464" lon="7.18175">
        <ele>458</ele>
        <time>2021-07-11T10:21:39.000Z</time>
      </trkpt>
      <trkpt lat="47.88455" lon="7.18173">
        <ele>457.39999389648</ele>
        <time>2021-07-11T10:21:40.000Z</time>
      </trkpt>
      <trkpt lat="47.88446" lon="7.18172">
        <ele>456.79998779297</ele>
        <time>2021-07-11T10:21:41.000Z</time>
      </trkpt>
      <trkpt lat="47.88436" lon="7.18172">
        <ele>456.20001220703</ele>
        <time>2021-07-11T10:21:42.000Z</time>
      </trkpt>
      <trkpt lat="47.88426" lon="7.18171">
        <ele>455.60000610352</ele>
        <time>2021-07-11T10:21:43.000Z</time>
      </trkpt>
      <trkpt lat="47.88416" lon="7.18172">
        <ele>454.79998779297</ele>
        <time>2021-07-11T10:21:44.000Z</time>
      </trkpt>
      <trkpt lat="47.88405" lon="7.18174">
        <ele>454.20001220703</ele>
        <time>2021-07-11T10:21:45.000Z</time>
      </trkpt>
      <trkpt lat="47.88395" lon="7.18176">
        <ele>453.39999389648</ele>
        <time>2021-07-11T10:21:46.000Z</time>
      </trkpt>
      <trkpt lat="47.88385" lon="7.18177">
        <ele>452.79998779297</ele>
        <time>2021-07-11T10:21:47.000Z</time>
      </trkpt>
      <trkpt lat="47.88374" lon="7.1818">
        <ele>452</ele>
        <time>2021-07-11T10:21:48.000Z</time>
      </trkpt>
      <trkpt lat="47.88364" lon="7.18183">
        <ele>451.20001220703</ele>
        <time>2021-07-11T10:21:49.000Z</time>
      </trkpt>
      <trkpt lat="47.88353" lon="7.18186">
        <ele>450.39999389648</ele>
        <time>2021-07-11T10:21:50.000Z</time>
      </trkpt>
      <trkpt lat="47.88342" lon="7.18188">
        <ele>449.39999389648</ele>
        <time>2021-07-11T10:21:51.000Z</time>
      </trkpt>
      <trkpt lat="47.88331" lon="7.18191">
        <ele>448.60000610352</ele>
        <time>2021-07-11T10:21:52.000Z</time>
      </trkpt>
      <trkpt lat="47.8832" lon="7.18196">
        <ele>447.60000610352</ele>
        <time>2021-07-11T10:21:53.000Z</time>
      </trkpt>
      <trkpt lat="47.88309" lon="7.18201">
        <ele>446.79998779297</ele>
        <time>2021-07-11T10:21:54.000Z</time>
      </trkpt>
      <trkpt lat="47.88298" lon="7.18206">
        <ele>445.79998779297</ele>
        <time>2021-07-11T10:21:55.000Z</time>
      </trkpt>
      <trkpt lat="47.88288" lon="7.18212">
        <ele>445</ele>
        <time>2021-07-11T10:21:56.000Z</time>
      </trkpt>
      <trkpt lat="47.88277" lon="7.18218">
        <ele>444.20001220703</ele>
        <time>2021-07-11T10:21:57.000Z</time>
      </trkpt>
      <trkpt lat="47.88266" lon="7.18224">
        <ele>443.39999389648</ele>
        <time>2021-07-11T10:21:58.000Z</time>
      </trkpt>
      <trkpt lat="47.88256" lon="7.18229">
        <ele>442.39999389648</ele>
        <time>2021-07-11T10:21:59.000Z</time>
      </trkpt>
      <trkpt lat="47.88247" lon="7.18232">
        <ele>440.39999389648</ele>
        <time>2021-07-11T10:22:00.000Z</time>
      </trkpt>
      <trkpt lat="47.88238" lon="7.18234">
        <ele>439.60000610352</ele>
        <time>2021-07-11T10:22:01.000Z</time>
      </trkpt>
      <trkpt lat="47.88229" lon="7.18235">
        <ele>438.60000610352</ele>
        <time>2021-07-11T10:22:02.000Z</time>
      </trkpt>
      <trkpt lat="47.8822" lon="7.18235">
        <ele>437.79998779297</ele>
        <time>2021-07-11T10:22:03.000Z</time>
      </trkpt>
      <trkpt lat="47.88211" lon="7.18235">
        <ele>437</ele>
        <time>2021-07-11T10:22:04.000Z</time>
      </trkpt>
      <trkpt lat="47.88202" lon="7.18234">
        <ele>436.20001220703</ele>
        <time>2021-07-11T10:22:05.000Z</time>
      </trkpt>
      <trkpt lat="47.88195" lon="7.18237">
        <ele>435.39999389648</ele>
        <time>2021-07-11T10:22:06.000Z</time>
      </trkpt>
      <trkpt lat="47.88187" lon="7.1824">
        <ele>434.60000610352</ele>
        <time>2021-07-11T10:22:07.000Z</time>
      </trkpt>
      <trkpt lat="47.88179" lon="7.18244">
        <ele>433.79998779297</ele>
        <time>2021-07-11T10:22:08.000Z</time>
      </trkpt>
      <trkpt lat="47.88172" lon="7.18249">
        <ele>432.79998779297</ele>
        <time>2021-07-11T10:22:09.000Z</time>
      </trkpt>
      <trkpt lat="47.88165" lon="7.18255">
        <ele>432</ele>
        <time>2021-07-11T10:22:10.000Z</time>
      </trkpt>
      <trkpt lat="47.88157" lon="7.18261">
        <ele>431.39999389648</ele>
        <time>2021-07-11T10:22:11.000Z</time>
      </trkpt>
      <trkpt lat="47.8815" lon="7.18266">
        <ele>430.60000610352</ele>
        <time>2021-07-11T10:22:12.000Z</time>
      </trkpt>
      <trkpt lat="47.88145" lon="7.18271">
        <ele>430</ele>
        <time>2021-07-11T10:22:13.000Z</time>
      </trkpt>
      <trkpt lat="47.8814" lon="7.18278">
        <ele>429.20001220703</ele>
        <time>2021-07-11T10:22:14.000Z</time>
      </trkpt>
      <trkpt lat="47.88137" lon="7.18286">
        <ele>428.60000610352</ele>
        <time>2021-07-11T10:22:15.000Z</time>
      </trkpt>
      <trkpt lat="47.88134" lon="7.18295">
        <ele>427.60000610352</ele>
        <time>2021-07-11T10:22:16.000Z</time>
      </trkpt>
      <trkpt lat="47.88133" lon="7.18306">
        <ele>426.79998779297</ele>
        <time>2021-07-11T10:22:17.000Z</time>
      </trkpt>
      <trkpt lat="47.88135" lon="7.18319">
        <ele>425.79998779297</ele>
        <time>2021-07-11T10:22:18.000Z</time>
      </trkpt>
      <trkpt lat="47.88136" lon="7.18332">
        <ele>424.79998779297</ele>
        <time>2021-07-11T10:22:19.000Z</time>
      </trkpt>
      <trkpt lat="47.88138" lon="7.18346">
        <ele>424</ele>
        <time>2021-07-11T10:22:20.000Z</time>
      </trkpt>
      <trkpt lat="47.88141" lon="7.18361">
        <ele>423</ele>
        <time>2021-07-11T10:22:21.000Z</time>
      </trkpt>
      <trkpt lat="47.88143" lon="7.18373">
        <ele>422.20001220703</ele>
        <time>2021-07-11T10:22:22.000Z</time>
      </trkpt>
      <trkpt lat="47.88144" lon="7.18386">
        <ele>421.20001220703</ele>
        <time>2021-07-11T10:22:23.000Z</time>
      </trkpt>
      <trkpt lat="47.88144" lon="7.18396">
        <ele>419.20001220703</ele>
        <time>2021-07-11T10:22:24.000Z</time>
      </trkpt>
      <trkpt lat="47.88145" lon="7.18403">
        <ele>418.39999389648</ele>
        <time>2021-07-11T10:22:25.000Z</time>
      </trkpt>
      <trkpt lat="47.88145" lon="7.1841">
        <ele>417.60000610352</ele>
        <time>2021-07-11T10:22:26.000Z</time>
      </trkpt>
      <trkpt lat="47.88145" lon="7.18416">
        <ele>416.79998779297</ele>
        <time>2021-07-11T10:22:27.000Z</time>
      </trkpt>
      <trkpt lat="47.88145" lon="7.18422">
        <ele>416</ele>
        <time>2021-07-11T10:22:28.000Z</time>
      </trkpt>
      <trkpt lat="47.88145" lon="7.18429">
        <ele>415.20001220703</ele>
        <time>2021-07-11T10:22:29.000Z</time>
      </trkpt>
      <trkpt lat="47.88145" lon="7.18442">
        <ele>414.79998779297</ele>
        <time>2021-07-11T10:22:31.000Z</time>
      </trkpt>
      <trkpt lat="47.88145" lon="7.18451">
        <ele>414.20001220703</ele>
        <time>2021-07-11T10:22:32.000Z</time>
      </trkpt>
      <trkpt lat="47.88145" lon="7.1846">
        <ele>413.79998779297</ele>
        <time>2021-07-11T10:22:33.000Z</time>
      </trkpt>
      <trkpt lat="47.88146" lon="7.18469">
        <ele>413.39999389648</ele>
        <time>2021-07-11T10:22:34.000Z</time>
      </trkpt>
      <trkpt lat="47.88146" lon="7.18479">
        <ele>412.79998779297</ele>
        <time>2021-07-11T10:22:35.000Z</time>
      </trkpt>
      <trkpt lat="47.88146" lon="7.1849">
        <ele>412.39999389648</ele>
        <time>2021-07-11T10:22:36.000Z</time>
      </trkpt>
      <trkpt lat="47.88147" lon="7.18502">
        <ele>411.79998779297</ele>
        <time>2021-07-11T10:22:37.000Z</time>
      </trkpt>
      <trkpt lat="47.88148" lon="7.18515">
        <ele>411.20001220703</ele>
        <time>2021-07-11T10:22:38.000Z</time>
      </trkpt>
      <trkpt lat="47.88149" lon="7.18528">
        <ele>410.60000610352</ele>
        <time>2021-07-11T10:22:39.000Z</time>
      </trkpt>
      <trkpt lat="47.8815" lon="7.18539">
        <ele>410</ele>
        <time>2021-07-11T10:22:40.000Z</time>
      </trkpt>
      <trkpt lat="47.88152" lon="7.18552">
        <ele>409.39999389648</ele>
        <time>2021-07-11T10:22:41.000Z</time>
      </trkpt>
      <trkpt lat="47.88154" lon="7.18564">
        <ele>408.79998779297</ele>
        <time>2021-07-11T10:22:42.000Z</time>
      </trkpt>
      <trkpt lat="47.88156" lon="7.18575">
        <ele>408.20001220703</ele>
        <time>2021-07-11T10:22:43.000Z</time>
      </trkpt>
      <trkpt lat="47.88159" lon="7.18586">
        <ele>407.39999389648</ele>
        <time>2021-07-11T10:22:44.000Z</time>
      </trkpt>
      <trkpt lat="47.88162" lon="7.18595">
        <ele>406.79998779297</ele>
        <time>2021-07-11T10:22:45.000Z</time>
      </trkpt>
      <trkpt lat="47.88165" lon="7.18603">
        <ele>406</ele>
        <time>2021-07-11T10:22:46.000Z</time>
      </trkpt>
      <trkpt lat="47.88166" lon="7.18609">
        <ele>405.39999389648</ele>
        <time>2021-07-11T10:22:47.000Z</time>
      </trkpt>
      <trkpt lat="47.88167" lon="7.18612">
        <ele>404.20001220703</ele>
        <time>2021-07-11T10:22:48.000Z</time>
      </trkpt>
      <trkpt lat="47.88167" lon="7.18613">
        <ele>403.60000610352</ele>
        <time>2021-07-11T10:22:49.000Z</time>
      </trkpt>
      <trkpt lat="47.88166" lon="7.18614">
        <ele>403</ele>
        <time>2021-07-11T10:22:50.000Z</time>
      </trkpt>
      <trkpt lat="47.88164" lon="7.18615">
        <ele>402.39999389648</ele>
        <time>2021-07-11T10:22:51.000Z</time>
      </trkpt>
      <trkpt lat="47.88163" lon="7.18616">
        <ele>402</ele>
        <time>2021-07-11T10:22:52.000Z</time>
      </trkpt>
      <trkpt lat="47.88156" lon="7.18613">
        <ele>402</ele>
        <time>2021-07-11T10:22:55.000Z</time>
      </trkpt>
      <trkpt lat="47.88154" lon="7.18613">
        <ele>402</ele>
        <time>2021-07-11T10:22:56.000Z</time>
      </trkpt>
      <trkpt lat="47.8814" lon="7.18612">
        <ele>401.39999389648</ele>
        <time>2021-07-11T10:23:02.000Z</time>
      </trkpt>
      <trkpt lat="47.88136" lon="7.18613">
        <ele>401</ele>
        <time>2021-07-11T10:23:03.000Z</time>
      </trkpt>
      <trkpt lat="47.88132" lon="7.18613">
        <ele>400.60000610352</ele>
        <time>2021-07-11T10:23:04.000Z</time>
      </trkpt>
      <trkpt lat="47.88128" lon="7.18613">
        <ele>400</ele>
        <time>2021-07-11T10:23:05.000Z</time>
      </trkpt>
      <trkpt lat="47.88123" lon="7.18613">
        <ele>399.60000610352</ele>
        <time>2021-07-11T10:23:06.000Z</time>
      </trkpt>
      <trkpt lat="47.88115" lon="7.18613">
        <ele>399.60000610352</ele>
        <time>2021-07-11T10:23:08.000Z</time>
      </trkpt>
      <trkpt lat="47.88112" lon="7.18614">
        <ele>399.20001220703</ele>
        <time>2021-07-11T10:23:09.000Z</time>
      </trkpt>
      <trkpt lat="47.88111" lon="7.18616">
        <ele>398.79998779297</ele>
        <time>2021-07-11T10:23:10.000Z</time>
      </trkpt>
      <trkpt lat="47.88111" lon="7.18618">
        <ele>398.39999389648</ele>
        <time>2021-07-11T10:23:11.000Z</time>
      </trkpt>
      <trkpt lat="47.88111" lon="7.18621">
        <ele>398</ele>
        <time>2021-07-11T10:23:12.000Z</time>
      </trkpt>
      <trkpt lat="47.8811" lon="7.18624">
        <ele>397.20001220703</ele>
        <time>2021-07-11T10:23:13.000Z</time>
      </trkpt>
      <trkpt lat="47.88111" lon="7.18628">
        <ele>396.79998779297</ele>
        <time>2021-07-11T10:23:14.000Z</time>
      </trkpt>
      <trkpt lat="47.88112" lon="7.18636">
        <ele>396.39999389648</ele>
        <time>2021-07-11T10:23:15.000Z</time>
      </trkpt>
      <trkpt lat="47.88113" lon="7.18642">
        <ele>396</ele>
        <time>2021-07-11T10:23:16.000Z</time>
      </trkpt>
      <trkpt lat="47.88114" lon="7.18648">
        <ele>395.39999389648</ele>
        <time>2021-07-11T10:23:17.000Z</time>
      </trkpt>
      <trkpt lat="47.88115" lon="7.18655">
        <ele>395</ele>
        <time>2021-07-11T10:23:18.000Z</time>
      </trkpt>
      <trkpt lat="47.88116" lon="7.18662">
        <ele>394.39999389648</ele>
        <time>2021-07-11T10:23:19.000Z</time>
      </trkpt>
      <trkpt lat="47.88115" lon="7.18681">
        <ele>394</ele>
        <time>2021-07-11T10:23:20.000Z</time>
      </trkpt>
      <trkpt lat="47.88114" lon="7.18699">
        <ele>393.39999389648</ele>
        <time>2021-07-11T10:23:21.000Z</time>
      </trkpt>
      <trkpt lat="47.88115" lon="7.18712">
        <ele>393</ele>
        <time>2021-07-11T10:23:22.000Z</time>
      </trkpt>
      <trkpt lat="47.88117" lon="7.18723">
        <ele>392.60000610352</ele>
        <time>2021-07-11T10:23:23.000Z</time>
      </trkpt>
      <trkpt lat="47.88119" lon="7.18734">
        <ele>392</ele>
        <time>2021-07-11T10:23:24.000Z</time>
      </trkpt>
      <trkpt lat="47.88122" lon="7.18745">
        <ele>391.60000610352</ele>
        <time>2021-07-11T10:23:25.000Z</time>
      </trkpt>
      <trkpt lat="47.88126" lon="7.18755">
        <ele>391</ele>
        <time>2021-07-11T10:23:26.000Z</time>
      </trkpt>
      <trkpt lat="47.88132" lon="7.18762">
        <ele>390.60000610352</ele>
        <time>2021-07-11T10:23:27.000Z</time>
      </trkpt>
      <trkpt lat="47.88138" lon="7.18768">
        <ele>390</ele>
        <time>2021-07-11T10:23:28.000Z</time>
      </trkpt>
      <trkpt lat="47.88145" lon="7.18774">
        <ele>389.60000610352</ele>
        <time>2021-07-11T10:23:29.000Z</time>
      </trkpt>
      <trkpt lat="47.88153" lon="7.18776">
        <ele>389</ele>
        <time>2021-07-11T10:23:30.000Z</time>
      </trkpt>
      <trkpt lat="47.8816" lon="7.18779">
        <ele>388.60000610352</ele>
        <time>2021-07-11T10:23:31.000Z</time>
      </trkpt>
      <trkpt lat="47.88167" lon="7.18781">
        <ele>388.20001220703</ele>
        <time>2021-07-11T10:23:32.000Z</time>
      </trkpt>
      <trkpt lat="47.88173" lon="7.18787">
        <ele>387.60000610352</ele>
        <time>2021-07-11T10:23:33.000Z</time>
      </trkpt>
      <trkpt lat="47.88178" lon="7.18794">
        <ele>387.20001220703</ele>
        <time>2021-07-11T10:23:34.000Z</time>
      </trkpt>
      <trkpt lat="47.88182" lon="7.18801">
        <ele>386.79998779297</ele>
        <time>2021-07-11T10:23:35.000Z</time>
      </trkpt>
      <trkpt lat="47.88181" lon="7.18816">
        <ele>385.79998779297</ele>
        <time>2021-07-11T10:23:37.000Z</time>
      </trkpt>
      <trkpt lat="47.88181" lon="7.18824">
        <ele>385.39999389648</ele>
        <time>2021-07-11T10:23:38.000Z</time>
      </trkpt>
      <trkpt lat="47.88177" lon="7.18829">
        <ele>384.79998779297</ele>
        <time>2021-07-11T10:23:39.000Z</time>
      </trkpt>
      <trkpt lat="47.88173" lon="7.18833">
        <ele>384.20001220703</ele>
        <time>2021-07-11T10:23:40.000Z</time>
      </trkpt>
      <trkpt lat="47.88169" lon="7.18834">
        <ele>383.79998779297</ele>
        <time>2021-07-11T10:23:41.000Z</time>
      </trkpt>
      <trkpt lat="47.88165" lon="7.18836">
        <ele>383.20001220703</ele>
        <time>2021-07-11T10:23:42.000Z</time>
      </trkpt>
      <trkpt lat="47.88162" lon="7.18841">
        <ele>382.60000610352</ele>
        <time>2021-07-11T10:23:43.000Z</time>
      </trkpt>
      <trkpt lat="47.88159" lon="7.18844">
        <ele>382.60000610352</ele>
        <time>2021-07-11T10:23:44.000Z</time>
      </trkpt>
      <trkpt lat="47.88154" lon="7.18863">
        <ele>382.60000610352</ele>
        <time>2021-07-11T10:23:47.000Z</time>
      </trkpt>
      <trkpt lat="47.88152" lon="7.18871">
        <ele>382</ele>
        <time>2021-07-11T10:23:48.000Z</time>
      </trkpt>
      <trkpt lat="47.88151" lon="7.18879">
        <ele>381.39999389648</ele>
        <time>2021-07-11T10:23:49.000Z</time>
      </trkpt>
      <trkpt lat="47.88148" lon="7.18884">
        <ele>380.79998779297</ele>
        <time>2021-07-11T10:23:50.000Z</time>
      </trkpt>
      <trkpt lat="47.88143" lon="7.18888">
        <ele>380.39999389648</ele>
        <time>2021-07-11T10:23:51.000Z</time>
      </trkpt>
      <trkpt lat="47.88137" lon="7.18892">
        <ele>379.79998779297</ele>
        <time>2021-07-11T10:23:52.000Z</time>
      </trkpt>
      <trkpt lat="47.88133" lon="7.18894">
        <ele>379.79998779297</ele>
        <time>2021-07-11T10:23:53.000Z</time>
      </trkpt>
      <trkpt lat="47.88123" lon="7.18904">
        <ele>379.39999389648</ele>
        <time>2021-07-11T10:23:55.000Z</time>
      </trkpt>
      <trkpt lat="47.88122" lon="7.18913">
        <ele>379</ele>
        <time>2021-07-11T10:23:56.000Z</time>
      </trkpt>
      <trkpt lat="47.88119" lon="7.18921">
        <ele>378.60000610352</ele>
        <time>2021-07-11T10:23:57.000Z</time>
      </trkpt>
      <trkpt lat="47.88114" lon="7.18927">
        <ele>378.20001220703</ele>
        <time>2021-07-11T10:23:58.000Z</time>
      </trkpt>
      <trkpt lat="47.8811" lon="7.18933">
        <ele>377.79998779297</ele>
        <time>2021-07-11T10:23:59.000Z</time>
      </trkpt>
      <trkpt lat="47.88101" lon="7.18947">
        <ele>377.20001220703</ele>
        <time>2021-07-11T10:24:01.000Z</time>
      </trkpt>
      <trkpt lat="47.88097" lon="7.18955">
        <ele>376.39999389648</ele>
        <time>2021-07-11T10:24:02.000Z</time>
      </trkpt>
      <trkpt lat="47.88092" lon="7.1896">
        <ele>376</ele>
        <time>2021-07-11T10:24:03.000Z</time>
      </trkpt>
      <trkpt lat="47.88087" lon="7.18966">
        <ele>375.60000610352</ele>
        <time>2021-07-11T10:24:04.000Z</time>
      </trkpt>
      <trkpt lat="47.88082" lon="7.18971">
        <ele>375.60000610352</ele>
        <time>2021-07-11T10:24:05.000Z</time>
      </trkpt>
      <trkpt lat="47.88077" lon="7.18975">
        <ele>375.60000610352</ele>
        <time>2021-07-11T10:24:06.000Z</time>
      </trkpt>
      <trkpt lat="47.88049" lon="7.19">
        <ele>375.60000610352</ele>
        <time>2021-07-11T10:24:12.000Z</time>
      </trkpt>
      <trkpt lat="47.88032" lon="7.19015">
        <ele>375.60000610352</ele>
        <time>2021-07-11T10:24:16.000Z</time>
      </trkpt>
      <trkpt lat="47.88026" lon="7.19021">
        <ele>375.60000610352</ele>
        <time>2021-07-11T10:24:18.000Z</time>
      </trkpt>
      <trkpt lat="47.88019" lon="7.19035">
        <ele>375.60000610352</ele>
        <time>2021-07-11T10:24:22.000Z</time>
      </trkpt>
      <trkpt lat="47.88018" lon="7.19043">
        <ele>375.60000610352</ele>
        <time>2021-07-11T10:24:26.000Z</time>
      </trkpt>
      <trkpt lat="47.88017" lon="7.19046">
        <ele>375.60000610352</ele>
        <time>2021-07-11T10:24:27.000Z</time>
      </trkpt>
      <trkpt lat="47.88014" lon="7.19056">
        <ele>375.60000610352</ele>
        <time>2021-07-11T10:24:30.000Z</time>
      </trkpt>
      <trkpt lat="47.8801" lon="7.19069">
        <ele>375.60000610352</ele>
        <time>2021-07-11T10:24:33.000Z</time>
      </trkpt>
      <trkpt lat="47.88007" lon="7.19078">
        <ele>375.60000610352</ele>
        <time>2021-07-11T10:24:36.000Z</time>
      </trkpt>
      <trkpt lat="47.88005" lon="7.19083">
        <ele>375.60000610352</ele>
        <time>2021-07-11T10:24:41.000Z</time>
      </trkpt>
      <trkpt lat="47.88002" lon="7.1909">
        <ele>375.60000610352</ele>
        <time>2021-07-11T10:24:53.000Z</time>
      </trkpt>
      <trkpt lat="47.87999" lon="7.19097">
        <ele>375.60000610352</ele>
        <time>2021-07-11T10:24:55.000Z</time>
      </trkpt>
      <trkpt lat="47.87993" lon="7.1912">
        <ele>375.60000610352</ele>
        <time>2021-07-11T10:25:00.000Z</time>
      </trkpt>
      <trkpt lat="47.87984" lon="7.19145">
        <ele>375.60000610352</ele>
        <time>2021-07-11T10:25:05.000Z</time>
      </trkpt>
      <trkpt lat="47.87982" lon="7.19151">
        <ele>375.60000610352</ele>
        <time>2021-07-11T10:25:06.000Z</time>
      </trkpt>
      <trkpt lat="47.87968" lon="7.19185">
        <ele>375.60000610352</ele>
        <time>2021-07-11T10:25:13.000Z</time>
      </trkpt>
      <trkpt lat="47.87963" lon="7.19196">
        <ele>376</ele>
        <time>2021-07-11T10:25:16.000Z</time>
      </trkpt>
      <trkpt lat="47.87961" lon="7.19198">
        <ele>377</ele>
        <time>2021-07-11T10:25:17.000Z</time>
      </trkpt>
      <trkpt lat="47.8796" lon="7.19202">
        <ele>377.39999389648</ele>
        <time>2021-07-11T10:25:18.000Z</time>
      </trkpt>
      <trkpt lat="47.87958" lon="7.19206">
        <ele>377.79998779297</ele>
        <time>2021-07-11T10:25:19.000Z</time>
      </trkpt>
      <trkpt lat="47.87957" lon="7.1921">
        <ele>377.79998779297</ele>
        <time>2021-07-11T10:25:20.000Z</time>
      </trkpt>
      <trkpt lat="47.8795" lon="7.19237">
        <ele>377.79998779297</ele>
        <time>2021-07-11T10:25:26.000Z</time>
      </trkpt>
      <trkpt lat="47.8795" lon="7.19245">
        <ele>378.20001220703</ele>
        <time>2021-07-11T10:25:28.000Z</time>
      </trkpt>
      <trkpt lat="47.8795" lon="7.19248">
        <ele>378.60000610352</ele>
        <time>2021-07-11T10:25:29.000Z</time>
      </trkpt>
      <trkpt lat="47.8795" lon="7.19249">
        <ele>379</ele>
        <time>2021-07-11T10:25:30.000Z</time>
      </trkpt>
      <trkpt lat="47.87949" lon="7.19251">
        <ele>379.39999389648</ele>
        <time>2021-07-11T10:25:31.000Z</time>
      </trkpt>
      <trkpt lat="47.87949" lon="7.19253">
        <ele>379.79998779297</ele>
        <time>2021-07-11T10:25:32.000Z</time>
      </trkpt>
      <trkpt lat="47.8795" lon="7.19255">
        <ele>379.79998779297</ele>
        <time>2021-07-11T10:25:33.000Z</time>
      </trkpt>
      <trkpt lat="47.87951" lon="7.1926">
        <ele>379.79998779297</ele>
        <time>2021-07-11T10:25:35.000Z</time>
      </trkpt>
      <trkpt lat="47.87951" lon="7.19265">
        <ele>379.79998779297</ele>
        <time>2021-07-11T10:25:37.000Z</time>
      </trkpt>
      <trkpt lat="47.87952" lon="7.19269">
        <ele>379.79998779297</ele>
        <time>2021-07-11T10:25:39.000Z</time>
      </trkpt>
      <trkpt lat="47.87956" lon="7.19276">
        <ele>379.79998779297</ele>
        <time>2021-07-11T10:25:43.000Z</time>
      </trkpt>
      <trkpt lat="47.87956" lon="7.19283">
        <ele>379.79998779297</ele>
        <time>2021-07-11T10:25:46.000Z</time>
      </trkpt>
      <trkpt lat="47.87956" lon="7.1929">
        <ele>379.79998779297</ele>
        <time>2021-07-11T10:25:48.000Z</time>
      </trkpt>
      <trkpt lat="47.87957" lon="7.19314">
        <ele>379.79998779297</ele>
        <time>2021-07-11T10:25:54.000Z</time>
      </trkpt>
      <trkpt lat="47.8796" lon="7.19337">
        <ele>379.79998779297</ele>
        <time>2021-07-11T10:26:00.000Z</time>
      </trkpt>
      <trkpt lat="47.87961" lon="7.19362">
        <ele>379.79998779297</ele>
        <time>2021-07-11T10:26:07.000Z</time>
      </trkpt>
      <trkpt lat="47.87962" lon="7.19365">
        <ele>379.79998779297</ele>
        <time>2021-07-11T10:26:11.000Z</time>
      </trkpt>
      <trkpt lat="47.87963" lon="7.19368">
        <ele>379.79998779297</ele>
        <time>2021-07-11T10:26:41.000Z</time>
      </trkpt>
      <trkpt lat="47.8797" lon="7.19374">
        <ele>379.79998779297</ele>
        <time>2021-07-11T10:26:43.000Z</time>
      </trkpt>
      <trkpt lat="47.87974" lon="7.19376">
        <ele>379.39999389648</ele>
        <time>2021-07-11T10:26:44.000Z</time>
      </trkpt>
      <trkpt lat="47.87977" lon="7.19378">
        <ele>379</ele>
        <time>2021-07-11T10:26:45.000Z</time>
      </trkpt>
      <trkpt lat="47.87981" lon="7.19377">
        <ele>378.60000610352</ele>
        <time>2021-07-11T10:26:46.000Z</time>
      </trkpt>
      <trkpt lat="47.87985" lon="7.19374">
        <ele>378</ele>
        <time>2021-07-11T10:26:47.000Z</time>
      </trkpt>
      <trkpt lat="47.87989" lon="7.19371">
        <ele>377.60000610352</ele>
        <time>2021-07-11T10:26:48.000Z</time>
      </trkpt>
      <trkpt lat="47.87993" lon="7.19369">
        <ele>377</ele>
        <time>2021-07-11T10:26:49.000Z</time>
      </trkpt>
      <trkpt lat="47.87999" lon="7.19368">
        <ele>376.60000610352</ele>
        <time>2021-07-11T10:26:50.000Z</time>
      </trkpt>
      <trkpt lat="47.88005" lon="7.19368">
        <ele>376</ele>
        <time>2021-07-11T10:26:51.000Z</time>
      </trkpt>
      <trkpt lat="47.8801" lon="7.19367">
        <ele>375.39999389648</ele>
        <time>2021-07-11T10:26:52.000Z</time>
      </trkpt>
      <trkpt lat="47.88016" lon="7.19366">
        <ele>374.60000610352</ele>
        <time>2021-07-11T10:26:53.000Z</time>
      </trkpt>
      <trkpt lat="47.88021" lon="7.19366">
        <ele>374</ele>
        <time>2021-07-11T10:26:54.000Z</time>
      </trkpt>
      <trkpt lat="47.88026" lon="7.19367">
        <ele>373.39999389648</ele>
        <time>2021-07-11T10:26:55.000Z</time>
      </trkpt>
      <trkpt lat="47.88031" lon="7.19367">
        <ele>372.79998779297</ele>
        <time>2021-07-11T10:26:56.000Z</time>
      </trkpt>
      <trkpt lat="47.88036" lon="7.19369">
        <ele>372</ele>
        <time>2021-07-11T10:26:57.000Z</time>
      </trkpt>
      <trkpt lat="47.88041" lon="7.1937">
        <ele>371.39999389648</ele>
        <time>2021-07-11T10:26:58.000Z</time>
      </trkpt>
      <trkpt lat="47.88047" lon="7.19371">
        <ele>370.20001220703</ele>
        <time>2021-07-11T10:26:59.000Z</time>
      </trkpt>
      <trkpt lat="47.88053" lon="7.19372">
        <ele>369.60000610352</ele>
        <time>2021-07-11T10:27:00.000Z</time>
      </trkpt>
      <trkpt lat="47.88059" lon="7.19374">
        <ele>369.20001220703</ele>
        <time>2021-07-11T10:27:01.000Z</time>
      </trkpt>
      <trkpt lat="47.88065" lon="7.19375">
        <ele>368.60000610352</ele>
        <time>2021-07-11T10:27:02.000Z</time>
      </trkpt>
      <trkpt lat="47.8807" lon="7.19376">
        <ele>368</ele>
        <time>2021-07-11T10:27:03.000Z</time>
      </trkpt>
      <trkpt lat="47.88075" lon="7.19377">
        <ele>367.39999389648</ele>
        <time>2021-07-11T10:27:04.000Z</time>
      </trkpt>
      <trkpt lat="47.8808" lon="7.19379">
        <ele>367</ele>
        <time>2021-07-11T10:27:05.000Z</time>
      </trkpt>
      <trkpt lat="47.88085" lon="7.19381">
        <ele>366.39999389648</ele>
        <time>2021-07-11T10:27:06.000Z</time>
      </trkpt>
      <trkpt lat="47.8809" lon="7.19383">
        <ele>365.79998779297</ele>
        <time>2021-07-11T10:27:07.000Z</time>
      </trkpt>
      <trkpt lat="47.88095" lon="7.19386">
        <ele>365.20001220703</ele>
        <time>2021-07-11T10:27:08.000Z</time>
      </trkpt>
      <trkpt lat="47.88101" lon="7.19389">
        <ele>364.60000610352</ele>
        <time>2021-07-11T10:27:09.000Z</time>
      </trkpt>
      <trkpt lat="47.88105" lon="7.19391">
        <ele>364</ele>
        <time>2021-07-11T10:27:10.000Z</time>
      </trkpt>
      <trkpt lat="47.88109" lon="7.19393">
        <ele>363.39999389648</ele>
        <time>2021-07-11T10:27:11.000Z</time>
      </trkpt>
      <trkpt lat="47.88114" lon="7.19394">
        <ele>362.39999389648</ele>
        <time>2021-07-11T10:27:12.000Z</time>
      </trkpt>
      <trkpt lat="47.8812" lon="7.19396">
        <ele>361.60000610352</ele>
        <time>2021-07-11T10:27:13.000Z</time>
      </trkpt>
      <trkpt lat="47.88125" lon="7.19401">
        <ele>360.60000610352</ele>
        <time>2021-07-11T10:27:14.000Z</time>
      </trkpt>
      <trkpt lat="47.88131" lon="7.19407">
        <ele>359.60000610352</ele>
        <time>2021-07-11T10:27:15.000Z</time>
      </trkpt>
      <trkpt lat="47.88136" lon="7.19412">
        <ele>358.79998779297</ele>
        <time>2021-07-11T10:27:16.000Z</time>
      </trkpt>
      <trkpt lat="47.88141" lon="7.19417">
        <ele>357.79998779297</ele>
        <time>2021-07-11T10:27:17.000Z</time>
      </trkpt>
      <trkpt lat="47.88145" lon="7.19423">
        <ele>357</ele>
        <time>2021-07-11T10:27:18.000Z</time>
      </trkpt>
      <trkpt lat="47.8815" lon="7.19428">
        <ele>356.20001220703</ele>
        <time>2021-07-11T10:27:19.000Z</time>
      </trkpt>
      <trkpt lat="47.88154" lon="7.19434">
        <ele>355.39999389648</ele>
        <time>2021-07-11T10:27:20.000Z</time>
      </trkpt>
      <trkpt lat="47.88158" lon="7.19442">
        <ele>354.60000610352</ele>
        <time>2021-07-11T10:27:21.000Z</time>
      </trkpt>
      <trkpt lat="47.88164" lon="7.19448">
        <ele>353.79998779297</ele>
        <time>2021-07-11T10:27:22.000Z</time>
      </trkpt>
      <trkpt lat="47.8817" lon="7.19454">
        <ele>352.20001220703</ele>
        <time>2021-07-11T10:27:23.000Z</time>
      </trkpt>
      <trkpt lat="47.88175" lon="7.19458">
        <ele>351.39999389648</ele>
        <time>2021-07-11T10:27:24.000Z</time>
      </trkpt>
      <trkpt lat="47.88182" lon="7.1946">
        <ele>350.60000610352</ele>
        <time>2021-07-11T10:27:25.000Z</time>
      </trkpt>
      <trkpt lat="47.88188" lon="7.19463">
        <ele>349.79998779297</ele>
        <time>2021-07-11T10:27:26.000Z</time>
      </trkpt>
      <trkpt lat="47.88194" lon="7.19464">
        <ele>349</ele>
        <time>2021-07-11T10:27:27.000Z</time>
      </trkpt>
      <trkpt lat="47.88199" lon="7.19464">
        <ele>349</ele>
        <time>2021-07-11T10:27:28.000Z</time>
      </trkpt>
      <trkpt lat="47.88207" lon="7.1946">
        <ele>349</ele>
        <time>2021-07-11T10:27:31.000Z</time>
      </trkpt>
      <trkpt lat="47.88208" lon="7.19459">
        <ele>349</ele>
        <time>2021-07-11T10:27:32.000Z</time>
      </trkpt>
      <trkpt lat="47.8821" lon="7.19459">
        <ele>349</ele>
        <time>2021-07-11T10:27:34.000Z</time>
      </trkpt>
      <trkpt lat="47.88208" lon="7.19458">
        <ele>349</ele>
        <time>2021-07-11T10:27:48.000Z</time>
      </trkpt>
      <trkpt lat="47.88207" lon="7.19459">
        <ele>349</ele>
        <time>2021-07-11T10:27:49.000Z</time>
      </trkpt>
      <trkpt lat="47.88202" lon="7.1946">
        <ele>348.60000610352</ele>
        <time>2021-07-11T10:27:52.000Z</time>
      </trkpt>
      <trkpt lat="47.88198" lon="7.19462">
        <ele>348.20001220703</ele>
        <time>2021-07-11T10:27:53.000Z</time>
      </trkpt>
      <trkpt lat="47.88196" lon="7.19462">
        <ele>347.79998779297</ele>
        <time>2021-07-11T10:27:54.000Z</time>
      </trkpt>
      <trkpt lat="47.88193" lon="7.19465">
        <ele>347.39999389648</ele>
        <time>2021-07-11T10:27:55.000Z</time>
      </trkpt>
      <trkpt lat="47.88191" lon="7.19468">
        <ele>347</ele>
        <time>2021-07-11T10:27:56.000Z</time>
      </trkpt>
      <trkpt lat="47.8819" lon="7.19478">
        <ele>347</ele>
        <time>2021-07-11T10:27:58.000Z</time>
      </trkpt>
      <trkpt lat="47.8819" lon="7.19511">
        <ele>347</ele>
        <time>2021-07-11T10:28:05.000Z</time>
      </trkpt>
      <trkpt lat="47.88189" lon="7.19541">
        <ele>347</ele>
        <time>2021-07-11T10:28:10.000Z</time>
      </trkpt>
      <trkpt lat="47.8819" lon="7.19547">
        <ele>346.60000610352</ele>
        <time>2021-07-11T10:28:11.000Z</time>
      </trkpt>
      <trkpt lat="47.88191" lon="7.19552">
        <ele>346.20001220703</ele>
        <time>2021-07-11T10:28:12.000Z</time>
      </trkpt>
      <trkpt lat="47.88192" lon="7.19557">
        <ele>345.39999389648</ele>
        <time>2021-07-11T10:28:13.000Z</time>
      </trkpt>
      <trkpt lat="47.88193" lon="7.19561">
        <ele>345</ele>
        <time>2021-07-11T10:28:14.000Z</time>
      </trkpt>
      <trkpt lat="47.88194" lon="7.19565">
        <ele>345</ele>
        <time>2021-07-11T10:28:15.000Z</time>
      </trkpt>
      <trkpt lat="47.88199" lon="7.19593">
        <ele>345</ele>
        <time>2021-07-11T10:28:20.000Z</time>
      </trkpt>
      <trkpt lat="47.882" lon="7.19601">
        <ele>344.60000610352</ele>
        <time>2021-07-11T10:28:21.000Z</time>
      </trkpt>
      <trkpt lat="47.882" lon="7.19607">
        <ele>344.20001220703</ele>
        <time>2021-07-11T10:28:22.000Z</time>
      </trkpt>
      <trkpt lat="47.88201" lon="7.19611">
        <ele>343.79998779297</ele>
        <time>2021-07-11T10:28:23.000Z</time>
      </trkpt>
      <trkpt lat="47.88202" lon="7.19613">
        <ele>343.39999389648</ele>
        <time>2021-07-11T10:28:24.000Z</time>
      </trkpt>
      <trkpt lat="47.88203" lon="7.19617">
        <ele>343</ele>
        <time>2021-07-11T10:28:25.000Z</time>
      </trkpt>
      <trkpt lat="47.88201" lon="7.19633">
        <ele>343</ele>
        <time>2021-07-11T10:28:30.000Z</time>
      </trkpt>
      <trkpt lat="47.88202" lon="7.1966">
        <ele>343</ele>
        <time>2021-07-11T10:28:34.000Z</time>
      </trkpt>
      <trkpt lat="47.88203" lon="7.19696">
        <ele>343</ele>
        <time>2021-07-11T10:28:39.000Z</time>
      </trkpt>
      <trkpt lat="47.88205" lon="7.19703">
        <ele>342.60000610352</ele>
        <time>2021-07-11T10:28:40.000Z</time>
      </trkpt>
      <trkpt lat="47.88206" lon="7.19708">
        <ele>342.20001220703</ele>
        <time>2021-07-11T10:28:41.000Z</time>
      </trkpt>
      <trkpt lat="47.88208" lon="7.19715">
        <ele>341.79998779297</ele>
        <time>2021-07-11T10:28:42.000Z</time>
      </trkpt>
      <trkpt lat="47.88208" lon="7.19723">
        <ele>341.20001220703</ele>
        <time>2021-07-11T10:28:43.000Z</time>
      </trkpt>
      <trkpt lat="47.88209" lon="7.1973">
        <ele>340.79998779297</ele>
        <time>2021-07-11T10:28:44.000Z</time>
      </trkpt>
      <trkpt lat="47.88211" lon="7.19735">
        <ele>340.20001220703</ele>
        <time>2021-07-11T10:28:45.000Z</time>
      </trkpt>
      <trkpt lat="47.88211" lon="7.19742">
        <ele>339.60000610352</ele>
        <time>2021-07-11T10:28:46.000Z</time>
      </trkpt>
      <trkpt lat="47.88211" lon="7.1975">
        <ele>339</ele>
        <time>2021-07-11T10:28:47.000Z</time>
      </trkpt>
      <trkpt lat="47.88212" lon="7.19758">
        <ele>338.60000610352</ele>
        <time>2021-07-11T10:28:48.000Z</time>
      </trkpt>
      <trkpt lat="47.88213" lon="7.1977">
        <ele>338.60000610352</ele>
        <time>2021-07-11T10:28:50.000Z</time>
      </trkpt>
      <trkpt lat="47.88223" lon="7.19793">
        <ele>338.60000610352</ele>
        <time>2021-07-11T10:28:55.000Z</time>
      </trkpt>
      <trkpt lat="47.88235" lon="7.19802">
        <ele>338.60000610352</ele>
        <time>2021-07-11T10:28:59.000Z</time>
      </trkpt>
      <trkpt lat="47.88239" lon="7.19805">
        <ele>338.60000610352</ele>
        <time>2021-07-11T10:29:00.000Z</time>
      </trkpt>
      <trkpt lat="47.88241" lon="7.1981">
        <ele>338.20001220703</ele>
        <time>2021-07-11T10:29:01.000Z</time>
      </trkpt>
      <trkpt lat="47.88244" lon="7.19814">
        <ele>337.79998779297</ele>
        <time>2021-07-11T10:29:02.000Z</time>
      </trkpt>
      <trkpt lat="47.88247" lon="7.19818">
        <ele>336.79998779297</ele>
        <time>2021-07-11T10:29:03.000Z</time>
      </trkpt>
      <trkpt lat="47.88251" lon="7.19821">
        <ele>336.39999389648</ele>
        <time>2021-07-11T10:29:04.000Z</time>
      </trkpt>
      <trkpt lat="47.88266" lon="7.19821">
        <ele>336.39999389648</ele>
        <time>2021-07-11T10:29:07.000Z</time>
      </trkpt>
      <trkpt lat="47.88274" lon="7.19816">
        <ele>336.39999389648</ele>
        <time>2021-07-11T10:29:09.000Z</time>
      </trkpt>
      <trkpt lat="47.88284" lon="7.19807">
        <ele>336.39999389648</ele>
        <time>2021-07-11T10:29:12.000Z</time>
      </trkpt>
      <trkpt lat="47.883" lon="7.19789">
        <ele>336.39999389648</ele>
        <time>2021-07-11T10:29:18.000Z</time>
      </trkpt>
      <trkpt lat="47.88319" lon="7.1977">
        <ele>336.39999389648</ele>
        <time>2021-07-11T10:29:25.000Z</time>
      </trkpt>
      <trkpt lat="47.88341" lon="7.1975">
        <ele>336.39999389648</ele>
        <time>2021-07-11T10:29:32.000Z</time>
      </trkpt>
      <trkpt lat="47.88357" lon="7.19739">
        <ele>336.39999389648</ele>
        <time>2021-07-11T10:29:37.000Z</time>
      </trkpt>
      <trkpt lat="47.88375" lon="7.19728">
        <ele>336.39999389648</ele>
        <time>2021-07-11T10:29:43.000Z</time>
      </trkpt>
      <trkpt lat="47.88397" lon="7.19708">
        <ele>336.39999389648</ele>
        <time>2021-07-11T10:29:50.000Z</time>
      </trkpt>
      <trkpt lat="47.88412" lon="7.19686">
        <ele>336.39999389648</ele>
        <time>2021-07-11T10:29:56.000Z</time>
      </trkpt>
      <trkpt lat="47.88413" lon="7.19682">
        <ele>336.79998779297</ele>
        <time>2021-07-11T10:29:57.000Z</time>
      </trkpt>
      <trkpt lat="47.88415" lon="7.19678">
        <ele>337.39999389648</ele>
        <time>2021-07-11T10:29:58.000Z</time>
      </trkpt>
      <trkpt lat="47.88417" lon="7.19673">
        <ele>337.79998779297</ele>
        <time>2021-07-11T10:29:59.000Z</time>
      </trkpt>
      <trkpt lat="47.88418" lon="7.19669">
        <ele>338.20001220703</ele>
        <time>2021-07-11T10:30:00.000Z</time>
      </trkpt>
      <trkpt lat="47.8842" lon="7.19664">
        <ele>338.60000610352</ele>
        <time>2021-07-11T10:30:01.000Z</time>
      </trkpt>
      <trkpt lat="47.88424" lon="7.1965">
        <ele>338.60000610352</ele>
        <time>2021-07-11T10:30:04.000Z</time>
      </trkpt>
      <trkpt lat="47.88435" lon="7.19614">
        <ele>339</ele>
        <time>2021-07-11T10:30:12.000Z</time>
      </trkpt>
      <trkpt lat="47.88437" lon="7.1961">
        <ele>339.39999389648</ele>
        <time>2021-07-11T10:30:13.000Z</time>
      </trkpt>
      <trkpt lat="47.88438" lon="7.19605">
        <ele>339.79998779297</ele>
        <time>2021-07-11T10:30:14.000Z</time>
      </trkpt>
      <trkpt lat="47.88439" lon="7.196">
        <ele>340.20001220703</ele>
        <time>2021-07-11T10:30:15.000Z</time>
      </trkpt>
      <trkpt lat="47.8844" lon="7.19596">
        <ele>340.79998779297</ele>
        <time>2021-07-11T10:30:16.000Z</time>
      </trkpt>
      <trkpt lat="47.88442" lon="7.19592">
        <ele>340.79998779297</ele>
        <time>2021-07-11T10:30:17.000Z</time>
      </trkpt>
      <trkpt lat="47.88447" lon="7.19569">
        <ele>340.79998779297</ele>
        <time>2021-07-11T10:30:23.000Z</time>
      </trkpt>
      <trkpt lat="47.88449" lon="7.19567">
        <ele>340.79998779297</ele>
        <time>2021-07-11T10:30:24.000Z</time>
      </trkpt>
      <trkpt lat="47.88451" lon="7.19564">
        <ele>340.79998779297</ele>
        <time>2021-07-11T10:30:27.000Z</time>
      </trkpt>
      <trkpt lat="47.88451" lon="7.19561">
        <ele>340.79998779297</ele>
        <time>2021-07-11T10:30:41.000Z</time>
      </trkpt>
      <trkpt lat="47.88449" lon="7.1956">
        <ele>340.79998779297</ele>
        <time>2021-07-11T10:30:43.000Z</time>
      </trkpt>
      <trkpt lat="47.88449" lon="7.19564">
        <ele>340.79998779297</ele>
        <time>2021-07-11T10:30:45.000Z</time>
      </trkpt>
      <trkpt lat="47.88454" lon="7.19567">
        <ele>340.79998779297</ele>
        <time>2021-07-11T10:30:48.000Z</time>
      </trkpt>
      <trkpt lat="47.88468" lon="7.19581">
        <ele>340.79998779297</ele>
        <time>2021-07-11T10:30:52.000Z</time>
      </trkpt>
      <trkpt lat="47.88497" lon="7.19613">
        <ele>340.79998779297</ele>
        <time>2021-07-11T10:30:59.000Z</time>
      </trkpt>
      <trkpt lat="47.88509" lon="7.19629">
        <ele>340.79998779297</ele>
        <time>2021-07-11T10:31:02.000Z</time>
      </trkpt>
      <trkpt lat="47.88514" lon="7.19644">
        <ele>340.79998779297</ele>
        <time>2021-07-11T10:31:04.000Z</time>
      </trkpt>
      <trkpt lat="47.88515" lon="7.19669">
        <ele>340.79998779297</ele>
        <time>2021-07-11T10:31:07.000Z</time>
      </trkpt>
      <trkpt lat="47.88514" lon="7.19678">
        <ele>340.79998779297</ele>
        <time>2021-07-11T10:31:08.000Z</time>
      </trkpt>
      <trkpt lat="47.88512" lon="7.19696">
        <ele>340.79998779297</ele>
        <time>2021-07-11T10:31:10.000Z</time>
      </trkpt>
      <trkpt lat="47.88511" lon="7.19722">
        <ele>340.20001220703</ele>
        <time>2021-07-11T10:31:13.000Z</time>
      </trkpt>
      <trkpt lat="47.88511" lon="7.1973">
        <ele>339.79998779297</ele>
        <time>2021-07-11T10:31:14.000Z</time>
      </trkpt>
      <trkpt lat="47.88511" lon="7.19738">
        <ele>339.39999389648</ele>
        <time>2021-07-11T10:31:15.000Z</time>
      </trkpt>
      <trkpt lat="47.8851" lon="7.19746">
        <ele>339</ele>
        <time>2021-07-11T10:31:16.000Z</time>
      </trkpt>
      <trkpt lat="47.88509" lon="7.19754">
        <ele>338.60000610352</ele>
        <time>2021-07-11T10:31:17.000Z</time>
      </trkpt>
      <trkpt lat="47.88509" lon="7.19785">
        <ele>338.60000610352</ele>
        <time>2021-07-11T10:31:21.000Z</time>
      </trkpt>
      <trkpt lat="47.88507" lon="7.19824">
        <ele>338.60000610352</ele>
        <time>2021-07-11T10:31:26.000Z</time>
      </trkpt>
      <trkpt lat="47.88503" lon="7.19847">
        <ele>338.60000610352</ele>
        <time>2021-07-11T10:31:29.000Z</time>
      </trkpt>
      <trkpt lat="47.88495" lon="7.19869">
        <ele>338.60000610352</ele>
        <time>2021-07-11T10:31:32.000Z</time>
      </trkpt>
      <trkpt lat="47.88489" lon="7.19883">
        <ele>338.60000610352</ele>
        <time>2021-07-11T10:31:34.000Z</time>
      </trkpt>
      <trkpt lat="47.88482" lon="7.19906">
        <ele>338.60000610352</ele>
        <time>2021-07-11T10:31:37.000Z</time>
      </trkpt>
      <trkpt lat="47.88482" lon="7.19914">
        <ele>338.20001220703</ele>
        <time>2021-07-11T10:31:38.000Z</time>
      </trkpt>
      <trkpt lat="47.88483" lon="7.19923">
        <ele>337.79998779297</ele>
        <time>2021-07-11T10:31:39.000Z</time>
      </trkpt>
      <trkpt lat="47.88483" lon="7.19931">
        <ele>337.39999389648</ele>
        <time>2021-07-11T10:31:40.000Z</time>
      </trkpt>
      <trkpt lat="47.88484" lon="7.19939">
        <ele>336.79998779297</ele>
        <time>2021-07-11T10:31:41.000Z</time>
      </trkpt>
      <trkpt lat="47.88485" lon="7.19946">
        <ele>336.39999389648</ele>
        <time>2021-07-11T10:31:42.000Z</time>
      </trkpt>
      <trkpt lat="47.88488" lon="7.19975">
        <ele>336.39999389648</ele>
        <time>2021-07-11T10:31:46.000Z</time>
      </trkpt>
      <trkpt lat="47.8849" lon="7.19989">
        <ele>336.79998779297</ele>
        <time>2021-07-11T10:31:48.000Z</time>
      </trkpt>
      <trkpt lat="47.88492" lon="7.19995">
        <ele>337.20001220703</ele>
        <time>2021-07-11T10:31:49.000Z</time>
      </trkpt>
      <trkpt lat="47.88493" lon="7.20001">
        <ele>337.79998779297</ele>
        <time>2021-07-11T10:31:50.000Z</time>
      </trkpt>
      <trkpt lat="47.88494" lon="7.20008">
        <ele>338.20001220703</ele>
        <time>2021-07-11T10:31:51.000Z</time>
      </trkpt>
      <trkpt lat="47.88496" lon="7.20014">
        <ele>338.60000610352</ele>
        <time>2021-07-11T10:31:52.000Z</time>
      </trkpt>
      <trkpt lat="47.885" lon="7.20032">
        <ele>338.60000610352</ele>
        <time>2021-07-11T10:31:55.000Z</time>
      </trkpt>
      <trkpt lat="47.88503" lon="7.20038">
        <ele>339</ele>
        <time>2021-07-11T10:31:56.000Z</time>
      </trkpt>
      <trkpt lat="47.88504" lon="7.20043">
        <ele>339.39999389648</ele>
        <time>2021-07-11T10:31:57.000Z</time>
      </trkpt>
      <trkpt lat="47.88506" lon="7.20048">
        <ele>339.79998779297</ele>
        <time>2021-07-11T10:31:58.000Z</time>
      </trkpt>
      <trkpt lat="47.88508" lon="7.20053">
        <ele>340.20001220703</ele>
        <time>2021-07-11T10:31:59.000Z</time>
      </trkpt>
      <trkpt lat="47.8851" lon="7.20059">
        <ele>340.60000610352</ele>
        <time>2021-07-11T10:32:00.000Z</time>
      </trkpt>
      <trkpt lat="47.88512" lon="7.20069">
        <ele>340.60000610352</ele>
        <time>2021-07-11T10:32:02.000Z</time>
      </trkpt>
      <trkpt lat="47.88516" lon="7.20085">
        <ele>341</ele>
        <time>2021-07-11T10:32:05.000Z</time>
      </trkpt>
      <trkpt lat="47.88517" lon="7.2009">
        <ele>341.60000610352</ele>
        <time>2021-07-11T10:32:06.000Z</time>
      </trkpt>
      <trkpt lat="47.88518" lon="7.20095">
        <ele>342</ele>
        <time>2021-07-11T10:32:07.000Z</time>
      </trkpt>
      <trkpt lat="47.88519" lon="7.20099">
        <ele>342.39999389648</ele>
        <time>2021-07-11T10:32:08.000Z</time>
      </trkpt>
      <trkpt lat="47.8852" lon="7.20103">
        <ele>342.79998779297</ele>
        <time>2021-07-11T10:32:09.000Z</time>
      </trkpt>
      <trkpt lat="47.88521" lon="7.20122">
        <ele>342.79998779297</ele>
        <time>2021-07-11T10:32:13.000Z</time>
      </trkpt>
      <trkpt lat="47.88522" lon="7.20128">
        <ele>342.79998779297</ele>
        <time>2021-07-11T10:32:14.000Z</time>
      </trkpt>
      <trkpt lat="47.88524" lon="7.20144">
        <ele>342.79998779297</ele>
        <time>2021-07-11T10:32:17.000Z</time>
      </trkpt>
      <trkpt lat="47.88531" lon="7.20184">
        <ele>342.79998779297</ele>
        <time>2021-07-11T10:32:24.000Z</time>
      </trkpt>
      <trkpt lat="47.88533" lon="7.20196">
        <ele>342.79998779297</ele>
        <time>2021-07-11T10:32:26.000Z</time>
      </trkpt>
      <trkpt lat="47.88538" lon="7.20221">
        <ele>342.79998779297</ele>
        <time>2021-07-11T10:32:30.000Z</time>
      </trkpt>
      <trkpt lat="47.88546" lon="7.20256">
        <ele>342.79998779297</ele>
        <time>2021-07-11T10:32:36.000Z</time>
      </trkpt>
      <trkpt lat="47.88552" lon="7.2028">
        <ele>342.79998779297</ele>
        <time>2021-07-11T10:32:41.000Z</time>
      </trkpt>
      <trkpt lat="47.88556" lon="7.20304">
        <ele>342.79998779297</ele>
        <time>2021-07-11T10:32:47.000Z</time>
      </trkpt>
      <trkpt lat="47.88562" lon="7.20332">
        <ele>342.79998779297</ele>
        <time>2021-07-11T10:32:52.000Z</time>
      </trkpt>
      <trkpt lat="47.88563" lon="7.20339">
        <ele>342.79998779297</ele>
        <time>2021-07-11T10:32:53.000Z</time>
      </trkpt>
      <trkpt lat="47.88568" lon="7.20371">
        <ele>342.79998779297</ele>
        <time>2021-07-11T10:32:58.000Z</time>
      </trkpt>
      <trkpt lat="47.88572" lon="7.20414">
        <ele>342.79998779297</ele>
        <time>2021-07-11T10:33:04.000Z</time>
      </trkpt>
      <trkpt lat="47.88572" lon="7.20422">
        <ele>342.79998779297</ele>
        <time>2021-07-11T10:33:05.000Z</time>
      </trkpt>
      <trkpt lat="47.88571" lon="7.20447">
        <ele>342.39999389648</ele>
        <time>2021-07-11T10:33:08.000Z</time>
      </trkpt>
      <trkpt lat="47.88571" lon="7.20455">
        <ele>342</ele>
        <time>2021-07-11T10:33:09.000Z</time>
      </trkpt>
      <trkpt lat="47.88571" lon="7.20463">
        <ele>341.20001220703</ele>
        <time>2021-07-11T10:33:10.000Z</time>
      </trkpt>
      <trkpt lat="47.88572" lon="7.20471">
        <ele>340.79998779297</ele>
        <time>2021-07-11T10:33:11.000Z</time>
      </trkpt>
      <trkpt lat="47.88577" lon="7.20481">
        <ele>340.79998779297</ele>
        <time>2021-07-11T10:33:13.000Z</time>
      </trkpt>
      <trkpt lat="47.88587" lon="7.20486">
        <ele>340.79998779297</ele>
        <time>2021-07-11T10:33:16.000Z</time>
      </trkpt>
      <trkpt lat="47.8859" lon="7.20488">
        <ele>340.79998779297</ele>
        <time>2021-07-11T10:33:17.000Z</time>
      </trkpt>
      <trkpt lat="47.88604" lon="7.20497">
        <ele>341.20001220703</ele>
        <time>2021-07-11T10:33:24.000Z</time>
      </trkpt>
      <trkpt lat="47.88606" lon="7.20499">
        <ele>341.79998779297</ele>
        <time>2021-07-11T10:33:25.000Z</time>
      </trkpt>
      <trkpt lat="47.88608" lon="7.20501">
        <ele>342.20001220703</ele>
        <time>2021-07-11T10:33:26.000Z</time>
      </trkpt>
      <trkpt lat="47.8861" lon="7.20503">
        <ele>342.79998779297</ele>
        <time>2021-07-11T10:33:27.000Z</time>
      </trkpt>
      <trkpt lat="47.88613" lon="7.20506">
        <ele>343.20001220703</ele>
        <time>2021-07-11T10:33:28.000Z</time>
      </trkpt>
      <trkpt lat="47.88616" lon="7.20509">
        <ele>343.20001220703</ele>
        <time>2021-07-11T10:33:29.000Z</time>
      </trkpt>
      <trkpt lat="47.8862" lon="7.20514">
        <ele>343.60000610352</ele>
        <time>2021-07-11T10:33:31.000Z</time>
      </trkpt>
      <trkpt lat="47.88623" lon="7.20517">
        <ele>344</ele>
        <time>2021-07-11T10:33:32.000Z</time>
      </trkpt>
      <trkpt lat="47.88625" lon="7.20519">
        <ele>344.39999389648</ele>
        <time>2021-07-11T10:33:33.000Z</time>
      </trkpt>
      <trkpt lat="47.88628" lon="7.20522">
        <ele>344.79998779297</ele>
        <time>2021-07-11T10:33:34.000Z</time>
      </trkpt>
      <trkpt lat="47.8863" lon="7.20525">
        <ele>345.20001220703</ele>
        <time>2021-07-11T10:33:35.000Z</time>
      </trkpt>
      <trkpt lat="47.88633" lon="7.20528">
        <ele>345.20001220703</ele>
        <time>2021-07-11T10:33:36.000Z</time>
      </trkpt>
      <trkpt lat="47.8864" lon="7.20535">
        <ele>345.60000610352</ele>
        <time>2021-07-11T10:33:39.000Z</time>
      </trkpt>
      <trkpt lat="47.88643" lon="7.20537">
        <ele>346.20001220703</ele>
        <time>2021-07-11T10:33:40.000Z</time>
      </trkpt>
      <trkpt lat="47.88645" lon="7.2054">
        <ele>346.60000610352</ele>
        <time>2021-07-11T10:33:41.000Z</time>
      </trkpt>
      <trkpt lat="47.88647" lon="7.20542">
        <ele>347.20001220703</ele>
        <time>2021-07-11T10:33:42.000Z</time>
      </trkpt>
      <trkpt lat="47.88649" lon="7.20544">
        <ele>347.60000610352</ele>
        <time>2021-07-11T10:33:43.000Z</time>
      </trkpt>
      <trkpt lat="47.88658" lon="7.20553">
        <ele>348</ele>
        <time>2021-07-11T10:33:47.000Z</time>
      </trkpt>
      <trkpt lat="47.88661" lon="7.20555">
        <ele>348.39999389648</ele>
        <time>2021-07-11T10:33:48.000Z</time>
      </trkpt>
      <trkpt lat="47.88664" lon="7.20557">
        <ele>349</ele>
        <time>2021-07-11T10:33:49.000Z</time>
      </trkpt>
      <trkpt lat="47.88666" lon="7.20559">
        <ele>349.39999389648</ele>
        <time>2021-07-11T10:33:50.000Z</time>
      </trkpt>
      <trkpt lat="47.88669" lon="7.20561">
        <ele>349.79998779297</ele>
        <time>2021-07-11T10:33:51.000Z</time>
      </trkpt>
      <trkpt lat="47.88683" lon="7.20566">
        <ele>349.79998779297</ele>
        <time>2021-07-11T10:33:56.000Z</time>
      </trkpt>
      <trkpt lat="47.88698" lon="7.20559">
        <ele>349.79998779297</ele>
        <time>2021-07-11T10:34:01.000Z</time>
      </trkpt>
      <trkpt lat="47.88714" lon="7.20542">
        <ele>349.79998779297</ele>
        <time>2021-07-11T10:34:06.000Z</time>
      </trkpt>
      <trkpt lat="47.88732" lon="7.2052">
        <ele>349.79998779297</ele>
        <time>2021-07-11T10:34:12.000Z</time>
      </trkpt>
      <trkpt lat="47.88747" lon="7.20495">
        <ele>349.79998779297</ele>
        <time>2021-07-11T10:34:17.000Z</time>
      </trkpt>
      <trkpt lat="47.88763" lon="7.20462">
        <ele>350.20001220703</ele>
        <time>2021-07-11T10:34:24.000Z</time>
      </trkpt>
      <trkpt lat="47.88765" lon="7.20458">
        <ele>351.20001220703</ele>
        <time>2021-07-11T10:34:25.000Z</time>
      </trkpt>
      <trkpt lat="47.88767" lon="7.20453">
        <ele>351.60000610352</ele>
        <time>2021-07-11T10:34:26.000Z</time>
      </trkpt>
      <trkpt lat="47.88769" lon="7.20449">
        <ele>352</ele>
        <time>2021-07-11T10:34:27.000Z</time>
      </trkpt>
      <trkpt lat="47.88775" lon="7.20436">
        <ele>352</ele>
        <time>2021-07-11T10:34:30.000Z</time>
      </trkpt>
      <trkpt lat="47.88785" lon="7.20418">
        <ele>352</ele>
        <time>2021-07-11T10:34:35.000Z</time>
      </trkpt>
      <trkpt lat="47.88796" lon="7.20403">
        <ele>352</ele>
        <time>2021-07-11T10:34:40.000Z</time>
      </trkpt>
      <trkpt lat="47.88803" lon="7.20398">
        <ele>352.39999389648</ele>
        <time>2021-07-11T10:34:43.000Z</time>
      </trkpt>
      <trkpt lat="47.88806" lon="7.20396">
        <ele>352.79998779297</ele>
        <time>2021-07-11T10:34:44.000Z</time>
      </trkpt>
      <trkpt lat="47.88809" lon="7.20395">
        <ele>353.39999389648</ele>
        <time>2021-07-11T10:34:45.000Z</time>
      </trkpt>
      <trkpt lat="47.88811" lon="7.20396">
        <ele>353.79998779297</ele>
        <time>2021-07-11T10:34:46.000Z</time>
      </trkpt>
      <trkpt lat="47.88814" lon="7.20398">
        <ele>354.20001220703</ele>
        <time>2021-07-11T10:34:47.000Z</time>
      </trkpt>
      <trkpt lat="47.88817" lon="7.20403">
        <ele>354.20001220703</ele>
        <time>2021-07-11T10:34:49.000Z</time>
      </trkpt>
      <trkpt lat="47.88818" lon="7.20419">
        <ele>354.60000610352</ele>
        <time>2021-07-11T10:34:54.000Z</time>
      </trkpt>
      <trkpt lat="47.88817" lon="7.20422">
        <ele>355</ele>
        <time>2021-07-11T10:34:55.000Z</time>
      </trkpt>
      <trkpt lat="47.88816" lon="7.20425">
        <ele>355.60000610352</ele>
        <time>2021-07-11T10:34:56.000Z</time>
      </trkpt>
      <trkpt lat="47.88816" lon="7.20428">
        <ele>356</ele>
        <time>2021-07-11T10:34:57.000Z</time>
      </trkpt>
      <trkpt lat="47.88815" lon="7.20431">
        <ele>356.39999389648</ele>
        <time>2021-07-11T10:34:58.000Z</time>
      </trkpt>
      <trkpt lat="47.88815" lon="7.20453">
        <ele>356.39999389648</ele>
        <time>2021-07-11T10:35:03.000Z</time>
      </trkpt>
      <trkpt lat="47.88814" lon="7.20456">
        <ele>356.79998779297</ele>
        <time>2021-07-11T10:35:04.000Z</time>
      </trkpt>
      <trkpt lat="47.88813" lon="7.2046">
        <ele>357.20001220703</ele>
        <time>2021-07-11T10:35:05.000Z</time>
      </trkpt>
      <trkpt lat="47.88812" lon="7.20464">
        <ele>357.60000610352</ele>
        <time>2021-07-11T10:35:06.000Z</time>
      </trkpt>
      <trkpt lat="47.88811" lon="7.20468">
        <ele>358.20001220703</ele>
        <time>2021-07-11T10:35:07.000Z</time>
      </trkpt>
      <trkpt lat="47.8881" lon="7.20472">
        <ele>358.60000610352</ele>
        <time>2021-07-11T10:35:08.000Z</time>
      </trkpt>
      <trkpt lat="47.88809" lon="7.20482">
        <ele>359</ele>
        <time>2021-07-11T10:35:11.000Z</time>
      </trkpt>
      <trkpt lat="47.88809" lon="7.20486">
        <ele>359.39999389648</ele>
        <time>2021-07-11T10:35:12.000Z</time>
      </trkpt>
      <trkpt lat="47.88809" lon="7.20489">
        <ele>360</ele>
        <time>2021-07-11T10:35:13.000Z</time>
      </trkpt>
      <trkpt lat="47.88809" lon="7.20493">
        <ele>360.79998779297</ele>
        <time>2021-07-11T10:35:14.000Z</time>
      </trkpt>
      <trkpt lat="47.88808" lon="7.20496">
        <ele>360.79998779297</ele>
        <time>2021-07-11T10:35:15.000Z</time>
      </trkpt>
      <trkpt lat="47.88807" lon="7.20511">
        <ele>361.39999389648</ele>
        <time>2021-07-11T10:35:19.000Z</time>
      </trkpt>
      <trkpt lat="47.88807" lon="7.20513">
        <ele>361.79998779297</ele>
        <time>2021-07-11T10:35:20.000Z</time>
      </trkpt>
      <trkpt lat="47.88807" lon="7.20518">
        <ele>362.20001220703</ele>
        <time>2021-07-11T10:35:21.000Z</time>
      </trkpt>
      <trkpt lat="47.88807" lon="7.20522">
        <ele>362.60000610352</ele>
        <time>2021-07-11T10:35:22.000Z</time>
      </trkpt>
      <trkpt lat="47.88807" lon="7.20527">
        <ele>363</ele>
        <time>2021-07-11T10:35:23.000Z</time>
      </trkpt>
      <trkpt lat="47.88806" lon="7.20546">
        <ele>363</ele>
        <time>2021-07-11T10:35:27.000Z</time>
      </trkpt>
      <trkpt lat="47.88804" lon="7.20572">
        <ele>363</ele>
        <time>2021-07-11T10:35:33.000Z</time>
      </trkpt>
      <trkpt lat="47.88798" lon="7.20608">
        <ele>363</ele>
        <time>2021-07-11T10:35:41.000Z</time>
      </trkpt>
      <trkpt lat="47.88796" lon="7.20642">
        <ele>363</ele>
        <time>2021-07-11T10:35:47.000Z</time>
      </trkpt>
      <trkpt lat="47.88801" lon="7.20686">
        <ele>363</ele>
        <time>2021-07-11T10:35:55.000Z</time>
      </trkpt>
      <trkpt lat="47.8881" lon="7.20714">
        <ele>363</ele>
        <time>2021-07-11T10:36:01.000Z</time>
      </trkpt>
      <trkpt lat="47.88822" lon="7.20741">
        <ele>363.39999389648</ele>
        <time>2021-07-11T10:36:08.000Z</time>
      </trkpt>
      <trkpt lat="47.88823" lon="7.20744">
        <ele>364</ele>
        <time>2021-07-11T10:36:09.000Z</time>
      </trkpt>
      <trkpt lat="47.88824" lon="7.20748">
        <ele>364.39999389648</ele>
        <time>2021-07-11T10:36:10.000Z</time>
      </trkpt>
      <trkpt lat="47.88825" lon="7.20751">
        <ele>364.79998779297</ele>
        <time>2021-07-11T10:36:11.000Z</time>
      </trkpt>
      <trkpt lat="47.88826" lon="7.20755">
        <ele>365.20001220703</ele>
        <time>2021-07-11T10:36:12.000Z</time>
      </trkpt>
      <trkpt lat="47.88829" lon="7.20766">
        <ele>365.20001220703</ele>
        <time>2021-07-11T10:36:15.000Z</time>
      </trkpt>
      <trkpt lat="47.88835" lon="7.20796">
        <ele>365.20001220703</ele>
        <time>2021-07-11T10:36:21.000Z</time>
      </trkpt>
      <trkpt lat="47.8884" lon="7.20827">
        <ele>365.20001220703</ele>
        <time>2021-07-11T10:36:26.000Z</time>
      </trkpt>
      <trkpt lat="47.88841" lon="7.20833">
        <ele>365.20001220703</ele>
        <time>2021-07-11T10:36:27.000Z</time>
      </trkpt>
      <trkpt lat="47.88847" lon="7.20874">
        <ele>365.20001220703</ele>
        <time>2021-07-11T10:36:33.000Z</time>
      </trkpt>
      <trkpt lat="47.88852" lon="7.20921">
        <ele>365.20001220703</ele>
        <time>2021-07-11T10:36:40.000Z</time>
      </trkpt>
      <trkpt lat="47.88856" lon="7.20948">
        <ele>365.20001220703</ele>
        <time>2021-07-11T10:36:44.000Z</time>
      </trkpt>
      <trkpt lat="47.88859" lon="7.20962">
        <ele>365.20001220703</ele>
        <time>2021-07-11T10:36:46.000Z</time>
      </trkpt>
      <trkpt lat="47.88865" lon="7.20989">
        <ele>365.20001220703</ele>
        <time>2021-07-11T10:36:50.000Z</time>
      </trkpt>
      <trkpt lat="47.88866" lon="7.20997">
        <ele>365.20001220703</ele>
        <time>2021-07-11T10:36:51.000Z</time>
      </trkpt>
      <trkpt lat="47.88873" lon="7.21036">
        <ele>365.20001220703</ele>
        <time>2021-07-11T10:36:57.000Z</time>
      </trkpt>
      <trkpt lat="47.88882" lon="7.21091">
        <ele>365.20001220703</ele>
        <time>2021-07-11T10:37:06.000Z</time>
      </trkpt>
      <trkpt lat="47.88887" lon="7.21106">
        <ele>365.20001220703</ele>
        <time>2021-07-11T10:37:09.000Z</time>
      </trkpt>
      <trkpt lat="47.88895" lon="7.21125">
        <ele>365.20001220703</ele>
        <time>2021-07-11T10:37:13.000Z</time>
      </trkpt>
      <trkpt lat="47.88909" lon="7.21147">
        <ele>365.20001220703</ele>
        <time>2021-07-11T10:37:19.000Z</time>
      </trkpt>
      <trkpt lat="47.88921" lon="7.21167">
        <ele>365.20001220703</ele>
        <time>2021-07-11T10:37:24.000Z</time>
      </trkpt>
      <trkpt lat="47.88925" lon="7.21175">
        <ele>365.20001220703</ele>
        <time>2021-07-11T10:37:26.000Z</time>
      </trkpt>
      <trkpt lat="47.88927" lon="7.21179">
        <ele>365.60000610352</ele>
        <time>2021-07-11T10:37:27.000Z</time>
      </trkpt>
      <trkpt lat="47.88929" lon="7.21183">
        <ele>366</ele>
        <time>2021-07-11T10:37:28.000Z</time>
      </trkpt>
      <trkpt lat="47.88931" lon="7.21187">
        <ele>366.39999389648</ele>
        <time>2021-07-11T10:37:29.000Z</time>
      </trkpt>
      <trkpt lat="47.88933" lon="7.21191">
        <ele>366.79998779297</ele>
        <time>2021-07-11T10:37:30.000Z</time>
      </trkpt>
      <trkpt lat="47.88935" lon="7.21195">
        <ele>367.20001220703</ele>
        <time>2021-07-11T10:37:31.000Z</time>
      </trkpt>
      <trkpt lat="47.88944" lon="7.21211">
        <ele>367.20001220703</ele>
        <time>2021-07-11T10:37:35.000Z</time>
      </trkpt>
      <trkpt lat="47.88965" lon="7.21248">
        <ele>367.20001220703</ele>
        <time>2021-07-11T10:37:44.000Z</time>
      </trkpt>
      <trkpt lat="47.88979" lon="7.21274">
        <ele>367.20001220703</ele>
        <time>2021-07-11T10:37:51.000Z</time>
      </trkpt>
      <trkpt lat="47.88981" lon="7.21299">
        <ele>366.79998779297</ele>
        <time>2021-07-11T10:37:55.000Z</time>
      </trkpt>
      <trkpt lat="47.8898" lon="7.21305">
        <ele>366.39999389648</ele>
        <time>2021-07-11T10:37:56.000Z</time>
      </trkpt>
      <trkpt lat="47.88978" lon="7.2131">
        <ele>365.79998779297</ele>
        <time>2021-07-11T10:37:57.000Z</time>
      </trkpt>
      <trkpt lat="47.88976" lon="7.21313">
        <ele>365.39999389648</ele>
        <time>2021-07-11T10:37:58.000Z</time>
      </trkpt>
      <trkpt lat="47.88973" lon="7.21316">
        <ele>365</ele>
        <time>2021-07-11T10:37:59.000Z</time>
      </trkpt>
      <trkpt lat="47.88966" lon="7.21321">
        <ele>364.60000610352</ele>
        <time>2021-07-11T10:38:01.000Z</time>
      </trkpt>
      <trkpt lat="47.88961" lon="7.21325">
        <ele>364</ele>
        <time>2021-07-11T10:38:02.000Z</time>
      </trkpt>
      <trkpt lat="47.88957" lon="7.21329">
        <ele>363.60000610352</ele>
        <time>2021-07-11T10:38:03.000Z</time>
      </trkpt>
      <trkpt lat="47.88952" lon="7.21334">
        <ele>363.20001220703</ele>
        <time>2021-07-11T10:38:04.000Z</time>
      </trkpt>
      <trkpt lat="47.88947" lon="7.2134">
        <ele>362.79998779297</ele>
        <time>2021-07-11T10:38:05.000Z</time>
      </trkpt>
      <trkpt lat="47.88942" lon="7.21346">
        <ele>362.20001220703</ele>
        <time>2021-07-11T10:38:06.000Z</time>
      </trkpt>
      <trkpt lat="47.88937" lon="7.21353">
        <ele>361.39999389648</ele>
        <time>2021-07-11T10:38:07.000Z</time>
      </trkpt>
      <trkpt lat="47.88931" lon="7.2136">
        <ele>360.79998779297</ele>
        <time>2021-07-11T10:38:08.000Z</time>
      </trkpt>
      <trkpt lat="47.88926" lon="7.21367">
        <ele>360.20001220703</ele>
        <time>2021-07-11T10:38:09.000Z</time>
      </trkpt>
      <trkpt lat="47.88921" lon="7.21373">
        <ele>359.60000610352</ele>
        <time>2021-07-11T10:38:10.000Z</time>
      </trkpt>
      <trkpt lat="47.88917" lon="7.21378">
        <ele>358.79998779297</ele>
        <time>2021-07-11T10:38:11.000Z</time>
      </trkpt>
      <trkpt lat="47.88914" lon="7.21382">
        <ele>358.20001220703</ele>
        <time>2021-07-11T10:38:12.000Z</time>
      </trkpt>
      <trkpt lat="47.88913" lon="7.21385">
        <ele>357.79998779297</ele>
        <time>2021-07-11T10:38:13.000Z</time>
      </trkpt>
      <trkpt lat="47.88912" lon="7.21387">
        <ele>357.20001220703</ele>
        <time>2021-07-11T10:38:14.000Z</time>
      </trkpt>
      <trkpt lat="47.88912" lon="7.2139">
        <ele>356.60000610352</ele>
        <time>2021-07-11T10:38:15.000Z</time>
      </trkpt>
      <trkpt lat="47.88912" lon="7.21392">
        <ele>356</ele>
        <time>2021-07-11T10:38:16.000Z</time>
      </trkpt>
      <trkpt lat="47.88915" lon="7.21397">
        <ele>356</ele>
        <time>2021-07-11T10:38:18.000Z</time>
      </trkpt>
      <trkpt lat="47.88921" lon="7.21408">
        <ele>356</ele>
        <time>2021-07-11T10:38:21.000Z</time>
      </trkpt>
      <trkpt lat="47.88927" lon="7.21418">
        <ele>356</ele>
        <time>2021-07-11T10:38:23.000Z</time>
      </trkpt>
      <trkpt lat="47.8893" lon="7.21424">
        <ele>355.60000610352</ele>
        <time>2021-07-11T10:38:24.000Z</time>
      </trkpt>
      <trkpt lat="47.88934" lon="7.21429">
        <ele>355.20001220703</ele>
        <time>2021-07-11T10:38:25.000Z</time>
      </trkpt>
      <trkpt lat="47.88938" lon="7.21436">
        <ele>354.79998779297</ele>
        <time>2021-07-11T10:38:26.000Z</time>
      </trkpt>
      <trkpt lat="47.88942" lon="7.21443">
        <ele>354.20001220703</ele>
        <time>2021-07-11T10:38:27.000Z</time>
      </trkpt>
      <trkpt lat="47.88946" lon="7.2145">
        <ele>353.79998779297</ele>
        <time>2021-07-11T10:38:28.000Z</time>
      </trkpt>
      <trkpt lat="47.8895" lon="7.21457">
        <ele>353.20001220703</ele>
        <time>2021-07-11T10:38:29.000Z</time>
      </trkpt>
      <trkpt lat="47.88955" lon="7.21465">
        <ele>352.79998779297</ele>
        <time>2021-07-11T10:38:30.000Z</time>
      </trkpt>
      <trkpt lat="47.88959" lon="7.21474">
        <ele>352.20001220703</ele>
        <time>2021-07-11T10:38:31.000Z</time>
      </trkpt>
      <trkpt lat="47.88964" lon="7.21483">
        <ele>351.20001220703</ele>
        <time>2021-07-11T10:38:32.000Z</time>
      </trkpt>
      <trkpt lat="47.88968" lon="7.21493">
        <ele>350.60000610352</ele>
        <time>2021-07-11T10:38:33.000Z</time>
      </trkpt>
      <trkpt lat="47.88972" lon="7.21504">
        <ele>350</ele>
        <time>2021-07-11T10:38:34.000Z</time>
      </trkpt>
      <trkpt lat="47.88976" lon="7.21516">
        <ele>349.20001220703</ele>
        <time>2021-07-11T10:38:35.000Z</time>
      </trkpt>
      <trkpt lat="47.8898" lon="7.21528">
        <ele>348.60000610352</ele>
        <time>2021-07-11T10:38:36.000Z</time>
      </trkpt>
      <trkpt lat="47.88984" lon="7.21541">
        <ele>347.79998779297</ele>
        <time>2021-07-11T10:38:37.000Z</time>
      </trkpt>
      <trkpt lat="47.88986" lon="7.21555">
        <ele>347.20001220703</ele>
        <time>2021-07-11T10:38:38.000Z</time>
      </trkpt>
      <trkpt lat="47.88989" lon="7.21569">
        <ele>346.39999389648</ele>
        <time>2021-07-11T10:38:39.000Z</time>
      </trkpt>
      <trkpt lat="47.88991" lon="7.21583">
        <ele>345.60000610352</ele>
        <time>2021-07-11T10:38:40.000Z</time>
      </trkpt>
      <trkpt lat="47.88992" lon="7.21597">
        <ele>344.60000610352</ele>
        <time>2021-07-11T10:38:41.000Z</time>
      </trkpt>
      <trkpt lat="47.88994" lon="7.21612">
        <ele>343.60000610352</ele>
        <time>2021-07-11T10:38:42.000Z</time>
      </trkpt>
      <trkpt lat="47.88994" lon="7.21626">
        <ele>342.79998779297</ele>
        <time>2021-07-11T10:38:43.000Z</time>
      </trkpt>
      <trkpt lat="47.88995" lon="7.21641">
        <ele>341.60000610352</ele>
        <time>2021-07-11T10:38:44.000Z</time>
      </trkpt>
      <trkpt lat="47.88994" lon="7.21656">
        <ele>340.60000610352</ele>
        <time>2021-07-11T10:38:45.000Z</time>
      </trkpt>
      <trkpt lat="47.88993" lon="7.21671">
        <ele>339.39999389648</ele>
        <time>2021-07-11T10:38:46.000Z</time>
      </trkpt>
      <trkpt lat="47.88991" lon="7.21688">
        <ele>338.39999389648</ele>
        <time>2021-07-11T10:38:47.000Z</time>
      </trkpt>
      <trkpt lat="47.8899" lon="7.21706">
        <ele>337.20001220703</ele>
        <time>2021-07-11T10:38:48.000Z</time>
      </trkpt>
      <trkpt lat="47.88989" lon="7.21726">
        <ele>336.20001220703</ele>
        <time>2021-07-11T10:38:49.000Z</time>
      </trkpt>
      <trkpt lat="47.88989" lon="7.21744">
        <ele>335</ele>
        <time>2021-07-11T10:38:50.000Z</time>
      </trkpt>
      <trkpt lat="47.8899" lon="7.21761">
        <ele>334</ele>
        <time>2021-07-11T10:38:51.000Z</time>
      </trkpt>
      <trkpt lat="47.88991" lon="7.21779">
        <ele>333</ele>
        <time>2021-07-11T10:38:52.000Z</time>
      </trkpt>
      <trkpt lat="47.88993" lon="7.21797">
        <ele>331.79998779297</ele>
        <time>2021-07-11T10:38:53.000Z</time>
      </trkpt>
      <trkpt lat="47.88995" lon="7.21814">
        <ele>330.79998779297</ele>
        <time>2021-07-11T10:38:54.000Z</time>
      </trkpt>
      <trkpt lat="47.88997" lon="7.21833">
        <ele>329.60000610352</ele>
        <time>2021-07-11T10:38:55.000Z</time>
      </trkpt>
      <trkpt lat="47.88999" lon="7.2185">
        <ele>328.60000610352</ele>
        <time>2021-07-11T10:38:56.000Z</time>
      </trkpt>
      <trkpt lat="47.88998" lon="7.21867">
        <ele>326.39999389648</ele>
        <time>2021-07-11T10:38:57.000Z</time>
      </trkpt>
      <trkpt lat="47.88998" lon="7.21883">
        <ele>325.20001220703</ele>
        <time>2021-07-11T10:38:58.000Z</time>
      </trkpt>
      <trkpt lat="47.88998" lon="7.219">
        <ele>324</ele>
        <time>2021-07-11T10:38:59.000Z</time>
      </trkpt>
      <trkpt lat="47.88996" lon="7.21916">
        <ele>322.79998779297</ele>
        <time>2021-07-11T10:39:00.000Z</time>
      </trkpt>
      <trkpt lat="47.88994" lon="7.21932">
        <ele>321.60000610352</ele>
        <time>2021-07-11T10:39:01.000Z</time>
      </trkpt>
      <trkpt lat="47.88991" lon="7.21948">
        <ele>320.60000610352</ele>
        <time>2021-07-11T10:39:02.000Z</time>
      </trkpt>
      <trkpt lat="47.88989" lon="7.21963">
        <ele>319.60000610352</ele>
        <time>2021-07-11T10:39:03.000Z</time>
      </trkpt>
      <trkpt lat="47.88988" lon="7.21977">
        <ele>318.60000610352</ele>
        <time>2021-07-11T10:39:04.000Z</time>
      </trkpt>
      <trkpt lat="47.88987" lon="7.2199">
        <ele>317.39999389648</ele>
        <time>2021-07-11T10:39:05.000Z</time>
      </trkpt>
      <trkpt lat="47.88988" lon="7.22003">
        <ele>316.20001220703</ele>
        <time>2021-07-11T10:39:06.000Z</time>
      </trkpt>
      <trkpt lat="47.8899" lon="7.22015">
        <ele>315.39999389648</ele>
        <time>2021-07-11T10:39:07.000Z</time>
      </trkpt>
      <trkpt lat="47.88993" lon="7.22028">
        <ele>314.39999389648</ele>
        <time>2021-07-11T10:39:08.000Z</time>
      </trkpt>
      <trkpt lat="47.88998" lon="7.2204">
        <ele>313.39999389648</ele>
        <time>2021-07-11T10:39:09.000Z</time>
      </trkpt>
      <trkpt lat="47.89002" lon="7.22053">
        <ele>312.39999389648</ele>
        <time>2021-07-11T10:39:10.000Z</time>
      </trkpt>
      <trkpt lat="47.89007" lon="7.22066">
        <ele>311.39999389648</ele>
        <time>2021-07-11T10:39:11.000Z</time>
      </trkpt>
      <trkpt lat="47.8901" lon="7.22078">
        <ele>310.39999389648</ele>
        <time>2021-07-11T10:39:12.000Z</time>
      </trkpt>
      <trkpt lat="47.89012" lon="7.22088">
        <ele>309.20001220703</ele>
        <time>2021-07-11T10:39:13.000Z</time>
      </trkpt>
      <trkpt lat="47.89015" lon="7.22095">
        <ele>308.20001220703</ele>
        <time>2021-07-11T10:39:14.000Z</time>
      </trkpt>
      <trkpt lat="47.8902" lon="7.221">
        <ele>307.39999389648</ele>
        <time>2021-07-11T10:39:15.000Z</time>
      </trkpt>
      <trkpt lat="47.89025" lon="7.22102">
        <ele>306.60000610352</ele>
        <time>2021-07-11T10:39:16.000Z</time>
      </trkpt>
      <trkpt lat="47.8903" lon="7.22103">
        <ele>305.60000610352</ele>
        <time>2021-07-11T10:39:17.000Z</time>
      </trkpt>
      <trkpt lat="47.89035" lon="7.22103">
        <ele>304.79998779297</ele>
        <time>2021-07-11T10:39:18.000Z</time>
      </trkpt>
      <trkpt lat="47.8904" lon="7.22103">
        <ele>304</ele>
        <time>2021-07-11T10:39:19.000Z</time>
      </trkpt>
      <trkpt lat="47.89045" lon="7.22103">
        <ele>304</ele>
        <time>2021-07-11T10:39:20.000Z</time>
      </trkpt>
      <trkpt lat="47.8906" lon="7.22106">
        <ele>303.60000610352</ele>
        <time>2021-07-11T10:39:23.000Z</time>
      </trkpt>
      <trkpt lat="47.89062" lon="7.22109">
        <ele>303.20001220703</ele>
        <time>2021-07-11T10:39:24.000Z</time>
      </trkpt>
      <trkpt lat="47.89064" lon="7.22112">
        <ele>302.60000610352</ele>
        <time>2021-07-11T10:39:25.000Z</time>
      </trkpt>
      <trkpt lat="47.89066" lon="7.22114">
        <ele>302.20001220703</ele>
        <time>2021-07-11T10:39:26.000Z</time>
      </trkpt>
      <trkpt lat="47.89066" lon="7.22116">
        <ele>301.79998779297</ele>
        <time>2021-07-11T10:39:27.000Z</time>
      </trkpt>
      <trkpt lat="47.89063" lon="7.22119">
        <ele>301.79998779297</ele>
        <time>2021-07-11T10:39:29.000Z</time>
      </trkpt>
      <trkpt lat="47.89061" lon="7.22131">
        <ele>301.79998779297</ele>
        <time>2021-07-11T10:39:32.000Z</time>
      </trkpt>
      <trkpt lat="47.89061" lon="7.22137">
        <ele>301.79998779297</ele>
        <time>2021-07-11T10:39:33.000Z</time>
      </trkpt>
      <trkpt lat="47.89062" lon="7.22144">
        <ele>301.39999389648</ele>
        <time>2021-07-11T10:39:34.000Z</time>
      </trkpt>
      <trkpt lat="47.89062" lon="7.22151">
        <ele>300.79998779297</ele>
        <time>2021-07-11T10:39:35.000Z</time>
      </trkpt>
      <trkpt lat="47.89062" lon="7.22157">
        <ele>300.39999389648</ele>
        <time>2021-07-11T10:39:36.000Z</time>
      </trkpt>
      <trkpt lat="47.89063" lon="7.22164">
        <ele>300</ele>
        <time>2021-07-11T10:39:37.000Z</time>
      </trkpt>
      <trkpt lat="47.89063" lon="7.22171">
        <ele>299.39999389648</ele>
        <time>2021-07-11T10:39:38.000Z</time>
      </trkpt>
      <trkpt lat="47.89063" lon="7.22179">
        <ele>299</ele>
        <time>2021-07-11T10:39:39.000Z</time>
      </trkpt>
      <trkpt lat="47.89063" lon="7.22186">
        <ele>298.60000610352</ele>
        <time>2021-07-11T10:39:40.000Z</time>
      </trkpt>
      <trkpt lat="47.89063" lon="7.22194">
        <ele>298.20001220703</ele>
        <time>2021-07-11T10:39:41.000Z</time>
      </trkpt>
      <trkpt lat="47.89063" lon="7.22202">
        <ele>297.79998779297</ele>
        <time>2021-07-11T10:39:42.000Z</time>
      </trkpt>
      <trkpt lat="47.89062" lon="7.2221">
        <ele>297.39999389648</ele>
        <time>2021-07-11T10:39:43.000Z</time>
      </trkpt>
      <trkpt lat="47.8906" lon="7.22225">
        <ele>297</ele>
        <time>2021-07-11T10:39:45.000Z</time>
      </trkpt>
      <trkpt lat="47.89059" lon="7.22233">
        <ele>296</ele>
        <time>2021-07-11T10:39:46.000Z</time>
      </trkpt>
      <trkpt lat="47.89057" lon="7.22241">
        <ele>295.39999389648</ele>
        <time>2021-07-11T10:39:47.000Z</time>
      </trkpt>
      <trkpt lat="47.89054" lon="7.22246">
        <ele>294.79998779297</ele>
        <time>2021-07-11T10:39:48.000Z</time>
      </trkpt>
      <trkpt lat="47.89052" lon="7.22251">
        <ele>294.20001220703</ele>
        <time>2021-07-11T10:39:49.000Z</time>
      </trkpt>
      <trkpt lat="47.89049" lon="7.22255">
        <ele>293.39999389648</ele>
        <time>2021-07-11T10:39:50.000Z</time>
      </trkpt>
      <trkpt lat="47.89047" lon="7.2226">
        <ele>292.79998779297</ele>
        <time>2021-07-11T10:39:51.000Z</time>
      </trkpt>
      <trkpt lat="47.89046" lon="7.22266">
        <ele>292.79998779297</ele>
        <time>2021-07-11T10:39:52.000Z</time>
      </trkpt>
      <trkpt lat="47.89044" lon="7.22281">
        <ele>292.39999389648</ele>
        <time>2021-07-11T10:39:54.000Z</time>
      </trkpt>
      <trkpt lat="47.89044" lon="7.22289">
        <ele>292</ele>
        <time>2021-07-11T10:39:55.000Z</time>
      </trkpt>
      <trkpt lat="47.89043" lon="7.22297">
        <ele>291.60000610352</ele>
        <time>2021-07-11T10:39:56.000Z</time>
      </trkpt>
      <trkpt lat="47.89043" lon="7.22306">
        <ele>291</ele>
        <time>2021-07-11T10:39:57.000Z</time>
      </trkpt>
      <trkpt lat="47.89043" lon="7.22315">
        <ele>290.60000610352</ele>
        <time>2021-07-11T10:39:58.000Z</time>
      </trkpt>
      <trkpt lat="47.89042" lon="7.22341">
        <ele>290.20001220703</ele>
        <time>2021-07-11T10:40:01.000Z</time>
      </trkpt>
      <trkpt lat="47.89043" lon="7.22347">
        <ele>289.79998779297</ele>
        <time>2021-07-11T10:40:02.000Z</time>
      </trkpt>
      <trkpt lat="47.89045" lon="7.22352">
        <ele>289.39999389648</ele>
        <time>2021-07-11T10:40:03.000Z</time>
      </trkpt>
      <trkpt lat="47.8905" lon="7.22353">
        <ele>289</ele>
        <time>2021-07-11T10:40:04.000Z</time>
      </trkpt>
      <trkpt lat="47.89054" lon="7.22352">
        <ele>288.39999389648</ele>
        <time>2021-07-11T10:40:05.000Z</time>
      </trkpt>
      <trkpt lat="47.8907" lon="7.2234">
        <ele>288.39999389648</ele>
        <time>2021-07-11T10:40:09.000Z</time>
      </trkpt>
      <trkpt lat="47.89086" lon="7.22321">
        <ele>288.39999389648</ele>
        <time>2021-07-11T10:40:14.000Z</time>
      </trkpt>
      <trkpt lat="47.89089" lon="7.22298">
        <ele>288.39999389648</ele>
        <time>2021-07-11T10:40:19.000Z</time>
      </trkpt>
      <trkpt lat="47.8909" lon="7.22288">
        <ele>288.39999389648</ele>
        <time>2021-07-11T10:40:23.000Z</time>
      </trkpt>
      <trkpt lat="47.89091" lon="7.22287">
        <ele>288.39999389648</ele>
        <time>2021-07-11T10:40:24.000Z</time>
      </trkpt>
      <trkpt lat="47.8909" lon="7.22286">
        <ele>288.39999389648</ele>
        <time>2021-07-11T10:42:35.000Z</time>
      </trkpt>
      <trkpt lat="47.89089" lon="7.22286">
        <ele>288.39999389648</ele>
        <time>2021-07-11T10:42:36.000Z</time>
      </trkpt>
    </trkseg>
  </trk>
</gpx>